<?xml version='1.0' encoding='UTF-8'?><gpx version="1.1" creator="JPX - https://github.com/jenetics/jpx" xmlns="http://www.topografix.com/GPX/1/1"><trk><trkseg><trkpt lat="42.3537426" lon="13.4024399"><ele>735.0</ele><time>2026-05-03T07:05:41.899Z</time></trkpt><trkpt lat="42.3537548" lon="13.4023489"><ele>735.0</ele><time>2026-05-03T07:05:47.899Z</time></trkpt><trkpt lat="42.3537374" lon="13.4022483"><ele>735.0</ele><time>2026-05-03T07:05:51.899Z</time></trkpt><trkpt lat="42.3537354" lon="13.4021551"><ele>735.0</ele><time>2026-05-03T07:08:48.898Z</time></trkpt><trkpt lat="42.3537312" lon="13.4020158"><ele>735.0</ele><time>2026-05-03T07:09:18.898Z</time></trkpt><trkpt lat="42.3537311" lon="13.4018671"><ele>735.0</ele><time>2026-05-03T07:09:20.898Z</time></trkpt><trkpt lat="42.3537895" lon="13.4017274"><ele>734.8571428571429</ele><time>2026-05-03T07:09:22.899Z</time></trkpt><trkpt lat="42.3538437" lon="13.4016773"><ele>734.7142857142858</ele><time>2026-05-03T07:09:23.899Z</time></trkpt><trkpt lat="42.3539062" lon="13.40165"><ele>734.5714285714286</ele><time>2026-05-03T07:09:24.898Z</time></trkpt><trkpt lat="42.3539731" lon="13.4016544"><ele>734.4285714285714</ele><time>2026-05-03T07:09:25.898Z</time></trkpt><trkpt lat="42.3540299" lon="13.4017127"><ele>734.2857142857143</ele><time>2026-05-03T07:09:26.898Z</time></trkpt><trkpt lat="42.3540857" lon="13.4017818"><ele>734.1428571428571</ele><time>2026-05-03T07:09:27.899Z</time></trkpt><trkpt lat="42.3541474" lon="13.4018615"><ele>734.0</ele><time>2026-05-03T07:09:28.899Z</time></trkpt><trkpt lat="42.354213" lon="13.4019382"><ele>733.4000000000001</ele><time>2026-05-03T07:09:29.898Z</time></trkpt><trkpt lat="42.3542808" lon="13.4020208"><ele>732.8</ele><time>2026-05-03T07:09:30.898Z</time></trkpt><trkpt lat="42.3543525" lon="13.4021086"><ele>732.2</ele><time>2026-05-03T07:09:31.899Z</time></trkpt><trkpt lat="42.354434" lon="13.4022034"><ele>731.5999999999999</ele><time>2026-05-03T07:09:32.899Z</time></trkpt><trkpt lat="42.3545167" lon="13.4022983"><ele>731.0</ele><time>2026-05-03T07:09:33.898Z</time></trkpt><trkpt lat="42.3546014" lon="13.4023952"><ele>731.0</ele><time>2026-05-03T07:09:34.899Z</time></trkpt><trkpt lat="42.3546876" lon="13.4024993"><ele>731.0</ele><time>2026-05-03T07:09:35.899Z</time></trkpt><trkpt lat="42.3547745" lon="13.4026011"><ele>731.0</ele><time>2026-05-03T07:09:36.898Z</time></trkpt><trkpt lat="42.3548653" lon="13.402704"><ele>731.0</ele><time>2026-05-03T07:09:37.898Z</time></trkpt><trkpt lat="42.3549527" lon="13.4028113"><ele>729.0</ele><time>2026-05-03T07:09:38.898Z</time></trkpt><trkpt lat="42.3550377" lon="13.4029217"><ele>727.0</ele><time>2026-05-03T07:09:39.898Z</time></trkpt><trkpt lat="42.3551118" lon="13.4030371"><ele>725.0</ele><time>2026-05-03T07:09:40.899Z</time></trkpt><trkpt lat="42.3551764" lon="13.4031599"><ele>723.0</ele><time>2026-05-03T07:09:41.898Z</time></trkpt><trkpt lat="42.3552337" lon="13.4032933"><ele>723.0</ele><time>2026-05-03T07:09:42.898Z</time></trkpt><trkpt lat="42.3552818" lon="13.4034355"><ele>723.0</ele><time>2026-05-03T07:09:43.899Z</time></trkpt><trkpt lat="42.3553149" lon="13.4035782"><ele>723.0</ele><time>2026-05-03T07:09:44.898Z</time></trkpt><trkpt lat="42.3553502" lon="13.4037182"><ele>723.0</ele><time>2026-05-03T07:09:45.898Z</time></trkpt><trkpt lat="42.3553844" lon="13.4038573"><ele>723.0</ele><time>2026-05-03T07:09:46.899Z</time></trkpt><trkpt lat="42.3554173" lon="13.4039974"><ele>724.4</ele><time>2026-05-03T07:09:47.898Z</time></trkpt><trkpt lat="42.3554475" lon="13.4041382"><ele>725.8</ele><time>2026-05-03T07:09:48.898Z</time></trkpt><trkpt lat="42.3554793" lon="13.4042745"><ele>727.2</ele><time>2026-05-03T07:09:49.898Z</time></trkpt><trkpt lat="42.3555095" lon="13.4044078"><ele>728.6</ele><time>2026-05-03T07:09:50.898Z</time></trkpt><trkpt lat="42.3555406" lon="13.4045436"><ele>730.0</ele><time>2026-05-03T07:09:51.899Z</time></trkpt><trkpt lat="42.3555716" lon="13.4046816"><ele>726.2</ele><time>2026-05-03T07:09:52.898Z</time></trkpt><trkpt lat="42.3556018" lon="13.4048251"><ele>722.4</ele><time>2026-05-03T07:09:53.898Z</time></trkpt><trkpt lat="42.3556295" lon="13.4049668"><ele>718.5999999999999</ele><time>2026-05-03T07:09:54.899Z</time></trkpt><trkpt lat="42.3556557" lon="13.4051076"><ele>714.8</ele><time>2026-05-03T07:09:55.897Z</time></trkpt><trkpt lat="42.3556778" lon="13.405238"><ele>711.0</ele><time>2026-05-03T07:09:56.898Z</time></trkpt><trkpt lat="42.3557012" lon="13.4053561"><ele>711.0</ele><time>2026-05-03T07:09:57.899Z</time></trkpt><trkpt lat="42.3557235" lon="13.4054655"><ele>711.0</ele><time>2026-05-03T07:09:58.899Z</time></trkpt><trkpt lat="42.355738" lon="13.4055578"><ele>711.0</ele><time>2026-05-03T07:09:59.898Z</time></trkpt><trkpt lat="42.355746" lon="13.4056495"><ele>711.0</ele><time>2026-05-03T07:10:01.898Z</time></trkpt><trkpt lat="42.35574" lon="13.4057403"><ele>711.0</ele><time>2026-05-03T07:10:03.899Z</time></trkpt><trkpt lat="42.3557497" lon="13.4059108"><ele>711.0</ele><time>2026-05-03T07:10:05.898Z</time></trkpt><trkpt lat="42.3557698" lon="13.4060151"><ele>711.1666666666666</ele><time>2026-05-03T07:10:06.899Z</time></trkpt><trkpt lat="42.3557895" lon="13.4061204"><ele>711.3333333333334</ele><time>2026-05-03T07:10:07.898Z</time></trkpt><trkpt lat="42.3557963" lon="13.4062257"><ele>711.5</ele><time>2026-05-03T07:10:08.898Z</time></trkpt><trkpt lat="42.3557891" lon="13.4063342"><ele>711.6666666666667</ele><time>2026-05-03T07:10:09.898Z</time></trkpt><trkpt lat="42.3557652" lon="13.4064339"><ele>711.8333333333334</ele><time>2026-05-03T07:10:10.898Z</time></trkpt><trkpt lat="42.3557298" lon="13.4065241"><ele>712.0</ele><time>2026-05-03T07:10:11.898Z</time></trkpt><trkpt lat="42.3556885" lon="13.4066072"><ele>712.0</ele><time>2026-05-03T07:10:12.899Z</time></trkpt><trkpt lat="42.3556459" lon="13.4066838"><ele>712.0</ele><time>2026-05-03T07:10:13.898Z</time></trkpt><trkpt lat="42.3555597" lon="13.4067971"><ele>712.0</ele><time>2026-05-03T07:10:15.899Z</time></trkpt><trkpt lat="42.3555017" lon="13.4068377"><ele>712.0</ele><time>2026-05-03T07:10:16.898Z</time></trkpt><trkpt lat="42.3554366" lon="13.4068749"><ele>712.0</ele><time>2026-05-03T07:10:17.898Z</time></trkpt><trkpt lat="42.3553779" lon="13.4069247"><ele>712.0</ele><time>2026-05-03T07:10:18.898Z</time></trkpt><trkpt lat="42.3553233" lon="13.4069964"><ele>712.0</ele><time>2026-05-03T07:10:19.898Z</time></trkpt><trkpt lat="42.3552835" lon="13.4070735"><ele>712.0</ele><time>2026-05-03T07:10:20.898Z</time></trkpt><trkpt lat="42.3552484" lon="13.4071506"><ele>712.0</ele><time>2026-05-03T07:10:21.898Z</time></trkpt><trkpt lat="42.3551983" lon="13.407231"><ele>712.0</ele><time>2026-05-03T07:10:22.898Z</time></trkpt><trkpt lat="42.3551413" lon="13.4073126"><ele>712.0</ele><time>2026-05-03T07:10:23.898Z</time></trkpt><trkpt lat="42.3550931" lon="13.4074174"><ele>712.0</ele><time>2026-05-03T07:10:24.899Z</time></trkpt><trkpt lat="42.3550358" lon="13.4075281"><ele>712.0</ele><time>2026-05-03T07:10:25.899Z</time></trkpt><trkpt lat="42.3549815" lon="13.4076459"><ele>712.0</ele><time>2026-05-03T07:10:26.898Z</time></trkpt><trkpt lat="42.3549267" lon="13.4077687"><ele>712.0</ele><time>2026-05-03T07:10:27.898Z</time></trkpt><trkpt lat="42.3548736" lon="13.4079052"><ele>712.0</ele><time>2026-05-03T07:10:28.899Z</time></trkpt><trkpt lat="42.3548168" lon="13.4080575"><ele>712.0</ele><time>2026-05-03T07:10:29.898Z</time></trkpt><trkpt lat="42.3547463" lon="13.4082164"><ele>712.5</ele><time>2026-05-03T07:10:30.898Z</time></trkpt><trkpt lat="42.3546666" lon="13.4083775"><ele>713.0</ele><time>2026-05-03T07:10:31.898Z</time></trkpt><trkpt lat="42.3545796" lon="13.4085374"><ele>713.5</ele><time>2026-05-03T07:10:32.899Z</time></trkpt><trkpt lat="42.3544861" lon="13.4086952"><ele>714.0</ele><time>2026-05-03T07:10:33.899Z</time></trkpt><trkpt lat="42.3543864" lon="13.4088497"><ele>714.0</ele><time>2026-05-03T07:10:34.898Z</time></trkpt><trkpt lat="42.3542871" lon="13.4090034"><ele>714.0</ele><time>2026-05-03T07:10:35.898Z</time></trkpt><trkpt lat="42.3541872" lon="13.4091526"><ele>714.0</ele><time>2026-05-03T07:10:36.898Z</time></trkpt><trkpt lat="42.3540927" lon="13.4092946"><ele>714.0</ele><time>2026-05-03T07:10:37.898Z</time></trkpt><trkpt lat="42.3539993" lon="13.4094358"><ele>714.0</ele><time>2026-05-03T07:10:38.898Z</time></trkpt><trkpt lat="42.3539098" lon="13.4095694"><ele>714.0</ele><time>2026-05-03T07:10:39.898Z</time></trkpt><trkpt lat="42.3538186" lon="13.409702"><ele>714.0</ele><time>2026-05-03T07:10:40.898Z</time></trkpt><trkpt lat="42.3537283" lon="13.4098319"><ele>714.0</ele><time>2026-05-03T07:10:41.899Z</time></trkpt><trkpt lat="42.3536356" lon="13.4099679"><ele>713.75</ele><time>2026-05-03T07:10:42.899Z</time></trkpt><trkpt lat="42.3535373" lon="13.410116"><ele>713.5</ele><time>2026-05-03T07:10:43.898Z</time></trkpt><trkpt lat="42.353439" lon="13.4102554"><ele>713.25</ele><time>2026-05-03T07:10:44.898Z</time></trkpt><trkpt lat="42.3533483" lon="13.4103869"><ele>713.0</ele><time>2026-05-03T07:10:45.898Z</time></trkpt><trkpt lat="42.3532623" lon="13.4105089"><ele>713.25</ele><time>2026-05-03T07:10:46.898Z</time></trkpt><trkpt lat="42.3531855" lon="13.410622"><ele>713.5</ele><time>2026-05-03T07:10:47.898Z</time></trkpt><trkpt lat="42.3531032" lon="13.4107416"><ele>713.75</ele><time>2026-05-03T07:10:48.898Z</time></trkpt><trkpt lat="42.3530147" lon="13.4108733"><ele>714.0</ele><time>2026-05-03T07:10:49.899Z</time></trkpt><trkpt lat="42.3529276" lon="13.4110033"><ele>714.0</ele><time>2026-05-03T07:10:50.898Z</time></trkpt><trkpt lat="42.3528474" lon="13.411117"><ele>714.0</ele><time>2026-05-03T07:10:51.898Z</time></trkpt><trkpt lat="42.3527774" lon="13.4112158"><ele>714.0</ele><time>2026-05-03T07:10:52.898Z</time></trkpt><trkpt lat="42.3527113" lon="13.411307"><ele>714.0</ele><time>2026-05-03T07:10:53.898Z</time></trkpt><trkpt lat="42.3526499" lon="13.4114"><ele>714.0</ele><time>2026-05-03T07:10:54.899Z</time></trkpt><trkpt lat="42.3525883" lon="13.4114914"><ele>714.3333333333334</ele><time>2026-05-03T07:10:55.898Z</time></trkpt><trkpt lat="42.3525264" lon="13.4115812"><ele>714.6666666666666</ele><time>2026-05-03T07:10:56.898Z</time></trkpt><trkpt lat="42.3524705" lon="13.4116618"><ele>715.0</ele><time>2026-05-03T07:10:57.898Z</time></trkpt><trkpt lat="42.3524172" lon="13.411739"><ele>715.3333333333333</ele><time>2026-05-03T07:10:58.898Z</time></trkpt><trkpt lat="42.3523643" lon="13.4118153"><ele>715.6666666666666</ele><time>2026-05-03T07:10:59.898Z</time></trkpt><trkpt lat="42.3523098" lon="13.411894"><ele>716.0</ele><time>2026-05-03T07:11:00.899Z</time></trkpt><trkpt lat="42.3522524" lon="13.4119801"><ele>715.8</ele><time>2026-05-03T07:11:01.898Z</time></trkpt><trkpt lat="42.3521889" lon="13.4120746"><ele>715.5999999999999</ele><time>2026-05-03T07:11:02.899Z</time></trkpt><trkpt lat="42.3521233" lon="13.4121761"><ele>715.4</ele><time>2026-05-03T07:11:03.899Z</time></trkpt><trkpt lat="42.3520612" lon="13.4122847"><ele>715.2</ele><time>2026-05-03T07:11:04.898Z</time></trkpt><trkpt lat="42.3520122" lon="13.4123976"><ele>715.0</ele><time>2026-05-03T07:11:05.898Z</time></trkpt><trkpt lat="42.3519849" lon="13.4125181"><ele>715.0</ele><time>2026-05-03T07:11:06.898Z</time></trkpt><trkpt lat="42.3519792" lon="13.4126516"><ele>715.0</ele><time>2026-05-03T07:11:07.899Z</time></trkpt><trkpt lat="42.3519921" lon="13.4127939"><ele>715.0</ele><time>2026-05-03T07:11:08.898Z</time></trkpt><trkpt lat="42.3520241" lon="13.4129333"><ele>715.0</ele><time>2026-05-03T07:11:09.899Z</time></trkpt><trkpt lat="42.3520761" lon="13.4130718"><ele>715.0</ele><time>2026-05-03T07:11:10.898Z</time></trkpt><trkpt lat="42.352139" lon="13.4132133"><ele>716.25</ele><time>2026-05-03T07:11:11.898Z</time></trkpt><trkpt lat="42.3522091" lon="13.413364"><ele>717.5</ele><time>2026-05-03T07:11:12.899Z</time></trkpt><trkpt lat="42.3522776" lon="13.4135237"><ele>718.75</ele><time>2026-05-03T07:11:13.898Z</time></trkpt><trkpt lat="42.3523406" lon="13.413683"><ele>720.0</ele><time>2026-05-03T07:11:14.898Z</time></trkpt><trkpt lat="42.3523978" lon="13.4138533"><ele>720.0</ele><time>2026-05-03T07:11:15.898Z</time></trkpt><trkpt lat="42.3524418" lon="13.4140334"><ele>720.0</ele><time>2026-05-03T07:11:16.898Z</time></trkpt><trkpt lat="42.3524603" lon="13.4142244"><ele>720.0</ele><time>2026-05-03T07:11:17.898Z</time></trkpt><trkpt lat="42.3524617" lon="13.4144123"><ele>720.0</ele><time>2026-05-03T07:11:18.899Z</time></trkpt><trkpt lat="42.3524494" lon="13.414598"><ele>720.25</ele><time>2026-05-03T07:11:19.898Z</time></trkpt><trkpt lat="42.3524243" lon="13.4147841"><ele>720.5</ele><time>2026-05-03T07:11:20.898Z</time></trkpt><trkpt lat="42.3523805" lon="13.4149715"><ele>720.75</ele><time>2026-05-03T07:11:21.898Z</time></trkpt><trkpt lat="42.3523218" lon="13.415158"><ele>721.0</ele><time>2026-05-03T07:11:22.898Z</time></trkpt><trkpt lat="42.352245" lon="13.4153462"><ele>722.0</ele><time>2026-05-03T07:11:23.898Z</time></trkpt><trkpt lat="42.3521496" lon="13.4155308"><ele>723.0</ele><time>2026-05-03T07:11:24.898Z</time></trkpt><trkpt lat="42.3520441" lon="13.41571"><ele>724.0</ele><time>2026-05-03T07:11:25.898Z</time></trkpt><trkpt lat="42.3519412" lon="13.4158908"><ele>724.0</ele><time>2026-05-03T07:11:26.898Z</time></trkpt><trkpt lat="42.3518539" lon="13.4160831"><ele>724.0</ele><time>2026-05-03T07:11:27.899Z</time></trkpt><trkpt lat="42.3517882" lon="13.416288"><ele>724.0</ele><time>2026-05-03T07:11:28.898Z</time></trkpt><trkpt lat="42.3517394" lon="13.4164991"><ele>725.0</ele><time>2026-05-03T07:11:29.899Z</time></trkpt><trkpt lat="42.3517066" lon="13.4167125"><ele>726.0</ele><time>2026-05-03T07:11:30.899Z</time></trkpt><trkpt lat="42.3516854" lon="13.416926"><ele>727.0</ele><time>2026-05-03T07:11:31.898Z</time></trkpt><trkpt lat="42.351671" lon="13.4171352"><ele>727.75</ele><time>2026-05-03T07:11:32.898Z</time></trkpt><trkpt lat="42.3516594" lon="13.4173345"><ele>728.5</ele><time>2026-05-03T07:11:33.899Z</time></trkpt><trkpt lat="42.3516509" lon="13.4175295"><ele>729.25</ele><time>2026-05-03T07:11:34.898Z</time></trkpt><trkpt lat="42.3516473" lon="13.4177233"><ele>730.0</ele><time>2026-05-03T07:11:35.899Z</time></trkpt><trkpt lat="42.3516504" lon="13.4179118"><ele>730.0</ele><time>2026-05-03T07:11:36.898Z</time></trkpt><trkpt lat="42.351666" lon="13.4180807"><ele>730.0</ele><time>2026-05-03T07:11:37.899Z</time></trkpt><trkpt lat="42.3516971" lon="13.4182315"><ele>730.0</ele><time>2026-05-03T07:11:38.898Z</time></trkpt><trkpt lat="42.3517416" lon="13.4183574"><ele>730.0</ele><time>2026-05-03T07:11:39.898Z</time></trkpt><trkpt lat="42.3517884" lon="13.418466"><ele>730.0</ele><time>2026-05-03T07:11:40.899Z</time></trkpt><trkpt lat="42.3518342" lon="13.4185534"><ele>730.0</ele><time>2026-05-03T07:11:41.898Z</time></trkpt><trkpt lat="42.351875" lon="13.4186188"><ele>730.0</ele><time>2026-05-03T07:11:42.899Z</time></trkpt><trkpt lat="42.3519307" lon="13.4187184"><ele>730.0</ele><time>2026-05-03T07:11:44.898Z</time></trkpt><trkpt lat="42.3519551" lon="13.4188178"><ele>730.0</ele><time>2026-05-03T07:11:46.899Z</time></trkpt><trkpt lat="42.3519619" lon="13.4189085"><ele>730.0</ele><time>2026-05-03T07:11:48.899Z</time></trkpt><trkpt lat="42.3519227" lon="13.4190056"><ele>730.0</ele><time>2026-05-03T07:11:51.9Z</time></trkpt><trkpt lat="42.3518879" lon="13.4191557"><ele>730.1666666666667</ele><time>2026-05-03T07:11:53.899Z</time></trkpt><trkpt lat="42.3518896" lon="13.4192486"><ele>730.3333333333334</ele><time>2026-05-03T07:11:54.898Z</time></trkpt><trkpt lat="42.3519163" lon="13.4193463"><ele>730.5</ele><time>2026-05-03T07:11:55.899Z</time></trkpt><trkpt lat="42.3519684" lon="13.4194459"><ele>730.6666666666666</ele><time>2026-05-03T07:11:56.898Z</time></trkpt><trkpt lat="42.3520332" lon="13.4195566"><ele>730.8333333333333</ele><time>2026-05-03T07:11:57.899Z</time></trkpt><trkpt lat="42.3520974" lon="13.419674"><ele>731.0</ele><time>2026-05-03T07:11:58.898Z</time></trkpt><trkpt lat="42.3521509" lon="13.4197996"><ele>731.4</ele><time>2026-05-03T07:11:59.898Z</time></trkpt><trkpt lat="42.3521821" lon="13.4199357"><ele>731.8</ele><time>2026-05-03T07:12:00.898Z</time></trkpt><trkpt lat="42.3521875" lon="13.4200768"><ele>732.1999999999999</ele><time>2026-05-03T07:12:01.899Z</time></trkpt><trkpt lat="42.3521835" lon="13.4202178"><ele>732.5999999999999</ele><time>2026-05-03T07:12:02.898Z</time></trkpt><trkpt lat="42.3521825" lon="13.4203634"><ele>733.0</ele><time>2026-05-03T07:12:03.898Z</time></trkpt><trkpt lat="42.3521936" lon="13.4205174"><ele>735.0</ele><time>2026-05-03T07:12:04.899Z</time></trkpt><trkpt lat="42.3522209" lon="13.4206715"><ele>737.0</ele><time>2026-05-03T07:12:05.899Z</time></trkpt><trkpt lat="42.3522534" lon="13.4208216"><ele>739.0</ele><time>2026-05-03T07:12:06.898Z</time></trkpt><trkpt lat="42.3522924" lon="13.4209688"><ele>741.0</ele><time>2026-05-03T07:12:07.899Z</time></trkpt><trkpt lat="42.3523328" lon="13.4211202"><ele>741.0</ele><time>2026-05-03T07:12:08.898Z</time></trkpt><trkpt lat="42.3523695" lon="13.4212734"><ele>741.0</ele><time>2026-05-03T07:12:09.898Z</time></trkpt><trkpt lat="42.3523999" lon="13.4214295"><ele>741.0</ele><time>2026-05-03T07:12:10.899Z</time></trkpt><trkpt lat="42.3524115" lon="13.4215825"><ele>741.0</ele><time>2026-05-03T07:12:11.898Z</time></trkpt><trkpt lat="42.3524018" lon="13.4217193"><ele>741.75</ele><time>2026-05-03T07:12:12.899Z</time></trkpt><trkpt lat="42.3523812" lon="13.4218507"><ele>742.5</ele><time>2026-05-03T07:12:13.899Z</time></trkpt><trkpt lat="42.3523615" lon="13.4219869"><ele>743.25</ele><time>2026-05-03T07:12:14.898Z</time></trkpt><trkpt lat="42.3523519" lon="13.4221493"><ele>744.0</ele><time>2026-05-03T07:12:15.9Z</time></trkpt><trkpt lat="42.352361" lon="13.4223299"><ele>742.25</ele><time>2026-05-03T07:12:16.899Z</time></trkpt><trkpt lat="42.3523732" lon="13.4225214"><ele>740.5</ele><time>2026-05-03T07:12:17.899Z</time></trkpt><trkpt lat="42.3523859" lon="13.422711"><ele>738.75</ele><time>2026-05-03T07:12:18.898Z</time></trkpt><trkpt lat="42.3524039" lon="13.4229009"><ele>737.0</ele><time>2026-05-03T07:12:19.898Z</time></trkpt><trkpt lat="42.3524253" lon="13.4230891"><ele>734.5</ele><time>2026-05-03T07:12:20.898Z</time></trkpt><trkpt lat="42.3524423" lon="13.4232758"><ele>732.0</ele><time>2026-05-03T07:12:21.898Z</time></trkpt><trkpt lat="42.3524486" lon="13.4234603"><ele>729.5</ele><time>2026-05-03T07:12:22.899Z</time></trkpt><trkpt lat="42.3524362" lon="13.4236383"><ele>727.0</ele><time>2026-05-03T07:12:23.898Z</time></trkpt><trkpt lat="42.3524095" lon="13.423811"><ele>725.5</ele><time>2026-05-03T07:12:24.898Z</time></trkpt><trkpt lat="42.3523773" lon="13.4239934"><ele>724.0</ele><time>2026-05-03T07:12:25.899Z</time></trkpt><trkpt lat="42.3523418" lon="13.4241851"><ele>722.5</ele><time>2026-05-03T07:12:26.898Z</time></trkpt><trkpt lat="42.3522998" lon="13.4243808"><ele>721.0</ele><time>2026-05-03T07:12:27.899Z</time></trkpt><trkpt lat="42.3522581" lon="13.4245821"><ele>720.5</ele><time>2026-05-03T07:12:28.899Z</time></trkpt><trkpt lat="42.3522167" lon="13.4247801"><ele>720.0</ele><time>2026-05-03T07:12:29.899Z</time></trkpt><trkpt lat="42.3521682" lon="13.4249559"><ele>719.5</ele><time>2026-05-03T07:12:30.898Z</time></trkpt><trkpt lat="42.3521038" lon="13.4251163"><ele>719.0</ele><time>2026-05-03T07:12:31.899Z</time></trkpt><trkpt lat="42.3520245" lon="13.4252708"><ele>718.75</ele><time>2026-05-03T07:12:32.899Z</time></trkpt><trkpt lat="42.3519449" lon="13.4254276"><ele>718.5</ele><time>2026-05-03T07:12:33.898Z</time></trkpt><trkpt lat="42.3518649" lon="13.4255853"><ele>718.25</ele><time>2026-05-03T07:12:34.899Z</time></trkpt><trkpt lat="42.3517861" lon="13.4257436"><ele>718.0</ele><time>2026-05-03T07:12:35.898Z</time></trkpt><trkpt lat="42.351715" lon="13.4258993"><ele>718.0</ele><time>2026-05-03T07:12:36.898Z</time></trkpt><trkpt lat="42.3516459" lon="13.4260506"><ele>718.0</ele><time>2026-05-03T07:12:37.898Z</time></trkpt><trkpt lat="42.3515817" lon="13.4262002"><ele>718.0</ele><time>2026-05-03T07:12:38.899Z</time></trkpt><trkpt lat="42.3515276" lon="13.4263491"><ele>718.0</ele><time>2026-05-03T07:12:39.899Z</time></trkpt><trkpt lat="42.3514886" lon="13.4265054"><ele>720.75</ele><time>2026-05-03T07:12:40.898Z</time></trkpt><trkpt lat="42.3514523" lon="13.4266651"><ele>723.5</ele><time>2026-05-03T07:12:41.898Z</time></trkpt><trkpt lat="42.351419" lon="13.4268223"><ele>726.25</ele><time>2026-05-03T07:12:42.899Z</time></trkpt><trkpt lat="42.3513936" lon="13.4269767"><ele>729.0</ele><time>2026-05-03T07:12:43.898Z</time></trkpt><trkpt lat="42.3513745" lon="13.42713"><ele>730.2</ele><time>2026-05-03T07:12:44.898Z</time></trkpt><trkpt lat="42.3513573" lon="13.4272788"><ele>731.4000000000001</ele><time>2026-05-03T07:12:45.899Z</time></trkpt><trkpt lat="42.3513315" lon="13.4274105"><ele>732.6</ele><time>2026-05-03T07:12:46.898Z</time></trkpt><trkpt lat="42.3512894" lon="13.4275344"><ele>733.8</ele><time>2026-05-03T07:12:47.898Z</time></trkpt><trkpt lat="42.3512414" lon="13.4276493"><ele>735.0</ele><time>2026-05-03T07:12:48.898Z</time></trkpt><trkpt lat="42.3511959" lon="13.4277494"><ele>735.0</ele><time>2026-05-03T07:12:49.899Z</time></trkpt><trkpt lat="42.351147" lon="13.4278323"><ele>735.0</ele><time>2026-05-03T07:12:50.899Z</time></trkpt><trkpt lat="42.3511002" lon="13.4279083"><ele>735.0</ele><time>2026-05-03T07:12:51.899Z</time></trkpt><trkpt lat="42.3510664" lon="13.4279936"><ele>735.0</ele><time>2026-05-03T07:12:52.899Z</time></trkpt><trkpt lat="42.3510471" lon="13.4280753"><ele>735.0</ele><time>2026-05-03T07:12:53.898Z</time></trkpt><trkpt lat="42.3510863" lon="13.4281637"><ele>735.0</ele><time>2026-05-03T07:12:55.898Z</time></trkpt><trkpt lat="42.3511811" lon="13.42824"><ele>734.3333333333334</ele><time>2026-05-03T07:12:57.899Z</time></trkpt><trkpt lat="42.3512542" lon="13.4282847"><ele>733.6666666666666</ele><time>2026-05-03T07:12:58.898Z</time></trkpt><trkpt lat="42.3513315" lon="13.4283248"><ele>733.0</ele><time>2026-05-03T07:12:59.899Z</time></trkpt><trkpt lat="42.3514165" lon="13.4283583"><ele>732.3333333333333</ele><time>2026-05-03T07:13:00.898Z</time></trkpt><trkpt lat="42.3514975" lon="13.4283907"><ele>731.6666666666666</ele><time>2026-05-03T07:13:01.898Z</time></trkpt><trkpt lat="42.3515776" lon="13.4284368"><ele>731.0</ele><time>2026-05-03T07:13:02.899Z</time></trkpt><trkpt lat="42.3516492" lon="13.4285106"><ele>733.0</ele><time>2026-05-03T07:13:03.898Z</time></trkpt><trkpt lat="42.3517071" lon="13.4286077"><ele>735.0</ele><time>2026-05-03T07:13:04.899Z</time></trkpt><trkpt lat="42.3517598" lon="13.4287024"><ele>737.0</ele><time>2026-05-03T07:13:05.898Z</time></trkpt><trkpt lat="42.3518101" lon="13.4287968"><ele>739.0</ele><time>2026-05-03T07:13:06.898Z</time></trkpt><trkpt lat="42.3518475" lon="13.4288774"><ele>741.0</ele><time>2026-05-03T07:13:07.898Z</time></trkpt><trkpt lat="42.3518826" lon="13.4290441"><ele>741.1999999999999</ele><time>2026-05-03T07:13:09.898Z</time></trkpt><trkpt lat="42.3518766" lon="13.429151"><ele>741.4</ele><time>2026-05-03T07:13:10.898Z</time></trkpt><trkpt lat="42.3518375" lon="13.4292762"><ele>741.6</ele><time>2026-05-03T07:13:11.898Z</time></trkpt><trkpt lat="42.3517847" lon="13.4294138"><ele>741.8</ele><time>2026-05-03T07:13:12.898Z</time></trkpt><trkpt lat="42.3517261" lon="13.4295665"><ele>742.0</ele><time>2026-05-03T07:13:13.897Z</time></trkpt><trkpt lat="42.3516535" lon="13.4297207"><ele>742.4000000000001</ele><time>2026-05-03T07:13:14.898Z</time></trkpt><trkpt lat="42.3515805" lon="13.4298601"><ele>742.8000000000001</ele><time>2026-05-03T07:13:15.899Z</time></trkpt><trkpt lat="42.3515076" lon="13.4299729"><ele>743.2</ele><time>2026-05-03T07:13:16.898Z</time></trkpt><trkpt lat="42.35143" lon="13.430047"><ele>743.6</ele><time>2026-05-03T07:13:17.899Z</time></trkpt><trkpt lat="42.3513433" lon="13.4300761"><ele>744.0</ele><time>2026-05-03T07:13:18.899Z</time></trkpt><trkpt lat="42.3512547" lon="13.4300538"><ele>741.6</ele><time>2026-05-03T07:13:19.898Z</time></trkpt><trkpt lat="42.351154" lon="13.430025"><ele>739.2</ele><time>2026-05-03T07:13:20.899Z</time></trkpt><trkpt lat="42.3510485" lon="13.4299929"><ele>736.8000000000001</ele><time>2026-05-03T07:13:21.898Z</time></trkpt><trkpt lat="42.3509487" lon="13.4299665"><ele>734.4000000000001</ele><time>2026-05-03T07:13:22.899Z</time></trkpt><trkpt lat="42.3508402" lon="13.4299565"><ele>732.0</ele><time>2026-05-03T07:13:23.9Z</time></trkpt><trkpt lat="42.3507323" lon="13.4299857"><ele>732.0</ele><time>2026-05-03T07:13:24.898Z</time></trkpt><trkpt lat="42.350634" lon="13.4300479"><ele>732.0</ele><time>2026-05-03T07:13:25.899Z</time></trkpt><trkpt lat="42.3505414" lon="13.4301367"><ele>732.0</ele><time>2026-05-03T07:13:26.898Z</time></trkpt><trkpt lat="42.3504635" lon="13.4302558"><ele>732.0</ele><time>2026-05-03T07:13:27.898Z</time></trkpt><trkpt lat="42.3503873" lon="13.4303865"><ele>731.0</ele><time>2026-05-03T07:13:28.898Z</time></trkpt><trkpt lat="42.3503081" lon="13.4305194"><ele>730.0</ele><time>2026-05-03T07:13:29.898Z</time></trkpt><trkpt lat="42.3502237" lon="13.4306473"><ele>729.0</ele><time>2026-05-03T07:13:30.899Z</time></trkpt><trkpt lat="42.3501397" lon="13.4307711"><ele>728.0</ele><time>2026-05-03T07:13:31.899Z</time></trkpt><trkpt lat="42.3500503" lon="13.4308854"><ele>728.0</ele><time>2026-05-03T07:13:32.898Z</time></trkpt><trkpt lat="42.3499463" lon="13.4309686"><ele>728.0</ele><time>2026-05-03T07:13:33.899Z</time></trkpt><trkpt lat="42.3498343" lon="13.4310246"><ele>728.0</ele><time>2026-05-03T07:13:34.899Z</time></trkpt><trkpt lat="42.3497185" lon="13.4310548"><ele>728.0</ele><time>2026-05-03T07:13:35.898Z</time></trkpt><trkpt lat="42.3496032" lon="13.4310578"><ele>726.5999999999999</ele><time>2026-05-03T07:13:36.898Z</time></trkpt><trkpt lat="42.3494979" lon="13.4310363"><ele>725.1999999999999</ele><time>2026-05-03T07:13:37.898Z</time></trkpt><trkpt lat="42.3493946" lon="13.4310078"><ele>723.8</ele><time>2026-05-03T07:13:38.898Z</time></trkpt><trkpt lat="42.349301" lon="13.4310182"><ele>722.4</ele><time>2026-05-03T07:13:39.898Z</time></trkpt><trkpt lat="42.3492138" lon="13.4310427"><ele>721.0</ele><time>2026-05-03T07:13:40.898Z</time></trkpt><trkpt lat="42.3491206" lon="13.4310797"><ele>721.0</ele><time>2026-05-03T07:13:41.898Z</time></trkpt><trkpt lat="42.3490215" lon="13.4311224"><ele>721.0</ele><time>2026-05-03T07:13:42.898Z</time></trkpt><trkpt lat="42.3489234" lon="13.4311736"><ele>721.0</ele><time>2026-05-03T07:13:43.898Z</time></trkpt><trkpt lat="42.3488285" lon="13.4312339"><ele>721.0</ele><time>2026-05-03T07:13:44.898Z</time></trkpt><trkpt lat="42.3487351" lon="13.4313061"><ele>721.0</ele><time>2026-05-03T07:13:45.898Z</time></trkpt><trkpt lat="42.3486379" lon="13.4313805"><ele>721.0</ele><time>2026-05-03T07:13:46.898Z</time></trkpt><trkpt lat="42.3485384" lon="13.4314463"><ele>721.0</ele><time>2026-05-03T07:13:47.899Z</time></trkpt><trkpt lat="42.3484412" lon="13.4315023"><ele>721.0</ele><time>2026-05-03T07:13:48.899Z</time></trkpt><trkpt lat="42.3483464" lon="13.431551"><ele>721.0</ele><time>2026-05-03T07:13:49.898Z</time></trkpt><trkpt lat="42.3482506" lon="13.43159"><ele>721.0</ele><time>2026-05-03T07:13:50.898Z</time></trkpt><trkpt lat="42.3481604" lon="13.431619"><ele>721.0</ele><time>2026-05-03T07:13:51.898Z</time></trkpt><trkpt lat="42.3480761" lon="13.431649"><ele>721.0</ele><time>2026-05-03T07:13:52.898Z</time></trkpt><trkpt lat="42.3479951" lon="13.4316839"><ele>721.0</ele><time>2026-05-03T07:13:53.899Z</time></trkpt><trkpt lat="42.3479142" lon="13.4317268"><ele>721.0</ele><time>2026-05-03T07:13:54.899Z</time></trkpt><trkpt lat="42.3478382" lon="13.4317729"><ele>721.0</ele><time>2026-05-03T07:13:55.898Z</time></trkpt><trkpt lat="42.3477636" lon="13.4318171"><ele>721.0</ele><time>2026-05-03T07:13:56.898Z</time></trkpt><trkpt lat="42.3476872" lon="13.4318627"><ele>719.0</ele><time>2026-05-03T07:13:57.898Z</time></trkpt><trkpt lat="42.3476046" lon="13.4319131"><ele>717.0</ele><time>2026-05-03T07:13:58.899Z</time></trkpt><trkpt lat="42.3475128" lon="13.431966"><ele>715.0</ele><time>2026-05-03T07:13:59.899Z</time></trkpt><trkpt lat="42.347419" lon="13.4320191"><ele>713.0</ele><time>2026-05-03T07:14:00.898Z</time></trkpt><trkpt lat="42.3473286" lon="13.4320701"><ele>711.0</ele><time>2026-05-03T07:14:01.898Z</time></trkpt><trkpt lat="42.3472426" lon="13.4321189"><ele>711.4</ele><time>2026-05-03T07:14:02.898Z</time></trkpt><trkpt lat="42.3471558" lon="13.4321673"><ele>711.8</ele><time>2026-05-03T07:14:03.898Z</time></trkpt><trkpt lat="42.3470661" lon="13.4322162"><ele>712.1999999999999</ele><time>2026-05-03T07:14:04.898Z</time></trkpt><trkpt lat="42.3469775" lon="13.4322668"><ele>712.5999999999999</ele><time>2026-05-03T07:14:05.898Z</time></trkpt><trkpt lat="42.3468887" lon="13.4323232"><ele>713.0</ele><time>2026-05-03T07:14:06.898Z</time></trkpt><trkpt lat="42.3467973" lon="13.4323964"><ele>713.0</ele><time>2026-05-03T07:14:07.899Z</time></trkpt><trkpt lat="42.3467071" lon="13.4324805"><ele>713.0</ele><time>2026-05-03T07:14:08.898Z</time></trkpt><trkpt lat="42.3466195" lon="13.4325673"><ele>713.0</ele><time>2026-05-03T07:14:09.899Z</time></trkpt><trkpt lat="42.3465376" lon="13.4326481"><ele>713.0</ele><time>2026-05-03T07:14:10.899Z</time></trkpt><trkpt lat="42.3464601" lon="13.432724"><ele>713.0</ele><time>2026-05-03T07:14:11.898Z</time></trkpt><trkpt lat="42.3463823" lon="13.4327954"><ele>713.1666666666666</ele><time>2026-05-03T07:14:12.899Z</time></trkpt><trkpt lat="42.3463099" lon="13.4328583"><ele>713.3333333333333</ele><time>2026-05-03T07:14:13.898Z</time></trkpt><trkpt lat="42.3462335" lon="13.4329144"><ele>713.5</ele><time>2026-05-03T07:14:14.899Z</time></trkpt><trkpt lat="42.3461569" lon="13.4329656"><ele>713.6666666666666</ele><time>2026-05-03T07:14:15.899Z</time></trkpt><trkpt lat="42.3460847" lon="13.4330141"><ele>713.8333333333334</ele><time>2026-05-03T07:14:16.899Z</time></trkpt><trkpt lat="42.3460187" lon="13.4330604"><ele>714.0</ele><time>2026-05-03T07:14:17.899Z</time></trkpt><trkpt lat="42.3459568" lon="13.4330998"><ele>714.0</ele><time>2026-05-03T07:14:18.898Z</time></trkpt><trkpt lat="42.3458574" lon="13.4331586"><ele>714.0</ele><time>2026-05-03T07:14:20.898Z</time></trkpt><trkpt lat="42.3457846" lon="13.4332142"><ele>714.0</ele><time>2026-05-03T07:14:23.899Z</time></trkpt><trkpt lat="42.3457256" lon="13.4332732"><ele>714.0</ele><time>2026-05-03T07:14:25.899Z</time></trkpt><trkpt lat="42.3456635" lon="13.4333358"><ele>714.0</ele><time>2026-05-03T07:14:27.898Z</time></trkpt><trkpt lat="42.345574" lon="13.4333997"><ele>714.0</ele><time>2026-05-03T07:14:29.899Z</time></trkpt><trkpt lat="42.3454785" lon="13.4334647"><ele>712.6</ele><time>2026-05-03T07:14:31.898Z</time></trkpt><trkpt lat="42.3453791" lon="13.4335583"><ele>711.2</ele><time>2026-05-03T07:14:33.898Z</time></trkpt><trkpt lat="42.3453197" lon="13.4336263"><ele>709.8000000000001</ele><time>2026-05-03T07:14:34.898Z</time></trkpt><trkpt lat="42.3452572" lon="13.4337011"><ele>708.4000000000001</ele><time>2026-05-03T07:14:35.898Z</time></trkpt><trkpt lat="42.3451996" lon="13.4337881"><ele>707.0</ele><time>2026-05-03T07:14:36.899Z</time></trkpt><trkpt lat="42.345144" lon="13.4338848"><ele>707.0</ele><time>2026-05-03T07:14:37.898Z</time></trkpt><trkpt lat="42.345089" lon="13.4339923"><ele>707.0</ele><time>2026-05-03T07:14:38.898Z</time></trkpt><trkpt lat="42.3450347" lon="13.4341021"><ele>707.0</ele><time>2026-05-03T07:14:39.898Z</time></trkpt><trkpt lat="42.3449797" lon="13.4342185"><ele>707.0</ele><time>2026-05-03T07:14:40.898Z</time></trkpt><trkpt lat="42.3449322" lon="13.4343224"><ele>707.0</ele><time>2026-05-03T07:14:41.898Z</time></trkpt><trkpt lat="42.3448854" lon="13.4344262"><ele>707.0</ele><time>2026-05-03T07:14:42.898Z</time></trkpt><trkpt lat="42.344844" lon="13.4345221"><ele>707.0</ele><time>2026-05-03T07:14:43.898Z</time></trkpt><trkpt lat="42.3448015" lon="13.4346204"><ele>707.0</ele><time>2026-05-03T07:14:44.898Z</time></trkpt><trkpt lat="42.3447579" lon="13.4347199"><ele>707.0</ele><time>2026-05-03T07:14:45.898Z</time></trkpt><trkpt lat="42.3447137" lon="13.4348274"><ele>707.0</ele><time>2026-05-03T07:14:46.898Z</time></trkpt><trkpt lat="42.3446729" lon="13.4349347"><ele>707.0</ele><time>2026-05-03T07:14:47.898Z</time></trkpt><trkpt lat="42.3446316" lon="13.4350479"><ele>705.3333333333333</ele><time>2026-05-03T07:14:48.898Z</time></trkpt><trkpt lat="42.3445894" lon="13.4351536"><ele>703.6666666666666</ele><time>2026-05-03T07:14:49.899Z</time></trkpt><trkpt lat="42.3445508" lon="13.4352572"><ele>702.0</ele><time>2026-05-03T07:14:50.898Z</time></trkpt><trkpt lat="42.3445115" lon="13.4353581"><ele>700.3333333333334</ele><time>2026-05-03T07:14:51.898Z</time></trkpt><trkpt lat="42.344473" lon="13.435462"><ele>698.6666666666667</ele><time>2026-05-03T07:14:52.898Z</time></trkpt><trkpt lat="42.3444282" lon="13.4355697"><ele>697.0</ele><time>2026-05-03T07:14:53.899Z</time></trkpt><trkpt lat="42.3443782" lon="13.4356693"><ele>697.0</ele><time>2026-05-03T07:14:54.899Z</time></trkpt><trkpt lat="42.3443353" lon="13.4357631"><ele>697.0</ele><time>2026-05-03T07:14:55.899Z</time></trkpt><trkpt lat="42.3443072" lon="13.4358567"><ele>697.0</ele><time>2026-05-03T07:14:56.899Z</time></trkpt><trkpt lat="42.3442908" lon="13.4359679"><ele>697.0</ele><time>2026-05-03T07:14:57.898Z</time></trkpt><trkpt lat="42.3442846" lon="13.4360786"><ele>697.0</ele><time>2026-05-03T07:14:58.899Z</time></trkpt><trkpt lat="42.344273" lon="13.4361777"><ele>697.0</ele><time>2026-05-03T07:14:59.898Z</time></trkpt><trkpt lat="42.344261" lon="13.4362657"><ele>696.8333333333334</ele><time>2026-05-03T07:15:00.899Z</time></trkpt><trkpt lat="42.3442483" lon="13.4363992"><ele>696.6666666666667</ele><time>2026-05-03T07:15:02.898Z</time></trkpt><trkpt lat="42.344237" lon="13.4365102"><ele>696.5</ele><time>2026-05-03T07:15:04.898Z</time></trkpt><trkpt lat="42.3442317" lon="13.4366543"><ele>696.3333333333334</ele><time>2026-05-03T07:15:06.898Z</time></trkpt><trkpt lat="42.344228" lon="13.4367546"><ele>696.1666666666666</ele><time>2026-05-03T07:15:07.9Z</time></trkpt><trkpt lat="42.344216" lon="13.4368539"><ele>696.0</ele><time>2026-05-03T07:15:08.899Z</time></trkpt><trkpt lat="42.3441895" lon="13.4369532"><ele>696.0</ele><time>2026-05-03T07:15:09.898Z</time></trkpt><trkpt lat="42.3441564" lon="13.4370477"><ele>696.0</ele><time>2026-05-03T07:15:10.899Z</time></trkpt><trkpt lat="42.3441243" lon="13.4371446"><ele>696.0</ele><time>2026-05-03T07:15:11.899Z</time></trkpt><trkpt lat="42.3440953" lon="13.4372435"><ele>696.0</ele><time>2026-05-03T07:15:12.898Z</time></trkpt><trkpt lat="42.3440818" lon="13.437346"><ele>696.0</ele><time>2026-05-03T07:15:13.899Z</time></trkpt><trkpt lat="42.344079" lon="13.437457"><ele>696.0</ele><time>2026-05-03T07:15:14.899Z</time></trkpt><trkpt lat="42.3440676" lon="13.4375583"><ele>697.1666666666666</ele><time>2026-05-03T07:15:15.898Z</time></trkpt><trkpt lat="42.3440493" lon="13.4376573"><ele>698.3333333333334</ele><time>2026-05-03T07:15:16.898Z</time></trkpt><trkpt lat="42.3440321" lon="13.4377545"><ele>699.5</ele><time>2026-05-03T07:15:17.899Z</time></trkpt><trkpt lat="42.3440159" lon="13.4378562"><ele>700.6666666666667</ele><time>2026-05-03T07:15:18.898Z</time></trkpt><trkpt lat="42.3440056" lon="13.4379578"><ele>701.8333333333334</ele><time>2026-05-03T07:15:19.898Z</time></trkpt><trkpt lat="42.3439875" lon="13.4380752"><ele>703.0</ele><time>2026-05-03T07:15:20.899Z</time></trkpt><trkpt lat="42.3439686" lon="13.4381794"><ele>701.8333333333334</ele><time>2026-05-03T07:15:21.899Z</time></trkpt><trkpt lat="42.3439529" lon="13.4382901"><ele>700.6666666666667</ele><time>2026-05-03T07:15:22.899Z</time></trkpt><trkpt lat="42.3439409" lon="13.4383838"><ele>699.5</ele><time>2026-05-03T07:15:23.898Z</time></trkpt><trkpt lat="42.3439124" lon="13.4385445"><ele>698.3333333333334</ele><time>2026-05-03T07:15:25.898Z</time></trkpt><trkpt lat="42.3438909" lon="13.4386269"><ele>697.1666666666666</ele><time>2026-05-03T07:15:26.899Z</time></trkpt><trkpt lat="42.3438572" lon="13.4387198"><ele>696.0</ele><time>2026-05-03T07:15:27.898Z</time></trkpt><trkpt lat="42.3438144" lon="13.4388182"><ele>696.0</ele><time>2026-05-03T07:15:28.899Z</time></trkpt><trkpt lat="42.3437612" lon="13.4389064"><ele>696.0</ele><time>2026-05-03T07:15:29.898Z</time></trkpt><trkpt lat="42.3437022" lon="13.4389668"><ele>696.0</ele><time>2026-05-03T07:15:30.898Z</time></trkpt><trkpt lat="42.3436391" lon="13.4390124"><ele>696.0</ele><time>2026-05-03T07:15:31.899Z</time></trkpt><trkpt lat="42.3435724" lon="13.4390689"><ele>696.0</ele><time>2026-05-03T07:15:32.898Z</time></trkpt><trkpt lat="42.3435105" lon="13.4391365"><ele>696.0</ele><time>2026-05-03T07:15:33.898Z</time></trkpt><trkpt lat="42.3434473" lon="13.439217"><ele>696.0</ele><time>2026-05-03T07:15:34.898Z</time></trkpt><trkpt lat="42.3433865" lon="13.4392965"><ele>696.0</ele><time>2026-05-03T07:15:35.899Z</time></trkpt><trkpt lat="42.3433314" lon="13.4393659"><ele>696.0</ele><time>2026-05-03T07:15:36.898Z</time></trkpt><trkpt lat="42.3432797" lon="13.439434"><ele>696.0</ele><time>2026-05-03T07:15:37.899Z</time></trkpt><trkpt lat="42.3432291" lon="13.4394882"><ele>696.0</ele><time>2026-05-03T07:15:38.899Z</time></trkpt><trkpt lat="42.3431507" lon="13.4396121"><ele>696.0</ele><time>2026-05-03T07:15:40.899Z</time></trkpt><trkpt lat="42.343104" lon="13.4396808"><ele>695.7142857142857</ele><time>2026-05-03T07:15:41.899Z</time></trkpt><trkpt lat="42.3430466" lon="13.439737"><ele>695.4285714285714</ele><time>2026-05-03T07:15:42.898Z</time></trkpt><trkpt lat="42.3429924" lon="13.4397935"><ele>695.1428571428571</ele><time>2026-05-03T07:15:43.898Z</time></trkpt><trkpt lat="42.3429279" lon="13.4398369"><ele>694.8571428571429</ele><time>2026-05-03T07:15:44.898Z</time></trkpt><trkpt lat="42.3428587" lon="13.439867"><ele>694.5714285714286</ele><time>2026-05-03T07:15:45.898Z</time></trkpt><trkpt lat="42.3427902" lon="13.4398894"><ele>694.2857142857143</ele><time>2026-05-03T07:15:46.898Z</time></trkpt><trkpt lat="42.3427224" lon="13.4398947"><ele>694.0</ele><time>2026-05-03T07:15:47.899Z</time></trkpt><trkpt lat="42.3426553" lon="13.4398893"><ele>694.0</ele><time>2026-05-03T07:15:48.897Z</time></trkpt><trkpt lat="42.3425799" lon="13.4398798"><ele>694.0</ele><time>2026-05-03T07:15:49.898Z</time></trkpt><trkpt lat="42.342508" lon="13.4398727"><ele>694.0</ele><time>2026-05-03T07:15:50.899Z</time></trkpt><trkpt lat="42.342436" lon="13.4398726"><ele>694.0</ele><time>2026-05-03T07:15:51.898Z</time></trkpt><trkpt lat="42.3423672" lon="13.439892"><ele>694.0</ele><time>2026-05-03T07:15:52.898Z</time></trkpt><trkpt lat="42.342303" lon="13.4399269"><ele>694.0</ele><time>2026-05-03T07:15:53.899Z</time></trkpt><trkpt lat="42.3422445" lon="13.43997"><ele>694.0</ele><time>2026-05-03T07:15:54.898Z</time></trkpt><trkpt lat="42.3421411" lon="13.4400334"><ele>692.0</ele><time>2026-05-03T07:15:56.898Z</time></trkpt><trkpt lat="42.3420302" lon="13.4400691"><ele>690.0</ele><time>2026-05-03T07:15:58.898Z</time></trkpt><trkpt lat="42.3419319" lon="13.4401018"><ele>688.0</ele><time>2026-05-03T07:16:00.898Z</time></trkpt><trkpt lat="42.3418365" lon="13.4401382"><ele>686.0</ele><time>2026-05-03T07:16:02.899Z</time></trkpt><trkpt lat="42.3417726" lon="13.4401717"><ele>684.0</ele><time>2026-05-03T07:16:03.897Z</time></trkpt><trkpt lat="42.3416511" lon="13.4402011"><ele>684.0</ele><time>2026-05-03T07:16:05.898Z</time></trkpt><trkpt lat="42.3415326" lon="13.4402191"><ele>684.0</ele><time>2026-05-03T07:16:07.897Z</time></trkpt><trkpt lat="42.3414206" lon="13.4402151"><ele>684.0</ele><time>2026-05-03T07:16:09.897Z</time></trkpt><trkpt lat="42.3413103" lon="13.4401893"><ele>684.0</ele><time>2026-05-03T07:16:11.897Z</time></trkpt><trkpt lat="42.3412126" lon="13.440196"><ele>684.0</ele><time>2026-05-03T07:16:13.898Z</time></trkpt><trkpt lat="42.3411338" lon="13.4402158"><ele>681.8000000000001</ele><time>2026-05-03T07:16:15.897Z</time></trkpt><trkpt lat="42.3410481" lon="13.4402503"><ele>679.6</ele><time>2026-05-03T07:16:17.898Z</time></trkpt><trkpt lat="42.3409569" lon="13.4403027"><ele>677.4</ele><time>2026-05-03T07:16:19.898Z</time></trkpt><trkpt lat="42.3408726" lon="13.4403421"><ele>675.2</ele><time>2026-05-03T07:16:21.898Z</time></trkpt><trkpt lat="42.3407935" lon="13.4403836"><ele>673.0</ele><time>2026-05-03T07:16:23.897Z</time></trkpt><trkpt lat="42.3407119" lon="13.4404273"><ele>673.0</ele><time>2026-05-03T07:16:25.898Z</time></trkpt><trkpt lat="42.3406301" lon="13.4404636"><ele>673.0</ele><time>2026-05-03T07:16:27.897Z</time></trkpt><trkpt lat="42.3405483" lon="13.4405018"><ele>673.0</ele><time>2026-05-03T07:16:29.898Z</time></trkpt><trkpt lat="42.3404579" lon="13.4405675"><ele>673.0</ele><time>2026-05-03T07:16:31.897Z</time></trkpt><trkpt lat="42.3403883" lon="13.4406649"><ele>673.0</ele><time>2026-05-03T07:16:33.898Z</time></trkpt><trkpt lat="42.3403481" lon="13.4407999"><ele>670.5999999999999</ele><time>2026-05-03T07:16:35.897Z</time></trkpt><trkpt lat="42.3403095" lon="13.4409525"><ele>668.1999999999999</ele><time>2026-05-03T07:16:37.898Z</time></trkpt><trkpt lat="42.3402773" lon="13.4411174"><ele>665.8</ele><time>2026-05-03T07:16:39.897Z</time></trkpt><trkpt lat="42.340264" lon="13.4412028"><ele>663.4</ele><time>2026-05-03T07:16:40.898Z</time></trkpt><trkpt lat="42.3402504" lon="13.441288"><ele>661.0</ele><time>2026-05-03T07:16:41.897Z</time></trkpt><trkpt lat="42.340232" lon="13.441388"><ele>660.2857142857142</ele><time>2026-05-03T07:16:42.897Z</time></trkpt><trkpt lat="42.3402081" lon="13.4414736"><ele>659.5714285714286</ele><time>2026-05-03T07:16:43.898Z</time></trkpt><trkpt lat="42.3401873" lon="13.4415663"><ele>658.8571428571429</ele><time>2026-05-03T07:16:44.897Z</time></trkpt><trkpt lat="42.3401642" lon="13.4416672"><ele>658.1428571428571</ele><time>2026-05-03T07:16:45.898Z</time></trkpt><trkpt lat="42.340136" lon="13.4417699"><ele>657.4285714285714</ele><time>2026-05-03T07:16:46.897Z</time></trkpt><trkpt lat="42.3401073" lon="13.4418646"><ele>656.7142857142857</ele><time>2026-05-03T07:16:47.898Z</time></trkpt><trkpt lat="42.3400812" lon="13.4419578"><ele>656.0</ele><time>2026-05-03T07:16:48.897Z</time></trkpt><trkpt lat="42.3400546" lon="13.4420497"><ele>655.0</ele><time>2026-05-03T07:16:49.897Z</time></trkpt><trkpt lat="42.3400236" lon="13.4421579"><ele>654.0</ele><time>2026-05-03T07:16:50.897Z</time></trkpt><trkpt lat="42.3399926" lon="13.4422619"><ele>653.0</ele><time>2026-05-03T07:16:51.898Z</time></trkpt><trkpt lat="42.3399727" lon="13.4423552"><ele>652.0</ele><time>2026-05-03T07:16:52.897Z</time></trkpt><trkpt lat="42.3399508" lon="13.4424515"><ele>651.0</ele><time>2026-05-03T07:16:53.898Z</time></trkpt><trkpt lat="42.3399309" lon="13.4425575"><ele>650.0</ele><time>2026-05-03T07:16:54.898Z</time></trkpt><trkpt lat="42.3399069" lon="13.4426885"><ele>650.0</ele><time>2026-05-03T07:16:55.897Z</time></trkpt><trkpt lat="42.3398811" lon="13.4428297"><ele>650.0</ele><time>2026-05-03T07:16:56.897Z</time></trkpt><trkpt lat="42.339852" lon="13.4429542"><ele>650.0</ele><time>2026-05-03T07:16:57.898Z</time></trkpt><trkpt lat="42.3398096" lon="13.44308"><ele>650.0</ele><time>2026-05-03T07:16:58.897Z</time></trkpt><trkpt lat="42.3397672" lon="13.443199"><ele>650.0</ele><time>2026-05-03T07:16:59.897Z</time></trkpt><trkpt lat="42.3397155" lon="13.443303"><ele>648.5</ele><time>2026-05-03T07:17:00.898Z</time></trkpt><trkpt lat="42.3396414" lon="13.4433999"><ele>647.0</ele><time>2026-05-03T07:17:01.897Z</time></trkpt><trkpt lat="42.3395529" lon="13.4435062"><ele>645.5</ele><time>2026-05-03T07:17:02.897Z</time></trkpt><trkpt lat="42.3394591" lon="13.4436093"><ele>644.0</ele><time>2026-05-03T07:17:03.897Z</time></trkpt><trkpt lat="42.3393706" lon="13.4437082"><ele>645.8000000000001</ele><time>2026-05-03T07:17:04.897Z</time></trkpt><trkpt lat="42.3392888" lon="13.4438031"><ele>647.6</ele><time>2026-05-03T07:17:05.897Z</time></trkpt><trkpt lat="42.339197" lon="13.4439131"><ele>649.4</ele><time>2026-05-03T07:17:06.898Z</time></trkpt><trkpt lat="42.339125" lon="13.4440196"><ele>651.2</ele><time>2026-05-03T07:17:07.897Z</time></trkpt><trkpt lat="42.3390717" lon="13.4441386"><ele>653.0</ele><time>2026-05-03T07:17:08.897Z</time></trkpt><trkpt lat="42.3390357" lon="13.4442487"><ele>653.0</ele><time>2026-05-03T07:17:09.898Z</time></trkpt><trkpt lat="42.339019" lon="13.4443617"><ele>653.0</ele><time>2026-05-03T07:17:10.897Z</time></trkpt><trkpt lat="42.3390177" lon="13.4444995"><ele>653.0</ele><time>2026-05-03T07:17:11.897Z</time></trkpt><trkpt lat="42.3390265" lon="13.4446542"><ele>653.0</ele><time>2026-05-03T07:17:12.897Z</time></trkpt><trkpt lat="42.3390182" lon="13.4448288"><ele>653.0</ele><time>2026-05-03T07:17:13.897Z</time></trkpt><trkpt lat="42.338996" lon="13.4450328"><ele>652.6666666666666</ele><time>2026-05-03T07:17:14.897Z</time></trkpt><trkpt lat="42.3389702" lon="13.4452601"><ele>652.3333333333334</ele><time>2026-05-03T07:17:15.897Z</time></trkpt><trkpt lat="42.3389298" lon="13.4455174"><ele>652.0</ele><time>2026-05-03T07:17:16.897Z</time></trkpt><trkpt lat="42.3388743" lon="13.445743"><ele>648.0</ele><time>2026-05-03T07:17:17.898Z</time></trkpt><trkpt lat="42.3387996" lon="13.4459478"><ele>644.0</ele><time>2026-05-03T07:17:18.897Z</time></trkpt><trkpt lat="42.3387173" lon="13.4461489"><ele>640.0</ele><time>2026-05-03T07:17:19.897Z</time></trkpt><trkpt lat="42.3386376" lon="13.4463613"><ele>640.0</ele><time>2026-05-03T07:17:20.897Z</time></trkpt><trkpt lat="42.3385623" lon="13.4465774"><ele>640.0</ele><time>2026-05-03T07:17:21.898Z</time></trkpt><trkpt lat="42.3384906" lon="13.446801"><ele>640.0</ele><time>2026-05-03T07:17:22.898Z</time></trkpt><trkpt lat="42.3384235" lon="13.4470286"><ele>640.3333333333334</ele><time>2026-05-03T07:17:23.897Z</time></trkpt><trkpt lat="42.3383552" lon="13.4472613"><ele>640.6666666666666</ele><time>2026-05-03T07:17:24.897Z</time></trkpt><trkpt lat="42.3382904" lon="13.4474985"><ele>641.0</ele><time>2026-05-03T07:17:25.897Z</time></trkpt><trkpt lat="42.3382239" lon="13.4477354"><ele>641.0</ele><time>2026-05-03T07:17:26.898Z</time></trkpt><trkpt lat="42.3381585" lon="13.4479653"><ele>641.0</ele><time>2026-05-03T07:17:27.897Z</time></trkpt><trkpt lat="42.3380963" lon="13.448185"><ele>641.0</ele><time>2026-05-03T07:17:28.896Z</time></trkpt><trkpt lat="42.3380363" lon="13.4483887"><ele>635.6666666666666</ele><time>2026-05-03T07:17:29.897Z</time></trkpt><trkpt lat="42.3379793" lon="13.4485851"><ele>630.3333333333334</ele><time>2026-05-03T07:17:30.898Z</time></trkpt><trkpt lat="42.3379228" lon="13.4487761"><ele>625.0</ele><time>2026-05-03T07:17:31.898Z</time></trkpt><trkpt lat="42.3378691" lon="13.4489721"><ele>625.0</ele><time>2026-05-03T07:17:32.897Z</time></trkpt><trkpt lat="42.3378237" lon="13.4491629"><ele>625.0</ele><time>2026-05-03T07:17:33.898Z</time></trkpt><trkpt lat="42.3377913" lon="13.4493404"><ele>625.0</ele><time>2026-05-03T07:17:34.897Z</time></trkpt><trkpt lat="42.3377754" lon="13.4495078"><ele>625.0</ele><time>2026-05-03T07:17:35.898Z</time></trkpt><trkpt lat="42.3377782" lon="13.4496757"><ele>624.75</ele><time>2026-05-03T07:17:36.897Z</time></trkpt><trkpt lat="42.3377939" lon="13.4498536"><ele>624.5</ele><time>2026-05-03T07:17:37.897Z</time></trkpt><trkpt lat="42.3378122" lon="13.4500433"><ele>624.25</ele><time>2026-05-03T07:17:38.897Z</time></trkpt><trkpt lat="42.3378304" lon="13.4502392"><ele>624.0</ele><time>2026-05-03T07:17:39.897Z</time></trkpt><trkpt lat="42.3378458" lon="13.4504356"><ele>623.5</ele><time>2026-05-03T07:17:40.898Z</time></trkpt><trkpt lat="42.3378581" lon="13.4506316"><ele>623.0</ele><time>2026-05-03T07:17:41.897Z</time></trkpt><trkpt lat="42.3378654" lon="13.450814"><ele>622.5</ele><time>2026-05-03T07:17:42.896Z</time></trkpt><trkpt lat="42.3378729" lon="13.4509815"><ele>622.0</ele><time>2026-05-03T07:17:43.897Z</time></trkpt><trkpt lat="42.3378797" lon="13.4511403"><ele>621.5</ele><time>2026-05-03T07:17:44.897Z</time></trkpt><trkpt lat="42.3378865" lon="13.4513143"><ele>621.0</ele><time>2026-05-03T07:17:45.898Z</time></trkpt><trkpt lat="42.3378963" lon="13.4514992"><ele>620.5</ele><time>2026-05-03T07:17:46.898Z</time></trkpt><trkpt lat="42.337907" lon="13.4516747"><ele>620.0</ele><time>2026-05-03T07:17:47.897Z</time></trkpt><trkpt lat="42.3379162" lon="13.4518371"><ele>620.0</ele><time>2026-05-03T07:17:48.897Z</time></trkpt><trkpt lat="42.337923" lon="13.4519885"><ele>620.0</ele><time>2026-05-03T07:17:49.897Z</time></trkpt><trkpt lat="42.337931" lon="13.4521377"><ele>620.0</ele><time>2026-05-03T07:17:50.898Z</time></trkpt><trkpt lat="42.337938" lon="13.4522911"><ele>620.0</ele><time>2026-05-03T07:17:51.898Z</time></trkpt><trkpt lat="42.3379475" lon="13.4524316"><ele>620.0</ele><time>2026-05-03T07:17:52.897Z</time></trkpt><trkpt lat="42.3379565" lon="13.4525557"><ele>619.2</ele><time>2026-05-03T07:17:53.898Z</time></trkpt><trkpt lat="42.3379634" lon="13.4526581"><ele>618.4</ele><time>2026-05-03T07:17:54.898Z</time></trkpt><trkpt lat="42.3379692" lon="13.4527502"><ele>617.6</ele><time>2026-05-03T07:17:55.897Z</time></trkpt><trkpt lat="42.3379882" lon="13.4528571"><ele>616.8</ele><time>2026-05-03T07:17:58.897Z</time></trkpt><trkpt lat="42.3380601" lon="13.4529692"><ele>616.0</ele><time>2026-05-03T07:18:01.898Z</time></trkpt><trkpt lat="42.3381059" lon="13.4531161"><ele>619.0</ele><time>2026-05-03T07:18:03.897Z</time></trkpt><trkpt lat="42.3381199" lon="13.4532081"><ele>622.0</ele><time>2026-05-03T07:18:04.896Z</time></trkpt><trkpt lat="42.3381388" lon="13.4533147"><ele>625.0</ele><time>2026-05-03T07:18:05.897Z</time></trkpt><trkpt lat="42.3381563" lon="13.4534222"><ele>628.0</ele><time>2026-05-03T07:18:06.897Z</time></trkpt><trkpt lat="42.3381857" lon="13.4536016"><ele>631.0</ele><time>2026-05-03T07:18:08.898Z</time></trkpt><trkpt lat="42.3381954" lon="13.453713"><ele>630.2</ele><time>2026-05-03T07:18:09.897Z</time></trkpt><trkpt lat="42.3381981" lon="13.4538306"><ele>629.4000000000001</ele><time>2026-05-03T07:18:10.898Z</time></trkpt><trkpt lat="42.3381894" lon="13.4539582"><ele>628.6</ele><time>2026-05-03T07:18:11.897Z</time></trkpt><trkpt lat="42.3381697" lon="13.4540939"><ele>627.8000000000001</ele><time>2026-05-03T07:18:12.897Z</time></trkpt><trkpt lat="42.3381529" lon="13.454221"><ele>627.0</ele><time>2026-05-03T07:18:13.897Z</time></trkpt><trkpt lat="42.3381353" lon="13.4543455"><ele>627.0</ele><time>2026-05-03T07:18:14.898Z</time></trkpt><trkpt lat="42.3381181" lon="13.4544697"><ele>627.0</ele><time>2026-05-03T07:18:15.898Z</time></trkpt><trkpt lat="42.3381114" lon="13.4545915"><ele>627.0</ele><time>2026-05-03T07:18:16.897Z</time></trkpt><trkpt lat="42.3381121" lon="13.4547204"><ele>627.0</ele><time>2026-05-03T07:18:17.898Z</time></trkpt><trkpt lat="42.338127" lon="13.4548618"><ele>627.0</ele><time>2026-05-03T07:18:18.897Z</time></trkpt><trkpt lat="42.3381533" lon="13.4549996"><ele>626.0</ele><time>2026-05-03T07:18:19.897Z</time></trkpt><trkpt lat="42.338185" lon="13.4551334"><ele>625.0</ele><time>2026-05-03T07:18:20.897Z</time></trkpt><trkpt lat="42.3382125" lon="13.4552446"><ele>624.0</ele><time>2026-05-03T07:18:21.898Z</time></trkpt><trkpt lat="42.338232" lon="13.4553374"><ele>623.0</ele><time>2026-05-03T07:18:22.898Z</time></trkpt><trkpt lat="42.3382111" lon="13.4554642"><ele>622.0</ele><time>2026-05-03T07:18:24.898Z</time></trkpt><trkpt lat="42.338127" lon="13.4554741"><ele>621.0</ele><time>2026-05-03T07:18:26.897Z</time></trkpt><trkpt lat="42.3380597" lon="13.4555016"><ele>617.8</ele><time>2026-05-03T07:18:29.897Z</time></trkpt><trkpt lat="42.3381281" lon="13.455573"><ele>614.6</ele><time>2026-05-03T07:18:32.898Z</time></trkpt><trkpt lat="42.3382189" lon="13.455604"><ele>611.4</ele><time>2026-05-03T07:18:33.898Z</time></trkpt><trkpt lat="42.3383199" lon="13.4556397"><ele>608.2</ele><time>2026-05-03T07:18:34.897Z</time></trkpt><trkpt lat="42.33843" lon="13.4556787"><ele>605.0</ele><time>2026-05-03T07:18:35.898Z</time></trkpt><trkpt lat="42.3385472" lon="13.4557183"><ele>605.0</ele><time>2026-05-03T07:18:36.898Z</time></trkpt><trkpt lat="42.3386689" lon="13.4557619"><ele>605.0</ele><time>2026-05-03T07:18:37.898Z</time></trkpt><trkpt lat="42.3387877" lon="13.4558111"><ele>605.0</ele><time>2026-05-03T07:18:38.898Z</time></trkpt><trkpt lat="42.3388983" lon="13.4558561"><ele>605.0</ele><time>2026-05-03T07:18:39.898Z</time></trkpt><trkpt lat="42.3390118" lon="13.4559017"><ele>606.25</ele><time>2026-05-03T07:18:40.897Z</time></trkpt><trkpt lat="42.3391341" lon="13.4559389"><ele>607.5</ele><time>2026-05-03T07:18:41.897Z</time></trkpt><trkpt lat="42.3392491" lon="13.4559578"><ele>608.75</ele><time>2026-05-03T07:18:42.897Z</time></trkpt><trkpt lat="42.3393572" lon="13.4559621"><ele>610.0</ele><time>2026-05-03T07:18:43.897Z</time></trkpt><trkpt lat="42.3394587" lon="13.4559673"><ele>610.0</ele><time>2026-05-03T07:18:44.898Z</time></trkpt><trkpt lat="42.3395549" lon="13.4559994"><ele>610.0</ele><time>2026-05-03T07:18:45.898Z</time></trkpt><trkpt lat="42.3396347" lon="13.4560619"><ele>610.0</ele><time>2026-05-03T07:18:46.897Z</time></trkpt><trkpt lat="42.3396956" lon="13.4561644"><ele>610.0</ele><time>2026-05-03T07:18:47.898Z</time></trkpt><trkpt lat="42.3397237" lon="13.4562831"><ele>610.0</ele><time>2026-05-03T07:18:48.897Z</time></trkpt><trkpt lat="42.339738" lon="13.4563912"><ele>608.5</ele><time>2026-05-03T07:18:49.897Z</time></trkpt><trkpt lat="42.3397452" lon="13.4564809"><ele>607.0</ele><time>2026-05-03T07:18:50.897Z</time></trkpt><trkpt lat="42.3397655" lon="13.4565813"><ele>605.5</ele><time>2026-05-03T07:18:52.898Z</time></trkpt><trkpt lat="42.3398484" lon="13.4566721"><ele>604.0</ele><time>2026-05-03T07:18:57.898Z</time></trkpt><trkpt lat="42.3399224" lon="13.4566997"><ele>602.5</ele><time>2026-05-03T07:18:58.897Z</time></trkpt><trkpt lat="42.3400181" lon="13.4567267"><ele>601.0</ele><time>2026-05-03T07:18:59.898Z</time></trkpt><trkpt lat="42.3401386" lon="13.4567635"><ele>601.0</ele><time>2026-05-03T07:19:00.898Z</time></trkpt><trkpt lat="42.3402704" lon="13.4568055"><ele>601.0</ele><time>2026-05-03T07:19:01.897Z</time></trkpt><trkpt lat="42.3404182" lon="13.456854"><ele>601.0</ele><time>2026-05-03T07:19:02.897Z</time></trkpt><trkpt lat="42.3405742" lon="13.4569103"><ele>601.0</ele><time>2026-05-03T07:19:03.897Z</time></trkpt><trkpt lat="42.3407338" lon="13.4569728"><ele>600.6666666666667</ele><time>2026-05-03T07:19:04.897Z</time></trkpt><trkpt lat="42.3408864" lon="13.4570422"><ele>600.3333333333334</ele><time>2026-05-03T07:19:05.897Z</time></trkpt><trkpt lat="42.341029" lon="13.4571161"><ele>600.0</ele><time>2026-05-03T07:19:06.897Z</time></trkpt><trkpt lat="42.3411606" lon="13.4571962"><ele>600.25</ele><time>2026-05-03T07:19:07.897Z</time></trkpt><trkpt lat="42.34128" lon="13.4572834"><ele>600.5</ele><time>2026-05-03T07:19:08.898Z</time></trkpt><trkpt lat="42.3413892" lon="13.45739"><ele>600.75</ele><time>2026-05-03T07:19:09.897Z</time></trkpt><trkpt lat="42.3414936" lon="13.4575157"><ele>601.0</ele><time>2026-05-03T07:19:10.897Z</time></trkpt><trkpt lat="42.3415988" lon="13.4576493"><ele>601.0</ele><time>2026-05-03T07:19:11.896Z</time></trkpt><trkpt lat="42.3417041" lon="13.4577855"><ele>601.0</ele><time>2026-05-03T07:19:12.897Z</time></trkpt><trkpt lat="42.3418114" lon="13.4579263"><ele>601.0</ele><time>2026-05-03T07:19:13.897Z</time></trkpt><trkpt lat="42.3419202" lon="13.4580719"><ele>601.0</ele><time>2026-05-03T07:19:14.897Z</time></trkpt><trkpt lat="42.3420309" lon="13.458215"><ele>601.0</ele><time>2026-05-03T07:19:15.898Z</time></trkpt><trkpt lat="42.3421389" lon="13.4583588"><ele>601.0</ele><time>2026-05-03T07:19:16.897Z</time></trkpt><trkpt lat="42.3422431" lon="13.4584975"><ele>601.0</ele><time>2026-05-03T07:19:17.898Z</time></trkpt><trkpt lat="42.3423468" lon="13.4586347"><ele>601.0</ele><time>2026-05-03T07:19:18.899Z</time></trkpt><trkpt lat="42.3424474" lon="13.4587683"><ele>601.0</ele><time>2026-05-03T07:19:19.898Z</time></trkpt><trkpt lat="42.3425476" lon="13.4588967"><ele>601.0</ele><time>2026-05-03T07:19:20.898Z</time></trkpt><trkpt lat="42.3426493" lon="13.4590256"><ele>601.0</ele><time>2026-05-03T07:19:21.897Z</time></trkpt><trkpt lat="42.3427455" lon="13.4591591"><ele>601.0</ele><time>2026-05-03T07:19:22.898Z</time></trkpt><trkpt lat="42.3428437" lon="13.4592938"><ele>601.0</ele><time>2026-05-03T07:19:23.897Z</time></trkpt><trkpt lat="42.3429376" lon="13.459421"><ele>601.0</ele><time>2026-05-03T07:19:24.897Z</time></trkpt><trkpt lat="42.3430316" lon="13.4595481"><ele>601.0</ele><time>2026-05-03T07:19:25.898Z</time></trkpt><trkpt lat="42.3431293" lon="13.4596805"><ele>601.0</ele><time>2026-05-03T07:19:26.898Z</time></trkpt><trkpt lat="42.343234" lon="13.4598135"><ele>602.25</ele><time>2026-05-03T07:19:27.898Z</time></trkpt><trkpt lat="42.3433391" lon="13.4599508"><ele>603.5</ele><time>2026-05-03T07:19:28.898Z</time></trkpt><trkpt lat="42.3434432" lon="13.4600849"><ele>604.75</ele><time>2026-05-03T07:19:29.898Z</time></trkpt><trkpt lat="42.3435422" lon="13.4602175"><ele>606.0</ele><time>2026-05-03T07:19:30.898Z</time></trkpt><trkpt lat="42.3436396" lon="13.460349"><ele>606.2</ele><time>2026-05-03T07:19:31.898Z</time></trkpt><trkpt lat="42.343729" lon="13.460473"><ele>606.4000000000001</ele><time>2026-05-03T07:19:32.897Z</time></trkpt><trkpt lat="42.3438122" lon="13.4605862"><ele>606.6</ele><time>2026-05-03T07:19:33.897Z</time></trkpt><trkpt lat="42.3438888" lon="13.4606897"><ele>606.8000000000001</ele><time>2026-05-03T07:19:34.897Z</time></trkpt><trkpt lat="42.3439421" lon="13.460769"><ele>607.0</ele><time>2026-05-03T07:19:35.898Z</time></trkpt><trkpt lat="42.3440126" lon="13.460872"><ele>607.3333333333334</ele><time>2026-05-03T07:19:37.897Z</time></trkpt><trkpt lat="42.3440725" lon="13.4609234"><ele>607.6666666666667</ele><time>2026-05-03T07:20:52.897Z</time></trkpt><trkpt lat="42.3441556" lon="13.4610196"><ele>608.0</ele><time>2026-05-03T07:20:55.897Z</time></trkpt><trkpt lat="42.3442067" lon="13.4610746"><ele>608.3333333333334</ele><time>2026-05-03T07:20:56.897Z</time></trkpt><trkpt lat="42.3442637" lon="13.4611421"><ele>608.6666666666666</ele><time>2026-05-03T07:20:57.898Z</time></trkpt><trkpt lat="42.344322" lon="13.4612152"><ele>609.0</ele><time>2026-05-03T07:20:58.897Z</time></trkpt><trkpt lat="42.3443863" lon="13.4612976"><ele>609.0</ele><time>2026-05-03T07:20:59.897Z</time></trkpt><trkpt lat="42.3444602" lon="13.4613857"><ele>609.0</ele><time>2026-05-03T07:21:00.897Z</time></trkpt><trkpt lat="42.3445408" lon="13.4614772"><ele>609.0</ele><time>2026-05-03T07:21:01.897Z</time></trkpt><trkpt lat="42.3446204" lon="13.4615719"><ele>609.0</ele><time>2026-05-03T07:21:02.897Z</time></trkpt><trkpt lat="42.3447046" lon="13.4616706"><ele>609.0</ele><time>2026-05-03T07:21:03.897Z</time></trkpt><trkpt lat="42.3447907" lon="13.461772"><ele>609.75</ele><time>2026-05-03T07:21:04.898Z</time></trkpt><trkpt lat="42.3448822" lon="13.4618701"><ele>610.5</ele><time>2026-05-03T07:21:05.898Z</time></trkpt><trkpt lat="42.3449788" lon="13.4619662"><ele>611.25</ele><time>2026-05-03T07:21:06.896Z</time></trkpt><trkpt lat="42.3450755" lon="13.4620605"><ele>612.0</ele><time>2026-05-03T07:21:07.898Z</time></trkpt><trkpt lat="42.3451744" lon="13.4621528"><ele>612.0</ele><time>2026-05-03T07:21:08.897Z</time></trkpt><trkpt lat="42.3452733" lon="13.4622438"><ele>612.0</ele><time>2026-05-03T07:21:09.897Z</time></trkpt><trkpt lat="42.345365" lon="13.4623269"><ele>612.0</ele><time>2026-05-03T07:21:10.898Z</time></trkpt><trkpt lat="42.3454471" lon="13.4623996"><ele>612.0</ele><time>2026-05-03T07:21:11.898Z</time></trkpt><trkpt lat="42.3455094" lon="13.4624549"><ele>612.0</ele><time>2026-05-03T07:21:12.897Z</time></trkpt><trkpt lat="42.3455971" lon="13.4625355"><ele>612.0</ele><time>2026-05-03T07:21:14.898Z</time></trkpt><trkpt lat="42.3456015" lon="13.4626581"><ele>612.0</ele><time>2026-05-03T07:21:17.898Z</time></trkpt><trkpt lat="42.3455422" lon="13.4627481"><ele>612.0</ele><time>2026-05-03T07:21:19.897Z</time></trkpt><trkpt lat="42.3454594" lon="13.4628609"><ele>612.0</ele><time>2026-05-03T07:21:21.898Z</time></trkpt><trkpt lat="42.3454097" lon="13.4629274"><ele>612.0</ele><time>2026-05-03T07:21:22.898Z</time></trkpt><trkpt lat="42.3453505" lon="13.4630079"><ele>612.4</ele><time>2026-05-03T07:21:23.897Z</time></trkpt><trkpt lat="42.3452902" lon="13.4631017"><ele>612.8000000000001</ele><time>2026-05-03T07:21:24.897Z</time></trkpt><trkpt lat="42.3452223" lon="13.4632077"><ele>613.2</ele><time>2026-05-03T07:21:25.897Z</time></trkpt><trkpt lat="42.3451511" lon="13.463325"><ele>613.6</ele><time>2026-05-03T07:21:26.897Z</time></trkpt><trkpt lat="42.3450828" lon="13.4634618"><ele>614.0</ele><time>2026-05-03T07:21:27.897Z</time></trkpt><trkpt lat="42.3450176" lon="13.4636265"><ele>614.25</ele><time>2026-05-03T07:21:28.897Z</time></trkpt><trkpt lat="42.3449693" lon="13.4638097"><ele>614.5</ele><time>2026-05-03T07:21:29.897Z</time></trkpt><trkpt lat="42.3449312" lon="13.4640015"><ele>614.75</ele><time>2026-05-03T07:21:30.897Z</time></trkpt><trkpt lat="42.3448953" lon="13.4642007"><ele>615.0</ele><time>2026-05-03T07:21:31.898Z</time></trkpt><trkpt lat="42.3448519" lon="13.464372"><ele>615.0</ele><time>2026-05-03T07:21:32.897Z</time></trkpt><trkpt lat="42.3448069" lon="13.4645405"><ele>615.0</ele><time>2026-05-03T07:21:33.898Z</time></trkpt><trkpt lat="42.344767" lon="13.4647134"><ele>615.0</ele><time>2026-05-03T07:21:34.897Z</time></trkpt><trkpt lat="42.3447292" lon="13.4648747"><ele>615.0</ele><time>2026-05-03T07:21:35.897Z</time></trkpt><trkpt lat="42.3446914" lon="13.4650288"><ele>614.75</ele><time>2026-05-03T07:21:36.897Z</time></trkpt><trkpt lat="42.3446585" lon="13.4651866"><ele>614.5</ele><time>2026-05-03T07:21:37.897Z</time></trkpt><trkpt lat="42.3446238" lon="13.4653411"><ele>614.25</ele><time>2026-05-03T07:21:38.897Z</time></trkpt><trkpt lat="42.3445714" lon="13.4654892"><ele>614.0</ele><time>2026-05-03T07:21:39.897Z</time></trkpt><trkpt lat="42.3445209" lon="13.4656305"><ele>614.0</ele><time>2026-05-03T07:21:40.897Z</time></trkpt><trkpt lat="42.3444749" lon="13.4657571"><ele>614.0</ele><time>2026-05-03T07:21:41.898Z</time></trkpt><trkpt lat="42.3444316" lon="13.4658657"><ele>614.0</ele><time>2026-05-03T07:21:42.898Z</time></trkpt><trkpt lat="42.3444089" lon="13.4660008"><ele>614.0</ele><time>2026-05-03T07:21:44.897Z</time></trkpt><trkpt lat="42.3444691" lon="13.4660886"><ele>614.0</ele><time>2026-05-03T07:21:46.897Z</time></trkpt><trkpt lat="42.3445285" lon="13.4661337"><ele>614.0</ele><time>2026-05-03T07:21:47.898Z</time></trkpt><trkpt lat="42.3445976" lon="13.4661704"><ele>614.0</ele><time>2026-05-03T07:21:48.898Z</time></trkpt><trkpt lat="42.3446758" lon="13.4662003"><ele>614.0</ele><time>2026-05-03T07:21:49.898Z</time></trkpt><trkpt lat="42.3447619" lon="13.4662261"><ele>614.0</ele><time>2026-05-03T07:21:50.898Z</time></trkpt><trkpt lat="42.3448466" lon="13.4662518"><ele>614.0</ele><time>2026-05-03T07:21:51.898Z</time></trkpt><trkpt lat="42.3449347" lon="13.4662735"><ele>614.0</ele><time>2026-05-03T07:21:52.897Z</time></trkpt><trkpt lat="42.3450279" lon="13.466284"><ele>614.1666666666666</ele><time>2026-05-03T07:21:53.897Z</time></trkpt><trkpt lat="42.3451195" lon="13.466283"><ele>614.3333333333333</ele><time>2026-05-03T07:21:54.898Z</time></trkpt><trkpt lat="42.3452094" lon="13.4662807"><ele>614.5</ele><time>2026-05-03T07:21:55.897Z</time></trkpt><trkpt lat="42.3452942" lon="13.4662761"><ele>614.6666666666666</ele><time>2026-05-03T07:21:56.897Z</time></trkpt><trkpt lat="42.3453807" lon="13.4662726"><ele>614.8333333333334</ele><time>2026-05-03T07:21:57.897Z</time></trkpt><trkpt lat="42.3454633" lon="13.4662879"><ele>615.0</ele><time>2026-05-03T07:21:58.898Z</time></trkpt><trkpt lat="42.3455377" lon="13.4663174"><ele>615.6666666666666</ele><time>2026-05-03T07:21:59.897Z</time></trkpt><trkpt lat="42.34561" lon="13.4663545"><ele>616.3333333333334</ele><time>2026-05-03T07:22:00.898Z</time></trkpt><trkpt lat="42.3456789" lon="13.4663932"><ele>617.0</ele><time>2026-05-03T07:22:01.898Z</time></trkpt><trkpt lat="42.3457473" lon="13.4664294"><ele>617.6666666666667</ele><time>2026-05-03T07:22:02.897Z</time></trkpt><trkpt lat="42.345808" lon="13.4664684"><ele>618.3333333333334</ele><time>2026-05-03T07:22:03.897Z</time></trkpt><trkpt lat="42.3459117" lon="13.4665326"><ele>619.0</ele><time>2026-05-03T07:22:05.897Z</time></trkpt><trkpt lat="42.346012" lon="13.466599"><ele>619.0</ele><time>2026-05-03T07:22:07.898Z</time></trkpt><trkpt lat="42.3461235" lon="13.4666603"><ele>619.0</ele><time>2026-05-03T07:22:09.898Z</time></trkpt><trkpt lat="42.3461856" lon="13.4666971"><ele>619.0</ele><time>2026-05-03T07:22:10.897Z</time></trkpt><trkpt lat="42.3462465" lon="13.4667447"><ele>619.0</ele><time>2026-05-03T07:22:11.897Z</time></trkpt><trkpt lat="42.3463114" lon="13.4668016"><ele>619.0</ele><time>2026-05-03T07:22:12.897Z</time></trkpt><trkpt lat="42.3463739" lon="13.4668656"><ele>619.0</ele><time>2026-05-03T07:22:13.897Z</time></trkpt><trkpt lat="42.3464318" lon="13.4669405"><ele>619.3333333333334</ele><time>2026-05-03T07:22:14.897Z</time></trkpt><trkpt lat="42.3464804" lon="13.4670141"><ele>619.6666666666667</ele><time>2026-05-03T07:22:15.898Z</time></trkpt><trkpt lat="42.3465217" lon="13.467087"><ele>620.0</ele><time>2026-05-03T07:22:16.897Z</time></trkpt><trkpt lat="42.3465638" lon="13.467155"><ele>620.3333333333334</ele><time>2026-05-03T07:22:17.897Z</time></trkpt><trkpt lat="42.3466125" lon="13.467234"><ele>620.6666666666666</ele><time>2026-05-03T07:22:18.897Z</time></trkpt><trkpt lat="42.3466672" lon="13.4673243"><ele>621.0</ele><time>2026-05-03T07:22:19.898Z</time></trkpt><trkpt lat="42.3467334" lon="13.467428"><ele>621.0</ele><time>2026-05-03T07:22:20.898Z</time></trkpt><trkpt lat="42.346799" lon="13.4675376"><ele>621.0</ele><time>2026-05-03T07:22:21.897Z</time></trkpt><trkpt lat="42.3468621" lon="13.467637"><ele>621.0</ele><time>2026-05-03T07:22:22.898Z</time></trkpt><trkpt lat="42.3469222" lon="13.4677295"><ele>621.0</ele><time>2026-05-03T07:22:23.897Z</time></trkpt><trkpt lat="42.3469828" lon="13.467804"><ele>621.0</ele><time>2026-05-03T07:22:24.897Z</time></trkpt><trkpt lat="42.3470502" lon="13.4678485"><ele>621.0</ele><time>2026-05-03T07:22:25.897Z</time></trkpt><trkpt lat="42.3471272" lon="13.4678661"><ele>621.0</ele><time>2026-05-03T07:22:26.897Z</time></trkpt><trkpt lat="42.347207" lon="13.4678551"><ele>621.0</ele><time>2026-05-03T07:22:27.898Z</time></trkpt><trkpt lat="42.3472897" lon="13.4678295"><ele>621.0</ele><time>2026-05-03T07:22:28.898Z</time></trkpt><trkpt lat="42.3473744" lon="13.4678209"><ele>621.0</ele><time>2026-05-03T07:22:29.897Z</time></trkpt><trkpt lat="42.3474603" lon="13.4678211"><ele>621.0</ele><time>2026-05-03T07:22:30.898Z</time></trkpt><trkpt lat="42.3475504" lon="13.4678369"><ele>621.0</ele><time>2026-05-03T07:22:31.897Z</time></trkpt><trkpt lat="42.3476432" lon="13.467871"><ele>621.4</ele><time>2026-05-03T07:22:32.898Z</time></trkpt><trkpt lat="42.3477395" lon="13.4679143"><ele>621.8</ele><time>2026-05-03T07:22:33.897Z</time></trkpt><trkpt lat="42.3478406" lon="13.4679572"><ele>622.1999999999999</ele><time>2026-05-03T07:22:34.898Z</time></trkpt><trkpt lat="42.3479504" lon="13.4679941"><ele>622.6</ele><time>2026-05-03T07:22:35.898Z</time></trkpt><trkpt lat="42.3480642" lon="13.468029"><ele>623.0</ele><time>2026-05-03T07:22:36.897Z</time></trkpt><trkpt lat="42.3481834" lon="13.4680661"><ele>623.5</ele><time>2026-05-03T07:22:37.897Z</time></trkpt><trkpt lat="42.3483087" lon="13.468113"><ele>624.0</ele><time>2026-05-03T07:22:38.897Z</time></trkpt><trkpt lat="42.3484337" lon="13.4681725"><ele>624.5</ele><time>2026-05-03T07:22:39.898Z</time></trkpt><trkpt lat="42.3485593" lon="13.4682319"><ele>625.0</ele><time>2026-05-03T07:22:40.897Z</time></trkpt><trkpt lat="42.3486836" lon="13.4682835"><ele>625.0</ele><time>2026-05-03T07:22:41.897Z</time></trkpt><trkpt lat="42.348809" lon="13.4683335"><ele>625.0</ele><time>2026-05-03T07:22:42.897Z</time></trkpt><trkpt lat="42.3489346" lon="13.468377"><ele>625.0</ele><time>2026-05-03T07:22:43.897Z</time></trkpt><trkpt lat="42.3490588" lon="13.4684131"><ele>625.0</ele><time>2026-05-03T07:22:44.897Z</time></trkpt><trkpt lat="42.3491828" lon="13.4684372"><ele>625.75</ele><time>2026-05-03T07:22:45.897Z</time></trkpt><trkpt lat="42.349298" lon="13.4684503"><ele>626.5</ele><time>2026-05-03T07:22:46.897Z</time></trkpt><trkpt lat="42.3494114" lon="13.4684604"><ele>627.25</ele><time>2026-05-03T07:22:47.897Z</time></trkpt><trkpt lat="42.3495271" lon="13.4684689"><ele>628.0</ele><time>2026-05-03T07:22:48.898Z</time></trkpt><trkpt lat="42.3496429" lon="13.4684717"><ele>628.25</ele><time>2026-05-03T07:22:49.897Z</time></trkpt><trkpt lat="42.3497588" lon="13.4684717"><ele>628.5</ele><time>2026-05-03T07:22:50.897Z</time></trkpt><trkpt lat="42.3498732" lon="13.4684763"><ele>628.75</ele><time>2026-05-03T07:22:51.897Z</time></trkpt><trkpt lat="42.3499846" lon="13.4684974"><ele>629.0</ele><time>2026-05-03T07:22:52.899Z</time></trkpt><trkpt lat="42.3500903" lon="13.4685438"><ele>629.0</ele><time>2026-05-03T07:22:53.897Z</time></trkpt><trkpt lat="42.3501893" lon="13.4686106"><ele>629.0</ele><time>2026-05-03T07:22:54.897Z</time></trkpt><trkpt lat="42.3502813" lon="13.4686982"><ele>629.0</ele><time>2026-05-03T07:22:55.897Z</time></trkpt><trkpt lat="42.3503769" lon="13.4687865"><ele>629.0</ele><time>2026-05-03T07:22:56.898Z</time></trkpt><trkpt lat="42.3504724" lon="13.4688724"><ele>629.5</ele><time>2026-05-03T07:22:57.897Z</time></trkpt><trkpt lat="42.3505721" lon="13.4689446"><ele>630.0</ele><time>2026-05-03T07:22:58.897Z</time></trkpt><trkpt lat="42.3506808" lon="13.4689976"><ele>630.5</ele><time>2026-05-03T07:22:59.897Z</time></trkpt><trkpt lat="42.3507912" lon="13.4690324"><ele>631.0</ele><time>2026-05-03T07:23:00.898Z</time></trkpt><trkpt lat="42.3508988" lon="13.4690465"><ele>631.0</ele><time>2026-05-03T07:23:01.897Z</time></trkpt><trkpt lat="42.3509963" lon="13.4690477"><ele>631.0</ele><time>2026-05-03T07:23:02.897Z</time></trkpt><trkpt lat="42.3510852" lon="13.4690289"><ele>631.0</ele><time>2026-05-03T07:23:03.898Z</time></trkpt><trkpt lat="42.3511711" lon="13.4689927"><ele>631.0</ele><time>2026-05-03T07:23:04.897Z</time></trkpt><trkpt lat="42.3512532" lon="13.468948"><ele>631.0</ele><time>2026-05-03T07:23:05.897Z</time></trkpt><trkpt lat="42.3513208" lon="13.4689052"><ele>631.0</ele><time>2026-05-03T07:23:06.897Z</time></trkpt><trkpt lat="42.351407" lon="13.4688563"><ele>632.0</ele><time>2026-05-03T07:23:08.898Z</time></trkpt><trkpt lat="42.3514546" lon="13.4688001"><ele>633.0</ele><time>2026-05-03T07:23:17.898Z</time></trkpt><trkpt lat="42.3515258" lon="13.4686981"><ele>634.0</ele><time>2026-05-03T07:23:19.898Z</time></trkpt><trkpt lat="42.3516149" lon="13.4686588"><ele>635.0</ele><time>2026-05-03T07:23:21.898Z</time></trkpt><trkpt lat="42.351734" lon="13.4687374"><ele>636.0</ele><time>2026-05-03T07:23:23.898Z</time></trkpt><trkpt lat="42.3517947" lon="13.4688122"><ele>636.0</ele><time>2026-05-03T07:23:24.897Z</time></trkpt><trkpt lat="42.3518657" lon="13.4689005"><ele>636.0</ele><time>2026-05-03T07:23:25.897Z</time></trkpt><trkpt lat="42.3519412" lon="13.4689992"><ele>636.0</ele><time>2026-05-03T07:23:26.897Z</time></trkpt><trkpt lat="42.3520217" lon="13.4691016"><ele>636.0</ele><time>2026-05-03T07:23:27.898Z</time></trkpt><trkpt lat="42.3521021" lon="13.469198"><ele>636.0</ele><time>2026-05-03T07:23:28.897Z</time></trkpt><trkpt lat="42.3521814" lon="13.4692884"><ele>636.2</ele><time>2026-05-03T07:23:29.898Z</time></trkpt><trkpt lat="42.3522578" lon="13.4693778"><ele>636.4000000000001</ele><time>2026-05-03T07:23:30.897Z</time></trkpt><trkpt lat="42.3523358" lon="13.4694664"><ele>636.6</ele><time>2026-05-03T07:23:31.897Z</time></trkpt><trkpt lat="42.3524151" lon="13.4695539"><ele>636.8000000000001</ele><time>2026-05-03T07:23:32.898Z</time></trkpt><trkpt lat="42.3524915" lon="13.4696432"><ele>637.0</ele><time>2026-05-03T07:23:33.898Z</time></trkpt><trkpt lat="42.35257" lon="13.4697349"><ele>637.4</ele><time>2026-05-03T07:23:34.897Z</time></trkpt><trkpt lat="42.3526513" lon="13.4698253"><ele>637.8000000000001</ele><time>2026-05-03T07:23:35.898Z</time></trkpt><trkpt lat="42.3527316" lon="13.4699117"><ele>638.2</ele><time>2026-05-03T07:23:36.897Z</time></trkpt><trkpt lat="42.3528096" lon="13.4700022"><ele>638.6</ele><time>2026-05-03T07:23:37.897Z</time></trkpt><trkpt lat="42.3528846" lon="13.4700986"><ele>639.0</ele><time>2026-05-03T07:23:38.897Z</time></trkpt><trkpt lat="42.3529548" lon="13.4702039"><ele>639.0</ele><time>2026-05-03T07:23:39.897Z</time></trkpt><trkpt lat="42.3530271" lon="13.4703148"><ele>639.0</ele><time>2026-05-03T07:23:40.897Z</time></trkpt><trkpt lat="42.3530997" lon="13.4704306"><ele>639.0</ele><time>2026-05-03T07:23:41.897Z</time></trkpt><trkpt lat="42.3531715" lon="13.4705492"><ele>639.0</ele><time>2026-05-03T07:23:42.897Z</time></trkpt><trkpt lat="42.353236" lon="13.4706696"><ele>639.0</ele><time>2026-05-03T07:23:43.898Z</time></trkpt><trkpt lat="42.353293" lon="13.4707817"><ele>639.5</ele><time>2026-05-03T07:23:44.898Z</time></trkpt><trkpt lat="42.3533443" lon="13.4708859"><ele>640.0</ele><time>2026-05-03T07:23:45.897Z</time></trkpt><trkpt lat="42.3533872" lon="13.4709902"><ele>640.5</ele><time>2026-05-03T07:23:46.898Z</time></trkpt><trkpt lat="42.3534291" lon="13.4710927"><ele>641.0</ele><time>2026-05-03T07:23:47.897Z</time></trkpt><trkpt lat="42.3534794" lon="13.4711864"><ele>641.5</ele><time>2026-05-03T07:23:48.898Z</time></trkpt><trkpt lat="42.3535351" lon="13.4712656"><ele>642.0</ele><time>2026-05-03T07:23:49.897Z</time></trkpt><trkpt lat="42.3535874" lon="13.4713359"><ele>642.0</ele><time>2026-05-03T07:23:50.897Z</time></trkpt><trkpt lat="42.3536724" lon="13.4714414"><ele>642.0</ele><time>2026-05-03T07:23:52.897Z</time></trkpt><trkpt lat="42.3537508" lon="13.4715047"><ele>642.0</ele><time>2026-05-03T07:23:55.898Z</time></trkpt><trkpt lat="42.3538393" lon="13.4715192"><ele>642.0</ele><time>2026-05-03T07:23:57.897Z</time></trkpt><trkpt lat="42.3539661" lon="13.4715038"><ele>642.0</ele><time>2026-05-03T07:23:59.897Z</time></trkpt><trkpt lat="42.3540427" lon="13.4714916"><ele>642.3333333333334</ele><time>2026-05-03T07:24:00.897Z</time></trkpt><trkpt lat="42.3541244" lon="13.4714712"><ele>642.6666666666666</ele><time>2026-05-03T07:24:01.898Z</time></trkpt><trkpt lat="42.3542128" lon="13.4714493"><ele>643.0</ele><time>2026-05-03T07:24:02.898Z</time></trkpt><trkpt lat="42.3543075" lon="13.4714226"><ele>643.3333333333333</ele><time>2026-05-03T07:24:03.898Z</time></trkpt><trkpt lat="42.3543944" lon="13.4714009"><ele>643.6666666666666</ele><time>2026-05-03T07:24:04.898Z</time></trkpt><trkpt lat="42.3544702" lon="13.4714073"><ele>644.0</ele><time>2026-05-03T07:24:05.898Z</time></trkpt><trkpt lat="42.3545375" lon="13.4714468"><ele>644.0</ele><time>2026-05-03T07:24:06.897Z</time></trkpt><trkpt lat="42.3546002" lon="13.4715112"><ele>644.0</ele><time>2026-05-03T07:24:07.897Z</time></trkpt><trkpt lat="42.3546646" lon="13.4715833"><ele>644.0</ele><time>2026-05-03T07:24:08.897Z</time></trkpt><trkpt lat="42.3547365" lon="13.4716663"><ele>644.0</ele><time>2026-05-03T07:24:09.898Z</time></trkpt><trkpt lat="42.3548123" lon="13.4717559"><ele>644.0</ele><time>2026-05-03T07:24:10.898Z</time></trkpt><trkpt lat="42.3548895" lon="13.4718485"><ele>644.75</ele><time>2026-05-03T07:24:11.897Z</time></trkpt><trkpt lat="42.354967" lon="13.4719485"><ele>645.5</ele><time>2026-05-03T07:24:12.898Z</time></trkpt><trkpt lat="42.3550462" lon="13.4720537"><ele>646.25</ele><time>2026-05-03T07:24:13.897Z</time></trkpt><trkpt lat="42.3551271" lon="13.4721617"><ele>647.0</ele><time>2026-05-03T07:24:14.897Z</time></trkpt><trkpt lat="42.3552126" lon="13.4722734"><ele>647.0</ele><time>2026-05-03T07:24:15.897Z</time></trkpt><trkpt lat="42.3553004" lon="13.4723861"><ele>647.0</ele><time>2026-05-03T07:24:16.898Z</time></trkpt><trkpt lat="42.3553881" lon="13.4724984"><ele>647.0</ele><time>2026-05-03T07:24:17.896Z</time></trkpt><trkpt lat="42.3554777" lon="13.4726077"><ele>647.0</ele><time>2026-05-03T07:24:18.897Z</time></trkpt><trkpt lat="42.3555676" lon="13.4727125"><ele>647.5</ele><time>2026-05-03T07:24:19.897Z</time></trkpt><trkpt lat="42.3556627" lon="13.4728096"><ele>648.0</ele><time>2026-05-03T07:24:20.898Z</time></trkpt><trkpt lat="42.3557543" lon="13.4729083"><ele>648.5</ele><time>2026-05-03T07:24:21.897Z</time></trkpt><trkpt lat="42.3558445" lon="13.4730001"><ele>649.0</ele><time>2026-05-03T07:24:22.898Z</time></trkpt><trkpt lat="42.3559335" lon="13.4730906"><ele>649.1666666666667</ele><time>2026-05-03T07:24:23.897Z</time></trkpt><trkpt lat="42.3560176" lon="13.4731749"><ele>649.3333333333334</ele><time>2026-05-03T07:24:24.898Z</time></trkpt><trkpt lat="42.3560974" lon="13.4732563"><ele>649.5</ele><time>2026-05-03T07:24:25.898Z</time></trkpt><trkpt lat="42.3561667" lon="13.4733303"><ele>649.6666666666666</ele><time>2026-05-03T07:24:26.898Z</time></trkpt><trkpt lat="42.3562199" lon="13.4733878"><ele>649.8333333333333</ele><time>2026-05-03T07:24:27.898Z</time></trkpt><trkpt lat="42.356276" lon="13.4734384"><ele>650.0</ele><time>2026-05-03T07:24:28.897Z</time></trkpt><trkpt lat="42.3563391" lon="13.4734763"><ele>650.5</ele><time>2026-05-03T07:24:29.897Z</time></trkpt><trkpt lat="42.3564034" lon="13.4734936"><ele>651.0</ele><time>2026-05-03T07:24:30.897Z</time></trkpt><trkpt lat="42.3564663" lon="13.4735193"><ele>651.5</ele><time>2026-05-03T07:24:31.897Z</time></trkpt><trkpt lat="42.3565734" lon="13.4736094"><ele>652.0</ele><time>2026-05-03T07:24:33.898Z</time></trkpt><trkpt lat="42.3566117" lon="13.4737006"><ele>652.5</ele><time>2026-05-03T07:24:34.898Z</time></trkpt><trkpt lat="42.3566411" lon="13.4738019"><ele>653.0</ele><time>2026-05-03T07:24:35.897Z</time></trkpt><trkpt lat="42.3566766" lon="13.4739064"><ele>653.5999999999999</ele><time>2026-05-03T07:24:36.897Z</time></trkpt><trkpt lat="42.3567162" lon="13.474017"><ele>654.1999999999999</ele><time>2026-05-03T07:24:37.897Z</time></trkpt><trkpt lat="42.3567544" lon="13.4741326"><ele>654.8</ele><time>2026-05-03T07:24:38.898Z</time></trkpt><trkpt lat="42.356793" lon="13.4742516"><ele>655.4</ele><time>2026-05-03T07:24:39.898Z</time></trkpt><trkpt lat="42.3568332" lon="13.4743715"><ele>656.0</ele><time>2026-05-03T07:24:40.898Z</time></trkpt><trkpt lat="42.3568773" lon="13.4744908"><ele>657.8</ele><time>2026-05-03T07:24:41.898Z</time></trkpt><trkpt lat="42.3569207" lon="13.4746087"><ele>659.5999999999999</ele><time>2026-05-03T07:24:42.898Z</time></trkpt><trkpt lat="42.356964" lon="13.4747274"><ele>661.4</ele><time>2026-05-03T07:24:43.897Z</time></trkpt><trkpt lat="42.3570069" lon="13.4748454"><ele>663.2</ele><time>2026-05-03T07:24:44.898Z</time></trkpt><trkpt lat="42.3570512" lon="13.4749638"><ele>665.0</ele><time>2026-05-03T07:24:45.897Z</time></trkpt><trkpt lat="42.3570894" lon="13.4750834"><ele>665.0</ele><time>2026-05-03T07:24:46.897Z</time></trkpt><trkpt lat="42.3571182" lon="13.4752059"><ele>665.0</ele><time>2026-05-03T07:24:47.898Z</time></trkpt><trkpt lat="42.3571465" lon="13.4753242"><ele>665.0</ele><time>2026-05-03T07:24:48.898Z</time></trkpt><trkpt lat="42.3571697" lon="13.4754429"><ele>665.0</ele><time>2026-05-03T07:24:49.897Z</time></trkpt><trkpt lat="42.3571938" lon="13.475562"><ele>665.0</ele><time>2026-05-03T07:24:50.898Z</time></trkpt><trkpt lat="42.3572198" lon="13.4756816"><ele>667.2</ele><time>2026-05-03T07:24:51.897Z</time></trkpt><trkpt lat="42.3572421" lon="13.4757988"><ele>669.4</ele><time>2026-05-03T07:24:52.897Z</time></trkpt><trkpt lat="42.3572525" lon="13.4759196"><ele>671.5999999999999</ele><time>2026-05-03T07:24:53.898Z</time></trkpt><trkpt lat="42.3572504" lon="13.4760448"><ele>673.8</ele><time>2026-05-03T07:24:54.898Z</time></trkpt><trkpt lat="42.3572448" lon="13.4761712"><ele>676.0</ele><time>2026-05-03T07:24:55.898Z</time></trkpt><trkpt lat="42.3572347" lon="13.4762967"><ele>677.4</ele><time>2026-05-03T07:24:56.897Z</time></trkpt><trkpt lat="42.3572396" lon="13.4764314"><ele>678.8</ele><time>2026-05-03T07:24:57.897Z</time></trkpt><trkpt lat="42.3572454" lon="13.4765699"><ele>680.1999999999999</ele><time>2026-05-03T07:24:58.897Z</time></trkpt><trkpt lat="42.3572524" lon="13.4767089"><ele>681.5999999999999</ele><time>2026-05-03T07:24:59.897Z</time></trkpt><trkpt lat="42.3572631" lon="13.4768495"><ele>683.0</ele><time>2026-05-03T07:25:00.897Z</time></trkpt><trkpt lat="42.3572747" lon="13.4769872"><ele>684.0</ele><time>2026-05-03T07:25:01.898Z</time></trkpt><trkpt lat="42.3572892" lon="13.4771132"><ele>685.0</ele><time>2026-05-03T07:25:02.898Z</time></trkpt><trkpt lat="42.3573042" lon="13.4772188"><ele>686.0</ele><time>2026-05-03T07:25:03.897Z</time></trkpt><trkpt lat="42.3573168" lon="13.4773088"><ele>687.0</ele><time>2026-05-03T07:25:04.897Z</time></trkpt><trkpt lat="42.3573341" lon="13.4774692"><ele>688.0</ele><time>2026-05-03T07:25:06.897Z</time></trkpt><trkpt lat="42.3573416" lon="13.477559"><ele>689.0</ele><time>2026-05-03T07:25:07.897Z</time></trkpt><trkpt lat="42.3573506" lon="13.4776649"><ele>689.0</ele><time>2026-05-03T07:25:08.897Z</time></trkpt><trkpt lat="42.3573618" lon="13.4777779"><ele>689.0</ele><time>2026-05-03T07:25:09.897Z</time></trkpt><trkpt lat="42.3573742" lon="13.4778949"><ele>689.0</ele><time>2026-05-03T07:25:10.897Z</time></trkpt><trkpt lat="42.3573962" lon="13.4780118"><ele>689.0</ele><time>2026-05-03T07:25:11.897Z</time></trkpt><trkpt lat="42.3574259" lon="13.4781295"><ele>689.0</ele><time>2026-05-03T07:25:12.897Z</time></trkpt><trkpt lat="42.3574561" lon="13.4782461"><ele>689.0</ele><time>2026-05-03T07:25:13.897Z</time></trkpt><trkpt lat="42.3574887" lon="13.4783567"><ele>690.3333333333333</ele><time>2026-05-03T07:25:14.898Z</time></trkpt><trkpt lat="42.3575192" lon="13.4784584"><ele>691.6666666666666</ele><time>2026-05-03T07:25:15.897Z</time></trkpt><trkpt lat="42.3575427" lon="13.478556"><ele>693.0</ele><time>2026-05-03T07:25:16.898Z</time></trkpt><trkpt lat="42.3575605" lon="13.4786598"><ele>694.3333333333334</ele><time>2026-05-03T07:25:17.898Z</time></trkpt><trkpt lat="42.3575734" lon="13.4787702"><ele>695.6666666666667</ele><time>2026-05-03T07:25:18.897Z</time></trkpt><trkpt lat="42.3575885" lon="13.4788839"><ele>697.0</ele><time>2026-05-03T07:25:19.897Z</time></trkpt><trkpt lat="42.3576065" lon="13.4790052"><ele>698.8</ele><time>2026-05-03T07:25:20.897Z</time></trkpt><trkpt lat="42.3576247" lon="13.4791336"><ele>700.6</ele><time>2026-05-03T07:25:21.898Z</time></trkpt><trkpt lat="42.3576417" lon="13.4792651"><ele>702.4</ele><time>2026-05-03T07:25:22.897Z</time></trkpt><trkpt lat="42.357659" lon="13.4793977"><ele>704.1999999999999</ele><time>2026-05-03T07:25:23.897Z</time></trkpt><trkpt lat="42.357677" lon="13.4795297"><ele>706.0</ele><time>2026-05-03T07:25:24.898Z</time></trkpt><trkpt lat="42.3576929" lon="13.4796577"><ele>707.8</ele><time>2026-05-03T07:25:25.897Z</time></trkpt><trkpt lat="42.3577104" lon="13.4797901"><ele>709.5999999999999</ele><time>2026-05-03T07:25:26.898Z</time></trkpt><trkpt lat="42.3577288" lon="13.4799211"><ele>711.4</ele><time>2026-05-03T07:25:27.897Z</time></trkpt><trkpt lat="42.3577469" lon="13.4800471"><ele>713.2</ele><time>2026-05-03T07:25:28.897Z</time></trkpt><trkpt lat="42.3577585" lon="13.4801734"><ele>715.0</ele><time>2026-05-03T07:25:29.898Z</time></trkpt><trkpt lat="42.3577571" lon="13.4802979"><ele>715.0</ele><time>2026-05-03T07:25:30.897Z</time></trkpt><trkpt lat="42.3577365" lon="13.4804193"><ele>715.0</ele><time>2026-05-03T07:25:31.897Z</time></trkpt><trkpt lat="42.3577053" lon="13.4805366"><ele>715.0</ele><time>2026-05-03T07:25:32.898Z</time></trkpt><trkpt lat="42.3576905" lon="13.4806596"><ele>715.0</ele><time>2026-05-03T07:25:33.897Z</time></trkpt><trkpt lat="42.3576944" lon="13.4807849"><ele>715.0</ele><time>2026-05-03T07:25:34.897Z</time></trkpt><trkpt lat="42.3577155" lon="13.4808943"><ele>716.3333333333334</ele><time>2026-05-03T07:25:35.897Z</time></trkpt><trkpt lat="42.3577395" lon="13.480992"><ele>717.6666666666667</ele><time>2026-05-03T07:25:36.898Z</time></trkpt><trkpt lat="42.357749" lon="13.4810937"><ele>719.0</ele><time>2026-05-03T07:25:37.897Z</time></trkpt><trkpt lat="42.3577459" lon="13.4812047"><ele>720.3333333333334</ele><time>2026-05-03T07:25:38.898Z</time></trkpt><trkpt lat="42.3577397" lon="13.4813177"><ele>721.6666666666666</ele><time>2026-05-03T07:25:39.898Z</time></trkpt><trkpt lat="42.3577296" lon="13.4814443"><ele>723.0</ele><time>2026-05-03T07:25:40.898Z</time></trkpt><trkpt lat="42.3577169" lon="13.4815801"><ele>725.0</ele><time>2026-05-03T07:25:41.898Z</time></trkpt><trkpt lat="42.3576994" lon="13.4817195"><ele>727.0</ele><time>2026-05-03T07:25:42.897Z</time></trkpt><trkpt lat="42.3576737" lon="13.48186"><ele>729.0</ele><time>2026-05-03T07:25:43.898Z</time></trkpt><trkpt lat="42.3576451" lon="13.481993"><ele>731.0</ele><time>2026-05-03T07:25:44.898Z</time></trkpt><trkpt lat="42.3576128" lon="13.4821247"><ele>733.0</ele><time>2026-05-03T07:25:45.898Z</time></trkpt><trkpt lat="42.3575833" lon="13.4822603"><ele>735.0</ele><time>2026-05-03T07:25:46.897Z</time></trkpt><trkpt lat="42.3575691" lon="13.4823995"><ele>737.0</ele><time>2026-05-03T07:25:47.898Z</time></trkpt><trkpt lat="42.3575699" lon="13.4825445"><ele>739.0</ele><time>2026-05-03T07:25:48.897Z</time></trkpt><trkpt lat="42.357581" lon="13.482698"><ele>741.0</ele><time>2026-05-03T07:25:49.899Z</time></trkpt><trkpt lat="42.3575945" lon="13.4828573"><ele>743.0</ele><time>2026-05-03T07:25:50.897Z</time></trkpt><trkpt lat="42.3576129" lon="13.483027"><ele>744.75</ele><time>2026-05-03T07:25:51.897Z</time></trkpt><trkpt lat="42.3576259" lon="13.4831996"><ele>746.5</ele><time>2026-05-03T07:25:52.897Z</time></trkpt><trkpt lat="42.3576377" lon="13.4833681"><ele>748.25</ele><time>2026-05-03T07:25:53.898Z</time></trkpt><trkpt lat="42.357648" lon="13.4835154"><ele>750.0</ele><time>2026-05-03T07:25:54.898Z</time></trkpt><trkpt lat="42.3576653" lon="13.4836658"><ele>751.0</ele><time>2026-05-03T07:25:55.897Z</time></trkpt><trkpt lat="42.3576945" lon="13.4838233"><ele>752.0</ele><time>2026-05-03T07:25:56.897Z</time></trkpt><trkpt lat="42.3577273" lon="13.48399"><ele>753.0</ele><time>2026-05-03T07:25:57.897Z</time></trkpt><trkpt lat="42.3577579" lon="13.4841645"><ele>754.0</ele><time>2026-05-03T07:25:58.897Z</time></trkpt><trkpt lat="42.3577755" lon="13.484329"><ele>754.0</ele><time>2026-05-03T07:25:59.897Z</time></trkpt><trkpt lat="42.357782" lon="13.4844995"><ele>754.0</ele><time>2026-05-03T07:26:00.897Z</time></trkpt><trkpt lat="42.3577782" lon="13.4846652"><ele>754.0</ele><time>2026-05-03T07:26:01.897Z</time></trkpt><trkpt lat="42.3577601" lon="13.4848321"><ele>754.0</ele><time>2026-05-03T07:26:02.897Z</time></trkpt><trkpt lat="42.3577394" lon="13.4849992"><ele>754.6</ele><time>2026-05-03T07:26:03.897Z</time></trkpt><trkpt lat="42.3577246" lon="13.4851519"><ele>755.2</ele><time>2026-05-03T07:26:04.898Z</time></trkpt><trkpt lat="42.3577136" lon="13.4853057"><ele>755.8000000000001</ele><time>2026-05-03T07:26:05.897Z</time></trkpt><trkpt lat="42.3577055" lon="13.4854552"><ele>756.4000000000001</ele><time>2026-05-03T07:26:06.897Z</time></trkpt><trkpt lat="42.3576979" lon="13.4855841"><ele>757.0</ele><time>2026-05-03T07:26:07.897Z</time></trkpt><trkpt lat="42.3576941" lon="13.4857029"><ele>757.0</ele><time>2026-05-03T07:26:08.897Z</time></trkpt><trkpt lat="42.3576985" lon="13.485803"><ele>757.0</ele><time>2026-05-03T07:26:09.897Z</time></trkpt><trkpt lat="42.3577229" lon="13.485919"><ele>757.0</ele><time>2026-05-03T07:26:10.897Z</time></trkpt><trkpt lat="42.3577628" lon="13.4860506"><ele>757.0</ele><time>2026-05-03T07:26:11.899Z</time></trkpt><trkpt lat="42.3578012" lon="13.4861678"><ele>757.0</ele><time>2026-05-03T07:26:12.898Z</time></trkpt><trkpt lat="42.3578468" lon="13.486292"><ele>756.0</ele><time>2026-05-03T07:26:13.897Z</time></trkpt><trkpt lat="42.3578976" lon="13.4864053"><ele>755.0</ele><time>2026-05-03T07:26:14.898Z</time></trkpt><trkpt lat="42.3579636" lon="13.4865131"><ele>754.0</ele><time>2026-05-03T07:26:15.897Z</time></trkpt><trkpt lat="42.3580496" lon="13.4866264"><ele>753.0</ele><time>2026-05-03T07:26:16.898Z</time></trkpt><trkpt lat="42.3581431" lon="13.4867408"><ele>752.0</ele><time>2026-05-03T07:26:17.897Z</time></trkpt><trkpt lat="42.3582386" lon="13.4868576"><ele>754.75</ele><time>2026-05-03T07:26:18.898Z</time></trkpt><trkpt lat="42.3583282" lon="13.486971"><ele>757.5</ele><time>2026-05-03T07:26:19.897Z</time></trkpt><trkpt lat="42.3584132" lon="13.4870865"><ele>760.25</ele><time>2026-05-03T07:26:20.897Z</time></trkpt><trkpt lat="42.3585095" lon="13.4871995"><ele>763.0</ele><time>2026-05-03T07:26:21.898Z</time></trkpt><trkpt lat="42.3585902" lon="13.4872972"><ele>763.0</ele><time>2026-05-03T07:26:22.897Z</time></trkpt><trkpt lat="42.3586617" lon="13.4873902"><ele>763.0</ele><time>2026-05-03T07:26:23.898Z</time></trkpt><trkpt lat="42.3587254" lon="13.4874943"><ele>763.0</ele><time>2026-05-03T07:26:24.898Z</time></trkpt><trkpt lat="42.3587795" lon="13.487618"><ele>763.0</ele><time>2026-05-03T07:26:25.898Z</time></trkpt><trkpt lat="42.3588439" lon="13.4877486"><ele>763.0</ele><time>2026-05-03T07:26:26.897Z</time></trkpt><trkpt lat="42.3589092" lon="13.4878769"><ele>765.8333333333334</ele><time>2026-05-03T07:26:27.897Z</time></trkpt><trkpt lat="42.3589745" lon="13.4879842"><ele>768.6666666666667</ele><time>2026-05-03T07:26:28.899Z</time></trkpt><trkpt lat="42.3590213" lon="13.488051"><ele>771.5</ele><time>2026-05-03T07:26:29.897Z</time></trkpt><trkpt lat="42.3590716" lon="13.488105"><ele>774.3333333333334</ele><time>2026-05-03T07:26:31.898Z</time></trkpt><trkpt lat="42.3591128" lon="13.4881746"><ele>777.1666666666666</ele><time>2026-05-03T07:26:37.897Z</time></trkpt><trkpt lat="42.3591997" lon="13.4882823"><ele>780.0</ele><time>2026-05-03T07:26:39.897Z</time></trkpt><trkpt lat="42.359255" lon="13.4883563"><ele>780.0</ele><time>2026-05-03T07:26:40.897Z</time></trkpt><trkpt lat="42.3593114" lon="13.4884346"><ele>780.0</ele><time>2026-05-03T07:26:41.897Z</time></trkpt><trkpt lat="42.3593746" lon="13.4885146"><ele>780.0</ele><time>2026-05-03T07:26:42.898Z</time></trkpt><trkpt lat="42.3594372" lon="13.4886153"><ele>780.0</ele><time>2026-05-03T07:26:43.898Z</time></trkpt><trkpt lat="42.3594958" lon="13.4887325"><ele>780.0</ele><time>2026-05-03T07:26:44.897Z</time></trkpt><trkpt lat="42.3595512" lon="13.4888659"><ele>781.4</ele><time>2026-05-03T07:26:45.897Z</time></trkpt><trkpt lat="42.3596119" lon="13.4889842"><ele>782.8</ele><time>2026-05-03T07:26:46.898Z</time></trkpt><trkpt lat="42.3596785" lon="13.4890869"><ele>784.2</ele><time>2026-05-03T07:26:47.898Z</time></trkpt><trkpt lat="42.3597504" lon="13.4891798"><ele>785.6</ele><time>2026-05-03T07:26:48.897Z</time></trkpt><trkpt lat="42.3598335" lon="13.4892717"><ele>787.0</ele><time>2026-05-03T07:26:49.898Z</time></trkpt><trkpt lat="42.3599224" lon="13.4893391"><ele>788.0</ele><time>2026-05-03T07:26:50.898Z</time></trkpt><trkpt lat="42.3600325" lon="13.4893932"><ele>789.0</ele><time>2026-05-03T07:26:51.898Z</time></trkpt><trkpt lat="42.3601315" lon="13.4894591"><ele>790.0</ele><time>2026-05-03T07:26:52.897Z</time></trkpt><trkpt lat="42.3602102" lon="13.4895391"><ele>791.0</ele><time>2026-05-03T07:26:53.897Z</time></trkpt><trkpt lat="42.3602956" lon="13.48964"><ele>792.0</ele><time>2026-05-03T07:26:54.898Z</time></trkpt><trkpt lat="42.3603756" lon="13.4897189"><ele>793.25</ele><time>2026-05-03T07:26:55.898Z</time></trkpt><trkpt lat="42.3604708" lon="13.4897959"><ele>794.5</ele><time>2026-05-03T07:26:56.898Z</time></trkpt><trkpt lat="42.3605724" lon="13.4898622"><ele>795.75</ele><time>2026-05-03T07:26:57.897Z</time></trkpt><trkpt lat="42.3606789" lon="13.4899459"><ele>797.0</ele><time>2026-05-03T07:26:58.898Z</time></trkpt><trkpt lat="42.3607593" lon="13.4900377"><ele>797.6</ele><time>2026-05-03T07:26:59.898Z</time></trkpt><trkpt lat="42.3608281" lon="13.4900999"><ele>798.2</ele><time>2026-05-03T07:27:00.897Z</time></trkpt><trkpt lat="42.3608955" lon="13.4901584"><ele>798.8</ele><time>2026-05-03T07:27:01.897Z</time></trkpt><trkpt lat="42.360974" lon="13.4902019"><ele>799.4</ele><time>2026-05-03T07:27:02.897Z</time></trkpt><trkpt lat="42.3610805" lon="13.4902447"><ele>800.0</ele><time>2026-05-03T07:27:03.897Z</time></trkpt><trkpt lat="42.3611862" lon="13.4903149"><ele>800.0</ele><time>2026-05-03T07:27:04.898Z</time></trkpt><trkpt lat="42.3612798" lon="13.4903937"><ele>800.0</ele><time>2026-05-03T07:27:05.897Z</time></trkpt><trkpt lat="42.3613699" lon="13.4904844"><ele>800.0</ele><time>2026-05-03T07:27:06.897Z</time></trkpt><trkpt lat="42.3614622" lon="13.4905859"><ele>800.0</ele><time>2026-05-03T07:27:07.898Z</time></trkpt><trkpt lat="42.3615535" lon="13.49066"><ele>800.0</ele><time>2026-05-03T07:27:08.897Z</time></trkpt><trkpt lat="42.3616543" lon="13.4907404"><ele>802.4</ele><time>2026-05-03T07:27:09.898Z</time></trkpt><trkpt lat="42.3617415" lon="13.4908163"><ele>804.8</ele><time>2026-05-03T07:27:10.898Z</time></trkpt><trkpt lat="42.3618305" lon="13.4908715"><ele>807.2</ele><time>2026-05-03T07:27:11.897Z</time></trkpt><trkpt lat="42.361913" lon="13.4909379"><ele>809.6</ele><time>2026-05-03T07:27:12.898Z</time></trkpt><trkpt lat="42.3619712" lon="13.4910262"><ele>812.0</ele><time>2026-05-03T07:27:13.898Z</time></trkpt><trkpt lat="42.362036" lon="13.4911362"><ele>812.0</ele><time>2026-05-03T07:27:14.897Z</time></trkpt><trkpt lat="42.3621154" lon="13.4912541"><ele>812.0</ele><time>2026-05-03T07:27:15.897Z</time></trkpt><trkpt lat="42.3621999" lon="13.491365"><ele>812.0</ele><time>2026-05-03T07:27:16.898Z</time></trkpt><trkpt lat="42.362284" lon="13.4914778"><ele>812.0</ele><time>2026-05-03T07:27:17.897Z</time></trkpt><trkpt lat="42.3623704" lon="13.4915882"><ele>813.75</ele><time>2026-05-03T07:27:18.898Z</time></trkpt><trkpt lat="42.3624499" lon="13.4917007"><ele>815.5</ele><time>2026-05-03T07:27:19.897Z</time></trkpt><trkpt lat="42.362518" lon="13.4918247"><ele>817.25</ele><time>2026-05-03T07:27:20.898Z</time></trkpt><trkpt lat="42.3625734" lon="13.4919579"><ele>819.0</ele><time>2026-05-03T07:27:21.898Z</time></trkpt><trkpt lat="42.3626228" lon="13.4921022"><ele>821.25</ele><time>2026-05-03T07:27:22.897Z</time></trkpt><trkpt lat="42.3626669" lon="13.4922638"><ele>823.5</ele><time>2026-05-03T07:27:23.897Z</time></trkpt><trkpt lat="42.3627067" lon="13.4924184"><ele>825.75</ele><time>2026-05-03T07:27:24.897Z</time></trkpt><trkpt lat="42.3627458" lon="13.4925705"><ele>828.0</ele><time>2026-05-03T07:27:25.898Z</time></trkpt><trkpt lat="42.3627839" lon="13.4927137"><ele>828.0</ele><time>2026-05-03T07:27:26.898Z</time></trkpt><trkpt lat="42.3628112" lon="13.4928345"><ele>828.0</ele><time>2026-05-03T07:27:27.897Z</time></trkpt><trkpt lat="42.3628181" lon="13.49295"><ele>828.0</ele><time>2026-05-03T07:27:28.898Z</time></trkpt><trkpt lat="42.3628091" lon="13.4930693"><ele>828.0</ele><time>2026-05-03T07:27:29.897Z</time></trkpt><trkpt lat="42.3628037" lon="13.493196"><ele>828.0</ele><time>2026-05-03T07:27:30.898Z</time></trkpt><trkpt lat="42.3628071" lon="13.4933268"><ele>830.6666666666666</ele><time>2026-05-03T07:27:31.897Z</time></trkpt><trkpt lat="42.3628257" lon="13.4934342"><ele>833.3333333333333</ele><time>2026-05-03T07:27:32.897Z</time></trkpt><trkpt lat="42.3628741" lon="13.4935457"><ele>836.0</ele><time>2026-05-03T07:27:33.897Z</time></trkpt><trkpt lat="42.3629179" lon="13.4936418"><ele>838.6666666666666</ele><time>2026-05-03T07:27:34.897Z</time></trkpt><trkpt lat="42.3629397" lon="13.4937411"><ele>841.3333333333333</ele><time>2026-05-03T07:27:35.897Z</time></trkpt><trkpt lat="42.3629509" lon="13.4938585"><ele>844.0</ele><time>2026-05-03T07:27:36.898Z</time></trkpt><trkpt lat="42.3629551" lon="13.4940077"><ele>847.25</ele><time>2026-05-03T07:27:37.897Z</time></trkpt><trkpt lat="42.3629663" lon="13.4941695"><ele>850.5</ele><time>2026-05-03T07:27:38.898Z</time></trkpt><trkpt lat="42.3629775" lon="13.4943306"><ele>853.75</ele><time>2026-05-03T07:27:39.898Z</time></trkpt><trkpt lat="42.3629884" lon="13.4944905"><ele>857.0</ele><time>2026-05-03T07:27:40.898Z</time></trkpt><trkpt lat="42.3629845" lon="13.4946163"><ele>858.2</ele><time>2026-05-03T07:27:41.898Z</time></trkpt><trkpt lat="42.3629735" lon="13.4947424"><ele>859.4000000000001</ele><time>2026-05-03T07:27:42.897Z</time></trkpt><trkpt lat="42.3629543" lon="13.4948873"><ele>860.5999999999999</ele><time>2026-05-03T07:27:43.897Z</time></trkpt><trkpt lat="42.3629435" lon="13.4950363"><ele>861.8</ele><time>2026-05-03T07:27:44.897Z</time></trkpt><trkpt lat="42.3629305" lon="13.4951909"><ele>863.0</ele><time>2026-05-03T07:27:45.897Z</time></trkpt><trkpt lat="42.3629164" lon="13.4953487"><ele>863.4</ele><time>2026-05-03T07:27:46.898Z</time></trkpt><trkpt lat="42.3629054" lon="13.4954954"><ele>863.8</ele><time>2026-05-03T07:27:47.897Z</time></trkpt><trkpt lat="42.3628981" lon="13.4956459"><ele>864.2</ele><time>2026-05-03T07:27:48.897Z</time></trkpt><trkpt lat="42.3628861" lon="13.4958047"><ele>864.6</ele><time>2026-05-03T07:27:49.897Z</time></trkpt><trkpt lat="42.3628768" lon="13.4959432"><ele>865.0</ele><time>2026-05-03T07:27:50.897Z</time></trkpt><trkpt lat="42.3628672" lon="13.4960818"><ele>865.0</ele><time>2026-05-03T07:27:51.897Z</time></trkpt><trkpt lat="42.3628562" lon="13.4962118"><ele>865.0</ele><time>2026-05-03T07:27:52.897Z</time></trkpt><trkpt lat="42.362845" lon="13.4963486"><ele>865.0</ele><time>2026-05-03T07:27:53.898Z</time></trkpt><trkpt lat="42.3628393" lon="13.4964741"><ele>865.0</ele><time>2026-05-03T07:27:54.897Z</time></trkpt><trkpt lat="42.3628358" lon="13.4966013"><ele>865.0</ele><time>2026-05-03T07:27:55.898Z</time></trkpt><trkpt lat="42.362855" lon="13.4966939"><ele>865.9999999999999</ele><time>2026-05-03T07:27:56.898Z</time></trkpt><trkpt lat="42.3628709" lon="13.4967959"><ele>867.0</ele><time>2026-05-03T07:27:57.897Z</time></trkpt><trkpt lat="42.3628932" lon="13.4969022"><ele>868.0</ele><time>2026-05-03T07:27:58.898Z</time></trkpt><trkpt lat="42.3629156" lon="13.4970033"><ele>869.0</ele><time>2026-05-03T07:27:59.897Z</time></trkpt><trkpt lat="42.3629215" lon="13.4971048"><ele>869.9999999999999</ele><time>2026-05-03T07:28:00.897Z</time></trkpt><trkpt lat="42.3629122" lon="13.4972024"><ele>871.0</ele><time>2026-05-03T07:28:01.897Z</time></trkpt><trkpt lat="42.3629076" lon="13.4973059"><ele>871.8</ele><time>2026-05-03T07:28:02.897Z</time></trkpt><trkpt lat="42.3629057" lon="13.4974608"><ele>872.5999999999999</ele><time>2026-05-03T07:28:04.899Z</time></trkpt><trkpt lat="42.3629146" lon="13.4975481"><ele>873.4</ele><time>2026-05-03T07:28:05.898Z</time></trkpt><trkpt lat="42.3629526" lon="13.4976878"><ele>874.2</ele><time>2026-05-03T07:28:07.897Z</time></trkpt><trkpt lat="42.363017" lon="13.4978228"><ele>875.0</ele><time>2026-05-03T07:28:09.898Z</time></trkpt><trkpt lat="42.3630567" lon="13.4978997"><ele>878.0000000000001</ele><time>2026-05-03T07:28:10.897Z</time></trkpt><trkpt lat="42.3630997" lon="13.4979699"><ele>881.0</ele><time>2026-05-03T07:28:11.897Z</time></trkpt><trkpt lat="42.3631917" lon="13.4980702"><ele>884.0</ele><time>2026-05-03T07:28:13.898Z</time></trkpt><trkpt lat="42.3632513" lon="13.4981256"><ele>887.0</ele><time>2026-05-03T07:28:14.897Z</time></trkpt><trkpt lat="42.3633181" lon="13.4981856"><ele>890.0000000000001</ele><time>2026-05-03T07:28:15.898Z</time></trkpt><trkpt lat="42.3633966" lon="13.4982514"><ele>893.0</ele><time>2026-05-03T07:28:16.897Z</time></trkpt><trkpt lat="42.3634664" lon="13.4983148"><ele>893.0000000000001</ele><time>2026-05-03T07:28:17.898Z</time></trkpt><trkpt lat="42.3635216" lon="13.4983696"><ele>893.0</ele><time>2026-05-03T07:28:18.897Z</time></trkpt><trkpt lat="42.3635782" lon="13.49843"><ele>893.0</ele><time>2026-05-03T07:28:19.897Z</time></trkpt><trkpt lat="42.3636412" lon="13.4985653"><ele>893.0</ele><time>2026-05-03T07:28:21.897Z</time></trkpt><trkpt lat="42.3636625" lon="13.4986457"><ele>893.0000000000001</ele><time>2026-05-03T07:28:22.897Z</time></trkpt><trkpt lat="42.3637044" lon="13.498787"><ele>893.0</ele><time>2026-05-03T07:28:24.897Z</time></trkpt><trkpt lat="42.3637267" lon="13.4988672"><ele>893.5999999999999</ele><time>2026-05-03T07:28:25.897Z</time></trkpt><trkpt lat="42.3637747" lon="13.4989746"><ele>894.1999999999999</ele><time>2026-05-03T07:28:27.897Z</time></trkpt><trkpt lat="42.3638438" lon="13.4990494"><ele>894.8</ele><time>2026-05-03T07:28:29.897Z</time></trkpt><trkpt lat="42.3639159" lon="13.4991422"><ele>895.4</ele><time>2026-05-03T07:28:31.898Z</time></trkpt><trkpt lat="42.3639728" lon="13.4992781"><ele>896.0</ele><time>2026-05-03T07:28:33.897Z</time></trkpt><trkpt lat="42.3640479" lon="13.4994005"><ele>898.0</ele><time>2026-05-03T07:28:35.896Z</time></trkpt><trkpt lat="42.3641398" lon="13.4995183"><ele>899.9999999999999</ele><time>2026-05-03T07:28:37.897Z</time></trkpt><trkpt lat="42.3641866" lon="13.4995909"><ele>901.9999999999999</ele><time>2026-05-03T07:28:38.896Z</time></trkpt><trkpt lat="42.3642263" lon="13.4996617"><ele>904.0</ele><time>2026-05-03T07:28:39.897Z</time></trkpt><trkpt lat="42.3642973" lon="13.4997922"><ele>906.0</ele><time>2026-05-03T07:28:41.897Z</time></trkpt><trkpt lat="42.3643384" lon="13.4998731"><ele>906.3333333333334</ele><time>2026-05-03T07:28:42.897Z</time></trkpt><trkpt lat="42.3643835" lon="13.4999632"><ele>906.6666666666667</ele><time>2026-05-03T07:28:43.896Z</time></trkpt><trkpt lat="42.364426" lon="13.5000514"><ele>907.0</ele><time>2026-05-03T07:28:44.897Z</time></trkpt><trkpt lat="42.3644641" lon="13.5001387"><ele>907.3333333333334</ele><time>2026-05-03T07:28:45.897Z</time></trkpt><trkpt lat="42.3645041" lon="13.5002178"><ele>907.6666666666667</ele><time>2026-05-03T07:28:46.897Z</time></trkpt><trkpt lat="42.3645452" lon="13.5002992"><ele>908.0</ele><time>2026-05-03T07:28:47.896Z</time></trkpt><trkpt lat="42.3645816" lon="13.5003889"><ele>909.0</ele><time>2026-05-03T07:28:48.896Z</time></trkpt><trkpt lat="42.3646138" lon="13.5004728"><ele>910.0</ele><time>2026-05-03T07:28:49.898Z</time></trkpt><trkpt lat="42.3646723" lon="13.5006135"><ele>911.0</ele><time>2026-05-03T07:28:51.896Z</time></trkpt><trkpt lat="42.3647206" lon="13.5007409"><ele>912.0</ele><time>2026-05-03T07:28:53.896Z</time></trkpt><trkpt lat="42.3647685" lon="13.5008697"><ele>913.0</ele><time>2026-05-03T07:28:55.896Z</time></trkpt><trkpt lat="42.3648017" lon="13.5009451"><ele>914.4</ele><time>2026-05-03T07:28:56.896Z</time></trkpt><trkpt lat="42.3648547" lon="13.5010939"><ele>915.8</ele><time>2026-05-03T07:28:58.896Z</time></trkpt><trkpt lat="42.3648885" lon="13.5012311"><ele>917.2</ele><time>2026-05-03T07:29:00.896Z</time></trkpt><trkpt lat="42.3649055" lon="13.5013171"><ele>918.6</ele><time>2026-05-03T07:29:01.897Z</time></trkpt><trkpt lat="42.36493" lon="13.501473"><ele>920.0</ele><time>2026-05-03T07:29:03.896Z</time></trkpt><trkpt lat="42.3649712" lon="13.5016351"><ele>921.4</ele><time>2026-05-03T07:29:05.897Z</time></trkpt><trkpt lat="42.3650135" lon="13.5017922"><ele>922.8</ele><time>2026-05-03T07:29:07.896Z</time></trkpt><trkpt lat="42.3650635" lon="13.5019518"><ele>924.2</ele><time>2026-05-03T07:29:09.896Z</time></trkpt><trkpt lat="42.3650892" lon="13.5020359"><ele>925.6</ele><time>2026-05-03T07:29:10.897Z</time></trkpt><trkpt lat="42.3651092" lon="13.5021215"><ele>927.0</ele><time>2026-05-03T07:29:11.897Z</time></trkpt><trkpt lat="42.3651433" lon="13.502274"><ele>928.2</ele><time>2026-05-03T07:29:13.897Z</time></trkpt><trkpt lat="42.3651637" lon="13.5023931"><ele>929.4000000000001</ele><time>2026-05-03T07:29:15.896Z</time></trkpt><trkpt lat="42.3651857" lon="13.5025161"><ele>930.5999999999999</ele><time>2026-05-03T07:29:17.896Z</time></trkpt><trkpt lat="42.3652232" lon="13.5026575"><ele>931.8</ele><time>2026-05-03T07:29:19.896Z</time></trkpt><trkpt lat="42.3652687" lon="13.5027974"><ele>933.0</ele><time>2026-05-03T07:29:21.898Z</time></trkpt><trkpt lat="42.3653093" lon="13.5029266"><ele>934.5999999999999</ele><time>2026-05-03T07:29:23.896Z</time></trkpt><trkpt lat="42.3653611" lon="13.5030476"><ele>936.1999999999999</ele><time>2026-05-03T07:29:25.896Z</time></trkpt><trkpt lat="42.3653994" lon="13.5031218"><ele>937.8</ele><time>2026-05-03T07:29:26.896Z</time></trkpt><trkpt lat="42.3654686" lon="13.5032584"><ele>939.4</ele><time>2026-05-03T07:29:28.896Z</time></trkpt><trkpt lat="42.3655433" lon="13.5034064"><ele>941.0</ele><time>2026-05-03T07:29:30.896Z</time></trkpt><trkpt lat="42.3655851" lon="13.5034932"><ele>941.0000000000001</ele><time>2026-05-03T07:29:31.897Z</time></trkpt><trkpt lat="42.3656572" lon="13.503628"><ele>941.0</ele><time>2026-05-03T07:29:33.896Z</time></trkpt><trkpt lat="42.3657175" lon="13.5037725"><ele>941.0</ele><time>2026-05-03T07:29:35.896Z</time></trkpt><trkpt lat="42.3657435" lon="13.5038561"><ele>941.0</ele><time>2026-05-03T07:29:36.897Z</time></trkpt><trkpt lat="42.3657674" lon="13.5039355"><ele>941.0000000000001</ele><time>2026-05-03T07:29:37.897Z</time></trkpt><trkpt lat="42.365792" lon="13.5040181"><ele>941.0</ele><time>2026-05-03T07:29:38.897Z</time></trkpt><trkpt lat="42.3658133" lon="13.5041038"><ele>941.8</ele><time>2026-05-03T07:29:39.896Z</time></trkpt><trkpt lat="42.3658366" lon="13.5041985"><ele>942.5999999999999</ele><time>2026-05-03T07:29:40.896Z</time></trkpt><trkpt lat="42.3658575" lon="13.5043391"><ele>943.4</ele><time>2026-05-03T07:29:42.896Z</time></trkpt><trkpt lat="42.3658439" lon="13.5044593"><ele>944.2</ele><time>2026-05-03T07:29:48.896Z</time></trkpt><trkpt lat="42.3658343" lon="13.5045665"><ele>945.0</ele><time>2026-05-03T07:29:49.897Z</time></trkpt><trkpt lat="42.365824" lon="13.504702"><ele>945.1666666666666</ele><time>2026-05-03T07:29:50.897Z</time></trkpt><trkpt lat="42.3658185" lon="13.5048098"><ele>945.3333333333333</ele><time>2026-05-03T07:29:51.897Z</time></trkpt><trkpt lat="42.3658356" lon="13.5049235"><ele>945.5</ele><time>2026-05-03T07:29:52.897Z</time></trkpt><trkpt lat="42.3658508" lon="13.5050266"><ele>945.6666666666666</ele><time>2026-05-03T07:29:53.897Z</time></trkpt><trkpt lat="42.365875" lon="13.5051417"><ele>945.8333333333333</ele><time>2026-05-03T07:29:54.896Z</time></trkpt><trkpt lat="42.3659032" lon="13.5052612"><ele>946.0</ele><time>2026-05-03T07:29:55.896Z</time></trkpt><trkpt lat="42.3659337" lon="13.5053768"><ele>946.1666666666666</ele><time>2026-05-03T07:29:56.896Z</time></trkpt><trkpt lat="42.365951" lon="13.5054771"><ele>946.3333333333333</ele><time>2026-05-03T07:29:57.896Z</time></trkpt><trkpt lat="42.3659662" lon="13.5055905"><ele>946.5</ele><time>2026-05-03T07:29:58.896Z</time></trkpt><trkpt lat="42.3659781" lon="13.5056883"><ele>946.6666666666667</ele><time>2026-05-03T07:29:59.897Z</time></trkpt><trkpt lat="42.3659875" lon="13.5057727"><ele>946.8333333333334</ele><time>2026-05-03T07:30:00.896Z</time></trkpt><trkpt lat="42.3660071" lon="13.5058888"><ele>947.0</ele><time>2026-05-03T07:30:03.896Z</time></trkpt><trkpt lat="42.3660178" lon="13.5059999"><ele>947.0</ele><time>2026-05-03T07:30:06.896Z</time></trkpt><trkpt lat="42.3660276" lon="13.5060976"><ele>947.0</ele><time>2026-05-03T07:30:08.896Z</time></trkpt><trkpt lat="42.3660405" lon="13.5062496"><ele>947.0</ele><time>2026-05-03T07:30:10.896Z</time></trkpt><trkpt lat="42.366067" lon="13.5064099"><ele>947.0</ele><time>2026-05-03T07:30:12.896Z</time></trkpt><trkpt lat="42.366128" lon="13.5065446"><ele>947.0</ele><time>2026-05-03T07:30:14.897Z</time></trkpt><trkpt lat="42.3661708" lon="13.5066237"><ele>947.3333333333334</ele><time>2026-05-03T07:30:15.896Z</time></trkpt><trkpt lat="42.3662038" lon="13.506707"><ele>947.6666666666667</ele><time>2026-05-03T07:30:16.896Z</time></trkpt><trkpt lat="42.3662388" lon="13.5067858"><ele>948.0</ele><time>2026-05-03T07:30:17.896Z</time></trkpt><trkpt lat="42.3662952" lon="13.5068676"><ele>948.3333333333333</ele><time>2026-05-03T07:30:18.897Z</time></trkpt><trkpt lat="42.3663646" lon="13.5069588"><ele>948.6666666666666</ele><time>2026-05-03T07:30:19.896Z</time></trkpt><trkpt lat="42.3664254" lon="13.5070309"><ele>949.0</ele><time>2026-05-03T07:30:20.896Z</time></trkpt><trkpt lat="42.3664813" lon="13.5071195"><ele>950.8333333333333</ele><time>2026-05-03T07:30:21.896Z</time></trkpt><trkpt lat="42.3665408" lon="13.5072143"><ele>952.6666666666666</ele><time>2026-05-03T07:30:22.896Z</time></trkpt><trkpt lat="42.3666017" lon="13.5073102"><ele>954.5</ele><time>2026-05-03T07:30:23.897Z</time></trkpt><trkpt lat="42.3666448" lon="13.5073815"><ele>956.3333333333333</ele><time>2026-05-03T07:30:24.896Z</time></trkpt><trkpt lat="42.3666973" lon="13.5074556"><ele>958.1666666666666</ele><time>2026-05-03T07:30:26.897Z</time></trkpt><trkpt lat="42.3667408" lon="13.507524"><ele>960.0</ele><time>2026-05-03T07:30:28.896Z</time></trkpt><trkpt lat="42.3667274" lon="13.5076278"><ele>960.0</ele><time>2026-05-03T07:30:32.896Z</time></trkpt><trkpt lat="42.3666064" lon="13.5076977"><ele>960.0</ele><time>2026-05-03T07:30:34.896Z</time></trkpt><trkpt lat="42.3665348" lon="13.5077573"><ele>960.0</ele><time>2026-05-03T07:30:35.896Z</time></trkpt><trkpt lat="42.3664525" lon="13.5078206"><ele>960.0</ele><time>2026-05-03T07:30:36.897Z</time></trkpt><trkpt lat="42.3663787" lon="13.507876"><ele>960.0</ele><time>2026-05-03T07:30:37.896Z</time></trkpt><trkpt lat="42.3663132" lon="13.5079276"><ele>958.8333333333334</ele><time>2026-05-03T07:30:38.897Z</time></trkpt><trkpt lat="42.366253" lon="13.5079642"><ele>957.6666666666667</ele><time>2026-05-03T07:30:39.896Z</time></trkpt><trkpt lat="42.3661895" lon="13.5079995"><ele>956.5</ele><time>2026-05-03T07:30:40.897Z</time></trkpt><trkpt lat="42.3661023" lon="13.5080875"><ele>955.3333333333334</ele><time>2026-05-03T07:30:42.897Z</time></trkpt><trkpt lat="42.3660629" lon="13.5081586"><ele>954.1666666666667</ele><time>2026-05-03T07:30:43.896Z</time></trkpt><trkpt lat="42.366016" lon="13.5082445"><ele>953.0</ele><time>2026-05-03T07:30:44.896Z</time></trkpt><trkpt lat="42.365967" lon="13.5083473"><ele>953.0</ele><time>2026-05-03T07:30:45.896Z</time></trkpt><trkpt lat="42.3659169" lon="13.5084516"><ele>953.0</ele><time>2026-05-03T07:30:46.896Z</time></trkpt><trkpt lat="42.3658631" lon="13.5085231"><ele>953.0</ele><time>2026-05-03T07:30:47.897Z</time></trkpt><trkpt lat="42.3657975" lon="13.5086252"><ele>953.0</ele><time>2026-05-03T07:30:49.896Z</time></trkpt><trkpt lat="42.3657706" lon="13.5088281"><ele>953.0</ele><time>2026-05-03T07:30:51.896Z</time></trkpt><trkpt lat="42.365731" lon="13.5089582"><ele>954.0000000000001</ele><time>2026-05-03T07:30:52.897Z</time></trkpt><trkpt lat="42.3656877" lon="13.5090525"><ele>955.0</ele><time>2026-05-03T07:30:53.897Z</time></trkpt><trkpt lat="42.36565" lon="13.5091339"><ele>956.0</ele><time>2026-05-03T07:30:54.896Z</time></trkpt><trkpt lat="42.3656225" lon="13.5092314"><ele>957.0</ele><time>2026-05-03T07:30:55.896Z</time></trkpt><trkpt lat="42.3656106" lon="13.5093421"><ele>958.0000000000001</ele><time>2026-05-03T07:30:56.897Z</time></trkpt><trkpt lat="42.3656136" lon="13.5094527"><ele>959.0</ele><time>2026-05-03T07:30:57.897Z</time></trkpt><trkpt lat="42.365622" lon="13.5095423"><ele>958.6</ele><time>2026-05-03T07:30:58.897Z</time></trkpt><trkpt lat="42.3656929" lon="13.5096943"><ele>958.2</ele><time>2026-05-03T07:31:00.897Z</time></trkpt><trkpt lat="42.3657582" lon="13.5097559"><ele>957.8000000000001</ele><time>2026-05-03T07:31:01.897Z</time></trkpt><trkpt lat="42.3658432" lon="13.5098212"><ele>957.4000000000001</ele><time>2026-05-03T07:31:02.896Z</time></trkpt><trkpt lat="42.3659328" lon="13.5098779"><ele>957.0</ele><time>2026-05-03T07:31:03.897Z</time></trkpt><trkpt lat="42.366016" lon="13.509906"><ele>957.0</ele><time>2026-05-03T07:31:04.896Z</time></trkpt><trkpt lat="42.3660683" lon="13.5099622"><ele>957.0</ele><time>2026-05-03T07:31:05.897Z</time></trkpt><trkpt lat="42.3660672" lon="13.5101174"><ele>957.0</ele><time>2026-05-03T07:31:07.897Z</time></trkpt><trkpt lat="42.3660349" lon="13.5102036"><ele>957.0</ele><time>2026-05-03T07:31:08.897Z</time></trkpt><trkpt lat="42.3660088" lon="13.5103267"><ele>957.0</ele><time>2026-05-03T07:31:09.897Z</time></trkpt><trkpt lat="42.3659781" lon="13.5104406"><ele>957.0</ele><time>2026-05-03T07:31:10.896Z</time></trkpt><trkpt lat="42.3659243" lon="13.5105375"><ele>956.8</ele><time>2026-05-03T07:31:11.896Z</time></trkpt><trkpt lat="42.3658387" lon="13.5106169"><ele>956.6</ele><time>2026-05-03T07:31:12.897Z</time></trkpt><trkpt lat="42.3657671" lon="13.5106925"><ele>956.3999999999999</ele><time>2026-05-03T07:31:13.897Z</time></trkpt><trkpt lat="42.3657116" lon="13.5107802"><ele>956.1999999999999</ele><time>2026-05-03T07:31:14.896Z</time></trkpt><trkpt lat="42.3656503" lon="13.5109071"><ele>956.0</ele><time>2026-05-03T07:31:15.897Z</time></trkpt><trkpt lat="42.3656051" lon="13.5110288"><ele>956.0</ele><time>2026-05-03T07:31:16.896Z</time></trkpt><trkpt lat="42.3655843" lon="13.5111536"><ele>955.9999999999999</ele><time>2026-05-03T07:31:17.897Z</time></trkpt><trkpt lat="42.3655692" lon="13.5112842"><ele>955.9999999999999</ele><time>2026-05-03T07:31:18.896Z</time></trkpt><trkpt lat="42.3655373" lon="13.5114108"><ele>956.0</ele><time>2026-05-03T07:31:19.896Z</time></trkpt><trkpt lat="42.365488" lon="13.5115565"><ele>956.0</ele><time>2026-05-03T07:31:20.896Z</time></trkpt><trkpt lat="42.3654373" lon="13.511717"><ele>956.1666666666667</ele><time>2026-05-03T07:31:21.896Z</time></trkpt><trkpt lat="42.3654013" lon="13.511844"><ele>956.3333333333334</ele><time>2026-05-03T07:31:22.897Z</time></trkpt><trkpt lat="42.3653817" lon="13.5119585"><ele>956.5</ele><time>2026-05-03T07:31:23.896Z</time></trkpt><trkpt lat="42.3653811" lon="13.5120709"><ele>956.6666666666667</ele><time>2026-05-03T07:31:24.896Z</time></trkpt><trkpt lat="42.3653772" lon="13.5121712"><ele>956.8333333333334</ele><time>2026-05-03T07:31:25.896Z</time></trkpt><trkpt lat="42.3653772" lon="13.5122704"><ele>957.0</ele><time>2026-05-03T07:31:26.897Z</time></trkpt><trkpt lat="42.3653975" lon="13.5123815"><ele>957.0</ele><time>2026-05-03T07:31:27.896Z</time></trkpt><trkpt lat="42.3654376" lon="13.512506"><ele>957.0</ele><time>2026-05-03T07:31:28.897Z</time></trkpt><trkpt lat="42.3654741" lon="13.5126515"><ele>957.0</ele><time>2026-05-03T07:31:29.896Z</time></trkpt><trkpt lat="42.3654968" lon="13.5128042"><ele>957.0</ele><time>2026-05-03T07:31:30.896Z</time></trkpt><trkpt lat="42.3655144" lon="13.5129578"><ele>957.0</ele><time>2026-05-03T07:31:31.896Z</time></trkpt><trkpt lat="42.3655289" lon="13.5130704"><ele>959.6</ele><time>2026-05-03T07:31:32.897Z</time></trkpt><trkpt lat="42.3655213" lon="13.5131909"><ele>962.2</ele><time>2026-05-03T07:31:34.896Z</time></trkpt><trkpt lat="42.3654509" lon="13.5132095"><ele>964.8</ele><time>2026-05-03T07:31:36.897Z</time></trkpt><trkpt lat="42.3653745" lon="13.513133"><ele>967.4</ele><time>2026-05-03T07:31:38.896Z</time></trkpt><trkpt lat="42.3653171" lon="13.5130403"><ele>970.0</ele><time>2026-05-03T07:31:39.897Z</time></trkpt><trkpt lat="42.3652516" lon="13.5129209"><ele>967.4</ele><time>2026-05-03T07:31:40.897Z</time></trkpt><trkpt lat="42.3651838" lon="13.5128114"><ele>964.8</ele><time>2026-05-03T07:31:41.896Z</time></trkpt><trkpt lat="42.3651115" lon="13.5127116"><ele>962.2</ele><time>2026-05-03T07:31:42.896Z</time></trkpt><trkpt lat="42.3650431" lon="13.5126082"><ele>959.6</ele><time>2026-05-03T07:31:43.896Z</time></trkpt><trkpt lat="42.364979" lon="13.5125051"><ele>957.0</ele><time>2026-05-03T07:31:44.896Z</time></trkpt><trkpt lat="42.3649188" lon="13.5123958"><ele>957.0</ele><time>2026-05-03T07:31:45.896Z</time></trkpt><trkpt lat="42.3648484" lon="13.5122866"><ele>957.0</ele><time>2026-05-03T07:31:46.896Z</time></trkpt><trkpt lat="42.3647754" lon="13.5121759"><ele>957.0</ele><time>2026-05-03T07:31:47.897Z</time></trkpt><trkpt lat="42.3646959" lon="13.5120808"><ele>957.0</ele><time>2026-05-03T07:31:48.896Z</time></trkpt><trkpt lat="42.3645991" lon="13.5119925"><ele>957.0</ele><time>2026-05-03T07:31:49.896Z</time></trkpt><trkpt lat="42.3645131" lon="13.5118987"><ele>954.8</ele><time>2026-05-03T07:31:50.897Z</time></trkpt><trkpt lat="42.3644326" lon="13.5117999"><ele>952.6</ele><time>2026-05-03T07:31:51.897Z</time></trkpt><trkpt lat="42.3643539" lon="13.5117152"><ele>950.3999999999999</ele><time>2026-05-03T07:31:52.896Z</time></trkpt><trkpt lat="42.3642839" lon="13.5116346"><ele>948.1999999999999</ele><time>2026-05-03T07:31:53.896Z</time></trkpt><trkpt lat="42.3642193" lon="13.5115605"><ele>946.0</ele><time>2026-05-03T07:31:54.897Z</time></trkpt><trkpt lat="42.3641539" lon="13.5115018"><ele>946.0</ele><time>2026-05-03T07:31:55.896Z</time></trkpt><trkpt lat="42.3640723" lon="13.5114464"><ele>945.9999999999999</ele><time>2026-05-03T07:31:56.897Z</time></trkpt><trkpt lat="42.3639822" lon="13.5113998"><ele>945.9999999999999</ele><time>2026-05-03T07:31:57.897Z</time></trkpt><trkpt lat="42.3638742" lon="13.5113655"><ele>946.0</ele><time>2026-05-03T07:31:58.897Z</time></trkpt><trkpt lat="42.3637734" lon="13.5113352"><ele>946.0</ele><time>2026-05-03T07:31:59.896Z</time></trkpt><trkpt lat="42.3636688" lon="13.511304"><ele>946.1999999999999</ele><time>2026-05-03T07:32:00.897Z</time></trkpt><trkpt lat="42.363566" lon="13.5112715"><ele>946.3999999999999</ele><time>2026-05-03T07:32:01.896Z</time></trkpt><trkpt lat="42.3634689" lon="13.5112486"><ele>946.6</ele><time>2026-05-03T07:32:02.896Z</time></trkpt><trkpt lat="42.3633652" lon="13.5112306"><ele>946.8</ele><time>2026-05-03T07:32:03.897Z</time></trkpt><trkpt lat="42.3632786" lon="13.5112081"><ele>947.0</ele><time>2026-05-03T07:32:04.897Z</time></trkpt><trkpt lat="42.3632089" lon="13.5111603"><ele>945.8</ele><time>2026-05-03T07:32:05.898Z</time></trkpt><trkpt lat="42.3631385" lon="13.5110826"><ele>944.6</ele><time>2026-05-03T07:32:06.896Z</time></trkpt><trkpt lat="42.3630737" lon="13.5110006"><ele>943.3999999999999</ele><time>2026-05-03T07:32:07.896Z</time></trkpt><trkpt lat="42.3629949" lon="13.5109213"><ele>942.1999999999999</ele><time>2026-05-03T07:32:08.896Z</time></trkpt><trkpt lat="42.3629195" lon="13.5108285"><ele>941.0</ele><time>2026-05-03T07:32:09.896Z</time></trkpt><trkpt lat="42.3628383" lon="13.5107068"><ele>939.1999999999999</ele><time>2026-05-03T07:32:10.896Z</time></trkpt><trkpt lat="42.3627526" lon="13.5106099"><ele>937.3999999999999</ele><time>2026-05-03T07:32:11.896Z</time></trkpt><trkpt lat="42.3626764" lon="13.510538"><ele>935.6</ele><time>2026-05-03T07:32:12.896Z</time></trkpt><trkpt lat="42.3625989" lon="13.5105056"><ele>933.8</ele><time>2026-05-03T07:32:13.896Z</time></trkpt><trkpt lat="42.3625118" lon="13.5105035"><ele>932.0</ele><time>2026-05-03T07:32:14.897Z</time></trkpt><trkpt lat="42.3624101" lon="13.5105142"><ele>932.0</ele><time>2026-05-03T07:32:15.896Z</time></trkpt><trkpt lat="42.3623113" lon="13.5105298"><ele>932.0</ele><time>2026-05-03T07:32:16.897Z</time></trkpt><trkpt lat="42.3622062" lon="13.510568"><ele>932.0</ele><time>2026-05-03T07:32:17.896Z</time></trkpt><trkpt lat="42.3621134" lon="13.5106043"><ele>932.0</ele><time>2026-05-03T07:32:18.897Z</time></trkpt><trkpt lat="42.3620293" lon="13.5106108"><ele>932.0</ele><time>2026-05-03T07:32:19.897Z</time></trkpt><trkpt lat="42.3619477" lon="13.5106144"><ele>930.6666666666667</ele><time>2026-05-03T07:32:20.897Z</time></trkpt><trkpt lat="42.3618811" lon="13.5106263"><ele>929.3333333333334</ele><time>2026-05-03T07:32:21.896Z</time></trkpt><trkpt lat="42.3617605" lon="13.5106861"><ele>928.0</ele><time>2026-05-03T07:32:23.897Z</time></trkpt><trkpt lat="42.3616899" lon="13.5107177"><ele>926.6666666666667</ele><time>2026-05-03T07:32:24.896Z</time></trkpt><trkpt lat="42.36161" lon="13.5107217"><ele>925.3333333333334</ele><time>2026-05-03T07:32:25.896Z</time></trkpt><trkpt lat="42.3615231" lon="13.5107183"><ele>924.0</ele><time>2026-05-03T07:32:26.897Z</time></trkpt><trkpt lat="42.3614335" lon="13.5107163"><ele>923.0</ele><time>2026-05-03T07:32:27.896Z</time></trkpt><trkpt lat="42.3613454" lon="13.5107074"><ele>922.0000000000001</ele><time>2026-05-03T07:32:28.896Z</time></trkpt><trkpt lat="42.3612565" lon="13.510663"><ele>921.0000000000001</ele><time>2026-05-03T07:32:29.896Z</time></trkpt><trkpt lat="42.3611594" lon="13.5106163"><ele>920.0</ele><time>2026-05-03T07:32:30.896Z</time></trkpt><trkpt lat="42.3610506" lon="13.5105892"><ele>919.0</ele><time>2026-05-03T07:32:31.896Z</time></trkpt><trkpt lat="42.3609377" lon="13.5105596"><ele>919.0</ele><time>2026-05-03T07:32:32.896Z</time></trkpt><trkpt lat="42.3608402" lon="13.510519"><ele>919.0000000000001</ele><time>2026-05-03T07:32:33.896Z</time></trkpt><trkpt lat="42.3607516" lon="13.5104699"><ele>919.0000000000001</ele><time>2026-05-03T07:32:34.896Z</time></trkpt><trkpt lat="42.3606755" lon="13.5104047"><ele>919.0</ele><time>2026-05-03T07:32:35.896Z</time></trkpt><trkpt lat="42.3606037" lon="13.5103259"><ele>919.0</ele><time>2026-05-03T07:32:36.896Z</time></trkpt><trkpt lat="42.3605356" lon="13.5102658"><ele>916.8333333333333</ele><time>2026-05-03T07:32:37.896Z</time></trkpt><trkpt lat="42.3604664" lon="13.5102197"><ele>914.6666666666666</ele><time>2026-05-03T07:32:38.896Z</time></trkpt><trkpt lat="42.3604033" lon="13.5101606"><ele>912.5</ele><time>2026-05-03T07:32:39.896Z</time></trkpt><trkpt lat="42.3603371" lon="13.5100888"><ele>910.3333333333333</ele><time>2026-05-03T07:32:40.896Z</time></trkpt><trkpt lat="42.3602785" lon="13.5100205"><ele>908.1666666666666</ele><time>2026-05-03T07:32:41.897Z</time></trkpt><trkpt lat="42.3602131" lon="13.5099415"><ele>906.0</ele><time>2026-05-03T07:32:42.896Z</time></trkpt><trkpt lat="42.3601532" lon="13.5098685"><ele>906.0</ele><time>2026-05-03T07:32:43.896Z</time></trkpt><trkpt lat="42.360089" lon="13.5097969"><ele>906.0</ele><time>2026-05-03T07:32:44.897Z</time></trkpt><trkpt lat="42.3600329" lon="13.5097315"><ele>906.0</ele><time>2026-05-03T07:32:45.896Z</time></trkpt><trkpt lat="42.3599818" lon="13.5096512"><ele>906.0</ele><time>2026-05-03T07:32:46.896Z</time></trkpt><trkpt lat="42.3599497" lon="13.5095492"><ele>906.0</ele><time>2026-05-03T07:32:47.896Z</time></trkpt><trkpt lat="42.359921" lon="13.509427"><ele>906.0</ele><time>2026-05-03T07:32:48.897Z</time></trkpt><trkpt lat="42.3598833" lon="13.5092753"><ele>906.0</ele><time>2026-05-03T07:32:49.896Z</time></trkpt><trkpt lat="42.3598392" lon="13.509131"><ele>906.0</ele><time>2026-05-03T07:32:50.896Z</time></trkpt><trkpt lat="42.3598096" lon="13.5089682"><ele>906.0</ele><time>2026-05-03T07:32:51.896Z</time></trkpt><trkpt lat="42.3597744" lon="13.5087832"><ele>906.0</ele><time>2026-05-03T07:32:52.897Z</time></trkpt><trkpt lat="42.359737" lon="13.5086112"><ele>906.0</ele><time>2026-05-03T07:32:53.897Z</time></trkpt><trkpt lat="42.3597081" lon="13.5084405"><ele>906.0</ele><time>2026-05-03T07:32:54.897Z</time></trkpt><trkpt lat="42.3596812" lon="13.5082825"><ele>906.0</ele><time>2026-05-03T07:32:55.896Z</time></trkpt><trkpt lat="42.3596576" lon="13.5081181"><ele>906.0</ele><time>2026-05-03T07:32:56.896Z</time></trkpt><trkpt lat="42.3596238" lon="13.5079429"><ele>902.1999999999999</ele><time>2026-05-03T07:32:57.896Z</time></trkpt><trkpt lat="42.3595961" lon="13.5077838"><ele>898.3999999999999</ele><time>2026-05-03T07:32:58.897Z</time></trkpt><trkpt lat="42.3595754" lon="13.5076515"><ele>894.6</ele><time>2026-05-03T07:32:59.896Z</time></trkpt><trkpt lat="42.3595789" lon="13.5075182"><ele>890.8</ele><time>2026-05-03T07:33:00.897Z</time></trkpt><trkpt lat="42.3595802" lon="13.5073843"><ele>887.0</ele><time>2026-05-03T07:33:01.897Z</time></trkpt><trkpt lat="42.359552" lon="13.5072522"><ele>887.0</ele><time>2026-05-03T07:33:02.896Z</time></trkpt><trkpt lat="42.3595161" lon="13.5071496"><ele>887.0</ele><time>2026-05-03T07:33:03.896Z</time></trkpt><trkpt lat="42.3595" lon="13.5070656"><ele>887.0</ele><time>2026-05-03T07:33:04.896Z</time></trkpt><trkpt lat="42.3595172" lon="13.5068851"><ele>887.0</ele><time>2026-05-03T07:33:06.897Z</time></trkpt><trkpt lat="42.3595084" lon="13.5067527"><ele>887.0</ele><time>2026-05-03T07:33:07.897Z</time></trkpt><trkpt lat="42.3594763" lon="13.5066268"><ele>886.0000000000001</ele><time>2026-05-03T07:33:08.896Z</time></trkpt><trkpt lat="42.3594476" lon="13.5065159"><ele>885.0</ele><time>2026-05-03T07:33:09.896Z</time></trkpt><trkpt lat="42.3594243" lon="13.5064132"><ele>884.0</ele><time>2026-05-03T07:33:10.897Z</time></trkpt><trkpt lat="42.3593959" lon="13.5062767"><ele>883.0</ele><time>2026-05-03T07:33:12.896Z</time></trkpt><trkpt lat="42.3593255" lon="13.5062082"><ele>882.0000000000001</ele><time>2026-05-03T07:33:16.897Z</time></trkpt><trkpt lat="42.3593627" lon="13.5061289"><ele>881.0</ele><time>2026-05-03T07:35:15.897Z</time></trkpt><trkpt lat="42.3593987" lon="13.5062081"><ele>881.0000000000001</ele><time>2026-05-03T07:35:19.896Z</time></trkpt><trkpt lat="42.3593472" lon="13.5062575"><ele>881.0</ele><time>2026-05-03T07:35:37.896Z</time></trkpt><trkpt lat="42.3592464" lon="13.5063125"><ele>881.0</ele><time>2026-05-03T07:35:39.896Z</time></trkpt><trkpt lat="42.3591706" lon="13.5063259"><ele>881.0</ele><time>2026-05-03T07:35:40.897Z</time></trkpt><trkpt lat="42.3590853" lon="13.5063059"><ele>881.0000000000001</ele><time>2026-05-03T07:35:41.897Z</time></trkpt><trkpt lat="42.3589964" lon="13.5062564"><ele>881.0</ele><time>2026-05-03T07:35:42.897Z</time></trkpt><trkpt lat="42.3589165" lon="13.5061771"><ele>883.0</ele><time>2026-05-03T07:35:43.896Z</time></trkpt><trkpt lat="42.3588462" lon="13.5060782"><ele>884.9999999999999</ele><time>2026-05-03T07:35:44.897Z</time></trkpt><trkpt lat="42.3587784" lon="13.5059631"><ele>886.9999999999999</ele><time>2026-05-03T07:35:45.896Z</time></trkpt><trkpt lat="42.3587083" lon="13.5058358"><ele>889.0</ele><time>2026-05-03T07:35:46.896Z</time></trkpt><trkpt lat="42.3586368" lon="13.5057038"><ele>891.0</ele><time>2026-05-03T07:35:47.896Z</time></trkpt><trkpt lat="42.3585681" lon="13.5055765"><ele>891.0</ele><time>2026-05-03T07:35:48.897Z</time></trkpt><trkpt lat="42.3585015" lon="13.5054472"><ele>891.0</ele><time>2026-05-03T07:35:49.896Z</time></trkpt><trkpt lat="42.3584336" lon="13.5053222"><ele>891.0</ele><time>2026-05-03T07:35:50.896Z</time></trkpt><trkpt lat="42.3583593" lon="13.5051991"><ele>891.0</ele><time>2026-05-03T07:35:51.896Z</time></trkpt><trkpt lat="42.3582753" lon="13.5050803"><ele>893.0</ele><time>2026-05-03T07:35:52.896Z</time></trkpt><trkpt lat="42.3581835" lon="13.5049678"><ele>895.0</ele><time>2026-05-03T07:35:53.896Z</time></trkpt><trkpt lat="42.3580823" lon="13.5048684"><ele>897.0</ele><time>2026-05-03T07:35:54.897Z</time></trkpt><trkpt lat="42.3579768" lon="13.5047805"><ele>899.0</ele><time>2026-05-03T07:35:55.896Z</time></trkpt><trkpt lat="42.3578699" lon="13.5047003"><ele>899.0</ele><time>2026-05-03T07:35:56.896Z</time></trkpt><trkpt lat="42.3577652" lon="13.5046287"><ele>899.0</ele><time>2026-05-03T07:35:57.896Z</time></trkpt><trkpt lat="42.3576592" lon="13.5045617"><ele>899.0</ele><time>2026-05-03T07:35:58.897Z</time></trkpt><trkpt lat="42.3575485" lon="13.5045099"><ele>899.0</ele><time>2026-05-03T07:35:59.897Z</time></trkpt><trkpt lat="42.3574275" lon="13.5044759"><ele>894.25</ele><time>2026-05-03T07:36:00.896Z</time></trkpt><trkpt lat="42.3573011" lon="13.5044615"><ele>889.5</ele><time>2026-05-03T07:36:01.896Z</time></trkpt><trkpt lat="42.3571711" lon="13.5044706"><ele>884.75</ele><time>2026-05-03T07:36:02.897Z</time></trkpt><trkpt lat="42.3570423" lon="13.5045045"><ele>880.0</ele><time>2026-05-03T07:36:03.896Z</time></trkpt><trkpt lat="42.3569207" lon="13.5045514"><ele>883.6</ele><time>2026-05-03T07:36:04.897Z</time></trkpt><trkpt lat="42.3568102" lon="13.5046119"><ele>887.2</ele><time>2026-05-03T07:36:05.897Z</time></trkpt><trkpt lat="42.3567177" lon="13.5046994"><ele>890.8</ele><time>2026-05-03T07:36:06.896Z</time></trkpt><trkpt lat="42.3566468" lon="13.5047982"><ele>894.4</ele><time>2026-05-03T07:36:07.896Z</time></trkpt><trkpt lat="42.3565951" lon="13.5048992"><ele>898.0</ele><time>2026-05-03T07:36:08.896Z</time></trkpt><trkpt lat="42.3565534" lon="13.5050021"><ele>897.9999999999999</ele><time>2026-05-03T07:36:09.897Z</time></trkpt><trkpt lat="42.3565206" lon="13.5050879"><ele>898.0</ele><time>2026-05-03T07:36:10.897Z</time></trkpt><trkpt lat="42.3564881" lon="13.5051828"><ele>898.0</ele><time>2026-05-03T07:36:12.897Z</time></trkpt><trkpt lat="42.3564478" lon="13.5052994"><ele>898.0</ele><time>2026-05-03T07:39:52.896Z</time></trkpt><trkpt lat="42.3564114" lon="13.5053927"><ele>897.9999999999999</ele><time>2026-05-03T07:39:55.897Z</time></trkpt><trkpt lat="42.3564467" lon="13.5055146"><ele>898.0</ele><time>2026-05-03T07:40:47.896Z</time></trkpt><trkpt lat="42.3565277" lon="13.5056521"><ele>899.9999999999999</ele><time>2026-05-03T07:40:49.896Z</time></trkpt><trkpt lat="42.3565815" lon="13.5057167"><ele>902.0</ele><time>2026-05-03T07:40:50.896Z</time></trkpt><trkpt lat="42.3566379" lon="13.5057781"><ele>904.0</ele><time>2026-05-03T07:40:51.897Z</time></trkpt><trkpt lat="42.3566953" lon="13.505841"><ele>906.0</ele><time>2026-05-03T07:40:52.896Z</time></trkpt><trkpt lat="42.356754" lon="13.5058956"><ele>907.9999999999999</ele><time>2026-05-03T07:40:53.896Z</time></trkpt><trkpt lat="42.3568205" lon="13.5059464"><ele>910.0</ele><time>2026-05-03T07:40:54.897Z</time></trkpt><trkpt lat="42.356886" lon="13.5060229"><ele>909.9999999999999</ele><time>2026-05-03T07:40:55.897Z</time></trkpt><trkpt lat="42.356944" lon="13.5061217"><ele>910.0</ele><time>2026-05-03T07:40:56.896Z</time></trkpt><trkpt lat="42.356985" lon="13.5062276"><ele>910.0</ele><time>2026-05-03T07:40:57.897Z</time></trkpt><trkpt lat="42.356997" lon="13.5063369"><ele>910.0</ele><time>2026-05-03T07:40:58.897Z</time></trkpt><trkpt lat="42.357007" lon="13.506457"><ele>909.9999999999999</ele><time>2026-05-03T07:40:59.896Z</time></trkpt><trkpt lat="42.3570036" lon="13.5065712"><ele>910.0</ele><time>2026-05-03T07:41:00.896Z</time></trkpt><trkpt lat="42.3570106" lon="13.5067062"><ele>911.6666666666666</ele><time>2026-05-03T07:41:02.897Z</time></trkpt><trkpt lat="42.3570633" lon="13.5067755"><ele>913.3333333333333</ele><time>2026-05-03T07:41:04.896Z</time></trkpt><trkpt lat="42.3571607" lon="13.5067696"><ele>915.0</ele><time>2026-05-03T07:41:06.897Z</time></trkpt><trkpt lat="42.3572253" lon="13.5067128"><ele>916.6666666666667</ele><time>2026-05-03T07:41:07.897Z</time></trkpt><trkpt lat="42.3572817" lon="13.5066724"><ele>918.3333333333334</ele><time>2026-05-03T07:41:08.897Z</time></trkpt><trkpt lat="42.3573749" lon="13.5066266"><ele>920.0</ele><time>2026-05-03T07:41:10.897Z</time></trkpt><trkpt lat="42.3574494" lon="13.5066481"><ele>921.0</ele><time>2026-05-03T07:41:12.896Z</time></trkpt><trkpt lat="42.3575012" lon="13.506757"><ele>922.0</ele><time>2026-05-03T07:41:14.897Z</time></trkpt><trkpt lat="42.3575234" lon="13.5068578"><ele>923.0</ele><time>2026-05-03T07:41:15.897Z</time></trkpt><trkpt lat="42.3575363" lon="13.5069738"><ele>924.0</ele><time>2026-05-03T07:41:16.896Z</time></trkpt><trkpt lat="42.357544" lon="13.5071051"><ele>925.0</ele><time>2026-05-03T07:41:17.897Z</time></trkpt><trkpt lat="42.3575553" lon="13.5072542"><ele>926.0</ele><time>2026-05-03T07:41:18.896Z</time></trkpt><trkpt lat="42.357561" lon="13.5074019"><ele>927.0</ele><time>2026-05-03T07:41:19.896Z</time></trkpt><trkpt lat="42.3575476" lon="13.5075424"><ele>928.0</ele><time>2026-05-03T07:41:20.896Z</time></trkpt><trkpt lat="42.3575279" lon="13.5076721"><ele>929.0</ele><time>2026-05-03T07:41:21.896Z</time></trkpt><trkpt lat="42.3575231" lon="13.5078052"><ele>930.0</ele><time>2026-05-03T07:41:22.896Z</time></trkpt><trkpt lat="42.3575296" lon="13.5079326"><ele>931.6</ele><time>2026-05-03T07:41:23.897Z</time></trkpt><trkpt lat="42.3575479" lon="13.5080699"><ele>933.2</ele><time>2026-05-03T07:41:24.897Z</time></trkpt><trkpt lat="42.3575624" lon="13.5081925"><ele>934.8</ele><time>2026-05-03T07:41:25.896Z</time></trkpt><trkpt lat="42.3575597" lon="13.5083197"><ele>936.4</ele><time>2026-05-03T07:41:26.897Z</time></trkpt><trkpt lat="42.3575482" lon="13.5084423"><ele>938.0</ele><time>2026-05-03T07:41:27.896Z</time></trkpt><trkpt lat="42.3575325" lon="13.5085498"><ele>938.0000000000001</ele><time>2026-05-03T07:41:28.896Z</time></trkpt><trkpt lat="42.3575155" lon="13.5086583"><ele>938.0</ele><time>2026-05-03T07:41:29.897Z</time></trkpt><trkpt lat="42.3575045" lon="13.5087778"><ele>938.0</ele><time>2026-05-03T07:41:30.897Z</time></trkpt><trkpt lat="42.3574879" lon="13.5088657"><ele>938.0</ele><time>2026-05-03T07:41:31.897Z</time></trkpt><trkpt lat="42.3574907" lon="13.508967"><ele>938.0000000000001</ele><time>2026-05-03T07:41:33.896Z</time></trkpt><trkpt lat="42.3575811" lon="13.5090963"><ele>938.0</ele><time>2026-05-03T07:41:35.896Z</time></trkpt><trkpt lat="42.3576375" lon="13.5091728"><ele>941.0</ele><time>2026-05-03T07:41:36.896Z</time></trkpt><trkpt lat="42.357703" lon="13.5092679"><ele>944.0</ele><time>2026-05-03T07:41:37.896Z</time></trkpt><trkpt lat="42.357763" lon="13.5093758"><ele>947.0</ele><time>2026-05-03T07:41:38.897Z</time></trkpt><trkpt lat="42.3578224" lon="13.5094967"><ele>950.0</ele><time>2026-05-03T07:41:39.896Z</time></trkpt><trkpt lat="42.3578729" lon="13.5096313"><ele>953.0</ele><time>2026-05-03T07:41:40.897Z</time></trkpt><trkpt lat="42.3579161" lon="13.5097735"><ele>955.2</ele><time>2026-05-03T07:41:41.896Z</time></trkpt><trkpt lat="42.3579525" lon="13.5099246"><ele>957.4</ele><time>2026-05-03T07:41:42.896Z</time></trkpt><trkpt lat="42.3579697" lon="13.510079"><ele>959.6000000000001</ele><time>2026-05-03T07:41:43.897Z</time></trkpt><trkpt lat="42.3579701" lon="13.5102261"><ele>961.8000000000001</ele><time>2026-05-03T07:41:44.896Z</time></trkpt><trkpt lat="42.3579578" lon="13.5103527"><ele>964.0</ele><time>2026-05-03T07:41:45.897Z</time></trkpt><trkpt lat="42.3579255" lon="13.5104511"><ele>964.3333333333333</ele><time>2026-05-03T07:41:46.896Z</time></trkpt><trkpt lat="42.3578729" lon="13.5105244"><ele>964.6666666666666</ele><time>2026-05-03T07:41:47.896Z</time></trkpt><trkpt lat="42.35779" lon="13.5105501"><ele>965.0</ele><time>2026-05-03T07:41:48.896Z</time></trkpt><trkpt lat="42.3577135" lon="13.5105547"><ele>965.3333333333333</ele><time>2026-05-03T07:41:49.897Z</time></trkpt><trkpt lat="42.357642" lon="13.5105649"><ele>965.6666666666666</ele><time>2026-05-03T07:41:50.896Z</time></trkpt><trkpt lat="42.3575656" lon="13.5105903"><ele>966.0</ele><time>2026-05-03T07:41:52.896Z</time></trkpt><trkpt lat="42.3575725" lon="13.5107352"><ele>966.0</ele><time>2026-05-03T07:41:55.896Z</time></trkpt><trkpt lat="42.3576229" lon="13.5108175"><ele>965.9999999999999</ele><time>2026-05-03T07:41:56.897Z</time></trkpt><trkpt lat="42.3576672" lon="13.5109146"><ele>965.9999999999999</ele><time>2026-05-03T07:41:57.897Z</time></trkpt><trkpt lat="42.3577151" lon="13.5110274"><ele>966.0</ele><time>2026-05-03T07:41:58.896Z</time></trkpt><trkpt lat="42.3577606" lon="13.5111574"><ele>966.0</ele><time>2026-05-03T07:41:59.897Z</time></trkpt><trkpt lat="42.3578075" lon="13.5113078"><ele>966.0</ele><time>2026-05-03T07:42:00.896Z</time></trkpt><trkpt lat="42.357848" lon="13.5114564"><ele>966.0</ele><time>2026-05-03T07:42:01.896Z</time></trkpt><trkpt lat="42.3579165" lon="13.5116341"><ele>966.0</ele><time>2026-05-03T07:42:02.897Z</time></trkpt><trkpt lat="42.3579871" lon="13.5118406"><ele>966.0</ele><time>2026-05-03T07:42:03.896Z</time></trkpt><trkpt lat="42.3580728" lon="13.5120711"><ele>967.0</ele><time>2026-05-03T07:42:04.896Z</time></trkpt><trkpt lat="42.3581572" lon="13.5122962"><ele>968.0</ele><time>2026-05-03T07:42:05.897Z</time></trkpt><trkpt lat="42.3582407" lon="13.5125175"><ele>969.0</ele><time>2026-05-03T07:42:06.896Z</time></trkpt><trkpt lat="42.3583176" lon="13.512722"><ele>969.5</ele><time>2026-05-03T07:42:07.896Z</time></trkpt><trkpt lat="42.3583886" lon="13.5129072"><ele>970.0</ele><time>2026-05-03T07:42:08.897Z</time></trkpt><trkpt lat="42.3584564" lon="13.5130785"><ele>970.5</ele><time>2026-05-03T07:42:09.897Z</time></trkpt><trkpt lat="42.3585163" lon="13.5132324"><ele>971.0</ele><time>2026-05-03T07:42:10.896Z</time></trkpt><trkpt lat="42.3585689" lon="13.513367"><ele>971.0000000000001</ele><time>2026-05-03T07:42:11.896Z</time></trkpt><trkpt lat="42.3586162" lon="13.5134922"><ele>971.0</ele><time>2026-05-03T07:42:12.896Z</time></trkpt><trkpt lat="42.3586545" lon="13.5136096"><ele>971.0</ele><time>2026-05-03T07:42:13.897Z</time></trkpt><trkpt lat="42.3586584" lon="13.51371"><ele>971.0</ele><time>2026-05-03T07:42:14.897Z</time></trkpt><trkpt lat="42.3586628" lon="13.5138057"><ele>971.0000000000001</ele><time>2026-05-03T07:42:15.896Z</time></trkpt><trkpt lat="42.358685" lon="13.5138949"><ele>971.0</ele><time>2026-05-03T07:42:16.897Z</time></trkpt><trkpt lat="42.3587145" lon="13.5139891"><ele>971.1999999999999</ele><time>2026-05-03T07:42:17.896Z</time></trkpt><trkpt lat="42.3587598" lon="13.5140843"><ele>971.3999999999999</ele><time>2026-05-03T07:42:18.896Z</time></trkpt><trkpt lat="42.3588156" lon="13.5142056"><ele>971.6</ele><time>2026-05-03T07:42:19.897Z</time></trkpt><trkpt lat="42.3588752" lon="13.5143492"><ele>971.8</ele><time>2026-05-03T07:42:20.897Z</time></trkpt><trkpt lat="42.358944" lon="13.5145102"><ele>972.0</ele><time>2026-05-03T07:42:21.897Z</time></trkpt><trkpt lat="42.3590264" lon="13.5146838"><ele>975.25</ele><time>2026-05-03T07:42:22.896Z</time></trkpt><trkpt lat="42.3590965" lon="13.5148422"><ele>978.5</ele><time>2026-05-03T07:42:23.895Z</time></trkpt><trkpt lat="42.3591558" lon="13.5149866"><ele>981.75</ele><time>2026-05-03T07:42:24.895Z</time></trkpt><trkpt lat="42.3592053" lon="13.5151377"><ele>985.0</ele><time>2026-05-03T07:42:25.896Z</time></trkpt><trkpt lat="42.3592349" lon="13.5152911"><ele>986.0</ele><time>2026-05-03T07:42:26.896Z</time></trkpt><trkpt lat="42.3592338" lon="13.5154249"><ele>987.0</ele><time>2026-05-03T07:42:27.895Z</time></trkpt><trkpt lat="42.3592138" lon="13.5155393"><ele>988.0</ele><time>2026-05-03T07:42:28.895Z</time></trkpt><trkpt lat="42.359181" lon="13.5156551"><ele>989.0</ele><time>2026-05-03T07:42:29.895Z</time></trkpt><trkpt lat="42.3591399" lon="13.5157799"><ele>990.0</ele><time>2026-05-03T07:42:30.895Z</time></trkpt><trkpt lat="42.3591003" lon="13.515901"><ele>990.0</ele><time>2026-05-03T07:42:31.896Z</time></trkpt><trkpt lat="42.3590703" lon="13.5160202"><ele>990.0</ele><time>2026-05-03T07:42:32.895Z</time></trkpt><trkpt lat="42.359047" lon="13.5161444"><ele>990.0</ele><time>2026-05-03T07:42:33.896Z</time></trkpt><trkpt lat="42.3590489" lon="13.5162566"><ele>990.0</ele><time>2026-05-03T07:42:34.895Z</time></trkpt><trkpt lat="42.3590565" lon="13.5163743"><ele>990.0</ele><time>2026-05-03T07:42:35.896Z</time></trkpt><trkpt lat="42.3590514" lon="13.5164848"><ele>990.0</ele><time>2026-05-03T07:42:36.895Z</time></trkpt><trkpt lat="42.3590494" lon="13.5166037"><ele>991.8</ele><time>2026-05-03T07:42:37.896Z</time></trkpt><trkpt lat="42.3590021" lon="13.5167147"><ele>993.6</ele><time>2026-05-03T07:42:38.895Z</time></trkpt><trkpt lat="42.35896" lon="13.5168312"><ele>995.4000000000001</ele><time>2026-05-03T07:42:39.895Z</time></trkpt><trkpt lat="42.3589044" lon="13.5169529"><ele>997.2</ele><time>2026-05-03T07:42:40.896Z</time></trkpt><trkpt lat="42.35885" lon="13.5170776"><ele>999.0</ele><time>2026-05-03T07:42:41.896Z</time></trkpt><trkpt lat="42.3588064" lon="13.5171806"><ele>999.0</ele><time>2026-05-03T07:42:42.895Z</time></trkpt><trkpt lat="42.3587681" lon="13.5172592"><ele>999.0000000000001</ele><time>2026-05-03T07:42:43.896Z</time></trkpt><trkpt lat="42.3587151" lon="13.5173585"><ele>999.0000000000001</ele><time>2026-05-03T07:42:45.896Z</time></trkpt><trkpt lat="42.3586509" lon="13.5174826"><ele>999.0</ele><time>2026-05-03T07:42:47.896Z</time></trkpt><trkpt lat="42.358589" lon="13.517601"><ele>999.0</ele><time>2026-05-03T07:42:49.896Z</time></trkpt><trkpt lat="42.3585792" lon="13.5177027"><ele>999.0</ele><time>2026-05-03T07:42:51.896Z</time></trkpt><trkpt lat="42.3586425" lon="13.5177654"><ele>999.0000000000001</ele><time>2026-05-03T07:42:53.895Z</time></trkpt><trkpt lat="42.3587184" lon="13.5177302"><ele>999.0000000000001</ele><time>2026-05-03T07:42:55.896Z</time></trkpt><trkpt lat="42.3588034" lon="13.5175823"><ele>999.0</ele><time>2026-05-03T07:42:57.895Z</time></trkpt><trkpt lat="42.3588545" lon="13.5174879"><ele>999.0</ele><time>2026-05-03T07:42:58.895Z</time></trkpt><trkpt lat="42.3589106" lon="13.5173948"><ele>1000.2</ele><time>2026-05-03T07:42:59.896Z</time></trkpt><trkpt lat="42.3589832" lon="13.517296"><ele>1001.4000000000001</ele><time>2026-05-03T07:43:00.896Z</time></trkpt><trkpt lat="42.3590524" lon="13.5172064"><ele>1002.6</ele><time>2026-05-03T07:43:01.896Z</time></trkpt><trkpt lat="42.359117" lon="13.5171089"><ele>1003.8</ele><time>2026-05-03T07:43:02.895Z</time></trkpt><trkpt lat="42.35918" lon="13.5170142"><ele>1005.0</ele><time>2026-05-03T07:43:03.896Z</time></trkpt><trkpt lat="42.3592359" lon="13.5169271"><ele>1005.0</ele><time>2026-05-03T07:43:04.895Z</time></trkpt><trkpt lat="42.3592895" lon="13.5168477"><ele>1005.0</ele><time>2026-05-03T07:43:05.895Z</time></trkpt><trkpt lat="42.3593451" lon="13.5167802"><ele>1005.0</ele><time>2026-05-03T07:43:06.895Z</time></trkpt><trkpt lat="42.3594042" lon="13.5167198"><ele>1005.0</ele><time>2026-05-03T07:43:07.895Z</time></trkpt><trkpt lat="42.3594682" lon="13.5166721"><ele>1005.0</ele><time>2026-05-03T07:43:08.895Z</time></trkpt><trkpt lat="42.3595366" lon="13.5166323"><ele>1005.0</ele><time>2026-05-03T07:43:09.896Z</time></trkpt><trkpt lat="42.3596083" lon="13.5165987"><ele>1005.0</ele><time>2026-05-03T07:43:10.895Z</time></trkpt><trkpt lat="42.3596827" lon="13.5165698"><ele>1005.0</ele><time>2026-05-03T07:43:11.895Z</time></trkpt><trkpt lat="42.3597627" lon="13.5165455"><ele>1005.0</ele><time>2026-05-03T07:43:12.896Z</time></trkpt><trkpt lat="42.3598411" lon="13.5165264"><ele>1005.0</ele><time>2026-05-03T07:43:13.895Z</time></trkpt><trkpt lat="42.359916" lon="13.5165128"><ele>1005.0</ele><time>2026-05-03T07:43:14.895Z</time></trkpt><trkpt lat="42.3599917" lon="13.516497"><ele>1005.0</ele><time>2026-05-03T07:43:15.895Z</time></trkpt><trkpt lat="42.3600653" lon="13.5164831"><ele>1007.8333333333334</ele><time>2026-05-03T07:43:16.895Z</time></trkpt><trkpt lat="42.3601427" lon="13.5164697"><ele>1010.6666666666667</ele><time>2026-05-03T07:43:17.895Z</time></trkpt><trkpt lat="42.3602207" lon="13.5164552"><ele>1013.5</ele><time>2026-05-03T07:43:18.896Z</time></trkpt><trkpt lat="42.3602944" lon="13.5164401"><ele>1016.3333333333334</ele><time>2026-05-03T07:43:19.895Z</time></trkpt><trkpt lat="42.3603711" lon="13.5164337"><ele>1019.1666666666667</ele><time>2026-05-03T07:43:20.896Z</time></trkpt><trkpt lat="42.3604464" lon="13.5164368"><ele>1022.0</ele><time>2026-05-03T07:43:21.896Z</time></trkpt><trkpt lat="42.360523" lon="13.5164496"><ele>1023.5000000000001</ele><time>2026-05-03T07:43:22.896Z</time></trkpt><trkpt lat="42.3606046" lon="13.5164677"><ele>1025.0</ele><time>2026-05-03T07:43:23.896Z</time></trkpt><trkpt lat="42.3606833" lon="13.5164951"><ele>1026.5</ele><time>2026-05-03T07:43:24.895Z</time></trkpt><trkpt lat="42.3607587" lon="13.5165371"><ele>1028.0</ele><time>2026-05-03T07:43:25.896Z</time></trkpt><trkpt lat="42.3608405" lon="13.5165655"><ele>1029.5</ele><time>2026-05-03T07:43:26.897Z</time></trkpt><trkpt lat="42.3609241" lon="13.5165802"><ele>1031.0</ele><time>2026-05-03T07:43:27.895Z</time></trkpt><trkpt lat="42.3610061" lon="13.5165904"><ele>1031.0</ele><time>2026-05-03T07:43:28.895Z</time></trkpt><trkpt lat="42.3610908" lon="13.5165941"><ele>1031.0</ele><time>2026-05-03T07:43:29.895Z</time></trkpt><trkpt lat="42.3611723" lon="13.5165888"><ele>1031.0</ele><time>2026-05-03T07:43:30.895Z</time></trkpt><trkpt lat="42.3612553" lon="13.5165865"><ele>1031.0</ele><time>2026-05-03T07:43:31.895Z</time></trkpt><trkpt lat="42.3613385" lon="13.5165742"><ele>1031.0</ele><time>2026-05-03T07:43:32.895Z</time></trkpt><trkpt lat="42.3614203" lon="13.516564"><ele>1031.0</ele><time>2026-05-03T07:43:33.895Z</time></trkpt><trkpt lat="42.3615087" lon="13.5165619"><ele>1032.0</ele><time>2026-05-03T07:43:34.896Z</time></trkpt><trkpt lat="42.3615995" lon="13.5165606"><ele>1033.0</ele><time>2026-05-03T07:43:35.895Z</time></trkpt><trkpt lat="42.3616935" lon="13.5165601"><ele>1034.0</ele><time>2026-05-03T07:43:36.895Z</time></trkpt><trkpt lat="42.3617801" lon="13.5165602"><ele>1035.0</ele><time>2026-05-03T07:43:37.896Z</time></trkpt><trkpt lat="42.3618646" lon="13.5165673"><ele>1036.0</ele><time>2026-05-03T07:43:38.896Z</time></trkpt><trkpt lat="42.3619491" lon="13.5165677"><ele>1037.0</ele><time>2026-05-03T07:43:39.896Z</time></trkpt><trkpt lat="42.3620359" lon="13.5165643"><ele>1037.0</ele><time>2026-05-03T07:43:40.895Z</time></trkpt><trkpt lat="42.3621222" lon="13.5165571"><ele>1037.0</ele><time>2026-05-03T07:43:41.895Z</time></trkpt><trkpt lat="42.3622125" lon="13.5165549"><ele>1037.0</ele><time>2026-05-03T07:43:42.896Z</time></trkpt><trkpt lat="42.3623049" lon="13.5165614"><ele>1037.0</ele><time>2026-05-03T07:43:43.895Z</time></trkpt><trkpt lat="42.3623984" lon="13.5165673"><ele>1037.0</ele><time>2026-05-03T07:43:44.896Z</time></trkpt><trkpt lat="42.3624858" lon="13.516582"><ele>1037.8333333333335</ele><time>2026-05-03T07:43:45.895Z</time></trkpt><trkpt lat="42.3625698" lon="13.5165992"><ele>1038.6666666666667</ele><time>2026-05-03T07:43:46.896Z</time></trkpt><trkpt lat="42.3626555" lon="13.5166142"><ele>1039.5</ele><time>2026-05-03T07:43:47.896Z</time></trkpt><trkpt lat="42.3627414" lon="13.5166265"><ele>1040.3333333333333</ele><time>2026-05-03T07:43:48.896Z</time></trkpt><trkpt lat="42.3628253" lon="13.5166533"><ele>1041.1666666666665</ele><time>2026-05-03T07:43:49.895Z</time></trkpt><trkpt lat="42.3629049" lon="13.5166805"><ele>1042.0</ele><time>2026-05-03T07:43:50.895Z</time></trkpt><trkpt lat="42.3629787" lon="13.5167127"><ele>1042.0</ele><time>2026-05-03T07:43:51.896Z</time></trkpt><trkpt lat="42.3630487" lon="13.5167532"><ele>1042.0</ele><time>2026-05-03T07:43:52.895Z</time></trkpt><trkpt lat="42.3631191" lon="13.5168042"><ele>1042.0</ele><time>2026-05-03T07:43:53.896Z</time></trkpt><trkpt lat="42.3631893" lon="13.5168644"><ele>1042.0</ele><time>2026-05-03T07:43:54.896Z</time></trkpt><trkpt lat="42.3632613" lon="13.5169232"><ele>1042.0</ele><time>2026-05-03T07:43:55.895Z</time></trkpt><trkpt lat="42.363333" lon="13.5169833"><ele>1042.0</ele><time>2026-05-03T07:43:56.896Z</time></trkpt><trkpt lat="42.3634135" lon="13.5170376"><ele>1044.3333333333333</ele><time>2026-05-03T07:43:57.896Z</time></trkpt><trkpt lat="42.3634945" lon="13.5170876"><ele>1046.6666666666665</ele><time>2026-05-03T07:43:58.895Z</time></trkpt><trkpt lat="42.3635729" lon="13.5171382"><ele>1049.0</ele><time>2026-05-03T07:43:59.895Z</time></trkpt><trkpt lat="42.3636493" lon="13.517178"><ele>1051.3333333333333</ele><time>2026-05-03T07:44:00.897Z</time></trkpt><trkpt lat="42.3637306" lon="13.5172221"><ele>1053.6666666666667</ele><time>2026-05-03T07:44:01.895Z</time></trkpt><trkpt lat="42.3638127" lon="13.5172547"><ele>1056.0</ele><time>2026-05-03T07:44:02.896Z</time></trkpt><trkpt lat="42.3638897" lon="13.517279"><ele>1056.0</ele><time>2026-05-03T07:44:03.895Z</time></trkpt><trkpt lat="42.3639669" lon="13.5172959"><ele>1056.0</ele><time>2026-05-03T07:44:04.896Z</time></trkpt><trkpt lat="42.3640407" lon="13.5173051"><ele>1056.0</ele><time>2026-05-03T07:44:05.895Z</time></trkpt><trkpt lat="42.3641079" lon="13.5173262"><ele>1056.0</ele><time>2026-05-03T07:44:06.895Z</time></trkpt><trkpt lat="42.3641874" lon="13.5173531"><ele>1056.0</ele><time>2026-05-03T07:44:07.895Z</time></trkpt><trkpt lat="42.3642692" lon="13.5173648"><ele>1056.0</ele><time>2026-05-03T07:44:08.895Z</time></trkpt><trkpt lat="42.3643394" lon="13.5173804"><ele>1056.0</ele><time>2026-05-03T07:44:09.896Z</time></trkpt><trkpt lat="42.3644161" lon="13.5173934"><ele>1056.0</ele><time>2026-05-03T07:44:10.895Z</time></trkpt><trkpt lat="42.3644879" lon="13.5174055"><ele>1056.0</ele><time>2026-05-03T07:44:11.896Z</time></trkpt><trkpt lat="42.3645639" lon="13.5174238"><ele>1056.0</ele><time>2026-05-03T07:44:12.896Z</time></trkpt><trkpt lat="42.3646338" lon="13.5174411"><ele>1056.0</ele><time>2026-05-03T07:44:13.895Z</time></trkpt><trkpt lat="42.3647027" lon="13.5174673"><ele>1056.0</ele><time>2026-05-03T07:44:14.895Z</time></trkpt><trkpt lat="42.364773" lon="13.5174919"><ele>1056.0</ele><time>2026-05-03T07:44:15.896Z</time></trkpt><trkpt lat="42.3648413" lon="13.5175217"><ele>1056.6666666666667</ele><time>2026-05-03T07:44:16.895Z</time></trkpt><trkpt lat="42.3649096" lon="13.5175539"><ele>1057.3333333333333</ele><time>2026-05-03T07:44:17.896Z</time></trkpt><trkpt lat="42.3649798" lon="13.5175835"><ele>1058.0</ele><time>2026-05-03T07:44:18.896Z</time></trkpt><trkpt lat="42.365057" lon="13.517603"><ele>1058.6666666666665</ele><time>2026-05-03T07:44:19.895Z</time></trkpt><trkpt lat="42.3651327" lon="13.5176336"><ele>1059.3333333333333</ele><time>2026-05-03T07:44:20.895Z</time></trkpt><trkpt lat="42.3652015" lon="13.5176719"><ele>1060.0</ele><time>2026-05-03T07:44:21.896Z</time></trkpt><trkpt lat="42.3652731" lon="13.517718"><ele>1059.9999999999998</ele><time>2026-05-03T07:44:22.896Z</time></trkpt><trkpt lat="42.3653437" lon="13.517768"><ele>1060.0</ele><time>2026-05-03T07:44:23.896Z</time></trkpt><trkpt lat="42.3654054" lon="13.517816"><ele>1060.0</ele><time>2026-05-03T07:44:24.895Z</time></trkpt><trkpt lat="42.3654751" lon="13.5178661"><ele>1060.0</ele><time>2026-05-03T07:44:25.895Z</time></trkpt><trkpt lat="42.3655439" lon="13.5179085"><ele>1060.0</ele><time>2026-05-03T07:44:26.895Z</time></trkpt><trkpt lat="42.3656107" lon="13.5179478"><ele>1059.9999999999998</ele><time>2026-05-03T07:44:27.895Z</time></trkpt><trkpt lat="42.3656758" lon="13.5179812"><ele>1060.0</ele><time>2026-05-03T07:44:28.896Z</time></trkpt><trkpt lat="42.3657639" lon="13.5180295"><ele>1061.5</ele><time>2026-05-03T07:44:30.895Z</time></trkpt><trkpt lat="42.365805" lon="13.5181165"><ele>1063.0</ele><time>2026-05-03T07:44:32.896Z</time></trkpt><trkpt lat="42.3657876" lon="13.5182131"><ele>1064.5</ele><time>2026-05-03T07:44:34.896Z</time></trkpt><trkpt lat="42.3657165" lon="13.518256"><ele>1066.0</ele><time>2026-05-03T07:44:36.895Z</time></trkpt><trkpt lat="42.3656147" lon="13.5182321"><ele>1067.5</ele><time>2026-05-03T07:44:38.896Z</time></trkpt><trkpt lat="42.3655582" lon="13.5181937"><ele>1069.0</ele><time>2026-05-03T07:44:39.897Z</time></trkpt><trkpt lat="42.3654877" lon="13.518169"><ele>1070.3333333333333</ele><time>2026-05-03T07:44:40.896Z</time></trkpt><trkpt lat="42.3654086" lon="13.518145"><ele>1071.6666666666665</ele><time>2026-05-03T07:44:41.895Z</time></trkpt><trkpt lat="42.3653285" lon="13.5181265"><ele>1073.0</ele><time>2026-05-03T07:44:42.895Z</time></trkpt><trkpt lat="42.365243" lon="13.5181293"><ele>1074.3333333333333</ele><time>2026-05-03T07:44:43.895Z</time></trkpt><trkpt lat="42.3651595" lon="13.5181379"><ele>1075.6666666666667</ele><time>2026-05-03T07:44:44.895Z</time></trkpt><trkpt lat="42.3650771" lon="13.518157"><ele>1077.0</ele><time>2026-05-03T07:44:45.896Z</time></trkpt><trkpt lat="42.364989" lon="13.5181746"><ele>1077.0</ele><time>2026-05-03T07:44:46.895Z</time></trkpt><trkpt lat="42.364906" lon="13.5181899"><ele>1077.0</ele><time>2026-05-03T07:44:47.895Z</time></trkpt><trkpt lat="42.3648329" lon="13.5181963"><ele>1077.0</ele><time>2026-05-03T07:44:48.896Z</time></trkpt><trkpt lat="42.3647678" lon="13.518199"><ele>1077.0</ele><time>2026-05-03T07:44:49.896Z</time></trkpt><trkpt lat="42.3646722" lon="13.5182447"><ele>1077.0</ele><time>2026-05-03T07:44:51.895Z</time></trkpt><trkpt lat="42.3646426" lon="13.5183635"><ele>1077.0</ele><time>2026-05-03T07:44:53.895Z</time></trkpt><trkpt lat="42.3647159" lon="13.5184513"><ele>1077.0</ele><time>2026-05-03T07:44:55.895Z</time></trkpt><trkpt lat="42.3647922" lon="13.5184504"><ele>1077.0</ele><time>2026-05-03T07:44:56.895Z</time></trkpt><trkpt lat="42.3648611" lon="13.5184439"><ele>1077.0</ele><time>2026-05-03T07:44:57.895Z</time></trkpt><trkpt lat="42.3649382" lon="13.5184475"><ele>1077.0</ele><time>2026-05-03T07:44:58.895Z</time></trkpt><trkpt lat="42.3650149" lon="13.5184609"><ele>1077.0</ele><time>2026-05-03T07:44:59.896Z</time></trkpt><trkpt lat="42.3650847" lon="13.5184858"><ele>1077.0</ele><time>2026-05-03T07:45:00.895Z</time></trkpt><trkpt lat="42.3651547" lon="13.5185129"><ele>1077.0</ele><time>2026-05-03T07:45:01.895Z</time></trkpt><trkpt lat="42.365223" lon="13.5185481"><ele>1077.0</ele><time>2026-05-03T07:45:02.896Z</time></trkpt><trkpt lat="42.3652855" lon="13.5186053"><ele>1077.0</ele><time>2026-05-03T07:45:03.895Z</time></trkpt><trkpt lat="42.3653489" lon="13.5186714"><ele>1077.0</ele><time>2026-05-03T07:45:04.896Z</time></trkpt><trkpt lat="42.3654096" lon="13.5187465"><ele>1077.0</ele><time>2026-05-03T07:45:05.896Z</time></trkpt><trkpt lat="42.365473" lon="13.5188186"><ele>1077.0</ele><time>2026-05-03T07:45:06.896Z</time></trkpt><trkpt lat="42.3655438" lon="13.5188926"><ele>1077.0</ele><time>2026-05-03T07:45:07.896Z</time></trkpt><trkpt lat="42.3656199" lon="13.5189652"><ele>1078.142857142857</ele><time>2026-05-03T07:45:08.895Z</time></trkpt><trkpt lat="42.3656844" lon="13.5190362"><ele>1079.2857142857142</ele><time>2026-05-03T07:45:09.895Z</time></trkpt><trkpt lat="42.3657401" lon="13.5191005"><ele>1080.4285714285716</ele><time>2026-05-03T07:45:10.895Z</time></trkpt><trkpt lat="42.3657812" lon="13.5191697"><ele>1081.5714285714284</ele><time>2026-05-03T07:45:11.895Z</time></trkpt><trkpt lat="42.3658067" lon="13.519254"><ele>1082.7142857142858</ele><time>2026-05-03T07:45:12.895Z</time></trkpt><trkpt lat="42.3658166" lon="13.5193428"><ele>1083.857142857143</ele><time>2026-05-03T07:45:13.896Z</time></trkpt><trkpt lat="42.3658192" lon="13.5194382"><ele>1085.0</ele><time>2026-05-03T07:45:14.895Z</time></trkpt><trkpt lat="42.3658193" lon="13.519538"><ele>1086.8333333333335</ele><time>2026-05-03T07:45:15.896Z</time></trkpt><trkpt lat="42.3658232" lon="13.5196379"><ele>1088.6666666666667</ele><time>2026-05-03T07:45:16.895Z</time></trkpt><trkpt lat="42.3658291" lon="13.5197384"><ele>1090.5</ele><time>2026-05-03T07:45:17.895Z</time></trkpt><trkpt lat="42.3658265" lon="13.5198416"><ele>1092.3333333333333</ele><time>2026-05-03T07:45:18.895Z</time></trkpt><trkpt lat="42.3658264" lon="13.5199506"><ele>1094.1666666666665</ele><time>2026-05-03T07:45:19.895Z</time></trkpt><trkpt lat="42.3658248" lon="13.5200576"><ele>1096.0</ele><time>2026-05-03T07:45:20.895Z</time></trkpt><trkpt lat="42.3658198" lon="13.5201612"><ele>1096.0</ele><time>2026-05-03T07:45:21.895Z</time></trkpt><trkpt lat="42.365816" lon="13.5202665"><ele>1096.0</ele><time>2026-05-03T07:45:22.895Z</time></trkpt><trkpt lat="42.3658237" lon="13.520373"><ele>1096.0</ele><time>2026-05-03T07:45:23.895Z</time></trkpt><trkpt lat="42.3658374" lon="13.5204801"><ele>1096.0</ele><time>2026-05-03T07:45:24.895Z</time></trkpt><trkpt lat="42.3658581" lon="13.5205874"><ele>1096.0</ele><time>2026-05-03T07:45:25.895Z</time></trkpt><trkpt lat="42.3658761" lon="13.5206906"><ele>1096.0</ele><time>2026-05-03T07:45:26.895Z</time></trkpt><trkpt lat="42.3658937" lon="13.5207916"><ele>1096.5</ele><time>2026-05-03T07:45:27.896Z</time></trkpt><trkpt lat="42.3659025" lon="13.5209461"><ele>1097.0</ele><time>2026-05-03T07:45:29.895Z</time></trkpt><trkpt lat="42.3658986" lon="13.521035"><ele>1097.5</ele><time>2026-05-03T07:45:30.896Z</time></trkpt><trkpt lat="42.3658897" lon="13.5211318"><ele>1098.0</ele><time>2026-05-03T07:45:31.895Z</time></trkpt><trkpt lat="42.3658831" lon="13.5212288"><ele>1098.5</ele><time>2026-05-03T07:45:32.895Z</time></trkpt><trkpt lat="42.3658753" lon="13.5213354"><ele>1099.0</ele><time>2026-05-03T07:45:33.895Z</time></trkpt><trkpt lat="42.3658629" lon="13.5214486"><ele>1099.3333333333333</ele><time>2026-05-03T07:45:34.896Z</time></trkpt><trkpt lat="42.3658484" lon="13.521556"><ele>1099.6666666666665</ele><time>2026-05-03T07:45:35.896Z</time></trkpt><trkpt lat="42.3658288" lon="13.5216622"><ele>1100.0</ele><time>2026-05-03T07:45:36.896Z</time></trkpt><trkpt lat="42.3658009" lon="13.5217447"><ele>1100.3333333333333</ele><time>2026-05-03T07:45:37.895Z</time></trkpt><trkpt lat="42.3657766" lon="13.5218333"><ele>1100.6666666666667</ele><time>2026-05-03T07:45:38.895Z</time></trkpt><trkpt lat="42.3657699" lon="13.5219364"><ele>1101.0</ele><time>2026-05-03T07:45:39.896Z</time></trkpt><trkpt lat="42.3657778" lon="13.5220393"><ele>1102.0</ele><time>2026-05-03T07:45:40.896Z</time></trkpt><trkpt lat="42.3657845" lon="13.5221453"><ele>1103.0</ele><time>2026-05-03T07:45:41.895Z</time></trkpt><trkpt lat="42.3657824" lon="13.522248"><ele>1104.0</ele><time>2026-05-03T07:45:42.895Z</time></trkpt><trkpt lat="42.3657621" lon="13.5223456"><ele>1105.0</ele><time>2026-05-03T07:45:43.896Z</time></trkpt><trkpt lat="42.3657293" lon="13.5224209"><ele>1106.0</ele><time>2026-05-03T07:45:44.896Z</time></trkpt><trkpt lat="42.3656851" lon="13.5224941"><ele>1107.0</ele><time>2026-05-03T07:45:45.896Z</time></trkpt><trkpt lat="42.3656344" lon="13.522557"><ele>1108.0</ele><time>2026-05-03T07:45:46.896Z</time></trkpt><trkpt lat="42.3655812" lon="13.5226352"><ele>1108.0</ele><time>2026-05-03T07:45:47.895Z</time></trkpt><trkpt lat="42.365532" lon="13.5227198"><ele>1108.0</ele><time>2026-05-03T07:45:48.895Z</time></trkpt><trkpt lat="42.3654785" lon="13.522803"><ele>1108.0</ele><time>2026-05-03T07:45:49.895Z</time></trkpt><trkpt lat="42.3654299" lon="13.5228902"><ele>1108.0</ele><time>2026-05-03T07:45:50.895Z</time></trkpt><trkpt lat="42.365382" lon="13.5229759"><ele>1108.0</ele><time>2026-05-03T07:45:51.895Z</time></trkpt><trkpt lat="42.3653294" lon="13.5230555"><ele>1108.0</ele><time>2026-05-03T07:45:52.895Z</time></trkpt><trkpt lat="42.3652766" lon="13.5231328"><ele>1109.0</ele><time>2026-05-03T07:45:53.895Z</time></trkpt><trkpt lat="42.3652246" lon="13.5232153"><ele>1110.0</ele><time>2026-05-03T07:45:54.896Z</time></trkpt><trkpt lat="42.365167" lon="13.5232927"><ele>1111.0</ele><time>2026-05-03T07:45:55.896Z</time></trkpt><trkpt lat="42.3651058" lon="13.5233667"><ele>1112.0</ele><time>2026-05-03T07:45:56.895Z</time></trkpt><trkpt lat="42.3650477" lon="13.5234399"><ele>1113.0</ele><time>2026-05-03T07:45:57.895Z</time></trkpt><trkpt lat="42.3649911" lon="13.5235204"><ele>1114.0</ele><time>2026-05-03T07:45:58.896Z</time></trkpt><trkpt lat="42.3649341" lon="13.5236038"><ele>1114.0</ele><time>2026-05-03T07:45:59.895Z</time></trkpt><trkpt lat="42.3648769" lon="13.5236753"><ele>1114.0</ele><time>2026-05-03T07:46:00.895Z</time></trkpt><trkpt lat="42.364822" lon="13.5237556"><ele>1114.0</ele><time>2026-05-03T07:46:01.895Z</time></trkpt><trkpt lat="42.3647721" lon="13.5238425"><ele>1114.0</ele><time>2026-05-03T07:46:02.895Z</time></trkpt><trkpt lat="42.3647262" lon="13.5239315"><ele>1114.0</ele><time>2026-05-03T07:46:03.896Z</time></trkpt><trkpt lat="42.3646843" lon="13.5240271"><ele>1114.0</ele><time>2026-05-03T07:46:04.896Z</time></trkpt><trkpt lat="42.3646492" lon="13.5241298"><ele>1115.3333333333333</ele><time>2026-05-03T07:46:05.895Z</time></trkpt><trkpt lat="42.3646135" lon="13.5242342"><ele>1116.6666666666665</ele><time>2026-05-03T07:46:06.896Z</time></trkpt><trkpt lat="42.3645828" lon="13.5243441"><ele>1118.0</ele><time>2026-05-03T07:46:07.895Z</time></trkpt><trkpt lat="42.3645529" lon="13.5244556"><ele>1119.3333333333333</ele><time>2026-05-03T07:46:08.896Z</time></trkpt><trkpt lat="42.3645267" lon="13.5245633"><ele>1120.6666666666667</ele><time>2026-05-03T07:46:09.895Z</time></trkpt><trkpt lat="42.36451" lon="13.5246702"><ele>1122.0</ele><time>2026-05-03T07:46:10.895Z</time></trkpt><trkpt lat="42.3644946" lon="13.5247764"><ele>1122.1666666666667</ele><time>2026-05-03T07:46:11.895Z</time></trkpt><trkpt lat="42.3644835" lon="13.5248897"><ele>1122.3333333333333</ele><time>2026-05-03T07:46:12.896Z</time></trkpt><trkpt lat="42.3644855" lon="13.5250031"><ele>1122.5</ele><time>2026-05-03T07:46:13.895Z</time></trkpt><trkpt lat="42.3645012" lon="13.525116"><ele>1122.6666666666665</ele><time>2026-05-03T07:46:14.895Z</time></trkpt><trkpt lat="42.3645261" lon="13.5252334"><ele>1122.8333333333333</ele><time>2026-05-03T07:46:15.895Z</time></trkpt><trkpt lat="42.364548" lon="13.525354"><ele>1123.0</ele><time>2026-05-03T07:46:16.895Z</time></trkpt><trkpt lat="42.3645683" lon="13.525476"><ele>1123.2</ele><time>2026-05-03T07:46:17.895Z</time></trkpt><trkpt lat="42.3645853" lon="13.5255988"><ele>1123.4</ele><time>2026-05-03T07:46:18.895Z</time></trkpt><trkpt lat="42.3645922" lon="13.5257253"><ele>1123.6000000000001</ele><time>2026-05-03T07:46:19.896Z</time></trkpt><trkpt lat="42.3645911" lon="13.5258537"><ele>1123.8</ele><time>2026-05-03T07:46:20.895Z</time></trkpt><trkpt lat="42.3645895" lon="13.5259807"><ele>1124.0</ele><time>2026-05-03T07:46:21.895Z</time></trkpt><trkpt lat="42.3645839" lon="13.5261056"><ele>1124.0</ele><time>2026-05-03T07:46:22.895Z</time></trkpt><trkpt lat="42.3645743" lon="13.5262246"><ele>1124.0</ele><time>2026-05-03T07:46:23.896Z</time></trkpt><trkpt lat="42.3645595" lon="13.5263426"><ele>1124.0</ele><time>2026-05-03T07:46:24.896Z</time></trkpt><trkpt lat="42.3645467" lon="13.5264561"><ele>1124.0</ele><time>2026-05-03T07:46:25.895Z</time></trkpt><trkpt lat="42.3645377" lon="13.5265725"><ele>1124.0</ele><time>2026-05-03T07:46:26.895Z</time></trkpt><trkpt lat="42.3645398" lon="13.5266838"><ele>1124.0</ele><time>2026-05-03T07:46:27.895Z</time></trkpt><trkpt lat="42.3645429" lon="13.5268016"><ele>1124.3333333333335</ele><time>2026-05-03T07:46:28.895Z</time></trkpt><trkpt lat="42.3645476" lon="13.5269149"><ele>1124.6666666666667</ele><time>2026-05-03T07:46:29.895Z</time></trkpt><trkpt lat="42.3645551" lon="13.5270304"><ele>1125.0</ele><time>2026-05-03T07:46:30.895Z</time></trkpt><trkpt lat="42.3645688" lon="13.5271384"><ele>1125.3333333333333</ele><time>2026-05-03T07:46:31.895Z</time></trkpt><trkpt lat="42.3645864" lon="13.5272425"><ele>1125.6666666666665</ele><time>2026-05-03T07:46:32.896Z</time></trkpt><trkpt lat="42.3646037" lon="13.5273441"><ele>1126.0</ele><time>2026-05-03T07:46:33.895Z</time></trkpt><trkpt lat="42.3646222" lon="13.5274488"><ele>1127.0</ele><time>2026-05-03T07:46:34.895Z</time></trkpt><trkpt lat="42.3646317" lon="13.5275554"><ele>1128.0</ele><time>2026-05-03T07:46:35.895Z</time></trkpt><trkpt lat="42.3646348" lon="13.5276651"><ele>1129.0</ele><time>2026-05-03T07:46:36.895Z</time></trkpt><trkpt lat="42.3646335" lon="13.5277721"><ele>1130.0</ele><time>2026-05-03T07:46:37.895Z</time></trkpt><trkpt lat="42.3646273" lon="13.5278803"><ele>1131.0</ele><time>2026-05-03T07:46:38.895Z</time></trkpt><trkpt lat="42.3646184" lon="13.527987"><ele>1132.0</ele><time>2026-05-03T07:46:39.896Z</time></trkpt><trkpt lat="42.3646039" lon="13.5280925"><ele>1133.0</ele><time>2026-05-03T07:46:40.895Z</time></trkpt><trkpt lat="42.3645865" lon="13.5282013"><ele>1134.0</ele><time>2026-05-03T07:46:41.896Z</time></trkpt><trkpt lat="42.3645704" lon="13.5283081"><ele>1135.0</ele><time>2026-05-03T07:46:42.895Z</time></trkpt><trkpt lat="42.3645528" lon="13.5284212"><ele>1136.0</ele><time>2026-05-03T07:46:43.895Z</time></trkpt><trkpt lat="42.3645364" lon="13.5285312"><ele>1137.0</ele><time>2026-05-03T07:46:44.895Z</time></trkpt><trkpt lat="42.364528" lon="13.528645"><ele>1138.0</ele><time>2026-05-03T07:46:45.895Z</time></trkpt><trkpt lat="42.3645298" lon="13.528757"><ele>1139.6666666666665</ele><time>2026-05-03T07:46:46.895Z</time></trkpt><trkpt lat="42.3645437" lon="13.5288685"><ele>1141.3333333333333</ele><time>2026-05-03T07:46:47.896Z</time></trkpt><trkpt lat="42.3645564" lon="13.5289768"><ele>1143.0</ele><time>2026-05-03T07:46:48.895Z</time></trkpt><trkpt lat="42.3645594" lon="13.5290837"><ele>1144.6666666666667</ele><time>2026-05-03T07:46:49.895Z</time></trkpt><trkpt lat="42.3645559" lon="13.5291885"><ele>1146.3333333333335</ele><time>2026-05-03T07:46:50.895Z</time></trkpt><trkpt lat="42.3645551" lon="13.5292821"><ele>1148.0</ele><time>2026-05-03T07:46:51.896Z</time></trkpt><trkpt lat="42.3645925" lon="13.5294031"><ele>1148.0</ele><time>2026-05-03T07:46:53.895Z</time></trkpt><trkpt lat="42.3646736" lon="13.5294493"><ele>1148.0</ele><time>2026-05-03T07:46:55.895Z</time></trkpt><trkpt lat="42.3647616" lon="13.5293667"><ele>1148.0</ele><time>2026-05-03T07:46:57.896Z</time></trkpt><trkpt lat="42.3647928" lon="13.5292921"><ele>1148.0</ele><time>2026-05-03T07:46:58.895Z</time></trkpt><trkpt lat="42.3648212" lon="13.5292108"><ele>1148.0</ele><time>2026-05-03T07:46:59.895Z</time></trkpt><trkpt lat="42.3648591" lon="13.5291225"><ele>1148.0</ele><time>2026-05-03T07:47:00.896Z</time></trkpt><trkpt lat="42.3649118" lon="13.5290384"><ele>1147.6</ele><time>2026-05-03T07:47:01.895Z</time></trkpt><trkpt lat="42.3649811" lon="13.5289607"><ele>1147.1999999999998</ele><time>2026-05-03T07:47:02.896Z</time></trkpt><trkpt lat="42.3650598" lon="13.5288798"><ele>1146.8</ele><time>2026-05-03T07:47:03.895Z</time></trkpt><trkpt lat="42.3651491" lon="13.528807"><ele>1146.3999999999999</ele><time>2026-05-03T07:47:04.895Z</time></trkpt><trkpt lat="42.3652398" lon="13.5287451"><ele>1146.0</ele><time>2026-05-03T07:47:05.895Z</time></trkpt><trkpt lat="42.3653147" lon="13.5286919"><ele>1146.0</ele><time>2026-05-03T07:47:06.896Z</time></trkpt><trkpt lat="42.3653806" lon="13.5286504"><ele>1146.0</ele><time>2026-05-03T07:47:07.895Z</time></trkpt><trkpt lat="42.3654809" lon="13.5286108"><ele>1146.0</ele><time>2026-05-03T07:47:09.896Z</time></trkpt><trkpt lat="42.3655395" lon="13.5286435"><ele>1146.0</ele><time>2026-05-03T07:47:11.895Z</time></trkpt><trkpt lat="42.3655455" lon="13.528751"><ele>1146.0</ele><time>2026-05-03T07:47:14.896Z</time></trkpt><trkpt lat="42.365484" lon="13.5288215"><ele>1146.0</ele><time>2026-05-03T07:47:16.895Z</time></trkpt><trkpt lat="42.3653748" lon="13.5288743"><ele>1147.6666666666667</ele><time>2026-05-03T07:47:18.895Z</time></trkpt><trkpt lat="42.3653107" lon="13.5289232"><ele>1149.3333333333333</ele><time>2026-05-03T07:47:19.896Z</time></trkpt><trkpt lat="42.3652512" lon="13.5289991"><ele>1151.0</ele><time>2026-05-03T07:47:20.895Z</time></trkpt><trkpt lat="42.3651943" lon="13.5290752"><ele>1152.6666666666665</ele><time>2026-05-03T07:47:21.895Z</time></trkpt><trkpt lat="42.3651479" lon="13.5291577"><ele>1154.3333333333333</ele><time>2026-05-03T07:47:22.895Z</time></trkpt><trkpt lat="42.3651082" lon="13.5292565"><ele>1156.0</ele><time>2026-05-03T07:47:23.895Z</time></trkpt><trkpt lat="42.3650855" lon="13.5293658"><ele>1156.0</ele><time>2026-05-03T07:47:24.896Z</time></trkpt><trkpt lat="42.3650742" lon="13.5294769"><ele>1156.0</ele><time>2026-05-03T07:47:25.895Z</time></trkpt><trkpt lat="42.3650718" lon="13.5295869"><ele>1156.0</ele><time>2026-05-03T07:47:26.896Z</time></trkpt><trkpt lat="42.3650886" lon="13.5296876"><ele>1156.0</ele><time>2026-05-03T07:47:27.896Z</time></trkpt><trkpt lat="42.3651177" lon="13.5297773"><ele>1156.0</ele><time>2026-05-03T07:47:28.896Z</time></trkpt><trkpt lat="42.3651629" lon="13.529863"><ele>1156.0</ele><time>2026-05-03T07:47:29.895Z</time></trkpt><trkpt lat="42.3652224" lon="13.5299477"><ele>1156.8333333333333</ele><time>2026-05-03T07:47:30.895Z</time></trkpt><trkpt lat="42.3652867" lon="13.5300252"><ele>1157.6666666666665</ele><time>2026-05-03T07:47:31.895Z</time></trkpt><trkpt lat="42.3653541" lon="13.5300991"><ele>1158.5</ele><time>2026-05-03T07:47:32.895Z</time></trkpt><trkpt lat="42.3654207" lon="13.530173"><ele>1159.3333333333333</ele><time>2026-05-03T07:47:33.895Z</time></trkpt><trkpt lat="42.3654837" lon="13.5302579"><ele>1160.1666666666667</ele><time>2026-05-03T07:47:34.896Z</time></trkpt><trkpt lat="42.3655402" lon="13.5303551"><ele>1161.0</ele><time>2026-05-03T07:47:35.896Z</time></trkpt><trkpt lat="42.3655801" lon="13.5304681"><ele>1163.3999999999999</ele><time>2026-05-03T07:47:36.895Z</time></trkpt><trkpt lat="42.3656048" lon="13.5305937"><ele>1165.8</ele><time>2026-05-03T07:47:37.895Z</time></trkpt><trkpt lat="42.365618" lon="13.5307242"><ele>1168.1999999999998</ele><time>2026-05-03T07:47:38.895Z</time></trkpt><trkpt lat="42.3656326" lon="13.5308564"><ele>1170.6</ele><time>2026-05-03T07:47:39.895Z</time></trkpt><trkpt lat="42.3656561" lon="13.5309866"><ele>1173.0</ele><time>2026-05-03T07:47:40.895Z</time></trkpt><trkpt lat="42.3656876" lon="13.531113"><ele>1174.0</ele><time>2026-05-03T07:47:41.896Z</time></trkpt><trkpt lat="42.3657336" lon="13.5312264"><ele>1175.0</ele><time>2026-05-03T07:47:42.895Z</time></trkpt><trkpt lat="42.3657914" lon="13.5313411"><ele>1176.0</ele><time>2026-05-03T07:47:43.895Z</time></trkpt><trkpt lat="42.3658446" lon="13.5314579"><ele>1177.0</ele><time>2026-05-03T07:47:44.897Z</time></trkpt><trkpt lat="42.3658935" lon="13.5315776"><ele>1178.0</ele><time>2026-05-03T07:47:45.896Z</time></trkpt><trkpt lat="42.3659369" lon="13.531708"><ele>1178.0</ele><time>2026-05-03T07:47:46.895Z</time></trkpt><trkpt lat="42.3659751" lon="13.5318331"><ele>1178.0</ele><time>2026-05-03T07:47:47.896Z</time></trkpt><trkpt lat="42.3660047" lon="13.5319595"><ele>1178.0</ele><time>2026-05-03T07:47:48.895Z</time></trkpt><trkpt lat="42.3660179" lon="13.5320825"><ele>1178.0</ele><time>2026-05-03T07:47:49.896Z</time></trkpt><trkpt lat="42.3660177" lon="13.5322076"><ele>1178.0</ele><time>2026-05-03T07:47:50.896Z</time></trkpt><trkpt lat="42.3660054" lon="13.5323339"><ele>1178.2</ele><time>2026-05-03T07:47:51.895Z</time></trkpt><trkpt lat="42.3659735" lon="13.5324505"><ele>1178.4</ele><time>2026-05-03T07:47:52.896Z</time></trkpt><trkpt lat="42.3659252" lon="13.5325529"><ele>1178.6000000000001</ele><time>2026-05-03T07:47:53.895Z</time></trkpt><trkpt lat="42.3658686" lon="13.532651"><ele>1178.8</ele><time>2026-05-03T07:47:54.895Z</time></trkpt><trkpt lat="42.365807" lon="13.5327441"><ele>1179.0</ele><time>2026-05-03T07:47:55.895Z</time></trkpt><trkpt lat="42.3657384" lon="13.5328235"><ele>1180.8</ele><time>2026-05-03T07:47:56.895Z</time></trkpt><trkpt lat="42.3656574" lon="13.5328903"><ele>1182.6000000000001</ele><time>2026-05-03T07:47:57.896Z</time></trkpt><trkpt lat="42.3655708" lon="13.5329508"><ele>1184.4</ele><time>2026-05-03T07:47:58.895Z</time></trkpt><trkpt lat="42.3654876" lon="13.5330113"><ele>1186.2</ele><time>2026-05-03T07:47:59.897Z</time></trkpt><trkpt lat="42.3654065" lon="13.5330748"><ele>1188.0</ele><time>2026-05-03T07:48:00.895Z</time></trkpt><trkpt lat="42.365329" lon="13.5331539"><ele>1191.0</ele><time>2026-05-03T07:48:01.895Z</time></trkpt><trkpt lat="42.3652565" lon="13.5332482"><ele>1194.0</ele><time>2026-05-03T07:48:02.895Z</time></trkpt><trkpt lat="42.36519" lon="13.5333604"><ele>1197.0</ele><time>2026-05-03T07:48:03.896Z</time></trkpt><trkpt lat="42.3651339" lon="13.5334805"><ele>1200.0</ele><time>2026-05-03T07:48:04.895Z</time></trkpt><trkpt lat="42.3650884" lon="13.5336111"><ele>1203.0</ele><time>2026-05-03T07:48:05.896Z</time></trkpt><trkpt lat="42.3650618" lon="13.533749"><ele>1204.0</ele><time>2026-05-03T07:48:06.895Z</time></trkpt><trkpt lat="42.3650444" lon="13.5338932"><ele>1205.0</ele><time>2026-05-03T07:48:07.895Z</time></trkpt><trkpt lat="42.3650317" lon="13.5340309"><ele>1206.0</ele><time>2026-05-03T07:48:08.896Z</time></trkpt><trkpt lat="42.3650174" lon="13.5341677"><ele>1207.0</ele><time>2026-05-03T07:48:09.895Z</time></trkpt><trkpt lat="42.365001" lon="13.534305"><ele>1208.0</ele><time>2026-05-03T07:48:10.896Z</time></trkpt><trkpt lat="42.3649949" lon="13.5344435"><ele>1209.25</ele><time>2026-05-03T07:48:11.896Z</time></trkpt><trkpt lat="42.3649904" lon="13.5345935"><ele>1210.5</ele><time>2026-05-03T07:48:12.896Z</time></trkpt><trkpt lat="42.364985" lon="13.534748"><ele>1211.75</ele><time>2026-05-03T07:48:13.895Z</time></trkpt><trkpt lat="42.3649834" lon="13.5349102"><ele>1213.0</ele><time>2026-05-03T07:48:14.895Z</time></trkpt><trkpt lat="42.3649792" lon="13.5350605"><ele>1213.0</ele><time>2026-05-03T07:48:15.895Z</time></trkpt><trkpt lat="42.3649647" lon="13.5352042"><ele>1213.0</ele><time>2026-05-03T07:48:16.896Z</time></trkpt><trkpt lat="42.3649421" lon="13.5353529"><ele>1213.0</ele><time>2026-05-03T07:48:17.896Z</time></trkpt><trkpt lat="42.364915" lon="13.5354985"><ele>1213.0</ele><time>2026-05-03T07:48:18.895Z</time></trkpt><trkpt lat="42.3648836" lon="13.5356474"><ele>1213.0</ele><time>2026-05-03T07:48:19.895Z</time></trkpt><trkpt lat="42.3648484" lon="13.5357981"><ele>1213.25</ele><time>2026-05-03T07:48:20.896Z</time></trkpt><trkpt lat="42.3648095" lon="13.5359525"><ele>1213.5</ele><time>2026-05-03T07:48:21.895Z</time></trkpt><trkpt lat="42.3647696" lon="13.5361116"><ele>1213.75</ele><time>2026-05-03T07:48:22.895Z</time></trkpt><trkpt lat="42.3647361" lon="13.5362622"><ele>1214.0</ele><time>2026-05-03T07:48:23.895Z</time></trkpt><trkpt lat="42.3647063" lon="13.5364166"><ele>1214.4</ele><time>2026-05-03T07:48:24.896Z</time></trkpt><trkpt lat="42.3646881" lon="13.5365632"><ele>1214.8000000000002</ele><time>2026-05-03T07:48:25.896Z</time></trkpt><trkpt lat="42.3646616" lon="13.5367075"><ele>1215.1999999999998</ele><time>2026-05-03T07:48:26.895Z</time></trkpt><trkpt lat="42.3646255" lon="13.5368413"><ele>1215.6</ele><time>2026-05-03T07:48:27.896Z</time></trkpt><trkpt lat="42.3645757" lon="13.5369623"><ele>1216.0</ele><time>2026-05-03T07:48:28.895Z</time></trkpt><trkpt lat="42.3645215" lon="13.5370846"><ele>1216.6</ele><time>2026-05-03T07:48:29.896Z</time></trkpt><trkpt lat="42.3644626" lon="13.5372107"><ele>1217.1999999999998</ele><time>2026-05-03T07:48:30.895Z</time></trkpt><trkpt lat="42.3644007" lon="13.5373321"><ele>1217.8000000000002</ele><time>2026-05-03T07:48:31.895Z</time></trkpt><trkpt lat="42.3643337" lon="13.5374501"><ele>1218.4</ele><time>2026-05-03T07:48:32.895Z</time></trkpt><trkpt lat="42.3642655" lon="13.5375666"><ele>1219.0</ele><time>2026-05-03T07:48:33.896Z</time></trkpt><trkpt lat="42.3642011" lon="13.5376929"><ele>1219.0</ele><time>2026-05-03T07:48:34.896Z</time></trkpt><trkpt lat="42.3641382" lon="13.5378286"><ele>1219.0</ele><time>2026-05-03T07:48:35.895Z</time></trkpt><trkpt lat="42.364072" lon="13.5379613"><ele>1219.0</ele><time>2026-05-03T07:48:36.895Z</time></trkpt><trkpt lat="42.3640033" lon="13.5380932"><ele>1219.0</ele><time>2026-05-03T07:48:37.895Z</time></trkpt><trkpt lat="42.3639192" lon="13.5382122"><ele>1220.25</ele><time>2026-05-03T07:48:38.895Z</time></trkpt><trkpt lat="42.3638246" lon="13.5383213"><ele>1221.5</ele><time>2026-05-03T07:48:39.896Z</time></trkpt><trkpt lat="42.3637327" lon="13.5384377"><ele>1222.75</ele><time>2026-05-03T07:48:40.895Z</time></trkpt><trkpt lat="42.3636397" lon="13.5385524"><ele>1224.0</ele><time>2026-05-03T07:48:41.895Z</time></trkpt><trkpt lat="42.3635482" lon="13.538667"><ele>1225.0</ele><time>2026-05-03T07:48:42.895Z</time></trkpt><trkpt lat="42.3634556" lon="13.5387844"><ele>1226.0</ele><time>2026-05-03T07:48:43.895Z</time></trkpt><trkpt lat="42.3633639" lon="13.5389056"><ele>1227.0</ele><time>2026-05-03T07:48:44.896Z</time></trkpt><trkpt lat="42.3632724" lon="13.539032"><ele>1228.0</ele><time>2026-05-03T07:48:45.895Z</time></trkpt><trkpt lat="42.3631829" lon="13.5391642"><ele>1228.0</ele><time>2026-05-03T07:48:46.895Z</time></trkpt><trkpt lat="42.3630929" lon="13.5392945"><ele>1228.0</ele><time>2026-05-03T07:48:47.896Z</time></trkpt><trkpt lat="42.3630021" lon="13.5394228"><ele>1228.0</ele><time>2026-05-03T07:48:48.895Z</time></trkpt><trkpt lat="42.3629082" lon="13.5395517"><ele>1228.0</ele><time>2026-05-03T07:48:49.896Z</time></trkpt><trkpt lat="42.3628139" lon="13.5396808"><ele>1227.5</ele><time>2026-05-03T07:48:50.895Z</time></trkpt><trkpt lat="42.3627233" lon="13.5398096"><ele>1227.0</ele><time>2026-05-03T07:48:51.896Z</time></trkpt><trkpt lat="42.3626379" lon="13.5399431"><ele>1226.5</ele><time>2026-05-03T07:48:52.895Z</time></trkpt><trkpt lat="42.3625641" lon="13.5400896"><ele>1226.0</ele><time>2026-05-03T07:48:53.896Z</time></trkpt><trkpt lat="42.3624988" lon="13.5402522"><ele>1227.0</ele><time>2026-05-03T07:48:54.896Z</time></trkpt><trkpt lat="42.3624408" lon="13.5404226"><ele>1228.0</ele><time>2026-05-03T07:48:55.895Z</time></trkpt><trkpt lat="42.3623883" lon="13.5405995"><ele>1229.0</ele><time>2026-05-03T07:48:56.895Z</time></trkpt><trkpt lat="42.3623421" lon="13.5407807"><ele>1230.0</ele><time>2026-05-03T07:48:57.896Z</time></trkpt><trkpt lat="42.3622947" lon="13.54096"><ele>1230.0</ele><time>2026-05-03T07:48:58.896Z</time></trkpt><trkpt lat="42.3622442" lon="13.5411378"><ele>1230.0</ele><time>2026-05-03T07:48:59.895Z</time></trkpt><trkpt lat="42.3621919" lon="13.5413158"><ele>1230.0</ele><time>2026-05-03T07:49:00.895Z</time></trkpt><trkpt lat="42.3621406" lon="13.5414978"><ele>1230.0</ele><time>2026-05-03T07:49:01.895Z</time></trkpt><trkpt lat="42.3620864" lon="13.5416857"><ele>1230.0</ele><time>2026-05-03T07:49:02.895Z</time></trkpt><trkpt lat="42.3620325" lon="13.541876"><ele>1230.0</ele><time>2026-05-03T07:49:03.896Z</time></trkpt><trkpt lat="42.3619794" lon="13.5420673"><ele>1230.0</ele><time>2026-05-03T07:49:04.896Z</time></trkpt><trkpt lat="42.3619317" lon="13.5422503"><ele>1230.0</ele><time>2026-05-03T07:49:05.896Z</time></trkpt><trkpt lat="42.3618811" lon="13.5424241"><ele>1230.0</ele><time>2026-05-03T07:49:06.896Z</time></trkpt><trkpt lat="42.3618268" lon="13.5425931"><ele>1230.0</ele><time>2026-05-03T07:49:07.895Z</time></trkpt><trkpt lat="42.3617985" lon="13.5427634"><ele>1230.0</ele><time>2026-05-03T07:49:08.895Z</time></trkpt><trkpt lat="42.3617878" lon="13.5429541"><ele>1230.0</ele><time>2026-05-03T07:49:09.895Z</time></trkpt><trkpt lat="42.361787" lon="13.5431441"><ele>1230.0</ele><time>2026-05-03T07:49:10.896Z</time></trkpt><trkpt lat="42.3617799" lon="13.5433351"><ele>1230.0</ele><time>2026-05-03T07:49:11.896Z</time></trkpt><trkpt lat="42.3617645" lon="13.5435234"><ele>1230.0</ele><time>2026-05-03T07:49:12.895Z</time></trkpt><trkpt lat="42.3617278" lon="13.5437067"><ele>1230.0</ele><time>2026-05-03T07:49:13.896Z</time></trkpt><trkpt lat="42.3616765" lon="13.543881"><ele>1230.75</ele><time>2026-05-03T07:49:14.895Z</time></trkpt><trkpt lat="42.3616316" lon="13.544063"><ele>1231.5</ele><time>2026-05-03T07:49:15.895Z</time></trkpt><trkpt lat="42.3616069" lon="13.5442441"><ele>1232.25</ele><time>2026-05-03T07:49:16.895Z</time></trkpt><trkpt lat="42.3615838" lon="13.5444098"><ele>1233.0</ele><time>2026-05-03T07:49:17.895Z</time></trkpt><trkpt lat="42.3615559" lon="13.5445729"><ele>1233.6</ele><time>2026-05-03T07:49:18.895Z</time></trkpt><trkpt lat="42.3615338" lon="13.5447277"><ele>1234.1999999999998</ele><time>2026-05-03T07:49:19.896Z</time></trkpt><trkpt lat="42.36153" lon="13.5448726"><ele>1234.8</ele><time>2026-05-03T07:49:20.895Z</time></trkpt><trkpt lat="42.3615371" lon="13.5450078"><ele>1235.3999999999999</ele><time>2026-05-03T07:49:21.896Z</time></trkpt><trkpt lat="42.3615427" lon="13.5451276"><ele>1236.0</ele><time>2026-05-03T07:49:22.895Z</time></trkpt><trkpt lat="42.3615493" lon="13.5452615"><ele>1235.8</ele><time>2026-05-03T07:49:23.895Z</time></trkpt><trkpt lat="42.3615491" lon="13.5453967"><ele>1235.6</ele><time>2026-05-03T07:49:24.895Z</time></trkpt><trkpt lat="42.3615423" lon="13.5455188"><ele>1235.4</ele><time>2026-05-03T07:49:25.895Z</time></trkpt><trkpt lat="42.3615288" lon="13.5456368"><ele>1235.2</ele><time>2026-05-03T07:49:26.895Z</time></trkpt><trkpt lat="42.3615101" lon="13.5457554"><ele>1235.0</ele><time>2026-05-03T07:49:27.896Z</time></trkpt><trkpt lat="42.3615101" lon="13.5458682"><ele>1235.0</ele><time>2026-05-03T07:49:28.896Z</time></trkpt><trkpt lat="42.3615251" lon="13.5459888"><ele>1235.0</ele><time>2026-05-03T07:49:29.896Z</time></trkpt><trkpt lat="42.3615573" lon="13.5461118"><ele>1235.0</ele><time>2026-05-03T07:49:30.895Z</time></trkpt><trkpt lat="42.3615792" lon="13.54623"><ele>1235.0</ele><time>2026-05-03T07:49:31.896Z</time></trkpt><trkpt lat="42.3615663" lon="13.5463583"><ele>1235.0</ele><time>2026-05-03T07:49:32.895Z</time></trkpt><trkpt lat="42.3615425" lon="13.5464867"><ele>1234.8</ele><time>2026-05-03T07:49:33.895Z</time></trkpt><trkpt lat="42.3615235" lon="13.5466029"><ele>1234.6</ele><time>2026-05-03T07:49:34.895Z</time></trkpt><trkpt lat="42.3614788" lon="13.546708"><ele>1234.4</ele><time>2026-05-03T07:49:35.895Z</time></trkpt><trkpt lat="42.361418" lon="13.5468062"><ele>1234.2</ele><time>2026-05-03T07:49:36.895Z</time></trkpt><trkpt lat="42.3613545" lon="13.5469157"><ele>1234.0</ele><time>2026-05-03T07:49:37.896Z</time></trkpt><trkpt lat="42.3613069" lon="13.5470458"><ele>1232.2</ele><time>2026-05-03T07:49:38.896Z</time></trkpt><trkpt lat="42.3612669" lon="13.5471696"><ele>1230.4</ele><time>2026-05-03T07:49:39.895Z</time></trkpt><trkpt lat="42.3612229" lon="13.547292"><ele>1228.6</ele><time>2026-05-03T07:49:40.895Z</time></trkpt><trkpt lat="42.3611689" lon="13.5474104"><ele>1226.8</ele><time>2026-05-03T07:49:41.895Z</time></trkpt><trkpt lat="42.3611172" lon="13.54752"><ele>1225.0</ele><time>2026-05-03T07:49:42.895Z</time></trkpt><trkpt lat="42.3610659" lon="13.5476337"><ele>1225.0</ele><time>2026-05-03T07:49:43.896Z</time></trkpt><trkpt lat="42.3610207" lon="13.5477447"><ele>1225.0</ele><time>2026-05-03T07:49:44.895Z</time></trkpt><trkpt lat="42.3609791" lon="13.5478452"><ele>1225.0</ele><time>2026-05-03T07:49:45.896Z</time></trkpt><trkpt lat="42.3609207" lon="13.5479374"><ele>1225.0</ele><time>2026-05-03T07:49:46.896Z</time></trkpt><trkpt lat="42.3608484" lon="13.5480173"><ele>1225.0</ele><time>2026-05-03T07:49:47.896Z</time></trkpt><trkpt lat="42.3607866" lon="13.548104"><ele>1225.0</ele><time>2026-05-03T07:49:48.895Z</time></trkpt><trkpt lat="42.3607312" lon="13.5482048"><ele>1225.0</ele><time>2026-05-03T07:49:49.895Z</time></trkpt><trkpt lat="42.3606827" lon="13.5483212"><ele>1225.0</ele><time>2026-05-03T07:49:50.895Z</time></trkpt><trkpt lat="42.3606413" lon="13.5484476"><ele>1225.0</ele><time>2026-05-03T07:49:51.896Z</time></trkpt><trkpt lat="42.3606071" lon="13.5485776"><ele>1225.0</ele><time>2026-05-03T07:49:52.896Z</time></trkpt><trkpt lat="42.3605819" lon="13.5487093"><ele>1224.0</ele><time>2026-05-03T07:49:53.896Z</time></trkpt><trkpt lat="42.3605579" lon="13.5488501"><ele>1223.0</ele><time>2026-05-03T07:49:54.895Z</time></trkpt><trkpt lat="42.360537" lon="13.5489946"><ele>1222.0</ele><time>2026-05-03T07:49:55.895Z</time></trkpt><trkpt lat="42.3605159" lon="13.5491442"><ele>1221.0</ele><time>2026-05-03T07:49:56.895Z</time></trkpt><trkpt lat="42.3604893" lon="13.5492922"><ele>1220.0</ele><time>2026-05-03T07:49:57.895Z</time></trkpt><trkpt lat="42.3604522" lon="13.5494436"><ele>1218.75</ele><time>2026-05-03T07:49:58.896Z</time></trkpt><trkpt lat="42.3604159" lon="13.5495919"><ele>1217.5</ele><time>2026-05-03T07:49:59.895Z</time></trkpt><trkpt lat="42.360394" lon="13.549737"><ele>1216.25</ele><time>2026-05-03T07:50:00.895Z</time></trkpt><trkpt lat="42.3603769" lon="13.549892"><ele>1215.0</ele><time>2026-05-03T07:50:01.895Z</time></trkpt><trkpt lat="42.3603513" lon="13.5500505"><ele>1215.0</ele><time>2026-05-03T07:50:02.896Z</time></trkpt><trkpt lat="42.3603245" lon="13.5502064"><ele>1215.0</ele><time>2026-05-03T07:50:03.895Z</time></trkpt><trkpt lat="42.3602968" lon="13.5503686"><ele>1215.0</ele><time>2026-05-03T07:50:04.895Z</time></trkpt><trkpt lat="42.3602674" lon="13.5505297"><ele>1215.0</ele><time>2026-05-03T07:50:05.895Z</time></trkpt><trkpt lat="42.3602365" lon="13.5506887"><ele>1214.5</ele><time>2026-05-03T07:50:06.896Z</time></trkpt><trkpt lat="42.3602024" lon="13.5508446"><ele>1214.0</ele><time>2026-05-03T07:50:07.896Z</time></trkpt><trkpt lat="42.3601697" lon="13.5509874"><ele>1213.5</ele><time>2026-05-03T07:50:08.896Z</time></trkpt><trkpt lat="42.3601394" lon="13.5511277"><ele>1213.0</ele><time>2026-05-03T07:50:09.895Z</time></trkpt><trkpt lat="42.3601089" lon="13.5512734"><ele>1212.75</ele><time>2026-05-03T07:50:10.895Z</time></trkpt><trkpt lat="42.3600762" lon="13.5514261"><ele>1212.5</ele><time>2026-05-03T07:50:11.895Z</time></trkpt><trkpt lat="42.3600443" lon="13.5515844"><ele>1212.25</ele><time>2026-05-03T07:50:12.896Z</time></trkpt><trkpt lat="42.3600058" lon="13.5517417"><ele>1212.0</ele><time>2026-05-03T07:50:13.896Z</time></trkpt><trkpt lat="42.3599497" lon="13.5518951"><ele>1212.0</ele><time>2026-05-03T07:50:14.895Z</time></trkpt><trkpt lat="42.3599104" lon="13.5520394"><ele>1212.0</ele><time>2026-05-03T07:50:15.895Z</time></trkpt><trkpt lat="42.3598622" lon="13.5521902"><ele>1212.0</ele><time>2026-05-03T07:50:16.895Z</time></trkpt><trkpt lat="42.3597949" lon="13.552326"><ele>1212.0</ele><time>2026-05-03T07:50:17.895Z</time></trkpt><trkpt lat="42.3597233" lon="13.5524693"><ele>1211.75</ele><time>2026-05-03T07:50:18.895Z</time></trkpt><trkpt lat="42.3596484" lon="13.5526158"><ele>1211.5</ele><time>2026-05-03T07:50:19.895Z</time></trkpt><trkpt lat="42.3595842" lon="13.5527481"><ele>1211.25</ele><time>2026-05-03T07:50:20.895Z</time></trkpt><trkpt lat="42.3595248" lon="13.5528778"><ele>1211.0</ele><time>2026-05-03T07:50:21.895Z</time></trkpt><trkpt lat="42.3594621" lon="13.5530164"><ele>1211.0</ele><time>2026-05-03T07:50:22.895Z</time></trkpt><trkpt lat="42.3594052" lon="13.5531567"><ele>1211.0</ele><time>2026-05-03T07:50:23.895Z</time></trkpt><trkpt lat="42.3593558" lon="13.5533018"><ele>1211.0</ele><time>2026-05-03T07:50:24.896Z</time></trkpt><trkpt lat="42.3593109" lon="13.5534488"><ele>1211.0</ele><time>2026-05-03T07:50:25.895Z</time></trkpt><trkpt lat="42.3592695" lon="13.5535962"><ele>1211.25</ele><time>2026-05-03T07:50:26.896Z</time></trkpt><trkpt lat="42.3592282" lon="13.5537446"><ele>1211.5</ele><time>2026-05-03T07:50:27.895Z</time></trkpt><trkpt lat="42.3591774" lon="13.5538901"><ele>1211.75</ele><time>2026-05-03T07:50:28.896Z</time></trkpt><trkpt lat="42.3591189" lon="13.5540279"><ele>1212.0</ele><time>2026-05-03T07:50:29.895Z</time></trkpt><trkpt lat="42.3590631" lon="13.5541555"><ele>1212.0</ele><time>2026-05-03T07:50:30.896Z</time></trkpt><trkpt lat="42.3590056" lon="13.5542893"><ele>1212.0</ele><time>2026-05-03T07:50:31.895Z</time></trkpt><trkpt lat="42.3589481" lon="13.5544194"><ele>1212.0</ele><time>2026-05-03T07:50:32.896Z</time></trkpt><trkpt lat="42.3588943" lon="13.5545541"><ele>1212.0</ele><time>2026-05-03T07:50:33.896Z</time></trkpt><trkpt lat="42.3588394" lon="13.554694"><ele>1214.5</ele><time>2026-05-03T07:50:34.895Z</time></trkpt><trkpt lat="42.3587813" lon="13.5548431"><ele>1217.0</ele><time>2026-05-03T07:50:35.895Z</time></trkpt><trkpt lat="42.3587297" lon="13.5549861"><ele>1219.5</ele><time>2026-05-03T07:50:36.895Z</time></trkpt><trkpt lat="42.3586796" lon="13.5551277"><ele>1222.0</ele><time>2026-05-03T07:50:37.895Z</time></trkpt><trkpt lat="42.3586375" lon="13.5552789"><ele>1221.0</ele><time>2026-05-03T07:50:38.895Z</time></trkpt><trkpt lat="42.3585897" lon="13.5554263"><ele>1220.0</ele><time>2026-05-03T07:50:39.896Z</time></trkpt><trkpt lat="42.358548" lon="13.5555728"><ele>1219.0</ele><time>2026-05-03T07:50:40.895Z</time></trkpt><trkpt lat="42.3585103" lon="13.5557098"><ele>1218.0</ele><time>2026-05-03T07:50:41.896Z</time></trkpt><trkpt lat="42.3584775" lon="13.5558412"><ele>1217.0</ele><time>2026-05-03T07:50:42.895Z</time></trkpt><trkpt lat="42.3584538" lon="13.5559734"><ele>1217.0</ele><time>2026-05-03T07:50:43.896Z</time></trkpt><trkpt lat="42.3584443" lon="13.5561182"><ele>1217.0</ele><time>2026-05-03T07:50:44.896Z</time></trkpt><trkpt lat="42.3584488" lon="13.5562659"><ele>1217.0</ele><time>2026-05-03T07:50:45.895Z</time></trkpt><trkpt lat="42.3584553" lon="13.5564015"><ele>1217.0</ele><time>2026-05-03T07:50:46.896Z</time></trkpt><trkpt lat="42.3584689" lon="13.5565302"><ele>1217.0</ele><time>2026-05-03T07:50:47.895Z</time></trkpt><trkpt lat="42.3584808" lon="13.5566495"><ele>1216.0</ele><time>2026-05-03T07:50:48.895Z</time></trkpt><trkpt lat="42.3584883" lon="13.5567715"><ele>1215.0</ele><time>2026-05-03T07:50:49.896Z</time></trkpt><trkpt lat="42.3584986" lon="13.556885"><ele>1214.0</ele><time>2026-05-03T07:50:50.896Z</time></trkpt><trkpt lat="42.358518" lon="13.556995"><ele>1213.0</ele><time>2026-05-03T07:50:51.895Z</time></trkpt><trkpt lat="42.3585584" lon="13.557102"><ele>1212.0</ele><time>2026-05-03T07:50:52.895Z</time></trkpt><trkpt lat="42.3586036" lon="13.5571983"><ele>1211.0</ele><time>2026-05-03T07:50:53.895Z</time></trkpt><trkpt lat="42.3586596" lon="13.5573032"><ele>1211.0</ele><time>2026-05-03T07:50:54.896Z</time></trkpt><trkpt lat="42.3587132" lon="13.5574125"><ele>1211.0</ele><time>2026-05-03T07:50:55.896Z</time></trkpt><trkpt lat="42.3587547" lon="13.5575242"><ele>1211.0</ele><time>2026-05-03T07:50:56.896Z</time></trkpt><trkpt lat="42.3587896" lon="13.5576406"><ele>1211.0</ele><time>2026-05-03T07:50:57.896Z</time></trkpt><trkpt lat="42.3588078" lon="13.5577668"><ele>1211.0</ele><time>2026-05-03T07:50:58.895Z</time></trkpt><trkpt lat="42.3588114" lon="13.5578975"><ele>1210.8</ele><time>2026-05-03T07:50:59.896Z</time></trkpt><trkpt lat="42.358813" lon="13.5580274"><ele>1210.6</ele><time>2026-05-03T07:51:00.896Z</time></trkpt><trkpt lat="42.3588173" lon="13.5581592"><ele>1210.4</ele><time>2026-05-03T07:51:01.895Z</time></trkpt><trkpt lat="42.3588333" lon="13.558299"><ele>1210.2</ele><time>2026-05-03T07:51:02.895Z</time></trkpt><trkpt lat="42.3588647" lon="13.5584417"><ele>1210.0</ele><time>2026-05-03T07:51:03.895Z</time></trkpt><trkpt lat="42.3588923" lon="13.5585892"><ele>1208.4</ele><time>2026-05-03T07:51:04.895Z</time></trkpt><trkpt lat="42.3589254" lon="13.5587395"><ele>1206.8</ele><time>2026-05-03T07:51:05.895Z</time></trkpt><trkpt lat="42.3589519" lon="13.5588787"><ele>1205.2</ele><time>2026-05-03T07:51:06.895Z</time></trkpt><trkpt lat="42.3589817" lon="13.5590241"><ele>1203.6</ele><time>2026-05-03T07:51:07.895Z</time></trkpt><trkpt lat="42.359005" lon="13.5591582"><ele>1202.0</ele><time>2026-05-03T07:51:08.896Z</time></trkpt><trkpt lat="42.3590218" lon="13.5592926"><ele>1202.0</ele><time>2026-05-03T07:51:09.895Z</time></trkpt><trkpt lat="42.3590221" lon="13.5594352"><ele>1202.0</ele><time>2026-05-03T07:51:10.895Z</time></trkpt><trkpt lat="42.3590074" lon="13.5595762"><ele>1202.0</ele><time>2026-05-03T07:51:11.895Z</time></trkpt><trkpt lat="42.3589883" lon="13.5597178"><ele>1202.0</ele><time>2026-05-03T07:51:12.895Z</time></trkpt><trkpt lat="42.3589705" lon="13.5598674"><ele>1202.0</ele><time>2026-05-03T07:51:13.896Z</time></trkpt><trkpt lat="42.3589526" lon="13.5600198"><ele>1202.0</ele><time>2026-05-03T07:51:14.895Z</time></trkpt><trkpt lat="42.3589423" lon="13.5601743"><ele>1202.0</ele><time>2026-05-03T07:51:15.895Z</time></trkpt><trkpt lat="42.3589329" lon="13.5603266"><ele>1202.0</ele><time>2026-05-03T07:51:16.896Z</time></trkpt><trkpt lat="42.3589232" lon="13.5604823"><ele>1202.0</ele><time>2026-05-03T07:51:17.895Z</time></trkpt><trkpt lat="42.358922" lon="13.5606426"><ele>1201.75</ele><time>2026-05-03T07:51:18.895Z</time></trkpt><trkpt lat="42.3589201" lon="13.5608044"><ele>1201.5</ele><time>2026-05-03T07:51:19.896Z</time></trkpt><trkpt lat="42.358917" lon="13.560969"><ele>1201.25</ele><time>2026-05-03T07:51:20.895Z</time></trkpt><trkpt lat="42.3589138" lon="13.5611261"><ele>1201.0</ele><time>2026-05-03T07:51:21.896Z</time></trkpt><trkpt lat="42.3589102" lon="13.5612801"><ele>1200.25</ele><time>2026-05-03T07:51:22.896Z</time></trkpt><trkpt lat="42.3589049" lon="13.5614354"><ele>1199.5</ele><time>2026-05-03T07:51:23.895Z</time></trkpt><trkpt lat="42.3589003" lon="13.5615938"><ele>1198.75</ele><time>2026-05-03T07:51:24.895Z</time></trkpt><trkpt lat="42.3588947" lon="13.5617503"><ele>1198.0</ele><time>2026-05-03T07:51:25.895Z</time></trkpt><trkpt lat="42.3588894" lon="13.5619043"><ele>1198.0</ele><time>2026-05-03T07:51:26.895Z</time></trkpt><trkpt lat="42.3588859" lon="13.5620548"><ele>1198.0</ele><time>2026-05-03T07:51:27.895Z</time></trkpt><trkpt lat="42.3588801" lon="13.5622022"><ele>1198.0</ele><time>2026-05-03T07:51:28.895Z</time></trkpt><trkpt lat="42.3588752" lon="13.5623468"><ele>1198.0</ele><time>2026-05-03T07:51:29.896Z</time></trkpt><trkpt lat="42.3588751" lon="13.5624946"><ele>1198.0</ele><time>2026-05-03T07:51:30.895Z</time></trkpt><trkpt lat="42.3588791" lon="13.5626377"><ele>1198.0</ele><time>2026-05-03T07:51:31.895Z</time></trkpt><trkpt lat="42.3588873" lon="13.562782"><ele>1198.0</ele><time>2026-05-03T07:51:32.896Z</time></trkpt><trkpt lat="42.3588954" lon="13.5629267"><ele>1198.0</ele><time>2026-05-03T07:51:33.896Z</time></trkpt><trkpt lat="42.3589126" lon="13.5630721"><ele>1198.0</ele><time>2026-05-03T07:51:34.896Z</time></trkpt><trkpt lat="42.3589355" lon="13.5632151"><ele>1198.0</ele><time>2026-05-03T07:51:35.895Z</time></trkpt><trkpt lat="42.3589614" lon="13.5633571"><ele>1196.4</ele><time>2026-05-03T07:51:36.895Z</time></trkpt><trkpt lat="42.3589836" lon="13.5635022"><ele>1194.8</ele><time>2026-05-03T07:51:37.895Z</time></trkpt><trkpt lat="42.3589956" lon="13.5636395"><ele>1193.2</ele><time>2026-05-03T07:51:38.896Z</time></trkpt><trkpt lat="42.3589911" lon="13.5637771"><ele>1191.6</ele><time>2026-05-03T07:51:39.896Z</time></trkpt><trkpt lat="42.3589823" lon="13.5639078"><ele>1190.0</ele><time>2026-05-03T07:51:40.895Z</time></trkpt><trkpt lat="42.3589783" lon="13.564036"><ele>1190.5</ele><time>2026-05-03T07:51:41.896Z</time></trkpt><trkpt lat="42.3589822" lon="13.5641525"><ele>1191.0</ele><time>2026-05-03T07:51:42.895Z</time></trkpt><trkpt lat="42.3589885" lon="13.5642579"><ele>1191.5</ele><time>2026-05-03T07:51:43.895Z</time></trkpt><trkpt lat="42.359001" lon="13.5643687"><ele>1192.0</ele><time>2026-05-03T07:51:44.895Z</time></trkpt><trkpt lat="42.3590077" lon="13.5644793"><ele>1192.5</ele><time>2026-05-03T07:51:45.896Z</time></trkpt><trkpt lat="42.3590009" lon="13.564595"><ele>1193.0</ele><time>2026-05-03T07:51:46.895Z</time></trkpt><trkpt lat="42.3589784" lon="13.5647103"><ele>1193.0</ele><time>2026-05-03T07:51:47.896Z</time></trkpt><trkpt lat="42.3589467" lon="13.5648316"><ele>1193.0</ele><time>2026-05-03T07:51:48.895Z</time></trkpt><trkpt lat="42.3589167" lon="13.5649617"><ele>1193.0</ele><time>2026-05-03T07:51:49.895Z</time></trkpt><trkpt lat="42.3588893" lon="13.5650991"><ele>1193.0</ele><time>2026-05-03T07:51:50.896Z</time></trkpt><trkpt lat="42.3588662" lon="13.5652455"><ele>1193.0</ele><time>2026-05-03T07:51:51.896Z</time></trkpt><trkpt lat="42.3588445" lon="13.5653947"><ele>1192.5</ele><time>2026-05-03T07:51:52.895Z</time></trkpt><trkpt lat="42.3588299" lon="13.565553"><ele>1192.0</ele><time>2026-05-03T07:51:53.896Z</time></trkpt><trkpt lat="42.3588197" lon="13.5657129"><ele>1191.5</ele><time>2026-05-03T07:51:54.896Z</time></trkpt><trkpt lat="42.3588103" lon="13.5658709"><ele>1191.0</ele><time>2026-05-03T07:51:55.895Z</time></trkpt><trkpt lat="42.3588077" lon="13.5660361"><ele>1191.0</ele><time>2026-05-03T07:51:56.895Z</time></trkpt><trkpt lat="42.3588153" lon="13.566209"><ele>1191.0</ele><time>2026-05-03T07:51:57.896Z</time></trkpt><trkpt lat="42.3588211" lon="13.5663873"><ele>1191.0</ele><time>2026-05-03T07:51:58.895Z</time></trkpt><trkpt lat="42.3588233" lon="13.5665719"><ele>1191.0</ele><time>2026-05-03T07:51:59.895Z</time></trkpt><trkpt lat="42.358824" lon="13.5667583"><ele>1191.0</ele><time>2026-05-03T07:52:00.895Z</time></trkpt><trkpt lat="42.3588228" lon="13.5669447"><ele>1191.0</ele><time>2026-05-03T07:52:01.896Z</time></trkpt><trkpt lat="42.3588194" lon="13.5671309"><ele>1191.0</ele><time>2026-05-03T07:52:02.896Z</time></trkpt><trkpt lat="42.3588135" lon="13.567316"><ele>1191.0</ele><time>2026-05-03T07:52:03.895Z</time></trkpt><trkpt lat="42.3588093" lon="13.5674926"><ele>1191.0</ele><time>2026-05-03T07:52:04.896Z</time></trkpt><trkpt lat="42.358804" lon="13.5676764"><ele>1191.0</ele><time>2026-05-03T07:52:05.895Z</time></trkpt><trkpt lat="42.3587918" lon="13.5678647"><ele>1191.0</ele><time>2026-05-03T07:52:06.895Z</time></trkpt><trkpt lat="42.3587743" lon="13.5680482"><ele>1191.0</ele><time>2026-05-03T07:52:07.896Z</time></trkpt><trkpt lat="42.3587541" lon="13.5682287"><ele>1191.0</ele><time>2026-05-03T07:52:08.895Z</time></trkpt><trkpt lat="42.3587301" lon="13.5684042"><ele>1191.0</ele><time>2026-05-03T07:52:09.895Z</time></trkpt><trkpt lat="42.358706" lon="13.568576"><ele>1191.0</ele><time>2026-05-03T07:52:10.895Z</time></trkpt><trkpt lat="42.3586797" lon="13.5687455"><ele>1191.0</ele><time>2026-05-03T07:52:11.895Z</time></trkpt><trkpt lat="42.3586459" lon="13.568911"><ele>1189.25</ele><time>2026-05-03T07:52:12.896Z</time></trkpt><trkpt lat="42.3585941" lon="13.5690668"><ele>1187.5</ele><time>2026-05-03T07:52:13.895Z</time></trkpt><trkpt lat="42.358524" lon="13.5692111"><ele>1185.75</ele><time>2026-05-03T07:52:14.896Z</time></trkpt><trkpt lat="42.3584477" lon="13.569339"><ele>1184.0</ele><time>2026-05-03T07:52:15.895Z</time></trkpt><trkpt lat="42.3583715" lon="13.5694594"><ele>1186.0</ele><time>2026-05-03T07:52:16.896Z</time></trkpt><trkpt lat="42.3582974" lon="13.5695724"><ele>1188.0</ele><time>2026-05-03T07:52:17.895Z</time></trkpt><trkpt lat="42.3582289" lon="13.5696802"><ele>1190.0</ele><time>2026-05-03T07:52:18.895Z</time></trkpt><trkpt lat="42.3581633" lon="13.5697878"><ele>1192.0</ele><time>2026-05-03T07:52:19.895Z</time></trkpt><trkpt lat="42.358103" lon="13.5698919"><ele>1194.0</ele><time>2026-05-03T07:52:20.895Z</time></trkpt><trkpt lat="42.3580508" lon="13.5699837"><ele>1193.8</ele><time>2026-05-03T07:52:21.895Z</time></trkpt><trkpt lat="42.3580061" lon="13.5700612"><ele>1193.6000000000001</ele><time>2026-05-03T07:52:22.897Z</time></trkpt><trkpt lat="42.3579336" lon="13.5701864"><ele>1193.4</ele><time>2026-05-03T07:52:24.895Z</time></trkpt><trkpt lat="42.3578878" lon="13.570269"><ele>1193.2</ele><time>2026-05-03T07:52:25.895Z</time></trkpt><trkpt lat="42.3578354" lon="13.5703636"><ele>1193.0</ele><time>2026-05-03T07:52:26.895Z</time></trkpt><trkpt lat="42.3577794" lon="13.5704772"><ele>1191.25</ele><time>2026-05-03T07:52:27.896Z</time></trkpt><trkpt lat="42.3577245" lon="13.5706044"><ele>1189.5</ele><time>2026-05-03T07:52:28.895Z</time></trkpt><trkpt lat="42.3576673" lon="13.5707421"><ele>1187.75</ele><time>2026-05-03T07:52:29.896Z</time></trkpt><trkpt lat="42.3576037" lon="13.5708851"><ele>1186.0</ele><time>2026-05-03T07:52:30.896Z</time></trkpt><trkpt lat="42.357538" lon="13.5710248"><ele>1186.0</ele><time>2026-05-03T07:52:31.896Z</time></trkpt><trkpt lat="42.3574706" lon="13.5711592"><ele>1186.0</ele><time>2026-05-03T07:52:32.896Z</time></trkpt><trkpt lat="42.3573998" lon="13.5712901"><ele>1186.0</ele><time>2026-05-03T07:52:33.896Z</time></trkpt><trkpt lat="42.3573238" lon="13.571417"><ele>1186.0</ele><time>2026-05-03T07:52:34.895Z</time></trkpt><trkpt lat="42.357249" lon="13.5715415"><ele>1186.0</ele><time>2026-05-03T07:52:35.895Z</time></trkpt><trkpt lat="42.3571737" lon="13.5716683"><ele>1186.0</ele><time>2026-05-03T07:52:36.895Z</time></trkpt><trkpt lat="42.3570966" lon="13.5718067"><ele>1186.0</ele><time>2026-05-03T07:52:37.895Z</time></trkpt><trkpt lat="42.3570163" lon="13.5719512"><ele>1186.0</ele><time>2026-05-03T07:52:38.896Z</time></trkpt><trkpt lat="42.3569346" lon="13.5720857"><ele>1186.0</ele><time>2026-05-03T07:52:39.896Z</time></trkpt><trkpt lat="42.3568528" lon="13.5722024"><ele>1186.0</ele><time>2026-05-03T07:52:40.895Z</time></trkpt><trkpt lat="42.3567701" lon="13.5723011"><ele>1186.0</ele><time>2026-05-03T07:52:41.895Z</time></trkpt><trkpt lat="42.3566836" lon="13.5723866"><ele>1186.0</ele><time>2026-05-03T07:52:42.896Z</time></trkpt><trkpt lat="42.3565839" lon="13.5724541"><ele>1186.0</ele><time>2026-05-03T07:52:43.895Z</time></trkpt><trkpt lat="42.3564838" lon="13.5724789"><ele>1186.0</ele><time>2026-05-03T07:52:44.895Z</time></trkpt><trkpt lat="42.3563801" lon="13.5724665"><ele>1186.0</ele><time>2026-05-03T07:52:45.895Z</time></trkpt><trkpt lat="42.3562765" lon="13.5724283"><ele>1186.0</ele><time>2026-05-03T07:52:46.896Z</time></trkpt><trkpt lat="42.3561574" lon="13.5723999"><ele>1186.0</ele><time>2026-05-03T07:52:47.896Z</time></trkpt><trkpt lat="42.3560334" lon="13.5724027"><ele>1185.0</ele><time>2026-05-03T07:52:48.895Z</time></trkpt><trkpt lat="42.3559127" lon="13.5724266"><ele>1184.0</ele><time>2026-05-03T07:52:49.896Z</time></trkpt><trkpt lat="42.3557941" lon="13.5724635"><ele>1183.0</ele><time>2026-05-03T07:52:50.895Z</time></trkpt><trkpt lat="42.3556775" lon="13.5725082"><ele>1182.0</ele><time>2026-05-03T07:52:51.896Z</time></trkpt><trkpt lat="42.3555558" lon="13.5725677"><ele>1183.75</ele><time>2026-05-03T07:52:52.896Z</time></trkpt><trkpt lat="42.3554329" lon="13.5726367"><ele>1185.5</ele><time>2026-05-03T07:52:53.896Z</time></trkpt><trkpt lat="42.3553107" lon="13.5727141"><ele>1187.25</ele><time>2026-05-03T07:52:54.895Z</time></trkpt><trkpt lat="42.3551909" lon="13.5727848"><ele>1189.0</ele><time>2026-05-03T07:52:55.895Z</time></trkpt><trkpt lat="42.3550732" lon="13.5728474"><ele>1185.75</ele><time>2026-05-03T07:52:56.895Z</time></trkpt><trkpt lat="42.3549625" lon="13.5729093"><ele>1182.5</ele><time>2026-05-03T07:52:57.895Z</time></trkpt><trkpt lat="42.3548548" lon="13.57297"><ele>1179.25</ele><time>2026-05-03T07:52:58.896Z</time></trkpt><trkpt lat="42.3547436" lon="13.573032"><ele>1176.0</ele><time>2026-05-03T07:52:59.895Z</time></trkpt><trkpt lat="42.3546347" lon="13.5730891"><ele>1175.8333333333333</ele><time>2026-05-03T07:53:00.895Z</time></trkpt><trkpt lat="42.354532" lon="13.5731453"><ele>1175.6666666666667</ele><time>2026-05-03T07:53:01.896Z</time></trkpt><trkpt lat="42.3544402" lon="13.5731973"><ele>1175.5</ele><time>2026-05-03T07:53:02.895Z</time></trkpt><trkpt lat="42.3543672" lon="13.5732371"><ele>1175.3333333333335</ele><time>2026-05-03T07:53:03.895Z</time></trkpt><trkpt lat="42.3542962" lon="13.5732761"><ele>1175.1666666666667</ele><time>2026-05-03T07:53:04.895Z</time></trkpt><trkpt lat="42.3542279" lon="13.5733137"><ele>1175.0</ele><time>2026-05-03T07:53:05.895Z</time></trkpt><trkpt lat="42.354167" lon="13.5733487"><ele>1175.0</ele><time>2026-05-03T07:53:06.895Z</time></trkpt><trkpt lat="42.3540542" lon="13.5734191"><ele>1175.0</ele><time>2026-05-03T07:53:08.895Z</time></trkpt><trkpt lat="42.3539454" lon="13.5734896"><ele>1175.0</ele><time>2026-05-03T07:53:10.895Z</time></trkpt><trkpt lat="42.3538838" lon="13.5735308"><ele>1175.0</ele><time>2026-05-03T07:53:11.895Z</time></trkpt><trkpt lat="42.3538271" lon="13.5735689"><ele>1175.0</ele><time>2026-05-03T07:53:12.896Z</time></trkpt><trkpt lat="42.3537684" lon="13.5736085"><ele>1175.0</ele><time>2026-05-03T07:53:13.895Z</time></trkpt><trkpt lat="42.35366" lon="13.5736789"><ele>1172.8</ele><time>2026-05-03T07:53:15.895Z</time></trkpt><trkpt lat="42.3535548" lon="13.5737444"><ele>1170.6</ele><time>2026-05-03T07:53:17.895Z</time></trkpt><trkpt lat="42.3534433" lon="13.5738186"><ele>1168.4</ele><time>2026-05-03T07:53:19.896Z</time></trkpt><trkpt lat="42.3533859" lon="13.5738557"><ele>1166.2</ele><time>2026-05-03T07:53:20.895Z</time></trkpt><trkpt lat="42.3532752" lon="13.5739159"><ele>1164.0</ele><time>2026-05-03T07:53:22.895Z</time></trkpt><trkpt lat="42.3531773" lon="13.5739733"><ele>1164.0</ele><time>2026-05-03T07:53:24.895Z</time></trkpt><trkpt lat="42.3530842" lon="13.5740372"><ele>1164.0</ele><time>2026-05-03T07:53:26.896Z</time></trkpt><trkpt lat="42.3529918" lon="13.5741185"><ele>1164.0</ele><time>2026-05-03T07:53:28.895Z</time></trkpt><trkpt lat="42.3528884" lon="13.57419"><ele>1164.0</ele><time>2026-05-03T07:53:30.895Z</time></trkpt><trkpt lat="42.3527708" lon="13.5742312"><ele>1162.5</ele><time>2026-05-03T07:53:32.896Z</time></trkpt><trkpt lat="42.3526477" lon="13.5742326"><ele>1161.0</ele><time>2026-05-03T07:53:34.896Z</time></trkpt><trkpt lat="42.3525322" lon="13.5741965"><ele>1159.5</ele><time>2026-05-03T07:53:36.896Z</time></trkpt><trkpt lat="42.3524248" lon="13.5741463"><ele>1158.0</ele><time>2026-05-03T07:53:38.896Z</time></trkpt><trkpt lat="42.3523095" lon="13.5740765"><ele>1158.0</ele><time>2026-05-03T07:53:40.895Z</time></trkpt><trkpt lat="42.3522499" lon="13.574031"><ele>1158.0</ele><time>2026-05-03T07:53:41.896Z</time></trkpt><trkpt lat="42.3521826" lon="13.5739762"><ele>1158.0</ele><time>2026-05-03T07:53:42.895Z</time></trkpt><trkpt lat="42.3521048" lon="13.5739085"><ele>1158.0</ele><time>2026-05-03T07:53:43.895Z</time></trkpt><trkpt lat="42.3520197" lon="13.5738383"><ele>1158.0</ele><time>2026-05-03T07:53:44.895Z</time></trkpt><trkpt lat="42.3519243" lon="13.573768"><ele>1158.0</ele><time>2026-05-03T07:53:45.895Z</time></trkpt><trkpt lat="42.3518266" lon="13.5736993"><ele>1157.0</ele><time>2026-05-03T07:53:46.896Z</time></trkpt><trkpt lat="42.3517293" lon="13.5736312"><ele>1156.0</ele><time>2026-05-03T07:53:47.896Z</time></trkpt><trkpt lat="42.3516378" lon="13.5735654"><ele>1155.0</ele><time>2026-05-03T07:53:48.895Z</time></trkpt><trkpt lat="42.3515511" lon="13.5734992"><ele>1154.0</ele><time>2026-05-03T07:53:49.896Z</time></trkpt><trkpt lat="42.3514739" lon="13.5734278"><ele>1153.0</ele><time>2026-05-03T07:53:50.895Z</time></trkpt><trkpt lat="42.3513971" lon="13.573348"><ele>1152.2</ele><time>2026-05-03T07:53:51.895Z</time></trkpt><trkpt lat="42.3513127" lon="13.5732581"><ele>1151.4</ele><time>2026-05-03T07:53:52.895Z</time></trkpt><trkpt lat="42.3512374" lon="13.5731647"><ele>1150.6000000000001</ele><time>2026-05-03T07:53:53.895Z</time></trkpt><trkpt lat="42.351165" lon="13.5730679"><ele>1149.8</ele><time>2026-05-03T07:53:54.895Z</time></trkpt><trkpt lat="42.3510929" lon="13.5729637"><ele>1149.0</ele><time>2026-05-03T07:53:55.896Z</time></trkpt><trkpt lat="42.3510232" lon="13.5728465"><ele>1149.0</ele><time>2026-05-03T07:53:56.896Z</time></trkpt><trkpt lat="42.3509572" lon="13.5727308"><ele>1149.0</ele><time>2026-05-03T07:53:57.895Z</time></trkpt><trkpt lat="42.3508832" lon="13.5726228"><ele>1149.0</ele><time>2026-05-03T07:53:58.895Z</time></trkpt><trkpt lat="42.3508034" lon="13.5725327"><ele>1149.0</ele><time>2026-05-03T07:53:59.895Z</time></trkpt><trkpt lat="42.3507065" lon="13.5724537"><ele>1149.0</ele><time>2026-05-03T07:54:00.895Z</time></trkpt><trkpt lat="42.3506028" lon="13.5723907"><ele>1147.0</ele><time>2026-05-03T07:54:01.896Z</time></trkpt><trkpt lat="42.3505057" lon="13.5723343"><ele>1145.0</ele><time>2026-05-03T07:54:02.897Z</time></trkpt><trkpt lat="42.3504172" lon="13.5722703"><ele>1143.0</ele><time>2026-05-03T07:54:03.895Z</time></trkpt><trkpt lat="42.3503296" lon="13.5721916"><ele>1141.0</ele><time>2026-05-03T07:54:04.895Z</time></trkpt><trkpt lat="42.3502474" lon="13.5721151"><ele>1139.0</ele><time>2026-05-03T07:54:05.896Z</time></trkpt><trkpt lat="42.3501732" lon="13.5720498"><ele>1140.0</ele><time>2026-05-03T07:54:06.897Z</time></trkpt><trkpt lat="42.3501067" lon="13.5719916"><ele>1141.0</ele><time>2026-05-03T07:54:07.895Z</time></trkpt><trkpt lat="42.350046" lon="13.5719428"><ele>1142.0</ele><time>2026-05-03T07:54:08.895Z</time></trkpt><trkpt lat="42.3499899" lon="13.5718991"><ele>1143.0</ele><time>2026-05-03T07:54:09.896Z</time></trkpt><trkpt lat="42.3498844" lon="13.571807"><ele>1144.0</ele><time>2026-05-03T07:54:11.895Z</time></trkpt><trkpt lat="42.3497952" lon="13.5717139"><ele>1144.0</ele><time>2026-05-03T07:54:13.896Z</time></trkpt><trkpt lat="42.3497123" lon="13.5715935"><ele>1144.0</ele><time>2026-05-03T07:54:15.896Z</time></trkpt><trkpt lat="42.3496636" lon="13.5715246"><ele>1144.0</ele><time>2026-05-03T07:54:16.895Z</time></trkpt><trkpt lat="42.3496072" lon="13.5714611"><ele>1144.0</ele><time>2026-05-03T07:54:17.895Z</time></trkpt><trkpt lat="42.3495421" lon="13.5714024"><ele>1144.0</ele><time>2026-05-03T07:54:18.895Z</time></trkpt><trkpt lat="42.3494713" lon="13.5713558"><ele>1144.0</ele><time>2026-05-03T07:54:19.896Z</time></trkpt><trkpt lat="42.3493899" lon="13.5713244"><ele>1141.2</ele><time>2026-05-03T07:54:20.895Z</time></trkpt><trkpt lat="42.3492995" lon="13.5712956"><ele>1138.4</ele><time>2026-05-03T07:54:21.895Z</time></trkpt><trkpt lat="42.3492094" lon="13.571281"><ele>1135.6</ele><time>2026-05-03T07:54:22.896Z</time></trkpt><trkpt lat="42.3491143" lon="13.5712687"><ele>1132.8</ele><time>2026-05-03T07:54:23.896Z</time></trkpt><trkpt lat="42.3490212" lon="13.5712558"><ele>1130.0</ele><time>2026-05-03T07:54:24.895Z</time></trkpt><trkpt lat="42.3489343" lon="13.5712392"><ele>1129.8333333333335</ele><time>2026-05-03T07:54:25.895Z</time></trkpt><trkpt lat="42.3488535" lon="13.5712134"><ele>1129.6666666666667</ele><time>2026-05-03T07:54:26.895Z</time></trkpt><trkpt lat="42.3487783" lon="13.5711864"><ele>1129.5</ele><time>2026-05-03T07:54:27.895Z</time></trkpt><trkpt lat="42.3487009" lon="13.5711506"><ele>1129.3333333333333</ele><time>2026-05-03T07:54:28.895Z</time></trkpt><trkpt lat="42.3486191" lon="13.5711061"><ele>1129.1666666666665</ele><time>2026-05-03T07:54:29.895Z</time></trkpt><trkpt lat="42.3485395" lon="13.5710535"><ele>1129.0</ele><time>2026-05-03T07:54:30.896Z</time></trkpt><trkpt lat="42.3484616" lon="13.5709959"><ele>1129.0</ele><time>2026-05-03T07:54:31.896Z</time></trkpt><trkpt lat="42.3483812" lon="13.5709359"><ele>1129.0</ele><time>2026-05-03T07:54:32.896Z</time></trkpt><trkpt lat="42.3483052" lon="13.570877"><ele>1129.0</ele><time>2026-05-03T07:54:33.895Z</time></trkpt><trkpt lat="42.3482333" lon="13.5708111"><ele>1129.0</ele><time>2026-05-03T07:54:34.895Z</time></trkpt><trkpt lat="42.3481705" lon="13.5707305"><ele>1129.0</ele><time>2026-05-03T07:54:35.895Z</time></trkpt><trkpt lat="42.3481142" lon="13.5706334"><ele>1129.0</ele><time>2026-05-03T07:54:36.895Z</time></trkpt><trkpt lat="42.3480647" lon="13.5705262"><ele>1127.4</ele><time>2026-05-03T07:54:37.896Z</time></trkpt><trkpt lat="42.3480188" lon="13.5704152"><ele>1125.8000000000002</ele><time>2026-05-03T07:54:38.896Z</time></trkpt><trkpt lat="42.3479696" lon="13.5703047"><ele>1124.1999999999998</ele><time>2026-05-03T07:54:39.895Z</time></trkpt><trkpt lat="42.3479132" lon="13.5702007"><ele>1122.6</ele><time>2026-05-03T07:54:40.895Z</time></trkpt><trkpt lat="42.3478476" lon="13.5701016"><ele>1121.0</ele><time>2026-05-03T07:54:41.895Z</time></trkpt><trkpt lat="42.3477757" lon="13.570015"><ele>1121.0</ele><time>2026-05-03T07:54:42.896Z</time></trkpt><trkpt lat="42.3476994" lon="13.5699292"><ele>1121.0</ele><time>2026-05-03T07:54:43.895Z</time></trkpt><trkpt lat="42.3476249" lon="13.5698494"><ele>1121.0</ele><time>2026-05-03T07:54:44.896Z</time></trkpt><trkpt lat="42.3475446" lon="13.5697884"><ele>1121.0</ele><time>2026-05-03T07:54:45.895Z</time></trkpt><trkpt lat="42.347455" lon="13.5697488"><ele>1121.0</ele><time>2026-05-03T07:54:46.895Z</time></trkpt><trkpt lat="42.3473629" lon="13.5697328"><ele>1121.0</ele><time>2026-05-03T07:54:47.895Z</time></trkpt><trkpt lat="42.3472691" lon="13.5697412"><ele>1121.0</ele><time>2026-05-03T07:54:48.895Z</time></trkpt><trkpt lat="42.34717" lon="13.5697617"><ele>1121.0</ele><time>2026-05-03T07:54:49.896Z</time></trkpt><trkpt lat="42.3470724" lon="13.5698021"><ele>1121.0</ele><time>2026-05-03T07:54:50.896Z</time></trkpt><trkpt lat="42.3469772" lon="13.5698451"><ele>1121.0</ele><time>2026-05-03T07:54:51.895Z</time></trkpt><trkpt lat="42.3468797" lon="13.569876"><ele>1120.6</ele><time>2026-05-03T07:54:52.896Z</time></trkpt><trkpt lat="42.3467788" lon="13.5698914"><ele>1120.1999999999998</ele><time>2026-05-03T07:54:53.896Z</time></trkpt><trkpt lat="42.3466759" lon="13.5698924"><ele>1119.8000000000002</ele><time>2026-05-03T07:54:54.896Z</time></trkpt><trkpt lat="42.3465731" lon="13.5698961"><ele>1119.4</ele><time>2026-05-03T07:54:55.895Z</time></trkpt><trkpt lat="42.3464682" lon="13.5699172"><ele>1119.0</ele><time>2026-05-03T07:54:56.895Z</time></trkpt><trkpt lat="42.3463695" lon="13.5699512"><ele>1117.8</ele><time>2026-05-03T07:54:57.896Z</time></trkpt><trkpt lat="42.3462801" lon="13.5700038"><ele>1116.6000000000001</ele><time>2026-05-03T07:54:58.895Z</time></trkpt><trkpt lat="42.3461984" lon="13.5700791"><ele>1115.4</ele><time>2026-05-03T07:54:59.895Z</time></trkpt><trkpt lat="42.3461208" lon="13.570163"><ele>1114.2</ele><time>2026-05-03T07:55:00.896Z</time></trkpt><trkpt lat="42.3460438" lon="13.5702481"><ele>1113.0</ele><time>2026-05-03T07:55:01.895Z</time></trkpt><trkpt lat="42.3459661" lon="13.5703308"><ele>1113.4</ele><time>2026-05-03T07:55:02.895Z</time></trkpt><trkpt lat="42.3458953" lon="13.570409"><ele>1113.8</ele><time>2026-05-03T07:55:03.896Z</time></trkpt><trkpt lat="42.3458345" lon="13.5705172"><ele>1114.2</ele><time>2026-05-03T07:55:04.895Z</time></trkpt><trkpt lat="42.3457912" lon="13.5706463"><ele>1114.6</ele><time>2026-05-03T07:55:05.896Z</time></trkpt><trkpt lat="42.3457633" lon="13.5707852"><ele>1115.0</ele><time>2026-05-03T07:55:06.896Z</time></trkpt><trkpt lat="42.3457396" lon="13.5709297"><ele>1115.0</ele><time>2026-05-03T07:55:07.895Z</time></trkpt><trkpt lat="42.3456917" lon="13.5710579"><ele>1115.0</ele><time>2026-05-03T07:55:08.895Z</time></trkpt><trkpt lat="42.3456199" lon="13.5711637"><ele>1115.0</ele><time>2026-05-03T07:55:09.895Z</time></trkpt><trkpt lat="42.3455365" lon="13.5712519"><ele>1115.0</ele><time>2026-05-03T07:55:10.895Z</time></trkpt><trkpt lat="42.3454459" lon="13.5713405"><ele>1115.0</ele><time>2026-05-03T07:55:11.895Z</time></trkpt><trkpt lat="42.3453591" lon="13.571426"><ele>1113.6</ele><time>2026-05-03T07:55:12.895Z</time></trkpt><trkpt lat="42.3452747" lon="13.5715171"><ele>1112.2</ele><time>2026-05-03T07:55:13.896Z</time></trkpt><trkpt lat="42.345201" lon="13.5716236"><ele>1110.8</ele><time>2026-05-03T07:55:14.896Z</time></trkpt><trkpt lat="42.3451413" lon="13.5717489"><ele>1109.4</ele><time>2026-05-03T07:55:15.896Z</time></trkpt><trkpt lat="42.3450985" lon="13.5718874"><ele>1108.0</ele><time>2026-05-03T07:55:16.895Z</time></trkpt><trkpt lat="42.3450582" lon="13.572024"><ele>1108.0</ele><time>2026-05-03T07:55:17.896Z</time></trkpt><trkpt lat="42.3450137" lon="13.5721586"><ele>1108.0</ele><time>2026-05-03T07:55:18.895Z</time></trkpt><trkpt lat="42.3449629" lon="13.5722871"><ele>1108.0</ele><time>2026-05-03T07:55:19.896Z</time></trkpt><trkpt lat="42.3449007" lon="13.5724112"><ele>1108.0</ele><time>2026-05-03T07:55:20.895Z</time></trkpt><trkpt lat="42.3448303" lon="13.572527"><ele>1108.0</ele><time>2026-05-03T07:55:21.895Z</time></trkpt><trkpt lat="42.3447567" lon="13.5726315"><ele>1107.6666666666665</ele><time>2026-05-03T07:55:22.896Z</time></trkpt><trkpt lat="42.3446883" lon="13.5727269"><ele>1107.3333333333333</ele><time>2026-05-03T07:55:23.895Z</time></trkpt><trkpt lat="42.344628" lon="13.5728158"><ele>1107.0</ele><time>2026-05-03T07:55:24.896Z</time></trkpt><trkpt lat="42.3445699" lon="13.5728939"><ele>1106.6666666666667</ele><time>2026-05-03T07:55:25.896Z</time></trkpt><trkpt lat="42.3445126" lon="13.5729608"><ele>1106.3333333333335</ele><time>2026-05-03T07:55:26.896Z</time></trkpt><trkpt lat="42.3444605" lon="13.5730228"><ele>1106.0</ele><time>2026-05-03T07:55:27.895Z</time></trkpt><trkpt lat="42.3444081" lon="13.5730809"><ele>1106.0</ele><time>2026-05-03T07:55:28.895Z</time></trkpt><trkpt lat="42.3443169" lon="13.573191"><ele>1106.0</ele><time>2026-05-03T07:55:30.895Z</time></trkpt><trkpt lat="42.3442288" lon="13.5732944"><ele>1106.0</ele><time>2026-05-03T07:55:32.896Z</time></trkpt><trkpt lat="42.3441805" lon="13.5733512"><ele>1106.0</ele><time>2026-05-03T07:55:33.895Z</time></trkpt><trkpt lat="42.3440869" lon="13.573457"><ele>1106.0</ele><time>2026-05-03T07:55:35.896Z</time></trkpt><trkpt lat="42.3440367" lon="13.5735124"><ele>1106.0</ele><time>2026-05-03T07:55:36.896Z</time></trkpt><trkpt lat="42.3439857" lon="13.5735714"><ele>1106.0</ele><time>2026-05-03T07:55:37.895Z</time></trkpt><trkpt lat="42.3439337" lon="13.5736327"><ele>1106.0</ele><time>2026-05-03T07:55:38.895Z</time></trkpt><trkpt lat="42.3438824" lon="13.5736938"><ele>1106.0</ele><time>2026-05-03T07:55:39.895Z</time></trkpt><trkpt lat="42.3438335" lon="13.5737546"><ele>1106.0</ele><time>2026-05-03T07:55:40.896Z</time></trkpt><trkpt lat="42.3437882" lon="13.5738155"><ele>1106.0</ele><time>2026-05-03T07:55:41.895Z</time></trkpt><trkpt lat="42.3437023" lon="13.5739282"><ele>1108.0</ele><time>2026-05-03T07:55:43.895Z</time></trkpt><trkpt lat="42.3452747" lon="13.5715171"><ele>1108.0</ele><time>2026-05-03T07:55:13.896Z</time></trkpt><trkpt lat="42.345201" lon="13.5716236"><ele>1108.0</ele><time>2026-05-03T07:55:14.896Z</time></trkpt><trkpt lat="42.3451413" lon="13.5717489"><ele>1108.0</ele><time>2026-05-03T07:55:15.896Z</time></trkpt><trkpt lat="42.3450985" lon="13.5718874"><ele>1108.0</ele><time>2026-05-03T07:55:16.895Z</time></trkpt><trkpt lat="42.3450582" lon="13.572024"><ele>1108.0</ele><time>2026-05-03T07:55:17.896Z</time></trkpt><trkpt lat="42.3450137" lon="13.5721586"><ele>1108.0</ele><time>2026-05-03T07:55:18.895Z</time></trkpt><trkpt lat="42.3449629" lon="13.5722871"><ele>1108.0</ele><time>2026-05-03T07:55:19.896Z</time></trkpt><trkpt lat="42.3449007" lon="13.5724112"><ele>1108.0</ele><time>2026-05-03T07:55:20.895Z</time></trkpt><trkpt lat="42.3448303" lon="13.572527"><ele>1108.0</ele><time>2026-05-03T07:55:21.895Z</time></trkpt><trkpt lat="42.3447567" lon="13.5726315"><ele>1108.0</ele><time>2026-05-03T07:55:22.896Z</time></trkpt><trkpt lat="42.3446883" lon="13.5727269"><ele>1107.6666666666665</ele><time>2026-05-03T07:55:23.895Z</time></trkpt><trkpt lat="42.344628" lon="13.5728158"><ele>1107.3333333333333</ele><time>2026-05-03T07:55:24.896Z</time></trkpt><trkpt lat="42.3445699" lon="13.5728939"><ele>1107.0</ele><time>2026-05-03T07:55:25.896Z</time></trkpt><trkpt lat="42.3445126" lon="13.5729608"><ele>1106.6666666666667</ele><time>2026-05-03T07:55:26.896Z</time></trkpt><trkpt lat="42.3444605" lon="13.5730228"><ele>1106.3333333333335</ele><time>2026-05-03T07:55:27.895Z</time></trkpt><trkpt lat="42.3444081" lon="13.5730809"><ele>1106.0</ele><time>2026-05-03T07:55:28.895Z</time></trkpt><trkpt lat="42.3443169" lon="13.573191"><ele>1106.0</ele><time>2026-05-03T07:55:30.895Z</time></trkpt><trkpt lat="42.3442288" lon="13.5732944"><ele>1106.0</ele><time>2026-05-03T07:55:32.896Z</time></trkpt><trkpt lat="42.3441805" lon="13.5733512"><ele>1106.0</ele><time>2026-05-03T07:55:33.895Z</time></trkpt><trkpt lat="42.3440869" lon="13.573457"><ele>1106.0</ele><time>2026-05-03T07:55:35.896Z</time></trkpt><trkpt lat="42.3440367" lon="13.5735124"><ele>1106.0</ele><time>2026-05-03T07:55:36.896Z</time></trkpt><trkpt lat="42.3439857" lon="13.5735714"><ele>1106.0</ele><time>2026-05-03T07:55:37.895Z</time></trkpt><trkpt lat="42.3439337" lon="13.5736327"><ele>1106.6666666666667</ele><time>2026-05-03T07:55:38.895Z</time></trkpt><trkpt lat="42.3438824" lon="13.5736938"><ele>1107.3333333333335</ele><time>2026-05-03T07:55:39.895Z</time></trkpt><trkpt lat="42.3438335" lon="13.5737546"><ele>1108.0</ele><time>2026-05-03T07:55:40.896Z</time></trkpt><trkpt lat="42.3437882" lon="13.5738155"><ele>1108.6666666666667</ele><time>2026-05-03T07:55:41.895Z</time></trkpt><trkpt lat="42.3437023" lon="13.5739282"><ele>1109.3333333333333</ele><time>2026-05-03T07:55:43.895Z</time></trkpt><trkpt lat="42.3436125" lon="13.5740543"><ele>1110.0</ele><time>2026-05-03T07:55:45.895Z</time></trkpt><trkpt lat="42.3435639" lon="13.5741285"><ele>1109.4</ele><time>2026-05-03T07:55:46.896Z</time></trkpt><trkpt lat="42.3435134" lon="13.5742106"><ele>1108.8</ele><time>2026-05-03T07:55:47.896Z</time></trkpt><trkpt lat="42.3434572" lon="13.5742992"><ele>1108.2</ele><time>2026-05-03T07:55:48.895Z</time></trkpt><trkpt lat="42.3433958" lon="13.574397"><ele>1107.6</ele><time>2026-05-03T07:55:49.896Z</time></trkpt><trkpt lat="42.3433358" lon="13.5744945"><ele>1107.0</ele><time>2026-05-03T07:55:50.895Z</time></trkpt><trkpt lat="42.3432696" lon="13.5745944"><ele>1107.0</ele><time>2026-05-03T07:55:51.896Z</time></trkpt><trkpt lat="42.3432012" lon="13.5746817"><ele>1107.0</ele><time>2026-05-03T07:55:52.895Z</time></trkpt><trkpt lat="42.3431242" lon="13.5747729"><ele>1107.0</ele><time>2026-05-03T07:55:53.895Z</time></trkpt><trkpt lat="42.3430408" lon="13.5748593"><ele>1107.0</ele><time>2026-05-03T07:55:54.895Z</time></trkpt><trkpt lat="42.3429504" lon="13.5749425"><ele>1107.0</ele><time>2026-05-03T07:55:55.895Z</time></trkpt><trkpt lat="42.3428583" lon="13.575031"><ele>1106.0</ele><time>2026-05-03T07:55:56.896Z</time></trkpt><trkpt lat="42.3427682" lon="13.5751256"><ele>1105.0</ele><time>2026-05-03T07:55:57.895Z</time></trkpt><trkpt lat="42.3426833" lon="13.5752275"><ele>1104.0</ele><time>2026-05-03T07:55:58.896Z</time></trkpt><trkpt lat="42.3426013" lon="13.5753449"><ele>1103.0</ele><time>2026-05-03T07:55:59.896Z</time></trkpt><trkpt lat="42.3425196" lon="13.5754659"><ele>1103.0</ele><time>2026-05-03T07:56:00.896Z</time></trkpt><trkpt lat="42.3424412" lon="13.5755821"><ele>1103.0</ele><time>2026-05-03T07:56:01.896Z</time></trkpt><trkpt lat="42.3423663" lon="13.5756989"><ele>1103.0</ele><time>2026-05-03T07:56:02.895Z</time></trkpt><trkpt lat="42.3422916" lon="13.5758134"><ele>1103.0</ele><time>2026-05-03T07:56:03.896Z</time></trkpt><trkpt lat="42.3422161" lon="13.5759271"><ele>1101.75</ele><time>2026-05-03T07:56:04.895Z</time></trkpt><trkpt lat="42.3421411" lon="13.5760416"><ele>1100.5</ele><time>2026-05-03T07:56:05.896Z</time></trkpt><trkpt lat="42.3420625" lon="13.5761588"><ele>1099.25</ele><time>2026-05-03T07:56:06.896Z</time></trkpt><trkpt lat="42.3419806" lon="13.5762773"><ele>1098.0</ele><time>2026-05-03T07:56:07.895Z</time></trkpt><trkpt lat="42.3419026" lon="13.5763958"><ele>1098.0</ele><time>2026-05-03T07:56:08.895Z</time></trkpt><trkpt lat="42.3418259" lon="13.5765148"><ele>1098.0</ele><time>2026-05-03T07:56:09.895Z</time></trkpt><trkpt lat="42.3417532" lon="13.5766391"><ele>1098.0</ele><time>2026-05-03T07:56:10.895Z</time></trkpt><trkpt lat="42.3416726" lon="13.5767577"><ele>1098.0</ele><time>2026-05-03T07:56:11.896Z</time></trkpt><trkpt lat="42.3415928" lon="13.5768758"><ele>1098.0</ele><time>2026-05-03T07:56:12.895Z</time></trkpt><trkpt lat="42.3415105" lon="13.5769968"><ele>1098.0</ele><time>2026-05-03T07:56:13.895Z</time></trkpt><trkpt lat="42.3414273" lon="13.5771152"><ele>1098.0</ele><time>2026-05-03T07:56:14.896Z</time></trkpt><trkpt lat="42.3413435" lon="13.5772355"><ele>1098.0</ele><time>2026-05-03T07:56:15.896Z</time></trkpt><trkpt lat="42.3412574" lon="13.577357"><ele>1097.5</ele><time>2026-05-03T07:56:16.896Z</time></trkpt><trkpt lat="42.3411694" lon="13.5774825"><ele>1097.0</ele><time>2026-05-03T07:56:17.895Z</time></trkpt><trkpt lat="42.3410801" lon="13.5776096"><ele>1096.5</ele><time>2026-05-03T07:56:18.896Z</time></trkpt><trkpt lat="42.3409921" lon="13.5777362"><ele>1096.0</ele><time>2026-05-03T07:56:19.895Z</time></trkpt><trkpt lat="42.3409036" lon="13.577861"><ele>1097.0</ele><time>2026-05-03T07:56:20.895Z</time></trkpt><trkpt lat="42.3408116" lon="13.5779859"><ele>1098.0</ele><time>2026-05-03T07:56:21.896Z</time></trkpt><trkpt lat="42.3407211" lon="13.5781121"><ele>1099.0</ele><time>2026-05-03T07:56:22.895Z</time></trkpt><trkpt lat="42.3406293" lon="13.5782417"><ele>1100.0</ele><time>2026-05-03T07:56:23.895Z</time></trkpt><trkpt lat="42.3405362" lon="13.5783729"><ele>1098.0</ele><time>2026-05-03T07:56:24.895Z</time></trkpt><trkpt lat="42.3404418" lon="13.5785047"><ele>1096.0</ele><time>2026-05-03T07:56:25.896Z</time></trkpt><trkpt lat="42.3403438" lon="13.5786317"><ele>1094.0</ele><time>2026-05-03T07:56:26.896Z</time></trkpt><trkpt lat="42.3402477" lon="13.5787612"><ele>1092.0</ele><time>2026-05-03T07:56:27.896Z</time></trkpt><trkpt lat="42.3401518" lon="13.5788933"><ele>1092.0</ele><time>2026-05-03T07:56:28.896Z</time></trkpt><trkpt lat="42.3400563" lon="13.5790241"><ele>1092.0</ele><time>2026-05-03T07:56:29.895Z</time></trkpt><trkpt lat="42.339961" lon="13.5791553"><ele>1092.0</ele><time>2026-05-03T07:56:30.895Z</time></trkpt><trkpt lat="42.3398665" lon="13.5792879"><ele>1092.0</ele><time>2026-05-03T07:56:31.895Z</time></trkpt><trkpt lat="42.3397738" lon="13.5794228"><ele>1090.75</ele><time>2026-05-03T07:56:32.895Z</time></trkpt><trkpt lat="42.3396848" lon="13.5795624"><ele>1089.5</ele><time>2026-05-03T07:56:33.894Z</time></trkpt><trkpt lat="42.3395986" lon="13.5797059"><ele>1088.25</ele><time>2026-05-03T07:56:34.894Z</time></trkpt><trkpt lat="42.3395122" lon="13.5798503"><ele>1087.0</ele><time>2026-05-03T07:56:35.894Z</time></trkpt><trkpt lat="42.3394251" lon="13.5799968"><ele>1087.0</ele><time>2026-05-03T07:56:36.894Z</time></trkpt><trkpt lat="42.3393342" lon="13.5801369"><ele>1087.0</ele><time>2026-05-03T07:56:37.894Z</time></trkpt><trkpt lat="42.3392344" lon="13.5802652"><ele>1087.0</ele><time>2026-05-03T07:56:38.894Z</time></trkpt><trkpt lat="42.3391299" lon="13.5803812"><ele>1087.0</ele><time>2026-05-03T07:56:39.894Z</time></trkpt><trkpt lat="42.3390234" lon="13.5804852"><ele>1087.5</ele><time>2026-05-03T07:56:40.894Z</time></trkpt><trkpt lat="42.3389219" lon="13.5805851"><ele>1088.0</ele><time>2026-05-03T07:56:41.894Z</time></trkpt><trkpt lat="42.3388213" lon="13.5806759"><ele>1088.5</ele><time>2026-05-03T07:56:42.895Z</time></trkpt><trkpt lat="42.3387249" lon="13.5807472"><ele>1089.0</ele><time>2026-05-03T07:56:43.895Z</time></trkpt><trkpt lat="42.3386305" lon="13.5807893"><ele>1089.0</ele><time>2026-05-03T07:56:44.894Z</time></trkpt><trkpt lat="42.3385401" lon="13.5807917"><ele>1089.0</ele><time>2026-05-03T07:56:45.895Z</time></trkpt><trkpt lat="42.3384493" lon="13.5807602"><ele>1089.0</ele><time>2026-05-03T07:56:46.894Z</time></trkpt><trkpt lat="42.338367" lon="13.5807053"><ele>1089.0</ele><time>2026-05-03T07:56:47.894Z</time></trkpt><trkpt lat="42.3382935" lon="13.5806394"><ele>1089.0</ele><time>2026-05-03T07:56:48.894Z</time></trkpt><trkpt lat="42.3382328" lon="13.5805733"><ele>1089.0</ele><time>2026-05-03T07:56:49.894Z</time></trkpt><trkpt lat="42.3381758" lon="13.580502"><ele>1089.0</ele><time>2026-05-03T07:56:50.895Z</time></trkpt><trkpt lat="42.3381146" lon="13.580411"><ele>1089.0</ele><time>2026-05-03T07:56:51.894Z</time></trkpt><trkpt lat="42.3380526" lon="13.5803119"><ele>1089.0</ele><time>2026-05-03T07:56:52.895Z</time></trkpt><trkpt lat="42.3379896" lon="13.5802113"><ele>1089.0</ele><time>2026-05-03T07:56:53.894Z</time></trkpt><trkpt lat="42.3379356" lon="13.580121"><ele>1089.0</ele><time>2026-05-03T07:56:54.894Z</time></trkpt><trkpt lat="42.3378912" lon="13.5800446"><ele>1089.0</ele><time>2026-05-03T07:56:55.895Z</time></trkpt><trkpt lat="42.3378189" lon="13.579942"><ele>1088.4</ele><time>2026-05-03T07:56:57.894Z</time></trkpt><trkpt lat="42.3377309" lon="13.5797984"><ele>1087.8000000000002</ele><time>2026-05-03T07:56:59.894Z</time></trkpt><trkpt lat="42.3376694" lon="13.5796953"><ele>1087.1999999999998</ele><time>2026-05-03T07:57:00.895Z</time></trkpt><trkpt lat="42.3375937" lon="13.5796031"><ele>1086.6</ele><time>2026-05-03T07:57:01.895Z</time></trkpt><trkpt lat="42.3375001" lon="13.5795227"><ele>1086.0</ele><time>2026-05-03T07:57:02.894Z</time></trkpt><trkpt lat="42.3373966" lon="13.579461"><ele>1086.0</ele><time>2026-05-03T07:57:03.895Z</time></trkpt><trkpt lat="42.3372822" lon="13.5794191"><ele>1086.0</ele><time>2026-05-03T07:57:04.895Z</time></trkpt><trkpt lat="42.3371557" lon="13.5794127"><ele>1086.0</ele><time>2026-05-03T07:57:05.894Z</time></trkpt><trkpt lat="42.3370235" lon="13.579436"><ele>1086.0</ele><time>2026-05-03T07:57:06.894Z</time></trkpt><trkpt lat="42.3368889" lon="13.579471"><ele>1085.5</ele><time>2026-05-03T07:57:07.894Z</time></trkpt><trkpt lat="42.3367458" lon="13.5794998"><ele>1085.0</ele><time>2026-05-03T07:57:08.895Z</time></trkpt><trkpt lat="42.3365973" lon="13.5795165"><ele>1084.5</ele><time>2026-05-03T07:57:09.894Z</time></trkpt><trkpt lat="42.3364458" lon="13.5795258"><ele>1084.0</ele><time>2026-05-03T07:57:10.894Z</time></trkpt><trkpt lat="42.3362962" lon="13.5795272"><ele>1086.0</ele><time>2026-05-03T07:57:11.895Z</time></trkpt><trkpt lat="42.3361478" lon="13.5795324"><ele>1088.0</ele><time>2026-05-03T07:57:12.895Z</time></trkpt><trkpt lat="42.3360013" lon="13.5795491"><ele>1090.0</ele><time>2026-05-03T07:57:13.894Z</time></trkpt><trkpt lat="42.3358559" lon="13.5795721"><ele>1092.0</ele><time>2026-05-03T07:57:14.894Z</time></trkpt><trkpt lat="42.3357102" lon="13.5796024"><ele>1092.0</ele><time>2026-05-03T07:57:15.895Z</time></trkpt><trkpt lat="42.3355643" lon="13.5796301"><ele>1092.0</ele><time>2026-05-03T07:57:16.895Z</time></trkpt><trkpt lat="42.3354186" lon="13.5796448"><ele>1092.0</ele><time>2026-05-03T07:57:17.894Z</time></trkpt><trkpt lat="42.3352737" lon="13.579634"><ele>1092.0</ele><time>2026-05-03T07:57:18.894Z</time></trkpt><trkpt lat="42.3351294" lon="13.5796074"><ele>1090.5</ele><time>2026-05-03T07:57:19.894Z</time></trkpt><trkpt lat="42.3349843" lon="13.5795717"><ele>1089.0</ele><time>2026-05-03T07:57:20.895Z</time></trkpt><trkpt lat="42.334841" lon="13.5795271"><ele>1087.5</ele><time>2026-05-03T07:57:21.895Z</time></trkpt><trkpt lat="42.334694" lon="13.5794764"><ele>1086.0</ele><time>2026-05-03T07:57:22.895Z</time></trkpt><trkpt lat="42.3345445" lon="13.5794276"><ele>1079.6666666666667</ele><time>2026-05-03T07:57:23.895Z</time></trkpt><trkpt lat="42.3343909" lon="13.5793863"><ele>1073.3333333333335</ele><time>2026-05-03T07:57:24.895Z</time></trkpt><trkpt lat="42.3342334" lon="13.5793572"><ele>1067.0</ele><time>2026-05-03T07:57:25.895Z</time></trkpt><trkpt lat="42.3340733" lon="13.5793353"><ele>1067.0</ele><time>2026-05-03T07:57:26.894Z</time></trkpt><trkpt lat="42.3339158" lon="13.5793172"><ele>1067.0</ele><time>2026-05-03T07:57:27.895Z</time></trkpt><trkpt lat="42.3337623" lon="13.5793046"><ele>1067.0</ele><time>2026-05-03T07:57:28.894Z</time></trkpt><trkpt lat="42.333617" lon="13.5793062"><ele>1067.25</ele><time>2026-05-03T07:57:29.894Z</time></trkpt><trkpt lat="42.3334881" lon="13.5793393"><ele>1067.5</ele><time>2026-05-03T07:57:30.894Z</time></trkpt><trkpt lat="42.3333753" lon="13.579419"><ele>1067.75</ele><time>2026-05-03T07:57:31.894Z</time></trkpt><trkpt lat="42.3332786" lon="13.5795331"><ele>1068.0</ele><time>2026-05-03T07:57:32.895Z</time></trkpt><trkpt lat="42.333187" lon="13.5796619"><ele>1068.0</ele><time>2026-05-03T07:57:33.894Z</time></trkpt><trkpt lat="42.3330875" lon="13.5797781"><ele>1068.0</ele><time>2026-05-03T07:57:34.894Z</time></trkpt><trkpt lat="42.3329813" lon="13.5798741"><ele>1068.0</ele><time>2026-05-03T07:57:35.895Z</time></trkpt><trkpt lat="42.3328653" lon="13.5799406"><ele>1068.0</ele><time>2026-05-03T07:57:36.895Z</time></trkpt><trkpt lat="42.332749" lon="13.5800025"><ele>1060.75</ele><time>2026-05-03T07:57:37.894Z</time></trkpt><trkpt lat="42.3326352" lon="13.5800649"><ele>1053.5</ele><time>2026-05-03T07:57:38.894Z</time></trkpt><trkpt lat="42.3325227" lon="13.5801209"><ele>1046.25</ele><time>2026-05-03T07:57:39.894Z</time></trkpt><trkpt lat="42.3324176" lon="13.5801727"><ele>1039.0</ele><time>2026-05-03T07:57:40.895Z</time></trkpt><trkpt lat="42.3323144" lon="13.5802254"><ele>1037.0</ele><time>2026-05-03T07:57:41.895Z</time></trkpt><trkpt lat="42.3322155" lon="13.5802805"><ele>1035.0</ele><time>2026-05-03T07:57:42.896Z</time></trkpt><trkpt lat="42.3321201" lon="13.5803464"><ele>1033.0</ele><time>2026-05-03T07:57:43.894Z</time></trkpt><trkpt lat="42.3320486" lon="13.5804402"><ele>1031.0</ele><time>2026-05-03T07:57:44.894Z</time></trkpt><trkpt lat="42.3320003" lon="13.5805589"><ele>1029.0</ele><time>2026-05-03T07:57:45.895Z</time></trkpt><trkpt lat="42.3319688" lon="13.5806913"><ele>1029.0</ele><time>2026-05-03T07:57:46.894Z</time></trkpt><trkpt lat="42.3319664" lon="13.5808313"><ele>1029.0</ele><time>2026-05-03T07:57:47.895Z</time></trkpt><trkpt lat="42.3319829" lon="13.5809725"><ele>1029.0</ele><time>2026-05-03T07:57:48.894Z</time></trkpt><trkpt lat="42.332007" lon="13.5811173"><ele>1029.0</ele><time>2026-05-03T07:57:49.895Z</time></trkpt><trkpt lat="42.3320311" lon="13.5812642"><ele>1029.0</ele><time>2026-05-03T07:57:50.894Z</time></trkpt><trkpt lat="42.3320531" lon="13.5814148"><ele>1029.5</ele><time>2026-05-03T07:57:51.895Z</time></trkpt><trkpt lat="42.3320666" lon="13.5815727"><ele>1030.0</ele><time>2026-05-03T07:57:52.895Z</time></trkpt><trkpt lat="42.332067" lon="13.5817346"><ele>1030.5</ele><time>2026-05-03T07:57:53.895Z</time></trkpt><trkpt lat="42.3320595" lon="13.5819032"><ele>1031.0</ele><time>2026-05-03T07:57:54.894Z</time></trkpt><trkpt lat="42.3320546" lon="13.582075"><ele>1029.75</ele><time>2026-05-03T07:57:55.894Z</time></trkpt><trkpt lat="42.3320642" lon="13.5822534"><ele>1028.5</ele><time>2026-05-03T07:57:56.894Z</time></trkpt><trkpt lat="42.332089" lon="13.5824382"><ele>1027.25</ele><time>2026-05-03T07:57:57.894Z</time></trkpt><trkpt lat="42.3321263" lon="13.5826273"><ele>1026.0</ele><time>2026-05-03T07:57:58.894Z</time></trkpt><trkpt lat="42.3321686" lon="13.582824"><ele>1023.6666666666667</ele><time>2026-05-03T07:57:59.895Z</time></trkpt><trkpt lat="42.3322137" lon="13.5830246"><ele>1021.3333333333334</ele><time>2026-05-03T07:58:00.894Z</time></trkpt><trkpt lat="42.3322597" lon="13.5832297"><ele>1019.0</ele><time>2026-05-03T07:58:01.894Z</time></trkpt><trkpt lat="42.332306" lon="13.5834302"><ele>1021.75</ele><time>2026-05-03T07:58:02.894Z</time></trkpt><trkpt lat="42.3323509" lon="13.5836286"><ele>1024.5</ele><time>2026-05-03T07:58:03.894Z</time></trkpt><trkpt lat="42.3323928" lon="13.5838224"><ele>1027.25</ele><time>2026-05-03T07:58:04.895Z</time></trkpt><trkpt lat="42.3324319" lon="13.5840123"><ele>1030.0</ele><time>2026-05-03T07:58:05.894Z</time></trkpt><trkpt lat="42.3324603" lon="13.5841999"><ele>1030.0</ele><time>2026-05-03T07:58:06.894Z</time></trkpt><trkpt lat="42.3324708" lon="13.5843889"><ele>1030.0</ele><time>2026-05-03T07:58:07.894Z</time></trkpt><trkpt lat="42.3324735" lon="13.5845879"><ele>1030.0</ele><time>2026-05-03T07:58:08.894Z</time></trkpt><trkpt lat="42.3324763" lon="13.5847791"><ele>1030.0</ele><time>2026-05-03T07:58:09.894Z</time></trkpt><trkpt lat="42.3324784" lon="13.584963"><ele>1029.0</ele><time>2026-05-03T07:58:10.895Z</time></trkpt><trkpt lat="42.3324782" lon="13.5851421"><ele>1028.0</ele><time>2026-05-03T07:58:11.895Z</time></trkpt><trkpt lat="42.3324766" lon="13.5853145"><ele>1027.0</ele><time>2026-05-03T07:58:12.895Z</time></trkpt><trkpt lat="42.3324625" lon="13.5854815"><ele>1026.0</ele><time>2026-05-03T07:58:13.896Z</time></trkpt><trkpt lat="42.3324339" lon="13.5856401"><ele>1025.0</ele><time>2026-05-03T07:58:14.895Z</time></trkpt><trkpt lat="42.3323827" lon="13.5858005"><ele>1024.0</ele><time>2026-05-03T07:58:15.895Z</time></trkpt><trkpt lat="42.3323142" lon="13.5859637"><ele>1023.0</ele><time>2026-05-03T07:58:16.895Z</time></trkpt><trkpt lat="42.3322343" lon="13.5861409"><ele>1022.0</ele><time>2026-05-03T07:58:17.894Z</time></trkpt><trkpt lat="42.3321516" lon="13.5863252"><ele>1018.6666666666667</ele><time>2026-05-03T07:58:18.894Z</time></trkpt><trkpt lat="42.3320654" lon="13.5865192"><ele>1015.3333333333333</ele><time>2026-05-03T07:58:19.894Z</time></trkpt><trkpt lat="42.3319776" lon="13.5867193"><ele>1012.0</ele><time>2026-05-03T07:58:20.894Z</time></trkpt><trkpt lat="42.3318905" lon="13.5869087"><ele>1012.0</ele><time>2026-05-03T07:58:21.895Z</time></trkpt><trkpt lat="42.331807" lon="13.587091"><ele>1012.0</ele><time>2026-05-03T07:58:22.895Z</time></trkpt><trkpt lat="42.3317257" lon="13.5872679"><ele>1012.0</ele><time>2026-05-03T07:58:23.894Z</time></trkpt><trkpt lat="42.331646" lon="13.5874389"><ele>1012.0</ele><time>2026-05-03T07:58:24.894Z</time></trkpt><trkpt lat="42.3315704" lon="13.5876049"><ele>1012.0</ele><time>2026-05-03T07:58:25.895Z</time></trkpt><trkpt lat="42.3314975" lon="13.5877663"><ele>1012.0</ele><time>2026-05-03T07:58:26.895Z</time></trkpt><trkpt lat="42.3314262" lon="13.5879202"><ele>1012.0</ele><time>2026-05-03T07:58:27.894Z</time></trkpt><trkpt lat="42.3313598" lon="13.5880755"><ele>1008.75</ele><time>2026-05-03T07:58:28.894Z</time></trkpt><trkpt lat="42.3312915" lon="13.5882386"><ele>1005.5</ele><time>2026-05-03T07:58:29.895Z</time></trkpt><trkpt lat="42.331226" lon="13.5884085"><ele>1002.25</ele><time>2026-05-03T07:58:30.895Z</time></trkpt><trkpt lat="42.3311683" lon="13.5885873"><ele>999.0</ele><time>2026-05-03T07:58:31.895Z</time></trkpt><trkpt lat="42.3311125" lon="13.588771"><ele>999.0</ele><time>2026-05-03T07:58:32.895Z</time></trkpt><trkpt lat="42.3310582" lon="13.5889584"><ele>999.0</ele><time>2026-05-03T07:58:33.895Z</time></trkpt><trkpt lat="42.3310019" lon="13.5891451"><ele>999.0</ele><time>2026-05-03T07:58:34.894Z</time></trkpt><trkpt lat="42.3309495" lon="13.5893248"><ele>999.0</ele><time>2026-05-03T07:58:35.894Z</time></trkpt><trkpt lat="42.330893" lon="13.5894969"><ele>999.25</ele><time>2026-05-03T07:58:36.894Z</time></trkpt><trkpt lat="42.3308204" lon="13.5896552"><ele>999.5</ele><time>2026-05-03T07:58:37.895Z</time></trkpt><trkpt lat="42.3307305" lon="13.5897844"><ele>999.75</ele><time>2026-05-03T07:58:38.895Z</time></trkpt><trkpt lat="42.3306247" lon="13.5898838"><ele>1000.0</ele><time>2026-05-03T07:58:39.894Z</time></trkpt><trkpt lat="42.330513" lon="13.5899613"><ele>998.4</ele><time>2026-05-03T07:58:40.894Z</time></trkpt><trkpt lat="42.3304092" lon="13.5900216"><ele>996.8</ele><time>2026-05-03T07:58:41.894Z</time></trkpt><trkpt lat="42.3303096" lon="13.5900717"><ele>995.2</ele><time>2026-05-03T07:58:42.895Z</time></trkpt><trkpt lat="42.3302155" lon="13.5901078"><ele>993.6</ele><time>2026-05-03T07:58:43.894Z</time></trkpt><trkpt lat="42.3301243" lon="13.5901386"><ele>992.0</ele><time>2026-05-03T07:58:44.895Z</time></trkpt><trkpt lat="42.3300435" lon="13.5901589"><ele>992.0000000000001</ele><time>2026-05-03T07:58:45.894Z</time></trkpt><trkpt lat="42.3299762" lon="13.5901774"><ele>992.0</ele><time>2026-05-03T07:58:46.895Z</time></trkpt><trkpt lat="42.3298709" lon="13.5902697"><ele>992.0</ele><time>2026-05-03T07:58:48.894Z</time></trkpt><trkpt lat="42.3298184" lon="13.590337"><ele>992.0</ele><time>2026-05-03T07:58:49.894Z</time></trkpt><trkpt lat="42.3297671" lon="13.5904045"><ele>992.0000000000001</ele><time>2026-05-03T07:58:50.895Z</time></trkpt><trkpt lat="42.3296994" lon="13.590498"><ele>992.0</ele><time>2026-05-03T07:58:52.894Z</time></trkpt><trkpt lat="42.3296712" lon="13.5905943"><ele>991.1666666666667</ele><time>2026-05-03T07:58:55.894Z</time></trkpt><trkpt lat="42.3297236" lon="13.5906826"><ele>990.3333333333334</ele><time>2026-05-03T07:58:57.894Z</time></trkpt><trkpt lat="42.3298297" lon="13.5907569"><ele>989.5</ele><time>2026-05-03T07:58:59.894Z</time></trkpt><trkpt lat="42.3298968" lon="13.5907944"><ele>988.6666666666667</ele><time>2026-05-03T07:59:00.894Z</time></trkpt><trkpt lat="42.3299699" lon="13.5908352"><ele>987.8333333333334</ele><time>2026-05-03T07:59:01.894Z</time></trkpt><trkpt lat="42.3300441" lon="13.5908763"><ele>987.0</ele><time>2026-05-03T07:59:02.894Z</time></trkpt><trkpt lat="42.330116" lon="13.5909214"><ele>988.6666666666666</ele><time>2026-05-03T07:59:03.894Z</time></trkpt><trkpt lat="42.3301874" lon="13.5909695"><ele>990.3333333333333</ele><time>2026-05-03T07:59:04.894Z</time></trkpt><trkpt lat="42.3302537" lon="13.5910236"><ele>992.0</ele><time>2026-05-03T07:59:05.894Z</time></trkpt><trkpt lat="42.3303177" lon="13.5910864"><ele>993.6666666666666</ele><time>2026-05-03T07:59:06.894Z</time></trkpt><trkpt lat="42.3303837" lon="13.5911582"><ele>995.3333333333333</ele><time>2026-05-03T07:59:07.894Z</time></trkpt><trkpt lat="42.3304565" lon="13.5912301"><ele>997.0</ele><time>2026-05-03T07:59:08.895Z</time></trkpt><trkpt lat="42.3305296" lon="13.5913062"><ele>1000.2</ele><time>2026-05-03T07:59:09.894Z</time></trkpt><trkpt lat="42.3306044" lon="13.5913812"><ele>1003.4000000000001</ele><time>2026-05-03T07:59:10.895Z</time></trkpt><trkpt lat="42.3306802" lon="13.5914563"><ele>1006.5999999999999</ele><time>2026-05-03T07:59:11.894Z</time></trkpt><trkpt lat="42.3307584" lon="13.5915346"><ele>1009.8</ele><time>2026-05-03T07:59:12.895Z</time></trkpt><trkpt lat="42.3308356" lon="13.5916162"><ele>1013.0</ele><time>2026-05-03T07:59:13.894Z</time></trkpt><trkpt lat="42.3309143" lon="13.5917"><ele>1013.0</ele><time>2026-05-03T07:59:14.895Z</time></trkpt><trkpt lat="42.3309928" lon="13.5917948"><ele>1013.0</ele><time>2026-05-03T07:59:15.894Z</time></trkpt><trkpt lat="42.3310685" lon="13.5918988"><ele>1013.0</ele><time>2026-05-03T07:59:16.895Z</time></trkpt><trkpt lat="42.3311417" lon="13.5920107"><ele>1013.0</ele><time>2026-05-03T07:59:17.894Z</time></trkpt><trkpt lat="42.3312146" lon="13.5921294"><ele>1013.0</ele><time>2026-05-03T07:59:18.894Z</time></trkpt><trkpt lat="42.3312865" lon="13.5922573"><ele>1014.5</ele><time>2026-05-03T07:59:19.894Z</time></trkpt><trkpt lat="42.3313538" lon="13.5923929"><ele>1016.0</ele><time>2026-05-03T07:59:20.894Z</time></trkpt><trkpt lat="42.3314226" lon="13.59253"><ele>1017.5</ele><time>2026-05-03T07:59:21.895Z</time></trkpt><trkpt lat="42.3314969" lon="13.5926691"><ele>1019.0</ele><time>2026-05-03T07:59:22.894Z</time></trkpt><trkpt lat="42.331573" lon="13.5928104"><ele>1022.5</ele><time>2026-05-03T07:59:23.895Z</time></trkpt><trkpt lat="42.3316497" lon="13.5929539"><ele>1026.0</ele><time>2026-05-03T07:59:24.894Z</time></trkpt><trkpt lat="42.3317249" lon="13.5930967"><ele>1029.5</ele><time>2026-05-03T07:59:25.894Z</time></trkpt><trkpt lat="42.3317966" lon="13.5932349"><ele>1033.0</ele><time>2026-05-03T07:59:26.895Z</time></trkpt><trkpt lat="42.3318616" lon="13.5933663"><ele>1033.0</ele><time>2026-05-03T07:59:27.894Z</time></trkpt><trkpt lat="42.331919" lon="13.5934832"><ele>1033.0</ele><time>2026-05-03T07:59:28.894Z</time></trkpt><trkpt lat="42.3319726" lon="13.5935869"><ele>1033.0</ele><time>2026-05-03T07:59:29.894Z</time></trkpt><trkpt lat="42.3320215" lon="13.5936757"><ele>1033.0</ele><time>2026-05-03T07:59:30.894Z</time></trkpt><trkpt lat="42.3320877" lon="13.5937962"><ele>1033.0</ele><time>2026-05-03T07:59:32.894Z</time></trkpt><trkpt lat="42.3320805" lon="13.5939014"><ele>1034.8</ele><time>2026-05-03T07:59:34.894Z</time></trkpt><trkpt lat="42.3320038" lon="13.5940097"><ele>1036.6</ele><time>2026-05-03T07:59:36.894Z</time></trkpt><trkpt lat="42.3319733" lon="13.5940916"><ele>1038.4</ele><time>2026-05-03T07:59:37.895Z</time></trkpt><trkpt lat="42.3319482" lon="13.5941718"><ele>1040.2</ele><time>2026-05-03T07:59:38.894Z</time></trkpt><trkpt lat="42.3318873" lon="13.5943092"><ele>1042.0</ele><time>2026-05-03T07:59:40.894Z</time></trkpt><trkpt lat="42.3318126" lon="13.5944347"><ele>1042.0</ele><time>2026-05-03T07:59:42.894Z</time></trkpt><trkpt lat="42.3317686" lon="13.5944997"><ele>1042.0</ele><time>2026-05-03T07:59:43.894Z</time></trkpt><trkpt lat="42.3317205" lon="13.5945707"><ele>1042.0</ele><time>2026-05-03T07:59:44.894Z</time></trkpt><trkpt lat="42.3316723" lon="13.5946527"><ele>1042.0</ele><time>2026-05-03T07:59:45.894Z</time></trkpt><trkpt lat="42.3316308" lon="13.5947371"><ele>1042.0</ele><time>2026-05-03T07:59:46.895Z</time></trkpt><trkpt lat="42.3316328" lon="13.5948854"><ele>1042.0</ele><time>2026-05-03T07:59:48.894Z</time></trkpt><trkpt lat="42.3317321" lon="13.5949444"><ele>1041.3333333333333</ele><time>2026-05-03T07:59:50.894Z</time></trkpt><trkpt lat="42.3318362" lon="13.5950132"><ele>1040.6666666666665</ele><time>2026-05-03T07:59:52.895Z</time></trkpt><trkpt lat="42.3318513" lon="13.5951217"><ele>1040.0</ele><time>2026-05-03T07:59:53.894Z</time></trkpt><trkpt lat="42.3318738" lon="13.5952107"><ele>1039.3333333333333</ele><time>2026-05-03T07:59:54.894Z</time></trkpt><trkpt lat="42.3318852" lon="13.5953191"><ele>1038.6666666666667</ele><time>2026-05-03T07:59:55.895Z</time></trkpt><trkpt lat="42.3318867" lon="13.5954246"><ele>1038.0</ele><time>2026-05-03T07:59:56.894Z</time></trkpt><trkpt lat="42.3318986" lon="13.5955201"><ele>1037.5</ele><time>2026-05-03T07:59:57.894Z</time></trkpt><trkpt lat="42.3319159" lon="13.5956101"><ele>1037.0</ele><time>2026-05-03T07:59:58.894Z</time></trkpt><trkpt lat="42.3319101" lon="13.5957534"><ele>1036.5</ele><time>2026-05-03T08:00:00.895Z</time></trkpt><trkpt lat="42.3318445" lon="13.5958912"><ele>1036.0</ele><time>2026-05-03T08:00:02.895Z</time></trkpt><trkpt lat="42.3317955" lon="13.5959677"><ele>1035.5</ele><time>2026-05-03T08:00:03.894Z</time></trkpt><trkpt lat="42.3317502" lon="13.5960405"><ele>1035.0</ele><time>2026-05-03T08:00:04.895Z</time></trkpt><trkpt lat="42.3317087" lon="13.5961076"><ele>1035.3333333333333</ele><time>2026-05-03T08:00:05.894Z</time></trkpt><trkpt lat="42.3316675" lon="13.5961798"><ele>1035.6666666666667</ele><time>2026-05-03T08:00:06.894Z</time></trkpt><trkpt lat="42.3316156" lon="13.5962288"><ele>1036.0</ele><time>2026-05-03T08:00:07.894Z</time></trkpt><trkpt lat="42.3314965" lon="13.596211"><ele>1036.3333333333335</ele><time>2026-05-03T08:00:09.894Z</time></trkpt><trkpt lat="42.3314337" lon="13.5961771"><ele>1036.6666666666667</ele><time>2026-05-03T08:00:10.894Z</time></trkpt><trkpt lat="42.3313583" lon="13.5961628"><ele>1037.0</ele><time>2026-05-03T08:00:11.894Z</time></trkpt><trkpt lat="42.3312691" lon="13.5961735"><ele>1035.3333333333335</ele><time>2026-05-03T08:00:12.894Z</time></trkpt><trkpt lat="42.3311836" lon="13.5961907"><ele>1033.6666666666667</ele><time>2026-05-03T08:00:13.894Z</time></trkpt><trkpt lat="42.3311023" lon="13.5962098"><ele>1032.0</ele><time>2026-05-03T08:00:14.895Z</time></trkpt><trkpt lat="42.3310284" lon="13.5962447"><ele>1030.3333333333333</ele><time>2026-05-03T08:00:15.895Z</time></trkpt><trkpt lat="42.3309653" lon="13.5962921"><ele>1028.6666666666665</ele><time>2026-05-03T08:00:16.894Z</time></trkpt><trkpt lat="42.3309119" lon="13.596356"><ele>1027.0</ele><time>2026-05-03T08:00:17.895Z</time></trkpt><trkpt lat="42.3308589" lon="13.5964463"><ele>1027.0</ele><time>2026-05-03T08:00:18.894Z</time></trkpt><trkpt lat="42.3308105" lon="13.5965397"><ele>1027.0</ele><time>2026-05-03T08:00:19.894Z</time></trkpt><trkpt lat="42.3307677" lon="13.5966228"><ele>1027.0</ele><time>2026-05-03T08:00:20.894Z</time></trkpt><trkpt lat="42.3307308" lon="13.5967059"><ele>1027.0</ele><time>2026-05-03T08:00:21.894Z</time></trkpt><trkpt lat="42.3307076" lon="13.5968051"><ele>1027.0</ele><time>2026-05-03T08:00:22.895Z</time></trkpt><trkpt lat="42.3306915" lon="13.5969123"><ele>1027.0</ele><time>2026-05-03T08:00:23.894Z</time></trkpt><trkpt lat="42.3306773" lon="13.5970179"><ele>1027.1666666666665</ele><time>2026-05-03T08:00:24.894Z</time></trkpt><trkpt lat="42.3306704" lon="13.5971157"><ele>1027.3333333333333</ele><time>2026-05-03T08:00:25.894Z</time></trkpt><trkpt lat="42.3306653" lon="13.597209"><ele>1027.5</ele><time>2026-05-03T08:00:26.895Z</time></trkpt><trkpt lat="42.3306524" lon="13.5972935"><ele>1027.6666666666667</ele><time>2026-05-03T08:00:27.895Z</time></trkpt><trkpt lat="42.330629" lon="13.5973757"><ele>1027.8333333333335</ele><time>2026-05-03T08:00:28.894Z</time></trkpt><trkpt lat="42.3305254" lon="13.5974847"><ele>1028.0</ele><time>2026-05-03T08:00:30.895Z</time></trkpt><trkpt lat="42.3304567" lon="13.597552"><ele>1027.3333333333335</ele><time>2026-05-03T08:00:31.894Z</time></trkpt><trkpt lat="42.3303958" lon="13.5976216"><ele>1026.6666666666667</ele><time>2026-05-03T08:00:32.894Z</time></trkpt><trkpt lat="42.3303374" lon="13.5977007"><ele>1026.0</ele><time>2026-05-03T08:00:33.895Z</time></trkpt><trkpt lat="42.330281" lon="13.5977734"><ele>1025.3333333333333</ele><time>2026-05-03T08:00:34.894Z</time></trkpt><trkpt lat="42.3302231" lon="13.5978495"><ele>1024.6666666666665</ele><time>2026-05-03T08:00:35.895Z</time></trkpt><trkpt lat="42.3301596" lon="13.5979246"><ele>1024.0</ele><time>2026-05-03T08:00:36.894Z</time></trkpt><trkpt lat="42.3300909" lon="13.5979733"><ele>1023.9999999999999</ele><time>2026-05-03T08:00:37.894Z</time></trkpt><trkpt lat="42.3300113" lon="13.5979968"><ele>1024.0</ele><time>2026-05-03T08:00:38.894Z</time></trkpt><trkpt lat="42.3299314" lon="13.5980183"><ele>1024.0</ele><time>2026-05-03T08:00:39.894Z</time></trkpt><trkpt lat="42.3298531" lon="13.5980629"><ele>1024.0</ele><time>2026-05-03T08:00:40.895Z</time></trkpt><trkpt lat="42.3297746" lon="13.5981252"><ele>1023.9999999999999</ele><time>2026-05-03T08:00:41.894Z</time></trkpt><trkpt lat="42.3296931" lon="13.5981892"><ele>1024.0</ele><time>2026-05-03T08:00:42.894Z</time></trkpt><trkpt lat="42.3296213" lon="13.598248"><ele>1022.9999999999999</ele><time>2026-05-03T08:00:43.895Z</time></trkpt><trkpt lat="42.3295478" lon="13.5983133"><ele>1022.0</ele><time>2026-05-03T08:00:44.894Z</time></trkpt><trkpt lat="42.3294867" lon="13.5983808"><ele>1021.0</ele><time>2026-05-03T08:00:45.895Z</time></trkpt><trkpt lat="42.3294251" lon="13.598461"><ele>1020.0</ele><time>2026-05-03T08:00:46.894Z</time></trkpt><trkpt lat="42.329372" lon="13.5985326"><ele>1018.9999999999999</ele><time>2026-05-03T08:00:47.894Z</time></trkpt><trkpt lat="42.3293183" lon="13.5985779"><ele>1018.0</ele><time>2026-05-03T08:00:48.895Z</time></trkpt><trkpt lat="42.3292512" lon="13.598606"><ele>1017.9999999999999</ele><time>2026-05-03T08:00:49.894Z</time></trkpt><trkpt lat="42.3291836" lon="13.598628"><ele>1018.0</ele><time>2026-05-03T08:00:50.895Z</time></trkpt><trkpt lat="42.3291142" lon="13.5986612"><ele>1018.0</ele><time>2026-05-03T08:00:51.894Z</time></trkpt><trkpt lat="42.3290546" lon="13.5987196"><ele>1018.0</ele><time>2026-05-03T08:00:52.894Z</time></trkpt><trkpt lat="42.3289936" lon="13.598801"><ele>1017.9999999999999</ele><time>2026-05-03T08:00:53.895Z</time></trkpt><trkpt lat="42.3289388" lon="13.5988801"><ele>1018.0</ele><time>2026-05-03T08:00:54.894Z</time></trkpt><trkpt lat="42.3288854" lon="13.5989562"><ele>1017.6666666666666</ele><time>2026-05-03T08:00:55.895Z</time></trkpt><trkpt lat="42.3288292" lon="13.5990374"><ele>1017.3333333333333</ele><time>2026-05-03T08:00:56.894Z</time></trkpt><trkpt lat="42.3287765" lon="13.5991144"><ele>1017.0</ele><time>2026-05-03T08:00:57.895Z</time></trkpt><trkpt lat="42.3287267" lon="13.5991945"><ele>1016.6666666666667</ele><time>2026-05-03T08:00:58.895Z</time></trkpt><trkpt lat="42.3286801" lon="13.5992774"><ele>1016.3333333333334</ele><time>2026-05-03T08:00:59.894Z</time></trkpt><trkpt lat="42.3286365" lon="13.5993681"><ele>1016.0</ele><time>2026-05-03T08:01:00.894Z</time></trkpt><trkpt lat="42.3285917" lon="13.5994485"><ele>1016.7142857142858</ele><time>2026-05-03T08:01:01.894Z</time></trkpt><trkpt lat="42.328541" lon="13.5995281"><ele>1017.4285714285713</ele><time>2026-05-03T08:01:02.895Z</time></trkpt><trkpt lat="42.3284808" lon="13.5995895"><ele>1018.1428571428571</ele><time>2026-05-03T08:01:03.894Z</time></trkpt><trkpt lat="42.3284283" lon="13.5996495"><ele>1018.8571428571429</ele><time>2026-05-03T08:01:04.895Z</time></trkpt><trkpt lat="42.3283706" lon="13.5997161"><ele>1019.5714285714287</ele><time>2026-05-03T08:01:05.894Z</time></trkpt><trkpt lat="42.3283122" lon="13.5997789"><ele>1020.2857142857142</ele><time>2026-05-03T08:01:06.895Z</time></trkpt><trkpt lat="42.3282488" lon="13.5998325"><ele>1021.0</ele><time>2026-05-03T08:01:07.894Z</time></trkpt><trkpt lat="42.3281879" lon="13.5999061"><ele>1020.9999999999999</ele><time>2026-05-03T08:01:08.895Z</time></trkpt><trkpt lat="42.3281333" lon="13.5999805"><ele>1021.0</ele><time>2026-05-03T08:01:09.894Z</time></trkpt><trkpt lat="42.3280768" lon="13.600066"><ele>1021.0</ele><time>2026-05-03T08:01:10.894Z</time></trkpt><trkpt lat="42.3280368" lon="13.6001702"><ele>1021.0</ele><time>2026-05-03T08:01:11.895Z</time></trkpt><trkpt lat="42.3279971" lon="13.6002699"><ele>1020.9999999999999</ele><time>2026-05-03T08:01:12.894Z</time></trkpt><trkpt lat="42.3279422" lon="13.6003618"><ele>1021.0</ele><time>2026-05-03T08:01:13.895Z</time></trkpt><trkpt lat="42.3278775" lon="13.6004312"><ele>1020.4</ele><time>2026-05-03T08:01:14.894Z</time></trkpt><trkpt lat="42.3278107" lon="13.6004932"><ele>1019.8</ele><time>2026-05-03T08:01:15.894Z</time></trkpt><trkpt lat="42.3277452" lon="13.6005758"><ele>1019.1999999999999</ele><time>2026-05-03T08:01:16.895Z</time></trkpt><trkpt lat="42.3276746" lon="13.6006778"><ele>1018.5999999999999</ele><time>2026-05-03T08:01:17.894Z</time></trkpt><trkpt lat="42.3276062" lon="13.6007805"><ele>1018.0</ele><time>2026-05-03T08:01:18.894Z</time></trkpt><trkpt lat="42.3275561" lon="13.6008939"><ele>1018.0</ele><time>2026-05-03T08:01:19.894Z</time></trkpt><trkpt lat="42.3275099" lon="13.6010143"><ele>1018.0</ele><time>2026-05-03T08:01:20.894Z</time></trkpt><trkpt lat="42.327455" lon="13.6011242"><ele>1018.0</ele><time>2026-05-03T08:01:21.894Z</time></trkpt><trkpt lat="42.3274051" lon="13.601224"><ele>1018.0</ele><time>2026-05-03T08:01:22.895Z</time></trkpt><trkpt lat="42.3273509" lon="13.6013229"><ele>1018.0</ele><time>2026-05-03T08:01:23.894Z</time></trkpt><trkpt lat="42.3272972" lon="13.6014121"><ele>1017.8</ele><time>2026-05-03T08:01:24.895Z</time></trkpt><trkpt lat="42.3272491" lon="13.6015155"><ele>1017.5999999999999</ele><time>2026-05-03T08:01:25.895Z</time></trkpt><trkpt lat="42.3272083" lon="13.6016285"><ele>1017.4000000000001</ele><time>2026-05-03T08:01:26.894Z</time></trkpt><trkpt lat="42.3271581" lon="13.6017379"><ele>1017.2</ele><time>2026-05-03T08:01:27.894Z</time></trkpt><trkpt lat="42.3271017" lon="13.6018421"><ele>1017.0</ele><time>2026-05-03T08:01:28.894Z</time></trkpt><trkpt lat="42.3270509" lon="13.6019488"><ele>1016.3333333333334</ele><time>2026-05-03T08:01:29.894Z</time></trkpt><trkpt lat="42.3270125" lon="13.6020589"><ele>1015.6666666666667</ele><time>2026-05-03T08:01:30.894Z</time></trkpt><trkpt lat="42.3269733" lon="13.602174"><ele>1015.0</ele><time>2026-05-03T08:01:31.894Z</time></trkpt><trkpt lat="42.3269403" lon="13.6022743"><ele>1014.3333333333334</ele><time>2026-05-03T08:01:32.895Z</time></trkpt><trkpt lat="42.326913" lon="13.6023827"><ele>1013.6666666666667</ele><time>2026-05-03T08:01:33.895Z</time></trkpt><trkpt lat="42.3268944" lon="13.6024981"><ele>1013.0</ele><time>2026-05-03T08:01:34.894Z</time></trkpt><trkpt lat="42.3268749" lon="13.6026118"><ele>1013.0000000000001</ele><time>2026-05-03T08:01:35.894Z</time></trkpt><trkpt lat="42.3268411" lon="13.602721"><ele>1013.0</ele><time>2026-05-03T08:01:36.894Z</time></trkpt><trkpt lat="42.3267957" lon="13.6028232"><ele>1013.0</ele><time>2026-05-03T08:01:37.894Z</time></trkpt><trkpt lat="42.3267438" lon="13.6029212"><ele>1013.0</ele><time>2026-05-03T08:01:38.895Z</time></trkpt><trkpt lat="42.3267003" lon="13.6030183"><ele>1013.0000000000001</ele><time>2026-05-03T08:01:39.894Z</time></trkpt><trkpt lat="42.3266541" lon="13.6031149"><ele>1013.0</ele><time>2026-05-03T08:01:40.894Z</time></trkpt><trkpt lat="42.326597" lon="13.603202"><ele>1012.8333333333334</ele><time>2026-05-03T08:01:41.894Z</time></trkpt><trkpt lat="42.3265356" lon="13.6032882"><ele>1012.6666666666667</ele><time>2026-05-03T08:01:42.895Z</time></trkpt><trkpt lat="42.3264729" lon="13.6033661"><ele>1012.5</ele><time>2026-05-03T08:01:43.894Z</time></trkpt><trkpt lat="42.3264093" lon="13.6034469"><ele>1012.3333333333333</ele><time>2026-05-03T08:01:44.894Z</time></trkpt><trkpt lat="42.3263413" lon="13.6035286"><ele>1012.1666666666666</ele><time>2026-05-03T08:01:45.894Z</time></trkpt><trkpt lat="42.3262819" lon="13.6035996"><ele>1012.0</ele><time>2026-05-03T08:01:46.894Z</time></trkpt><trkpt lat="42.326224" lon="13.6036789"><ele>1011.9999999999999</ele><time>2026-05-03T08:01:47.895Z</time></trkpt><trkpt lat="42.326168" lon="13.6037569"><ele>1012.0</ele><time>2026-05-03T08:01:48.894Z</time></trkpt><trkpt lat="42.3261118" lon="13.6038319"><ele>1012.0</ele><time>2026-05-03T08:01:49.894Z</time></trkpt><trkpt lat="42.326053" lon="13.6039043"><ele>1012.0</ele><time>2026-05-03T08:01:50.895Z</time></trkpt><trkpt lat="42.3259984" lon="13.6039767"><ele>1011.9999999999999</ele><time>2026-05-03T08:01:51.894Z</time></trkpt><trkpt lat="42.3259428" lon="13.6040592"><ele>1012.0</ele><time>2026-05-03T08:01:52.895Z</time></trkpt><trkpt lat="42.3258897" lon="13.6041569"><ele>1011.9999999999999</ele><time>2026-05-03T08:01:53.894Z</time></trkpt><trkpt lat="42.3258471" lon="13.6042553"><ele>1012.0</ele><time>2026-05-03T08:01:54.895Z</time></trkpt><trkpt lat="42.3258082" lon="13.6043488"><ele>1012.0</ele><time>2026-05-03T08:01:55.894Z</time></trkpt><trkpt lat="42.3257523" lon="13.6044304"><ele>1012.0</ele><time>2026-05-03T08:01:56.895Z</time></trkpt><trkpt lat="42.3256886" lon="13.6045068"><ele>1011.9999999999999</ele><time>2026-05-03T08:01:57.895Z</time></trkpt><trkpt lat="42.3256277" lon="13.6045902"><ele>1012.0</ele><time>2026-05-03T08:01:58.894Z</time></trkpt><trkpt lat="42.3255688" lon="13.604688"><ele>1011.8</ele><time>2026-05-03T08:01:59.894Z</time></trkpt><trkpt lat="42.325515" lon="13.6047931"><ele>1011.6</ele><time>2026-05-03T08:02:00.895Z</time></trkpt><trkpt lat="42.3254692" lon="13.6049033"><ele>1011.3999999999999</ele><time>2026-05-03T08:02:01.895Z</time></trkpt><trkpt lat="42.3254199" lon="13.605009"><ele>1011.1999999999999</ele><time>2026-05-03T08:02:02.894Z</time></trkpt><trkpt lat="42.3253578" lon="13.6051027"><ele>1011.0</ele><time>2026-05-03T08:02:03.894Z</time></trkpt><trkpt lat="42.3253016" lon="13.6051895"><ele>1011.0</ele><time>2026-05-03T08:02:04.894Z</time></trkpt><trkpt lat="42.3252567" lon="13.6052771"><ele>1011.0</ele><time>2026-05-03T08:02:05.895Z</time></trkpt><trkpt lat="42.3252113" lon="13.6053826"><ele>1011.0</ele><time>2026-05-03T08:02:06.894Z</time></trkpt><trkpt lat="42.3251758" lon="13.6054733"><ele>1011.0</ele><time>2026-05-03T08:02:07.894Z</time></trkpt><trkpt lat="42.3251381" lon="13.6055797"><ele>1011.0</ele><time>2026-05-03T08:02:08.895Z</time></trkpt><trkpt lat="42.325101" lon="13.6056872"><ele>1011.0</ele><time>2026-05-03T08:02:09.895Z</time></trkpt><trkpt lat="42.3250671" lon="13.6057859"><ele>1010.0</ele><time>2026-05-03T08:02:10.894Z</time></trkpt><trkpt lat="42.3250352" lon="13.6058841"><ele>1009.0</ele><time>2026-05-03T08:02:11.895Z</time></trkpt><trkpt lat="42.3250148" lon="13.605988"><ele>1008.0</ele><time>2026-05-03T08:02:12.894Z</time></trkpt><trkpt lat="42.3250091" lon="13.6060892"><ele>1007.0</ele><time>2026-05-03T08:02:13.894Z</time></trkpt><trkpt lat="42.3250066" lon="13.6061825"><ele>1006.0</ele><time>2026-05-03T08:02:14.894Z</time></trkpt><trkpt lat="42.3249763" lon="13.6063056"><ele>1005.0</ele><time>2026-05-03T08:02:16.895Z</time></trkpt><trkpt lat="42.3249317" lon="13.6063668"><ele>1005.0</ele><time>2026-05-03T08:02:17.894Z</time></trkpt><trkpt lat="42.3248786" lon="13.6064231"><ele>1005.0</ele><time>2026-05-03T08:02:18.894Z</time></trkpt><trkpt lat="42.3248274" lon="13.6064752"><ele>1005.0</ele><time>2026-05-03T08:02:19.894Z</time></trkpt><trkpt lat="42.3247745" lon="13.6065258"><ele>1005.0</ele><time>2026-05-03T08:02:20.894Z</time></trkpt><trkpt lat="42.324687" lon="13.606646"><ele>1005.0</ele><time>2026-05-03T08:02:22.895Z</time></trkpt><trkpt lat="42.3245909" lon="13.6067637"><ele>1004.2</ele><time>2026-05-03T08:02:24.895Z</time></trkpt><trkpt lat="42.324527" lon="13.6068054"><ele>1003.4</ele><time>2026-05-03T08:02:25.895Z</time></trkpt><trkpt lat="42.3244569" lon="13.6068545"><ele>1002.5999999999999</ele><time>2026-05-03T08:02:26.894Z</time></trkpt><trkpt lat="42.3244016" lon="13.6069032"><ele>1001.8</ele><time>2026-05-03T08:02:27.894Z</time></trkpt><trkpt lat="42.3242932" lon="13.6069726"><ele>1001.0</ele><time>2026-05-03T08:02:29.894Z</time></trkpt><trkpt lat="42.3242026" lon="13.6070785"><ele>999.0</ele><time>2026-05-03T08:02:31.894Z</time></trkpt><trkpt lat="42.3241177" lon="13.6071911"><ele>996.9999999999999</ele><time>2026-05-03T08:02:33.894Z</time></trkpt><trkpt lat="42.3240733" lon="13.6072538"><ele>994.9999999999999</ele><time>2026-05-03T08:02:34.894Z</time></trkpt><trkpt lat="42.3240306" lon="13.6073174"><ele>993.0</ele><time>2026-05-03T08:02:35.894Z</time></trkpt><trkpt lat="42.3239433" lon="13.607429"><ele>991.0</ele><time>2026-05-03T08:02:37.894Z</time></trkpt><trkpt lat="42.3238788" lon="13.6075156"><ele>990.5999999999999</ele><time>2026-05-03T08:02:39.894Z</time></trkpt><trkpt lat="42.3238613" lon="13.6076265"><ele>990.1999999999999</ele><time>2026-05-03T08:03:35.894Z</time></trkpt><trkpt lat="42.3238495" lon="13.6077562"><ele>989.8000000000001</ele><time>2026-05-03T08:03:37.894Z</time></trkpt><trkpt lat="42.3237973" lon="13.607918"><ele>989.4000000000001</ele><time>2026-05-03T08:03:39.894Z</time></trkpt><trkpt lat="42.3237714" lon="13.6080054"><ele>989.0</ele><time>2026-05-03T08:03:40.895Z</time></trkpt><trkpt lat="42.3237321" lon="13.6080938"><ele>989.0000000000001</ele><time>2026-05-03T08:03:41.894Z</time></trkpt><trkpt lat="42.3236953" lon="13.6081767"><ele>989.0</ele><time>2026-05-03T08:03:42.894Z</time></trkpt><trkpt lat="42.3236595" lon="13.6082567"><ele>989.0</ele><time>2026-05-03T08:03:43.894Z</time></trkpt><trkpt lat="42.3236111" lon="13.6083924"><ele>989.0</ele><time>2026-05-03T08:03:45.894Z</time></trkpt><trkpt lat="42.3235726" lon="13.6085246"><ele>989.0000000000001</ele><time>2026-05-03T08:03:47.895Z</time></trkpt><trkpt lat="42.3235346" lon="13.6086313"><ele>989.0</ele><time>2026-05-03T08:03:49.894Z</time></trkpt><trkpt lat="42.3234901" lon="13.6087575"><ele>986.8333333333334</ele><time>2026-05-03T08:03:51.894Z</time></trkpt><trkpt lat="42.3234213" lon="13.6088834"><ele>984.6666666666667</ele><time>2026-05-03T08:03:53.894Z</time></trkpt><trkpt lat="42.3233769" lon="13.608968"><ele>982.5</ele><time>2026-05-03T08:03:54.894Z</time></trkpt><trkpt lat="42.3233295" lon="13.6090466"><ele>980.3333333333333</ele><time>2026-05-03T08:03:55.894Z</time></trkpt><trkpt lat="42.3232765" lon="13.6091385"><ele>978.1666666666666</ele><time>2026-05-03T08:03:56.894Z</time></trkpt><trkpt lat="42.3232258" lon="13.6092474"><ele>976.0</ele><time>2026-05-03T08:03:57.894Z</time></trkpt><trkpt lat="42.3231804" lon="13.6093492"><ele>976.0</ele><time>2026-05-03T08:03:58.895Z</time></trkpt><trkpt lat="42.3231369" lon="13.6094511"><ele>975.9999999999999</ele><time>2026-05-03T08:03:59.894Z</time></trkpt><trkpt lat="42.3230869" lon="13.609556"><ele>975.9999999999999</ele><time>2026-05-03T08:04:00.896Z</time></trkpt><trkpt lat="42.3230259" lon="13.6096613"><ele>976.0</ele><time>2026-05-03T08:04:01.895Z</time></trkpt><trkpt lat="42.3229651" lon="13.6097713"><ele>976.0</ele><time>2026-05-03T08:04:02.895Z</time></trkpt><trkpt lat="42.3229047" lon="13.6098801"><ele>976.0</ele><time>2026-05-03T08:04:03.895Z</time></trkpt><trkpt lat="42.3228436" lon="13.6099894"><ele>975.9999999999999</ele><time>2026-05-03T08:04:04.895Z</time></trkpt><trkpt lat="42.3227757" lon="13.6101008"><ele>975.9999999999999</ele><time>2026-05-03T08:04:05.894Z</time></trkpt><trkpt lat="42.322715" lon="13.6102056"><ele>976.0</ele><time>2026-05-03T08:04:06.895Z</time></trkpt><trkpt lat="42.3226653" lon="13.6103077"><ele>976.0</ele><time>2026-05-03T08:04:07.894Z</time></trkpt><trkpt lat="42.322622" lon="13.6104304"><ele>973.8</ele><time>2026-05-03T08:04:08.894Z</time></trkpt><trkpt lat="42.3225746" lon="13.610542"><ele>971.5999999999999</ele><time>2026-05-03T08:04:09.894Z</time></trkpt><trkpt lat="42.322525" lon="13.6106376"><ele>969.4</ele><time>2026-05-03T08:04:10.894Z</time></trkpt><trkpt lat="42.3224629" lon="13.6107274"><ele>967.2</ele><time>2026-05-03T08:04:11.893Z</time></trkpt><trkpt lat="42.3223948" lon="13.6108152"><ele>965.0</ele><time>2026-05-03T08:04:12.894Z</time></trkpt><trkpt lat="42.3223242" lon="13.610911"><ele>965.0000000000001</ele><time>2026-05-03T08:04:13.894Z</time></trkpt><trkpt lat="42.3222529" lon="13.6109995"><ele>965.0</ele><time>2026-05-03T08:04:14.895Z</time></trkpt><trkpt lat="42.3221839" lon="13.6110946"><ele>965.0</ele><time>2026-05-03T08:04:15.894Z</time></trkpt><trkpt lat="42.3221296" lon="13.6111915"><ele>965.0</ele><time>2026-05-03T08:04:16.894Z</time></trkpt><trkpt lat="42.3220704" lon="13.6112695"><ele>965.0000000000001</ele><time>2026-05-03T08:04:17.895Z</time></trkpt><trkpt lat="42.3219974" lon="13.6113099"><ele>965.0</ele><time>2026-05-03T08:04:18.894Z</time></trkpt><trkpt lat="42.3219381" lon="13.611351"><ele>963.5000000000001</ele><time>2026-05-03T08:04:19.894Z</time></trkpt><trkpt lat="42.3218874" lon="13.611424"><ele>962.0</ele><time>2026-05-03T08:04:20.895Z</time></trkpt><trkpt lat="42.3218291" lon="13.6115163"><ele>960.5</ele><time>2026-05-03T08:04:21.894Z</time></trkpt><trkpt lat="42.3217696" lon="13.6116062"><ele>959.0</ele><time>2026-05-03T08:04:22.895Z</time></trkpt><trkpt lat="42.3217112" lon="13.6116985"><ele>957.5000000000001</ele><time>2026-05-03T08:04:23.894Z</time></trkpt><trkpt lat="42.321658" lon="13.6118038"><ele>956.0</ele><time>2026-05-03T08:04:24.894Z</time></trkpt><trkpt lat="42.3216258" lon="13.6119305"><ele>955.0</ele><time>2026-05-03T08:04:25.894Z</time></trkpt><trkpt lat="42.3215936" lon="13.6120797"><ele>953.9999999999999</ele><time>2026-05-03T08:04:26.895Z</time></trkpt><trkpt lat="42.3215548" lon="13.6122199"><ele>952.9999999999999</ele><time>2026-05-03T08:04:27.895Z</time></trkpt><trkpt lat="42.3215187" lon="13.6123524"><ele>952.0</ele><time>2026-05-03T08:04:28.895Z</time></trkpt><trkpt lat="42.3214526" lon="13.6124547"><ele>951.0</ele><time>2026-05-03T08:04:29.895Z</time></trkpt><trkpt lat="42.3213778" lon="13.6125457"><ele>949.75</ele><time>2026-05-03T08:04:30.895Z</time></trkpt><trkpt lat="42.3213073" lon="13.6126659"><ele>948.5</ele><time>2026-05-03T08:04:31.894Z</time></trkpt><trkpt lat="42.32124" lon="13.6127974"><ele>947.25</ele><time>2026-05-03T08:04:32.895Z</time></trkpt><trkpt lat="42.3211655" lon="13.61293"><ele>946.0</ele><time>2026-05-03T08:04:33.894Z</time></trkpt><trkpt lat="42.3210795" lon="13.6130566"><ele>946.0</ele><time>2026-05-03T08:04:34.894Z</time></trkpt><trkpt lat="42.3209928" lon="13.6131674"><ele>945.9999999999999</ele><time>2026-05-03T08:04:35.895Z</time></trkpt><trkpt lat="42.3209138" lon="13.6132701"><ele>945.9999999999999</ele><time>2026-05-03T08:04:36.894Z</time></trkpt><trkpt lat="42.3208427" lon="13.6133496"><ele>946.0</ele><time>2026-05-03T08:04:37.895Z</time></trkpt><trkpt lat="42.3207803" lon="13.6133902"><ele>946.0</ele><time>2026-05-03T08:04:38.894Z</time></trkpt><trkpt lat="42.3206766" lon="13.6133505"><ele>945.9999999999999</ele><time>2026-05-03T08:04:40.894Z</time></trkpt><trkpt lat="42.3206286" lon="13.6132776"><ele>946.0</ele><time>2026-05-03T08:04:41.894Z</time></trkpt><trkpt lat="42.3205568" lon="13.6131572"><ele>946.0</ele><time>2026-05-03T08:04:43.894Z</time></trkpt><trkpt lat="42.3204889" lon="13.6131399"><ele>946.0</ele><time>2026-05-03T08:05:02.895Z</time></trkpt><trkpt lat="42.3204461" lon="13.6132255"><ele>945.9999999999999</ele><time>2026-05-03T08:05:05.894Z</time></trkpt><trkpt lat="42.3204295" lon="13.6133492"><ele>946.0</ele><time>2026-05-03T08:05:07.895Z</time></trkpt><trkpt lat="42.3203557" lon="13.613456"><ele>946.4999999999999</ele><time>2026-05-03T08:05:09.894Z</time></trkpt><trkpt lat="42.3203084" lon="13.6135357"><ele>947.0</ele><time>2026-05-03T08:05:10.895Z</time></trkpt><trkpt lat="42.3202649" lon="13.6136279"><ele>947.5</ele><time>2026-05-03T08:05:11.894Z</time></trkpt><trkpt lat="42.3202289" lon="13.6137276"><ele>948.0</ele><time>2026-05-03T08:05:12.895Z</time></trkpt><trkpt lat="42.3202066" lon="13.6138231"><ele>948.4999999999999</ele><time>2026-05-03T08:05:13.895Z</time></trkpt><trkpt lat="42.320191" lon="13.6139284"><ele>949.0</ele><time>2026-05-03T08:05:14.894Z</time></trkpt><trkpt lat="42.3201785" lon="13.6140439"><ele>948.9999999999999</ele><time>2026-05-03T08:05:15.894Z</time></trkpt><trkpt lat="42.3201482" lon="13.614156"><ele>949.0</ele><time>2026-05-03T08:05:16.894Z</time></trkpt><trkpt lat="42.3201052" lon="13.6142551"><ele>949.0</ele><time>2026-05-03T08:05:17.895Z</time></trkpt><trkpt lat="42.3200486" lon="13.6143391"><ele>949.0</ele><time>2026-05-03T08:05:18.894Z</time></trkpt><trkpt lat="42.3199896" lon="13.6144144"><ele>948.9999999999999</ele><time>2026-05-03T08:05:19.894Z</time></trkpt><trkpt lat="42.3199366" lon="13.6144982"><ele>949.0</ele><time>2026-05-03T08:05:20.894Z</time></trkpt><trkpt lat="42.3198854" lon="13.6145941"><ele>948.6</ele><time>2026-05-03T08:05:21.894Z</time></trkpt><trkpt lat="42.3198269" lon="13.6146962"><ele>948.2</ele><time>2026-05-03T08:05:22.894Z</time></trkpt><trkpt lat="42.3197724" lon="13.61481"><ele>947.8000000000001</ele><time>2026-05-03T08:05:23.895Z</time></trkpt><trkpt lat="42.3197128" lon="13.614923"><ele>947.4000000000001</ele><time>2026-05-03T08:05:24.894Z</time></trkpt><trkpt lat="42.3196534" lon="13.6150313"><ele>947.0</ele><time>2026-05-03T08:05:25.894Z</time></trkpt><trkpt lat="42.3195996" lon="13.6151486"><ele>948.6</ele><time>2026-05-03T08:05:26.894Z</time></trkpt><trkpt lat="42.3195496" lon="13.6152631"><ele>950.2</ele><time>2026-05-03T08:05:27.895Z</time></trkpt><trkpt lat="42.3194975" lon="13.615365"><ele>951.8</ele><time>2026-05-03T08:05:28.895Z</time></trkpt><trkpt lat="42.3194254" lon="13.6154567"><ele>953.4</ele><time>2026-05-03T08:05:29.894Z</time></trkpt><trkpt lat="42.3193521" lon="13.6155418"><ele>955.0</ele><time>2026-05-03T08:05:30.894Z</time></trkpt><trkpt lat="42.3192957" lon="13.615622"><ele>954.9999999999999</ele><time>2026-05-03T08:05:31.894Z</time></trkpt><trkpt lat="42.3192403" lon="13.6157069"><ele>955.0</ele><time>2026-05-03T08:05:32.895Z</time></trkpt><trkpt lat="42.3191932" lon="13.6157909"><ele>955.0</ele><time>2026-05-03T08:05:33.894Z</time></trkpt><trkpt lat="42.3191701" lon="13.6158865"><ele>955.0</ele><time>2026-05-03T08:05:34.895Z</time></trkpt><trkpt lat="42.3191499" lon="13.6159878"><ele>954.9999999999999</ele><time>2026-05-03T08:05:35.895Z</time></trkpt><trkpt lat="42.3191228" lon="13.6160817"><ele>955.0</ele><time>2026-05-03T08:05:36.895Z</time></trkpt><trkpt lat="42.3190878" lon="13.6161682"><ele>954.8333333333333</ele><time>2026-05-03T08:05:37.894Z</time></trkpt><trkpt lat="42.319049" lon="13.6162627"><ele>954.6666666666666</ele><time>2026-05-03T08:05:38.895Z</time></trkpt><trkpt lat="42.3190147" lon="13.6163627"><ele>954.5</ele><time>2026-05-03T08:05:39.893Z</time></trkpt><trkpt lat="42.3189611" lon="13.6164458"><ele>954.3333333333333</ele><time>2026-05-03T08:05:40.895Z</time></trkpt><trkpt lat="42.3189052" lon="13.6165319"><ele>954.1666666666666</ele><time>2026-05-03T08:05:41.894Z</time></trkpt><trkpt lat="42.3188426" lon="13.6166253"><ele>954.0</ele><time>2026-05-03T08:05:42.894Z</time></trkpt><trkpt lat="42.3187719" lon="13.6167002"><ele>955.0</ele><time>2026-05-03T08:05:43.894Z</time></trkpt><trkpt lat="42.3187012" lon="13.6167572"><ele>956.0000000000001</ele><time>2026-05-03T08:05:44.894Z</time></trkpt><trkpt lat="42.3186387" lon="13.6168052"><ele>957.0000000000001</ele><time>2026-05-03T08:05:45.895Z</time></trkpt><trkpt lat="42.3185648" lon="13.6169525"><ele>958.0</ele><time>2026-05-03T08:05:47.894Z</time></trkpt><trkpt lat="42.3185044" lon="13.6170299"><ele>959.0</ele><time>2026-05-03T08:05:48.894Z</time></trkpt><trkpt lat="42.31844" lon="13.6171028"><ele>959.0</ele><time>2026-05-03T08:05:49.894Z</time></trkpt><trkpt lat="42.3183666" lon="13.6171569"><ele>959.0000000000001</ele><time>2026-05-03T08:05:50.894Z</time></trkpt><trkpt lat="42.3182859" lon="13.6172191"><ele>959.0000000000001</ele><time>2026-05-03T08:05:51.894Z</time></trkpt><trkpt lat="42.3182118" lon="13.6172982"><ele>959.0</ele><time>2026-05-03T08:05:52.894Z</time></trkpt><trkpt lat="42.3181358" lon="13.6173761"><ele>959.0</ele><time>2026-05-03T08:05:53.895Z</time></trkpt><trkpt lat="42.3180509" lon="13.6174373"><ele>959.6</ele><time>2026-05-03T08:05:54.895Z</time></trkpt><trkpt lat="42.31796" lon="13.6175028"><ele>960.2</ele><time>2026-05-03T08:05:55.894Z</time></trkpt><trkpt lat="42.3178665" lon="13.6175869"><ele>960.8000000000001</ele><time>2026-05-03T08:05:56.894Z</time></trkpt><trkpt lat="42.3177757" lon="13.6176792"><ele>961.4000000000001</ele><time>2026-05-03T08:05:57.894Z</time></trkpt><trkpt lat="42.317684" lon="13.6177606"><ele>962.0</ele><time>2026-05-03T08:05:58.894Z</time></trkpt><trkpt lat="42.3176086" lon="13.6178341"><ele>962.0</ele><time>2026-05-03T08:05:59.894Z</time></trkpt><trkpt lat="42.3175407" lon="13.6179146"><ele>962.0</ele><time>2026-05-03T08:06:00.894Z</time></trkpt><trkpt lat="42.3174674" lon="13.6179922"><ele>962.0</ele><time>2026-05-03T08:06:01.894Z</time></trkpt><trkpt lat="42.317381" lon="13.6180711"><ele>962.0</ele><time>2026-05-03T08:06:02.894Z</time></trkpt><trkpt lat="42.3172929" lon="13.6181596"><ele>962.0</ele><time>2026-05-03T08:06:03.894Z</time></trkpt><trkpt lat="42.3172025" lon="13.6182474"><ele>963.4000000000001</ele><time>2026-05-03T08:06:04.894Z</time></trkpt><trkpt lat="42.3171214" lon="13.6183323"><ele>964.8000000000001</ele><time>2026-05-03T08:06:05.895Z</time></trkpt><trkpt lat="42.3170398" lon="13.6184183"><ele>966.2</ele><time>2026-05-03T08:06:06.895Z</time></trkpt><trkpt lat="42.316965" lon="13.6185057"><ele>967.6</ele><time>2026-05-03T08:06:07.895Z</time></trkpt><trkpt lat="42.3168893" lon="13.6185898"><ele>969.0</ele><time>2026-05-03T08:06:08.894Z</time></trkpt><trkpt lat="42.3168057" lon="13.6186533"><ele>969.0</ele><time>2026-05-03T08:06:09.895Z</time></trkpt><trkpt lat="42.3167269" lon="13.6187115"><ele>969.0</ele><time>2026-05-03T08:06:10.894Z</time></trkpt><trkpt lat="42.3166582" lon="13.6187786"><ele>969.0</ele><time>2026-05-03T08:06:11.895Z</time></trkpt><trkpt lat="42.3165841" lon="13.6188434"><ele>969.0</ele><time>2026-05-03T08:06:12.894Z</time></trkpt><trkpt lat="42.3165151" lon="13.6189069"><ele>969.0</ele><time>2026-05-03T08:06:13.894Z</time></trkpt><trkpt lat="42.3164454" lon="13.6189755"><ele>969.0</ele><time>2026-05-03T08:06:14.895Z</time></trkpt><trkpt lat="42.3163786" lon="13.6190337"><ele>970.6666666666666</ele><time>2026-05-03T08:06:15.894Z</time></trkpt><trkpt lat="42.3163231" lon="13.6191117"><ele>972.3333333333333</ele><time>2026-05-03T08:06:16.894Z</time></trkpt><trkpt lat="42.3162825" lon="13.6192051"><ele>974.0</ele><time>2026-05-03T08:06:17.895Z</time></trkpt><trkpt lat="42.3162563" lon="13.6193072"><ele>975.6666666666666</ele><time>2026-05-03T08:06:18.894Z</time></trkpt><trkpt lat="42.3162348" lon="13.6194124"><ele>977.3333333333333</ele><time>2026-05-03T08:06:19.894Z</time></trkpt><trkpt lat="42.3162169" lon="13.6195102"><ele>979.0</ele><time>2026-05-03T08:06:20.894Z</time></trkpt><trkpt lat="42.3162193" lon="13.6196209"><ele>978.9999999999999</ele><time>2026-05-03T08:06:21.894Z</time></trkpt><trkpt lat="42.3162081" lon="13.6197168"><ele>979.0</ele><time>2026-05-03T08:06:22.894Z</time></trkpt><trkpt lat="42.3161662" lon="13.6197881"><ele>979.0</ele><time>2026-05-03T08:06:23.894Z</time></trkpt><trkpt lat="42.3160579" lon="13.6198503"><ele>979.0</ele><time>2026-05-03T08:06:25.895Z</time></trkpt><trkpt lat="42.316001" lon="13.6199123"><ele>978.9999999999999</ele><time>2026-05-03T08:06:26.894Z</time></trkpt><trkpt lat="42.3159333" lon="13.6200015"><ele>979.0</ele><time>2026-05-03T08:06:27.894Z</time></trkpt><trkpt lat="42.315863" lon="13.6200893"><ele>978.9999999999999</ele><time>2026-05-03T08:06:28.894Z</time></trkpt><trkpt lat="42.3158002" lon="13.6201749"><ele>979.0</ele><time>2026-05-03T08:06:29.893Z</time></trkpt><trkpt lat="42.3157447" lon="13.6202761"><ele>979.0</ele><time>2026-05-03T08:06:30.895Z</time></trkpt><trkpt lat="42.3156886" lon="13.6203787"><ele>979.0</ele><time>2026-05-03T08:06:31.894Z</time></trkpt><trkpt lat="42.3156315" lon="13.6204363"><ele>978.9999999999999</ele><time>2026-05-03T08:06:32.894Z</time></trkpt><trkpt lat="42.3155629" lon="13.6204597"><ele>979.0</ele><time>2026-05-03T08:06:33.894Z</time></trkpt><trkpt lat="42.315455" lon="13.6204855"><ele>979.2</ele><time>2026-05-03T08:06:35.894Z</time></trkpt><trkpt lat="42.3153978" lon="13.6205519"><ele>979.4000000000001</ele><time>2026-05-03T08:06:36.894Z</time></trkpt><trkpt lat="42.315334" lon="13.6206376"><ele>979.6</ele><time>2026-05-03T08:06:37.895Z</time></trkpt><trkpt lat="42.3152653" lon="13.6207321"><ele>979.8</ele><time>2026-05-03T08:06:38.894Z</time></trkpt><trkpt lat="42.3151944" lon="13.6208209"><ele>980.0</ele><time>2026-05-03T08:06:39.895Z</time></trkpt><trkpt lat="42.3151198" lon="13.6208969"><ele>980.0</ele><time>2026-05-03T08:06:40.894Z</time></trkpt><trkpt lat="42.3150326" lon="13.6209665"><ele>980.0</ele><time>2026-05-03T08:06:41.894Z</time></trkpt><trkpt lat="42.314937" lon="13.6210257"><ele>980.0</ele><time>2026-05-03T08:06:42.895Z</time></trkpt><trkpt lat="42.3148393" lon="13.6210784"><ele>980.0</ele><time>2026-05-03T08:06:43.895Z</time></trkpt><trkpt lat="42.3147403" lon="13.6211325"><ele>980.0</ele><time>2026-05-03T08:06:44.894Z</time></trkpt><trkpt lat="42.314644" lon="13.6211899"><ele>980.2</ele><time>2026-05-03T08:06:45.894Z</time></trkpt><trkpt lat="42.3145546" lon="13.6212491"><ele>980.4</ele><time>2026-05-03T08:06:46.894Z</time></trkpt><trkpt lat="42.3144702" lon="13.6213255"><ele>980.5999999999999</ele><time>2026-05-03T08:06:47.895Z</time></trkpt><trkpt lat="42.3143948" lon="13.6213923"><ele>980.8</ele><time>2026-05-03T08:06:48.894Z</time></trkpt><trkpt lat="42.3143175" lon="13.6214593"><ele>981.0</ele><time>2026-05-03T08:06:49.895Z</time></trkpt><trkpt lat="42.3142359" lon="13.6215256"><ele>981.0</ele><time>2026-05-03T08:06:50.895Z</time></trkpt><trkpt lat="42.3141562" lon="13.6215838"><ele>980.9999999999999</ele><time>2026-05-03T08:06:51.894Z</time></trkpt><trkpt lat="42.3140843" lon="13.6216455"><ele>980.9999999999999</ele><time>2026-05-03T08:06:52.894Z</time></trkpt><trkpt lat="42.314027" lon="13.6217079"><ele>981.0</ele><time>2026-05-03T08:06:53.894Z</time></trkpt><trkpt lat="42.3139281" lon="13.6217568"><ele>981.0</ele><time>2026-05-03T08:06:55.894Z</time></trkpt><trkpt lat="42.3138139" lon="13.621701"><ele>981.3333333333334</ele><time>2026-05-03T08:06:57.894Z</time></trkpt><trkpt lat="42.3137488" lon="13.6217059"><ele>981.6666666666667</ele><time>2026-05-03T08:06:58.894Z</time></trkpt><trkpt lat="42.3136411" lon="13.6217639"><ele>982.0</ele><time>2026-05-03T08:07:00.895Z</time></trkpt><trkpt lat="42.3135801" lon="13.6218195"><ele>982.3333333333334</ele><time>2026-05-03T08:07:01.895Z</time></trkpt><trkpt lat="42.3135179" lon="13.621868"><ele>982.6666666666667</ele><time>2026-05-03T08:07:02.894Z</time></trkpt><trkpt lat="42.3134508" lon="13.6219255"><ele>983.0</ele><time>2026-05-03T08:07:03.895Z</time></trkpt><trkpt lat="42.3133884" lon="13.6219851"><ele>983.0000000000001</ele><time>2026-05-03T08:07:04.894Z</time></trkpt><trkpt lat="42.3133339" lon="13.6220536"><ele>983.0</ele><time>2026-05-03T08:07:05.895Z</time></trkpt><trkpt lat="42.313284" lon="13.6221282"><ele>983.0</ele><time>2026-05-03T08:07:06.895Z</time></trkpt><trkpt lat="42.3132364" lon="13.6222079"><ele>983.0</ele><time>2026-05-03T08:07:07.895Z</time></trkpt><trkpt lat="42.3131836" lon="13.6222981"><ele>983.0000000000001</ele><time>2026-05-03T08:07:08.894Z</time></trkpt><trkpt lat="42.3131242" lon="13.6223812"><ele>983.0</ele><time>2026-05-03T08:07:09.894Z</time></trkpt><trkpt lat="42.3130566" lon="13.6224654"><ele>984.3333333333334</ele><time>2026-05-03T08:07:10.894Z</time></trkpt><trkpt lat="42.3129858" lon="13.6225454"><ele>985.6666666666667</ele><time>2026-05-03T08:07:11.894Z</time></trkpt><trkpt lat="42.3129216" lon="13.6226309"><ele>987.0</ele><time>2026-05-03T08:07:12.895Z</time></trkpt><trkpt lat="42.3128592" lon="13.6227166"><ele>988.3333333333333</ele><time>2026-05-03T08:07:13.894Z</time></trkpt><trkpt lat="42.3128003" lon="13.6228136"><ele>989.6666666666666</ele><time>2026-05-03T08:07:14.894Z</time></trkpt><trkpt lat="42.3127439" lon="13.6228991"><ele>991.0</ele><time>2026-05-03T08:07:15.894Z</time></trkpt><trkpt lat="42.3126951" lon="13.6229784"><ele>990.9999999999999</ele><time>2026-05-03T08:07:16.894Z</time></trkpt><trkpt lat="42.3126594" lon="13.6230792"><ele>991.0</ele><time>2026-05-03T08:07:17.894Z</time></trkpt><trkpt lat="42.3126232" lon="13.6231596"><ele>991.0</ele><time>2026-05-03T08:07:18.894Z</time></trkpt><trkpt lat="42.3125698" lon="13.623233"><ele>991.0</ele><time>2026-05-03T08:07:19.895Z</time></trkpt><trkpt lat="42.3125086" lon="13.6233043"><ele>990.9999999999999</ele><time>2026-05-03T08:07:20.894Z</time></trkpt><trkpt lat="42.3124563" lon="13.6233665"><ele>991.0</ele><time>2026-05-03T08:07:21.895Z</time></trkpt><trkpt lat="42.3123835" lon="13.6234957"><ele>990.9999999999999</ele><time>2026-05-03T08:07:23.895Z</time></trkpt><trkpt lat="42.312344" lon="13.6235745"><ele>991.0</ele><time>2026-05-03T08:07:24.895Z</time></trkpt><trkpt lat="42.3122943" lon="13.6236599"><ele>991.0</ele><time>2026-05-03T08:07:25.894Z</time></trkpt><trkpt lat="42.3122444" lon="13.6237533"><ele>991.0</ele><time>2026-05-03T08:07:26.895Z</time></trkpt><trkpt lat="42.3121974" lon="13.6238412"><ele>990.9999999999999</ele><time>2026-05-03T08:07:27.894Z</time></trkpt><trkpt lat="42.3121534" lon="13.6239313"><ele>991.0</ele><time>2026-05-03T08:07:28.893Z</time></trkpt><trkpt lat="42.3121045" lon="13.6240323"><ele>991.4999999999999</ele><time>2026-05-03T08:07:29.894Z</time></trkpt><trkpt lat="42.3120558" lon="13.6241223"><ele>992.0</ele><time>2026-05-03T08:07:30.893Z</time></trkpt><trkpt lat="42.3119981" lon="13.6242115"><ele>992.5</ele><time>2026-05-03T08:07:31.893Z</time></trkpt><trkpt lat="42.3119541" lon="13.6243162"><ele>993.0</ele><time>2026-05-03T08:07:32.894Z</time></trkpt><trkpt lat="42.311907" lon="13.6244166"><ele>993.4999999999999</ele><time>2026-05-03T08:07:33.893Z</time></trkpt><trkpt lat="42.3118572" lon="13.6245223"><ele>994.0</ele><time>2026-05-03T08:07:34.893Z</time></trkpt><trkpt lat="42.3118099" lon="13.6246291"><ele>994.0</ele><time>2026-05-03T08:07:35.893Z</time></trkpt><trkpt lat="42.3117559" lon="13.6247182"><ele>994.0000000000001</ele><time>2026-05-03T08:07:36.894Z</time></trkpt><trkpt lat="42.3116981" lon="13.6248101"><ele>994.0000000000001</ele><time>2026-05-03T08:07:37.893Z</time></trkpt><trkpt lat="42.3116269" lon="13.6248929"><ele>994.0</ele><time>2026-05-03T08:07:38.893Z</time></trkpt><trkpt lat="42.3115509" lon="13.6249698"><ele>994.0</ele><time>2026-05-03T08:07:39.894Z</time></trkpt><trkpt lat="42.3114838" lon="13.6250715"><ele>994.0</ele><time>2026-05-03T08:07:40.893Z</time></trkpt><trkpt lat="42.3114174" lon="13.6251766"><ele>994.0000000000001</ele><time>2026-05-03T08:07:41.893Z</time></trkpt><trkpt lat="42.3113527" lon="13.6252855"><ele>994.0000000000001</ele><time>2026-05-03T08:07:42.894Z</time></trkpt><trkpt lat="42.3112853" lon="13.6254041"><ele>994.0</ele><time>2026-05-03T08:07:43.893Z</time></trkpt><trkpt lat="42.3112229" lon="13.6255226"><ele>994.0</ele><time>2026-05-03T08:07:44.894Z</time></trkpt><trkpt lat="42.3111738" lon="13.6256396"><ele>995.6</ele><time>2026-05-03T08:07:45.894Z</time></trkpt><trkpt lat="42.3111164" lon="13.6257587"><ele>997.2</ele><time>2026-05-03T08:07:46.893Z</time></trkpt><trkpt lat="42.3110586" lon="13.62588"><ele>998.8000000000001</ele><time>2026-05-03T08:07:47.894Z</time></trkpt><trkpt lat="42.3110036" lon="13.6259855"><ele>1000.4000000000001</ele><time>2026-05-03T08:07:48.893Z</time></trkpt><trkpt lat="42.3109571" lon="13.626098"><ele>1002.0</ele><time>2026-05-03T08:07:49.893Z</time></trkpt><trkpt lat="42.310909" lon="13.6262122"><ele>1002.0</ele><time>2026-05-03T08:07:50.893Z</time></trkpt><trkpt lat="42.310863" lon="13.626321"><ele>1002.0</ele><time>2026-05-03T08:07:51.894Z</time></trkpt><trkpt lat="42.3108149" lon="13.6264378"><ele>1002.0</ele><time>2026-05-03T08:07:52.894Z</time></trkpt><trkpt lat="42.3107617" lon="13.6265483"><ele>1002.0</ele><time>2026-05-03T08:07:53.893Z</time></trkpt><trkpt lat="42.310701" lon="13.6266623"><ele>1002.0</ele><time>2026-05-03T08:07:54.893Z</time></trkpt><trkpt lat="42.31064" lon="13.6267776"><ele>1003.0</ele><time>2026-05-03T08:07:55.893Z</time></trkpt><trkpt lat="42.3105677" lon="13.6268702"><ele>1004.0</ele><time>2026-05-03T08:07:56.893Z</time></trkpt><trkpt lat="42.3105058" lon="13.6269767"><ele>1005.0</ele><time>2026-05-03T08:07:57.892Z</time></trkpt><trkpt lat="42.3104539" lon="13.627095"><ele>1006.0</ele><time>2026-05-03T08:07:58.894Z</time></trkpt><trkpt lat="42.310402" lon="13.6272072"><ele>1007.0</ele><time>2026-05-03T08:07:59.893Z</time></trkpt><trkpt lat="42.3103651" lon="13.6273176"><ele>1007.0</ele><time>2026-05-03T08:08:00.893Z</time></trkpt><trkpt lat="42.3103249" lon="13.6274269"><ele>1007.0</ele><time>2026-05-03T08:08:01.894Z</time></trkpt><trkpt lat="42.3102754" lon="13.6275244"><ele>1007.0</ele><time>2026-05-03T08:08:02.893Z</time></trkpt><trkpt lat="42.3102162" lon="13.6276099"><ele>1007.0</ele><time>2026-05-03T08:08:03.893Z</time></trkpt><trkpt lat="42.3101528" lon="13.627674"><ele>1007.0</ele><time>2026-05-03T08:08:04.893Z</time></trkpt><trkpt lat="42.3100592" lon="13.6278324"><ele>1005.4000000000001</ele><time>2026-05-03T08:08:06.893Z</time></trkpt><trkpt lat="42.3100144" lon="13.6279395"><ele>1003.8000000000001</ele><time>2026-05-03T08:08:07.893Z</time></trkpt><trkpt lat="42.3099656" lon="13.6280472"><ele>1002.2</ele><time>2026-05-03T08:08:08.893Z</time></trkpt><trkpt lat="42.3099248" lon="13.6281578"><ele>1000.6</ele><time>2026-05-03T08:08:09.893Z</time></trkpt><trkpt lat="42.3098751" lon="13.6282675"><ele>999.0</ele><time>2026-05-03T08:08:10.893Z</time></trkpt><trkpt lat="42.3098232" lon="13.6283623"><ele>999.0</ele><time>2026-05-03T08:08:11.894Z</time></trkpt><trkpt lat="42.3097759" lon="13.6284562"><ele>999.0000000000001</ele><time>2026-05-03T08:08:12.893Z</time></trkpt><trkpt lat="42.3097212" lon="13.6285634"><ele>999.0000000000001</ele><time>2026-05-03T08:08:13.893Z</time></trkpt><trkpt lat="42.3096657" lon="13.6286686"><ele>999.0</ele><time>2026-05-03T08:08:14.893Z</time></trkpt><trkpt lat="42.3096099" lon="13.628771"><ele>999.0</ele><time>2026-05-03T08:08:15.893Z</time></trkpt><trkpt lat="42.3095546" lon="13.6288822"><ele>1000.8333333333334</ele><time>2026-05-03T08:08:16.893Z</time></trkpt><trkpt lat="42.3095173" lon="13.6290007"><ele>1002.6666666666667</ele><time>2026-05-03T08:08:17.894Z</time></trkpt><trkpt lat="42.3094818" lon="13.6291212"><ele>1004.5</ele><time>2026-05-03T08:08:18.892Z</time></trkpt><trkpt lat="42.3094317" lon="13.6292269"><ele>1006.3333333333334</ele><time>2026-05-03T08:08:19.893Z</time></trkpt><trkpt lat="42.3093861" lon="13.6293143"><ele>1008.1666666666667</ele><time>2026-05-03T08:08:20.894Z</time></trkpt><trkpt lat="42.3093328" lon="13.6293791"><ele>1010.0</ele><time>2026-05-03T08:08:21.892Z</time></trkpt><trkpt lat="42.3092698" lon="13.629481"><ele>1010.0000000000001</ele><time>2026-05-03T08:08:22.893Z</time></trkpt><trkpt lat="42.3092071" lon="13.6295764"><ele>1010.0</ele><time>2026-05-03T08:08:23.892Z</time></trkpt><trkpt lat="42.3091393" lon="13.6296868"><ele>1010.0</ele><time>2026-05-03T08:08:24.893Z</time></trkpt><trkpt lat="42.3090789" lon="13.6297821"><ele>1010.0</ele><time>2026-05-03T08:08:25.892Z</time></trkpt><trkpt lat="42.3090216" lon="13.6298713"><ele>1010.0000000000001</ele><time>2026-05-03T08:08:26.893Z</time></trkpt><trkpt lat="42.3089789" lon="13.6299431"><ele>1010.0</ele><time>2026-05-03T08:08:27.893Z</time></trkpt><trkpt lat="42.3089502" lon="13.6300334"><ele>1010.0000000000001</ele><time>2026-05-03T08:08:28.893Z</time></trkpt><trkpt lat="42.3089237" lon="13.6301523"><ele>1010.0</ele><time>2026-05-03T08:08:29.893Z</time></trkpt><trkpt lat="42.308893" lon="13.6302752"><ele>1010.0</ele><time>2026-05-03T08:08:30.894Z</time></trkpt><trkpt lat="42.3088652" lon="13.6303866"><ele>1010.0</ele><time>2026-05-03T08:08:31.894Z</time></trkpt><trkpt lat="42.3088446" lon="13.6304879"><ele>1010.0000000000001</ele><time>2026-05-03T08:08:32.894Z</time></trkpt><trkpt lat="42.308835" lon="13.6305867"><ele>1010.0</ele><time>2026-05-03T08:08:33.893Z</time></trkpt><trkpt lat="42.3088385" lon="13.6307024"><ele>1009.8333333333334</ele><time>2026-05-03T08:08:34.894Z</time></trkpt><trkpt lat="42.3088572" lon="13.630822"><ele>1009.6666666666667</ele><time>2026-05-03T08:08:35.893Z</time></trkpt><trkpt lat="42.3088859" lon="13.6309443"><ele>1009.5</ele><time>2026-05-03T08:08:36.893Z</time></trkpt><trkpt lat="42.3089142" lon="13.6310446"><ele>1009.3333333333333</ele><time>2026-05-03T08:08:37.893Z</time></trkpt><trkpt lat="42.308933" lon="13.6311387"><ele>1009.1666666666666</ele><time>2026-05-03T08:08:38.893Z</time></trkpt><trkpt lat="42.3089284" lon="13.6312343"><ele>1009.0</ele><time>2026-05-03T08:08:39.893Z</time></trkpt><trkpt lat="42.3089028" lon="13.6313352"><ele>1007.0</ele><time>2026-05-03T08:08:40.893Z</time></trkpt><trkpt lat="42.3088678" lon="13.6314465"><ele>1005.0000000000001</ele><time>2026-05-03T08:08:41.893Z</time></trkpt><trkpt lat="42.3088327" lon="13.6315544"><ele>1003.0000000000001</ele><time>2026-05-03T08:08:42.893Z</time></trkpt><trkpt lat="42.3088149" lon="13.6316806"><ele>1001.0</ele><time>2026-05-03T08:08:43.894Z</time></trkpt><trkpt lat="42.3087891" lon="13.6317996"><ele>999.0</ele><time>2026-05-03T08:08:44.893Z</time></trkpt><trkpt lat="42.3087613" lon="13.6319156"><ele>998.6</ele><time>2026-05-03T08:08:45.893Z</time></trkpt><trkpt lat="42.3087192" lon="13.6320428"><ele>998.2</ele><time>2026-05-03T08:08:46.895Z</time></trkpt><trkpt lat="42.3086755" lon="13.6321746"><ele>997.8000000000001</ele><time>2026-05-03T08:08:47.893Z</time></trkpt><trkpt lat="42.3086281" lon="13.6322966"><ele>997.4000000000001</ele><time>2026-05-03T08:08:48.893Z</time></trkpt><trkpt lat="42.3085755" lon="13.6324138"><ele>997.0</ele><time>2026-05-03T08:08:49.893Z</time></trkpt><trkpt lat="42.3085063" lon="13.6325346"><ele>997.0</ele><time>2026-05-03T08:08:50.894Z</time></trkpt><trkpt lat="42.3084428" lon="13.6326623"><ele>997.0</ele><time>2026-05-03T08:08:51.893Z</time></trkpt><trkpt lat="42.3083749" lon="13.632798"><ele>997.0</ele><time>2026-05-03T08:08:52.893Z</time></trkpt><trkpt lat="42.3082979" lon="13.6329333"><ele>997.0</ele><time>2026-05-03T08:08:53.894Z</time></trkpt><trkpt lat="42.3082272" lon="13.6330757"><ele>997.5</ele><time>2026-05-03T08:08:54.894Z</time></trkpt><trkpt lat="42.3081544" lon="13.6332167"><ele>998.0</ele><time>2026-05-03T08:08:55.893Z</time></trkpt><trkpt lat="42.3080806" lon="13.6333465"><ele>998.5</ele><time>2026-05-03T08:08:56.893Z</time></trkpt><trkpt lat="42.3080169" lon="13.6334716"><ele>999.0</ele><time>2026-05-03T08:08:57.894Z</time></trkpt><trkpt lat="42.307969" lon="13.6336021"><ele>997.1666666666666</ele><time>2026-05-03T08:08:58.893Z</time></trkpt><trkpt lat="42.3079168" lon="13.6337247"><ele>995.3333333333333</ele><time>2026-05-03T08:08:59.893Z</time></trkpt><trkpt lat="42.3078797" lon="13.6338236"><ele>993.5</ele><time>2026-05-03T08:09:00.893Z</time></trkpt><trkpt lat="42.3078195" lon="13.6339082"><ele>991.6666666666666</ele><time>2026-05-03T08:09:01.894Z</time></trkpt><trkpt lat="42.3077569" lon="13.6339605"><ele>989.8333333333333</ele><time>2026-05-03T08:09:02.893Z</time></trkpt><trkpt lat="42.3076564" lon="13.6339802"><ele>988.0</ele><time>2026-05-03T08:09:03.894Z</time></trkpt><trkpt lat="42.3075825" lon="13.634031"><ele>988.0</ele><time>2026-05-03T08:09:04.893Z</time></trkpt><trkpt lat="42.3075134" lon="13.6340874"><ele>988.0</ele><time>2026-05-03T08:09:05.894Z</time></trkpt><trkpt lat="42.3074567" lon="13.6342393"><ele>988.0</ele><time>2026-05-03T08:09:06.894Z</time></trkpt><trkpt lat="42.3073933" lon="13.6343311"><ele>988.0</ele><time>2026-05-03T08:09:07.894Z</time></trkpt><trkpt lat="42.3073375" lon="13.6344138"><ele>988.0</ele><time>2026-05-03T08:09:08.894Z</time></trkpt><trkpt lat="42.3072931" lon="13.6344961"><ele>987.4</ele><time>2026-05-03T08:09:09.893Z</time></trkpt><trkpt lat="42.3072269" lon="13.6346129"><ele>986.8</ele><time>2026-05-03T08:10:06.893Z</time></trkpt><trkpt lat="42.307167" lon="13.6347126"><ele>986.2</ele><time>2026-05-03T08:10:07.894Z</time></trkpt><trkpt lat="42.3071015" lon="13.6348333"><ele>985.6</ele><time>2026-05-03T08:10:08.893Z</time></trkpt><trkpt lat="42.3070272" lon="13.6349711"><ele>985.0</ele><time>2026-05-03T08:10:09.893Z</time></trkpt><trkpt lat="42.3069502" lon="13.6351309"><ele>985.0</ele><time>2026-05-03T08:10:10.893Z</time></trkpt><trkpt lat="42.3068728" lon="13.6352916"><ele>985.0</ele><time>2026-05-03T08:10:11.894Z</time></trkpt><trkpt lat="42.3067951" lon="13.6354366"><ele>985.0</ele><time>2026-05-03T08:10:12.893Z</time></trkpt><trkpt lat="42.3067168" lon="13.6355729"><ele>985.0</ele><time>2026-05-03T08:10:13.893Z</time></trkpt><trkpt lat="42.3066374" lon="13.6357"><ele>984.0</ele><time>2026-05-03T08:10:14.894Z</time></trkpt><trkpt lat="42.3065728" lon="13.6358325"><ele>983.0</ele><time>2026-05-03T08:10:15.894Z</time></trkpt><trkpt lat="42.3065046" lon="13.6359707"><ele>982.0</ele><time>2026-05-03T08:10:16.893Z</time></trkpt><trkpt lat="42.3064334" lon="13.6361208"><ele>981.0</ele><time>2026-05-03T08:10:17.894Z</time></trkpt><trkpt lat="42.306369" lon="13.6362601"><ele>980.25</ele><time>2026-05-03T08:10:18.893Z</time></trkpt><trkpt lat="42.3063089" lon="13.6364043"><ele>979.5</ele><time>2026-05-03T08:10:19.894Z</time></trkpt><trkpt lat="42.3062562" lon="13.6365502"><ele>978.75</ele><time>2026-05-03T08:10:20.893Z</time></trkpt><trkpt lat="42.3062115" lon="13.6367135"><ele>978.0</ele><time>2026-05-03T08:10:21.894Z</time></trkpt><trkpt lat="42.3061636" lon="13.636884"><ele>976.75</ele><time>2026-05-03T08:10:22.893Z</time></trkpt><trkpt lat="42.3061104" lon="13.6370408"><ele>975.5</ele><time>2026-05-03T08:10:23.893Z</time></trkpt><trkpt lat="42.3060653" lon="13.6372047"><ele>974.25</ele><time>2026-05-03T08:10:24.894Z</time></trkpt><trkpt lat="42.3060211" lon="13.637375"><ele>973.0</ele><time>2026-05-03T08:10:25.894Z</time></trkpt><trkpt lat="42.3059727" lon="13.6375411"><ele>973.0</ele><time>2026-05-03T08:10:26.893Z</time></trkpt><trkpt lat="42.3059219" lon="13.6377083"><ele>973.0</ele><time>2026-05-03T08:10:27.894Z</time></trkpt><trkpt lat="42.3058804" lon="13.6378653"><ele>973.0</ele><time>2026-05-03T08:10:28.894Z</time></trkpt><trkpt lat="42.3058466" lon="13.6380138"><ele>973.0</ele><time>2026-05-03T08:10:29.893Z</time></trkpt><trkpt lat="42.3058261" lon="13.638166"><ele>972.2</ele><time>2026-05-03T08:10:30.893Z</time></trkpt><trkpt lat="42.3058139" lon="13.638316"><ele>971.4</ele><time>2026-05-03T08:10:31.893Z</time></trkpt><trkpt lat="42.3057801" lon="13.6384412"><ele>970.6000000000001</ele><time>2026-05-03T08:10:32.893Z</time></trkpt><trkpt lat="42.3057442" lon="13.6385689"><ele>969.8000000000001</ele><time>2026-05-03T08:10:33.894Z</time></trkpt><trkpt lat="42.3056891" lon="13.6386698"><ele>969.0</ele><time>2026-05-03T08:10:34.893Z</time></trkpt><trkpt lat="42.3056656" lon="13.6387872"><ele>968.8000000000001</ele><time>2026-05-03T08:10:35.893Z</time></trkpt><trkpt lat="42.3056425" lon="13.6389254"><ele>968.6000000000001</ele><time>2026-05-03T08:10:36.893Z</time></trkpt><trkpt lat="42.3056236" lon="13.6390414"><ele>968.4</ele><time>2026-05-03T08:10:37.893Z</time></trkpt><trkpt lat="42.3055762" lon="13.6391561"><ele>968.2</ele><time>2026-05-03T08:10:38.894Z</time></trkpt><trkpt lat="42.3055353" lon="13.6392786"><ele>968.0</ele><time>2026-05-03T08:10:39.893Z</time></trkpt><trkpt lat="42.3054712" lon="13.6393763"><ele>965.2</ele><time>2026-05-03T08:10:40.894Z</time></trkpt><trkpt lat="42.3054216" lon="13.6394814"><ele>962.4</ele><time>2026-05-03T08:10:41.893Z</time></trkpt><trkpt lat="42.3053838" lon="13.6395913"><ele>959.6000000000001</ele><time>2026-05-03T08:10:42.893Z</time></trkpt><trkpt lat="42.3053557" lon="13.639713"><ele>956.8000000000001</ele><time>2026-05-03T08:10:43.893Z</time></trkpt><trkpt lat="42.305327" lon="13.6398346"><ele>954.0</ele><time>2026-05-03T08:10:44.893Z</time></trkpt><trkpt lat="42.3052798" lon="13.6399715"><ele>954.0</ele><time>2026-05-03T08:10:45.894Z</time></trkpt><trkpt lat="42.3052502" lon="13.640085"><ele>954.0000000000001</ele><time>2026-05-03T08:10:46.892Z</time></trkpt><trkpt lat="42.3052253" lon="13.6402072"><ele>954.0000000000001</ele><time>2026-05-03T08:10:47.893Z</time></trkpt><trkpt lat="42.3051948" lon="13.6403219"><ele>954.0</ele><time>2026-05-03T08:10:48.893Z</time></trkpt><trkpt lat="42.3051586" lon="13.6404379"><ele>954.0</ele><time>2026-05-03T08:10:49.893Z</time></trkpt><trkpt lat="42.3051198" lon="13.6405462"><ele>952.0</ele><time>2026-05-03T08:10:50.894Z</time></trkpt><trkpt lat="42.3050704" lon="13.6406467"><ele>950.0</ele><time>2026-05-03T08:10:51.893Z</time></trkpt><trkpt lat="42.3050175" lon="13.6407374"><ele>948.0</ele><time>2026-05-03T08:10:52.895Z</time></trkpt><trkpt lat="42.3049818" lon="13.6408336"><ele>946.0</ele><time>2026-05-03T08:10:53.894Z</time></trkpt><trkpt lat="42.3049654" lon="13.640946"><ele>944.0</ele><time>2026-05-03T08:10:54.893Z</time></trkpt><trkpt lat="42.3049596" lon="13.6410615"><ele>942.0</ele><time>2026-05-03T08:10:55.894Z</time></trkpt><trkpt lat="42.3049635" lon="13.641173"><ele>940.6</ele><time>2026-05-03T08:10:56.894Z</time></trkpt><trkpt lat="42.3049517" lon="13.6412861"><ele>939.2</ele><time>2026-05-03T08:10:57.894Z</time></trkpt><trkpt lat="42.3049192" lon="13.641395"><ele>937.8</ele><time>2026-05-03T08:10:58.893Z</time></trkpt><trkpt lat="42.304879" lon="13.6415178"><ele>936.4</ele><time>2026-05-03T08:10:59.893Z</time></trkpt><trkpt lat="42.3048558" lon="13.6416418"><ele>935.0</ele><time>2026-05-03T08:11:00.894Z</time></trkpt><trkpt lat="42.3048337" lon="13.6417647"><ele>935.0000000000001</ele><time>2026-05-03T08:11:01.893Z</time></trkpt><trkpt lat="42.3048097" lon="13.641883"><ele>935.0</ele><time>2026-05-03T08:11:02.893Z</time></trkpt><trkpt lat="42.304779" lon="13.6419879"><ele>935.0</ele><time>2026-05-03T08:11:03.893Z</time></trkpt><trkpt lat="42.3047298" lon="13.6420695"><ele>935.0</ele><time>2026-05-03T08:11:04.893Z</time></trkpt><trkpt lat="42.3046621" lon="13.6421507"><ele>935.0000000000001</ele><time>2026-05-03T08:11:05.893Z</time></trkpt><trkpt lat="42.304581" lon="13.6422309"><ele>935.0</ele><time>2026-05-03T08:11:06.894Z</time></trkpt><trkpt lat="42.304509" lon="13.6423228"><ele>931.6</ele><time>2026-05-03T08:11:07.894Z</time></trkpt><trkpt lat="42.3044351" lon="13.6424239"><ele>928.2</ele><time>2026-05-03T08:11:08.893Z</time></trkpt><trkpt lat="42.304363" lon="13.6425242"><ele>924.8</ele><time>2026-05-03T08:11:09.894Z</time></trkpt><trkpt lat="42.3042894" lon="13.6426291"><ele>921.4</ele><time>2026-05-03T08:11:10.893Z</time></trkpt><trkpt lat="42.3042226" lon="13.6427126"><ele>918.0</ele><time>2026-05-03T08:11:11.893Z</time></trkpt><trkpt lat="42.3041463" lon="13.6427741"><ele>918.0</ele><time>2026-05-03T08:11:12.894Z</time></trkpt><trkpt lat="42.3040448" lon="13.6427854"><ele>918.0</ele><time>2026-05-03T08:11:14.893Z</time></trkpt><trkpt lat="42.3039803" lon="13.6428056"><ele>918.0</ele><time>2026-05-03T08:11:35.894Z</time></trkpt><trkpt lat="42.3038984" lon="13.6428672"><ele>918.0</ele><time>2026-05-03T08:11:38.894Z</time></trkpt><trkpt lat="42.3037795" lon="13.642938"><ele>918.0</ele><time>2026-05-03T08:11:40.893Z</time></trkpt><trkpt lat="42.3037085" lon="13.6429615"><ele>916.1666666666666</ele><time>2026-05-03T08:11:41.893Z</time></trkpt><trkpt lat="42.3036325" lon="13.6429862"><ele>914.3333333333333</ele><time>2026-05-03T08:11:42.893Z</time></trkpt><trkpt lat="42.3035526" lon="13.643006"><ele>912.5</ele><time>2026-05-03T08:11:43.894Z</time></trkpt><trkpt lat="42.3034736" lon="13.6430302"><ele>910.6666666666666</ele><time>2026-05-03T08:11:44.893Z</time></trkpt><trkpt lat="42.3033897" lon="13.6430616"><ele>908.8333333333333</ele><time>2026-05-03T08:11:45.893Z</time></trkpt><trkpt lat="42.3033003" lon="13.6430945"><ele>907.0</ele><time>2026-05-03T08:11:46.894Z</time></trkpt><trkpt lat="42.3032154" lon="13.64313"><ele>906.9999999999999</ele><time>2026-05-03T08:11:47.894Z</time></trkpt><trkpt lat="42.3031287" lon="13.6431643"><ele>907.0</ele><time>2026-05-03T08:11:48.893Z</time></trkpt><trkpt lat="42.3030482" lon="13.643194"><ele>907.0</ele><time>2026-05-03T08:11:49.894Z</time></trkpt><trkpt lat="42.3029711" lon="13.6432156"><ele>907.0</ele><time>2026-05-03T08:11:50.894Z</time></trkpt><trkpt lat="42.3028941" lon="13.6432196"><ele>906.9999999999999</ele><time>2026-05-03T08:11:51.894Z</time></trkpt><trkpt lat="42.3028121" lon="13.6432137"><ele>907.0</ele><time>2026-05-03T08:11:52.894Z</time></trkpt><trkpt lat="42.3027319" lon="13.6432101"><ele>904.3333333333333</ele><time>2026-05-03T08:11:53.894Z</time></trkpt><trkpt lat="42.3026486" lon="13.6431905"><ele>901.6666666666666</ele><time>2026-05-03T08:11:54.893Z</time></trkpt><trkpt lat="42.3025667" lon="13.643153"><ele>899.0</ele><time>2026-05-03T08:11:55.893Z</time></trkpt><trkpt lat="42.3024849" lon="13.6431199"><ele>896.3333333333333</ele><time>2026-05-03T08:11:56.893Z</time></trkpt><trkpt lat="42.3024015" lon="13.6431029"><ele>893.6666666666666</ele><time>2026-05-03T08:11:57.893Z</time></trkpt><trkpt lat="42.3023223" lon="13.6431108"><ele>891.0</ele><time>2026-05-03T08:11:58.894Z</time></trkpt><trkpt lat="42.3022446" lon="13.6431323"><ele>889.3333333333334</ele><time>2026-05-03T08:11:59.893Z</time></trkpt><trkpt lat="42.302181" lon="13.6431727"><ele>887.6666666666667</ele><time>2026-05-03T08:12:00.894Z</time></trkpt><trkpt lat="42.3021219" lon="13.6432294"><ele>886.0</ele><time>2026-05-03T08:12:01.892Z</time></trkpt><trkpt lat="42.3020426" lon="13.6432727"><ele>884.3333333333334</ele><time>2026-05-03T08:12:02.893Z</time></trkpt><trkpt lat="42.3019532" lon="13.6432964"><ele>882.6666666666667</ele><time>2026-05-03T08:12:03.894Z</time></trkpt><trkpt lat="42.3018577" lon="13.6433195"><ele>881.0</ele><time>2026-05-03T08:12:04.893Z</time></trkpt><trkpt lat="42.3017611" lon="13.6433392"><ele>881.0</ele><time>2026-05-03T08:12:05.893Z</time></trkpt><trkpt lat="42.3016634" lon="13.6433639"><ele>880.9999999999999</ele><time>2026-05-03T08:12:06.893Z</time></trkpt><trkpt lat="42.3015636" lon="13.6433922"><ele>880.9999999999999</ele><time>2026-05-03T08:12:07.893Z</time></trkpt><trkpt lat="42.3014682" lon="13.643425"><ele>881.0</ele><time>2026-05-03T08:12:08.894Z</time></trkpt><trkpt lat="42.301372" lon="13.643464"><ele>881.0</ele><time>2026-05-03T08:12:09.893Z</time></trkpt><trkpt lat="42.3012783" lon="13.643509"><ele>879.5999999999999</ele><time>2026-05-03T08:12:10.893Z</time></trkpt><trkpt lat="42.3011845" lon="13.6435489"><ele>878.1999999999999</ele><time>2026-05-03T08:12:11.893Z</time></trkpt><trkpt lat="42.3010921" lon="13.6435787"><ele>876.8000000000001</ele><time>2026-05-03T08:12:12.894Z</time></trkpt><trkpt lat="42.3010023" lon="13.6436148"><ele>875.4000000000001</ele><time>2026-05-03T08:12:13.893Z</time></trkpt><trkpt lat="42.300911" lon="13.6436503"><ele>874.0</ele><time>2026-05-03T08:12:14.894Z</time></trkpt><trkpt lat="42.3008165" lon="13.6436841"><ele>873.4000000000001</ele><time>2026-05-03T08:12:15.894Z</time></trkpt><trkpt lat="42.3007278" lon="13.6437232"><ele>872.8000000000001</ele><time>2026-05-03T08:12:16.893Z</time></trkpt><trkpt lat="42.3006415" lon="13.6437711"><ele>872.1999999999999</ele><time>2026-05-03T08:12:17.894Z</time></trkpt><trkpt lat="42.3005421" lon="13.643814"><ele>871.5999999999999</ele><time>2026-05-03T08:12:18.894Z</time></trkpt><trkpt lat="42.3004401" lon="13.64384"><ele>871.0</ele><time>2026-05-03T08:12:19.893Z</time></trkpt><trkpt lat="42.3003415" lon="13.643859"><ele>869.8</ele><time>2026-05-03T08:12:20.893Z</time></trkpt><trkpt lat="42.3002449" lon="13.6438784"><ele>868.5999999999999</ele><time>2026-05-03T08:12:21.893Z</time></trkpt><trkpt lat="42.3001523" lon="13.643897"><ele>867.4</ele><time>2026-05-03T08:12:22.893Z</time></trkpt><trkpt lat="42.3000539" lon="13.6439038"><ele>866.2</ele><time>2026-05-03T08:12:23.893Z</time></trkpt><trkpt lat="42.2999603" lon="13.6438933"><ele>865.0</ele><time>2026-05-03T08:12:24.894Z</time></trkpt><trkpt lat="42.2998707" lon="13.6438814"><ele>864.9999999999999</ele><time>2026-05-03T08:12:25.893Z</time></trkpt><trkpt lat="42.299796" lon="13.6438682"><ele>865.0</ele><time>2026-05-03T08:12:26.893Z</time></trkpt><trkpt lat="42.2996891" lon="13.6438218"><ele>865.0</ele><time>2026-05-03T08:12:28.894Z</time></trkpt><trkpt lat="42.2996219" lon="13.6438002"><ele>865.0</ele><time>2026-05-03T08:12:30.894Z</time></trkpt><trkpt lat="42.2995428" lon="13.6437081"><ele>864.9999999999999</ele><time>2026-05-03T08:12:41.893Z</time></trkpt><trkpt lat="42.2994891" lon="13.6436541"><ele>865.0</ele><time>2026-05-03T08:12:42.893Z</time></trkpt><trkpt lat="42.2994236" lon="13.6435895"><ele>863.2</ele><time>2026-05-03T08:12:43.893Z</time></trkpt><trkpt lat="42.2993499" lon="13.6435199"><ele>861.4</ele><time>2026-05-03T08:12:44.893Z</time></trkpt><trkpt lat="42.2992737" lon="13.643444"><ele>859.5999999999999</ele><time>2026-05-03T08:12:45.893Z</time></trkpt><trkpt lat="42.299193" lon="13.6433704"><ele>857.8</ele><time>2026-05-03T08:12:46.893Z</time></trkpt><trkpt lat="42.2991102" lon="13.6432952"><ele>856.0</ele><time>2026-05-03T08:12:47.893Z</time></trkpt><trkpt lat="42.2990252" lon="13.6432159"><ele>856.0</ele><time>2026-05-03T08:12:48.894Z</time></trkpt><trkpt lat="42.2989408" lon="13.6431365"><ele>855.9999999999999</ele><time>2026-05-03T08:12:49.894Z</time></trkpt><trkpt lat="42.2988579" lon="13.6430557"><ele>855.9999999999999</ele><time>2026-05-03T08:12:50.894Z</time></trkpt><trkpt lat="42.2987757" lon="13.6429717"><ele>856.0</ele><time>2026-05-03T08:12:51.894Z</time></trkpt><trkpt lat="42.2986918" lon="13.642877"><ele>856.0</ele><time>2026-05-03T08:12:52.894Z</time></trkpt><trkpt lat="42.2986121" lon="13.6427652"><ele>852.75</ele><time>2026-05-03T08:12:53.894Z</time></trkpt><trkpt lat="42.2985372" lon="13.6426478"><ele>849.5</ele><time>2026-05-03T08:12:54.894Z</time></trkpt><trkpt lat="42.2984644" lon="13.6425296"><ele>846.25</ele><time>2026-05-03T08:12:55.893Z</time></trkpt><trkpt lat="42.2983937" lon="13.6424082"><ele>843.0</ele><time>2026-05-03T08:12:56.893Z</time></trkpt><trkpt lat="42.2983218" lon="13.6422975"><ele>843.0</ele><time>2026-05-03T08:12:57.893Z</time></trkpt><trkpt lat="42.2982481" lon="13.6421933"><ele>843.0</ele><time>2026-05-03T08:12:58.894Z</time></trkpt><trkpt lat="42.2981769" lon="13.6420924"><ele>843.0</ele><time>2026-05-03T08:12:59.895Z</time></trkpt><trkpt lat="42.2981064" lon="13.6419941"><ele>843.0</ele><time>2026-05-03T08:13:00.893Z</time></trkpt><trkpt lat="42.2980336" lon="13.6418942"><ele>843.0</ele><time>2026-05-03T08:13:01.893Z</time></trkpt><trkpt lat="42.297967" lon="13.6418009"><ele>841.0</ele><time>2026-05-03T08:13:02.893Z</time></trkpt><trkpt lat="42.2979045" lon="13.6417163"><ele>839.0</ele><time>2026-05-03T08:13:03.893Z</time></trkpt><trkpt lat="42.2978532" lon="13.64164"><ele>837.0</ele><time>2026-05-03T08:13:04.893Z</time></trkpt><trkpt lat="42.2977734" lon="13.6415715"><ele>835.0</ele><time>2026-05-03T08:13:06.894Z</time></trkpt><trkpt lat="42.2977074" lon="13.6416053"><ele>833.0</ele><time>2026-05-03T08:13:08.894Z</time></trkpt><trkpt lat="42.2976146" lon="13.6416472"><ele>831.0</ele><time>2026-05-03T08:13:10.894Z</time></trkpt><trkpt lat="42.2975208" lon="13.6416432"><ele>831.0</ele><time>2026-05-03T08:13:12.894Z</time></trkpt><trkpt lat="42.297436" lon="13.6416372"><ele>831.0</ele><time>2026-05-03T08:13:14.893Z</time></trkpt><trkpt lat="42.2972974" lon="13.6416348"><ele>831.0</ele><time>2026-05-03T08:13:16.893Z</time></trkpt><trkpt lat="42.2972144" lon="13.6416263"><ele>831.0</ele><time>2026-05-03T08:13:17.893Z</time></trkpt><trkpt lat="42.2971287" lon="13.6416065"><ele>831.0</ele><time>2026-05-03T08:13:18.893Z</time></trkpt><trkpt lat="42.297038" lon="13.64159"><ele>829.5</ele><time>2026-05-03T08:13:19.893Z</time></trkpt><trkpt lat="42.2969499" lon="13.6415732"><ele>828.0</ele><time>2026-05-03T08:13:20.893Z</time></trkpt><trkpt lat="42.296863" lon="13.6415511"><ele>826.5</ele><time>2026-05-03T08:13:21.893Z</time></trkpt><trkpt lat="42.2967829" lon="13.6415329"><ele>825.0</ele><time>2026-05-03T08:13:22.893Z</time></trkpt><trkpt lat="42.2967" lon="13.6415327"><ele>823.5</ele><time>2026-05-03T08:13:23.893Z</time></trkpt><trkpt lat="42.2966158" lon="13.6415497"><ele>822.0</ele><time>2026-05-03T08:13:24.894Z</time></trkpt><trkpt lat="42.2965176" lon="13.6415657"><ele>820.2</ele><time>2026-05-03T08:13:25.893Z</time></trkpt><trkpt lat="42.2964145" lon="13.641563"><ele>818.4000000000001</ele><time>2026-05-03T08:13:26.893Z</time></trkpt><trkpt lat="42.296314" lon="13.6415565"><ele>816.5999999999999</ele><time>2026-05-03T08:13:27.894Z</time></trkpt><trkpt lat="42.2962199" lon="13.6415403"><ele>814.8</ele><time>2026-05-03T08:13:28.893Z</time></trkpt><trkpt lat="42.296122" lon="13.6415138"><ele>813.0</ele><time>2026-05-03T08:13:29.894Z</time></trkpt><trkpt lat="42.2960263" lon="13.6414694"><ele>813.0</ele><time>2026-05-03T08:13:30.894Z</time></trkpt><trkpt lat="42.2959341" lon="13.6414149"><ele>813.0</ele><time>2026-05-03T08:13:31.894Z</time></trkpt><trkpt lat="42.2958397" lon="13.6413699"><ele>813.0</ele><time>2026-05-03T08:13:32.893Z</time></trkpt><trkpt lat="42.2957265" lon="13.6413389"><ele>813.0</ele><time>2026-05-03T08:13:33.893Z</time></trkpt><trkpt lat="42.2956115" lon="13.6413176"><ele>813.0</ele><time>2026-05-03T08:13:34.893Z</time></trkpt><trkpt lat="42.2955047" lon="13.6412999"><ele>811.2</ele><time>2026-05-03T08:13:35.893Z</time></trkpt><trkpt lat="42.2953959" lon="13.6412764"><ele>809.4</ele><time>2026-05-03T08:13:36.893Z</time></trkpt><trkpt lat="42.2952895" lon="13.6412615"><ele>807.6</ele><time>2026-05-03T08:13:37.893Z</time></trkpt><trkpt lat="42.2951878" lon="13.6412571"><ele>805.8000000000001</ele><time>2026-05-03T08:13:38.893Z</time></trkpt><trkpt lat="42.2950768" lon="13.6412525"><ele>804.0</ele><time>2026-05-03T08:13:39.894Z</time></trkpt><trkpt lat="42.2949702" lon="13.6412515"><ele>804.0</ele><time>2026-05-03T08:13:40.894Z</time></trkpt><trkpt lat="42.2948722" lon="13.6412488"><ele>804.0</ele><time>2026-05-03T08:13:41.893Z</time></trkpt><trkpt lat="42.2947788" lon="13.6412313"><ele>804.0</ele><time>2026-05-03T08:13:42.893Z</time></trkpt><trkpt lat="42.2946909" lon="13.6412018"><ele>804.0</ele><time>2026-05-03T08:13:43.893Z</time></trkpt><trkpt lat="42.2946103" lon="13.6411613"><ele>804.0</ele><time>2026-05-03T08:13:44.894Z</time></trkpt><trkpt lat="42.2945405" lon="13.6411251"><ele>804.0</ele><time>2026-05-03T08:13:45.893Z</time></trkpt><trkpt lat="42.2944518" lon="13.6410838"><ele>803.0</ele><time>2026-05-03T08:13:47.893Z</time></trkpt><trkpt lat="42.2943666" lon="13.6410831"><ele>802.0</ele><time>2026-05-03T08:13:50.893Z</time></trkpt><trkpt lat="42.2943084" lon="13.6411375"><ele>801.0</ele><time>2026-05-03T08:13:52.893Z</time></trkpt><trkpt lat="42.294255" lon="13.6412205"><ele>800.0</ele><time>2026-05-03T08:13:54.893Z</time></trkpt><trkpt lat="42.2941866" lon="13.6412992"><ele>799.0</ele><time>2026-05-03T08:13:56.894Z</time></trkpt><trkpt lat="42.2941334" lon="13.6413543"><ele>798.0</ele><time>2026-05-03T08:13:57.893Z</time></trkpt><trkpt lat="42.2940779" lon="13.6414158"><ele>798.0</ele><time>2026-05-03T08:13:58.893Z</time></trkpt><trkpt lat="42.2940113" lon="13.6414824"><ele>798.0</ele><time>2026-05-03T08:13:59.894Z</time></trkpt><trkpt lat="42.2939494" lon="13.641556"><ele>798.0</ele><time>2026-05-03T08:14:00.894Z</time></trkpt><trkpt lat="42.2938869" lon="13.641635"><ele>798.0</ele><time>2026-05-03T08:14:01.894Z</time></trkpt><trkpt lat="42.2938277" lon="13.6417285"><ele>798.0</ele><time>2026-05-03T08:14:02.894Z</time></trkpt><trkpt lat="42.2937742" lon="13.6418352"><ele>798.0</ele><time>2026-05-03T08:14:03.893Z</time></trkpt><trkpt lat="42.2937308" lon="13.6419528"><ele>798.0</ele><time>2026-05-03T08:14:04.893Z</time></trkpt><trkpt lat="42.2936871" lon="13.6420752"><ele>798.0</ele><time>2026-05-03T08:14:05.893Z</time></trkpt><trkpt lat="42.2936311" lon="13.6421916"><ele>798.0</ele><time>2026-05-03T08:14:06.893Z</time></trkpt><trkpt lat="42.2935586" lon="13.6422868"><ele>798.0</ele><time>2026-05-03T08:14:07.894Z</time></trkpt><trkpt lat="42.2934653" lon="13.6423571"><ele>798.0</ele><time>2026-05-03T08:14:08.893Z</time></trkpt><trkpt lat="42.2933678" lon="13.6424201"><ele>798.0</ele><time>2026-05-03T08:14:09.893Z</time></trkpt><trkpt lat="42.293261" lon="13.6424845"><ele>798.0</ele><time>2026-05-03T08:14:10.894Z</time></trkpt><trkpt lat="42.2931472" lon="13.6425469"><ele>798.0</ele><time>2026-05-03T08:14:11.893Z</time></trkpt><trkpt lat="42.2930291" lon="13.6426084"><ele>798.0</ele><time>2026-05-03T08:14:12.893Z</time></trkpt><trkpt lat="42.2929072" lon="13.6426699"><ele>797.75</ele><time>2026-05-03T08:14:13.893Z</time></trkpt><trkpt lat="42.2927836" lon="13.6427418"><ele>797.5</ele><time>2026-05-03T08:14:14.893Z</time></trkpt><trkpt lat="42.2926547" lon="13.6428066"><ele>797.25</ele><time>2026-05-03T08:14:15.893Z</time></trkpt><trkpt lat="42.2925246" lon="13.642871"><ele>797.0</ele><time>2026-05-03T08:14:16.894Z</time></trkpt><trkpt lat="42.2923991" lon="13.6429321"><ele>797.0</ele><time>2026-05-03T08:14:17.894Z</time></trkpt><trkpt lat="42.2922807" lon="13.6429874"><ele>797.0</ele><time>2026-05-03T08:14:18.893Z</time></trkpt><trkpt lat="42.2921599" lon="13.6430394"><ele>797.0</ele><time>2026-05-03T08:14:19.894Z</time></trkpt><trkpt lat="42.2920414" lon="13.6430897"><ele>797.0</ele><time>2026-05-03T08:14:20.893Z</time></trkpt><trkpt lat="42.29192" lon="13.6431317"><ele>796.5</ele><time>2026-05-03T08:14:21.893Z</time></trkpt><trkpt lat="42.2917997" lon="13.6431682"><ele>796.0</ele><time>2026-05-03T08:14:22.894Z</time></trkpt><trkpt lat="42.2916794" lon="13.6431881"><ele>795.5</ele><time>2026-05-03T08:14:23.893Z</time></trkpt><trkpt lat="42.2915627" lon="13.643183"><ele>795.0</ele><time>2026-05-03T08:14:24.893Z</time></trkpt><trkpt lat="42.2914549" lon="13.6431468"><ele>794.2</ele><time>2026-05-03T08:14:25.894Z</time></trkpt><trkpt lat="42.2913579" lon="13.6430973"><ele>793.4</ele><time>2026-05-03T08:14:26.894Z</time></trkpt><trkpt lat="42.2912608" lon="13.6430598"><ele>792.5999999999999</ele><time>2026-05-03T08:14:27.893Z</time></trkpt><trkpt lat="42.291164" lon="13.6430504"><ele>791.8</ele><time>2026-05-03T08:14:28.894Z</time></trkpt><trkpt lat="42.2910602" lon="13.6430687"><ele>791.0</ele><time>2026-05-03T08:14:29.893Z</time></trkpt><trkpt lat="42.2909455" lon="13.6430954"><ele>791.0</ele><time>2026-05-03T08:14:30.893Z</time></trkpt><trkpt lat="42.2908237" lon="13.6431275"><ele>791.0</ele><time>2026-05-03T08:14:31.893Z</time></trkpt><trkpt lat="42.2907" lon="13.6431585"><ele>791.0</ele><time>2026-05-03T08:14:32.894Z</time></trkpt><trkpt lat="42.2905716" lon="13.6431848"><ele>791.0</ele><time>2026-05-03T08:14:33.894Z</time></trkpt><trkpt lat="42.2904366" lon="13.6432013"><ele>789.75</ele><time>2026-05-03T08:14:34.893Z</time></trkpt><trkpt lat="42.2903058" lon="13.6432144"><ele>788.5</ele><time>2026-05-03T08:14:35.893Z</time></trkpt><trkpt lat="42.2901757" lon="13.6432325"><ele>787.25</ele><time>2026-05-03T08:14:36.894Z</time></trkpt><trkpt lat="42.2900492" lon="13.6432504"><ele>786.0</ele><time>2026-05-03T08:14:37.894Z</time></trkpt><trkpt lat="42.2899316" lon="13.6432676"><ele>786.0</ele><time>2026-05-03T08:14:38.893Z</time></trkpt><trkpt lat="42.2898352" lon="13.6432945"><ele>786.0</ele><time>2026-05-03T08:14:39.893Z</time></trkpt><trkpt lat="42.2897586" lon="13.643353"><ele>786.0</ele><time>2026-05-03T08:14:40.893Z</time></trkpt><trkpt lat="42.2897106" lon="13.6434408"><ele>786.0</ele><time>2026-05-03T08:14:41.893Z</time></trkpt><trkpt lat="42.2896928" lon="13.64355"><ele>786.0</ele><time>2026-05-03T08:14:42.893Z</time></trkpt><trkpt lat="42.2897116" lon="13.6436666"><ele>786.0</ele><time>2026-05-03T08:14:43.893Z</time></trkpt><trkpt lat="42.2897421" lon="13.6437865"><ele>787.0</ele><time>2026-05-03T08:14:44.893Z</time></trkpt><trkpt lat="42.2897775" lon="13.6439167"><ele>788.0</ele><time>2026-05-03T08:14:45.894Z</time></trkpt><trkpt lat="42.2898056" lon="13.6440573"><ele>789.0</ele><time>2026-05-03T08:14:46.893Z</time></trkpt><trkpt lat="42.2898272" lon="13.6442072"><ele>790.0</ele><time>2026-05-03T08:14:47.894Z</time></trkpt><trkpt lat="42.2898386" lon="13.6443615"><ele>791.0</ele><time>2026-05-03T08:14:48.893Z</time></trkpt><trkpt lat="42.2898547" lon="13.6445173"><ele>792.0</ele><time>2026-05-03T08:14:49.893Z</time></trkpt><trkpt lat="42.2898779" lon="13.6446736"><ele>793.0</ele><time>2026-05-03T08:14:50.893Z</time></trkpt><trkpt lat="42.2899095" lon="13.6448299"><ele>794.0</ele><time>2026-05-03T08:14:51.893Z</time></trkpt><trkpt lat="42.289952" lon="13.644982"><ele>795.0</ele><time>2026-05-03T08:14:52.893Z</time></trkpt><trkpt lat="42.2899947" lon="13.6451343"><ele>795.0</ele><time>2026-05-03T08:14:53.894Z</time></trkpt><trkpt lat="42.2900387" lon="13.6452893"><ele>795.0</ele><time>2026-05-03T08:14:54.893Z</time></trkpt><trkpt lat="42.2900818" lon="13.6454444"><ele>795.0</ele><time>2026-05-03T08:14:55.893Z</time></trkpt><trkpt lat="42.2901069" lon="13.64559"><ele>795.0</ele><time>2026-05-03T08:14:56.893Z</time></trkpt><trkpt lat="42.2901145" lon="13.6457305"><ele>795.25</ele><time>2026-05-03T08:14:57.894Z</time></trkpt><trkpt lat="42.290106" lon="13.6458772"><ele>795.5</ele><time>2026-05-03T08:14:58.893Z</time></trkpt><trkpt lat="42.2900894" lon="13.646029"><ele>795.75</ele><time>2026-05-03T08:14:59.894Z</time></trkpt><trkpt lat="42.2900643" lon="13.6461853"><ele>796.0</ele><time>2026-05-03T08:15:00.893Z</time></trkpt><trkpt lat="42.2900271" lon="13.6463376"><ele>797.5</ele><time>2026-05-03T08:15:01.893Z</time></trkpt><trkpt lat="42.2899668" lon="13.6464753"><ele>799.0</ele><time>2026-05-03T08:15:02.893Z</time></trkpt><trkpt lat="42.289893" lon="13.6465997"><ele>800.5</ele><time>2026-05-03T08:15:03.893Z</time></trkpt><trkpt lat="42.2898187" lon="13.6467288"><ele>802.0</ele><time>2026-05-03T08:15:04.893Z</time></trkpt><trkpt lat="42.2897538" lon="13.6468683"><ele>799.25</ele><time>2026-05-03T08:15:05.893Z</time></trkpt><trkpt lat="42.2896946" lon="13.6470154"><ele>796.5</ele><time>2026-05-03T08:15:06.893Z</time></trkpt><trkpt lat="42.2896404" lon="13.6471688"><ele>793.75</ele><time>2026-05-03T08:15:07.893Z</time></trkpt><trkpt lat="42.2896011" lon="13.6473329"><ele>791.0</ele><time>2026-05-03T08:15:08.893Z</time></trkpt><trkpt lat="42.2895656" lon="13.6475008"><ele>791.0</ele><time>2026-05-03T08:15:09.893Z</time></trkpt><trkpt lat="42.2895178" lon="13.6476647"><ele>791.0</ele><time>2026-05-03T08:15:10.894Z</time></trkpt><trkpt lat="42.2894471" lon="13.6478135"><ele>791.0</ele><time>2026-05-03T08:15:11.893Z</time></trkpt><trkpt lat="42.289364" lon="13.6479449"><ele>791.0</ele><time>2026-05-03T08:15:12.894Z</time></trkpt><trkpt lat="42.289279" lon="13.6480731"><ele>792.25</ele><time>2026-05-03T08:15:13.893Z</time></trkpt><trkpt lat="42.2891894" lon="13.6481971"><ele>793.5</ele><time>2026-05-03T08:15:14.893Z</time></trkpt><trkpt lat="42.2890971" lon="13.648323"><ele>794.75</ele><time>2026-05-03T08:15:15.894Z</time></trkpt><trkpt lat="42.2890027" lon="13.6484456"><ele>796.0</ele><time>2026-05-03T08:15:16.894Z</time></trkpt><trkpt lat="42.2889068" lon="13.6485648"><ele>794.0</ele><time>2026-05-03T08:15:17.893Z</time></trkpt><trkpt lat="42.2888142" lon="13.6486799"><ele>792.0</ele><time>2026-05-03T08:15:18.893Z</time></trkpt><trkpt lat="42.2887241" lon="13.6487885"><ele>790.0</ele><time>2026-05-03T08:15:19.894Z</time></trkpt><trkpt lat="42.2886351" lon="13.6488884"><ele>788.0</ele><time>2026-05-03T08:15:20.893Z</time></trkpt><trkpt lat="42.2885438" lon="13.6489809"><ele>788.0</ele><time>2026-05-03T08:15:21.893Z</time></trkpt><trkpt lat="42.288453" lon="13.6490607"><ele>788.0</ele><time>2026-05-03T08:15:22.893Z</time></trkpt><trkpt lat="42.2883589" lon="13.6491355"><ele>788.0</ele><time>2026-05-03T08:15:23.893Z</time></trkpt><trkpt lat="42.288267" lon="13.6492237"><ele>788.0</ele><time>2026-05-03T08:15:24.893Z</time></trkpt><trkpt lat="42.2881764" lon="13.6493222"><ele>788.0</ele><time>2026-05-03T08:15:25.893Z</time></trkpt><trkpt lat="42.2880862" lon="13.6494279"><ele>786.0</ele><time>2026-05-03T08:15:26.894Z</time></trkpt><trkpt lat="42.2880019" lon="13.649547"><ele>784.0</ele><time>2026-05-03T08:15:27.895Z</time></trkpt><trkpt lat="42.2879229" lon="13.6496767"><ele>782.0</ele><time>2026-05-03T08:15:28.893Z</time></trkpt><trkpt lat="42.2878557" lon="13.6498154"><ele>780.0</ele><time>2026-05-03T08:15:29.893Z</time></trkpt><trkpt lat="42.2877969" lon="13.6499614"><ele>780.0</ele><time>2026-05-03T08:15:30.894Z</time></trkpt><trkpt lat="42.2877391" lon="13.6501134"><ele>780.0</ele><time>2026-05-03T08:15:31.893Z</time></trkpt><trkpt lat="42.2876822" lon="13.6502672"><ele>780.0</ele><time>2026-05-03T08:15:32.894Z</time></trkpt><trkpt lat="42.2876299" lon="13.6504253"><ele>780.0</ele><time>2026-05-03T08:15:33.894Z</time></trkpt><trkpt lat="42.2875823" lon="13.6505856"><ele>781.25</ele><time>2026-05-03T08:15:34.893Z</time></trkpt><trkpt lat="42.2875429" lon="13.6507508"><ele>782.5</ele><time>2026-05-03T08:15:35.894Z</time></trkpt><trkpt lat="42.2875115" lon="13.6509152"><ele>783.75</ele><time>2026-05-03T08:15:36.893Z</time></trkpt><trkpt lat="42.2874896" lon="13.6510835"><ele>785.0</ele><time>2026-05-03T08:15:37.894Z</time></trkpt><trkpt lat="42.2874747" lon="13.6512521"><ele>785.75</ele><time>2026-05-03T08:15:38.894Z</time></trkpt><trkpt lat="42.2874731" lon="13.6514214"><ele>786.5</ele><time>2026-05-03T08:15:39.894Z</time></trkpt><trkpt lat="42.2874898" lon="13.6515863"><ele>787.25</ele><time>2026-05-03T08:15:40.893Z</time></trkpt><trkpt lat="42.2875163" lon="13.651749"><ele>788.0</ele><time>2026-05-03T08:15:41.894Z</time></trkpt><trkpt lat="42.2875333" lon="13.6519111"><ele>789.0</ele><time>2026-05-03T08:15:42.893Z</time></trkpt><trkpt lat="42.2875261" lon="13.6520623"><ele>790.0</ele><time>2026-05-03T08:15:43.894Z</time></trkpt><trkpt lat="42.2874893" lon="13.6521963"><ele>791.0</ele><time>2026-05-03T08:15:44.893Z</time></trkpt><trkpt lat="42.2874315" lon="13.6523161"><ele>792.0</ele><time>2026-05-03T08:15:45.894Z</time></trkpt><trkpt lat="42.2873666" lon="13.6524313"><ele>793.0</ele><time>2026-05-03T08:15:46.893Z</time></trkpt><trkpt lat="42.2872968" lon="13.6525486"><ele>790.4</ele><time>2026-05-03T08:15:47.894Z</time></trkpt><trkpt lat="42.2872252" lon="13.6526713"><ele>787.8</ele><time>2026-05-03T08:15:48.893Z</time></trkpt><trkpt lat="42.2871652" lon="13.6527999"><ele>785.2</ele><time>2026-05-03T08:15:49.894Z</time></trkpt><trkpt lat="42.287123" lon="13.6529366"><ele>782.6</ele><time>2026-05-03T08:15:50.894Z</time></trkpt><trkpt lat="42.2870965" lon="13.6530816"><ele>780.0</ele><time>2026-05-03T08:15:51.894Z</time></trkpt><trkpt lat="42.2870746" lon="13.6532289"><ele>780.0</ele><time>2026-05-03T08:15:52.893Z</time></trkpt><trkpt lat="42.2870522" lon="13.6533785"><ele>780.0</ele><time>2026-05-03T08:15:53.893Z</time></trkpt><trkpt lat="42.287029" lon="13.6535299"><ele>780.0</ele><time>2026-05-03T08:15:54.894Z</time></trkpt><trkpt lat="42.287001" lon="13.6536801"><ele>780.0</ele><time>2026-05-03T08:15:55.894Z</time></trkpt><trkpt lat="42.2869713" lon="13.6538242"><ele>781.4</ele><time>2026-05-03T08:15:56.894Z</time></trkpt><trkpt lat="42.2869365" lon="13.6539605"><ele>782.8</ele><time>2026-05-03T08:15:57.893Z</time></trkpt><trkpt lat="42.2868944" lon="13.6540815"><ele>784.2</ele><time>2026-05-03T08:15:58.894Z</time></trkpt><trkpt lat="42.2868439" lon="13.6541853"><ele>785.6</ele><time>2026-05-03T08:15:59.893Z</time></trkpt><trkpt lat="42.2867873" lon="13.6542785"><ele>787.0</ele><time>2026-05-03T08:16:00.892Z</time></trkpt><trkpt lat="42.2867276" lon="13.6543611"><ele>787.0</ele><time>2026-05-03T08:16:01.894Z</time></trkpt><trkpt lat="42.2866659" lon="13.6544462"><ele>787.0</ele><time>2026-05-03T08:16:02.893Z</time></trkpt><trkpt lat="42.2866044" lon="13.6545366"><ele>787.0</ele><time>2026-05-03T08:16:03.893Z</time></trkpt><trkpt lat="42.2865418" lon="13.6546292"><ele>787.0</ele><time>2026-05-03T08:16:04.894Z</time></trkpt><trkpt lat="42.2864774" lon="13.6547195"><ele>787.0</ele><time>2026-05-03T08:16:05.893Z</time></trkpt><trkpt lat="42.286415" lon="13.6548053"><ele>786.3333333333333</ele><time>2026-05-03T08:16:06.893Z</time></trkpt><trkpt lat="42.2863559" lon="13.6548871"><ele>785.6666666666666</ele><time>2026-05-03T08:16:07.893Z</time></trkpt><trkpt lat="42.2862993" lon="13.6549663"><ele>785.0</ele><time>2026-05-03T08:16:08.893Z</time></trkpt><trkpt lat="42.2862512" lon="13.6550384"><ele>784.3333333333333</ele><time>2026-05-03T08:16:09.894Z</time></trkpt><trkpt lat="42.2862043" lon="13.6551223"><ele>783.6666666666666</ele><time>2026-05-03T08:16:11.893Z</time></trkpt><trkpt lat="42.2862283" lon="13.6552315"><ele>783.0</ele><time>2026-05-03T08:16:14.893Z</time></trkpt><trkpt lat="42.2862935" lon="13.6553025"><ele>783.0</ele><time>2026-05-03T08:16:16.894Z</time></trkpt><trkpt lat="42.2863627" lon="13.6553741"><ele>783.0</ele><time>2026-05-03T08:16:18.893Z</time></trkpt><trkpt lat="42.2864087" lon="13.6554376"><ele>783.0</ele><time>2026-05-03T08:16:21.893Z</time></trkpt><trkpt lat="42.2864657" lon="13.6555114"><ele>783.0</ele><time>2026-05-03T08:16:24.894Z</time></trkpt><trkpt lat="42.2865515" lon="13.6555862"><ele>783.0</ele><time>2026-05-03T08:16:26.893Z</time></trkpt><trkpt lat="42.2866491" lon="13.6556729"><ele>785.8</ele><time>2026-05-03T08:16:28.894Z</time></trkpt><trkpt lat="42.2867379" lon="13.655757"><ele>788.5999999999999</ele><time>2026-05-03T08:16:30.893Z</time></trkpt><trkpt lat="42.286819" lon="13.6558308"><ele>791.4000000000001</ele><time>2026-05-03T08:16:32.893Z</time></trkpt><trkpt lat="42.2868871" lon="13.6558972"><ele>794.2</ele><time>2026-05-03T08:16:34.893Z</time></trkpt><trkpt lat="42.2869269" lon="13.6559754"><ele>797.0</ele><time>2026-05-03T08:16:36.893Z</time></trkpt><trkpt lat="42.2868774" lon="13.6558686"><ele>797.0000000000001</ele><time>2026-05-03T08:17:07.893Z</time></trkpt><trkpt lat="42.2867997" lon="13.6558034"><ele>797.0</ele><time>2026-05-03T08:17:09.894Z</time></trkpt><trkpt lat="42.2867149" lon="13.6557339"><ele>797.0</ele><time>2026-05-03T08:17:11.893Z</time></trkpt><trkpt lat="42.2866466" lon="13.6556664"><ele>797.0</ele><time>2026-05-03T08:17:13.894Z</time></trkpt><trkpt lat="42.2865841" lon="13.6556034"><ele>797.0000000000001</ele><time>2026-05-03T08:17:15.893Z</time></trkpt><trkpt lat="42.2865169" lon="13.6555472"><ele>797.0</ele><time>2026-05-03T08:17:17.895Z</time></trkpt><trkpt lat="42.2864492" lon="13.6554904"><ele>795.0</ele><time>2026-05-03T08:17:20.894Z</time></trkpt><trkpt lat="42.2863915" lon="13.6555972"><ele>793.0</ele><time>2026-05-03T08:17:24.893Z</time></trkpt><trkpt lat="42.2863839" lon="13.6557325"><ele>791.0</ele><time>2026-05-03T08:17:26.894Z</time></trkpt><trkpt lat="42.2863796" lon="13.6558244"><ele>789.0</ele><time>2026-05-03T08:17:27.893Z</time></trkpt><trkpt lat="42.2863722" lon="13.6559804"><ele>787.0</ele><time>2026-05-03T08:17:29.893Z</time></trkpt><trkpt lat="42.2863675" lon="13.6561372"><ele>786.9999999999999</ele><time>2026-05-03T08:17:31.893Z</time></trkpt><trkpt lat="42.2863535" lon="13.6562392"><ele>787.0</ele><time>2026-05-03T08:17:33.894Z</time></trkpt><trkpt lat="42.2863507" lon="13.6563275"><ele>787.0</ele><time>2026-05-03T08:17:38.893Z</time></trkpt><trkpt lat="42.286353" lon="13.6564178"><ele>787.0</ele><time>2026-05-03T08:17:40.893Z</time></trkpt><trkpt lat="42.2863881" lon="13.6565175"><ele>786.9999999999999</ele><time>2026-05-03T08:17:42.893Z</time></trkpt><trkpt lat="42.2864497" lon="13.6565822"><ele>787.0</ele><time>2026-05-03T08:17:44.894Z</time></trkpt><trkpt lat="42.2865391" lon="13.6566098"><ele>790.6</ele><time>2026-05-03T08:17:46.892Z</time></trkpt><trkpt lat="42.2866305" lon="13.6566417"><ele>794.2</ele><time>2026-05-03T08:17:48.893Z</time></trkpt><trkpt lat="42.2866709" lon="13.6567243"><ele>797.8</ele><time>2026-05-03T08:17:50.892Z</time></trkpt><trkpt lat="42.2866528" lon="13.65683"><ele>801.4</ele><time>2026-05-03T08:17:52.892Z</time></trkpt><trkpt lat="42.2865944" lon="13.656941"><ele>805.0</ele><time>2026-05-03T08:17:54.892Z</time></trkpt><trkpt lat="42.2865263" lon="13.657062"><ele>803.2</ele><time>2026-05-03T08:17:56.893Z</time></trkpt><trkpt lat="42.2864486" lon="13.6571899"><ele>801.4</ele><time>2026-05-03T08:17:58.892Z</time></trkpt><trkpt lat="42.2864032" lon="13.6572541"><ele>799.5999999999999</ele><time>2026-05-03T08:17:59.893Z</time></trkpt><trkpt lat="42.2863242" lon="13.6573871"><ele>797.8</ele><time>2026-05-03T08:18:01.893Z</time></trkpt><trkpt lat="42.2862477" lon="13.6575046"><ele>796.0</ele><time>2026-05-03T08:18:03.893Z</time></trkpt><trkpt lat="42.2861746" lon="13.657602"><ele>796.0</ele><time>2026-05-03T08:18:05.893Z</time></trkpt><trkpt lat="42.2860975" lon="13.6577018"><ele>796.0</ele><time>2026-05-03T08:18:07.892Z</time></trkpt><trkpt lat="42.286017" lon="13.657815"><ele>796.0</ele><time>2026-05-03T08:18:09.893Z</time></trkpt><trkpt lat="42.2859405" lon="13.6579468"><ele>796.0</ele><time>2026-05-03T08:18:11.893Z</time></trkpt><trkpt lat="42.2858598" lon="13.6580653"><ele>794.5999999999999</ele><time>2026-05-03T08:18:13.893Z</time></trkpt><trkpt lat="42.2857789" lon="13.6581835"><ele>793.2</ele><time>2026-05-03T08:18:15.892Z</time></trkpt><trkpt lat="42.2857221" lon="13.6582921"><ele>791.8</ele><time>2026-05-03T08:18:17.893Z</time></trkpt><trkpt lat="42.2856607" lon="13.6583858"><ele>790.4000000000001</ele><time>2026-05-03T08:18:19.893Z</time></trkpt><trkpt lat="42.285598" lon="13.6584927"><ele>789.0</ele><time>2026-05-03T08:18:21.893Z</time></trkpt><trkpt lat="42.2855376" lon="13.6585996"><ele>790.8000000000001</ele><time>2026-05-03T08:18:23.892Z</time></trkpt><trkpt lat="42.2854745" lon="13.6587135"><ele>792.6</ele><time>2026-05-03T08:18:25.893Z</time></trkpt><trkpt lat="42.2854243" lon="13.6588217"><ele>794.4</ele><time>2026-05-03T08:18:27.892Z</time></trkpt><trkpt lat="42.2853734" lon="13.658928"><ele>796.2</ele><time>2026-05-03T08:18:29.892Z</time></trkpt><trkpt lat="42.2853044" lon="13.6590165"><ele>798.0</ele><time>2026-05-03T08:18:31.892Z</time></trkpt><trkpt lat="42.2852276" lon="13.6591007"><ele>798.0</ele><time>2026-05-03T08:18:33.893Z</time></trkpt><trkpt lat="42.2851472" lon="13.6592036"><ele>798.0</ele><time>2026-05-03T08:18:35.893Z</time></trkpt><trkpt lat="42.2850652" lon="13.6593082"><ele>798.0</ele><time>2026-05-03T08:18:37.893Z</time></trkpt><trkpt lat="42.2849867" lon="13.6594235"><ele>798.0</ele><time>2026-05-03T08:18:39.893Z</time></trkpt><trkpt lat="42.284947" lon="13.6595391"><ele>798.0</ele><time>2026-05-03T08:18:41.893Z</time></trkpt><trkpt lat="42.2849077" lon="13.6596813"><ele>797.5714285714286</ele><time>2026-05-03T08:18:43.892Z</time></trkpt><trkpt lat="42.28489" lon="13.6597693"><ele>797.1428571428571</ele><time>2026-05-03T08:18:44.892Z</time></trkpt><trkpt lat="42.2848645" lon="13.6598608"><ele>796.7142857142858</ele><time>2026-05-03T08:18:45.893Z</time></trkpt><trkpt lat="42.2848341" lon="13.6599515"><ele>796.2857142857142</ele><time>2026-05-03T08:18:46.892Z</time></trkpt><trkpt lat="42.2847952" lon="13.6600361"><ele>795.8571428571429</ele><time>2026-05-03T08:18:47.893Z</time></trkpt><trkpt lat="42.284733" lon="13.6600976"><ele>795.4285714285714</ele><time>2026-05-03T08:18:48.892Z</time></trkpt><trkpt lat="42.2846681" lon="13.6601712"><ele>795.0</ele><time>2026-05-03T08:18:49.893Z</time></trkpt><trkpt lat="42.2845984" lon="13.6602517"><ele>799.2</ele><time>2026-05-03T08:18:50.892Z</time></trkpt><trkpt lat="42.2845172" lon="13.660328"><ele>803.4</ele><time>2026-05-03T08:18:51.892Z</time></trkpt><trkpt lat="42.2844324" lon="13.6604045"><ele>807.5999999999999</ele><time>2026-05-03T08:18:52.892Z</time></trkpt><trkpt lat="42.2843471" lon="13.6604781"><ele>811.8</ele><time>2026-05-03T08:18:53.892Z</time></trkpt><trkpt lat="42.2842652" lon="13.6605561"><ele>816.0</ele><time>2026-05-03T08:18:54.892Z</time></trkpt><trkpt lat="42.2841849" lon="13.6606465"><ele>816.0</ele><time>2026-05-03T08:18:55.892Z</time></trkpt><trkpt lat="42.284112" lon="13.6607484"><ele>816.0</ele><time>2026-05-03T08:18:56.892Z</time></trkpt><trkpt lat="42.2840489" lon="13.660863"><ele>816.0</ele><time>2026-05-03T08:18:57.892Z</time></trkpt><trkpt lat="42.2839916" lon="13.6609826"><ele>816.0</ele><time>2026-05-03T08:18:58.892Z</time></trkpt><trkpt lat="42.2839403" lon="13.6611086"><ele>816.0</ele><time>2026-05-03T08:18:59.892Z</time></trkpt><trkpt lat="42.2838892" lon="13.6612352"><ele>815.0</ele><time>2026-05-03T08:19:00.893Z</time></trkpt><trkpt lat="42.2838374" lon="13.6613623"><ele>814.0</ele><time>2026-05-03T08:19:01.893Z</time></trkpt><trkpt lat="42.2837919" lon="13.6614957"><ele>813.0</ele><time>2026-05-03T08:19:02.893Z</time></trkpt><trkpt lat="42.2837508" lon="13.6616341"><ele>812.0</ele><time>2026-05-03T08:19:03.893Z</time></trkpt><trkpt lat="42.2837087" lon="13.6617688"><ele>811.0</ele><time>2026-05-03T08:19:04.892Z</time></trkpt><trkpt lat="42.2836697" lon="13.6619035"><ele>814.8</ele><time>2026-05-03T08:19:05.893Z</time></trkpt><trkpt lat="42.2836274" lon="13.6620355"><ele>818.5999999999999</ele><time>2026-05-03T08:19:06.892Z</time></trkpt><trkpt lat="42.2835858" lon="13.662169"><ele>822.4</ele><time>2026-05-03T08:19:07.892Z</time></trkpt><trkpt lat="42.2835364" lon="13.6622996"><ele>826.2</ele><time>2026-05-03T08:19:08.892Z</time></trkpt><trkpt lat="42.2834854" lon="13.6624313"><ele>830.0</ele><time>2026-05-03T08:19:09.892Z</time></trkpt><trkpt lat="42.2834369" lon="13.6625629"><ele>830.0</ele><time>2026-05-03T08:19:10.893Z</time></trkpt><trkpt lat="42.2833923" lon="13.6626991"><ele>830.0</ele><time>2026-05-03T08:19:11.893Z</time></trkpt><trkpt lat="42.2833483" lon="13.6628336"><ele>830.0</ele><time>2026-05-03T08:19:12.892Z</time></trkpt><trkpt lat="42.2833017" lon="13.6629632"><ele>830.0</ele><time>2026-05-03T08:19:13.893Z</time></trkpt><trkpt lat="42.2832471" lon="13.6630954"><ele>830.0</ele><time>2026-05-03T08:19:14.893Z</time></trkpt><trkpt lat="42.2831931" lon="13.6632198"><ele>829.6</ele><time>2026-05-03T08:19:15.892Z</time></trkpt><trkpt lat="42.2831375" lon="13.663346"><ele>829.2</ele><time>2026-05-03T08:19:16.892Z</time></trkpt><trkpt lat="42.2830815" lon="13.6634683"><ele>828.8</ele><time>2026-05-03T08:19:17.892Z</time></trkpt><trkpt lat="42.2830264" lon="13.6635914"><ele>828.4</ele><time>2026-05-03T08:19:18.892Z</time></trkpt><trkpt lat="42.2829714" lon="13.6637218"><ele>828.0</ele><time>2026-05-03T08:19:19.892Z</time></trkpt><trkpt lat="42.2829134" lon="13.6638529"><ele>828.0</ele><time>2026-05-03T08:19:20.892Z</time></trkpt><trkpt lat="42.2828545" lon="13.6639879"><ele>828.0</ele><time>2026-05-03T08:19:21.892Z</time></trkpt><trkpt lat="42.2827923" lon="13.6641247"><ele>828.0</ele><time>2026-05-03T08:19:22.892Z</time></trkpt><trkpt lat="42.2827321" lon="13.6642643"><ele>828.0</ele><time>2026-05-03T08:19:23.892Z</time></trkpt><trkpt lat="42.282672" lon="13.664406"><ele>831.75</ele><time>2026-05-03T08:19:24.892Z</time></trkpt><trkpt lat="42.2826106" lon="13.6645526"><ele>835.5</ele><time>2026-05-03T08:19:25.892Z</time></trkpt><trkpt lat="42.2825451" lon="13.6647115"><ele>839.25</ele><time>2026-05-03T08:19:26.892Z</time></trkpt><trkpt lat="42.2824774" lon="13.6648736"><ele>843.0</ele><time>2026-05-03T08:19:27.892Z</time></trkpt><trkpt lat="42.2824079" lon="13.6650379"><ele>843.0</ele><time>2026-05-03T08:19:28.893Z</time></trkpt><trkpt lat="42.2823382" lon="13.6652019"><ele>843.0</ele><time>2026-05-03T08:19:29.892Z</time></trkpt><trkpt lat="42.2822655" lon="13.6653648"><ele>843.0</ele><time>2026-05-03T08:19:30.892Z</time></trkpt><trkpt lat="42.2821937" lon="13.665532"><ele>843.0</ele><time>2026-05-03T08:19:31.892Z</time></trkpt><trkpt lat="42.2821211" lon="13.6657065"><ele>842.6666666666667</ele><time>2026-05-03T08:19:32.892Z</time></trkpt><trkpt lat="42.2820458" lon="13.6658863"><ele>842.3333333333334</ele><time>2026-05-03T08:19:33.893Z</time></trkpt><trkpt lat="42.2819697" lon="13.6660694"><ele>842.0</ele><time>2026-05-03T08:19:34.892Z</time></trkpt><trkpt lat="42.2818906" lon="13.6662557"><ele>842.0</ele><time>2026-05-03T08:19:35.893Z</time></trkpt><trkpt lat="42.2818064" lon="13.6664535"><ele>842.0</ele><time>2026-05-03T08:19:36.893Z</time></trkpt><trkpt lat="42.2817265" lon="13.666641"><ele>842.0</ele><time>2026-05-03T08:19:37.893Z</time></trkpt><trkpt lat="42.2816411" lon="13.6668192"><ele>838.3333333333334</ele><time>2026-05-03T08:19:38.892Z</time></trkpt><trkpt lat="42.2815546" lon="13.6670006"><ele>834.6666666666667</ele><time>2026-05-03T08:19:39.892Z</time></trkpt><trkpt lat="42.2814738" lon="13.6671842"><ele>831.0</ele><time>2026-05-03T08:19:40.892Z</time></trkpt><trkpt lat="42.2813963" lon="13.6673672"><ele>831.0</ele><time>2026-05-03T08:19:41.892Z</time></trkpt><trkpt lat="42.2813187" lon="13.6675532"><ele>831.0</ele><time>2026-05-03T08:19:42.893Z</time></trkpt><trkpt lat="42.2812408" lon="13.6677329"><ele>831.0</ele><time>2026-05-03T08:19:43.893Z</time></trkpt><trkpt lat="42.2811598" lon="13.6679024"><ele>834.0</ele><time>2026-05-03T08:19:44.893Z</time></trkpt><trkpt lat="42.2810836" lon="13.6680617"><ele>837.0</ele><time>2026-05-03T08:19:45.892Z</time></trkpt><trkpt lat="42.2810112" lon="13.6682113"><ele>840.0</ele><time>2026-05-03T08:19:46.892Z</time></trkpt><trkpt lat="42.2809367" lon="13.6683513"><ele>843.0</ele><time>2026-05-03T08:19:47.893Z</time></trkpt><trkpt lat="42.280859" lon="13.668487"><ele>841.0</ele><time>2026-05-03T08:19:48.892Z</time></trkpt><trkpt lat="42.2807801" lon="13.6686143"><ele>839.0</ele><time>2026-05-03T08:19:49.892Z</time></trkpt><trkpt lat="42.2807001" lon="13.6687439"><ele>837.0</ele><time>2026-05-03T08:19:50.892Z</time></trkpt><trkpt lat="42.2806178" lon="13.668872"><ele>835.0</ele><time>2026-05-03T08:19:51.893Z</time></trkpt><trkpt lat="42.2805334" lon="13.6689942"><ele>835.0</ele><time>2026-05-03T08:19:52.892Z</time></trkpt><trkpt lat="42.2804482" lon="13.6691132"><ele>835.0</ele><time>2026-05-03T08:19:53.892Z</time></trkpt><trkpt lat="42.2803635" lon="13.6692406"><ele>835.0</ele><time>2026-05-03T08:19:54.892Z</time></trkpt><trkpt lat="42.2802799" lon="13.6693715"><ele>835.0</ele><time>2026-05-03T08:19:55.893Z</time></trkpt><trkpt lat="42.280194" lon="13.6695012"><ele>839.0</ele><time>2026-05-03T08:19:56.892Z</time></trkpt><trkpt lat="42.2801065" lon="13.6696358"><ele>843.0</ele><time>2026-05-03T08:19:57.893Z</time></trkpt><trkpt lat="42.2800158" lon="13.6697719"><ele>847.0</ele><time>2026-05-03T08:19:58.892Z</time></trkpt><trkpt lat="42.2799243" lon="13.6699098"><ele>851.0</ele><time>2026-05-03T08:19:59.892Z</time></trkpt><trkpt lat="42.2798333" lon="13.670046"><ele>849.0</ele><time>2026-05-03T08:20:00.892Z</time></trkpt><trkpt lat="42.2797423" lon="13.6701825"><ele>847.0</ele><time>2026-05-03T08:20:01.893Z</time></trkpt><trkpt lat="42.2796543" lon="13.6703166"><ele>845.0</ele><time>2026-05-03T08:20:02.892Z</time></trkpt><trkpt lat="42.2795677" lon="13.670444"><ele>843.0</ele><time>2026-05-03T08:20:03.892Z</time></trkpt><trkpt lat="42.2794808" lon="13.6705702"><ele>843.0</ele><time>2026-05-03T08:20:04.892Z</time></trkpt><trkpt lat="42.2793926" lon="13.6706974"><ele>843.0</ele><time>2026-05-03T08:20:05.892Z</time></trkpt><trkpt lat="42.2793014" lon="13.6708265"><ele>843.0</ele><time>2026-05-03T08:20:06.892Z</time></trkpt><trkpt lat="42.2792087" lon="13.6709597"><ele>843.0</ele><time>2026-05-03T08:20:07.893Z</time></trkpt><trkpt lat="42.2791145" lon="13.6710988"><ele>841.5</ele><time>2026-05-03T08:20:08.892Z</time></trkpt><trkpt lat="42.2790167" lon="13.6712355"><ele>840.0</ele><time>2026-05-03T08:20:09.892Z</time></trkpt><trkpt lat="42.2789181" lon="13.6713717"><ele>838.5</ele><time>2026-05-03T08:20:10.893Z</time></trkpt><trkpt lat="42.2788221" lon="13.6715114"><ele>837.0</ele><time>2026-05-03T08:20:11.893Z</time></trkpt><trkpt lat="42.2787275" lon="13.6716527"><ele>837.0</ele><time>2026-05-03T08:20:12.892Z</time></trkpt><trkpt lat="42.2786302" lon="13.6717984"><ele>837.0</ele><time>2026-05-03T08:20:13.893Z</time></trkpt><trkpt lat="42.2785326" lon="13.6719476"><ele>837.0</ele><time>2026-05-03T08:20:14.892Z</time></trkpt><trkpt lat="42.2784412" lon="13.6720977"><ele>837.0</ele><time>2026-05-03T08:20:15.893Z</time></trkpt><trkpt lat="42.2783504" lon="13.6722483"><ele>838.0</ele><time>2026-05-03T08:20:16.892Z</time></trkpt><trkpt lat="42.278258" lon="13.6723985"><ele>839.0</ele><time>2026-05-03T08:20:17.893Z</time></trkpt><trkpt lat="42.2781635" lon="13.672544"><ele>840.0</ele><time>2026-05-03T08:20:18.893Z</time></trkpt><trkpt lat="42.2780642" lon="13.6726881"><ele>841.0</ele><time>2026-05-03T08:20:19.892Z</time></trkpt><trkpt lat="42.2779645" lon="13.6728339"><ele>841.0</ele><time>2026-05-03T08:20:20.892Z</time></trkpt><trkpt lat="42.2778636" lon="13.6729841"><ele>841.0</ele><time>2026-05-03T08:20:21.892Z</time></trkpt><trkpt lat="42.27776" lon="13.6731368"><ele>841.0</ele><time>2026-05-03T08:20:22.893Z</time></trkpt><trkpt lat="42.2776532" lon="13.6732901"><ele>841.0</ele><time>2026-05-03T08:20:23.893Z</time></trkpt><trkpt lat="42.2775422" lon="13.673444"><ele>841.0</ele><time>2026-05-03T08:20:24.892Z</time></trkpt><trkpt lat="42.2774295" lon="13.6736002"><ele>841.0</ele><time>2026-05-03T08:20:25.892Z</time></trkpt><trkpt lat="42.2773194" lon="13.6737585"><ele>840.3333333333333</ele><time>2026-05-03T08:20:26.892Z</time></trkpt><trkpt lat="42.2772138" lon="13.673917"><ele>839.6666666666667</ele><time>2026-05-03T08:20:27.892Z</time></trkpt><trkpt lat="42.2771087" lon="13.6740749"><ele>839.0</ele><time>2026-05-03T08:20:28.892Z</time></trkpt><trkpt lat="42.2770032" lon="13.6742369"><ele>839.0</ele><time>2026-05-03T08:20:29.893Z</time></trkpt><trkpt lat="42.2768977" lon="13.6743975"><ele>839.0</ele><time>2026-05-03T08:20:30.892Z</time></trkpt><trkpt lat="42.2767943" lon="13.6745523"><ele>839.0</ele><time>2026-05-03T08:20:31.892Z</time></trkpt><trkpt lat="42.2766874" lon="13.6747036"><ele>837.3333333333334</ele><time>2026-05-03T08:20:32.892Z</time></trkpt><trkpt lat="42.2765796" lon="13.6748527"><ele>835.6666666666667</ele><time>2026-05-03T08:20:33.892Z</time></trkpt><trkpt lat="42.2764742" lon="13.6749988"><ele>834.0</ele><time>2026-05-03T08:20:34.893Z</time></trkpt><trkpt lat="42.2763663" lon="13.6751415"><ele>838.6666666666667</ele><time>2026-05-03T08:20:35.893Z</time></trkpt><trkpt lat="42.2762542" lon="13.6752878"><ele>843.3333333333334</ele><time>2026-05-03T08:20:36.893Z</time></trkpt><trkpt lat="42.2761439" lon="13.6754385"><ele>848.0</ele><time>2026-05-03T08:20:37.892Z</time></trkpt><trkpt lat="42.2760321" lon="13.6755883"><ele>848.0</ele><time>2026-05-03T08:20:38.892Z</time></trkpt><trkpt lat="42.275918" lon="13.6757353"><ele>848.0</ele><time>2026-05-03T08:20:39.893Z</time></trkpt><trkpt lat="42.2758052" lon="13.675883"><ele>848.0</ele><time>2026-05-03T08:20:40.893Z</time></trkpt><trkpt lat="42.2756966" lon="13.6760306"><ele>847.5</ele><time>2026-05-03T08:20:41.892Z</time></trkpt><trkpt lat="42.2755911" lon="13.6761712"><ele>847.0</ele><time>2026-05-03T08:20:42.892Z</time></trkpt><trkpt lat="42.2754893" lon="13.6763106"><ele>846.5</ele><time>2026-05-03T08:20:43.892Z</time></trkpt><trkpt lat="42.275391" lon="13.6764471"><ele>846.0</ele><time>2026-05-03T08:20:44.892Z</time></trkpt><trkpt lat="42.2752983" lon="13.6765694"><ele>846.0</ele><time>2026-05-03T08:20:45.892Z</time></trkpt><trkpt lat="42.2752112" lon="13.6766846"><ele>846.0</ele><time>2026-05-03T08:20:46.893Z</time></trkpt><trkpt lat="42.2751274" lon="13.6767959"><ele>846.0</ele><time>2026-05-03T08:20:47.893Z</time></trkpt><trkpt lat="42.2750488" lon="13.6769067"><ele>846.0</ele><time>2026-05-03T08:20:48.892Z</time></trkpt><trkpt lat="42.2749708" lon="13.6770195"><ele>846.5999999999999</ele><time>2026-05-03T08:20:49.893Z</time></trkpt><trkpt lat="42.2748915" lon="13.677131"><ele>847.2</ele><time>2026-05-03T08:20:50.893Z</time></trkpt><trkpt lat="42.2748143" lon="13.6772413"><ele>847.8</ele><time>2026-05-03T08:20:51.893Z</time></trkpt><trkpt lat="42.2747375" lon="13.6773457"><ele>848.4000000000001</ele><time>2026-05-03T08:20:52.893Z</time></trkpt><trkpt lat="42.2746592" lon="13.6774442"><ele>849.0</ele><time>2026-05-03T08:20:53.892Z</time></trkpt><trkpt lat="42.2745811" lon="13.6775414"><ele>849.0</ele><time>2026-05-03T08:20:54.893Z</time></trkpt><trkpt lat="42.2745036" lon="13.6776389"><ele>849.0</ele><time>2026-05-03T08:20:55.893Z</time></trkpt><trkpt lat="42.2744218" lon="13.6777409"><ele>849.0</ele><time>2026-05-03T08:20:56.892Z</time></trkpt><trkpt lat="42.2743366" lon="13.6778481"><ele>849.0</ele><time>2026-05-03T08:20:57.892Z</time></trkpt><trkpt lat="42.274249" lon="13.677958"><ele>849.75</ele><time>2026-05-03T08:20:58.892Z</time></trkpt><trkpt lat="42.2741649" lon="13.6780699"><ele>850.5</ele><time>2026-05-03T08:20:59.893Z</time></trkpt><trkpt lat="42.2740832" lon="13.6781787"><ele>851.25</ele><time>2026-05-03T08:21:00.893Z</time></trkpt><trkpt lat="42.273996" lon="13.6782846"><ele>852.0</ele><time>2026-05-03T08:21:01.893Z</time></trkpt><trkpt lat="42.2739105" lon="13.6783962"><ele>852.0</ele><time>2026-05-03T08:21:02.893Z</time></trkpt><trkpt lat="42.2738275" lon="13.6785152"><ele>852.0</ele><time>2026-05-03T08:21:03.892Z</time></trkpt><trkpt lat="42.2737443" lon="13.6786354"><ele>852.0</ele><time>2026-05-03T08:21:04.892Z</time></trkpt><trkpt lat="42.2736622" lon="13.678757"><ele>852.0</ele><time>2026-05-03T08:21:05.892Z</time></trkpt><trkpt lat="42.2735773" lon="13.6788806"><ele>855.25</ele><time>2026-05-03T08:21:06.892Z</time></trkpt><trkpt lat="42.2734909" lon="13.6790066"><ele>858.5</ele><time>2026-05-03T08:21:07.892Z</time></trkpt><trkpt lat="42.2734045" lon="13.6791423"><ele>861.75</ele><time>2026-05-03T08:21:08.892Z</time></trkpt><trkpt lat="42.2733216" lon="13.6792898"><ele>865.0</ele><time>2026-05-03T08:21:09.893Z</time></trkpt><trkpt lat="42.2732463" lon="13.6794416"><ele>868.0</ele><time>2026-05-03T08:21:10.893Z</time></trkpt><trkpt lat="42.273179" lon="13.6795932"><ele>871.0</ele><time>2026-05-03T08:21:11.892Z</time></trkpt><trkpt lat="42.2731186" lon="13.6797484"><ele>874.0</ele><time>2026-05-03T08:21:12.892Z</time></trkpt><trkpt lat="42.2730636" lon="13.6799038"><ele>877.0</ele><time>2026-05-03T08:21:13.892Z</time></trkpt><trkpt lat="42.2730144" lon="13.6800647"><ele>873.5</ele><time>2026-05-03T08:21:14.892Z</time></trkpt><trkpt lat="42.2729604" lon="13.6802251"><ele>870.0</ele><time>2026-05-03T08:21:15.893Z</time></trkpt><trkpt lat="42.2729003" lon="13.6803879"><ele>866.5</ele><time>2026-05-03T08:21:16.892Z</time></trkpt><trkpt lat="42.272835" lon="13.6805557"><ele>863.0</ele><time>2026-05-03T08:21:17.893Z</time></trkpt><trkpt lat="42.2727659" lon="13.6807327"><ele>863.0</ele><time>2026-05-03T08:21:18.892Z</time></trkpt><trkpt lat="42.2726949" lon="13.680919"><ele>863.0</ele><time>2026-05-03T08:21:19.892Z</time></trkpt><trkpt lat="42.2726219" lon="13.6811111"><ele>863.0</ele><time>2026-05-03T08:21:20.892Z</time></trkpt><trkpt lat="42.2725485" lon="13.6813014"><ele>865.75</ele><time>2026-05-03T08:21:21.893Z</time></trkpt><trkpt lat="42.2724758" lon="13.6814819"><ele>868.5</ele><time>2026-05-03T08:21:22.893Z</time></trkpt><trkpt lat="42.2724075" lon="13.6816515"><ele>871.25</ele><time>2026-05-03T08:21:23.892Z</time></trkpt><trkpt lat="42.2723432" lon="13.681815"><ele>874.0</ele><time>2026-05-03T08:21:24.893Z</time></trkpt><trkpt lat="42.2722818" lon="13.6819745"><ele>871.25</ele><time>2026-05-03T08:21:25.892Z</time></trkpt><trkpt lat="42.2722215" lon="13.6821308"><ele>868.5</ele><time>2026-05-03T08:21:26.893Z</time></trkpt><trkpt lat="42.2721605" lon="13.6822913"><ele>865.75</ele><time>2026-05-03T08:21:27.892Z</time></trkpt><trkpt lat="42.2720964" lon="13.6824553"><ele>863.0</ele><time>2026-05-03T08:21:28.892Z</time></trkpt><trkpt lat="42.2720307" lon="13.6826221"><ele>865.25</ele><time>2026-05-03T08:21:29.892Z</time></trkpt><trkpt lat="42.2719679" lon="13.6827774"><ele>867.5</ele><time>2026-05-03T08:21:30.892Z</time></trkpt><trkpt lat="42.2719103" lon="13.682929"><ele>869.75</ele><time>2026-05-03T08:21:31.892Z</time></trkpt><trkpt lat="42.271857" lon="13.6830811"><ele>872.0</ele><time>2026-05-03T08:21:32.893Z</time></trkpt><trkpt lat="42.2718076" lon="13.6832269"><ele>872.0</ele><time>2026-05-03T08:21:33.892Z</time></trkpt><trkpt lat="42.271766" lon="13.6833708"><ele>872.0</ele><time>2026-05-03T08:21:34.894Z</time></trkpt><trkpt lat="42.2717257" lon="13.6835161"><ele>872.0</ele><time>2026-05-03T08:21:35.892Z</time></trkpt><trkpt lat="42.2716853" lon="13.6836548"><ele>872.0</ele><time>2026-05-03T08:21:36.892Z</time></trkpt><trkpt lat="42.2716508" lon="13.6837671"><ele>872.0</ele><time>2026-05-03T08:21:37.892Z</time></trkpt><trkpt lat="42.2716189" lon="13.683864"><ele>871.3333333333334</ele><time>2026-05-03T08:21:38.893Z</time></trkpt><trkpt lat="42.271589" lon="13.6839604"><ele>870.6666666666667</ele><time>2026-05-03T08:21:39.892Z</time></trkpt><trkpt lat="42.2715564" lon="13.6840537"><ele>870.0</ele><time>2026-05-03T08:21:40.893Z</time></trkpt><trkpt lat="42.2715194" lon="13.6841456"><ele>869.3333333333333</ele><time>2026-05-03T08:21:41.892Z</time></trkpt><trkpt lat="42.2714759" lon="13.6842351"><ele>868.6666666666666</ele><time>2026-05-03T08:21:42.893Z</time></trkpt><trkpt lat="42.2714241" lon="13.6843241"><ele>868.0</ele><time>2026-05-03T08:21:43.892Z</time></trkpt><trkpt lat="42.2713689" lon="13.6844112"><ele>870.9999999999999</ele><time>2026-05-03T08:21:44.892Z</time></trkpt><trkpt lat="42.2713144" lon="13.6844946"><ele>874.0</ele><time>2026-05-03T08:21:45.893Z</time></trkpt><trkpt lat="42.271262" lon="13.6845757"><ele>877.0</ele><time>2026-05-03T08:21:46.893Z</time></trkpt><trkpt lat="42.2712127" lon="13.6846555"><ele>880.0</ele><time>2026-05-03T08:21:47.892Z</time></trkpt><trkpt lat="42.2711671" lon="13.6847355"><ele>882.9999999999999</ele><time>2026-05-03T08:21:48.893Z</time></trkpt><trkpt lat="42.2711181" lon="13.6848205"><ele>886.0</ele><time>2026-05-03T08:21:49.893Z</time></trkpt><trkpt lat="42.271068" lon="13.6849091"><ele>886.0</ele><time>2026-05-03T08:21:50.892Z</time></trkpt><trkpt lat="42.2710188" lon="13.6849892"><ele>886.0</ele><time>2026-05-03T08:21:51.892Z</time></trkpt><trkpt lat="42.2709721" lon="13.6850661"><ele>886.0</ele><time>2026-05-03T08:21:52.892Z</time></trkpt><trkpt lat="42.2709285" lon="13.6851464"><ele>886.0</ele><time>2026-05-03T08:21:53.892Z</time></trkpt><trkpt lat="42.2708884" lon="13.685231"><ele>886.0</ele><time>2026-05-03T08:21:54.893Z</time></trkpt><trkpt lat="42.2708523" lon="13.6853163"><ele>886.0</ele><time>2026-05-03T08:21:55.893Z</time></trkpt><trkpt lat="42.27082" lon="13.6853986"><ele>886.0</ele><time>2026-05-03T08:21:56.892Z</time></trkpt><trkpt lat="42.270786" lon="13.685475"><ele>888.4285714285714</ele><time>2026-05-03T08:21:57.892Z</time></trkpt><trkpt lat="42.2707507" lon="13.6855538"><ele>890.8571428571429</ele><time>2026-05-03T08:21:58.892Z</time></trkpt><trkpt lat="42.2707176" lon="13.6856433"><ele>893.2857142857142</ele><time>2026-05-03T08:21:59.892Z</time></trkpt><trkpt lat="42.2706896" lon="13.6857323"><ele>895.7142857142858</ele><time>2026-05-03T08:22:00.893Z</time></trkpt><trkpt lat="42.2706673" lon="13.6858199"><ele>898.1428571428571</ele><time>2026-05-03T08:22:01.893Z</time></trkpt><trkpt lat="42.2706411" lon="13.6859119"><ele>900.5714285714286</ele><time>2026-05-03T08:22:02.892Z</time></trkpt><trkpt lat="42.2706208" lon="13.686013"><ele>903.0</ele><time>2026-05-03T08:22:03.892Z</time></trkpt><trkpt lat="42.2706114" lon="13.6861223"><ele>905.3333333333334</ele><time>2026-05-03T08:22:04.892Z</time></trkpt><trkpt lat="42.2706146" lon="13.686234"><ele>907.6666666666667</ele><time>2026-05-03T08:22:05.892Z</time></trkpt><trkpt lat="42.2706193" lon="13.6863475"><ele>910.0</ele><time>2026-05-03T08:22:06.893Z</time></trkpt><trkpt lat="42.2706285" lon="13.6864649"><ele>912.3333333333334</ele><time>2026-05-03T08:22:07.893Z</time></trkpt><trkpt lat="42.270645" lon="13.6865783"><ele>914.6666666666667</ele><time>2026-05-03T08:22:08.891Z</time></trkpt><trkpt lat="42.2706736" lon="13.6866844"><ele>917.0</ele><time>2026-05-03T08:22:09.892Z</time></trkpt><trkpt lat="42.2707108" lon="13.6867807"><ele>917.0</ele><time>2026-05-03T08:22:10.894Z</time></trkpt><trkpt lat="42.270744" lon="13.6868913"><ele>917.0</ele><time>2026-05-03T08:22:11.892Z</time></trkpt><trkpt lat="42.2707658" lon="13.6870123"><ele>917.0</ele><time>2026-05-03T08:22:12.893Z</time></trkpt><trkpt lat="42.2707767" lon="13.6871432"><ele>917.0</ele><time>2026-05-03T08:22:13.893Z</time></trkpt><trkpt lat="42.2707849" lon="13.6872744"><ele>917.0</ele><time>2026-05-03T08:22:14.893Z</time></trkpt><trkpt lat="42.2707825" lon="13.6874113"><ele>917.6</ele><time>2026-05-03T08:22:15.892Z</time></trkpt><trkpt lat="42.270773" lon="13.6875523"><ele>918.2</ele><time>2026-05-03T08:22:16.892Z</time></trkpt><trkpt lat="42.2707539" lon="13.6876857"><ele>918.8</ele><time>2026-05-03T08:22:17.893Z</time></trkpt><trkpt lat="42.270738" lon="13.6878214"><ele>919.4</ele><time>2026-05-03T08:22:18.893Z</time></trkpt><trkpt lat="42.2707301" lon="13.6879312"><ele>920.0</ele><time>2026-05-03T08:22:19.892Z</time></trkpt><trkpt lat="42.2707328" lon="13.6880258"><ele>920.0</ele><time>2026-05-03T08:22:20.892Z</time></trkpt><trkpt lat="42.2707971" lon="13.6881604"><ele>920.0</ele><time>2026-05-03T08:22:22.893Z</time></trkpt><trkpt lat="42.2709045" lon="13.6881844"><ele>920.0</ele><time>2026-05-03T08:22:24.892Z</time></trkpt><trkpt lat="42.2709907" lon="13.6880693"><ele>920.0</ele><time>2026-05-03T08:22:26.893Z</time></trkpt><trkpt lat="42.2710074" lon="13.6879628"><ele>920.0</ele><time>2026-05-03T08:22:27.892Z</time></trkpt><trkpt lat="42.2710295" lon="13.6878709"><ele>920.0</ele><time>2026-05-03T08:22:28.892Z</time></trkpt><trkpt lat="42.2710497" lon="13.6877736"><ele>920.0</ele><time>2026-05-03T08:22:29.892Z</time></trkpt><trkpt lat="42.2710671" lon="13.6876561"><ele>920.0</ele><time>2026-05-03T08:22:30.892Z</time></trkpt><trkpt lat="42.2710887" lon="13.6875326"><ele>920.0</ele><time>2026-05-03T08:22:31.892Z</time></trkpt><trkpt lat="42.271118" lon="13.6874096"><ele>920.0</ele><time>2026-05-03T08:22:32.892Z</time></trkpt><trkpt lat="42.2711501" lon="13.6872793"><ele>919.5000000000001</ele><time>2026-05-03T08:22:33.892Z</time></trkpt><trkpt lat="42.2711778" lon="13.6871628"><ele>919.0</ele><time>2026-05-03T08:22:34.893Z</time></trkpt><trkpt lat="42.2712051" lon="13.6870693"><ele>918.5</ele><time>2026-05-03T08:22:35.893Z</time></trkpt><trkpt lat="42.2712382" lon="13.6869827"><ele>918.0</ele><time>2026-05-03T08:22:36.892Z</time></trkpt><trkpt lat="42.2712827" lon="13.6869063"><ele>917.5000000000001</ele><time>2026-05-03T08:22:37.892Z</time></trkpt><trkpt lat="42.2713655" lon="13.6868238"><ele>917.0</ele><time>2026-05-03T08:22:39.893Z</time></trkpt><trkpt lat="42.2714485" lon="13.6868554"><ele>918.4000000000001</ele><time>2026-05-03T08:22:41.893Z</time></trkpt><trkpt lat="42.2714814" lon="13.6869737"><ele>919.8000000000001</ele><time>2026-05-03T08:22:43.893Z</time></trkpt><trkpt lat="42.2714534" lon="13.6871169"><ele>921.2</ele><time>2026-05-03T08:22:45.892Z</time></trkpt><trkpt lat="42.27141" lon="13.6872046"><ele>922.6</ele><time>2026-05-03T08:22:46.893Z</time></trkpt><trkpt lat="42.2713822" lon="13.6872981"><ele>924.0</ele><time>2026-05-03T08:22:47.892Z</time></trkpt><trkpt lat="42.2713835" lon="13.6874263"><ele>924.0</ele><time>2026-05-03T08:22:48.892Z</time></trkpt><trkpt lat="42.2713766" lon="13.6875406"><ele>924.0</ele><time>2026-05-03T08:22:49.893Z</time></trkpt><trkpt lat="42.2713882" lon="13.687658"><ele>924.0</ele><time>2026-05-03T08:22:50.892Z</time></trkpt><trkpt lat="42.2714008" lon="13.6877786"><ele>924.0</ele><time>2026-05-03T08:22:51.892Z</time></trkpt><trkpt lat="42.2714193" lon="13.687905"><ele>924.0</ele><time>2026-05-03T08:22:52.892Z</time></trkpt><trkpt lat="42.2714547" lon="13.6880054"><ele>924.0</ele><time>2026-05-03T08:22:53.893Z</time></trkpt><trkpt lat="42.2715009" lon="13.6880916"><ele>927.0</ele><time>2026-05-03T08:22:54.893Z</time></trkpt><trkpt lat="42.2715483" lon="13.6881552"><ele>930.0</ele><time>2026-05-03T08:22:55.893Z</time></trkpt><trkpt lat="42.271605" lon="13.6882189"><ele>933.0</ele><time>2026-05-03T08:22:56.892Z</time></trkpt><trkpt lat="42.2716732" lon="13.6882631"><ele>936.0</ele><time>2026-05-03T08:22:57.892Z</time></trkpt><trkpt lat="42.2717545" lon="13.6882968"><ele>939.0</ele><time>2026-05-03T08:22:58.892Z</time></trkpt><trkpt lat="42.2718362" lon="13.6883304"><ele>942.0</ele><time>2026-05-03T08:22:59.892Z</time></trkpt><trkpt lat="42.2719197" lon="13.6883665"><ele>942.0</ele><time>2026-05-03T08:23:00.892Z</time></trkpt><trkpt lat="42.2720051" lon="13.6884099"><ele>942.0</ele><time>2026-05-03T08:23:01.892Z</time></trkpt><trkpt lat="42.2720957" lon="13.6884477"><ele>942.0</ele><time>2026-05-03T08:23:02.892Z</time></trkpt><trkpt lat="42.2721897" lon="13.688494"><ele>942.0</ele><time>2026-05-03T08:23:03.892Z</time></trkpt><trkpt lat="42.2722918" lon="13.6885411"><ele>942.0</ele><time>2026-05-03T08:23:04.892Z</time></trkpt><trkpt lat="42.2723959" lon="13.6885948"><ele>940.5</ele><time>2026-05-03T08:23:05.892Z</time></trkpt><trkpt lat="42.2725005" lon="13.688658"><ele>939.0</ele><time>2026-05-03T08:23:06.892Z</time></trkpt><trkpt lat="42.272607" lon="13.6887315"><ele>937.5</ele><time>2026-05-03T08:23:07.892Z</time></trkpt><trkpt lat="42.2727103" lon="13.6888147"><ele>936.0</ele><time>2026-05-03T08:23:08.893Z</time></trkpt><trkpt lat="42.2728138" lon="13.6889019"><ele>936.0</ele><time>2026-05-03T08:23:09.893Z</time></trkpt><trkpt lat="42.2729066" lon="13.6889825"><ele>935.9999999999999</ele><time>2026-05-03T08:23:10.892Z</time></trkpt><trkpt lat="42.2729909" lon="13.6890645"><ele>935.9999999999999</ele><time>2026-05-03T08:23:11.892Z</time></trkpt><trkpt lat="42.2730835" lon="13.6891533"><ele>936.0</ele><time>2026-05-03T08:23:12.893Z</time></trkpt><trkpt lat="42.2731663" lon="13.6892456"><ele>936.0</ele><time>2026-05-03T08:23:13.892Z</time></trkpt><trkpt lat="42.2732434" lon="13.6893383"><ele>936.1999999999999</ele><time>2026-05-03T08:23:14.893Z</time></trkpt><trkpt lat="42.2733214" lon="13.6894191"><ele>936.3999999999999</ele><time>2026-05-03T08:23:15.892Z</time></trkpt><trkpt lat="42.2734023" lon="13.6894748"><ele>936.6</ele><time>2026-05-03T08:23:16.894Z</time></trkpt><trkpt lat="42.2734849" lon="13.6895047"><ele>936.8</ele><time>2026-05-03T08:23:17.893Z</time></trkpt><trkpt lat="42.2735742" lon="13.6895133"><ele>937.0</ele><time>2026-05-03T08:23:18.892Z</time></trkpt><trkpt lat="42.2736612" lon="13.6895148"><ele>936.9999999999999</ele><time>2026-05-03T08:23:19.892Z</time></trkpt><trkpt lat="42.2737421" lon="13.6894976"><ele>937.0</ele><time>2026-05-03T08:23:20.892Z</time></trkpt><trkpt lat="42.2738184" lon="13.6894694"><ele>937.0</ele><time>2026-05-03T08:23:21.893Z</time></trkpt><trkpt lat="42.2738916" lon="13.6894261"><ele>937.0</ele><time>2026-05-03T08:23:22.893Z</time></trkpt><trkpt lat="42.2739636" lon="13.6893708"><ele>936.9999999999999</ele><time>2026-05-03T08:23:23.893Z</time></trkpt><trkpt lat="42.2740385" lon="13.6893016"><ele>937.0</ele><time>2026-05-03T08:23:24.893Z</time></trkpt><trkpt lat="42.274112" lon="13.6892306"><ele>941.4000000000001</ele><time>2026-05-03T08:23:25.892Z</time></trkpt><trkpt lat="42.2741894" lon="13.6891567"><ele>945.8000000000001</ele><time>2026-05-03T08:23:26.893Z</time></trkpt><trkpt lat="42.2742708" lon="13.6890824"><ele>950.2</ele><time>2026-05-03T08:23:27.892Z</time></trkpt><trkpt lat="42.2743551" lon="13.6890129"><ele>954.6</ele><time>2026-05-03T08:23:28.892Z</time></trkpt><trkpt lat="42.2744418" lon="13.6889449"><ele>959.0</ele><time>2026-05-03T08:23:29.893Z</time></trkpt><trkpt lat="42.2745303" lon="13.6888886"><ele>959.0</ele><time>2026-05-03T08:23:30.894Z</time></trkpt><trkpt lat="42.2746191" lon="13.6888371"><ele>959.0000000000001</ele><time>2026-05-03T08:23:31.893Z</time></trkpt><trkpt lat="42.2747148" lon="13.6887832"><ele>959.0000000000001</ele><time>2026-05-03T08:23:32.893Z</time></trkpt><trkpt lat="42.2748117" lon="13.6887334"><ele>959.0</ele><time>2026-05-03T08:23:33.892Z</time></trkpt><trkpt lat="42.2749166" lon="13.68868"><ele>959.0</ele><time>2026-05-03T08:23:34.893Z</time></trkpt><trkpt lat="42.2750251" lon="13.688618"><ele>962.25</ele><time>2026-05-03T08:23:35.893Z</time></trkpt><trkpt lat="42.2751337" lon="13.6885523"><ele>965.5</ele><time>2026-05-03T08:23:36.892Z</time></trkpt><trkpt lat="42.2752464" lon="13.6884878"><ele>968.75</ele><time>2026-05-03T08:23:37.893Z</time></trkpt><trkpt lat="42.2753674" lon="13.6884268"><ele>972.0</ele><time>2026-05-03T08:23:38.893Z</time></trkpt><trkpt lat="42.2754922" lon="13.6883686"><ele>972.0</ele><time>2026-05-03T08:23:39.893Z</time></trkpt><trkpt lat="42.2756035" lon="13.688324"><ele>972.0</ele><time>2026-05-03T08:23:40.893Z</time></trkpt><trkpt lat="42.2757035" lon="13.6882837"><ele>972.0</ele><time>2026-05-03T08:23:41.893Z</time></trkpt><trkpt lat="42.2757909" lon="13.6882413"><ele>972.0</ele><time>2026-05-03T08:23:42.892Z</time></trkpt><trkpt lat="42.2758772" lon="13.6881866"><ele>972.0</ele><time>2026-05-03T08:23:43.893Z</time></trkpt><trkpt lat="42.2759615" lon="13.6881295"><ele>969.5</ele><time>2026-05-03T08:23:44.892Z</time></trkpt><trkpt lat="42.2760518" lon="13.6880584"><ele>967.0</ele><time>2026-05-03T08:23:45.892Z</time></trkpt><trkpt lat="42.2761483" lon="13.6879817"><ele>964.5</ele><time>2026-05-03T08:23:46.892Z</time></trkpt><trkpt lat="42.2762535" lon="13.6879041"><ele>962.0</ele><time>2026-05-03T08:23:47.893Z</time></trkpt><trkpt lat="42.2763639" lon="13.6878205"><ele>963.75</ele><time>2026-05-03T08:23:48.893Z</time></trkpt><trkpt lat="42.2764798" lon="13.6877303"><ele>965.5</ele><time>2026-05-03T08:23:49.893Z</time></trkpt><trkpt lat="42.2765959" lon="13.687646"><ele>967.25</ele><time>2026-05-03T08:23:50.892Z</time></trkpt><trkpt lat="42.2767096" lon="13.6875579"><ele>969.0</ele><time>2026-05-03T08:23:51.892Z</time></trkpt><trkpt lat="42.2768245" lon="13.68748"><ele>969.0</ele><time>2026-05-03T08:23:52.892Z</time></trkpt><trkpt lat="42.2769315" lon="13.6874085"><ele>969.0</ele><time>2026-05-03T08:23:53.892Z</time></trkpt><trkpt lat="42.2770319" lon="13.6873472"><ele>969.0</ele><time>2026-05-03T08:23:54.892Z</time></trkpt><trkpt lat="42.2771339" lon="13.6872853"><ele>969.0</ele><time>2026-05-03T08:23:55.892Z</time></trkpt><trkpt lat="42.2772314" lon="13.6872216"><ele>968.0</ele><time>2026-05-03T08:23:56.892Z</time></trkpt><trkpt lat="42.277323" lon="13.6871571"><ele>967.0000000000001</ele><time>2026-05-03T08:23:57.893Z</time></trkpt><trkpt lat="42.2774051" lon="13.6870938"><ele>966.0000000000001</ele><time>2026-05-03T08:23:58.892Z</time></trkpt><trkpt lat="42.2774637" lon="13.6870361"><ele>965.0</ele><time>2026-05-03T08:23:59.893Z</time></trkpt><trkpt lat="42.2775569" lon="13.6869372"><ele>964.0</ele><time>2026-05-03T08:24:01.893Z</time></trkpt><trkpt lat="42.2776244" lon="13.686882"><ele>964.0</ele><time>2026-05-03T08:24:03.892Z</time></trkpt><trkpt lat="42.2776909" lon="13.6869133"><ele>964.0000000000001</ele><time>2026-05-03T08:24:07.893Z</time></trkpt><trkpt lat="42.2777104" lon="13.6870479"><ele>964.0000000000001</ele><time>2026-05-03T08:24:10.893Z</time></trkpt><trkpt lat="42.2777277" lon="13.6871853"><ele>964.0</ele><time>2026-05-03T08:24:12.893Z</time></trkpt><trkpt lat="42.2777502" lon="13.6873245"><ele>964.0</ele><time>2026-05-03T08:24:14.892Z</time></trkpt><trkpt lat="42.2777003" lon="13.6874589"><ele>964.0</ele><time>2026-05-03T08:24:16.892Z</time></trkpt><trkpt lat="42.277669" lon="13.6875449"><ele>964.0000000000001</ele><time>2026-05-03T08:24:17.893Z</time></trkpt><trkpt lat="42.2776527" lon="13.6876326"><ele>964.0</ele><time>2026-05-03T08:24:18.893Z</time></trkpt><trkpt lat="42.2776295" lon="13.6877221"><ele>964.0</ele><time>2026-05-03T08:24:19.893Z</time></trkpt><trkpt lat="42.2776013" lon="13.6878118"><ele>964.0000000000001</ele><time>2026-05-03T08:24:20.893Z</time></trkpt><trkpt lat="42.2775736" lon="13.6878924"><ele>964.0</ele><time>2026-05-03T08:24:21.893Z</time></trkpt><trkpt lat="42.2775324" lon="13.6879605"><ele>964.0</ele><time>2026-05-03T08:24:22.892Z</time></trkpt><trkpt lat="42.2774578" lon="13.6880813"><ele>963.1666666666666</ele><time>2026-05-03T08:24:24.892Z</time></trkpt><trkpt lat="42.277431" lon="13.688159"><ele>962.3333333333333</ele><time>2026-05-03T08:24:26.892Z</time></trkpt><trkpt lat="42.2774117" lon="13.6882404"><ele>961.5</ele><time>2026-05-03T08:24:35.893Z</time></trkpt><trkpt lat="42.2774747" lon="13.6883315"><ele>960.6666666666667</ele><time>2026-05-03T08:24:38.893Z</time></trkpt><trkpt lat="42.2775749" lon="13.6883615"><ele>959.8333333333334</ele><time>2026-05-03T08:24:40.892Z</time></trkpt><trkpt lat="42.277692" lon="13.6883721"><ele>959.0</ele><time>2026-05-03T08:24:42.892Z</time></trkpt><trkpt lat="42.2777569" lon="13.6883992"><ele>959.0000000000001</ele><time>2026-05-03T08:24:43.893Z</time></trkpt><trkpt lat="42.277869" lon="13.6884721"><ele>959.0</ele><time>2026-05-03T08:24:45.893Z</time></trkpt><trkpt lat="42.2779355" lon="13.6885037"><ele>959.0</ele><time>2026-05-03T08:24:46.893Z</time></trkpt><trkpt lat="42.2780019" lon="13.6885335"><ele>959.0</ele><time>2026-05-03T08:24:47.892Z</time></trkpt><trkpt lat="42.2780795" lon="13.6885564"><ele>959.0000000000001</ele><time>2026-05-03T08:24:48.893Z</time></trkpt><trkpt lat="42.2781639" lon="13.6885846"><ele>959.0</ele><time>2026-05-03T08:24:49.892Z</time></trkpt><trkpt lat="42.2782467" lon="13.6886244"><ele>958.3333333333334</ele><time>2026-05-03T08:24:50.892Z</time></trkpt><trkpt lat="42.2783293" lon="13.6886738"><ele>957.6666666666667</ele><time>2026-05-03T08:24:51.893Z</time></trkpt><trkpt lat="42.2784057" lon="13.6887215"><ele>957.0</ele><time>2026-05-03T08:24:52.892Z</time></trkpt><trkpt lat="42.2784731" lon="13.6887878"><ele>956.3333333333333</ele><time>2026-05-03T08:24:53.892Z</time></trkpt><trkpt lat="42.2785348" lon="13.6888572"><ele>955.6666666666666</ele><time>2026-05-03T08:24:54.892Z</time></trkpt><trkpt lat="42.2785973" lon="13.6889382"><ele>955.0</ele><time>2026-05-03T08:24:55.892Z</time></trkpt><trkpt lat="42.2786573" lon="13.689025"><ele>954.9999999999999</ele><time>2026-05-03T08:24:56.892Z</time></trkpt><trkpt lat="42.2787141" lon="13.6891032"><ele>955.0</ele><time>2026-05-03T08:24:57.892Z</time></trkpt><trkpt lat="42.2787708" lon="13.6891921"><ele>955.0</ele><time>2026-05-03T08:24:58.892Z</time></trkpt><trkpt lat="42.2788313" lon="13.689279"><ele>955.0</ele><time>2026-05-03T08:24:59.892Z</time></trkpt><trkpt lat="42.278894" lon="13.689362"><ele>954.9999999999999</ele><time>2026-05-03T08:25:00.892Z</time></trkpt><trkpt lat="42.2789642" lon="13.6894428"><ele>955.0</ele><time>2026-05-03T08:25:01.892Z</time></trkpt><trkpt lat="42.2790264" lon="13.6895328"><ele>955.6666666666666</ele><time>2026-05-03T08:25:02.892Z</time></trkpt><trkpt lat="42.2790899" lon="13.6896249"><ele>956.3333333333333</ele><time>2026-05-03T08:25:03.893Z</time></trkpt><trkpt lat="42.2791624" lon="13.6897108"><ele>957.0</ele><time>2026-05-03T08:25:04.892Z</time></trkpt><trkpt lat="42.2792356" lon="13.6897732"><ele>957.6666666666667</ele><time>2026-05-03T08:25:05.892Z</time></trkpt><trkpt lat="42.2793117" lon="13.6898076"><ele>958.3333333333334</ele><time>2026-05-03T08:25:06.893Z</time></trkpt><trkpt lat="42.2793858" lon="13.6898192"><ele>959.0</ele><time>2026-05-03T08:25:07.892Z</time></trkpt><trkpt lat="42.2794603" lon="13.6898303"><ele>959.0</ele><time>2026-05-03T08:25:08.892Z</time></trkpt><trkpt lat="42.2795252" lon="13.6898429"><ele>959.0</ele><time>2026-05-03T08:25:09.892Z</time></trkpt><trkpt lat="42.279584" lon="13.6898859"><ele>959.0</ele><time>2026-05-03T08:25:10.892Z</time></trkpt><trkpt lat="42.2796365" lon="13.6899565"><ele>959.0</ele><time>2026-05-03T08:25:11.892Z</time></trkpt><trkpt lat="42.2796791" lon="13.6900338"><ele>959.0</ele><time>2026-05-03T08:25:12.893Z</time></trkpt><trkpt lat="42.2797186" lon="13.6901084"><ele>959.0</ele><time>2026-05-03T08:25:13.892Z</time></trkpt><trkpt lat="42.2797714" lon="13.6901656"><ele>959.0</ele><time>2026-05-03T08:25:14.893Z</time></trkpt><trkpt lat="42.2798381" lon="13.6902013"><ele>959.6</ele><time>2026-05-03T08:25:15.892Z</time></trkpt><trkpt lat="42.2798977" lon="13.6902394"><ele>960.2</ele><time>2026-05-03T08:25:16.892Z</time></trkpt><trkpt lat="42.2800079" lon="13.690294"><ele>960.8000000000001</ele><time>2026-05-03T08:25:18.892Z</time></trkpt><trkpt lat="42.2801346" lon="13.690292"><ele>961.4000000000001</ele><time>2026-05-03T08:25:20.892Z</time></trkpt><trkpt lat="42.2802075" lon="13.6903082"><ele>962.0</ele><time>2026-05-03T08:25:21.893Z</time></trkpt><trkpt lat="42.2802794" lon="13.6903191"><ele>962.0000000000001</ele><time>2026-05-03T08:25:22.892Z</time></trkpt><trkpt lat="42.2803453" lon="13.6903472"><ele>962.0</ele><time>2026-05-03T08:25:23.893Z</time></trkpt><trkpt lat="42.2804043" lon="13.6904161"><ele>962.0</ele><time>2026-05-03T08:25:24.893Z</time></trkpt><trkpt lat="42.2804607" lon="13.6905117"><ele>962.0</ele><time>2026-05-03T08:25:25.892Z</time></trkpt><trkpt lat="42.2805075" lon="13.6906169"><ele>962.0000000000001</ele><time>2026-05-03T08:25:26.892Z</time></trkpt><trkpt lat="42.2805349" lon="13.6907452"><ele>962.0</ele><time>2026-05-03T08:25:27.892Z</time></trkpt><trkpt lat="42.2805553" lon="13.6908825"><ele>962.0</ele><time>2026-05-03T08:25:28.893Z</time></trkpt><trkpt lat="42.2805599" lon="13.6910172"><ele>962.0</ele><time>2026-05-03T08:25:29.892Z</time></trkpt><trkpt lat="42.2805496" lon="13.6911529"><ele>962.0</ele><time>2026-05-03T08:25:30.893Z</time></trkpt><trkpt lat="42.2805368" lon="13.6912777"><ele>962.0</ele><time>2026-05-03T08:25:31.892Z</time></trkpt><trkpt lat="42.2805202" lon="13.6914082"><ele>962.0</ele><time>2026-05-03T08:25:32.892Z</time></trkpt><trkpt lat="42.280496" lon="13.6915231"><ele>962.6</ele><time>2026-05-03T08:25:33.893Z</time></trkpt><trkpt lat="42.280462" lon="13.691635"><ele>963.2</ele><time>2026-05-03T08:25:34.893Z</time></trkpt><trkpt lat="42.280424" lon="13.691751"><ele>963.8</ele><time>2026-05-03T08:25:35.892Z</time></trkpt><trkpt lat="42.280379" lon="13.6918688"><ele>964.4</ele><time>2026-05-03T08:25:36.892Z</time></trkpt><trkpt lat="42.2803414" lon="13.691992"><ele>965.0</ele><time>2026-05-03T08:25:37.892Z</time></trkpt><trkpt lat="42.280298" lon="13.6921106"><ele>967.6</ele><time>2026-05-03T08:25:38.893Z</time></trkpt><trkpt lat="42.2802611" lon="13.6922295"><ele>970.2</ele><time>2026-05-03T08:25:39.893Z</time></trkpt><trkpt lat="42.2802167" lon="13.6923558"><ele>972.8</ele><time>2026-05-03T08:25:40.893Z</time></trkpt><trkpt lat="42.2801748" lon="13.6924818"><ele>975.4</ele><time>2026-05-03T08:25:41.893Z</time></trkpt><trkpt lat="42.2801314" lon="13.6926016"><ele>978.0</ele><time>2026-05-03T08:25:42.893Z</time></trkpt><trkpt lat="42.2800776" lon="13.6927043"><ele>979.0</ele><time>2026-05-03T08:25:43.892Z</time></trkpt><trkpt lat="42.2800459" lon="13.6928002"><ele>980.0</ele><time>2026-05-03T08:25:44.892Z</time></trkpt><trkpt lat="42.2800194" lon="13.6929649"><ele>981.0</ele><time>2026-05-03T08:25:46.892Z</time></trkpt><trkpt lat="42.280023" lon="13.6930636"><ele>982.0</ele><time>2026-05-03T08:25:47.893Z</time></trkpt><trkpt lat="42.2800333" lon="13.6931611"><ele>983.0</ele><time>2026-05-03T08:25:48.892Z</time></trkpt><trkpt lat="42.28004" lon="13.6932664"><ele>984.0</ele><time>2026-05-03T08:25:49.893Z</time></trkpt><trkpt lat="42.2800514" lon="13.6933922"><ele>984.0</ele><time>2026-05-03T08:25:50.892Z</time></trkpt><trkpt lat="42.2800597" lon="13.6935275"><ele>984.0000000000001</ele><time>2026-05-03T08:25:51.892Z</time></trkpt><trkpt lat="42.2800671" lon="13.6936532"><ele>984.0000000000001</ele><time>2026-05-03T08:25:52.892Z</time></trkpt><trkpt lat="42.2800674" lon="13.6937751"><ele>984.0</ele><time>2026-05-03T08:25:53.893Z</time></trkpt><trkpt lat="42.2800634" lon="13.6938937"><ele>984.0</ele><time>2026-05-03T08:25:54.892Z</time></trkpt><trkpt lat="42.28007" lon="13.6940079"><ele>983.6</ele><time>2026-05-03T08:25:55.892Z</time></trkpt><trkpt lat="42.2800634" lon="13.694129"><ele>983.2</ele><time>2026-05-03T08:25:56.893Z</time></trkpt><trkpt lat="42.2800506" lon="13.6942607"><ele>982.8000000000001</ele><time>2026-05-03T08:25:57.892Z</time></trkpt><trkpt lat="42.2800468" lon="13.6943969"><ele>982.4000000000001</ele><time>2026-05-03T08:25:58.893Z</time></trkpt><trkpt lat="42.2800425" lon="13.6945222"><ele>982.0</ele><time>2026-05-03T08:25:59.892Z</time></trkpt><trkpt lat="42.2800354" lon="13.6946395"><ele>981.1666666666666</ele><time>2026-05-03T08:26:00.893Z</time></trkpt><trkpt lat="42.2800194" lon="13.694746"><ele>980.3333333333333</ele><time>2026-05-03T08:26:01.892Z</time></trkpt><trkpt lat="42.2800016" lon="13.6948596"><ele>979.5</ele><time>2026-05-03T08:26:02.893Z</time></trkpt><trkpt lat="42.2799853" lon="13.6949673"><ele>978.6666666666667</ele><time>2026-05-03T08:26:03.893Z</time></trkpt><trkpt lat="42.2799848" lon="13.6950665"><ele>977.8333333333334</ele><time>2026-05-03T08:26:04.893Z</time></trkpt><trkpt lat="42.2799996" lon="13.6951625"><ele>977.0</ele><time>2026-05-03T08:26:05.892Z</time></trkpt><trkpt lat="42.280025" lon="13.6952573"><ele>975.6</ele><time>2026-05-03T08:26:06.892Z</time></trkpt><trkpt lat="42.2800526" lon="13.6953528"><ele>974.2</ele><time>2026-05-03T08:26:07.893Z</time></trkpt><trkpt lat="42.2801158" lon="13.6954781"><ele>972.8</ele><time>2026-05-03T08:26:09.892Z</time></trkpt><trkpt lat="42.2802256" lon="13.6955896"><ele>971.4</ele><time>2026-05-03T08:26:11.892Z</time></trkpt><trkpt lat="42.2802817" lon="13.6956374"><ele>970.0</ele><time>2026-05-03T08:26:12.892Z</time></trkpt><trkpt lat="42.2803371" lon="13.6956913"><ele>969.9999999999999</ele><time>2026-05-03T08:26:13.892Z</time></trkpt><trkpt lat="42.2803956" lon="13.6957384"><ele>970.0</ele><time>2026-05-03T08:26:14.892Z</time></trkpt><trkpt lat="42.2804548" lon="13.6957937"><ele>970.0</ele><time>2026-05-03T08:26:15.892Z</time></trkpt><trkpt lat="42.2805119" lon="13.6958498"><ele>970.0</ele><time>2026-05-03T08:26:16.892Z</time></trkpt><trkpt lat="42.2805993" lon="13.6959238"><ele>969.9999999999999</ele><time>2026-05-03T08:26:18.892Z</time></trkpt><trkpt lat="42.2807065" lon="13.6959529"><ele>970.0</ele><time>2026-05-03T08:26:20.892Z</time></trkpt><trkpt lat="42.2807753" lon="13.6959468"><ele>972.6666666666666</ele><time>2026-05-03T08:26:21.892Z</time></trkpt><trkpt lat="42.280895" lon="13.6959236"><ele>975.3333333333333</ele><time>2026-05-03T08:26:23.892Z</time></trkpt><trkpt lat="42.2809571" lon="13.6958966"><ele>978.0</ele><time>2026-05-03T08:26:24.892Z</time></trkpt><trkpt lat="42.2810235" lon="13.6958682"><ele>980.6666666666667</ele><time>2026-05-03T08:26:25.892Z</time></trkpt><trkpt lat="42.2810921" lon="13.6958362"><ele>983.3333333333334</ele><time>2026-05-03T08:26:26.892Z</time></trkpt><trkpt lat="42.2811557" lon="13.6957918"><ele>986.0</ele><time>2026-05-03T08:26:27.893Z</time></trkpt><trkpt lat="42.28123" lon="13.6957558"><ele>986.0000000000001</ele><time>2026-05-03T08:26:28.892Z</time></trkpt><trkpt lat="42.2812966" lon="13.6957479"><ele>986.0</ele><time>2026-05-03T08:26:29.892Z</time></trkpt><trkpt lat="42.2813853" lon="13.6958215"><ele>986.0</ele><time>2026-05-03T08:26:31.892Z</time></trkpt><trkpt lat="42.2814243" lon="13.6959142"><ele>986.0</ele><time>2026-05-03T08:26:32.892Z</time></trkpt><trkpt lat="42.2814619" lon="13.6960118"><ele>986.0000000000001</ele><time>2026-05-03T08:26:33.893Z</time></trkpt><trkpt lat="42.2815097" lon="13.6961092"><ele>986.0</ele><time>2026-05-03T08:26:34.892Z</time></trkpt><trkpt lat="42.281554" lon="13.696204"><ele>986.6666666666667</ele><time>2026-05-03T08:26:35.892Z</time></trkpt><trkpt lat="42.2815928" lon="13.696291"><ele>987.3333333333334</ele><time>2026-05-03T08:26:36.892Z</time></trkpt><trkpt lat="42.2816395" lon="13.6963725"><ele>988.0</ele><time>2026-05-03T08:26:37.892Z</time></trkpt><trkpt lat="42.281697" lon="13.6964501"><ele>988.6666666666667</ele><time>2026-05-03T08:26:38.892Z</time></trkpt><trkpt lat="42.2817644" lon="13.6965168"><ele>989.3333333333334</ele><time>2026-05-03T08:26:39.893Z</time></trkpt><trkpt lat="42.2818218" lon="13.696586"><ele>990.0</ele><time>2026-05-03T08:26:40.892Z</time></trkpt><trkpt lat="42.2818754" lon="13.6966512"><ele>990.0</ele><time>2026-05-03T08:26:41.892Z</time></trkpt><trkpt lat="42.2819264" lon="13.6967132"><ele>990.0</ele><time>2026-05-03T08:26:42.893Z</time></trkpt><trkpt lat="42.2819698" lon="13.6967823"><ele>990.0</ele><time>2026-05-03T08:26:43.893Z</time></trkpt><trkpt lat="42.2820105" lon="13.6968482"><ele>990.0</ele><time>2026-05-03T08:26:44.892Z</time></trkpt><trkpt lat="42.2820959" lon="13.6968799"><ele>990.0</ele><time>2026-05-03T08:26:46.892Z</time></trkpt><trkpt lat="42.2821354" lon="13.6968005"><ele>990.0</ele><time>2026-05-03T08:26:48.893Z</time></trkpt><trkpt lat="42.2821073" lon="13.6966742"><ele>990.0</ele><time>2026-05-03T08:26:50.892Z</time></trkpt><trkpt lat="42.2820646" lon="13.6965946"><ele>990.0</ele><time>2026-05-03T08:26:51.892Z</time></trkpt><trkpt lat="42.2820511" lon="13.696455"><ele>990.0</ele><time>2026-05-03T08:26:53.892Z</time></trkpt><trkpt lat="42.2821033" lon="13.6963577"><ele>990.0</ele><time>2026-05-03T08:26:55.893Z</time></trkpt><trkpt lat="42.282183" lon="13.6962434"><ele>990.0</ele><time>2026-05-03T08:26:57.892Z</time></trkpt><trkpt lat="42.2822251" lon="13.6961725"><ele>990.0</ele><time>2026-05-03T08:26:58.893Z</time></trkpt><trkpt lat="42.2822553" lon="13.6960911"><ele>986.3333333333334</ele><time>2026-05-03T08:26:59.893Z</time></trkpt><trkpt lat="42.2822752" lon="13.6960061"><ele>982.6666666666667</ele><time>2026-05-03T08:27:00.892Z</time></trkpt><trkpt lat="42.28229" lon="13.6958961"><ele>979.0</ele><time>2026-05-03T08:27:01.892Z</time></trkpt><trkpt lat="42.2822955" lon="13.6957856"><ele>975.3333333333334</ele><time>2026-05-03T08:27:02.892Z</time></trkpt><trkpt lat="42.2822985" lon="13.6956748"><ele>971.6666666666667</ele><time>2026-05-03T08:27:03.892Z</time></trkpt><trkpt lat="42.2823046" lon="13.6955559"><ele>968.0</ele><time>2026-05-03T08:27:04.893Z</time></trkpt><trkpt lat="42.2823129" lon="13.6954435"><ele>968.0000000000001</ele><time>2026-05-03T08:27:05.892Z</time></trkpt><trkpt lat="42.282318" lon="13.6953386"><ele>968.0</ele><time>2026-05-03T08:27:06.892Z</time></trkpt><trkpt lat="42.2823243" lon="13.6952388"><ele>968.0</ele><time>2026-05-03T08:27:07.892Z</time></trkpt><trkpt lat="42.2823303" lon="13.6951436"><ele>968.0</ele><time>2026-05-03T08:27:08.894Z</time></trkpt><trkpt lat="42.2823341" lon="13.6950398"><ele>968.0000000000001</ele><time>2026-05-03T08:27:09.892Z</time></trkpt><trkpt lat="42.2823382" lon="13.6949387"><ele>968.0</ele><time>2026-05-03T08:27:10.893Z</time></trkpt><trkpt lat="42.2823325" lon="13.6948208"><ele>967.5000000000001</ele><time>2026-05-03T08:27:11.892Z</time></trkpt><trkpt lat="42.2823205" lon="13.6947144"><ele>967.0</ele><time>2026-05-03T08:27:12.892Z</time></trkpt><trkpt lat="42.2823079" lon="13.6946038"><ele>966.5</ele><time>2026-05-03T08:27:13.892Z</time></trkpt><trkpt lat="42.2822904" lon="13.6944945"><ele>966.0</ele><time>2026-05-03T08:27:14.893Z</time></trkpt><trkpt lat="42.2822688" lon="13.6943935"><ele>965.5000000000001</ele><time>2026-05-03T08:27:15.892Z</time></trkpt><trkpt lat="42.2822485" lon="13.6942966"><ele>965.0</ele><time>2026-05-03T08:27:16.892Z</time></trkpt><trkpt lat="42.2822324" lon="13.6941996"><ele>963.6666666666667</ele><time>2026-05-03T08:27:17.893Z</time></trkpt><trkpt lat="42.2822266" lon="13.6940886"><ele>962.3333333333334</ele><time>2026-05-03T08:27:18.892Z</time></trkpt><trkpt lat="42.2822333" lon="13.6939748"><ele>961.0</ele><time>2026-05-03T08:27:19.892Z</time></trkpt><trkpt lat="42.2822533" lon="13.6938629"><ele>959.6666666666667</ele><time>2026-05-03T08:27:20.892Z</time></trkpt><trkpt lat="42.2822873" lon="13.6937596"><ele>958.3333333333334</ele><time>2026-05-03T08:27:21.892Z</time></trkpt><trkpt lat="42.2823147" lon="13.6936575"><ele>957.0</ele><time>2026-05-03T08:27:22.892Z</time></trkpt><trkpt lat="42.2823283" lon="13.6935521"><ele>956.1666666666666</ele><time>2026-05-03T08:27:23.893Z</time></trkpt><trkpt lat="42.2823402" lon="13.6934483"><ele>955.3333333333333</ele><time>2026-05-03T08:27:24.892Z</time></trkpt><trkpt lat="42.2823517" lon="13.6933386"><ele>954.5</ele><time>2026-05-03T08:27:25.892Z</time></trkpt><trkpt lat="42.2823632" lon="13.6932333"><ele>953.6666666666666</ele><time>2026-05-03T08:27:26.892Z</time></trkpt><trkpt lat="42.2823766" lon="13.6931238"><ele>952.8333333333333</ele><time>2026-05-03T08:27:27.893Z</time></trkpt><trkpt lat="42.2823949" lon="13.6930119"><ele>952.0</ele><time>2026-05-03T08:27:28.892Z</time></trkpt><trkpt lat="42.2824231" lon="13.6929036"><ele>952.0</ele><time>2026-05-03T08:27:29.892Z</time></trkpt><trkpt lat="42.2824585" lon="13.69279"><ele>952.0</ele><time>2026-05-03T08:27:30.893Z</time></trkpt><trkpt lat="42.282493" lon="13.6926798"><ele>952.0</ele><time>2026-05-03T08:27:31.893Z</time></trkpt><trkpt lat="42.2825335" lon="13.6925579"><ele>952.0</ele><time>2026-05-03T08:27:32.892Z</time></trkpt><trkpt lat="42.2825749" lon="13.6924375"><ele>952.0</ele><time>2026-05-03T08:27:33.892Z</time></trkpt><trkpt lat="42.2826202" lon="13.6923168"><ele>953.2</ele><time>2026-05-03T08:27:34.893Z</time></trkpt><trkpt lat="42.282678" lon="13.6922042"><ele>954.4000000000001</ele><time>2026-05-03T08:27:35.892Z</time></trkpt><trkpt lat="42.2827416" lon="13.6920945"><ele>955.5999999999999</ele><time>2026-05-03T08:27:36.893Z</time></trkpt><trkpt lat="42.2828101" lon="13.6919853"><ele>956.8</ele><time>2026-05-03T08:27:37.893Z</time></trkpt><trkpt lat="42.2828686" lon="13.6918813"><ele>958.0</ele><time>2026-05-03T08:27:38.892Z</time></trkpt><trkpt lat="42.2829274" lon="13.6917827"><ele>961.2</ele><time>2026-05-03T08:27:39.892Z</time></trkpt><trkpt lat="42.2829931" lon="13.6916904"><ele>964.4</ele><time>2026-05-03T08:27:40.892Z</time></trkpt><trkpt lat="42.2830699" lon="13.6916082"><ele>967.6000000000001</ele><time>2026-05-03T08:27:41.892Z</time></trkpt><trkpt lat="42.2831512" lon="13.691531"><ele>970.8000000000001</ele><time>2026-05-03T08:27:42.893Z</time></trkpt><trkpt lat="42.283247" lon="13.691464"><ele>974.0</ele><time>2026-05-03T08:27:43.893Z</time></trkpt><trkpt lat="42.2833478" lon="13.6913977"><ele>971.8000000000001</ele><time>2026-05-03T08:27:44.892Z</time></trkpt><trkpt lat="42.2834432" lon="13.6913338"><ele>969.6000000000001</ele><time>2026-05-03T08:27:45.892Z</time></trkpt><trkpt lat="42.2835422" lon="13.69126"><ele>967.4</ele><time>2026-05-03T08:27:46.893Z</time></trkpt><trkpt lat="42.2836382" lon="13.691195"><ele>965.2</ele><time>2026-05-03T08:27:47.892Z</time></trkpt><trkpt lat="42.2837309" lon="13.6911319"><ele>963.0</ele><time>2026-05-03T08:27:48.892Z</time></trkpt><trkpt lat="42.2838274" lon="13.6910618"><ele>963.0</ele><time>2026-05-03T08:27:49.893Z</time></trkpt><trkpt lat="42.2839241" lon="13.6909972"><ele>963.0</ele><time>2026-05-03T08:27:50.893Z</time></trkpt><trkpt lat="42.2840126" lon="13.6909415"><ele>963.0</ele><time>2026-05-03T08:27:51.893Z</time></trkpt><trkpt lat="42.2840909" lon="13.6909029"><ele>963.0</ele><time>2026-05-03T08:27:52.893Z</time></trkpt><trkpt lat="42.2841659" lon="13.6908823"><ele>963.0</ele><time>2026-05-03T08:27:53.893Z</time></trkpt><trkpt lat="42.2842422" lon="13.6908858"><ele>963.0</ele><time>2026-05-03T08:27:54.892Z</time></trkpt><trkpt lat="42.2843173" lon="13.6909112"><ele>959.0</ele><time>2026-05-03T08:27:55.893Z</time></trkpt><trkpt lat="42.2843877" lon="13.6909459"><ele>955.0</ele><time>2026-05-03T08:27:56.892Z</time></trkpt><trkpt lat="42.2844694" lon="13.6909815"><ele>951.0</ele><time>2026-05-03T08:27:57.893Z</time></trkpt><trkpt lat="42.2845655" lon="13.6910146"><ele>947.0</ele><time>2026-05-03T08:27:58.893Z</time></trkpt><trkpt lat="42.2846645" lon="13.6910534"><ele>943.0</ele><time>2026-05-03T08:27:59.893Z</time></trkpt><trkpt lat="42.2847666" lon="13.6910928"><ele>936.2</ele><time>2026-05-03T08:28:00.893Z</time></trkpt><trkpt lat="42.2848652" lon="13.6911296"><ele>929.4</ele><time>2026-05-03T08:28:01.892Z</time></trkpt><trkpt lat="42.2849726" lon="13.6911633"><ele>922.6000000000001</ele><time>2026-05-03T08:28:02.892Z</time></trkpt><trkpt lat="42.2850782" lon="13.6911969"><ele>915.8000000000001</ele><time>2026-05-03T08:28:03.894Z</time></trkpt><trkpt lat="42.2851778" lon="13.6912206"><ele>909.0</ele><time>2026-05-03T08:28:04.892Z</time></trkpt><trkpt lat="42.2852735" lon="13.6912435"><ele>909.0</ele><time>2026-05-03T08:28:05.892Z</time></trkpt><trkpt lat="42.2853694" lon="13.6912642"><ele>909.0000000000001</ele><time>2026-05-03T08:28:06.892Z</time></trkpt><trkpt lat="42.2854631" lon="13.6912707"><ele>909.0000000000001</ele><time>2026-05-03T08:28:07.892Z</time></trkpt><trkpt lat="42.2855572" lon="13.6912674"><ele>909.0</ele><time>2026-05-03T08:28:08.892Z</time></trkpt><trkpt lat="42.2856484" lon="13.6912563"><ele>909.0</ele><time>2026-05-03T08:28:09.894Z</time></trkpt><trkpt lat="42.2857495" lon="13.6912322"><ele>909.5</ele><time>2026-05-03T08:28:10.893Z</time></trkpt><trkpt lat="42.2858572" lon="13.691209"><ele>910.0</ele><time>2026-05-03T08:28:11.892Z</time></trkpt><trkpt lat="42.2859666" lon="13.6911846"><ele>910.5</ele><time>2026-05-03T08:28:12.892Z</time></trkpt><trkpt lat="42.2860835" lon="13.691155"><ele>911.0</ele><time>2026-05-03T08:28:13.892Z</time></trkpt><trkpt lat="42.2862035" lon="13.6911193"><ele>918.0</ele><time>2026-05-03T08:28:14.893Z</time></trkpt><trkpt lat="42.2863222" lon="13.6910865"><ele>925.0</ele><time>2026-05-03T08:28:15.893Z</time></trkpt><trkpt lat="42.2864389" lon="13.6910602"><ele>932.0</ele><time>2026-05-03T08:28:16.892Z</time></trkpt><trkpt lat="42.2865456" lon="13.6910372"><ele>939.0</ele><time>2026-05-03T08:28:17.893Z</time></trkpt><trkpt lat="42.286654" lon="13.6910142"><ele>939.0</ele><time>2026-05-03T08:28:18.894Z</time></trkpt><trkpt lat="42.2867704" lon="13.6909849"><ele>939.0</ele><time>2026-05-03T08:28:19.893Z</time></trkpt><trkpt lat="42.2868831" lon="13.6909492"><ele>939.0</ele><time>2026-05-03T08:28:20.892Z</time></trkpt><trkpt lat="42.2869961" lon="13.6909115"><ele>939.0</ele><time>2026-05-03T08:28:21.892Z</time></trkpt><trkpt lat="42.2871112" lon="13.6908673"><ele>939.0</ele><time>2026-05-03T08:28:22.893Z</time></trkpt><trkpt lat="42.2872188" lon="13.69082"><ele>939.0000000000001</ele><time>2026-05-03T08:28:23.893Z</time></trkpt><trkpt lat="42.2873172" lon="13.6907765"><ele>939.0000000000001</ele><time>2026-05-03T08:28:24.893Z</time></trkpt><trkpt lat="42.2874102" lon="13.6907365"><ele>939.0</ele><time>2026-05-03T08:28:25.892Z</time></trkpt><trkpt lat="42.2874973" lon="13.6907025"><ele>939.0</ele><time>2026-05-03T08:28:26.893Z</time></trkpt><trkpt lat="42.2875831" lon="13.6906693"><ele>935.8000000000001</ele><time>2026-05-03T08:28:27.892Z</time></trkpt><trkpt lat="42.2876732" lon="13.690643"><ele>932.6000000000001</ele><time>2026-05-03T08:28:28.893Z</time></trkpt><trkpt lat="42.2877597" lon="13.690618"><ele>929.4</ele><time>2026-05-03T08:28:29.892Z</time></trkpt><trkpt lat="42.2878472" lon="13.6905898"><ele>926.2</ele><time>2026-05-03T08:28:30.892Z</time></trkpt><trkpt lat="42.2879312" lon="13.6905538"><ele>923.0</ele><time>2026-05-03T08:28:31.893Z</time></trkpt><trkpt lat="42.2880183" lon="13.6905138"><ele>919.5999999999999</ele><time>2026-05-03T08:28:32.893Z</time></trkpt><trkpt lat="42.2881093" lon="13.690466"><ele>916.1999999999999</ele><time>2026-05-03T08:28:33.892Z</time></trkpt><trkpt lat="42.2881937" lon="13.6904223"><ele>912.8</ele><time>2026-05-03T08:28:34.892Z</time></trkpt><trkpt lat="42.2882799" lon="13.6903825"><ele>909.4</ele><time>2026-05-03T08:28:35.892Z</time></trkpt><trkpt lat="42.2883689" lon="13.6903492"><ele>906.0</ele><time>2026-05-03T08:28:36.893Z</time></trkpt><trkpt lat="42.2884535" lon="13.6903337"><ele>906.0</ele><time>2026-05-03T08:28:37.893Z</time></trkpt><trkpt lat="42.2885378" lon="13.6903331"><ele>906.0</ele><time>2026-05-03T08:28:38.892Z</time></trkpt><trkpt lat="42.288619" lon="13.6903472"><ele>906.0</ele><time>2026-05-03T08:28:39.892Z</time></trkpt><trkpt lat="42.2886966" lon="13.6903718"><ele>906.0</ele><time>2026-05-03T08:28:40.892Z</time></trkpt><trkpt lat="42.288771" lon="13.6904067"><ele>906.0</ele><time>2026-05-03T08:28:41.892Z</time></trkpt><trkpt lat="42.288839" lon="13.6904432"><ele>906.0</ele><time>2026-05-03T08:28:42.893Z</time></trkpt><trkpt lat="42.2888997" lon="13.6904706"><ele>905.0</ele><time>2026-05-03T08:28:43.892Z</time></trkpt><trkpt lat="42.288961" lon="13.6904915"><ele>903.9999999999999</ele><time>2026-05-03T08:28:44.892Z</time></trkpt><trkpt lat="42.2890811" lon="13.6905199"><ele>902.9999999999999</ele><time>2026-05-03T08:28:46.892Z</time></trkpt><trkpt lat="42.2892023" lon="13.6905136"><ele>902.0</ele><time>2026-05-03T08:28:48.892Z</time></trkpt><trkpt lat="42.2893207" lon="13.6904937"><ele>901.0</ele><time>2026-05-03T08:28:50.892Z</time></trkpt><trkpt lat="42.2893851" lon="13.690477"><ele>900.9999999999999</ele><time>2026-05-03T08:28:51.892Z</time></trkpt><trkpt lat="42.2894546" lon="13.6904683"><ele>901.0</ele><time>2026-05-03T08:28:52.892Z</time></trkpt><trkpt lat="42.289528" lon="13.6904719"><ele>901.0</ele><time>2026-05-03T08:28:53.893Z</time></trkpt><trkpt lat="42.2896008" lon="13.6904859"><ele>901.0</ele><time>2026-05-03T08:28:54.892Z</time></trkpt><trkpt lat="42.2896772" lon="13.6905054"><ele>900.9999999999999</ele><time>2026-05-03T08:28:55.893Z</time></trkpt><trkpt lat="42.2897571" lon="13.6905369"><ele>901.0</ele><time>2026-05-03T08:28:56.893Z</time></trkpt><trkpt lat="42.2898307" lon="13.6905691"><ele>900.3333333333333</ele><time>2026-05-03T08:28:57.893Z</time></trkpt><trkpt lat="42.2899077" lon="13.6905972"><ele>899.6666666666666</ele><time>2026-05-03T08:28:58.892Z</time></trkpt><trkpt lat="42.2899842" lon="13.6906131"><ele>899.0</ele><time>2026-05-03T08:28:59.893Z</time></trkpt><trkpt lat="42.2900716" lon="13.6906184"><ele>898.3333333333333</ele><time>2026-05-03T08:29:00.892Z</time></trkpt><trkpt lat="42.2901576" lon="13.6906119"><ele>897.6666666666666</ele><time>2026-05-03T08:29:01.893Z</time></trkpt><trkpt lat="42.2902429" lon="13.6905986"><ele>897.0</ele><time>2026-05-03T08:29:02.893Z</time></trkpt><trkpt lat="42.2903215" lon="13.6905793"><ele>897.0</ele><time>2026-05-03T08:29:03.892Z</time></trkpt><trkpt lat="42.2903997" lon="13.6905533"><ele>897.0</ele><time>2026-05-03T08:29:04.892Z</time></trkpt><trkpt lat="42.2904804" lon="13.6905257"><ele>897.0</ele><time>2026-05-03T08:29:05.893Z</time></trkpt><trkpt lat="42.2905564" lon="13.6905077"><ele>897.0</ele><time>2026-05-03T08:29:06.892Z</time></trkpt><trkpt lat="42.2906306" lon="13.6905007"><ele>897.0</ele><time>2026-05-03T08:29:07.893Z</time></trkpt><trkpt lat="42.290702" lon="13.6904982"><ele>897.0</ele><time>2026-05-03T08:29:08.892Z</time></trkpt><trkpt lat="42.2907759" lon="13.6905066"><ele>895.3333333333334</ele><time>2026-05-03T08:29:09.892Z</time></trkpt><trkpt lat="42.2908499" lon="13.6905143"><ele>893.6666666666667</ele><time>2026-05-03T08:29:10.891Z</time></trkpt><trkpt lat="42.2909233" lon="13.6905154"><ele>892.0</ele><time>2026-05-03T08:29:11.891Z</time></trkpt><trkpt lat="42.2910016" lon="13.6905081"><ele>890.3333333333334</ele><time>2026-05-03T08:29:12.893Z</time></trkpt><trkpt lat="42.2910763" lon="13.6904939"><ele>888.6666666666667</ele><time>2026-05-03T08:29:13.891Z</time></trkpt><trkpt lat="42.2911559" lon="13.6904666"><ele>887.0</ele><time>2026-05-03T08:29:14.891Z</time></trkpt><trkpt lat="42.2912319" lon="13.6904264"><ele>887.0000000000001</ele><time>2026-05-03T08:29:15.892Z</time></trkpt><trkpt lat="42.2913128" lon="13.6903684"><ele>887.0</ele><time>2026-05-03T08:29:16.892Z</time></trkpt><trkpt lat="42.2913855" lon="13.6902968"><ele>887.0</ele><time>2026-05-03T08:29:17.891Z</time></trkpt><trkpt lat="42.2914529" lon="13.6902271"><ele>887.0</ele><time>2026-05-03T08:29:18.891Z</time></trkpt><trkpt lat="42.2915218" lon="13.6901644"><ele>887.0000000000001</ele><time>2026-05-03T08:29:19.891Z</time></trkpt><trkpt lat="42.2915807" lon="13.6900964"><ele>887.0</ele><time>2026-05-03T08:29:20.892Z</time></trkpt><trkpt lat="42.2916337" lon="13.6900285"><ele>885.5714285714286</ele><time>2026-05-03T08:29:21.892Z</time></trkpt><trkpt lat="42.2916839" lon="13.6899624"><ele>884.1428571428571</ele><time>2026-05-03T08:29:22.892Z</time></trkpt><trkpt lat="42.2917421" lon="13.6899043"><ele>882.7142857142858</ele><time>2026-05-03T08:29:23.892Z</time></trkpt><trkpt lat="42.2918087" lon="13.6898581"><ele>881.2857142857142</ele><time>2026-05-03T08:29:24.891Z</time></trkpt><trkpt lat="42.2918771" lon="13.6898244"><ele>879.8571428571429</ele><time>2026-05-03T08:29:25.892Z</time></trkpt><trkpt lat="42.291946" lon="13.6897848"><ele>878.4285714285714</ele><time>2026-05-03T08:29:26.891Z</time></trkpt><trkpt lat="42.2920158" lon="13.6897428"><ele>877.0</ele><time>2026-05-03T08:29:27.891Z</time></trkpt><trkpt lat="42.2920797" lon="13.6896944"><ele>876.9999999999999</ele><time>2026-05-03T08:29:28.892Z</time></trkpt><trkpt lat="42.2921418" lon="13.6896244"><ele>877.0</ele><time>2026-05-03T08:29:29.892Z</time></trkpt><trkpt lat="42.2921997" lon="13.6895408"><ele>877.0</ele><time>2026-05-03T08:29:30.891Z</time></trkpt><trkpt lat="42.2922594" lon="13.6894528"><ele>877.0</ele><time>2026-05-03T08:29:31.891Z</time></trkpt><trkpt lat="42.2923162" lon="13.6893612"><ele>876.9999999999999</ele><time>2026-05-03T08:29:32.891Z</time></trkpt><trkpt lat="42.2923767" lon="13.6892664"><ele>877.0</ele><time>2026-05-03T08:29:33.891Z</time></trkpt><trkpt lat="42.2924376" lon="13.6891769"><ele>875.6666666666666</ele><time>2026-05-03T08:29:34.891Z</time></trkpt><trkpt lat="42.2924962" lon="13.6891022"><ele>874.3333333333333</ele><time>2026-05-03T08:29:35.891Z</time></trkpt><trkpt lat="42.2925549" lon="13.6890336"><ele>873.0</ele><time>2026-05-03T08:29:36.891Z</time></trkpt><trkpt lat="42.2926104" lon="13.6889749"><ele>871.6666666666667</ele><time>2026-05-03T08:29:37.891Z</time></trkpt><trkpt lat="42.2926726" lon="13.6889114"><ele>870.3333333333334</ele><time>2026-05-03T08:29:38.892Z</time></trkpt><trkpt lat="42.2927358" lon="13.6888522"><ele>869.0</ele><time>2026-05-03T08:29:39.892Z</time></trkpt><trkpt lat="42.292803" lon="13.6888126"><ele>869.0</ele><time>2026-05-03T08:29:40.892Z</time></trkpt><trkpt lat="42.2928754" lon="13.6887667"><ele>869.0</ele><time>2026-05-03T08:29:41.891Z</time></trkpt><trkpt lat="42.2929421" lon="13.6887264"><ele>869.0</ele><time>2026-05-03T08:29:42.891Z</time></trkpt><trkpt lat="42.2930068" lon="13.6886826"><ele>869.0</ele><time>2026-05-03T08:29:43.891Z</time></trkpt><trkpt lat="42.2930747" lon="13.6886378"><ele>869.0</ele><time>2026-05-03T08:29:44.891Z</time></trkpt><trkpt lat="42.2931444" lon="13.6885998"><ele>869.0</ele><time>2026-05-03T08:29:45.891Z</time></trkpt><trkpt lat="42.293212" lon="13.6885824"><ele>869.0</ele><time>2026-05-03T08:29:46.891Z</time></trkpt><trkpt lat="42.2933066" lon="13.6885661"><ele>869.0000000000001</ele><time>2026-05-03T08:29:48.891Z</time></trkpt><trkpt lat="42.2933747" lon="13.6885562"><ele>869.0</ele><time>2026-05-03T08:29:50.892Z</time></trkpt><trkpt lat="42.2934147" lon="13.6886436"><ele>869.0</ele><time>2026-05-03T08:30:05.891Z</time></trkpt><trkpt lat="42.2933498" lon="13.6887222"><ele>869.0</ele><time>2026-05-03T08:30:07.89Z</time></trkpt><trkpt lat="42.2932598" lon="13.688838"><ele>869.0000000000001</ele><time>2026-05-03T08:30:09.891Z</time></trkpt><trkpt lat="42.2932092" lon="13.6889106"><ele>869.0</ele><time>2026-05-03T08:30:10.891Z</time></trkpt><trkpt lat="42.2931528" lon="13.6889922"><ele>869.0</ele><time>2026-05-03T08:30:11.892Z</time></trkpt><trkpt lat="42.2930909" lon="13.6890871"><ele>869.0000000000001</ele><time>2026-05-03T08:30:12.892Z</time></trkpt><trkpt lat="42.2930277" lon="13.6891932"><ele>869.0000000000001</ele><time>2026-05-03T08:30:13.891Z</time></trkpt><trkpt lat="42.2929676" lon="13.6893058"><ele>869.0</ele><time>2026-05-03T08:30:14.892Z</time></trkpt><trkpt lat="42.2929073" lon="13.6894299"><ele>869.0</ele><time>2026-05-03T08:30:15.891Z</time></trkpt><trkpt lat="42.2928491" lon="13.6895559"><ele>866.5</ele><time>2026-05-03T08:30:16.892Z</time></trkpt><trkpt lat="42.2927935" lon="13.6896887"><ele>864.0</ele><time>2026-05-03T08:30:17.891Z</time></trkpt><trkpt lat="42.2927379" lon="13.6898232"><ele>861.5</ele><time>2026-05-03T08:30:18.892Z</time></trkpt><trkpt lat="42.2926785" lon="13.689956"><ele>859.0</ele><time>2026-05-03T08:30:19.892Z</time></trkpt><trkpt lat="42.2926217" lon="13.6900859"><ele>859.0</ele><time>2026-05-03T08:30:20.891Z</time></trkpt><trkpt lat="42.2925704" lon="13.6902132"><ele>859.0000000000001</ele><time>2026-05-03T08:30:21.892Z</time></trkpt><trkpt lat="42.2925215" lon="13.6903433"><ele>859.0000000000001</ele><time>2026-05-03T08:30:22.892Z</time></trkpt><trkpt lat="42.292483" lon="13.6904769"><ele>859.0</ele><time>2026-05-03T08:30:23.892Z</time></trkpt><trkpt lat="42.2924614" lon="13.6906079"><ele>859.0</ele><time>2026-05-03T08:30:24.891Z</time></trkpt><trkpt lat="42.2924511" lon="13.6907358"><ele>859.4000000000001</ele><time>2026-05-03T08:30:25.892Z</time></trkpt><trkpt lat="42.2924434" lon="13.6908622"><ele>859.8000000000001</ele><time>2026-05-03T08:30:26.891Z</time></trkpt><trkpt lat="42.2924344" lon="13.6909862"><ele>860.1999999999999</ele><time>2026-05-03T08:30:27.892Z</time></trkpt><trkpt lat="42.2924181" lon="13.6911093"><ele>860.5999999999999</ele><time>2026-05-03T08:30:28.891Z</time></trkpt><trkpt lat="42.2923938" lon="13.6912321"><ele>861.0</ele><time>2026-05-03T08:30:29.891Z</time></trkpt><trkpt lat="42.2923618" lon="13.6913559"><ele>861.0</ele><time>2026-05-03T08:30:30.892Z</time></trkpt><trkpt lat="42.2923212" lon="13.6914761"><ele>860.9999999999999</ele><time>2026-05-03T08:30:31.892Z</time></trkpt><trkpt lat="42.2922735" lon="13.6915953"><ele>860.9999999999999</ele><time>2026-05-03T08:30:32.891Z</time></trkpt><trkpt lat="42.292212" lon="13.6917109"><ele>861.0</ele><time>2026-05-03T08:30:33.892Z</time></trkpt><trkpt lat="42.2921407" lon="13.691826"><ele>861.0</ele><time>2026-05-03T08:30:34.891Z</time></trkpt><trkpt lat="42.292052" lon="13.6919398"><ele>861.25</ele><time>2026-05-03T08:30:35.892Z</time></trkpt><trkpt lat="42.2919522" lon="13.6920547"><ele>861.5</ele><time>2026-05-03T08:30:36.892Z</time></trkpt><trkpt lat="42.2918436" lon="13.6921709"><ele>861.75</ele><time>2026-05-03T08:30:37.891Z</time></trkpt><trkpt lat="42.29173" lon="13.6922841"><ele>862.0</ele><time>2026-05-03T08:30:38.892Z</time></trkpt><trkpt lat="42.2916211" lon="13.6923973"><ele>862.0</ele><time>2026-05-03T08:30:39.891Z</time></trkpt><trkpt lat="42.2915104" lon="13.692507"><ele>862.0</ele><time>2026-05-03T08:30:40.892Z</time></trkpt><trkpt lat="42.2914092" lon="13.6926245"><ele>862.0</ele><time>2026-05-03T08:30:41.891Z</time></trkpt><trkpt lat="42.291319" lon="13.6927532"><ele>862.0</ele><time>2026-05-03T08:30:42.891Z</time></trkpt><trkpt lat="42.2912398" lon="13.6928845"><ele>862.0</ele><time>2026-05-03T08:30:43.891Z</time></trkpt><trkpt lat="42.2911643" lon="13.6930117"><ele>862.0</ele><time>2026-05-03T08:30:44.891Z</time></trkpt><trkpt lat="42.2910866" lon="13.693134"><ele>862.0</ele><time>2026-05-03T08:30:45.892Z</time></trkpt><trkpt lat="42.2910062" lon="13.6932486"><ele>862.0</ele><time>2026-05-03T08:30:46.891Z</time></trkpt><trkpt lat="42.2909221" lon="13.6933554"><ele>862.0</ele><time>2026-05-03T08:30:47.891Z</time></trkpt><trkpt lat="42.290832" lon="13.693451"><ele>862.0</ele><time>2026-05-03T08:30:48.891Z</time></trkpt><trkpt lat="42.2907346" lon="13.6935498"><ele>862.0</ele><time>2026-05-03T08:30:49.891Z</time></trkpt><trkpt lat="42.2906417" lon="13.6936661"><ele>862.0</ele><time>2026-05-03T08:30:50.891Z</time></trkpt><trkpt lat="42.2905577" lon="13.6937944"><ele>859.5</ele><time>2026-05-03T08:30:51.891Z</time></trkpt><trkpt lat="42.290481" lon="13.6939392"><ele>857.0</ele><time>2026-05-03T08:30:52.892Z</time></trkpt><trkpt lat="42.2904094" lon="13.6940956"><ele>854.5</ele><time>2026-05-03T08:30:53.892Z</time></trkpt><trkpt lat="42.2903456" lon="13.694268"><ele>852.0</ele><time>2026-05-03T08:30:54.891Z</time></trkpt><trkpt lat="42.2902839" lon="13.6944464"><ele>852.0</ele><time>2026-05-03T08:30:55.891Z</time></trkpt><trkpt lat="42.290228" lon="13.6946133"><ele>852.0</ele><time>2026-05-03T08:30:56.892Z</time></trkpt><trkpt lat="42.2901819" lon="13.694764"><ele>852.0</ele><time>2026-05-03T08:30:57.892Z</time></trkpt><trkpt lat="42.2901384" lon="13.6949022"><ele>852.0</ele><time>2026-05-03T08:30:58.891Z</time></trkpt><trkpt lat="42.2900966" lon="13.6950258"><ele>852.0</ele><time>2026-05-03T08:30:59.892Z</time></trkpt><trkpt lat="42.2900551" lon="13.6951353"><ele>852.0</ele><time>2026-05-03T08:31:00.891Z</time></trkpt><trkpt lat="42.2900214" lon="13.6952376"><ele>852.0</ele><time>2026-05-03T08:31:01.891Z</time></trkpt><trkpt lat="42.2899922" lon="13.6953255"><ele>852.0</ele><time>2026-05-03T08:31:02.891Z</time></trkpt><trkpt lat="42.2899411" lon="13.6954606"><ele>852.0</ele><time>2026-05-03T08:31:04.891Z</time></trkpt><trkpt lat="42.2899137" lon="13.6955516"><ele>852.0</ele><time>2026-05-03T08:31:06.891Z</time></trkpt><trkpt lat="42.2898742" lon="13.6956947"><ele>852.0</ele><time>2026-05-03T08:31:19.891Z</time></trkpt><trkpt lat="42.289843" lon="13.6957845"><ele>852.0</ele><time>2026-05-03T08:31:20.892Z</time></trkpt><trkpt lat="42.2898049" lon="13.6958881"><ele>852.0</ele><time>2026-05-03T08:31:21.892Z</time></trkpt><trkpt lat="42.2897606" lon="13.696009"><ele>852.0</ele><time>2026-05-03T08:31:22.892Z</time></trkpt><trkpt lat="42.2897098" lon="13.6961433"><ele>852.0</ele><time>2026-05-03T08:31:23.892Z</time></trkpt><trkpt lat="42.2896594" lon="13.6962793"><ele>847.0</ele><time>2026-05-03T08:31:24.891Z</time></trkpt><trkpt lat="42.2896037" lon="13.6964197"><ele>842.0</ele><time>2026-05-03T08:31:25.893Z</time></trkpt><trkpt lat="42.2895442" lon="13.6965603"><ele>837.0</ele><time>2026-05-03T08:31:26.893Z</time></trkpt><trkpt lat="42.2894822" lon="13.696705"><ele>832.0</ele><time>2026-05-03T08:31:27.892Z</time></trkpt><trkpt lat="42.2894322" lon="13.6968442"><ele>831.8</ele><time>2026-05-03T08:31:28.891Z</time></trkpt><trkpt lat="42.2893884" lon="13.6969828"><ele>831.6</ele><time>2026-05-03T08:31:29.891Z</time></trkpt><trkpt lat="42.2893493" lon="13.6971155"><ele>831.4</ele><time>2026-05-03T08:31:30.891Z</time></trkpt><trkpt lat="42.289311" lon="13.6972526"><ele>831.1999999999999</ele><time>2026-05-03T08:31:31.891Z</time></trkpt><trkpt lat="42.2892739" lon="13.6973925"><ele>831.0</ele><time>2026-05-03T08:31:32.892Z</time></trkpt><trkpt lat="42.2892425" lon="13.6975206"><ele>831.0</ele><time>2026-05-03T08:31:33.891Z</time></trkpt><trkpt lat="42.2892111" lon="13.6976439"><ele>831.0</ele><time>2026-05-03T08:31:34.892Z</time></trkpt><trkpt lat="42.2891797" lon="13.69776"><ele>831.0</ele><time>2026-05-03T08:31:35.891Z</time></trkpt><trkpt lat="42.2891511" lon="13.6978742"><ele>831.0</ele><time>2026-05-03T08:31:36.891Z</time></trkpt><trkpt lat="42.2891193" lon="13.6979792"><ele>831.0</ele><time>2026-05-03T08:31:37.892Z</time></trkpt><trkpt lat="42.2890913" lon="13.6980823"><ele>831.0</ele><time>2026-05-03T08:31:38.891Z</time></trkpt><trkpt lat="42.2890709" lon="13.6981646"><ele>830.0</ele><time>2026-05-03T08:31:39.891Z</time></trkpt><trkpt lat="42.2890456" lon="13.6982834"><ele>829.0</ele><time>2026-05-03T08:31:41.891Z</time></trkpt><trkpt lat="42.2890173" lon="13.6983827"><ele>828.0</ele><time>2026-05-03T08:31:45.891Z</time></trkpt><trkpt lat="42.2890653" lon="13.6982668"><ele>827.0</ele><time>2026-05-03T08:31:57.891Z</time></trkpt><trkpt lat="42.2890798" lon="13.6981436"><ele>826.0</ele><time>2026-05-03T08:31:59.89Z</time></trkpt><trkpt lat="42.2891096" lon="13.6979896"><ele>826.0</ele><time>2026-05-03T08:32:01.891Z</time></trkpt><trkpt lat="42.2891394" lon="13.697888"><ele>826.0</ele><time>2026-05-03T08:32:02.891Z</time></trkpt><trkpt lat="42.2891712" lon="13.6977742"><ele>826.0</ele><time>2026-05-03T08:32:03.892Z</time></trkpt><trkpt lat="42.2892056" lon="13.6976483"><ele>826.0</ele><time>2026-05-03T08:32:04.891Z</time></trkpt><trkpt lat="42.2892443" lon="13.6975103"><ele>826.0</ele><time>2026-05-03T08:32:05.892Z</time></trkpt><trkpt lat="42.2892894" lon="13.697361"><ele>827.25</ele><time>2026-05-03T08:32:06.892Z</time></trkpt><trkpt lat="42.2893345" lon="13.697201"><ele>828.5</ele><time>2026-05-03T08:32:07.892Z</time></trkpt><trkpt lat="42.2893793" lon="13.6970354"><ele>829.75</ele><time>2026-05-03T08:32:08.891Z</time></trkpt><trkpt lat="42.2894337" lon="13.6968668"><ele>831.0</ele><time>2026-05-03T08:32:09.891Z</time></trkpt><trkpt lat="42.2894906" lon="13.6967014"><ele>831.25</ele><time>2026-05-03T08:32:10.891Z</time></trkpt><trkpt lat="42.2895511" lon="13.6965384"><ele>831.5</ele><time>2026-05-03T08:32:11.891Z</time></trkpt><trkpt lat="42.2896136" lon="13.6963772"><ele>831.75</ele><time>2026-05-03T08:32:12.892Z</time></trkpt><trkpt lat="42.2896782" lon="13.696204"><ele>832.0</ele><time>2026-05-03T08:32:13.891Z</time></trkpt><trkpt lat="42.2897525" lon="13.6960047"><ele>838.6666666666666</ele><time>2026-05-03T08:32:14.892Z</time></trkpt><trkpt lat="42.2898242" lon="13.695812"><ele>845.3333333333333</ele><time>2026-05-03T08:32:15.892Z</time></trkpt><trkpt lat="42.2898946" lon="13.6956035"><ele>852.0</ele><time>2026-05-03T08:32:16.892Z</time></trkpt><trkpt lat="42.289973" lon="13.6953756"><ele>852.0</ele><time>2026-05-03T08:32:17.892Z</time></trkpt><trkpt lat="42.2900489" lon="13.6951547"><ele>852.0</ele><time>2026-05-03T08:32:18.892Z</time></trkpt><trkpt lat="42.2901153" lon="13.6949479"><ele>852.0</ele><time>2026-05-03T08:32:19.891Z</time></trkpt><trkpt lat="42.2901867" lon="13.6947393"><ele>852.0</ele><time>2026-05-03T08:32:20.891Z</time></trkpt><trkpt lat="42.2902535" lon="13.6945344"><ele>852.0</ele><time>2026-05-03T08:32:21.891Z</time></trkpt><trkpt lat="42.2903155" lon="13.6943427"><ele>852.0</ele><time>2026-05-03T08:32:22.89Z</time></trkpt><trkpt lat="42.2903852" lon="13.6941559"><ele>852.0</ele><time>2026-05-03T08:32:23.891Z</time></trkpt><trkpt lat="42.2904556" lon="13.6939927"><ele>852.0</ele><time>2026-05-03T08:32:24.891Z</time></trkpt><trkpt lat="42.2905199" lon="13.6938599"><ele>852.0</ele><time>2026-05-03T08:32:25.892Z</time></trkpt><trkpt lat="42.29058" lon="13.6937511"><ele>852.0</ele><time>2026-05-03T08:32:26.891Z</time></trkpt><trkpt lat="42.2906385" lon="13.693665"><ele>852.0</ele><time>2026-05-03T08:32:27.892Z</time></trkpt><trkpt lat="42.2907118" lon="13.6935827"><ele>854.0</ele><time>2026-05-03T08:32:28.892Z</time></trkpt><trkpt lat="42.2907983" lon="13.6934985"><ele>856.0</ele><time>2026-05-03T08:32:29.891Z</time></trkpt><trkpt lat="42.2908752" lon="13.6934247"><ele>858.0</ele><time>2026-05-03T08:32:30.891Z</time></trkpt><trkpt lat="42.290938" lon="13.6933702"><ele>860.0</ele><time>2026-05-03T08:32:31.891Z</time></trkpt><trkpt lat="42.2910168" lon="13.6932743"><ele>862.0</ele><time>2026-05-03T08:32:33.891Z</time></trkpt><trkpt lat="42.2910946" lon="13.6931418"><ele>862.0</ele><time>2026-05-03T08:32:35.891Z</time></trkpt><trkpt lat="42.2911417" lon="13.693043"><ele>862.0</ele><time>2026-05-03T08:32:37.891Z</time></trkpt><trkpt lat="42.2910854" lon="13.692977"><ele>862.0</ele><time>2026-05-03T08:32:39.891Z</time></trkpt><trkpt lat="42.2909416" lon="13.6929921"><ele>862.0</ele><time>2026-05-03T08:32:41.892Z</time></trkpt><trkpt lat="42.2908298" lon="13.6930573"><ele>862.0</ele><time>2026-05-03T08:32:42.891Z</time></trkpt><trkpt lat="42.2907241" lon="13.6931173"><ele>862.0</ele><time>2026-05-03T08:32:43.892Z</time></trkpt><trkpt lat="42.2906345" lon="13.6931327"><ele>862.0</ele><time>2026-05-03T08:32:44.892Z</time></trkpt><trkpt lat="42.2905465" lon="13.6931301"><ele>862.0</ele><time>2026-05-03T08:32:45.892Z</time></trkpt><trkpt lat="42.2904626" lon="13.6931557"><ele>862.0</ele><time>2026-05-03T08:32:46.892Z</time></trkpt><trkpt lat="42.2903707" lon="13.6932138"><ele>862.0</ele><time>2026-05-03T08:32:47.891Z</time></trkpt><trkpt lat="42.2902622" lon="13.6932917"><ele>860.0</ele><time>2026-05-03T08:32:48.891Z</time></trkpt><trkpt lat="42.2901461" lon="13.6933802"><ele>858.0</ele><time>2026-05-03T08:32:49.892Z</time></trkpt><trkpt lat="42.2900377" lon="13.6934631"><ele>856.0</ele><time>2026-05-03T08:32:50.892Z</time></trkpt><trkpt lat="42.28993" lon="13.6935515"><ele>854.0</ele><time>2026-05-03T08:32:51.891Z</time></trkpt><trkpt lat="42.2898226" lon="13.6936357"><ele>851.0</ele><time>2026-05-03T08:32:52.892Z</time></trkpt><trkpt lat="42.2897257" lon="13.693714"><ele>848.0000000000001</ele><time>2026-05-03T08:32:53.891Z</time></trkpt><trkpt lat="42.2896442" lon="13.6938014"><ele>845.0</ele><time>2026-05-03T08:32:54.891Z</time></trkpt><trkpt lat="42.2895797" lon="13.6938936"><ele>842.0</ele><time>2026-05-03T08:32:55.891Z</time></trkpt><trkpt lat="42.2895368" lon="13.6939984"><ele>839.0</ele><time>2026-05-03T08:32:56.891Z</time></trkpt><trkpt lat="42.2895063" lon="13.6941157"><ele>839.0</ele><time>2026-05-03T08:32:57.891Z</time></trkpt><trkpt lat="42.2894599" lon="13.6942329"><ele>839.0</ele><time>2026-05-03T08:32:58.891Z</time></trkpt><trkpt lat="42.2894054" lon="13.6943675"><ele>839.0</ele><time>2026-05-03T08:32:59.891Z</time></trkpt><trkpt lat="42.2893421" lon="13.6945077"><ele>839.0</ele><time>2026-05-03T08:33:00.892Z</time></trkpt><trkpt lat="42.2892746" lon="13.694647"><ele>837.75</ele><time>2026-05-03T08:33:01.891Z</time></trkpt><trkpt lat="42.2891995" lon="13.6947924"><ele>836.5</ele><time>2026-05-03T08:33:02.89Z</time></trkpt><trkpt lat="42.2891305" lon="13.6949343"><ele>835.25</ele><time>2026-05-03T08:33:03.891Z</time></trkpt><trkpt lat="42.2890607" lon="13.6950743"><ele>834.0</ele><time>2026-05-03T08:33:04.892Z</time></trkpt><trkpt lat="42.2889897" lon="13.6952093"><ele>830.25</ele><time>2026-05-03T08:33:05.891Z</time></trkpt><trkpt lat="42.2889217" lon="13.6953374"><ele>826.5</ele><time>2026-05-03T08:33:06.892Z</time></trkpt><trkpt lat="42.2888704" lon="13.6954708"><ele>822.75</ele><time>2026-05-03T08:33:07.891Z</time></trkpt><trkpt lat="42.2888204" lon="13.6956257"><ele>819.0</ele><time>2026-05-03T08:33:08.891Z</time></trkpt><trkpt lat="42.288755" lon="13.6957476"><ele>819.0</ele><time>2026-05-03T08:33:09.891Z</time></trkpt><trkpt lat="42.2886937" lon="13.6958497"><ele>819.0</ele><time>2026-05-03T08:33:10.891Z</time></trkpt><trkpt lat="42.2886178" lon="13.6959296"><ele>819.0</ele><time>2026-05-03T08:33:11.892Z</time></trkpt><trkpt lat="42.2885287" lon="13.6959759"><ele>819.0</ele><time>2026-05-03T08:33:12.891Z</time></trkpt><trkpt lat="42.2884328" lon="13.6960214"><ele>819.0</ele><time>2026-05-03T08:33:13.891Z</time></trkpt><trkpt lat="42.2883407" lon="13.6960778"><ele>818.2</ele><time>2026-05-03T08:33:14.892Z</time></trkpt><trkpt lat="42.2882533" lon="13.6961504"><ele>817.4000000000001</ele><time>2026-05-03T08:33:15.891Z</time></trkpt><trkpt lat="42.2881683" lon="13.6962386"><ele>816.6</ele><time>2026-05-03T08:33:16.891Z</time></trkpt><trkpt lat="42.2880852" lon="13.6963293"><ele>815.8</ele><time>2026-05-03T08:33:17.892Z</time></trkpt><trkpt lat="42.2880082" lon="13.6964211"><ele>815.0</ele><time>2026-05-03T08:33:18.891Z</time></trkpt><trkpt lat="42.2879351" lon="13.6964993"><ele>813.0000000000001</ele><time>2026-05-03T08:33:19.891Z</time></trkpt><trkpt lat="42.2878852" lon="13.6965827"><ele>811.0</ele><time>2026-05-03T08:33:20.892Z</time></trkpt><trkpt lat="42.2878361" lon="13.696651"><ele>809.0</ele><time>2026-05-03T08:33:21.892Z</time></trkpt><trkpt lat="42.2877657" lon="13.6966955"><ele>807.0</ele><time>2026-05-03T08:33:22.891Z</time></trkpt><trkpt lat="42.2876966" lon="13.6967539"><ele>805.0000000000001</ele><time>2026-05-03T08:33:23.892Z</time></trkpt><trkpt lat="42.2876434" lon="13.6968285"><ele>803.0</ele><time>2026-05-03T08:33:24.892Z</time></trkpt><trkpt lat="42.2876047" lon="13.6969223"><ele>802.4</ele><time>2026-05-03T08:33:25.892Z</time></trkpt><trkpt lat="42.2875889" lon="13.6970381"><ele>801.8</ele><time>2026-05-03T08:33:26.892Z</time></trkpt><trkpt lat="42.2875861" lon="13.6971793"><ele>801.2</ele><time>2026-05-03T08:33:27.892Z</time></trkpt><trkpt lat="42.2875805" lon="13.6973107"><ele>800.6</ele><time>2026-05-03T08:33:28.891Z</time></trkpt><trkpt lat="42.2875496" lon="13.6974313"><ele>800.0</ele><time>2026-05-03T08:33:29.891Z</time></trkpt><trkpt lat="42.2875004" lon="13.6975552"><ele>800.0</ele><time>2026-05-03T08:33:30.891Z</time></trkpt><trkpt lat="42.2874358" lon="13.6976845"><ele>800.0</ele><time>2026-05-03T08:33:31.891Z</time></trkpt><trkpt lat="42.2873776" lon="13.6978219"><ele>800.0</ele><time>2026-05-03T08:33:32.892Z</time></trkpt><trkpt lat="42.2873329" lon="13.6979641"><ele>800.0</ele><time>2026-05-03T08:33:33.891Z</time></trkpt><trkpt lat="42.2872988" lon="13.6981264"><ele>799.75</ele><time>2026-05-03T08:33:34.891Z</time></trkpt><trkpt lat="42.2872749" lon="13.6982857"><ele>799.5</ele><time>2026-05-03T08:33:35.892Z</time></trkpt><trkpt lat="42.2872347" lon="13.6984253"><ele>799.25</ele><time>2026-05-03T08:33:36.892Z</time></trkpt><trkpt lat="42.2871817" lon="13.6985675"><ele>799.0</ele><time>2026-05-03T08:33:37.891Z</time></trkpt><trkpt lat="42.2871378" lon="13.6987036"><ele>797.25</ele><time>2026-05-03T08:33:38.891Z</time></trkpt><trkpt lat="42.2871024" lon="13.6988577"><ele>795.5</ele><time>2026-05-03T08:33:39.891Z</time></trkpt><trkpt lat="42.2870644" lon="13.6990005"><ele>793.75</ele><time>2026-05-03T08:33:40.891Z</time></trkpt><trkpt lat="42.2870185" lon="13.6991484"><ele>792.0</ele><time>2026-05-03T08:33:41.891Z</time></trkpt><trkpt lat="42.2869773" lon="13.6992847"><ele>792.0</ele><time>2026-05-03T08:33:42.891Z</time></trkpt><trkpt lat="42.2869602" lon="13.6994124"><ele>792.0</ele><time>2026-05-03T08:33:43.892Z</time></trkpt><trkpt lat="42.2869468" lon="13.6995095"><ele>792.0</ele><time>2026-05-03T08:33:44.891Z</time></trkpt><trkpt lat="42.2869173" lon="13.6995862"><ele>792.0</ele><time>2026-05-03T08:33:46.891Z</time></trkpt><trkpt lat="42.2869209" lon="13.6994422"><ele>792.0</ele><time>2026-05-03T08:33:51.892Z</time></trkpt><trkpt lat="42.28697" lon="13.6993194"><ele>792.0</ele><time>2026-05-03T08:33:52.891Z</time></trkpt><trkpt lat="42.2870141" lon="13.6991914"><ele>792.0</ele><time>2026-05-03T08:33:53.892Z</time></trkpt><trkpt lat="42.2870542" lon="13.6990855"><ele>792.0</ele><time>2026-05-03T08:33:54.891Z</time></trkpt><trkpt lat="42.2870871" lon="13.6989605"><ele>792.0</ele><time>2026-05-03T08:33:55.892Z</time></trkpt><trkpt lat="42.2871165" lon="13.698836"><ele>792.0</ele><time>2026-05-03T08:33:56.891Z</time></trkpt><trkpt lat="42.2871445" lon="13.6987162"><ele>792.0</ele><time>2026-05-03T08:33:57.893Z</time></trkpt><trkpt lat="42.2871794" lon="13.6985972"><ele>792.0</ele><time>2026-05-03T08:33:58.891Z</time></trkpt><trkpt lat="42.2872186" lon="13.6985104"><ele>792.0</ele><time>2026-05-03T08:33:59.891Z</time></trkpt><trkpt lat="42.2872859" lon="13.6985427"><ele>792.0</ele><time>2026-05-03T08:34:02.892Z</time></trkpt><trkpt lat="42.2873046" lon="13.6986346"><ele>792.0</ele><time>2026-05-03T08:34:03.892Z</time></trkpt><trkpt lat="42.2873078" lon="13.6987775"><ele>792.0</ele><time>2026-05-03T08:34:04.891Z</time></trkpt><trkpt lat="42.2872801" lon="13.6989302"><ele>792.0</ele><time>2026-05-03T08:34:05.891Z</time></trkpt><trkpt lat="42.2872406" lon="13.6990827"><ele>792.0</ele><time>2026-05-03T08:34:06.892Z</time></trkpt><trkpt lat="42.2872151" lon="13.6992203"><ele>792.0</ele><time>2026-05-03T08:34:07.891Z</time></trkpt><trkpt lat="42.2872163" lon="13.6993165"><ele>792.0</ele><time>2026-05-03T08:34:08.891Z</time></trkpt><trkpt lat="42.2872595" lon="13.6994731"><ele>792.0</ele><time>2026-05-03T08:34:10.891Z</time></trkpt><trkpt lat="42.2873241" lon="13.6995621"><ele>792.0</ele><time>2026-05-03T08:34:11.891Z</time></trkpt><trkpt lat="42.2873657" lon="13.6996449"><ele>792.1666666666666</ele><time>2026-05-03T08:34:12.891Z</time></trkpt><trkpt lat="42.2873801" lon="13.6997976"><ele>792.3333333333333</ele><time>2026-05-03T08:34:14.892Z</time></trkpt><trkpt lat="42.2873788" lon="13.6998873"><ele>792.5</ele><time>2026-05-03T08:34:15.892Z</time></trkpt><trkpt lat="42.2873769" lon="13.6999894"><ele>792.6666666666666</ele><time>2026-05-03T08:34:16.891Z</time></trkpt><trkpt lat="42.2873775" lon="13.7000764"><ele>792.8333333333333</ele><time>2026-05-03T08:34:17.891Z</time></trkpt><trkpt lat="42.2873485" lon="13.7002131"><ele>793.0</ele><time>2026-05-03T08:34:21.891Z</time></trkpt><trkpt lat="42.2872714" lon="13.7003747"><ele>790.8</ele><time>2026-05-03T08:34:23.891Z</time></trkpt><trkpt lat="42.287223" lon="13.7004888"><ele>788.5999999999999</ele><time>2026-05-03T08:34:24.891Z</time></trkpt><trkpt lat="42.287178" lon="13.7006126"><ele>786.4000000000001</ele><time>2026-05-03T08:34:25.892Z</time></trkpt><trkpt lat="42.2871433" lon="13.700753"><ele>784.2</ele><time>2026-05-03T08:34:26.891Z</time></trkpt><trkpt lat="42.2871253" lon="13.7008879"><ele>782.0</ele><time>2026-05-03T08:34:27.891Z</time></trkpt><trkpt lat="42.2871286" lon="13.70103"><ele>782.25</ele><time>2026-05-03T08:34:28.891Z</time></trkpt><trkpt lat="42.2871362" lon="13.7011909"><ele>782.5</ele><time>2026-05-03T08:34:29.891Z</time></trkpt><trkpt lat="42.2871275" lon="13.7013565"><ele>782.75</ele><time>2026-05-03T08:34:30.891Z</time></trkpt><trkpt lat="42.2871131" lon="13.7015176"><ele>783.0</ele><time>2026-05-03T08:34:31.892Z</time></trkpt><trkpt lat="42.287084" lon="13.7016736"><ele>783.0</ele><time>2026-05-03T08:34:32.892Z</time></trkpt><trkpt lat="42.2870333" lon="13.7018286"><ele>783.0</ele><time>2026-05-03T08:34:33.891Z</time></trkpt><trkpt lat="42.2869602" lon="13.7020109"><ele>783.0</ele><time>2026-05-03T08:34:34.891Z</time></trkpt><trkpt lat="42.2868773" lon="13.7021981"><ele>783.0</ele><time>2026-05-03T08:34:35.891Z</time></trkpt><trkpt lat="42.2868124" lon="13.7023783"><ele>782.6666666666667</ele><time>2026-05-03T08:34:36.892Z</time></trkpt><trkpt lat="42.2867523" lon="13.702565"><ele>782.3333333333334</ele><time>2026-05-03T08:34:37.892Z</time></trkpt><trkpt lat="42.286684" lon="13.7027565"><ele>782.0</ele><time>2026-05-03T08:34:38.891Z</time></trkpt><trkpt lat="42.2866022" lon="13.7029374"><ele>783.0</ele><time>2026-05-03T08:34:39.891Z</time></trkpt><trkpt lat="42.2865252" lon="13.7031165"><ele>784.0</ele><time>2026-05-03T08:34:40.891Z</time></trkpt><trkpt lat="42.2864592" lon="13.7032999"><ele>785.0</ele><time>2026-05-03T08:34:41.891Z</time></trkpt><trkpt lat="42.2864058" lon="13.7034685"><ele>786.0</ele><time>2026-05-03T08:34:42.891Z</time></trkpt><trkpt lat="42.2863674" lon="13.7036055"><ele>784.0</ele><time>2026-05-03T08:34:43.891Z</time></trkpt><trkpt lat="42.2863295" lon="13.7037203"><ele>782.0</ele><time>2026-05-03T08:34:44.891Z</time></trkpt><trkpt lat="42.2862915" lon="13.7037989"><ele>780.0</ele><time>2026-05-03T08:34:45.891Z</time></trkpt><trkpt lat="42.2861864" lon="13.7038733"><ele>778.0</ele><time>2026-05-03T08:34:47.891Z</time></trkpt><trkpt lat="42.2861106" lon="13.7038639"><ele>776.0</ele><time>2026-05-03T08:34:48.891Z</time></trkpt><trkpt lat="42.2860062" lon="13.7038346"><ele>776.0</ele><time>2026-05-03T08:34:49.892Z</time></trkpt><trkpt lat="42.2858985" lon="13.7038103"><ele>776.0</ele><time>2026-05-03T08:34:50.891Z</time></trkpt><trkpt lat="42.2857982" lon="13.7037955"><ele>776.0</ele><time>2026-05-03T08:34:51.891Z</time></trkpt><trkpt lat="42.2857096" lon="13.7037935"><ele>776.0</ele><time>2026-05-03T08:34:52.892Z</time></trkpt><trkpt lat="42.2856276" lon="13.7038004"><ele>776.0</ele><time>2026-05-03T08:34:53.892Z</time></trkpt><trkpt lat="42.2855555" lon="13.7038449"><ele>781.0</ele><time>2026-05-03T08:34:54.892Z</time></trkpt><trkpt lat="42.2854889" lon="13.7039166"><ele>786.0</ele><time>2026-05-03T08:34:55.892Z</time></trkpt><trkpt lat="42.2854159" lon="13.7040369"><ele>791.0</ele><time>2026-05-03T08:34:56.892Z</time></trkpt><trkpt lat="42.2853222" lon="13.704179"><ele>796.0</ele><time>2026-05-03T08:34:57.891Z</time></trkpt><trkpt lat="42.2852475" lon="13.7043099"><ele>794.5</ele><time>2026-05-03T08:34:58.892Z</time></trkpt><trkpt lat="42.2851916" lon="13.7044457"><ele>793.0</ele><time>2026-05-03T08:34:59.891Z</time></trkpt><trkpt lat="42.2851414" lon="13.7045812"><ele>791.5</ele><time>2026-05-03T08:35:00.892Z</time></trkpt><trkpt lat="42.2850972" lon="13.7047468"><ele>790.0</ele><time>2026-05-03T08:35:01.891Z</time></trkpt><trkpt lat="42.2850566" lon="13.7049186"><ele>790.0</ele><time>2026-05-03T08:35:02.891Z</time></trkpt><trkpt lat="42.2850227" lon="13.7050877"><ele>790.0</ele><time>2026-05-03T08:35:03.891Z</time></trkpt><trkpt lat="42.2849777" lon="13.7052588"><ele>790.0</ele><time>2026-05-03T08:35:04.892Z</time></trkpt><trkpt lat="42.2849213" lon="13.7054117"><ele>790.0</ele><time>2026-05-03T08:35:05.891Z</time></trkpt><trkpt lat="42.2848507" lon="13.7055998"><ele>788.75</ele><time>2026-05-03T08:35:06.892Z</time></trkpt><trkpt lat="42.2848033" lon="13.7057613"><ele>787.5</ele><time>2026-05-03T08:35:07.891Z</time></trkpt><trkpt lat="42.2847616" lon="13.7059286"><ele>786.25</ele><time>2026-05-03T08:35:08.891Z</time></trkpt><trkpt lat="42.2847238" lon="13.706091"><ele>785.0</ele><time>2026-05-03T08:35:09.891Z</time></trkpt><trkpt lat="42.2846766" lon="13.7062541"><ele>791.0</ele><time>2026-05-03T08:35:10.891Z</time></trkpt><trkpt lat="42.2846018" lon="13.7064044"><ele>797.0</ele><time>2026-05-03T08:35:11.891Z</time></trkpt><trkpt lat="42.2845217" lon="13.7065577"><ele>803.0</ele><time>2026-05-03T08:35:12.892Z</time></trkpt><trkpt lat="42.2844307" lon="13.7066983"><ele>809.0</ele><time>2026-05-03T08:35:13.891Z</time></trkpt><trkpt lat="42.2843422" lon="13.7068279"><ele>808.0</ele><time>2026-05-03T08:35:14.891Z</time></trkpt><trkpt lat="42.2842382" lon="13.7069486"><ele>807.0</ele><time>2026-05-03T08:35:15.892Z</time></trkpt><trkpt lat="42.2841319" lon="13.7070823"><ele>806.0</ele><time>2026-05-03T08:35:16.892Z</time></trkpt><trkpt lat="42.2840184" lon="13.707217"><ele>805.0</ele><time>2026-05-03T08:35:17.891Z</time></trkpt><trkpt lat="42.2839049" lon="13.7073631"><ele>808.25</ele><time>2026-05-03T08:35:18.892Z</time></trkpt><trkpt lat="42.2838225" lon="13.707493"><ele>811.5</ele><time>2026-05-03T08:35:19.891Z</time></trkpt><trkpt lat="42.2837273" lon="13.7076613"><ele>814.75</ele><time>2026-05-03T08:35:20.891Z</time></trkpt><trkpt lat="42.2836422" lon="13.7078308"><ele>818.0</ele><time>2026-05-03T08:35:21.891Z</time></trkpt><trkpt lat="42.2835539" lon="13.7079982"><ele>818.0</ele><time>2026-05-03T08:35:22.891Z</time></trkpt><trkpt lat="42.2834616" lon="13.7081381"><ele>818.0</ele><time>2026-05-03T08:35:23.892Z</time></trkpt><trkpt lat="42.2833566" lon="13.7082861"><ele>818.0</ele><time>2026-05-03T08:35:24.892Z</time></trkpt><trkpt lat="42.2832578" lon="13.708418"><ele>818.0</ele><time>2026-05-03T08:35:25.891Z</time></trkpt><trkpt lat="42.2831512" lon="13.708548"><ele>818.5999999999999</ele><time>2026-05-03T08:35:26.891Z</time></trkpt><trkpt lat="42.2830545" lon="13.7086653"><ele>819.1999999999999</ele><time>2026-05-03T08:35:27.891Z</time></trkpt><trkpt lat="42.2829723" lon="13.7087451"><ele>819.8</ele><time>2026-05-03T08:35:28.891Z</time></trkpt><trkpt lat="42.2828824" lon="13.708829"><ele>820.4</ele><time>2026-05-03T08:35:29.891Z</time></trkpt><trkpt lat="42.2827833" lon="13.7088246"><ele>821.0</ele><time>2026-05-03T08:35:30.891Z</time></trkpt><trkpt lat="42.2826756" lon="13.7088949"><ele>821.0</ele><time>2026-05-03T08:35:31.893Z</time></trkpt><trkpt lat="42.2825568" lon="13.7089815"><ele>821.0</ele><time>2026-05-03T08:35:32.892Z</time></trkpt><trkpt lat="42.2824337" lon="13.709064"><ele>821.0</ele><time>2026-05-03T08:35:33.892Z</time></trkpt><trkpt lat="42.2823134" lon="13.7091502"><ele>821.0</ele><time>2026-05-03T08:35:34.892Z</time></trkpt><trkpt lat="42.2821823" lon="13.7092511"><ele>821.25</ele><time>2026-05-03T08:35:35.891Z</time></trkpt><trkpt lat="42.282053" lon="13.7093322"><ele>821.5</ele><time>2026-05-03T08:35:36.892Z</time></trkpt><trkpt lat="42.2819428" lon="13.7094125"><ele>821.75</ele><time>2026-05-03T08:35:37.892Z</time></trkpt><trkpt lat="42.2818303" lon="13.7094856"><ele>822.0</ele><time>2026-05-03T08:35:38.892Z</time></trkpt><trkpt lat="42.2817149" lon="13.7095421"><ele>822.0</ele><time>2026-05-03T08:35:39.891Z</time></trkpt><trkpt lat="42.2816067" lon="13.7096063"><ele>822.0</ele><time>2026-05-03T08:35:40.891Z</time></trkpt><trkpt lat="42.2815086" lon="13.7096952"><ele>822.0</ele><time>2026-05-03T08:35:41.891Z</time></trkpt><trkpt lat="42.2814048" lon="13.7097957"><ele>822.0</ele><time>2026-05-03T08:35:42.891Z</time></trkpt><trkpt lat="42.2812858" lon="13.7098699"><ele>827.25</ele><time>2026-05-03T08:35:43.891Z</time></trkpt><trkpt lat="42.2811721" lon="13.7099116"><ele>832.5</ele><time>2026-05-03T08:35:44.892Z</time></trkpt><trkpt lat="42.2810619" lon="13.7099489"><ele>837.75</ele><time>2026-05-03T08:35:45.891Z</time></trkpt><trkpt lat="42.2809497" lon="13.7099916"><ele>843.0</ele><time>2026-05-03T08:35:46.891Z</time></trkpt><trkpt lat="42.2808449" lon="13.710043"><ele>843.0</ele><time>2026-05-03T08:35:47.891Z</time></trkpt><trkpt lat="42.2807523" lon="13.7100826"><ele>843.0</ele><time>2026-05-03T08:35:48.891Z</time></trkpt><trkpt lat="42.2806578" lon="13.7101049"><ele>843.0</ele><time>2026-05-03T08:35:49.891Z</time></trkpt><trkpt lat="42.2805545" lon="13.7101183"><ele>843.0</ele><time>2026-05-03T08:35:50.891Z</time></trkpt><trkpt lat="42.2804452" lon="13.71013"><ele>843.0</ele><time>2026-05-03T08:35:51.891Z</time></trkpt><trkpt lat="42.280337" lon="13.7101284"><ele>845.2</ele><time>2026-05-03T08:35:52.891Z</time></trkpt><trkpt lat="42.2802308" lon="13.7101209"><ele>847.4</ele><time>2026-05-03T08:35:53.892Z</time></trkpt><trkpt lat="42.2801228" lon="13.7101409"><ele>849.6000000000001</ele><time>2026-05-03T08:35:54.891Z</time></trkpt><trkpt lat="42.2800165" lon="13.7101803"><ele>851.8000000000001</ele><time>2026-05-03T08:35:55.891Z</time></trkpt><trkpt lat="42.2799076" lon="13.7102013"><ele>854.0</ele><time>2026-05-03T08:35:56.892Z</time></trkpt><trkpt lat="42.279794" lon="13.7102097"><ele>855.75</ele><time>2026-05-03T08:35:57.893Z</time></trkpt><trkpt lat="42.2796783" lon="13.710221"><ele>857.5</ele><time>2026-05-03T08:35:58.891Z</time></trkpt><trkpt lat="42.2795532" lon="13.7102033"><ele>859.25</ele><time>2026-05-03T08:35:59.892Z</time></trkpt><trkpt lat="42.2794249" lon="13.7101825"><ele>861.0</ele><time>2026-05-03T08:36:00.892Z</time></trkpt><trkpt lat="42.2793035" lon="13.7101844"><ele>861.0</ele><time>2026-05-03T08:36:01.891Z</time></trkpt><trkpt lat="42.2792051" lon="13.7101677"><ele>860.9999999999999</ele><time>2026-05-03T08:36:02.891Z</time></trkpt><trkpt lat="42.2791169" lon="13.7101172"><ele>860.9999999999999</ele><time>2026-05-03T08:36:03.891Z</time></trkpt><trkpt lat="42.2790183" lon="13.7100759"><ele>861.0</ele><time>2026-05-03T08:36:04.891Z</time></trkpt><trkpt lat="42.2788987" lon="13.7100733"><ele>861.0</ele><time>2026-05-03T08:36:05.892Z</time></trkpt><trkpt lat="42.2787519" lon="13.7101026"><ele>864.25</ele><time>2026-05-03T08:36:06.891Z</time></trkpt><trkpt lat="42.2786059" lon="13.7101344"><ele>867.5</ele><time>2026-05-03T08:36:07.891Z</time></trkpt><trkpt lat="42.2784749" lon="13.7101499"><ele>870.75</ele><time>2026-05-03T08:36:08.891Z</time></trkpt><trkpt lat="42.2783527" lon="13.7101551"><ele>874.0</ele><time>2026-05-03T08:36:09.892Z</time></trkpt><trkpt lat="42.278231" lon="13.710195"><ele>875.5</ele><time>2026-05-03T08:36:10.891Z</time></trkpt><trkpt lat="42.2781071" lon="13.7102475"><ele>877.0</ele><time>2026-05-03T08:36:11.892Z</time></trkpt><trkpt lat="42.2779993" lon="13.7102709"><ele>878.5</ele><time>2026-05-03T08:36:12.892Z</time></trkpt><trkpt lat="42.2778907" lon="13.7102977"><ele>880.0</ele><time>2026-05-03T08:36:13.891Z</time></trkpt><trkpt lat="42.2777869" lon="13.7103128"><ele>880.0</ele><time>2026-05-03T08:36:14.892Z</time></trkpt><trkpt lat="42.2776857" lon="13.7103252"><ele>880.0</ele><time>2026-05-03T08:36:15.891Z</time></trkpt><trkpt lat="42.2775898" lon="13.7103377"><ele>880.0</ele><time>2026-05-03T08:36:16.891Z</time></trkpt><trkpt lat="42.2774871" lon="13.710363"><ele>880.0</ele><time>2026-05-03T08:36:17.892Z</time></trkpt><trkpt lat="42.2773983" lon="13.7104063"><ele>880.0</ele><time>2026-05-03T08:36:18.891Z</time></trkpt><trkpt lat="42.2773267" lon="13.7104439"><ele>878.75</ele><time>2026-05-03T08:36:19.892Z</time></trkpt><trkpt lat="42.2772325" lon="13.7105391"><ele>877.5</ele><time>2026-05-03T08:36:21.891Z</time></trkpt><trkpt lat="42.2771479" lon="13.7106023"><ele>876.25</ele><time>2026-05-03T08:36:43.891Z</time></trkpt><trkpt lat="42.2770372" lon="13.7106194"><ele>875.0</ele><time>2026-05-03T08:36:45.891Z</time></trkpt><trkpt lat="42.2769132" lon="13.7106618"><ele>875.0000000000001</ele><time>2026-05-03T08:36:47.891Z</time></trkpt><trkpt lat="42.2768492" lon="13.7106966"><ele>875.0</ele><time>2026-05-03T08:36:48.891Z</time></trkpt><trkpt lat="42.2767842" lon="13.7107267"><ele>875.0</ele><time>2026-05-03T08:36:49.891Z</time></trkpt><trkpt lat="42.2767104" lon="13.7107433"><ele>875.0</ele><time>2026-05-03T08:36:50.891Z</time></trkpt><trkpt lat="42.2766306" lon="13.7107336"><ele>875.0000000000001</ele><time>2026-05-03T08:36:51.892Z</time></trkpt><trkpt lat="42.2765437" lon="13.7107153"><ele>875.0</ele><time>2026-05-03T08:36:52.891Z</time></trkpt><trkpt lat="42.2764608" lon="13.7107068"><ele>873.6666666666667</ele><time>2026-05-03T08:36:53.891Z</time></trkpt><trkpt lat="42.276382" lon="13.7106829"><ele>872.3333333333334</ele><time>2026-05-03T08:36:54.891Z</time></trkpt><trkpt lat="42.2763074" lon="13.7106659"><ele>871.0</ele><time>2026-05-03T08:36:55.891Z</time></trkpt><trkpt lat="42.2762394" lon="13.7106782"><ele>869.6666666666667</ele><time>2026-05-03T08:36:56.892Z</time></trkpt><trkpt lat="42.2761765" lon="13.7107212"><ele>868.3333333333334</ele><time>2026-05-03T08:36:57.892Z</time></trkpt><trkpt lat="42.2761089" lon="13.710785"><ele>867.0</ele><time>2026-05-03T08:36:58.891Z</time></trkpt><trkpt lat="42.2760345" lon="13.7108594"><ele>867.0</ele><time>2026-05-03T08:36:59.891Z</time></trkpt><trkpt lat="42.2759474" lon="13.7109286"><ele>867.0</ele><time>2026-05-03T08:37:00.892Z</time></trkpt><trkpt lat="42.2758482" lon="13.7109691"><ele>867.0</ele><time>2026-05-03T08:37:01.891Z</time></trkpt><trkpt lat="42.275753" lon="13.7110075"><ele>867.0</ele><time>2026-05-03T08:37:02.892Z</time></trkpt><trkpt lat="42.2756615" lon="13.7110379"><ele>867.0</ele><time>2026-05-03T08:37:03.891Z</time></trkpt><trkpt lat="42.2755679" lon="13.7110871"><ele>868.2</ele><time>2026-05-03T08:37:04.892Z</time></trkpt><trkpt lat="42.2754733" lon="13.7111587"><ele>869.4000000000001</ele><time>2026-05-03T08:37:05.891Z</time></trkpt><trkpt lat="42.2753758" lon="13.711214"><ele>870.5999999999999</ele><time>2026-05-03T08:37:06.891Z</time></trkpt><trkpt lat="42.2752775" lon="13.7112712"><ele>871.8</ele><time>2026-05-03T08:37:07.891Z</time></trkpt><trkpt lat="42.2751797" lon="13.7113527"><ele>873.0</ele><time>2026-05-03T08:37:08.891Z</time></trkpt><trkpt lat="42.2750865" lon="13.7114455"><ele>873.0</ele><time>2026-05-03T08:37:09.891Z</time></trkpt><trkpt lat="42.2749888" lon="13.7115573"><ele>873.0</ele><time>2026-05-03T08:37:10.892Z</time></trkpt><trkpt lat="42.2748854" lon="13.7116716"><ele>873.0</ele><time>2026-05-03T08:37:11.891Z</time></trkpt><trkpt lat="42.2747941" lon="13.7117797"><ele>873.0</ele><time>2026-05-03T08:37:12.892Z</time></trkpt><trkpt lat="42.2747122" lon="13.7118652"><ele>873.2</ele><time>2026-05-03T08:37:13.891Z</time></trkpt><trkpt lat="42.2746329" lon="13.7119379"><ele>873.4</ele><time>2026-05-03T08:37:14.891Z</time></trkpt><trkpt lat="42.2745457" lon="13.7120223"><ele>873.6000000000001</ele><time>2026-05-03T08:37:15.891Z</time></trkpt><trkpt lat="42.2744569" lon="13.712102"><ele>873.8000000000001</ele><time>2026-05-03T08:37:16.892Z</time></trkpt><trkpt lat="42.2743765" lon="13.7121629"><ele>874.0</ele><time>2026-05-03T08:37:17.891Z</time></trkpt><trkpt lat="42.2743026" lon="13.7122034"><ele>874.0</ele><time>2026-05-03T08:37:18.892Z</time></trkpt><trkpt lat="42.2742159" lon="13.7121939"><ele>874.0000000000001</ele><time>2026-05-03T08:37:20.891Z</time></trkpt><trkpt lat="42.2741349" lon="13.7122044"><ele>874.0000000000001</ele><time>2026-05-03T08:37:22.891Z</time></trkpt><trkpt lat="42.2740334" lon="13.7123284"><ele>874.0</ele><time>2026-05-03T08:37:24.891Z</time></trkpt><trkpt lat="42.2739897" lon="13.7124195"><ele>874.0</ele><time>2026-05-03T08:37:25.891Z</time></trkpt><trkpt lat="42.2739545" lon="13.7124922"><ele>876.6</ele><time>2026-05-03T08:37:26.892Z</time></trkpt><trkpt lat="42.2738942" lon="13.7125491"><ele>879.2</ele><time>2026-05-03T08:37:28.891Z</time></trkpt><trkpt lat="42.2738489" lon="13.7124308"><ele>881.8000000000001</ele><time>2026-05-03T08:37:31.892Z</time></trkpt><trkpt lat="42.2738447" lon="13.7123104"><ele>884.4000000000001</ele><time>2026-05-03T08:37:32.892Z</time></trkpt><trkpt lat="42.2738282" lon="13.7121754"><ele>887.0</ele><time>2026-05-03T08:37:33.892Z</time></trkpt><trkpt lat="42.2738053" lon="13.7120363"><ele>887.0</ele><time>2026-05-03T08:37:34.891Z</time></trkpt><trkpt lat="42.2737728" lon="13.7119128"><ele>887.0</ele><time>2026-05-03T08:37:35.891Z</time></trkpt><trkpt lat="42.2737357" lon="13.7117977"><ele>887.0</ele><time>2026-05-03T08:37:36.892Z</time></trkpt><trkpt lat="42.2736951" lon="13.711673"><ele>887.0</ele><time>2026-05-03T08:37:37.891Z</time></trkpt><trkpt lat="42.2736503" lon="13.71154"><ele>887.0</ele><time>2026-05-03T08:37:38.892Z</time></trkpt><trkpt lat="42.2736098" lon="13.7114249"><ele>885.8333333333334</ele><time>2026-05-03T08:37:39.892Z</time></trkpt><trkpt lat="42.2735734" lon="13.7113195"><ele>884.6666666666667</ele><time>2026-05-03T08:37:40.891Z</time></trkpt><trkpt lat="42.2735413" lon="13.7112298"><ele>883.5</ele><time>2026-05-03T08:37:41.891Z</time></trkpt><trkpt lat="42.2734966" lon="13.7111364"><ele>882.3333333333333</ele><time>2026-05-03T08:37:42.891Z</time></trkpt><trkpt lat="42.2734454" lon="13.7110408"><ele>881.1666666666666</ele><time>2026-05-03T08:37:43.891Z</time></trkpt><trkpt lat="42.2734053" lon="13.7109386"><ele>880.0</ele><time>2026-05-03T08:37:44.892Z</time></trkpt><trkpt lat="42.2733658" lon="13.71083"><ele>880.4999999999999</ele><time>2026-05-03T08:37:45.891Z</time></trkpt><trkpt lat="42.2733172" lon="13.7107237"><ele>881.0</ele><time>2026-05-03T08:37:46.891Z</time></trkpt><trkpt lat="42.2732728" lon="13.7106309"><ele>881.5</ele><time>2026-05-03T08:37:47.891Z</time></trkpt><trkpt lat="42.2732284" lon="13.710552"><ele>882.0</ele><time>2026-05-03T08:37:48.891Z</time></trkpt><trkpt lat="42.2731792" lon="13.7104834"><ele>882.4999999999999</ele><time>2026-05-03T08:37:49.892Z</time></trkpt><trkpt lat="42.2731028" lon="13.7104021"><ele>883.0</ele><time>2026-05-03T08:37:51.892Z</time></trkpt><trkpt lat="42.2730068" lon="13.7103643"><ele>882.9999999999999</ele><time>2026-05-03T08:37:53.892Z</time></trkpt><trkpt lat="42.2728835" lon="13.7103746"><ele>883.0</ele><time>2026-05-03T08:37:55.891Z</time></trkpt><trkpt lat="42.272815" lon="13.7103805"><ele>883.0</ele><time>2026-05-03T08:37:56.892Z</time></trkpt><trkpt lat="42.2727482" lon="13.7103901"><ele>883.0</ele><time>2026-05-03T08:37:57.891Z</time></trkpt><trkpt lat="42.272669" lon="13.7104073"><ele>882.9999999999999</ele><time>2026-05-03T08:37:58.891Z</time></trkpt><trkpt lat="42.2725952" lon="13.7104134"><ele>883.0</ele><time>2026-05-03T08:37:59.891Z</time></trkpt><trkpt lat="42.2725281" lon="13.7104197"><ele>883.0</ele><time>2026-05-03T08:38:00.891Z</time></trkpt><trkpt lat="42.2724347" lon="13.7103881"><ele>883.0</ele><time>2026-05-03T08:38:02.891Z</time></trkpt><trkpt lat="42.2723821" lon="13.7102972"><ele>883.0</ele><time>2026-05-03T08:38:04.891Z</time></trkpt><trkpt lat="42.2723351" lon="13.7101536"><ele>883.0</ele><time>2026-05-03T08:38:06.891Z</time></trkpt><trkpt lat="42.2722419" lon="13.7100728"><ele>883.0</ele><time>2026-05-03T08:38:08.891Z</time></trkpt><trkpt lat="42.2721298" lon="13.7100279"><ele>882.3333333333333</ele><time>2026-05-03T08:38:10.892Z</time></trkpt><trkpt lat="42.272073" lon="13.7099852"><ele>881.6666666666666</ele><time>2026-05-03T08:38:11.891Z</time></trkpt><trkpt lat="42.2720208" lon="13.7099214"><ele>881.0</ele><time>2026-05-03T08:38:12.892Z</time></trkpt><trkpt lat="42.2719705" lon="13.7098487"><ele>880.3333333333333</ele><time>2026-05-03T08:38:13.891Z</time></trkpt><trkpt lat="42.2719151" lon="13.7097688"><ele>879.6666666666666</ele><time>2026-05-03T08:38:14.891Z</time></trkpt><trkpt lat="42.2718616" lon="13.7096836"><ele>879.0</ele><time>2026-05-03T08:38:15.891Z</time></trkpt><trkpt lat="42.2718144" lon="13.7095911"><ele>879.0</ele><time>2026-05-03T08:38:16.892Z</time></trkpt><trkpt lat="42.2717766" lon="13.7094904"><ele>879.0</ele><time>2026-05-03T08:38:17.892Z</time></trkpt><trkpt lat="42.2717507" lon="13.7093862"><ele>879.0</ele><time>2026-05-03T08:38:18.891Z</time></trkpt><trkpt lat="42.2717326" lon="13.7092888"><ele>879.0</ele><time>2026-05-03T08:38:19.891Z</time></trkpt><trkpt lat="42.2717138" lon="13.7091939"><ele>879.0</ele><time>2026-05-03T08:38:20.891Z</time></trkpt><trkpt lat="42.2716955" lon="13.7091091"><ele>879.0</ele><time>2026-05-03T08:38:21.893Z</time></trkpt><trkpt lat="42.271658" lon="13.7089539"><ele>878.8333333333334</ele><time>2026-05-03T08:38:23.891Z</time></trkpt><trkpt lat="42.2716384" lon="13.7088574"><ele>878.6666666666667</ele><time>2026-05-03T08:38:24.891Z</time></trkpt><trkpt lat="42.2716244" lon="13.7087683"><ele>878.5</ele><time>2026-05-03T08:38:25.891Z</time></trkpt><trkpt lat="42.2716094" lon="13.7086814"><ele>878.3333333333334</ele><time>2026-05-03T08:38:26.891Z</time></trkpt><trkpt lat="42.2715954" lon="13.708572"><ele>878.1666666666667</ele><time>2026-05-03T08:38:27.892Z</time></trkpt><trkpt lat="42.27159" lon="13.7084554"><ele>878.0</ele><time>2026-05-03T08:38:28.893Z</time></trkpt><trkpt lat="42.2715878" lon="13.7083295"><ele>877.5000000000001</ele><time>2026-05-03T08:38:29.891Z</time></trkpt><trkpt lat="42.2715829" lon="13.708212"><ele>877.0</ele><time>2026-05-03T08:38:30.892Z</time></trkpt><trkpt lat="42.2715793" lon="13.70809"><ele>876.5</ele><time>2026-05-03T08:38:31.891Z</time></trkpt><trkpt lat="42.2715729" lon="13.7079753"><ele>876.0</ele><time>2026-05-03T08:38:32.891Z</time></trkpt><trkpt lat="42.2715643" lon="13.7078601"><ele>875.5000000000001</ele><time>2026-05-03T08:38:33.892Z</time></trkpt><trkpt lat="42.2715493" lon="13.7077565"><ele>875.0</ele><time>2026-05-03T08:38:34.892Z</time></trkpt><trkpt lat="42.2715433" lon="13.7076475"><ele>874.1666666666667</ele><time>2026-05-03T08:38:35.891Z</time></trkpt><trkpt lat="42.2715492" lon="13.7075422"><ele>873.3333333333334</ele><time>2026-05-03T08:38:36.892Z</time></trkpt><trkpt lat="42.2715668" lon="13.7074306"><ele>872.5</ele><time>2026-05-03T08:38:37.892Z</time></trkpt><trkpt lat="42.2715879" lon="13.7073236"><ele>871.6666666666667</ele><time>2026-05-03T08:38:38.891Z</time></trkpt><trkpt lat="42.2716051" lon="13.7072218"><ele>870.8333333333334</ele><time>2026-05-03T08:38:39.891Z</time></trkpt><trkpt lat="42.271617" lon="13.7071157"><ele>870.0</ele><time>2026-05-03T08:38:40.891Z</time></trkpt><trkpt lat="42.2716227" lon="13.7070123"><ele>868.5</ele><time>2026-05-03T08:38:41.891Z</time></trkpt><trkpt lat="42.2716337" lon="13.7069006"><ele>867.0</ele><time>2026-05-03T08:38:42.892Z</time></trkpt><trkpt lat="42.2716442" lon="13.7067957"><ele>865.5</ele><time>2026-05-03T08:38:43.892Z</time></trkpt><trkpt lat="42.2716575" lon="13.7066937"><ele>864.0</ele><time>2026-05-03T08:38:44.891Z</time></trkpt><trkpt lat="42.2716699" lon="13.706592"><ele>862.5</ele><time>2026-05-03T08:38:45.892Z</time></trkpt><trkpt lat="42.2716808" lon="13.7064818"><ele>861.0</ele><time>2026-05-03T08:38:46.892Z</time></trkpt><trkpt lat="42.2716887" lon="13.7063764"><ele>861.0</ele><time>2026-05-03T08:38:47.892Z</time></trkpt><trkpt lat="42.2716947" lon="13.7062709"><ele>861.0</ele><time>2026-05-03T08:38:48.891Z</time></trkpt><trkpt lat="42.2716974" lon="13.706166"><ele>861.0</ele><time>2026-05-03T08:38:49.891Z</time></trkpt><trkpt lat="42.2716964" lon="13.7060641"><ele>861.0</ele><time>2026-05-03T08:38:50.892Z</time></trkpt><trkpt lat="42.2716988" lon="13.7059599"><ele>861.0</ele><time>2026-05-03T08:38:51.891Z</time></trkpt><trkpt lat="42.2716966" lon="13.7058593"><ele>861.0</ele><time>2026-05-03T08:38:52.891Z</time></trkpt><trkpt lat="42.2716909" lon="13.7057563"><ele>859.8333333333334</ele><time>2026-05-03T08:38:53.892Z</time></trkpt><trkpt lat="42.2716875" lon="13.7056553"><ele>858.6666666666667</ele><time>2026-05-03T08:38:54.891Z</time></trkpt><trkpt lat="42.2716719" lon="13.7055523"><ele>857.5</ele><time>2026-05-03T08:38:55.892Z</time></trkpt><trkpt lat="42.2716487" lon="13.705453"><ele>856.3333333333334</ele><time>2026-05-03T08:38:56.891Z</time></trkpt><trkpt lat="42.2716235" lon="13.7053578"><ele>855.1666666666667</ele><time>2026-05-03T08:38:57.892Z</time></trkpt><trkpt lat="42.2715963" lon="13.7052766"><ele>854.0</ele><time>2026-05-03T08:38:58.892Z</time></trkpt><trkpt lat="42.2715456" lon="13.7051658"><ele>853.1666666666667</ele><time>2026-05-03T08:39:00.891Z</time></trkpt><trkpt lat="42.2714692" lon="13.7051275"><ele>852.3333333333334</ele><time>2026-05-03T08:39:02.892Z</time></trkpt><trkpt lat="42.2714101" lon="13.7050792"><ele>851.5</ele><time>2026-05-03T08:39:04.892Z</time></trkpt><trkpt lat="42.2713406" lon="13.7049848"><ele>850.6666666666667</ele><time>2026-05-03T08:39:06.891Z</time></trkpt><trkpt lat="42.2712367" lon="13.7049222"><ele>849.8333333333334</ele><time>2026-05-03T08:39:08.892Z</time></trkpt><trkpt lat="42.2711885" lon="13.7048572"><ele>849.0</ele><time>2026-05-03T08:39:09.891Z</time></trkpt><trkpt lat="42.2711423" lon="13.7047807"><ele>848.2857142857143</ele><time>2026-05-03T08:39:10.891Z</time></trkpt><trkpt lat="42.2710979" lon="13.7047156"><ele>847.5714285714286</ele><time>2026-05-03T08:39:11.891Z</time></trkpt><trkpt lat="42.2710564" lon="13.704639"><ele>846.8571428571429</ele><time>2026-05-03T08:39:12.891Z</time></trkpt><trkpt lat="42.2710172" lon="13.7045555"><ele>846.1428571428571</ele><time>2026-05-03T08:39:13.891Z</time></trkpt><trkpt lat="42.2709789" lon="13.704465"><ele>845.4285714285714</ele><time>2026-05-03T08:39:14.891Z</time></trkpt><trkpt lat="42.2709382" lon="13.7043779"><ele>844.7142857142858</ele><time>2026-05-03T08:39:15.893Z</time></trkpt><trkpt lat="42.2709031" lon="13.7042871"><ele>844.0</ele><time>2026-05-03T08:39:16.891Z</time></trkpt><trkpt lat="42.2708654" lon="13.7041931"><ele>842.6</ele><time>2026-05-03T08:39:17.891Z</time></trkpt><trkpt lat="42.2708231" lon="13.7041146"><ele>841.2</ele><time>2026-05-03T08:39:18.892Z</time></trkpt><trkpt lat="42.2707723" lon="13.7040591"><ele>839.8000000000001</ele><time>2026-05-03T08:39:19.891Z</time></trkpt><trkpt lat="42.2706543" lon="13.7040142"><ele>838.4000000000001</ele><time>2026-05-03T08:39:21.892Z</time></trkpt><trkpt lat="42.2705557" lon="13.7039577"><ele>837.0</ele><time>2026-05-03T08:39:23.891Z</time></trkpt><trkpt lat="42.2704721" lon="13.7039315"><ele>836.6</ele><time>2026-05-03T08:39:26.892Z</time></trkpt><trkpt lat="42.2704031" lon="13.7039339"><ele>836.2</ele><time>2026-05-03T08:39:28.892Z</time></trkpt><trkpt lat="42.2702997" lon="13.7039344"><ele>835.8</ele><time>2026-05-03T08:39:30.892Z</time></trkpt><trkpt lat="42.2701942" lon="13.7039359"><ele>835.4</ele><time>2026-05-03T08:39:32.892Z</time></trkpt><trkpt lat="42.2701023" lon="13.7039349"><ele>835.0</ele><time>2026-05-03T08:39:34.891Z</time></trkpt><trkpt lat="42.2700237" lon="13.7038906"><ele>835.0</ele><time>2026-05-03T08:39:36.891Z</time></trkpt><trkpt lat="42.269974" lon="13.7037945"><ele>835.0</ele><time>2026-05-03T08:39:38.891Z</time></trkpt><trkpt lat="42.2698889" lon="13.7036998"><ele>835.0</ele><time>2026-05-03T08:39:40.891Z</time></trkpt><trkpt lat="42.269782" lon="13.7036314"><ele>835.0</ele><time>2026-05-03T08:39:42.893Z</time></trkpt><trkpt lat="42.2696791" lon="13.7035799"><ele>835.0</ele><time>2026-05-03T08:39:44.891Z</time></trkpt><trkpt lat="42.269582" lon="13.7035361"><ele>833.0</ele><time>2026-05-03T08:39:46.891Z</time></trkpt><trkpt lat="42.2694776" lon="13.7034983"><ele>831.0</ele><time>2026-05-03T08:39:48.891Z</time></trkpt><trkpt lat="42.269356" lon="13.7034666"><ele>829.0</ele><time>2026-05-03T08:39:50.892Z</time></trkpt><trkpt lat="42.2692918" lon="13.7034491"><ele>827.0</ele><time>2026-05-03T08:39:51.891Z</time></trkpt><trkpt lat="42.2691837" lon="13.7033862"><ele>825.0</ele><time>2026-05-03T08:39:53.892Z</time></trkpt><trkpt lat="42.2690847" lon="13.7033029"><ele>825.0</ele><time>2026-05-03T08:39:55.891Z</time></trkpt><trkpt lat="42.2689712" lon="13.7032269"><ele>825.0</ele><time>2026-05-03T08:39:57.891Z</time></trkpt><trkpt lat="42.268906" lon="13.7031872"><ele>825.0</ele><time>2026-05-03T08:39:58.891Z</time></trkpt><trkpt lat="42.2688425" lon="13.7031581"><ele>825.0</ele><time>2026-05-03T08:39:59.891Z</time></trkpt><trkpt lat="42.268777" lon="13.7031443"><ele>825.0</ele><time>2026-05-03T08:40:00.891Z</time></trkpt><trkpt lat="42.2686868" lon="13.7031359"><ele>825.0</ele><time>2026-05-03T08:40:02.892Z</time></trkpt><trkpt lat="42.26862" lon="13.7031317"><ele>823.6666666666666</ele><time>2026-05-03T08:40:04.891Z</time></trkpt><trkpt lat="42.2685386" lon="13.7031279"><ele>822.3333333333333</ele><time>2026-05-03T08:40:06.891Z</time></trkpt><trkpt lat="42.2684705" lon="13.7031138"><ele>821.0</ele><time>2026-05-03T08:40:08.891Z</time></trkpt><trkpt lat="42.2684101" lon="13.7030702"><ele>819.6666666666666</ele><time>2026-05-03T08:40:10.891Z</time></trkpt><trkpt lat="42.2683281" lon="13.7030064"><ele>818.3333333333333</ele><time>2026-05-03T08:40:12.891Z</time></trkpt><trkpt lat="42.2682248" lon="13.7029376"><ele>817.0</ele><time>2026-05-03T08:40:14.891Z</time></trkpt><trkpt lat="42.2681268" lon="13.7028903"><ele>816.0</ele><time>2026-05-03T08:40:16.891Z</time></trkpt><trkpt lat="42.2680157" lon="13.7028646"><ele>815.0</ele><time>2026-05-03T08:40:18.892Z</time></trkpt><trkpt lat="42.2679538" lon="13.7028281"><ele>814.0</ele><time>2026-05-03T08:40:19.892Z</time></trkpt><trkpt lat="42.2678578" lon="13.7027646"><ele>813.0</ele><time>2026-05-03T08:40:21.892Z</time></trkpt><trkpt lat="42.2677395" lon="13.7028059"><ele>812.0</ele><time>2026-05-03T08:40:23.892Z</time></trkpt><trkpt lat="42.2676717" lon="13.7028346"><ele>812.0</ele><time>2026-05-03T08:40:24.892Z</time></trkpt><trkpt lat="42.2676028" lon="13.7028584"><ele>812.0</ele><time>2026-05-03T08:40:25.891Z</time></trkpt><trkpt lat="42.2675396" lon="13.7028727"><ele>812.0</ele><time>2026-05-03T08:40:26.892Z</time></trkpt><trkpt lat="42.2674283" lon="13.7028814"><ele>812.0</ele><time>2026-05-03T08:40:28.892Z</time></trkpt><trkpt lat="42.2673092" lon="13.702866"><ele>812.0</ele><time>2026-05-03T08:40:30.892Z</time></trkpt><trkpt lat="42.2672104" lon="13.7028347"><ele>812.0</ele><time>2026-05-03T08:40:32.891Z</time></trkpt><trkpt lat="42.2670869" lon="13.7028393"><ele>812.0</ele><time>2026-05-03T08:40:34.891Z</time></trkpt><trkpt lat="42.267025" lon="13.7028556"><ele>812.0</ele><time>2026-05-03T08:40:35.891Z</time></trkpt><trkpt lat="42.2669559" lon="13.702858"><ele>812.0</ele><time>2026-05-03T08:40:36.891Z</time></trkpt><trkpt lat="42.2668416" lon="13.7028801"><ele>812.0</ele><time>2026-05-03T08:40:38.891Z</time></trkpt><trkpt lat="42.2667468" lon="13.7029104"><ele>812.0</ele><time>2026-05-03T08:40:40.89Z</time></trkpt><trkpt lat="42.2666579" lon="13.7029029"><ele>812.0</ele><time>2026-05-03T08:40:42.89Z</time></trkpt><trkpt lat="42.2665647" lon="13.7029079"><ele>812.0</ele><time>2026-05-03T08:40:44.891Z</time></trkpt><trkpt lat="42.2664779" lon="13.7029465"><ele>812.0</ele><time>2026-05-03T08:40:46.891Z</time></trkpt><trkpt lat="42.2663923" lon="13.7030133"><ele>812.0</ele><time>2026-05-03T08:40:48.889Z</time></trkpt><trkpt lat="42.2662881" lon="13.7030846"><ele>811.0000000000001</ele><time>2026-05-03T08:40:50.89Z</time></trkpt><trkpt lat="42.2662299" lon="13.7031256"><ele>810.0</ele><time>2026-05-03T08:40:51.892Z</time></trkpt><trkpt lat="42.2661709" lon="13.7031748"><ele>809.0</ele><time>2026-05-03T08:40:52.891Z</time></trkpt><trkpt lat="42.2661031" lon="13.703225"><ele>808.0</ele><time>2026-05-03T08:40:53.89Z</time></trkpt><trkpt lat="42.2660321" lon="13.7032817"><ele>807.0000000000001</ele><time>2026-05-03T08:40:54.89Z</time></trkpt><trkpt lat="42.2659628" lon="13.7033369"><ele>806.0</ele><time>2026-05-03T08:40:55.891Z</time></trkpt><trkpt lat="42.2658841" lon="13.703381"><ele>806.0</ele><time>2026-05-03T08:40:56.89Z</time></trkpt><trkpt lat="42.2657991" lon="13.7034176"><ele>806.0</ele><time>2026-05-03T08:40:57.89Z</time></trkpt><trkpt lat="42.2657021" lon="13.7034424"><ele>806.0</ele><time>2026-05-03T08:40:58.891Z</time></trkpt><trkpt lat="42.2655872" lon="13.7034374"><ele>806.0</ele><time>2026-05-03T08:40:59.89Z</time></trkpt><trkpt lat="42.2654585" lon="13.7034391"><ele>806.0</ele><time>2026-05-03T08:41:00.892Z</time></trkpt><trkpt lat="42.2653239" lon="13.7034419"><ele>805.75</ele><time>2026-05-03T08:41:01.89Z</time></trkpt><trkpt lat="42.2651846" lon="13.7034507"><ele>805.5</ele><time>2026-05-03T08:41:02.89Z</time></trkpt><trkpt lat="42.2650488" lon="13.7034617"><ele>805.25</ele><time>2026-05-03T08:41:03.89Z</time></trkpt><trkpt lat="42.2649258" lon="13.7034661"><ele>805.0</ele><time>2026-05-03T08:41:04.89Z</time></trkpt><trkpt lat="42.2648046" lon="13.7034567"><ele>805.5</ele><time>2026-05-03T08:41:05.891Z</time></trkpt><trkpt lat="42.2646811" lon="13.7034302"><ele>806.0</ele><time>2026-05-03T08:41:06.89Z</time></trkpt><trkpt lat="42.2645619" lon="13.703385"><ele>806.5</ele><time>2026-05-03T08:41:07.89Z</time></trkpt><trkpt lat="42.2644501" lon="13.7033378"><ele>807.0</ele><time>2026-05-03T08:41:08.89Z</time></trkpt><trkpt lat="42.2643521" lon="13.7032893"><ele>807.0</ele><time>2026-05-03T08:41:09.89Z</time></trkpt><trkpt lat="42.2642703" lon="13.7032377"><ele>807.0</ele><time>2026-05-03T08:41:10.891Z</time></trkpt><trkpt lat="42.2641967" lon="13.7031867"><ele>807.0</ele><time>2026-05-03T08:41:11.89Z</time></trkpt><trkpt lat="42.2641237" lon="13.7031256"><ele>807.0</ele><time>2026-05-03T08:41:12.891Z</time></trkpt><trkpt lat="42.2640564" lon="13.7030511"><ele>807.0</ele><time>2026-05-03T08:41:13.892Z</time></trkpt><trkpt lat="42.2640012" lon="13.7029688"><ele>807.0</ele><time>2026-05-03T08:41:14.89Z</time></trkpt><trkpt lat="42.2639522" lon="13.7028673"><ele>806.6666666666666</ele><time>2026-05-03T08:41:15.89Z</time></trkpt><trkpt lat="42.2639047" lon="13.7027567"><ele>806.3333333333333</ele><time>2026-05-03T08:41:16.89Z</time></trkpt><trkpt lat="42.2638611" lon="13.7026559"><ele>806.0</ele><time>2026-05-03T08:41:17.89Z</time></trkpt><trkpt lat="42.2638229" lon="13.7025565"><ele>805.6666666666666</ele><time>2026-05-03T08:41:18.89Z</time></trkpt><trkpt lat="42.2637876" lon="13.7024515"><ele>805.3333333333333</ele><time>2026-05-03T08:41:19.89Z</time></trkpt><trkpt lat="42.2637527" lon="13.7023438"><ele>805.0</ele><time>2026-05-03T08:41:20.891Z</time></trkpt><trkpt lat="42.2637167" lon="13.7022334"><ele>805.0</ele><time>2026-05-03T08:41:21.89Z</time></trkpt><trkpt lat="42.2636802" lon="13.7021337"><ele>805.0</ele><time>2026-05-03T08:41:22.891Z</time></trkpt><trkpt lat="42.2636231" lon="13.7020359"><ele>805.0</ele><time>2026-05-03T08:41:23.891Z</time></trkpt><trkpt lat="42.2635586" lon="13.7019391"><ele>805.0</ele><time>2026-05-03T08:41:24.891Z</time></trkpt><trkpt lat="42.2635002" lon="13.7018353"><ele>805.0</ele><time>2026-05-03T08:41:25.891Z</time></trkpt><trkpt lat="42.2634411" lon="13.7017392"><ele>804.6666666666666</ele><time>2026-05-03T08:41:26.891Z</time></trkpt><trkpt lat="42.2633792" lon="13.7016768"><ele>804.3333333333333</ele><time>2026-05-03T08:41:27.89Z</time></trkpt><trkpt lat="42.2633137" lon="13.7016526"><ele>804.0</ele><time>2026-05-03T08:41:28.89Z</time></trkpt><trkpt lat="42.2632318" lon="13.701652"><ele>803.6666666666667</ele><time>2026-05-03T08:41:29.89Z</time></trkpt><trkpt lat="42.2631502" lon="13.7016608"><ele>803.3333333333334</ele><time>2026-05-03T08:41:30.891Z</time></trkpt><trkpt lat="42.2630623" lon="13.7016663"><ele>803.0</ele><time>2026-05-03T08:41:31.89Z</time></trkpt><trkpt lat="42.2629776" lon="13.7016809"><ele>804.0</ele><time>2026-05-03T08:41:32.89Z</time></trkpt><trkpt lat="42.2628936" lon="13.7017263"><ele>805.0</ele><time>2026-05-03T08:41:33.89Z</time></trkpt><trkpt lat="42.262807" lon="13.7017927"><ele>806.0</ele><time>2026-05-03T08:41:34.89Z</time></trkpt><trkpt lat="42.2627193" lon="13.7018674"><ele>807.0</ele><time>2026-05-03T08:41:35.892Z</time></trkpt><trkpt lat="42.2626277" lon="13.7019491"><ele>808.0</ele><time>2026-05-03T08:41:36.89Z</time></trkpt><trkpt lat="42.2625336" lon="13.7020208"><ele>808.0</ele><time>2026-05-03T08:41:37.89Z</time></trkpt><trkpt lat="42.2624348" lon="13.7020911"><ele>808.0</ele><time>2026-05-03T08:41:38.892Z</time></trkpt><trkpt lat="42.2623356" lon="13.7021463"><ele>808.0</ele><time>2026-05-03T08:41:39.891Z</time></trkpt><trkpt lat="42.2622339" lon="13.7022074"><ele>808.0</ele><time>2026-05-03T08:41:40.89Z</time></trkpt><trkpt lat="42.2621363" lon="13.7022772"><ele>808.0</ele><time>2026-05-03T08:41:41.891Z</time></trkpt><trkpt lat="42.2620418" lon="13.7023633"><ele>814.25</ele><time>2026-05-03T08:41:42.891Z</time></trkpt><trkpt lat="42.2619506" lon="13.7024496"><ele>820.5</ele><time>2026-05-03T08:41:43.89Z</time></trkpt><trkpt lat="42.2618581" lon="13.7025487"><ele>826.75</ele><time>2026-05-03T08:41:44.89Z</time></trkpt><trkpt lat="42.2617662" lon="13.7026464"><ele>833.0</ele><time>2026-05-03T08:41:45.891Z</time></trkpt><trkpt lat="42.2616738" lon="13.7027403"><ele>832.4</ele><time>2026-05-03T08:41:46.89Z</time></trkpt><trkpt lat="42.2615747" lon="13.7028187"><ele>831.8</ele><time>2026-05-03T08:41:47.891Z</time></trkpt><trkpt lat="42.2614777" lon="13.7028945"><ele>831.2</ele><time>2026-05-03T08:41:48.891Z</time></trkpt><trkpt lat="42.2613762" lon="13.7029586"><ele>830.6</ele><time>2026-05-03T08:41:49.89Z</time></trkpt><trkpt lat="42.2612844" lon="13.7030199"><ele>830.0</ele><time>2026-05-03T08:41:50.89Z</time></trkpt><trkpt lat="42.2611902" lon="13.7030811"><ele>830.0</ele><time>2026-05-03T08:41:51.891Z</time></trkpt><trkpt lat="42.2610946" lon="13.7031449"><ele>830.0</ele><time>2026-05-03T08:41:52.891Z</time></trkpt><trkpt lat="42.2609982" lon="13.7032029"><ele>830.0</ele><time>2026-05-03T08:41:53.89Z</time></trkpt><trkpt lat="42.260905" lon="13.7032576"><ele>830.0</ele><time>2026-05-03T08:41:54.89Z</time></trkpt><trkpt lat="42.260803" lon="13.7033146"><ele>830.0</ele><time>2026-05-03T08:41:55.89Z</time></trkpt><trkpt lat="42.260698" lon="13.7033728"><ele>830.0</ele><time>2026-05-03T08:41:56.89Z</time></trkpt><trkpt lat="42.2605854" lon="13.7034118"><ele>830.0</ele><time>2026-05-03T08:41:57.89Z</time></trkpt><trkpt lat="42.2604727" lon="13.7034549"><ele>830.0</ele><time>2026-05-03T08:41:58.89Z</time></trkpt><trkpt lat="42.2603592" lon="13.7034841"><ele>830.0</ele><time>2026-05-03T08:41:59.89Z</time></trkpt><trkpt lat="42.2602475" lon="13.7035102"><ele>830.0000000000001</ele><time>2026-05-03T08:42:00.89Z</time></trkpt><trkpt lat="42.2601493" lon="13.7035278"><ele>830.0</ele><time>2026-05-03T08:42:01.891Z</time></trkpt><trkpt lat="42.2600646" lon="13.7035347"><ele>830.0</ele><time>2026-05-03T08:42:02.89Z</time></trkpt><trkpt lat="42.2599926" lon="13.7035236"><ele>830.0</ele><time>2026-05-03T08:42:03.89Z</time></trkpt><trkpt lat="42.259936" lon="13.7034055"><ele>830.0000000000001</ele><time>2026-05-03T08:42:05.891Z</time></trkpt><trkpt lat="42.2599173" lon="13.7033178"><ele>830.0</ele><time>2026-05-03T08:42:06.89Z</time></trkpt><trkpt lat="42.2599013" lon="13.7032209"><ele>830.0000000000001</ele><time>2026-05-03T08:42:07.89Z</time></trkpt><trkpt lat="42.2598875" lon="13.7031178"><ele>830.0</ele><time>2026-05-03T08:42:08.891Z</time></trkpt><trkpt lat="42.2598785" lon="13.703009"><ele>830.0</ele><time>2026-05-03T08:42:09.89Z</time></trkpt><trkpt lat="42.2598701" lon="13.7028945"><ele>830.0</ele><time>2026-05-03T08:42:10.89Z</time></trkpt><trkpt lat="42.2598633" lon="13.7027763"><ele>830.0000000000001</ele><time>2026-05-03T08:42:11.89Z</time></trkpt><trkpt lat="42.2598561" lon="13.7026522"><ele>830.0</ele><time>2026-05-03T08:42:12.89Z</time></trkpt><trkpt lat="42.2598479" lon="13.7025236"><ele>831.4</ele><time>2026-05-03T08:42:13.891Z</time></trkpt><trkpt lat="42.2598453" lon="13.7023958"><ele>832.8</ele><time>2026-05-03T08:42:14.89Z</time></trkpt><trkpt lat="42.2598528" lon="13.7022631"><ele>834.2</ele><time>2026-05-03T08:42:15.891Z</time></trkpt><trkpt lat="42.25987" lon="13.7021277"><ele>835.6</ele><time>2026-05-03T08:42:16.89Z</time></trkpt><trkpt lat="42.2598859" lon="13.7019923"><ele>837.0</ele><time>2026-05-03T08:42:17.891Z</time></trkpt><trkpt lat="42.2598964" lon="13.7018626"><ele>835.8</ele><time>2026-05-03T08:42:18.89Z</time></trkpt><trkpt lat="42.259898" lon="13.7017323"><ele>834.6</ele><time>2026-05-03T08:42:19.891Z</time></trkpt><trkpt lat="42.2598782" lon="13.7016068"><ele>833.4</ele><time>2026-05-03T08:42:20.89Z</time></trkpt><trkpt lat="42.2598393" lon="13.701497"><ele>832.1999999999999</ele><time>2026-05-03T08:42:21.89Z</time></trkpt><trkpt lat="42.2597811" lon="13.701409"><ele>831.0</ele><time>2026-05-03T08:42:22.891Z</time></trkpt><trkpt lat="42.259702" lon="13.7013402"><ele>831.0</ele><time>2026-05-03T08:42:23.89Z</time></trkpt><trkpt lat="42.2596115" lon="13.7012805"><ele>831.0</ele><time>2026-05-03T08:42:24.89Z</time></trkpt><trkpt lat="42.2595159" lon="13.7012219"><ele>831.0</ele><time>2026-05-03T08:42:25.891Z</time></trkpt><trkpt lat="42.2594177" lon="13.7011611"><ele>831.0</ele><time>2026-05-03T08:42:26.892Z</time></trkpt><trkpt lat="42.2593123" lon="13.7010924"><ele>831.0</ele><time>2026-05-03T08:42:27.89Z</time></trkpt><trkpt lat="42.2592024" lon="13.7010206"><ele>836.0</ele><time>2026-05-03T08:42:28.89Z</time></trkpt><trkpt lat="42.2590831" lon="13.7009554"><ele>841.0</ele><time>2026-05-03T08:42:29.89Z</time></trkpt><trkpt lat="42.258961" lon="13.7008973"><ele>846.0</ele><time>2026-05-03T08:42:30.891Z</time></trkpt><trkpt lat="42.2588392" lon="13.7008352"><ele>851.0</ele><time>2026-05-03T08:42:31.89Z</time></trkpt><trkpt lat="42.2587183" lon="13.7007805"><ele>851.0</ele><time>2026-05-03T08:42:32.89Z</time></trkpt><trkpt lat="42.2586041" lon="13.7007271"><ele>851.0</ele><time>2026-05-03T08:42:33.89Z</time></trkpt><trkpt lat="42.2584985" lon="13.7006782"><ele>851.0</ele><time>2026-05-03T08:42:34.891Z</time></trkpt><trkpt lat="42.2583999" lon="13.7006387"><ele>851.0</ele><time>2026-05-03T08:42:35.891Z</time></trkpt><trkpt lat="42.2583098" lon="13.7006016"><ele>851.0</ele><time>2026-05-03T08:42:36.89Z</time></trkpt><trkpt lat="42.2582098" lon="13.7005712"><ele>852.5999999999999</ele><time>2026-05-03T08:42:37.891Z</time></trkpt><trkpt lat="42.258096" lon="13.7005493"><ele>854.2</ele><time>2026-05-03T08:42:38.89Z</time></trkpt><trkpt lat="42.257986" lon="13.7005313"><ele>855.8000000000001</ele><time>2026-05-03T08:42:39.891Z</time></trkpt><trkpt lat="42.2578753" lon="13.7005291"><ele>857.4000000000001</ele><time>2026-05-03T08:42:40.89Z</time></trkpt><trkpt lat="42.2577649" lon="13.7005391"><ele>859.0</ele><time>2026-05-03T08:42:41.89Z</time></trkpt><trkpt lat="42.2576598" lon="13.7005697"><ele>859.0</ele><time>2026-05-03T08:42:42.89Z</time></trkpt><trkpt lat="42.2575568" lon="13.700623"><ele>859.0000000000001</ele><time>2026-05-03T08:42:43.89Z</time></trkpt><trkpt lat="42.257455" lon="13.7006843"><ele>859.0000000000001</ele><time>2026-05-03T08:42:44.891Z</time></trkpt><trkpt lat="42.2573566" lon="13.7007431"><ele>859.0</ele><time>2026-05-03T08:42:45.89Z</time></trkpt><trkpt lat="42.257276" lon="13.7007841"><ele>859.0</ele><time>2026-05-03T08:42:46.89Z</time></trkpt><trkpt lat="42.2572049" lon="13.700803"><ele>858.1666666666666</ele><time>2026-05-03T08:42:47.89Z</time></trkpt><trkpt lat="42.2571571" lon="13.7007406"><ele>857.3333333333333</ele><time>2026-05-03T08:42:49.891Z</time></trkpt><trkpt lat="42.2571412" lon="13.7005845"><ele>856.5</ele><time>2026-05-03T08:42:51.891Z</time></trkpt><trkpt lat="42.2571163" lon="13.7004892"><ele>855.6666666666667</ele><time>2026-05-03T08:42:52.89Z</time></trkpt><trkpt lat="42.2570898" lon="13.700402"><ele>854.8333333333334</ele><time>2026-05-03T08:42:53.89Z</time></trkpt><trkpt lat="42.2570694" lon="13.700317"><ele>854.0</ele><time>2026-05-03T08:42:54.89Z</time></trkpt><trkpt lat="42.2570177" lon="13.7001737"><ele>854.0</ele><time>2026-05-03T08:42:56.891Z</time></trkpt><trkpt lat="42.2569116" lon="13.7001407"><ele>854.0000000000001</ele><time>2026-05-03T08:42:58.891Z</time></trkpt><trkpt lat="42.2568419" lon="13.7001771"><ele>854.0000000000001</ele><time>2026-05-03T08:42:59.891Z</time></trkpt><trkpt lat="42.2567577" lon="13.7002203"><ele>854.0</ele><time>2026-05-03T08:43:00.891Z</time></trkpt><trkpt lat="42.2566674" lon="13.7002571"><ele>854.0</ele><time>2026-05-03T08:43:01.891Z</time></trkpt><trkpt lat="42.2565779" lon="13.7002932"><ele>853.6</ele><time>2026-05-03T08:43:02.891Z</time></trkpt><trkpt lat="42.2564905" lon="13.7003332"><ele>853.2</ele><time>2026-05-03T08:43:03.89Z</time></trkpt><trkpt lat="42.2564035" lon="13.7003837"><ele>852.8000000000001</ele><time>2026-05-03T08:43:04.89Z</time></trkpt><trkpt lat="42.2563216" lon="13.7004332"><ele>852.4000000000001</ele><time>2026-05-03T08:43:05.89Z</time></trkpt><trkpt lat="42.2562418" lon="13.7004848"><ele>852.0</ele><time>2026-05-03T08:43:06.89Z</time></trkpt><trkpt lat="42.2561531" lon="13.7005463"><ele>852.0</ele><time>2026-05-03T08:43:07.891Z</time></trkpt><trkpt lat="42.2560617" lon="13.7006141"><ele>852.0</ele><time>2026-05-03T08:43:08.89Z</time></trkpt><trkpt lat="42.2559683" lon="13.7006849"><ele>852.0</ele><time>2026-05-03T08:43:09.891Z</time></trkpt><trkpt lat="42.2558753" lon="13.7007529"><ele>852.0</ele><time>2026-05-03T08:43:10.89Z</time></trkpt><trkpt lat="42.2557799" lon="13.7008188"><ele>852.0</ele><time>2026-05-03T08:43:11.89Z</time></trkpt><trkpt lat="42.2556809" lon="13.7008853"><ele>854.25</ele><time>2026-05-03T08:43:12.891Z</time></trkpt><trkpt lat="42.255583" lon="13.7009526"><ele>856.5</ele><time>2026-05-03T08:43:13.89Z</time></trkpt><trkpt lat="42.2554846" lon="13.7010195"><ele>858.75</ele><time>2026-05-03T08:43:14.891Z</time></trkpt><trkpt lat="42.255381" lon="13.7010857"><ele>861.0</ele><time>2026-05-03T08:43:15.89Z</time></trkpt><trkpt lat="42.2552738" lon="13.7011421"><ele>861.0</ele><time>2026-05-03T08:43:16.89Z</time></trkpt><trkpt lat="42.2551673" lon="13.7011835"><ele>860.9999999999999</ele><time>2026-05-03T08:43:17.891Z</time></trkpt><trkpt lat="42.2550605" lon="13.7012183"><ele>860.9999999999999</ele><time>2026-05-03T08:43:18.89Z</time></trkpt><trkpt lat="42.2549535" lon="13.7012457"><ele>861.0</ele><time>2026-05-03T08:43:19.89Z</time></trkpt><trkpt lat="42.2548372" lon="13.7012673"><ele>861.0</ele><time>2026-05-03T08:43:20.89Z</time></trkpt><trkpt lat="42.2547258" lon="13.7012868"><ele>859.1666666666666</ele><time>2026-05-03T08:43:21.89Z</time></trkpt><trkpt lat="42.2546189" lon="13.7012965"><ele>857.3333333333333</ele><time>2026-05-03T08:43:22.891Z</time></trkpt><trkpt lat="42.2545217" lon="13.7013024"><ele>855.5</ele><time>2026-05-03T08:43:23.891Z</time></trkpt><trkpt lat="42.2544396" lon="13.7013015"><ele>853.6666666666666</ele><time>2026-05-03T08:43:24.891Z</time></trkpt><trkpt lat="42.2543608" lon="13.701297"><ele>851.8333333333333</ele><time>2026-05-03T08:43:25.89Z</time></trkpt><trkpt lat="42.2542818" lon="13.7012939"><ele>850.0</ele><time>2026-05-03T08:43:26.89Z</time></trkpt><trkpt lat="42.2541958" lon="13.7012922"><ele>849.9999999999999</ele><time>2026-05-03T08:43:27.89Z</time></trkpt><trkpt lat="42.2541092" lon="13.7012897"><ele>850.0</ele><time>2026-05-03T08:43:28.89Z</time></trkpt><trkpt lat="42.2540241" lon="13.7012891"><ele>850.0</ele><time>2026-05-03T08:43:29.89Z</time></trkpt><trkpt lat="42.2539421" lon="13.7012874"><ele>850.0</ele><time>2026-05-03T08:43:30.89Z</time></trkpt><trkpt lat="42.2538654" lon="13.7012941"><ele>849.9999999999999</ele><time>2026-05-03T08:43:31.89Z</time></trkpt><trkpt lat="42.2537969" lon="13.7013256"><ele>850.0</ele><time>2026-05-03T08:43:32.89Z</time></trkpt><trkpt lat="42.2537261" lon="13.7013689"><ele>846.0</ele><time>2026-05-03T08:43:33.891Z</time></trkpt><trkpt lat="42.2536452" lon="13.7014095"><ele>842.0</ele><time>2026-05-03T08:43:34.89Z</time></trkpt><trkpt lat="42.2535609" lon="13.7014448"><ele>838.0</ele><time>2026-05-03T08:43:35.89Z</time></trkpt><trkpt lat="42.2534733" lon="13.7014825"><ele>834.0</ele><time>2026-05-03T08:43:36.89Z</time></trkpt><trkpt lat="42.2533885" lon="13.7015368"><ele>830.0</ele><time>2026-05-03T08:43:37.89Z</time></trkpt><trkpt lat="42.253311" lon="13.7016107"><ele>830.0</ele><time>2026-05-03T08:43:38.891Z</time></trkpt><trkpt lat="42.2532373" lon="13.7016895"><ele>830.0</ele><time>2026-05-03T08:43:39.89Z</time></trkpt><trkpt lat="42.2531622" lon="13.7017629"><ele>830.0</ele><time>2026-05-03T08:43:40.89Z</time></trkpt><trkpt lat="42.2530865" lon="13.7018288"><ele>830.0</ele><time>2026-05-03T08:43:41.891Z</time></trkpt><trkpt lat="42.2530119" lon="13.7018915"><ele>830.0</ele><time>2026-05-03T08:43:42.89Z</time></trkpt><trkpt lat="42.2529372" lon="13.7019586"><ele>828.8333333333334</ele><time>2026-05-03T08:43:43.891Z</time></trkpt><trkpt lat="42.2528654" lon="13.7020264"><ele>827.6666666666667</ele><time>2026-05-03T08:43:44.891Z</time></trkpt><trkpt lat="42.2527933" lon="13.7020941"><ele>826.5</ele><time>2026-05-03T08:43:45.89Z</time></trkpt><trkpt lat="42.2527196" lon="13.7021605"><ele>825.3333333333333</ele><time>2026-05-03T08:43:46.89Z</time></trkpt><trkpt lat="42.2526489" lon="13.702226"><ele>824.1666666666666</ele><time>2026-05-03T08:43:47.89Z</time></trkpt><trkpt lat="42.2525791" lon="13.7022918"><ele>823.0</ele><time>2026-05-03T08:43:48.891Z</time></trkpt><trkpt lat="42.252506" lon="13.7023582"><ele>823.0</ele><time>2026-05-03T08:43:49.891Z</time></trkpt><trkpt lat="42.2524285" lon="13.7024308"><ele>823.0</ele><time>2026-05-03T08:43:50.891Z</time></trkpt><trkpt lat="42.252353" lon="13.7025044"><ele>823.0</ele><time>2026-05-03T08:43:51.89Z</time></trkpt><trkpt lat="42.2522754" lon="13.7025814"><ele>823.0</ele><time>2026-05-03T08:43:52.89Z</time></trkpt><trkpt lat="42.2521941" lon="13.7026551"><ele>823.0</ele><time>2026-05-03T08:43:53.89Z</time></trkpt><trkpt lat="42.2521134" lon="13.7027243"><ele>822.5999999999999</ele><time>2026-05-03T08:43:54.89Z</time></trkpt><trkpt lat="42.2520321" lon="13.7027881"><ele>822.1999999999999</ele><time>2026-05-03T08:43:55.891Z</time></trkpt><trkpt lat="42.2519473" lon="13.7028446"><ele>821.8</ele><time>2026-05-03T08:43:56.89Z</time></trkpt><trkpt lat="42.2518571" lon="13.7028941"><ele>821.4</ele><time>2026-05-03T08:43:57.89Z</time></trkpt><trkpt lat="42.2517665" lon="13.7029259"><ele>821.0</ele><time>2026-05-03T08:43:58.89Z</time></trkpt><trkpt lat="42.2516752" lon="13.7029468"><ele>821.0</ele><time>2026-05-03T08:43:59.891Z</time></trkpt><trkpt lat="42.2515804" lon="13.7029655"><ele>821.0</ele><time>2026-05-03T08:44:00.89Z</time></trkpt><trkpt lat="42.251483" lon="13.7029866"><ele>821.0</ele><time>2026-05-03T08:44:01.89Z</time></trkpt><trkpt lat="42.2513871" lon="13.7030009"><ele>821.0</ele><time>2026-05-03T08:44:02.89Z</time></trkpt><trkpt lat="42.2512936" lon="13.7030082"><ele>821.0</ele><time>2026-05-03T08:44:03.89Z</time></trkpt><trkpt lat="42.2512052" lon="13.7030086"><ele>819.6666666666667</ele><time>2026-05-03T08:44:04.89Z</time></trkpt><trkpt lat="42.2511245" lon="13.7030165"><ele>818.3333333333334</ele><time>2026-05-03T08:44:05.89Z</time></trkpt><trkpt lat="42.2510446" lon="13.7030428"><ele>817.0</ele><time>2026-05-03T08:44:06.891Z</time></trkpt><trkpt lat="42.2509652" lon="13.7030873"><ele>815.6666666666667</ele><time>2026-05-03T08:44:07.89Z</time></trkpt><trkpt lat="42.2508813" lon="13.7031438"><ele>814.3333333333334</ele><time>2026-05-03T08:44:08.89Z</time></trkpt><trkpt lat="42.2507947" lon="13.7032094"><ele>813.0</ele><time>2026-05-03T08:44:09.89Z</time></trkpt><trkpt lat="42.2507047" lon="13.7032814"><ele>812.0</ele><time>2026-05-03T08:44:10.89Z</time></trkpt><trkpt lat="42.2506138" lon="13.7033564"><ele>811.0</ele><time>2026-05-03T08:44:11.89Z</time></trkpt><trkpt lat="42.2505249" lon="13.7034356"><ele>810.0</ele><time>2026-05-03T08:44:12.89Z</time></trkpt><trkpt lat="42.2504365" lon="13.7035212"><ele>809.0</ele><time>2026-05-03T08:44:13.891Z</time></trkpt><trkpt lat="42.2503561" lon="13.7036172"><ele>808.0</ele><time>2026-05-03T08:44:14.89Z</time></trkpt><trkpt lat="42.2502853" lon="13.7037145"><ele>807.9999999999999</ele><time>2026-05-03T08:44:15.89Z</time></trkpt><trkpt lat="42.2502187" lon="13.7038039"><ele>808.0</ele><time>2026-05-03T08:44:16.891Z</time></trkpt><trkpt lat="42.2501625" lon="13.7038754"><ele>808.0</ele><time>2026-05-03T08:44:17.891Z</time></trkpt><trkpt lat="42.2501177" lon="13.7039372"><ele>808.0</ele><time>2026-05-03T08:44:18.89Z</time></trkpt><trkpt lat="42.2500792" lon="13.7040561"><ele>807.9999999999999</ele><time>2026-05-03T08:44:20.89Z</time></trkpt><trkpt lat="42.2500395" lon="13.7041747"><ele>808.0</ele><time>2026-05-03T08:44:22.89Z</time></trkpt><trkpt lat="42.2499987" lon="13.7042846"><ele>808.0</ele><time>2026-05-03T08:44:24.89Z</time></trkpt><trkpt lat="42.2499416" lon="13.7044094"><ele>808.0</ele><time>2026-05-03T08:44:26.89Z</time></trkpt><trkpt lat="42.2498811" lon="13.7045539"><ele>808.0</ele><time>2026-05-03T08:44:28.89Z</time></trkpt><trkpt lat="42.2498368" lon="13.7047075"><ele>808.0</ele><time>2026-05-03T08:44:30.891Z</time></trkpt><trkpt lat="42.2498158" lon="13.7047951"><ele>808.0</ele><time>2026-05-03T08:44:31.89Z</time></trkpt><trkpt lat="42.2497952" lon="13.7048824"><ele>807.8</ele><time>2026-05-03T08:44:32.89Z</time></trkpt><trkpt lat="42.2497581" lon="13.7050352"><ele>807.5999999999999</ele><time>2026-05-03T08:44:34.89Z</time></trkpt><trkpt lat="42.249703" lon="13.7051673"><ele>807.4000000000001</ele><time>2026-05-03T08:44:36.89Z</time></trkpt><trkpt lat="42.2496612" lon="13.7052433"><ele>807.2</ele><time>2026-05-03T08:44:37.89Z</time></trkpt><trkpt lat="42.249606" lon="13.7053156"><ele>807.0</ele><time>2026-05-03T08:44:38.891Z</time></trkpt><trkpt lat="42.249545" lon="13.7053834"><ele>809.6666666666666</ele><time>2026-05-03T08:44:39.89Z</time></trkpt><trkpt lat="42.2494781" lon="13.705453"><ele>812.3333333333333</ele><time>2026-05-03T08:44:40.89Z</time></trkpt><trkpt lat="42.2494068" lon="13.7055238"><ele>815.0</ele><time>2026-05-03T08:44:41.89Z</time></trkpt><trkpt lat="42.2493311" lon="13.7055896"><ele>817.6666666666666</ele><time>2026-05-03T08:44:42.891Z</time></trkpt><trkpt lat="42.2492542" lon="13.705644"><ele>820.3333333333333</ele><time>2026-05-03T08:44:43.89Z</time></trkpt><trkpt lat="42.2491768" lon="13.7056942"><ele>823.0</ele><time>2026-05-03T08:44:44.891Z</time></trkpt><trkpt lat="42.249101" lon="13.7057567"><ele>823.0</ele><time>2026-05-03T08:44:45.891Z</time></trkpt><trkpt lat="42.2490237" lon="13.7058273"><ele>823.0</ele><time>2026-05-03T08:44:46.89Z</time></trkpt><trkpt lat="42.2489463" lon="13.7059012"><ele>823.0</ele><time>2026-05-03T08:44:47.89Z</time></trkpt><trkpt lat="42.2488716" lon="13.7059673"><ele>823.0</ele><time>2026-05-03T08:44:48.891Z</time></trkpt><trkpt lat="42.2487976" lon="13.7060309"><ele>823.0</ele><time>2026-05-03T08:44:49.891Z</time></trkpt><trkpt lat="42.2487214" lon="13.7060994"><ele>824.4999999999999</ele><time>2026-05-03T08:44:50.89Z</time></trkpt><trkpt lat="42.2486566" lon="13.7061619"><ele>826.0</ele><time>2026-05-03T08:44:51.89Z</time></trkpt><trkpt lat="42.2486008" lon="13.7062144"><ele>827.5</ele><time>2026-05-03T08:44:52.891Z</time></trkpt><trkpt lat="42.2485177" lon="13.7063077"><ele>829.0</ele><time>2026-05-03T08:44:54.891Z</time></trkpt><trkpt lat="42.2484866" lon="13.7063986"><ele>830.4999999999999</ele><time>2026-05-03T08:44:57.89Z</time></trkpt><trkpt lat="42.2484994" lon="13.7065245"><ele>832.0</ele><time>2026-05-03T08:45:00.89Z</time></trkpt><trkpt lat="42.2485044" lon="13.706656"><ele>831.9999999999999</ele><time>2026-05-03T08:45:02.89Z</time></trkpt><trkpt lat="42.2485325" lon="13.7067786"><ele>832.0</ele><time>2026-05-03T08:45:04.89Z</time></trkpt><trkpt lat="42.2486001" lon="13.7068551"><ele>832.0</ele><time>2026-05-03T08:45:06.89Z</time></trkpt><trkpt lat="42.2486544" lon="13.7069066"><ele>832.0</ele><time>2026-05-03T08:45:08.891Z</time></trkpt><trkpt lat="42.248717" lon="13.7069601"><ele>831.9999999999999</ele><time>2026-05-03T08:45:19.891Z</time></trkpt><trkpt lat="42.2487817" lon="13.7069403"><ele>832.0</ele><time>2026-05-03T08:45:22.891Z</time></trkpt><trkpt lat="42.2487055" lon="13.7068698"><ele>831.9999999999999</ele><time>2026-05-03T08:45:26.891Z</time></trkpt><trkpt lat="42.248628" lon="13.7068638"><ele>832.0</ele><time>2026-05-03T08:45:28.891Z</time></trkpt><trkpt lat="42.2485549" lon="13.7068131"><ele>832.0</ele><time>2026-05-03T08:45:30.89Z</time></trkpt><trkpt lat="42.2485182" lon="13.706725"><ele>832.0</ele><time>2026-05-03T08:45:32.89Z</time></trkpt><trkpt lat="42.2485108" lon="13.7066239"><ele>831.9999999999999</ele><time>2026-05-03T08:45:34.891Z</time></trkpt><trkpt lat="42.2485103" lon="13.706522"><ele>832.0</ele><time>2026-05-03T08:45:36.891Z</time></trkpt><trkpt lat="42.2484862" lon="13.7064181"><ele>831.9999999999999</ele><time>2026-05-03T08:45:39.891Z</time></trkpt><trkpt lat="42.2484524" lon="13.7063437"><ele>832.0</ele><time>2026-05-03T08:45:44.891Z</time></trkpt><trkpt lat="42.2483935" lon="13.7063962"><ele>832.0</ele><time>2026-05-03T08:45:47.891Z</time></trkpt><trkpt lat="42.2483477" lon="13.7064658"><ele>832.0</ele><time>2026-05-03T08:45:50.89Z</time></trkpt><trkpt lat="42.2483069" lon="13.7065618"><ele>831.9999999999999</ele><time>2026-05-03T08:45:52.89Z</time></trkpt><trkpt lat="42.248276" lon="13.7066634"><ele>832.0</ele><time>2026-05-03T08:45:54.891Z</time></trkpt><trkpt lat="42.2482444" lon="13.706767"><ele>832.0</ele><time>2026-05-03T08:45:56.89Z</time></trkpt><trkpt lat="42.2482434" lon="13.7068833"><ele>832.0</ele><time>2026-05-03T08:45:58.891Z</time></trkpt><trkpt lat="42.2482646" lon="13.7070026"><ele>832.0</ele><time>2026-05-03T08:46:00.89Z</time></trkpt><trkpt lat="42.2482889" lon="13.7071454"><ele>832.0</ele><time>2026-05-03T08:46:02.89Z</time></trkpt><trkpt lat="42.2482892" lon="13.7072785"><ele>832.0</ele><time>2026-05-03T08:46:04.89Z</time></trkpt><trkpt lat="42.2482713" lon="13.7074144"><ele>832.0</ele><time>2026-05-03T08:46:06.891Z</time></trkpt><trkpt lat="42.2482478" lon="13.7075458"><ele>832.0</ele><time>2026-05-03T08:46:08.89Z</time></trkpt><trkpt lat="42.2482152" lon="13.7076754"><ele>832.0</ele><time>2026-05-03T08:46:10.891Z</time></trkpt><trkpt lat="42.2481835" lon="13.70778"><ele>832.0</ele><time>2026-05-03T08:46:12.891Z</time></trkpt><trkpt lat="42.24816" lon="13.7078771"><ele>832.0</ele><time>2026-05-03T08:46:15.891Z</time></trkpt><trkpt lat="42.2482229" lon="13.7079731"><ele>830.1666666666666</ele><time>2026-05-03T08:46:47.89Z</time></trkpt><trkpt lat="42.2483128" lon="13.7080712"><ele>828.3333333333333</ele><time>2026-05-03T08:46:49.891Z</time></trkpt><trkpt lat="42.248392" lon="13.7081119"><ele>826.5</ele><time>2026-05-03T08:46:51.891Z</time></trkpt><trkpt lat="42.2484729" lon="13.7081191"><ele>824.6666666666667</ele><time>2026-05-03T08:46:53.891Z</time></trkpt><trkpt lat="42.2485378" lon="13.7081351"><ele>822.8333333333334</ele><time>2026-05-03T08:46:55.89Z</time></trkpt><trkpt lat="42.2486079" lon="13.7081451"><ele>821.0</ele><time>2026-05-03T08:47:38.891Z</time></trkpt><trkpt lat="42.2486826" lon="13.708152"><ele>821.0000000000001</ele><time>2026-05-03T08:47:41.89Z</time></trkpt><trkpt lat="42.248774" lon="13.7081464"><ele>821.0</ele><time>2026-05-03T08:47:43.89Z</time></trkpt><trkpt lat="42.2488671" lon="13.7081406"><ele>821.0</ele><time>2026-05-03T08:47:45.891Z</time></trkpt><trkpt lat="42.2489344" lon="13.7081096"><ele>821.0</ele><time>2026-05-03T08:47:47.89Z</time></trkpt><trkpt lat="42.2490062" lon="13.7081136"><ele>821.0000000000001</ele><time>2026-05-03T08:47:50.891Z</time></trkpt><trkpt lat="42.2489522" lon="13.7081615"><ele>821.0</ele><time>2026-05-03T08:47:55.89Z</time></trkpt><trkpt lat="42.248866" lon="13.7081368"><ele>821.0</ele><time>2026-05-03T08:48:07.891Z</time></trkpt><trkpt lat="42.2487661" lon="13.7081449"><ele>821.0</ele><time>2026-05-03T08:48:09.891Z</time></trkpt><trkpt lat="42.2486564" lon="13.7081479"><ele>821.0</ele><time>2026-05-03T08:48:11.89Z</time></trkpt><trkpt lat="42.2485477" lon="13.7081358"><ele>821.0</ele><time>2026-05-03T08:48:13.89Z</time></trkpt><trkpt lat="42.2484353" lon="13.7081199"><ele>821.0</ele><time>2026-05-03T08:48:15.89Z</time></trkpt><trkpt lat="42.2483234" lon="13.7080843"><ele>821.0000000000001</ele><time>2026-05-03T08:48:17.891Z</time></trkpt><trkpt lat="42.2482305" lon="13.7079933"><ele>821.0</ele><time>2026-05-03T08:48:19.89Z</time></trkpt><trkpt lat="42.2481688" lon="13.7079405"><ele>821.0</ele><time>2026-05-03T08:48:21.89Z</time></trkpt><trkpt lat="42.248117" lon="13.7079936"><ele>821.0</ele><time>2026-05-03T08:48:36.889Z</time></trkpt><trkpt lat="42.2480548" lon="13.7081371"><ele>821.0000000000001</ele><time>2026-05-03T08:48:38.889Z</time></trkpt><trkpt lat="42.2480073" lon="13.708207"><ele>821.0</ele><time>2026-05-03T08:48:39.89Z</time></trkpt><trkpt lat="42.2479498" lon="13.708266"><ele>820.5714285714287</ele><time>2026-05-03T08:48:40.889Z</time></trkpt><trkpt lat="42.2478793" lon="13.708317"><ele>820.1428571428571</ele><time>2026-05-03T08:48:41.889Z</time></trkpt><trkpt lat="42.2478111" lon="13.7083638"><ele>819.7142857142858</ele><time>2026-05-03T08:48:42.889Z</time></trkpt><trkpt lat="42.2477517" lon="13.7084132"><ele>819.2857142857143</ele><time>2026-05-03T08:48:43.889Z</time></trkpt><trkpt lat="42.2476942" lon="13.7084602"><ele>818.8571428571429</ele><time>2026-05-03T08:48:44.889Z</time></trkpt><trkpt lat="42.2476354" lon="13.7085112"><ele>818.4285714285714</ele><time>2026-05-03T08:48:45.889Z</time></trkpt><trkpt lat="42.2475821" lon="13.7085583"><ele>818.0</ele><time>2026-05-03T08:48:46.889Z</time></trkpt><trkpt lat="42.2474903" lon="13.7086216"><ele>818.0</ele><time>2026-05-03T08:48:48.889Z</time></trkpt><trkpt lat="42.2474054" lon="13.7086184"><ele>818.0</ele><time>2026-05-03T08:48:51.889Z</time></trkpt><trkpt lat="42.2473332" lon="13.7085693"><ele>818.0</ele><time>2026-05-03T08:48:53.889Z</time></trkpt><trkpt lat="42.2472765" lon="13.7084783"><ele>818.0</ele><time>2026-05-03T08:48:55.89Z</time></trkpt><trkpt lat="42.2472252" lon="13.7083487"><ele>818.0</ele><time>2026-05-03T08:48:57.889Z</time></trkpt><trkpt lat="42.247195" lon="13.7081926"><ele>816.2857142857142</ele><time>2026-05-03T08:48:59.89Z</time></trkpt><trkpt lat="42.2471904" lon="13.7081035"><ele>814.5714285714287</ele><time>2026-05-03T08:49:00.889Z</time></trkpt><trkpt lat="42.2471832" lon="13.7080161"><ele>812.8571428571429</ele><time>2026-05-03T08:49:01.89Z</time></trkpt><trkpt lat="42.2471749" lon="13.7079241"><ele>811.1428571428571</ele><time>2026-05-03T08:49:02.89Z</time></trkpt><trkpt lat="42.2471693" lon="13.7078277"><ele>809.4285714285713</ele><time>2026-05-03T08:49:03.89Z</time></trkpt><trkpt lat="42.2471628" lon="13.7077354"><ele>807.7142857142858</ele><time>2026-05-03T08:49:04.889Z</time></trkpt><trkpt lat="42.2471591" lon="13.7076443"><ele>806.0</ele><time>2026-05-03T08:49:05.889Z</time></trkpt><trkpt lat="42.2471577" lon="13.7075498"><ele>806.0000000000001</ele><time>2026-05-03T08:49:06.89Z</time></trkpt><trkpt lat="42.2471607" lon="13.7074634"><ele>806.0</ele><time>2026-05-03T08:49:07.89Z</time></trkpt><trkpt lat="42.2471485" lon="13.7073177"><ele>806.0</ele><time>2026-05-03T08:49:09.889Z</time></trkpt><trkpt lat="42.2471129" lon="13.7072136"><ele>806.0</ele><time>2026-05-03T08:49:11.89Z</time></trkpt><trkpt lat="42.2470559" lon="13.7071529"><ele>806.0000000000001</ele><time>2026-05-03T08:49:13.89Z</time></trkpt><trkpt lat="42.24696" lon="13.7071517"><ele>806.0</ele><time>2026-05-03T08:49:15.89Z</time></trkpt><trkpt lat="42.246845" lon="13.707157"><ele>806.0</ele><time>2026-05-03T08:49:17.889Z</time></trkpt><trkpt lat="42.2467385" lon="13.7071449"><ele>806.0</ele><time>2026-05-03T08:49:19.889Z</time></trkpt><trkpt lat="42.2466829" lon="13.707071"><ele>806.0</ele><time>2026-05-03T08:49:22.89Z</time></trkpt><trkpt lat="42.2466705" lon="13.7069445"><ele>806.0</ele><time>2026-05-03T08:49:25.889Z</time></trkpt><trkpt lat="42.2466906" lon="13.7068268"><ele>806.0</ele><time>2026-05-03T08:49:27.889Z</time></trkpt><trkpt lat="42.2466735" lon="13.7067166"><ele>806.5000000000001</ele><time>2026-05-03T08:49:30.89Z</time></trkpt><trkpt lat="42.2466097" lon="13.7066716"><ele>807.0</ele><time>2026-05-03T08:49:32.889Z</time></trkpt><trkpt lat="42.2465291" lon="13.706646"><ele>807.5</ele><time>2026-05-03T08:49:35.889Z</time></trkpt><trkpt lat="42.2464862" lon="13.7067642"><ele>808.0</ele><time>2026-05-03T08:49:37.89Z</time></trkpt><trkpt lat="42.2464605" lon="13.7068759"><ele>808.5000000000001</ele><time>2026-05-03T08:49:39.89Z</time></trkpt><trkpt lat="42.2464544" lon="13.7069838"><ele>809.0</ele><time>2026-05-03T08:49:41.89Z</time></trkpt><trkpt lat="42.2464336" lon="13.7070729"><ele>806.3333333333334</ele><time>2026-05-03T08:49:44.889Z</time></trkpt><trkpt lat="42.2463372" lon="13.7070564"><ele>803.6666666666667</ele><time>2026-05-03T08:49:47.889Z</time></trkpt><trkpt lat="42.2462511" lon="13.7070333"><ele>801.0</ele><time>2026-05-03T08:49:49.889Z</time></trkpt><trkpt lat="42.2461707" lon="13.7070137"><ele>798.3333333333333</ele><time>2026-05-03T08:49:51.889Z</time></trkpt><trkpt lat="42.2461034" lon="13.7070783"><ele>795.6666666666666</ele><time>2026-05-03T08:49:56.89Z</time></trkpt><trkpt lat="42.2460908" lon="13.7071757"><ele>793.0</ele><time>2026-05-03T08:49:58.889Z</time></trkpt><trkpt lat="42.2461032" lon="13.707265"><ele>792.9999999999999</ele><time>2026-05-03T08:50:01.889Z</time></trkpt><trkpt lat="42.2461221" lon="13.7074076"><ele>793.0</ele><time>2026-05-03T08:50:17.889Z</time></trkpt><trkpt lat="42.2461195" lon="13.707511"><ele>793.0</ele><time>2026-05-03T08:50:18.889Z</time></trkpt><trkpt lat="42.246115" lon="13.7076206"><ele>793.0</ele><time>2026-05-03T08:50:19.889Z</time></trkpt><trkpt lat="42.2461094" lon="13.7077336"><ele>792.9999999999999</ele><time>2026-05-03T08:50:20.89Z</time></trkpt><trkpt lat="42.2461028" lon="13.7078512"><ele>793.0</ele><time>2026-05-03T08:50:21.889Z</time></trkpt><trkpt lat="42.246098" lon="13.7079767"><ele>792.4</ele><time>2026-05-03T08:50:22.889Z</time></trkpt><trkpt lat="42.246089" lon="13.7081057"><ele>791.8</ele><time>2026-05-03T08:50:23.89Z</time></trkpt><trkpt lat="42.2460755" lon="13.7082422"><ele>791.2</ele><time>2026-05-03T08:50:24.889Z</time></trkpt><trkpt lat="42.2460629" lon="13.7083811"><ele>790.6</ele><time>2026-05-03T08:50:25.889Z</time></trkpt><trkpt lat="42.2460517" lon="13.7085204"><ele>790.0</ele><time>2026-05-03T08:50:26.89Z</time></trkpt><trkpt lat="42.2460401" lon="13.7086567"><ele>789.2</ele><time>2026-05-03T08:50:27.889Z</time></trkpt><trkpt lat="42.2460263" lon="13.7087879"><ele>788.4</ele><time>2026-05-03T08:50:28.889Z</time></trkpt><trkpt lat="42.2460166" lon="13.7089238"><ele>787.5999999999999</ele><time>2026-05-03T08:50:29.89Z</time></trkpt><trkpt lat="42.2460107" lon="13.7090573"><ele>786.8</ele><time>2026-05-03T08:50:30.89Z</time></trkpt><trkpt lat="42.246018" lon="13.7091887"><ele>786.0</ele><time>2026-05-03T08:50:31.889Z</time></trkpt><trkpt lat="42.246035" lon="13.7093102"><ele>785.8333333333334</ele><time>2026-05-03T08:50:32.889Z</time></trkpt><trkpt lat="42.246058" lon="13.7094221"><ele>785.6666666666667</ele><time>2026-05-03T08:50:33.889Z</time></trkpt><trkpt lat="42.246093" lon="13.709522"><ele>785.5</ele><time>2026-05-03T08:50:34.89Z</time></trkpt><trkpt lat="42.2461359" lon="13.7096193"><ele>785.3333333333334</ele><time>2026-05-03T08:50:35.89Z</time></trkpt><trkpt lat="42.2461789" lon="13.7097184"><ele>785.1666666666667</ele><time>2026-05-03T08:50:36.891Z</time></trkpt><trkpt lat="42.2462405" lon="13.7098055"><ele>785.0</ele><time>2026-05-03T08:50:37.891Z</time></trkpt><trkpt lat="42.2463151" lon="13.7098904"><ele>785.0</ele><time>2026-05-03T08:50:38.889Z</time></trkpt><trkpt lat="42.2463996" lon="13.7099664"><ele>785.0</ele><time>2026-05-03T08:50:39.89Z</time></trkpt><trkpt lat="42.2464949" lon="13.7100348"><ele>785.0</ele><time>2026-05-03T08:50:40.889Z</time></trkpt><trkpt lat="42.2465993" lon="13.7100915"><ele>785.0</ele><time>2026-05-03T08:50:41.889Z</time></trkpt><trkpt lat="42.2467102" lon="13.7101244"><ele>785.0</ele><time>2026-05-03T08:50:42.889Z</time></trkpt><trkpt lat="42.2468284" lon="13.7101277"><ele>784.5</ele><time>2026-05-03T08:50:43.889Z</time></trkpt><trkpt lat="42.2469496" lon="13.7101071"><ele>784.0</ele><time>2026-05-03T08:50:44.889Z</time></trkpt><trkpt lat="42.2470734" lon="13.7100704"><ele>783.5</ele><time>2026-05-03T08:50:45.889Z</time></trkpt><trkpt lat="42.2471996" lon="13.7100255"><ele>783.0</ele><time>2026-05-03T08:50:46.889Z</time></trkpt><trkpt lat="42.2473248" lon="13.7099822"><ele>783.0</ele><time>2026-05-03T08:50:47.89Z</time></trkpt><trkpt lat="42.247447" lon="13.7099447"><ele>783.0</ele><time>2026-05-03T08:50:48.889Z</time></trkpt><trkpt lat="42.2475656" lon="13.7099109"><ele>783.0</ele><time>2026-05-03T08:50:49.889Z</time></trkpt><trkpt lat="42.2476822" lon="13.7098865"><ele>783.0</ele><time>2026-05-03T08:50:50.89Z</time></trkpt><trkpt lat="42.2477942" lon="13.7098823"><ele>783.0</ele><time>2026-05-03T08:50:51.891Z</time></trkpt><trkpt lat="42.2478983" lon="13.709894"><ele>783.0</ele><time>2026-05-03T08:50:52.89Z</time></trkpt><trkpt lat="42.2479851" lon="13.7099339"><ele>783.0</ele><time>2026-05-03T08:50:53.889Z</time></trkpt><trkpt lat="42.2480551" lon="13.7100033"><ele>783.0</ele><time>2026-05-03T08:50:54.889Z</time></trkpt><trkpt lat="42.2481122" lon="13.7100906"><ele>783.0</ele><time>2026-05-03T08:50:55.889Z</time></trkpt><trkpt lat="42.2481471" lon="13.710199"><ele>783.5999999999999</ele><time>2026-05-03T08:50:56.89Z</time></trkpt><trkpt lat="42.2481559" lon="13.7103239"><ele>784.1999999999999</ele><time>2026-05-03T08:50:57.89Z</time></trkpt><trkpt lat="42.2481394" lon="13.7104585"><ele>784.8</ele><time>2026-05-03T08:50:58.889Z</time></trkpt><trkpt lat="42.2481109" lon="13.7105906"><ele>785.4</ele><time>2026-05-03T08:50:59.889Z</time></trkpt><trkpt lat="42.2480743" lon="13.7107229"><ele>786.0</ele><time>2026-05-03T08:51:00.889Z</time></trkpt><trkpt lat="42.2480324" lon="13.710856"><ele>781.25</ele><time>2026-05-03T08:51:01.89Z</time></trkpt><trkpt lat="42.2479874" lon="13.7109968"><ele>776.5</ele><time>2026-05-03T08:51:02.889Z</time></trkpt><trkpt lat="42.2479425" lon="13.7111382"><ele>771.75</ele><time>2026-05-03T08:51:03.889Z</time></trkpt><trkpt lat="42.2478985" lon="13.7112798"><ele>767.0</ele><time>2026-05-03T08:51:04.89Z</time></trkpt><trkpt lat="42.2478544" lon="13.7114223"><ele>767.0</ele><time>2026-05-03T08:51:05.889Z</time></trkpt><trkpt lat="42.2478114" lon="13.7115701"><ele>767.0</ele><time>2026-05-03T08:51:06.89Z</time></trkpt><trkpt lat="42.2477716" lon="13.711717"><ele>767.0</ele><time>2026-05-03T08:51:07.889Z</time></trkpt><trkpt lat="42.2477377" lon="13.7118564"><ele>767.0</ele><time>2026-05-03T08:51:08.889Z</time></trkpt><trkpt lat="42.2477181" lon="13.7119912"><ele>767.0</ele><time>2026-05-03T08:51:09.889Z</time></trkpt><trkpt lat="42.2477152" lon="13.712121"><ele>767.0</ele><time>2026-05-03T08:51:10.889Z</time></trkpt><trkpt lat="42.2477248" lon="13.7122576"><ele>767.0</ele><time>2026-05-03T08:51:11.889Z</time></trkpt><trkpt lat="42.2477225" lon="13.7123959"><ele>767.0</ele><time>2026-05-03T08:51:12.89Z</time></trkpt><trkpt lat="42.247711" lon="13.7125359"><ele>767.0</ele><time>2026-05-03T08:51:13.889Z</time></trkpt><trkpt lat="42.2477037" lon="13.7126765"><ele>767.0</ele><time>2026-05-03T08:51:14.889Z</time></trkpt><trkpt lat="42.2477049" lon="13.7128122"><ele>767.2</ele><time>2026-05-03T08:51:15.89Z</time></trkpt><trkpt lat="42.247704" lon="13.7129531"><ele>767.4000000000001</ele><time>2026-05-03T08:51:16.889Z</time></trkpt><trkpt lat="42.247692" lon="13.7130992"><ele>767.5999999999999</ele><time>2026-05-03T08:51:17.89Z</time></trkpt><trkpt lat="42.247671" lon="13.7132552"><ele>767.8</ele><time>2026-05-03T08:51:18.89Z</time></trkpt><trkpt lat="42.2476494" lon="13.7134125"><ele>768.0</ele><time>2026-05-03T08:51:19.89Z</time></trkpt><trkpt lat="42.247632" lon="13.7135723"><ele>767.5</ele><time>2026-05-03T08:51:20.89Z</time></trkpt><trkpt lat="42.2476278" lon="13.7137413"><ele>767.0</ele><time>2026-05-03T08:51:21.889Z</time></trkpt><trkpt lat="42.2476369" lon="13.7139092"><ele>766.5</ele><time>2026-05-03T08:51:22.89Z</time></trkpt><trkpt lat="42.2476578" lon="13.7140796"><ele>766.0</ele><time>2026-05-03T08:51:23.889Z</time></trkpt><trkpt lat="42.2476925" lon="13.7142504"><ele>764.0</ele><time>2026-05-03T08:51:24.889Z</time></trkpt><trkpt lat="42.2477374" lon="13.7144214"><ele>762.0</ele><time>2026-05-03T08:51:25.89Z</time></trkpt><trkpt lat="42.2477931" lon="13.7145934"><ele>760.0</ele><time>2026-05-03T08:51:26.889Z</time></trkpt><trkpt lat="42.2478588" lon="13.7147605"><ele>758.0</ele><time>2026-05-03T08:51:27.889Z</time></trkpt><trkpt lat="42.247928" lon="13.7149253"><ele>758.0</ele><time>2026-05-03T08:51:28.889Z</time></trkpt><trkpt lat="42.2479918" lon="13.7150723"><ele>758.0</ele><time>2026-05-03T08:51:29.889Z</time></trkpt><trkpt lat="42.2480518" lon="13.7152052"><ele>758.0</ele><time>2026-05-03T08:51:30.89Z</time></trkpt><trkpt lat="42.2481144" lon="13.7153215"><ele>758.0</ele><time>2026-05-03T08:51:31.889Z</time></trkpt><trkpt lat="42.2481899" lon="13.7154246"><ele>760.5</ele><time>2026-05-03T08:51:32.89Z</time></trkpt><trkpt lat="42.2482803" lon="13.71552"><ele>763.0</ele><time>2026-05-03T08:51:33.889Z</time></trkpt><trkpt lat="42.2483822" lon="13.7156175"><ele>765.5</ele><time>2026-05-03T08:51:34.889Z</time></trkpt><trkpt lat="42.2484873" lon="13.7157153"><ele>768.0</ele><time>2026-05-03T08:51:35.889Z</time></trkpt><trkpt lat="42.2485912" lon="13.7158177"><ele>768.0</ele><time>2026-05-03T08:51:36.89Z</time></trkpt><trkpt lat="42.2486949" lon="13.7159246"><ele>768.0</ele><time>2026-05-03T08:51:37.889Z</time></trkpt><trkpt lat="42.2487976" lon="13.7160239"><ele>768.0</ele><time>2026-05-03T08:51:38.89Z</time></trkpt><trkpt lat="42.2489067" lon="13.7161138"><ele>768.0</ele><time>2026-05-03T08:51:39.889Z</time></trkpt><trkpt lat="42.2490141" lon="13.7161924"><ele>767.4</ele><time>2026-05-03T08:51:40.889Z</time></trkpt><trkpt lat="42.2491207" lon="13.7162684"><ele>766.8</ele><time>2026-05-03T08:51:41.889Z</time></trkpt><trkpt lat="42.2492175" lon="13.7163415"><ele>766.2</ele><time>2026-05-03T08:51:42.889Z</time></trkpt><trkpt lat="42.2492921" lon="13.7164149"><ele>765.6</ele><time>2026-05-03T08:51:43.889Z</time></trkpt><trkpt lat="42.2493426" lon="13.7165028"><ele>765.0</ele><time>2026-05-03T08:51:44.889Z</time></trkpt><trkpt lat="42.2493669" lon="13.7166128"><ele>765.0</ele><time>2026-05-03T08:51:45.89Z</time></trkpt><trkpt lat="42.2493808" lon="13.7167359"><ele>765.0</ele><time>2026-05-03T08:51:46.889Z</time></trkpt><trkpt lat="42.2494176" lon="13.7168599"><ele>765.0</ele><time>2026-05-03T08:51:47.889Z</time></trkpt><trkpt lat="42.249464" lon="13.7169856"><ele>765.0</ele><time>2026-05-03T08:51:48.889Z</time></trkpt><trkpt lat="42.2495257" lon="13.7171009"><ele>765.0</ele><time>2026-05-03T08:51:49.889Z</time></trkpt><trkpt lat="42.2496008" lon="13.7172023"><ele>764.2</ele><time>2026-05-03T08:51:50.889Z</time></trkpt><trkpt lat="42.2496849" lon="13.7172922"><ele>763.4</ele><time>2026-05-03T08:51:51.889Z</time></trkpt><trkpt lat="42.2497712" lon="13.7173894"><ele>762.5999999999999</ele><time>2026-05-03T08:51:52.889Z</time></trkpt><trkpt lat="42.2498433" lon="13.7175082"><ele>761.8</ele><time>2026-05-03T08:51:53.889Z</time></trkpt><trkpt lat="42.2498943" lon="13.7176426"><ele>761.0</ele><time>2026-05-03T08:51:54.89Z</time></trkpt><trkpt lat="42.2499399" lon="13.7177789"><ele>763.4</ele><time>2026-05-03T08:51:55.889Z</time></trkpt><trkpt lat="42.2499876" lon="13.7179001"><ele>765.8</ele><time>2026-05-03T08:51:56.89Z</time></trkpt><trkpt lat="42.25005" lon="13.7180233"><ele>768.1999999999999</ele><time>2026-05-03T08:51:57.89Z</time></trkpt><trkpt lat="42.2501193" lon="13.7181445"><ele>770.5999999999999</ele><time>2026-05-03T08:51:58.889Z</time></trkpt><trkpt lat="42.2501906" lon="13.7182641"><ele>773.0</ele><time>2026-05-03T08:51:59.889Z</time></trkpt><trkpt lat="42.2502654" lon="13.71838"><ele>773.0</ele><time>2026-05-03T08:52:00.889Z</time></trkpt><trkpt lat="42.2503513" lon="13.7184876"><ele>773.0</ele><time>2026-05-03T08:52:01.89Z</time></trkpt><trkpt lat="42.2504433" lon="13.718585"><ele>773.0</ele><time>2026-05-03T08:52:02.89Z</time></trkpt><trkpt lat="42.2505379" lon="13.7186722"><ele>773.0</ele><time>2026-05-03T08:52:03.889Z</time></trkpt><trkpt lat="42.2506378" lon="13.7187387"><ele>773.0</ele><time>2026-05-03T08:52:04.89Z</time></trkpt><trkpt lat="42.2507433" lon="13.718789"><ele>773.0</ele><time>2026-05-03T08:52:05.89Z</time></trkpt><trkpt lat="42.2508547" lon="13.7188333"><ele>773.0</ele><time>2026-05-03T08:52:06.889Z</time></trkpt><trkpt lat="42.250967" lon="13.718884"><ele>773.0</ele><time>2026-05-03T08:52:07.889Z</time></trkpt><trkpt lat="42.2510754" lon="13.7189506"><ele>773.0</ele><time>2026-05-03T08:52:08.89Z</time></trkpt><trkpt lat="42.2511768" lon="13.7190313"><ele>773.0</ele><time>2026-05-03T08:52:09.889Z</time></trkpt><trkpt lat="42.2512688" lon="13.7191292"><ele>773.0</ele><time>2026-05-03T08:52:10.89Z</time></trkpt><trkpt lat="42.2513472" lon="13.7192439"><ele>773.0</ele><time>2026-05-03T08:52:11.889Z</time></trkpt><trkpt lat="42.2514217" lon="13.7193621"><ele>774.75</ele><time>2026-05-03T08:52:12.89Z</time></trkpt><trkpt lat="42.2515061" lon="13.7194697"><ele>776.5</ele><time>2026-05-03T08:52:13.889Z</time></trkpt><trkpt lat="42.2516019" lon="13.7195647"><ele>778.25</ele><time>2026-05-03T08:52:14.889Z</time></trkpt><trkpt lat="42.2517028" lon="13.7196525"><ele>780.0</ele><time>2026-05-03T08:52:15.89Z</time></trkpt><trkpt lat="42.2518066" lon="13.7197421"><ele>780.0</ele><time>2026-05-03T08:52:16.89Z</time></trkpt><trkpt lat="42.2519098" lon="13.7198348"><ele>780.0</ele><time>2026-05-03T08:52:17.889Z</time></trkpt><trkpt lat="42.2520166" lon="13.7199321"><ele>780.0</ele><time>2026-05-03T08:52:18.89Z</time></trkpt><trkpt lat="42.2521313" lon="13.7200387"><ele>780.0</ele><time>2026-05-03T08:52:19.89Z</time></trkpt><trkpt lat="42.2522473" lon="13.7201559"><ele>779.25</ele><time>2026-05-03T08:52:20.889Z</time></trkpt><trkpt lat="42.2523561" lon="13.7202686"><ele>778.5</ele><time>2026-05-03T08:52:21.89Z</time></trkpt><trkpt lat="42.2524604" lon="13.7203726"><ele>777.75</ele><time>2026-05-03T08:52:22.889Z</time></trkpt><trkpt lat="42.2525687" lon="13.7204679"><ele>777.0</ele><time>2026-05-03T08:52:23.889Z</time></trkpt><trkpt lat="42.2526803" lon="13.7205545"><ele>777.0</ele><time>2026-05-03T08:52:24.889Z</time></trkpt><trkpt lat="42.2528001" lon="13.7206324"><ele>777.0</ele><time>2026-05-03T08:52:25.889Z</time></trkpt><trkpt lat="42.2529225" lon="13.7207016"><ele>777.0</ele><time>2026-05-03T08:52:26.89Z</time></trkpt><trkpt lat="42.2530423" lon="13.7207663"><ele>777.0</ele><time>2026-05-03T08:52:27.889Z</time></trkpt><trkpt lat="42.2531556" lon="13.7208241"><ele>777.6</ele><time>2026-05-03T08:52:28.889Z</time></trkpt><trkpt lat="42.2532675" lon="13.7208699"><ele>778.2</ele><time>2026-05-03T08:52:29.89Z</time></trkpt><trkpt lat="42.2533775" lon="13.7209062"><ele>778.8</ele><time>2026-05-03T08:52:30.89Z</time></trkpt><trkpt lat="42.253472" lon="13.7209484"><ele>779.4</ele><time>2026-05-03T08:52:31.89Z</time></trkpt><trkpt lat="42.2535457" lon="13.7210129"><ele>780.0</ele><time>2026-05-03T08:52:32.889Z</time></trkpt><trkpt lat="42.2536021" lon="13.7211002"><ele>780.0</ele><time>2026-05-03T08:52:33.89Z</time></trkpt><trkpt lat="42.2536486" lon="13.7212101"><ele>780.0</ele><time>2026-05-03T08:52:34.889Z</time></trkpt><trkpt lat="42.2536864" lon="13.721334"><ele>780.0</ele><time>2026-05-03T08:52:35.89Z</time></trkpt><trkpt lat="42.2537079" lon="13.7214486"><ele>780.0</ele><time>2026-05-03T08:52:36.89Z</time></trkpt><trkpt lat="42.2536998" lon="13.7215582"><ele>780.0</ele><time>2026-05-03T08:52:37.889Z</time></trkpt><trkpt lat="42.2536628" lon="13.7216627"><ele>780.0</ele><time>2026-05-03T08:52:38.89Z</time></trkpt><trkpt lat="42.2536039" lon="13.7217567"><ele>780.0</ele><time>2026-05-03T08:52:39.89Z</time></trkpt><trkpt lat="42.2535436" lon="13.7218617"><ele>780.0</ele><time>2026-05-03T08:52:40.889Z</time></trkpt><trkpt lat="42.2534839" lon="13.7219742"><ele>780.0</ele><time>2026-05-03T08:52:41.889Z</time></trkpt><trkpt lat="42.2534288" lon="13.7220936"><ele>780.0</ele><time>2026-05-03T08:52:42.889Z</time></trkpt><trkpt lat="42.253397" lon="13.722204"><ele>780.0</ele><time>2026-05-03T08:52:43.889Z</time></trkpt><trkpt lat="42.2533903" lon="13.7223134"><ele>781.0</ele><time>2026-05-03T08:52:44.889Z</time></trkpt><trkpt lat="42.2534028" lon="13.7224256"><ele>782.0</ele><time>2026-05-03T08:52:45.89Z</time></trkpt><trkpt lat="42.253435" lon="13.7225469"><ele>783.0</ele><time>2026-05-03T08:52:46.889Z</time></trkpt><trkpt lat="42.2534749" lon="13.7226759"><ele>784.0</ele><time>2026-05-03T08:52:47.89Z</time></trkpt><trkpt lat="42.253514" lon="13.7227994"><ele>785.0</ele><time>2026-05-03T08:52:48.89Z</time></trkpt><trkpt lat="42.2535603" lon="13.722923"><ele>786.0</ele><time>2026-05-03T08:52:49.889Z</time></trkpt><trkpt lat="42.2536151" lon="13.7230504"><ele>787.0</ele><time>2026-05-03T08:52:50.889Z</time></trkpt><trkpt lat="42.2536666" lon="13.72318"><ele>788.0</ele><time>2026-05-03T08:52:51.889Z</time></trkpt><trkpt lat="42.2537187" lon="13.7233148"><ele>789.0</ele><time>2026-05-03T08:52:52.889Z</time></trkpt><trkpt lat="42.2537674" lon="13.7234482"><ele>790.0</ele><time>2026-05-03T08:52:53.89Z</time></trkpt><trkpt lat="42.2538125" lon="13.7235797"><ele>790.6</ele><time>2026-05-03T08:52:54.889Z</time></trkpt><trkpt lat="42.2538525" lon="13.7236995"><ele>791.2</ele><time>2026-05-03T08:52:55.889Z</time></trkpt><trkpt lat="42.2538853" lon="13.7238217"><ele>791.8</ele><time>2026-05-03T08:52:56.89Z</time></trkpt><trkpt lat="42.2539236" lon="13.7239404"><ele>792.4</ele><time>2026-05-03T08:52:57.89Z</time></trkpt><trkpt lat="42.2539728" lon="13.7240405"><ele>793.0</ele><time>2026-05-03T08:52:58.89Z</time></trkpt><trkpt lat="42.2540376" lon="13.7241157"><ele>791.2</ele><time>2026-05-03T08:52:59.889Z</time></trkpt><trkpt lat="42.2541121" lon="13.7241636"><ele>789.4</ele><time>2026-05-03T08:53:00.889Z</time></trkpt><trkpt lat="42.2542364" lon="13.7242205"><ele>787.6</ele><time>2026-05-03T08:53:02.889Z</time></trkpt><trkpt lat="42.2543134" lon="13.7242555"><ele>785.8000000000001</ele><time>2026-05-03T08:53:03.889Z</time></trkpt><trkpt lat="42.2543947" lon="13.7243031"><ele>784.0</ele><time>2026-05-03T08:53:04.89Z</time></trkpt><trkpt lat="42.2544814" lon="13.724349"><ele>784.0</ele><time>2026-05-03T08:53:05.889Z</time></trkpt><trkpt lat="42.2545764" lon="13.7243942"><ele>784.0</ele><time>2026-05-03T08:53:06.89Z</time></trkpt><trkpt lat="42.2546722" lon="13.7244428"><ele>784.0</ele><time>2026-05-03T08:53:07.889Z</time></trkpt><trkpt lat="42.2547741" lon="13.7244867"><ele>784.0</ele><time>2026-05-03T08:53:08.889Z</time></trkpt><trkpt lat="42.2548767" lon="13.724525"><ele>784.0</ele><time>2026-05-03T08:53:09.89Z</time></trkpt><trkpt lat="42.2549766" lon="13.7245639"><ele>780.4000000000001</ele><time>2026-05-03T08:53:10.889Z</time></trkpt><trkpt lat="42.2550693" lon="13.724607"><ele>776.8</ele><time>2026-05-03T08:53:11.889Z</time></trkpt><trkpt lat="42.25515" lon="13.7246717"><ele>773.2</ele><time>2026-05-03T08:53:12.889Z</time></trkpt><trkpt lat="42.2552228" lon="13.724762"><ele>769.5999999999999</ele><time>2026-05-03T08:53:13.89Z</time></trkpt><trkpt lat="42.2552787" lon="13.7248737"><ele>766.0</ele><time>2026-05-03T08:53:14.89Z</time></trkpt><trkpt lat="42.2553159" lon="13.7250026"><ele>766.0</ele><time>2026-05-03T08:53:15.889Z</time></trkpt><trkpt lat="42.2553484" lon="13.7251514"><ele>766.0</ele><time>2026-05-03T08:53:16.89Z</time></trkpt><trkpt lat="42.2553899" lon="13.7253084"><ele>766.0</ele><time>2026-05-03T08:53:17.889Z</time></trkpt><trkpt lat="42.2554319" lon="13.7254706"><ele>766.0</ele><time>2026-05-03T08:53:18.889Z</time></trkpt><trkpt lat="42.2554794" lon="13.7256341"><ele>765.75</ele><time>2026-05-03T08:53:19.89Z</time></trkpt><trkpt lat="42.2555263" lon="13.7257841"><ele>765.5</ele><time>2026-05-03T08:53:20.889Z</time></trkpt><trkpt lat="42.2555768" lon="13.7259378"><ele>765.25</ele><time>2026-05-03T08:53:21.889Z</time></trkpt><trkpt lat="42.2556336" lon="13.7260992"><ele>765.0</ele><time>2026-05-03T08:53:22.889Z</time></trkpt><trkpt lat="42.2556813" lon="13.7262503"><ele>765.0</ele><time>2026-05-03T08:53:23.89Z</time></trkpt><trkpt lat="42.2557143" lon="13.7263775"><ele>765.0</ele><time>2026-05-03T08:53:24.889Z</time></trkpt><trkpt lat="42.2557139" lon="13.7264922"><ele>765.0</ele><time>2026-05-03T08:53:25.89Z</time></trkpt><trkpt lat="42.2556855" lon="13.7265919"><ele>765.0</ele><time>2026-05-03T08:53:26.889Z</time></trkpt><trkpt lat="42.2556315" lon="13.7266854"><ele>765.0</ele><time>2026-05-03T08:53:27.889Z</time></trkpt><trkpt lat="42.2555622" lon="13.7267666"><ele>765.0</ele><time>2026-05-03T08:53:28.889Z</time></trkpt><trkpt lat="42.2555149" lon="13.7268439"><ele>762.3333333333334</ele><time>2026-05-03T08:53:29.89Z</time></trkpt><trkpt lat="42.2554884" lon="13.7269279"><ele>759.6666666666666</ele><time>2026-05-03T08:53:30.889Z</time></trkpt><trkpt lat="42.2554834" lon="13.7270313"><ele>757.0</ele><time>2026-05-03T08:53:31.889Z</time></trkpt><trkpt lat="42.2554788" lon="13.7271677"><ele>754.3333333333333</ele><time>2026-05-03T08:53:32.89Z</time></trkpt><trkpt lat="42.2554505" lon="13.727297"><ele>751.6666666666666</ele><time>2026-05-03T08:53:33.889Z</time></trkpt><trkpt lat="42.2554383" lon="13.727401"><ele>749.0</ele><time>2026-05-03T08:53:34.889Z</time></trkpt><trkpt lat="42.2554462" lon="13.727492"><ele>749.0</ele><time>2026-05-03T08:53:35.889Z</time></trkpt><trkpt lat="42.2555138" lon="13.727574"><ele>749.0</ele><time>2026-05-03T08:53:37.889Z</time></trkpt><trkpt lat="42.2556331" lon="13.7275491"><ele>749.0</ele><time>2026-05-03T08:53:39.89Z</time></trkpt><trkpt lat="42.2557189" lon="13.7275331"><ele>749.0</ele><time>2026-05-03T08:53:40.889Z</time></trkpt><trkpt lat="42.2558089" lon="13.7275504"><ele>749.0</ele><time>2026-05-03T08:53:41.89Z</time></trkpt><trkpt lat="42.2559118" lon="13.7276006"><ele>750.25</ele><time>2026-05-03T08:53:42.889Z</time></trkpt><trkpt lat="42.2560154" lon="13.7276607"><ele>751.5</ele><time>2026-05-03T08:53:43.889Z</time></trkpt><trkpt lat="42.2561251" lon="13.7277305"><ele>752.75</ele><time>2026-05-03T08:53:44.89Z</time></trkpt><trkpt lat="42.2562262" lon="13.7278136"><ele>754.0</ele><time>2026-05-03T08:53:45.889Z</time></trkpt><trkpt lat="42.2563359" lon="13.7279073"><ele>748.75</ele><time>2026-05-03T08:53:46.89Z</time></trkpt><trkpt lat="42.2564436" lon="13.7279971"><ele>743.5</ele><time>2026-05-03T08:53:47.889Z</time></trkpt><trkpt lat="42.2565517" lon="13.7280885"><ele>738.25</ele><time>2026-05-03T08:53:48.889Z</time></trkpt><trkpt lat="42.2566557" lon="13.7281746"><ele>733.0</ele><time>2026-05-03T08:53:49.89Z</time></trkpt><trkpt lat="42.2567462" lon="13.7282553"><ele>733.0</ele><time>2026-05-03T08:53:50.89Z</time></trkpt><trkpt lat="42.2568294" lon="13.7283486"><ele>733.0</ele><time>2026-05-03T08:53:51.89Z</time></trkpt><trkpt lat="42.2569049" lon="13.7284464"><ele>733.0</ele><time>2026-05-03T08:53:52.889Z</time></trkpt><trkpt lat="42.2569813" lon="13.7285401"><ele>733.0</ele><time>2026-05-03T08:53:53.89Z</time></trkpt><trkpt lat="42.2570589" lon="13.7286203"><ele>733.0</ele><time>2026-05-03T08:53:54.889Z</time></trkpt><trkpt lat="42.2571303" lon="13.7287078"><ele>730.6666666666667</ele><time>2026-05-03T08:53:55.889Z</time></trkpt><trkpt lat="42.257183" lon="13.7287986"><ele>728.3333333333334</ele><time>2026-05-03T08:53:56.889Z</time></trkpt><trkpt lat="42.257229" lon="13.7289047"><ele>726.0</ele><time>2026-05-03T08:53:57.891Z</time></trkpt><trkpt lat="42.2572713" lon="13.7290136"><ele>723.6666666666666</ele><time>2026-05-03T08:53:58.889Z</time></trkpt><trkpt lat="42.2573095" lon="13.7291249"><ele>721.3333333333333</ele><time>2026-05-03T08:53:59.889Z</time></trkpt><trkpt lat="42.257345" lon="13.7292266"><ele>719.0</ele><time>2026-05-03T08:54:00.889Z</time></trkpt><trkpt lat="42.2573812" lon="13.7293122"><ele>712.2</ele><time>2026-05-03T08:54:01.889Z</time></trkpt><trkpt lat="42.2574744" lon="13.7294234"><ele>705.4000000000001</ele><time>2026-05-03T08:54:03.889Z</time></trkpt><trkpt lat="42.2575445" lon="13.7294621"><ele>698.6</ele><time>2026-05-03T08:54:04.891Z</time></trkpt><trkpt lat="42.2576259" lon="13.7294907"><ele>691.8</ele><time>2026-05-03T08:54:05.889Z</time></trkpt><trkpt lat="42.2577096" lon="13.7295151"><ele>685.0</ele><time>2026-05-03T08:54:06.89Z</time></trkpt><trkpt lat="42.2578033" lon="13.729535"><ele>685.0</ele><time>2026-05-03T08:54:07.889Z</time></trkpt><trkpt lat="42.2578927" lon="13.7295538"><ele>685.0</ele><time>2026-05-03T08:54:08.89Z</time></trkpt><trkpt lat="42.257983" lon="13.729578"><ele>685.0</ele><time>2026-05-03T08:54:09.889Z</time></trkpt><trkpt lat="42.2580749" lon="13.7296007"><ele>685.0</ele><time>2026-05-03T08:54:10.889Z</time></trkpt><trkpt lat="42.2581624" lon="13.7296279"><ele>685.0</ele><time>2026-05-03T08:54:11.89Z</time></trkpt><trkpt lat="42.2582458" lon="13.7296643"><ele>686.2</ele><time>2026-05-03T08:54:12.889Z</time></trkpt><trkpt lat="42.2583293" lon="13.7297116"><ele>687.4</ele><time>2026-05-03T08:54:13.889Z</time></trkpt><trkpt lat="42.2584114" lon="13.7297693"><ele>688.5999999999999</ele><time>2026-05-03T08:54:14.89Z</time></trkpt><trkpt lat="42.2584949" lon="13.7298273"><ele>689.8</ele><time>2026-05-03T08:54:15.889Z</time></trkpt><trkpt lat="42.258591" lon="13.729889"><ele>691.0</ele><time>2026-05-03T08:54:16.889Z</time></trkpt><trkpt lat="42.258684" lon="13.7299453"><ele>691.0</ele><time>2026-05-03T08:54:17.889Z</time></trkpt><trkpt lat="42.2587801" lon="13.7299966"><ele>691.0</ele><time>2026-05-03T08:54:18.89Z</time></trkpt><trkpt lat="42.2588822" lon="13.7300439"><ele>691.0</ele><time>2026-05-03T08:54:19.889Z</time></trkpt><trkpt lat="42.2589847" lon="13.7300929"><ele>691.0</ele><time>2026-05-03T08:54:20.889Z</time></trkpt><trkpt lat="42.2590879" lon="13.7301364"><ele>691.0</ele><time>2026-05-03T08:54:21.889Z</time></trkpt><trkpt lat="42.2591926" lon="13.7301792"><ele>692.5999999999999</ele><time>2026-05-03T08:54:22.889Z</time></trkpt><trkpt lat="42.2592898" lon="13.7302183"><ele>694.2</ele><time>2026-05-03T08:54:23.889Z</time></trkpt><trkpt lat="42.259383" lon="13.730261"><ele>695.8</ele><time>2026-05-03T08:54:24.889Z</time></trkpt><trkpt lat="42.2594659" lon="13.730307"><ele>697.4000000000001</ele><time>2026-05-03T08:54:25.89Z</time></trkpt><trkpt lat="42.2595466" lon="13.730352"><ele>699.0</ele><time>2026-05-03T08:54:26.889Z</time></trkpt><trkpt lat="42.2596275" lon="13.7303899"><ele>694.1666666666666</ele><time>2026-05-03T08:54:27.89Z</time></trkpt><trkpt lat="42.2597099" lon="13.7304203"><ele>689.3333333333334</ele><time>2026-05-03T08:54:28.889Z</time></trkpt><trkpt lat="42.2597951" lon="13.7304538"><ele>684.5</ele><time>2026-05-03T08:54:29.89Z</time></trkpt><trkpt lat="42.2598754" lon="13.7304935"><ele>679.6666666666667</ele><time>2026-05-03T08:54:30.89Z</time></trkpt><trkpt lat="42.2599532" lon="13.7305374"><ele>674.8333333333334</ele><time>2026-05-03T08:54:31.89Z</time></trkpt><trkpt lat="42.2600299" lon="13.7305844"><ele>670.0</ele><time>2026-05-03T08:54:32.89Z</time></trkpt><trkpt lat="42.2600993" lon="13.7306256"><ele>670.0</ele><time>2026-05-03T08:54:33.889Z</time></trkpt><trkpt lat="42.2601669" lon="13.7306767"><ele>670.0</ele><time>2026-05-03T08:54:34.889Z</time></trkpt><trkpt lat="42.2602386" lon="13.7307279"><ele>670.0</ele><time>2026-05-03T08:54:35.889Z</time></trkpt><trkpt lat="42.2603089" lon="13.7307863"><ele>670.0</ele><time>2026-05-03T08:54:36.889Z</time></trkpt><trkpt lat="42.2603806" lon="13.7308406"><ele>670.0</ele><time>2026-05-03T08:54:37.889Z</time></trkpt><trkpt lat="42.2604482" lon="13.7308855"><ele>670.0</ele><time>2026-05-03T08:54:38.889Z</time></trkpt><trkpt lat="42.2605189" lon="13.7309465"><ele>670.0</ele><time>2026-05-03T08:54:39.889Z</time></trkpt><trkpt lat="42.260591" lon="13.7310113"><ele>670.0</ele><time>2026-05-03T08:54:40.89Z</time></trkpt><trkpt lat="42.2606579" lon="13.7310771"><ele>670.0</ele><time>2026-05-03T08:54:41.889Z</time></trkpt><trkpt lat="42.2607295" lon="13.7311461"><ele>670.0</ele><time>2026-05-03T08:54:42.889Z</time></trkpt><trkpt lat="42.2607929" lon="13.7312205"><ele>670.0</ele><time>2026-05-03T08:54:43.889Z</time></trkpt><trkpt lat="42.2608467" lon="13.7312994"><ele>670.0</ele><time>2026-05-03T08:54:44.889Z</time></trkpt><trkpt lat="42.2608879" lon="13.7313863"><ele>667.0</ele><time>2026-05-03T08:54:45.89Z</time></trkpt><trkpt lat="42.2609223" lon="13.7314871"><ele>664.0</ele><time>2026-05-03T08:54:46.89Z</time></trkpt><trkpt lat="42.2609662" lon="13.7315981"><ele>661.0</ele><time>2026-05-03T08:54:47.889Z</time></trkpt><trkpt lat="42.2610206" lon="13.7316991"><ele>658.0</ele><time>2026-05-03T08:54:48.89Z</time></trkpt><trkpt lat="42.2610747" lon="13.7317907"><ele>655.0</ele><time>2026-05-03T08:54:49.89Z</time></trkpt><trkpt lat="42.2611276" lon="13.7318743"><ele>652.0</ele><time>2026-05-03T08:54:50.889Z</time></trkpt><trkpt lat="42.2611822" lon="13.7319311"><ele>651.5714285714286</ele><time>2026-05-03T08:54:51.89Z</time></trkpt><trkpt lat="42.2612464" lon="13.7319551"><ele>651.1428571428571</ele><time>2026-05-03T08:54:52.889Z</time></trkpt><trkpt lat="42.2613254" lon="13.7319656"><ele>650.7142857142857</ele><time>2026-05-03T08:54:53.89Z</time></trkpt><trkpt lat="42.2614007" lon="13.731984"><ele>650.2857142857142</ele><time>2026-05-03T08:54:54.889Z</time></trkpt><trkpt lat="42.2614656" lon="13.7320157"><ele>649.8571428571429</ele><time>2026-05-03T08:54:55.89Z</time></trkpt><trkpt lat="42.2615167" lon="13.7320777"><ele>649.4285714285713</ele><time>2026-05-03T08:54:56.889Z</time></trkpt><trkpt lat="42.2615587" lon="13.7321543"><ele>649.0</ele><time>2026-05-03T08:54:57.889Z</time></trkpt><trkpt lat="42.2615872" lon="13.7322341"><ele>649.0</ele><time>2026-05-03T08:54:58.89Z</time></trkpt><trkpt lat="42.261601" lon="13.7323214"><ele>649.0</ele><time>2026-05-03T08:54:59.89Z</time></trkpt><trkpt lat="42.261601" lon="13.7324201"><ele>649.0</ele><time>2026-05-03T08:55:00.89Z</time></trkpt><trkpt lat="42.2615968" lon="13.7325217"><ele>649.0</ele><time>2026-05-03T08:55:01.889Z</time></trkpt><trkpt lat="42.2615934" lon="13.7326257"><ele>649.0</ele><time>2026-05-03T08:55:02.889Z</time></trkpt><trkpt lat="42.2615935" lon="13.7327297"><ele>649.0</ele><time>2026-05-03T08:55:03.889Z</time></trkpt><trkpt lat="42.2616033" lon="13.7328467"><ele>646.0</ele><time>2026-05-03T08:55:04.889Z</time></trkpt><trkpt lat="42.2616215" lon="13.7329745"><ele>643.0</ele><time>2026-05-03T08:55:05.889Z</time></trkpt><trkpt lat="42.2616321" lon="13.7330951"><ele>640.0</ele><time>2026-05-03T08:55:06.889Z</time></trkpt><trkpt lat="42.2616458" lon="13.7332163"><ele>637.0</ele><time>2026-05-03T08:55:07.889Z</time></trkpt><trkpt lat="42.2616629" lon="13.7333465"><ele>634.0</ele><time>2026-05-03T08:55:08.89Z</time></trkpt><trkpt lat="42.2616898" lon="13.7334884"><ele>632.8</ele><time>2026-05-03T08:55:09.89Z</time></trkpt><trkpt lat="42.2617217" lon="13.7336209"><ele>631.5999999999999</ele><time>2026-05-03T08:55:10.889Z</time></trkpt><trkpt lat="42.26175" lon="13.7337521"><ele>630.4</ele><time>2026-05-03T08:55:11.889Z</time></trkpt><trkpt lat="42.2617614" lon="13.7338913"><ele>629.1999999999999</ele><time>2026-05-03T08:55:12.89Z</time></trkpt><trkpt lat="42.2617608" lon="13.7340231"><ele>628.0</ele><time>2026-05-03T08:55:13.889Z</time></trkpt><trkpt lat="42.2617543" lon="13.734146"><ele>628.0</ele><time>2026-05-03T08:55:14.889Z</time></trkpt><trkpt lat="42.2617309" lon="13.7342679"><ele>628.0</ele><time>2026-05-03T08:55:15.89Z</time></trkpt><trkpt lat="42.2616901" lon="13.7343947"><ele>628.0</ele><time>2026-05-03T08:55:16.889Z</time></trkpt><trkpt lat="42.2616489" lon="13.7345202"><ele>628.0</ele><time>2026-05-03T08:55:17.889Z</time></trkpt><trkpt lat="42.2616004" lon="13.7346351"><ele>628.0</ele><time>2026-05-03T08:55:18.889Z</time></trkpt><trkpt lat="42.2615384" lon="13.7347438"><ele>628.1999999999999</ele><time>2026-05-03T08:55:19.888Z</time></trkpt><trkpt lat="42.261463" lon="13.7348495"><ele>628.4</ele><time>2026-05-03T08:55:20.89Z</time></trkpt><trkpt lat="42.2613814" lon="13.734956"><ele>628.5999999999999</ele><time>2026-05-03T08:55:21.889Z</time></trkpt><trkpt lat="42.2613109" lon="13.7350539"><ele>628.8</ele><time>2026-05-03T08:55:22.889Z</time></trkpt><trkpt lat="42.2612521" lon="13.7351418"><ele>629.0</ele><time>2026-05-03T08:55:23.889Z</time></trkpt><trkpt lat="42.261209" lon="13.7352239"><ele>624.8333333333333</ele><time>2026-05-03T08:55:24.889Z</time></trkpt><trkpt lat="42.2611834" lon="13.7353122"><ele>620.6666666666666</ele><time>2026-05-03T08:55:25.89Z</time></trkpt><trkpt lat="42.2611553" lon="13.7354343"><ele>616.5</ele><time>2026-05-03T08:55:26.889Z</time></trkpt><trkpt lat="42.2611235" lon="13.7355443"><ele>612.3333333333334</ele><time>2026-05-03T08:55:27.89Z</time></trkpt><trkpt lat="42.2610983" lon="13.7356517"><ele>608.1666666666667</ele><time>2026-05-03T08:55:28.889Z</time></trkpt><trkpt lat="42.2610745" lon="13.7357762"><ele>604.0</ele><time>2026-05-03T08:55:29.889Z</time></trkpt><trkpt lat="42.2610506" lon="13.7358963"><ele>604.0</ele><time>2026-05-03T08:55:30.89Z</time></trkpt><trkpt lat="42.2610331" lon="13.7360105"><ele>604.0</ele><time>2026-05-03T08:55:31.889Z</time></trkpt><trkpt lat="42.2610133" lon="13.7361266"><ele>604.0</ele><time>2026-05-03T08:55:32.889Z</time></trkpt><trkpt lat="42.26099" lon="13.7362122"><ele>604.0</ele><time>2026-05-03T08:55:33.89Z</time></trkpt><trkpt lat="42.2609661" lon="13.7363381"><ele>604.0</ele><time>2026-05-03T08:55:35.889Z</time></trkpt><trkpt lat="42.2610007" lon="13.7364127"><ele>604.0</ele><time>2026-05-03T08:55:38.89Z</time></trkpt><trkpt lat="42.2610568" lon="13.7364764"><ele>602.6666666666667</ele><time>2026-05-03T08:55:41.89Z</time></trkpt><trkpt lat="42.2611197" lon="13.7365582"><ele>601.3333333333334</ele><time>2026-05-03T08:55:45.89Z</time></trkpt><trkpt lat="42.2611793" lon="13.7366347"><ele>600.0</ele><time>2026-05-03T08:55:50.889Z</time></trkpt><trkpt lat="42.261238" lon="13.7366748"><ele>598.6666666666666</ele><time>2026-05-03T08:55:52.889Z</time></trkpt><trkpt lat="42.2612957" lon="13.7367467"><ele>597.3333333333333</ele><time>2026-05-03T08:55:54.89Z</time></trkpt><trkpt lat="42.2613637" lon="13.736823"><ele>596.0</ele><time>2026-05-03T08:55:56.889Z</time></trkpt><trkpt lat="42.2614357" lon="13.736883"><ele>593.5</ele><time>2026-05-03T08:55:58.889Z</time></trkpt><trkpt lat="42.2614978" lon="13.7369206"><ele>591.0</ele><time>2026-05-03T08:56:01.889Z</time></trkpt><trkpt lat="42.2615596" lon="13.736948"><ele>588.5</ele><time>2026-05-03T08:56:06.888Z</time></trkpt><trkpt lat="42.2616357" lon="13.7369541"><ele>586.0</ele><time>2026-05-03T08:56:12.888Z</time></trkpt><trkpt lat="42.2617337" lon="13.7369848"><ele>583.5</ele><time>2026-05-03T08:56:16.888Z</time></trkpt><trkpt lat="42.2618375" lon="13.7370308"><ele>581.0</ele><time>2026-05-03T08:56:18.889Z</time></trkpt><trkpt lat="42.2619575" lon="13.7370794"><ele>581.0</ele><time>2026-05-03T08:56:20.888Z</time></trkpt><trkpt lat="42.2620232" lon="13.737125"><ele>581.0</ele><time>2026-05-03T08:56:21.888Z</time></trkpt><trkpt lat="42.2620934" lon="13.7371818"><ele>581.0</ele><time>2026-05-03T08:56:22.889Z</time></trkpt><trkpt lat="42.2621638" lon="13.7372374"><ele>581.0</ele><time>2026-05-03T08:56:23.888Z</time></trkpt><trkpt lat="42.2622386" lon="13.7372962"><ele>581.0</ele><time>2026-05-03T08:56:24.888Z</time></trkpt><trkpt lat="42.2623132" lon="13.737352"><ele>581.0</ele><time>2026-05-03T08:56:25.888Z</time></trkpt><trkpt lat="42.2623867" lon="13.7374037"><ele>581.8333333333333</ele><time>2026-05-03T08:56:26.888Z</time></trkpt><trkpt lat="42.2624556" lon="13.7374541"><ele>582.6666666666666</ele><time>2026-05-03T08:56:27.888Z</time></trkpt><trkpt lat="42.2625217" lon="13.7374937"><ele>583.5</ele><time>2026-05-03T08:56:28.889Z</time></trkpt><trkpt lat="42.2625948" lon="13.7375202"><ele>584.3333333333334</ele><time>2026-05-03T08:56:29.888Z</time></trkpt><trkpt lat="42.2626854" lon="13.7375419"><ele>585.1666666666667</ele><time>2026-05-03T08:56:30.889Z</time></trkpt><trkpt lat="42.2627803" lon="13.7375593"><ele>586.0</ele><time>2026-05-03T08:56:31.888Z</time></trkpt><trkpt lat="42.2628756" lon="13.7375829"><ele>586.0</ele><time>2026-05-03T08:56:32.888Z</time></trkpt><trkpt lat="42.2629848" lon="13.7376135"><ele>586.0</ele><time>2026-05-03T08:56:33.89Z</time></trkpt><trkpt lat="42.2630901" lon="13.7376372"><ele>586.0</ele><time>2026-05-03T08:56:34.889Z</time></trkpt><trkpt lat="42.2631906" lon="13.7376632"><ele>586.0</ele><time>2026-05-03T08:56:35.888Z</time></trkpt><trkpt lat="42.2632797" lon="13.7376893"><ele>586.0</ele><time>2026-05-03T08:56:36.889Z</time></trkpt><trkpt lat="42.2633618" lon="13.7377078"><ele>580.8</ele><time>2026-05-03T08:56:37.888Z</time></trkpt><trkpt lat="42.2634241" lon="13.7377223"><ele>575.6</ele><time>2026-05-03T08:56:38.888Z</time></trkpt><trkpt lat="42.2634951" lon="13.7377275"><ele>570.4</ele><time>2026-05-03T08:56:40.889Z</time></trkpt><trkpt lat="42.2635998" lon="13.7377432"><ele>565.2</ele><time>2026-05-03T08:56:47.889Z</time></trkpt><trkpt lat="42.2637397" lon="13.7377588"><ele>560.0</ele><time>2026-05-03T08:56:49.888Z</time></trkpt><trkpt lat="42.2638115" lon="13.7377565"><ele>560.0</ele><time>2026-05-03T08:56:50.888Z</time></trkpt><trkpt lat="42.2638794" lon="13.7377447"><ele>560.0</ele><time>2026-05-03T08:56:51.888Z</time></trkpt><trkpt lat="42.2639447" lon="13.7377379"><ele>560.0</ele><time>2026-05-03T08:56:52.889Z</time></trkpt><trkpt lat="42.2640106" lon="13.7377409"><ele>560.0</ele><time>2026-05-03T08:56:53.889Z</time></trkpt><trkpt lat="42.264082" lon="13.7377683"><ele>560.0</ele><time>2026-05-03T08:56:54.888Z</time></trkpt><trkpt lat="42.2641515" lon="13.7378057"><ele>560.0</ele><time>2026-05-03T08:56:55.888Z</time></trkpt><trkpt lat="42.2642227" lon="13.7378409"><ele>560.0</ele><time>2026-05-03T08:56:56.888Z</time></trkpt><trkpt lat="42.2643031" lon="13.7378722"><ele>559.3333333333333</ele><time>2026-05-03T08:56:57.888Z</time></trkpt><trkpt lat="42.2644028" lon="13.7378967"><ele>558.6666666666666</ele><time>2026-05-03T08:56:58.889Z</time></trkpt><trkpt lat="42.2644978" lon="13.737911"><ele>558.0</ele><time>2026-05-03T08:56:59.889Z</time></trkpt><trkpt lat="42.264586" lon="13.7379258"><ele>557.3333333333334</ele><time>2026-05-03T08:57:00.888Z</time></trkpt><trkpt lat="42.2646677" lon="13.7379427"><ele>556.6666666666667</ele><time>2026-05-03T08:57:01.888Z</time></trkpt><trkpt lat="42.2647394" lon="13.7379569"><ele>556.0</ele><time>2026-05-03T08:57:02.888Z</time></trkpt><trkpt lat="42.2648312" lon="13.7379878"><ele>555.3333333333334</ele><time>2026-05-03T08:57:04.888Z</time></trkpt><trkpt lat="42.2649158" lon="13.738047"><ele>554.6666666666667</ele><time>2026-05-03T08:57:07.888Z</time></trkpt><trkpt lat="42.2649771" lon="13.7380867"><ele>554.0</ele><time>2026-05-03T08:57:08.888Z</time></trkpt><trkpt lat="42.2650374" lon="13.7381186"><ele>553.3333333333334</ele><time>2026-05-03T08:57:09.889Z</time></trkpt><trkpt lat="42.2651423" lon="13.7381388"><ele>552.6666666666666</ele><time>2026-05-03T08:57:11.888Z</time></trkpt><trkpt lat="42.2652096" lon="13.7381424"><ele>552.0</ele><time>2026-05-03T08:57:14.888Z</time></trkpt><trkpt lat="42.2652859" lon="13.7381326"><ele>552.0</ele><time>2026-05-03T08:59:44.888Z</time></trkpt><trkpt lat="42.2654149" lon="13.7381363"><ele>552.0</ele><time>2026-05-03T08:59:46.888Z</time></trkpt><trkpt lat="42.265491" lon="13.7381405"><ele>552.0</ele><time>2026-05-03T08:59:47.888Z</time></trkpt><trkpt lat="42.2655753" lon="13.7381419"><ele>552.0</ele><time>2026-05-03T08:59:48.888Z</time></trkpt><trkpt lat="42.2656622" lon="13.7381432"><ele>552.0</ele><time>2026-05-03T08:59:49.888Z</time></trkpt><trkpt lat="42.2657519" lon="13.7381452"><ele>551.7142857142858</ele><time>2026-05-03T08:59:50.889Z</time></trkpt><trkpt lat="42.265835" lon="13.7381522"><ele>551.4285714285714</ele><time>2026-05-03T08:59:51.888Z</time></trkpt><trkpt lat="42.2659126" lon="13.7381628"><ele>551.1428571428571</ele><time>2026-05-03T08:59:52.888Z</time></trkpt><trkpt lat="42.2659842" lon="13.7381643"><ele>550.8571428571429</ele><time>2026-05-03T08:59:53.888Z</time></trkpt><trkpt lat="42.2660529" lon="13.7381651"><ele>550.5714285714286</ele><time>2026-05-03T08:59:54.889Z</time></trkpt><trkpt lat="42.2661193" lon="13.7381642"><ele>550.2857142857143</ele><time>2026-05-03T08:59:55.888Z</time></trkpt><trkpt lat="42.2661887" lon="13.7381677"><ele>550.0</ele><time>2026-05-03T08:59:56.888Z</time></trkpt><trkpt lat="42.2662621" lon="13.7381673"><ele>550.0</ele><time>2026-05-03T08:59:57.889Z</time></trkpt><trkpt lat="42.2663374" lon="13.7381683"><ele>550.0</ele><time>2026-05-03T08:59:58.889Z</time></trkpt><trkpt lat="42.2664227" lon="13.7381753"><ele>550.0</ele><time>2026-05-03T08:59:59.889Z</time></trkpt><trkpt lat="42.2665235" lon="13.7381856"><ele>550.0</ele><time>2026-05-03T09:00:00.888Z</time></trkpt><trkpt lat="42.2666346" lon="13.7381913"><ele>550.0</ele><time>2026-05-03T09:00:01.888Z</time></trkpt><trkpt lat="42.2667594" lon="13.7381944"><ele>549.25</ele><time>2026-05-03T09:00:02.888Z</time></trkpt><trkpt lat="42.2668894" lon="13.7382003"><ele>548.5</ele><time>2026-05-03T09:00:03.888Z</time></trkpt><trkpt lat="42.2670162" lon="13.7382068"><ele>547.75</ele><time>2026-05-03T09:00:04.888Z</time></trkpt><trkpt lat="42.2671373" lon="13.7382143"><ele>547.0</ele><time>2026-05-03T09:00:05.889Z</time></trkpt><trkpt lat="42.2672514" lon="13.7382224"><ele>546.0</ele><time>2026-05-03T09:00:06.888Z</time></trkpt><trkpt lat="42.2673652" lon="13.7382274"><ele>545.0</ele><time>2026-05-03T09:00:07.888Z</time></trkpt><trkpt lat="42.2674843" lon="13.7382298"><ele>544.0</ele><time>2026-05-03T09:00:08.888Z</time></trkpt><trkpt lat="42.2675971" lon="13.7382367"><ele>543.0</ele><time>2026-05-03T09:00:09.888Z</time></trkpt><trkpt lat="42.2677079" lon="13.7382393"><ele>543.0</ele><time>2026-05-03T09:00:10.888Z</time></trkpt><trkpt lat="42.2678189" lon="13.7382421"><ele>543.0</ele><time>2026-05-03T09:00:11.889Z</time></trkpt><trkpt lat="42.2679258" lon="13.738246"><ele>543.0</ele><time>2026-05-03T09:00:12.888Z</time></trkpt><trkpt lat="42.2680273" lon="13.7382529"><ele>543.0</ele><time>2026-05-03T09:00:13.888Z</time></trkpt><trkpt lat="42.2681228" lon="13.7382569"><ele>543.0</ele><time>2026-05-03T09:00:14.888Z</time></trkpt><trkpt lat="42.268217" lon="13.7382619"><ele>542.0</ele><time>2026-05-03T09:00:15.888Z</time></trkpt><trkpt lat="42.2683046" lon="13.7382666"><ele>541.0</ele><time>2026-05-03T09:00:16.889Z</time></trkpt><trkpt lat="42.2683798" lon="13.7382718"><ele>540.0</ele><time>2026-05-03T09:00:17.888Z</time></trkpt><trkpt lat="42.2684793" lon="13.7382995"><ele>539.0</ele><time>2026-05-03T09:00:19.888Z</time></trkpt><trkpt lat="42.2685563" lon="13.7383166"><ele>538.0</ele><time>2026-05-03T09:04:41.889Z</time></trkpt><trkpt lat="42.2686719" lon="13.7383426"><ele>538.0</ele><time>2026-05-03T09:04:44.887Z</time></trkpt><trkpt lat="42.2687973" lon="13.7383761"><ele>538.0</ele><time>2026-05-03T09:04:46.887Z</time></trkpt><trkpt lat="42.2688707" lon="13.7384067"><ele>538.0</ele><time>2026-05-03T09:04:47.889Z</time></trkpt><trkpt lat="42.268944" lon="13.7384393"><ele>538.0</ele><time>2026-05-03T09:04:48.888Z</time></trkpt><trkpt lat="42.2690189" lon="13.7384734"><ele>538.0</ele><time>2026-05-03T09:04:49.887Z</time></trkpt><trkpt lat="42.2691001" lon="13.7385261"><ele>535.6</ele><time>2026-05-03T09:04:50.887Z</time></trkpt><trkpt lat="42.2691727" lon="13.7385803"><ele>533.1999999999999</ele><time>2026-05-03T09:04:51.888Z</time></trkpt><trkpt lat="42.2692427" lon="13.7386223"><ele>530.8</ele><time>2026-05-03T09:04:52.887Z</time></trkpt><trkpt lat="42.2693066" lon="13.738665"><ele>528.4</ele><time>2026-05-03T09:04:53.888Z</time></trkpt><trkpt lat="42.2693896" lon="13.7387831"><ele>526.0</ele><time>2026-05-03T09:04:55.887Z</time></trkpt><trkpt lat="42.2693875" lon="13.7389661"><ele>526.0</ele><time>2026-05-03T09:04:57.887Z</time></trkpt><trkpt lat="42.269369" lon="13.7390772"><ele>526.0</ele><time>2026-05-03T09:04:58.888Z</time></trkpt><trkpt lat="42.2693522" lon="13.7391868"><ele>526.0</ele><time>2026-05-03T09:04:59.887Z</time></trkpt><trkpt lat="42.2693372" lon="13.7393127"><ele>526.0</ele><time>2026-05-03T09:05:00.888Z</time></trkpt><trkpt lat="42.2693176" lon="13.7394315"><ele>526.0</ele><time>2026-05-03T09:05:01.888Z</time></trkpt><trkpt lat="42.269296" lon="13.7395512"><ele>526.0</ele><time>2026-05-03T09:05:02.887Z</time></trkpt><trkpt lat="42.2692731" lon="13.7396722"><ele>524.6666666666667</ele><time>2026-05-03T09:05:03.888Z</time></trkpt><trkpt lat="42.2692441" lon="13.7397873"><ele>523.3333333333334</ele><time>2026-05-03T09:05:04.887Z</time></trkpt><trkpt lat="42.2692209" lon="13.7399042"><ele>522.0</ele><time>2026-05-03T09:05:05.888Z</time></trkpt><trkpt lat="42.269209" lon="13.7400201"><ele>520.6666666666666</ele><time>2026-05-03T09:05:06.888Z</time></trkpt><trkpt lat="42.2691986" lon="13.7401259"><ele>519.3333333333333</ele><time>2026-05-03T09:05:07.888Z</time></trkpt><trkpt lat="42.2691738" lon="13.740209"><ele>518.0</ele><time>2026-05-03T09:05:08.887Z</time></trkpt><trkpt lat="42.2690752" lon="13.7403353"><ele>515.1666666666666</ele><time>2026-05-03T09:05:10.887Z</time></trkpt><trkpt lat="42.26901" lon="13.7403948"><ele>512.3333333333333</ele><time>2026-05-03T09:05:11.887Z</time></trkpt><trkpt lat="42.2689347" lon="13.7404477"><ele>509.5</ele><time>2026-05-03T09:05:12.888Z</time></trkpt><trkpt lat="42.2688625" lon="13.7404959"><ele>506.66666666666663</ele><time>2026-05-03T09:05:13.888Z</time></trkpt><trkpt lat="42.2687918" lon="13.7405386"><ele>503.8333333333333</ele><time>2026-05-03T09:05:14.887Z</time></trkpt><trkpt lat="42.268722" lon="13.7405698"><ele>501.0</ele><time>2026-05-03T09:05:15.887Z</time></trkpt><trkpt lat="42.2686242" lon="13.7405539"><ele>501.0</ele><time>2026-05-03T09:05:17.887Z</time></trkpt><trkpt lat="42.2685708" lon="13.7404537"><ele>501.0</ele><time>2026-05-03T09:05:19.887Z</time></trkpt><trkpt lat="42.2685525" lon="13.7403361"><ele>501.0</ele><time>2026-05-03T09:05:21.887Z</time></trkpt><trkpt lat="42.268545" lon="13.740235"><ele>501.0</ele><time>2026-05-03T09:05:23.887Z</time></trkpt><trkpt lat="42.2685284" lon="13.7401324"><ele>501.0</ele><time>2026-05-03T09:05:25.887Z</time></trkpt><trkpt lat="42.2684808" lon="13.7400532"><ele>501.0</ele><time>2026-05-03T09:05:27.887Z</time></trkpt><trkpt lat="42.2684046" lon="13.7400379"><ele>501.0</ele><time>2026-05-03T09:05:29.887Z</time></trkpt><trkpt lat="42.2683372" lon="13.7400972"><ele>501.0</ele><time>2026-05-03T09:05:31.888Z</time></trkpt><trkpt lat="42.2682852" lon="13.7402341"><ele>501.0</ele><time>2026-05-03T09:05:33.887Z</time></trkpt><trkpt lat="42.2682041" lon="13.7403303"><ele>501.0</ele><time>2026-05-03T09:05:35.887Z</time></trkpt><trkpt lat="42.2680874" lon="13.7403964"><ele>501.0</ele><time>2026-05-03T09:05:37.888Z</time></trkpt><trkpt lat="42.2680181" lon="13.7404228"><ele>499.4</ele><time>2026-05-03T09:05:38.887Z</time></trkpt><trkpt lat="42.2679419" lon="13.7404537"><ele>497.8</ele><time>2026-05-03T09:05:39.888Z</time></trkpt><trkpt lat="42.2678331" lon="13.7404915"><ele>496.19999999999993</ele><time>2026-05-03T09:05:41.887Z</time></trkpt><trkpt lat="42.2677211" lon="13.7404934"><ele>494.59999999999997</ele><time>2026-05-03T09:05:43.887Z</time></trkpt><trkpt lat="42.2676016" lon="13.7404678"><ele>493.0</ele><time>2026-05-03T09:05:45.887Z</time></trkpt><trkpt lat="42.2675376" lon="13.7404477"><ele>493.0</ele><time>2026-05-03T09:05:46.887Z</time></trkpt><trkpt lat="42.2674788" lon="13.7404092"><ele>493.0</ele><time>2026-05-03T09:05:47.888Z</time></trkpt><trkpt lat="42.2674199" lon="13.7403651"><ele>493.0</ele><time>2026-05-03T09:05:48.887Z</time></trkpt><trkpt lat="42.2673638" lon="13.7403204"><ele>493.0</ele><time>2026-05-03T09:05:49.887Z</time></trkpt><trkpt lat="42.2673034" lon="13.7402794"><ele>493.0</ele><time>2026-05-03T09:05:50.888Z</time></trkpt><trkpt lat="42.2672424" lon="13.7402423"><ele>493.0</ele><time>2026-05-03T09:05:51.887Z</time></trkpt><trkpt lat="42.2671275" lon="13.7402124"><ele>493.0</ele><time>2026-05-03T09:05:53.887Z</time></trkpt><trkpt lat="42.2670172" lon="13.7402195"><ele>494.1428571428571</ele><time>2026-05-03T09:05:55.888Z</time></trkpt><trkpt lat="42.2669516" lon="13.7402"><ele>495.28571428571433</ele><time>2026-05-03T09:05:56.887Z</time></trkpt><trkpt lat="42.2668845" lon="13.7401767"><ele>496.42857142857144</ele><time>2026-05-03T09:05:57.887Z</time></trkpt><trkpt lat="42.266808" lon="13.7401668"><ele>497.57142857142856</ele><time>2026-05-03T09:05:58.887Z</time></trkpt><trkpt lat="42.266735" lon="13.7401777"><ele>498.71428571428567</ele><time>2026-05-03T09:05:59.888Z</time></trkpt><trkpt lat="42.2666596" lon="13.7401895"><ele>499.8571428571429</ele><time>2026-05-03T09:06:00.887Z</time></trkpt><trkpt lat="42.266587" lon="13.7401934"><ele>501.0</ele><time>2026-05-03T09:06:01.888Z</time></trkpt><trkpt lat="42.2665098" lon="13.7402157"><ele>498.6666666666667</ele><time>2026-05-03T09:06:02.888Z</time></trkpt><trkpt lat="42.2664276" lon="13.7402404"><ele>496.33333333333337</ele><time>2026-05-03T09:06:03.887Z</time></trkpt><trkpt lat="42.2663481" lon="13.7402607"><ele>494.0</ele><time>2026-05-03T09:06:04.887Z</time></trkpt><trkpt lat="42.2662847" lon="13.7402818"><ele>491.6666666666667</ele><time>2026-05-03T09:06:05.887Z</time></trkpt><trkpt lat="42.2661791" lon="13.740377"><ele>489.33333333333337</ele><time>2026-05-03T09:06:07.887Z</time></trkpt><trkpt lat="42.2661155" lon="13.740452"><ele>487.0</ele><time>2026-05-03T09:06:08.887Z</time></trkpt><trkpt lat="42.2660475" lon="13.7405304"><ele>487.00000000000006</ele><time>2026-05-03T09:06:09.887Z</time></trkpt><trkpt lat="42.2659765" lon="13.7405961"><ele>487.0</ele><time>2026-05-03T09:06:10.887Z</time></trkpt><trkpt lat="42.2659106" lon="13.7406649"><ele>487.0</ele><time>2026-05-03T09:06:11.887Z</time></trkpt><trkpt lat="42.2658481" lon="13.7407384"><ele>487.0</ele><time>2026-05-03T09:06:12.887Z</time></trkpt><trkpt lat="42.2657845" lon="13.7408046"><ele>487.00000000000006</ele><time>2026-05-03T09:06:13.887Z</time></trkpt><trkpt lat="42.2657192" lon="13.74086"><ele>487.0</ele><time>2026-05-03T09:06:14.887Z</time></trkpt><trkpt lat="42.2656446" lon="13.7409067"><ele>487.00000000000006</ele><time>2026-05-03T09:06:15.887Z</time></trkpt><trkpt lat="42.2655668" lon="13.7409388"><ele>487.0</ele><time>2026-05-03T09:06:16.887Z</time></trkpt><trkpt lat="42.265495" lon="13.7409605"><ele>487.0</ele><time>2026-05-03T09:06:17.887Z</time></trkpt><trkpt lat="42.2654154" lon="13.7409785"><ele>487.0</ele><time>2026-05-03T09:06:18.887Z</time></trkpt><trkpt lat="42.2653362" lon="13.7409907"><ele>487.00000000000006</ele><time>2026-05-03T09:06:19.888Z</time></trkpt><trkpt lat="42.2652597" lon="13.7409863"><ele>487.0</ele><time>2026-05-03T09:06:20.887Z</time></trkpt><trkpt lat="42.2651743" lon="13.7409837"><ele>487.00000000000006</ele><time>2026-05-03T09:06:21.887Z</time></trkpt><trkpt lat="42.2650871" lon="13.7409685"><ele>487.0</ele><time>2026-05-03T09:06:22.887Z</time></trkpt><trkpt lat="42.2649979" lon="13.7409532"><ele>487.0</ele><time>2026-05-03T09:06:23.887Z</time></trkpt><trkpt lat="42.2649048" lon="13.7409526"><ele>487.0</ele><time>2026-05-03T09:06:24.887Z</time></trkpt><trkpt lat="42.2648214" lon="13.7409619"><ele>487.00000000000006</ele><time>2026-05-03T09:06:25.889Z</time></trkpt><trkpt lat="42.2647353" lon="13.7409869"><ele>487.0</ele><time>2026-05-03T09:06:26.888Z</time></trkpt><trkpt lat="42.2646489" lon="13.7410372"><ele>484.83333333333337</ele><time>2026-05-03T09:06:27.887Z</time></trkpt><trkpt lat="42.2645663" lon="13.7410917"><ele>482.6666666666667</ele><time>2026-05-03T09:06:28.888Z</time></trkpt><trkpt lat="42.2644851" lon="13.7411363"><ele>480.5</ele><time>2026-05-03T09:06:29.888Z</time></trkpt><trkpt lat="42.2643991" lon="13.7411719"><ele>478.33333333333337</ele><time>2026-05-03T09:06:30.888Z</time></trkpt><trkpt lat="42.2643126" lon="13.7412015"><ele>476.1666666666667</ele><time>2026-05-03T09:06:31.888Z</time></trkpt><trkpt lat="42.2642245" lon="13.7412248"><ele>474.0</ele><time>2026-05-03T09:06:32.887Z</time></trkpt><trkpt lat="42.2641294" lon="13.7412381"><ele>474.0</ele><time>2026-05-03T09:06:33.887Z</time></trkpt><trkpt lat="42.2640376" lon="13.7412396"><ele>474.0</ele><time>2026-05-03T09:06:34.887Z</time></trkpt><trkpt lat="42.2639418" lon="13.7412392"><ele>474.0</ele><time>2026-05-03T09:06:35.887Z</time></trkpt><trkpt lat="42.2638418" lon="13.7412407"><ele>474.0</ele><time>2026-05-03T09:06:36.887Z</time></trkpt><trkpt lat="42.263746" lon="13.7412454"><ele>474.0</ele><time>2026-05-03T09:06:37.888Z</time></trkpt><trkpt lat="42.2636538" lon="13.7412466"><ele>474.0</ele><time>2026-05-03T09:06:38.887Z</time></trkpt><trkpt lat="42.2635902" lon="13.7412522"><ele>474.0</ele><time>2026-05-03T09:06:39.888Z</time></trkpt><trkpt lat="42.2635154" lon="13.7413121"><ele>474.0</ele><time>2026-05-03T09:06:41.887Z</time></trkpt><trkpt lat="42.263438" lon="13.7414041"><ele>474.0</ele><time>2026-05-03T09:06:43.888Z</time></trkpt><trkpt lat="42.2633659" lon="13.7415067"><ele>474.0</ele><time>2026-05-03T09:06:45.888Z</time></trkpt><trkpt lat="42.2633448" lon="13.741605"><ele>474.0</ele><time>2026-05-03T09:06:47.888Z</time></trkpt><trkpt lat="42.2632853" lon="13.7416869"><ele>474.0</ele><time>2026-05-03T09:06:49.887Z</time></trkpt><trkpt lat="42.2631907" lon="13.7417346"><ele>474.0</ele><time>2026-05-03T09:06:51.887Z</time></trkpt><trkpt lat="42.2631339" lon="13.741779"><ele>474.0</ele><time>2026-05-03T09:06:53.887Z</time></trkpt><trkpt lat="42.2631303" lon="13.7418795"><ele>474.0</ele><time>2026-05-03T09:06:55.887Z</time></trkpt><trkpt lat="42.2631648" lon="13.7420142"><ele>474.0</ele><time>2026-05-03T09:06:57.888Z</time></trkpt><trkpt lat="42.2631321" lon="13.7421333"><ele>474.0</ele><time>2026-05-03T09:06:59.887Z</time></trkpt><trkpt lat="42.2630641" lon="13.7421736"><ele>472.0</ele><time>2026-05-03T09:07:01.887Z</time></trkpt><trkpt lat="42.2630168" lon="13.7422624"><ele>470.0</ele><time>2026-05-03T09:07:03.888Z</time></trkpt><trkpt lat="42.2630399" lon="13.7424401"><ele>468.0</ele><time>2026-05-03T09:07:05.887Z</time></trkpt><trkpt lat="42.2630452" lon="13.7425264"><ele>466.0</ele><time>2026-05-03T09:07:06.888Z</time></trkpt><trkpt lat="42.263046" lon="13.7426123"><ele>464.0</ele><time>2026-05-03T09:07:07.887Z</time></trkpt><trkpt lat="42.2629862" lon="13.7427421"><ele>462.8333333333333</ele><time>2026-05-03T09:07:09.887Z</time></trkpt><trkpt lat="42.2629248" lon="13.7427747"><ele>461.66666666666663</ele><time>2026-05-03T09:07:10.887Z</time></trkpt><trkpt lat="42.262854" lon="13.7427963"><ele>460.5</ele><time>2026-05-03T09:07:11.888Z</time></trkpt><trkpt lat="42.2627888" lon="13.7428327"><ele>459.33333333333337</ele><time>2026-05-03T09:07:12.888Z</time></trkpt><trkpt lat="42.2627081" lon="13.7428945"><ele>458.1666666666667</ele><time>2026-05-03T09:07:13.887Z</time></trkpt><trkpt lat="42.2626272" lon="13.742957"><ele>457.0</ele><time>2026-05-03T09:07:14.887Z</time></trkpt><trkpt lat="42.2625528" lon="13.7430168"><ele>457.00000000000006</ele><time>2026-05-03T09:07:15.887Z</time></trkpt><trkpt lat="42.2624747" lon="13.7430581"><ele>457.0</ele><time>2026-05-03T09:07:16.887Z</time></trkpt><trkpt lat="42.2624008" lon="13.7430831"><ele>457.0</ele><time>2026-05-03T09:07:17.887Z</time></trkpt><trkpt lat="42.2623328" lon="13.7431318"><ele>457.0</ele><time>2026-05-03T09:07:18.887Z</time></trkpt><trkpt lat="42.2622748" lon="13.7432142"><ele>457.00000000000006</ele><time>2026-05-03T09:07:19.887Z</time></trkpt><trkpt lat="42.2622257" lon="13.7433285"><ele>457.0</ele><time>2026-05-03T09:07:20.887Z</time></trkpt><trkpt lat="42.2621884" lon="13.7434399"><ele>457.0</ele><time>2026-05-03T09:07:21.888Z</time></trkpt><trkpt lat="42.2621434" lon="13.7435316"><ele>457.00000000000006</ele><time>2026-05-03T09:07:22.887Z</time></trkpt><trkpt lat="42.2620998" lon="13.7436414"><ele>457.00000000000006</ele><time>2026-05-03T09:07:24.887Z</time></trkpt><trkpt lat="42.2621248" lon="13.7437352"><ele>457.0</ele><time>2026-05-03T09:07:26.887Z</time></trkpt><trkpt lat="42.2621989" lon="13.7438622"><ele>457.0</ele><time>2026-05-03T09:07:28.887Z</time></trkpt><trkpt lat="42.2623019" lon="13.7439554"><ele>456.20000000000005</ele><time>2026-05-03T09:07:30.887Z</time></trkpt><trkpt lat="42.2623798" lon="13.7439722"><ele>455.40000000000003</ele><time>2026-05-03T09:07:31.887Z</time></trkpt><trkpt lat="42.2624681" lon="13.7439737"><ele>454.59999999999997</ele><time>2026-05-03T09:07:32.888Z</time></trkpt><trkpt lat="42.2625645" lon="13.7439697"><ele>453.79999999999995</ele><time>2026-05-03T09:07:33.887Z</time></trkpt><trkpt lat="42.2626692" lon="13.7439589"><ele>453.0</ele><time>2026-05-03T09:07:34.887Z</time></trkpt><trkpt lat="42.2627792" lon="13.743947"><ele>453.0</ele><time>2026-05-03T09:07:35.888Z</time></trkpt><trkpt lat="42.262897" lon="13.7439357"><ele>453.0</ele><time>2026-05-03T09:07:36.888Z</time></trkpt><trkpt lat="42.2630178" lon="13.7439258"><ele>453.0</ele><time>2026-05-03T09:07:37.888Z</time></trkpt><trkpt lat="42.263139" lon="13.743914"><ele>453.0</ele><time>2026-05-03T09:07:38.887Z</time></trkpt><trkpt lat="42.2632661" lon="13.7439029"><ele>452.25</ele><time>2026-05-03T09:07:39.888Z</time></trkpt><trkpt lat="42.2633922" lon="13.743904"><ele>451.5</ele><time>2026-05-03T09:07:40.887Z</time></trkpt><trkpt lat="42.2635166" lon="13.7439169"><ele>450.75</ele><time>2026-05-03T09:07:41.887Z</time></trkpt><trkpt lat="42.2636386" lon="13.7439428"><ele>450.0</ele><time>2026-05-03T09:07:42.888Z</time></trkpt><trkpt lat="42.2637589" lon="13.7439728"><ele>450.0</ele><time>2026-05-03T09:07:43.888Z</time></trkpt><trkpt lat="42.2638775" lon="13.7439987"><ele>450.0</ele><time>2026-05-03T09:07:44.888Z</time></trkpt><trkpt lat="42.2639964" lon="13.7440097"><ele>450.0</ele><time>2026-05-03T09:07:45.888Z</time></trkpt><trkpt lat="42.2641144" lon="13.74403"><ele>450.0</ele><time>2026-05-03T09:07:46.888Z</time></trkpt><trkpt lat="42.2642321" lon="13.7440582"><ele>449.5</ele><time>2026-05-03T09:07:47.888Z</time></trkpt><trkpt lat="42.2643523" lon="13.7440805"><ele>449.0</ele><time>2026-05-03T09:07:48.887Z</time></trkpt><trkpt lat="42.264465" lon="13.7440803"><ele>448.5</ele><time>2026-05-03T09:07:49.887Z</time></trkpt><trkpt lat="42.2645796" lon="13.744058"><ele>448.0</ele><time>2026-05-03T09:07:50.888Z</time></trkpt><trkpt lat="42.2646898" lon="13.7440172"><ele>448.0</ele><time>2026-05-03T09:07:51.888Z</time></trkpt><trkpt lat="42.2647895" lon="13.7439613"><ele>448.0</ele><time>2026-05-03T09:07:52.889Z</time></trkpt><trkpt lat="42.2648911" lon="13.7438778"><ele>448.0</ele><time>2026-05-03T09:07:53.888Z</time></trkpt><trkpt lat="42.2649947" lon="13.7437895"><ele>448.0</ele><time>2026-05-03T09:07:54.888Z</time></trkpt><trkpt lat="42.2651073" lon="13.7437102"><ele>448.0</ele><time>2026-05-03T09:07:55.887Z</time></trkpt><trkpt lat="42.2652217" lon="13.7436406"><ele>448.0</ele><time>2026-05-03T09:07:56.888Z</time></trkpt><trkpt lat="42.26533" lon="13.7435817"><ele>448.0</ele><time>2026-05-03T09:07:57.887Z</time></trkpt><trkpt lat="42.2654355" lon="13.743538"><ele>448.0</ele><time>2026-05-03T09:07:58.888Z</time></trkpt><trkpt lat="42.2655549" lon="13.7435174"><ele>448.0</ele><time>2026-05-03T09:07:59.887Z</time></trkpt><trkpt lat="42.2656754" lon="13.7435144"><ele>448.0</ele><time>2026-05-03T09:08:00.887Z</time></trkpt><trkpt lat="42.2657958" lon="13.7435144"><ele>448.0</ele><time>2026-05-03T09:08:01.888Z</time></trkpt><trkpt lat="42.2659238" lon="13.7435017"><ele>448.0</ele><time>2026-05-03T09:08:02.887Z</time></trkpt><trkpt lat="42.2660506" lon="13.7434918"><ele>448.0</ele><time>2026-05-03T09:08:03.888Z</time></trkpt><trkpt lat="42.2661735" lon="13.7435016"><ele>448.0</ele><time>2026-05-03T09:08:04.887Z</time></trkpt><trkpt lat="42.2663041" lon="13.7435336"><ele>448.0</ele><time>2026-05-03T09:08:05.887Z</time></trkpt><trkpt lat="42.2664336" lon="13.743565"><ele>448.0</ele><time>2026-05-03T09:08:06.888Z</time></trkpt><trkpt lat="42.2665602" lon="13.7435808"><ele>447.5</ele><time>2026-05-03T09:08:07.887Z</time></trkpt><trkpt lat="42.2666811" lon="13.7435844"><ele>447.0</ele><time>2026-05-03T09:08:08.888Z</time></trkpt><trkpt lat="42.2667961" lon="13.7435712"><ele>446.5</ele><time>2026-05-03T09:08:09.886Z</time></trkpt><trkpt lat="42.2669069" lon="13.743542"><ele>446.0</ele><time>2026-05-03T09:08:10.887Z</time></trkpt><trkpt lat="42.2670179" lon="13.7434873"><ele>446.0</ele><time>2026-05-03T09:08:11.887Z</time></trkpt><trkpt lat="42.2671275" lon="13.7434355"><ele>446.0</ele><time>2026-05-03T09:08:12.888Z</time></trkpt><trkpt lat="42.2672329" lon="13.7433974"><ele>446.0</ele><time>2026-05-03T09:08:13.888Z</time></trkpt><trkpt lat="42.2673355" lon="13.7433862"><ele>446.0</ele><time>2026-05-03T09:08:14.888Z</time></trkpt><trkpt lat="42.2674332" lon="13.7433668"><ele>446.0</ele><time>2026-05-03T09:08:15.888Z</time></trkpt><trkpt lat="42.2675253" lon="13.7433502"><ele>444.6</ele><time>2026-05-03T09:08:16.887Z</time></trkpt><trkpt lat="42.2676158" lon="13.743354"><ele>443.20000000000005</ele><time>2026-05-03T09:08:17.887Z</time></trkpt><trkpt lat="42.2677154" lon="13.7433828"><ele>441.79999999999995</ele><time>2026-05-03T09:08:18.888Z</time></trkpt><trkpt lat="42.2678195" lon="13.7434242"><ele>440.4</ele><time>2026-05-03T09:08:19.888Z</time></trkpt><trkpt lat="42.2679262" lon="13.7434785"><ele>439.0</ele><time>2026-05-03T09:08:20.888Z</time></trkpt><trkpt lat="42.2680386" lon="13.7435539"><ele>440.0</ele><time>2026-05-03T09:08:21.887Z</time></trkpt><trkpt lat="42.2681456" lon="13.7436328"><ele>441.0</ele><time>2026-05-03T09:08:22.888Z</time></trkpt><trkpt lat="42.268244" lon="13.7436861"><ele>442.0</ele><time>2026-05-03T09:08:23.888Z</time></trkpt><trkpt lat="42.2683331" lon="13.7437282"><ele>443.0</ele><time>2026-05-03T09:08:24.887Z</time></trkpt><trkpt lat="42.2684293" lon="13.7437412"><ele>444.0</ele><time>2026-05-03T09:08:25.887Z</time></trkpt><trkpt lat="42.2685261" lon="13.7437559"><ele>444.0</ele><time>2026-05-03T09:08:26.887Z</time></trkpt><trkpt lat="42.2686229" lon="13.7437767"><ele>444.0</ele><time>2026-05-03T09:08:27.887Z</time></trkpt><trkpt lat="42.2687115" lon="13.7437642"><ele>444.0</ele><time>2026-05-03T09:08:28.888Z</time></trkpt><trkpt lat="42.2687966" lon="13.7437125"><ele>444.0</ele><time>2026-05-03T09:08:29.887Z</time></trkpt><trkpt lat="42.2688846" lon="13.7436376"><ele>444.0</ele><time>2026-05-03T09:08:30.887Z</time></trkpt><trkpt lat="42.2689627" lon="13.7435643"><ele>442.5</ele><time>2026-05-03T09:08:31.887Z</time></trkpt><trkpt lat="42.2690171" lon="13.7434694"><ele>441.0</ele><time>2026-05-03T09:08:32.887Z</time></trkpt><trkpt lat="42.269052" lon="13.7433635"><ele>439.5</ele><time>2026-05-03T09:08:33.888Z</time></trkpt><trkpt lat="42.2691045" lon="13.7432874"><ele>438.0</ele><time>2026-05-03T09:08:34.888Z</time></trkpt><trkpt lat="42.269172" lon="13.7432345"><ele>436.5</ele><time>2026-05-03T09:08:35.888Z</time></trkpt><trkpt lat="42.2692577" lon="13.7432079"><ele>435.0</ele><time>2026-05-03T09:08:36.888Z</time></trkpt><trkpt lat="42.2693545" lon="13.7431903"><ele>435.0</ele><time>2026-05-03T09:08:37.887Z</time></trkpt><trkpt lat="42.2694531" lon="13.743194"><ele>435.0</ele><time>2026-05-03T09:08:38.886Z</time></trkpt><trkpt lat="42.2695634" lon="13.7432182"><ele>435.0</ele><time>2026-05-03T09:08:39.886Z</time></trkpt><trkpt lat="42.2696729" lon="13.7432719"><ele>435.0</ele><time>2026-05-03T09:08:40.886Z</time></trkpt><trkpt lat="42.2697867" lon="13.7433377"><ele>434.75</ele><time>2026-05-03T09:08:41.886Z</time></trkpt><trkpt lat="42.2698924" lon="13.743412"><ele>434.5</ele><time>2026-05-03T09:08:42.886Z</time></trkpt><trkpt lat="42.2699934" lon="13.7435101"><ele>434.25</ele><time>2026-05-03T09:08:43.886Z</time></trkpt><trkpt lat="42.270099" lon="13.7435951"><ele>434.0</ele><time>2026-05-03T09:08:44.886Z</time></trkpt><trkpt lat="42.2702111" lon="13.7436781"><ele>432.5</ele><time>2026-05-03T09:08:45.887Z</time></trkpt><trkpt lat="42.2703112" lon="13.7437573"><ele>431.0</ele><time>2026-05-03T09:08:46.886Z</time></trkpt><trkpt lat="42.2704087" lon="13.7438249"><ele>429.5</ele><time>2026-05-03T09:08:47.886Z</time></trkpt><trkpt lat="42.2705129" lon="13.7438608"><ele>428.0</ele><time>2026-05-03T09:08:48.886Z</time></trkpt><trkpt lat="42.2706351" lon="13.7439004"><ele>427.79999999999995</ele><time>2026-05-03T09:08:49.887Z</time></trkpt><trkpt lat="42.2707446" lon="13.7439484"><ele>427.59999999999997</ele><time>2026-05-03T09:08:50.886Z</time></trkpt><trkpt lat="42.2708308" lon="13.7440124"><ele>427.40000000000003</ele><time>2026-05-03T09:08:51.886Z</time></trkpt><trkpt lat="42.2708805" lon="13.7440827"><ele>427.20000000000005</ele><time>2026-05-03T09:08:52.886Z</time></trkpt><trkpt lat="42.2709135" lon="13.7441813"><ele>427.0</ele><time>2026-05-03T09:08:54.887Z</time></trkpt><trkpt lat="42.270923" lon="13.7443309"><ele>426.40000000000003</ele><time>2026-05-03T09:08:56.886Z</time></trkpt><trkpt lat="42.2709523" lon="13.7444124"><ele>425.80000000000007</ele><time>2026-05-03T09:08:57.886Z</time></trkpt><trkpt lat="42.2709885" lon="13.7445139"><ele>425.2</ele><time>2026-05-03T09:08:58.887Z</time></trkpt><trkpt lat="42.2710305" lon="13.7446233"><ele>424.6</ele><time>2026-05-03T09:08:59.886Z</time></trkpt><trkpt lat="42.2710891" lon="13.7447552"><ele>424.0</ele><time>2026-05-03T09:09:00.886Z</time></trkpt><trkpt lat="42.2711571" lon="13.7448965"><ele>424.0</ele><time>2026-05-03T09:09:01.886Z</time></trkpt><trkpt lat="42.2712246" lon="13.7450305"><ele>424.0</ele><time>2026-05-03T09:09:02.887Z</time></trkpt><trkpt lat="42.2712892" lon="13.7451557"><ele>424.0</ele><time>2026-05-03T09:09:03.886Z</time></trkpt><trkpt lat="42.2713544" lon="13.7452879"><ele>424.0</ele><time>2026-05-03T09:09:04.887Z</time></trkpt><trkpt lat="42.2714053" lon="13.7454186"><ele>423.79999999999995</ele><time>2026-05-03T09:09:05.887Z</time></trkpt><trkpt lat="42.271442" lon="13.7455528"><ele>423.59999999999997</ele><time>2026-05-03T09:09:06.887Z</time></trkpt><trkpt lat="42.2714622" lon="13.7456874"><ele>423.4</ele><time>2026-05-03T09:09:07.886Z</time></trkpt><trkpt lat="42.2714702" lon="13.7458245"><ele>423.2</ele><time>2026-05-03T09:09:08.887Z</time></trkpt><trkpt lat="42.2714872" lon="13.7459603"><ele>423.0</ele><time>2026-05-03T09:09:09.886Z</time></trkpt><trkpt lat="42.2715125" lon="13.7461044"><ele>423.0</ele><time>2026-05-03T09:09:10.886Z</time></trkpt><trkpt lat="42.271547" lon="13.746241"><ele>423.0</ele><time>2026-05-03T09:09:11.886Z</time></trkpt><trkpt lat="42.2715967" lon="13.746387"><ele>423.0</ele><time>2026-05-03T09:09:12.887Z</time></trkpt><trkpt lat="42.2716558" lon="13.7465301"><ele>423.0</ele><time>2026-05-03T09:09:13.886Z</time></trkpt><trkpt lat="42.2717191" lon="13.746682"><ele>423.0</ele><time>2026-05-03T09:09:14.886Z</time></trkpt><trkpt lat="42.2717947" lon="13.7468366"><ele>423.0</ele><time>2026-05-03T09:09:15.886Z</time></trkpt><trkpt lat="42.2718688" lon="13.7469804"><ele>423.0</ele><time>2026-05-03T09:09:16.886Z</time></trkpt><trkpt lat="42.2719413" lon="13.7471272"><ele>423.0</ele><time>2026-05-03T09:09:17.886Z</time></trkpt><trkpt lat="42.2720188" lon="13.7472775"><ele>423.75</ele><time>2026-05-03T09:09:18.886Z</time></trkpt><trkpt lat="42.2721055" lon="13.7474329"><ele>424.5</ele><time>2026-05-03T09:09:19.887Z</time></trkpt><trkpt lat="42.2721778" lon="13.7475718"><ele>425.25</ele><time>2026-05-03T09:09:20.887Z</time></trkpt><trkpt lat="42.2722492" lon="13.7476878"><ele>426.0</ele><time>2026-05-03T09:09:21.886Z</time></trkpt><trkpt lat="42.2723163" lon="13.7477803"><ele>426.0</ele><time>2026-05-03T09:09:22.886Z</time></trkpt><trkpt lat="42.2723889" lon="13.7478415"><ele>426.0</ele><time>2026-05-03T09:09:23.887Z</time></trkpt><trkpt lat="42.2724868" lon="13.7479133"><ele>426.0</ele><time>2026-05-03T09:09:24.886Z</time></trkpt><trkpt lat="42.2725966" lon="13.7480074"><ele>426.0</ele><time>2026-05-03T09:09:25.887Z</time></trkpt><trkpt lat="42.2726966" lon="13.7481106"><ele>426.0</ele><time>2026-05-03T09:09:26.887Z</time></trkpt><trkpt lat="42.272804" lon="13.7482394"><ele>426.0</ele><time>2026-05-03T09:09:27.886Z</time></trkpt><trkpt lat="42.2729225" lon="13.7483972"><ele>426.0</ele><time>2026-05-03T09:09:28.887Z</time></trkpt><trkpt lat="42.273027" lon="13.748564"><ele>423.66666666666663</ele><time>2026-05-03T09:09:29.887Z</time></trkpt><trkpt lat="42.2731418" lon="13.7487228"><ele>421.3333333333333</ele><time>2026-05-03T09:09:30.886Z</time></trkpt><trkpt lat="42.2732624" lon="13.7488724"><ele>419.0</ele><time>2026-05-03T09:09:31.887Z</time></trkpt><trkpt lat="42.2733924" lon="13.7490193"><ele>419.0</ele><time>2026-05-03T09:09:32.887Z</time></trkpt><trkpt lat="42.2735221" lon="13.7491457"><ele>419.0</ele><time>2026-05-03T09:09:33.887Z</time></trkpt><trkpt lat="42.273655" lon="13.7492484"><ele>419.0</ele><time>2026-05-03T09:09:34.886Z</time></trkpt><trkpt lat="42.2737658" lon="13.7493262"><ele>419.0</ele><time>2026-05-03T09:09:35.886Z</time></trkpt><trkpt lat="42.2738563" lon="13.7494043"><ele>419.0</ele><time>2026-05-03T09:09:36.887Z</time></trkpt><trkpt lat="42.2739164" lon="13.7494881"><ele>419.0</ele><time>2026-05-03T09:09:37.886Z</time></trkpt><trkpt lat="42.2739406" lon="13.7495824"><ele>419.0</ele><time>2026-05-03T09:09:38.887Z</time></trkpt><trkpt lat="42.273936" lon="13.7496981"><ele>419.0</ele><time>2026-05-03T09:09:39.886Z</time></trkpt><trkpt lat="42.2739003" lon="13.7498244"><ele>419.0</ele><time>2026-05-03T09:09:40.887Z</time></trkpt><trkpt lat="42.2738423" lon="13.7499849"><ele>419.0</ele><time>2026-05-03T09:09:41.887Z</time></trkpt><trkpt lat="42.2737697" lon="13.7501722"><ele>419.0</ele><time>2026-05-03T09:09:42.886Z</time></trkpt><trkpt lat="42.2737041" lon="13.7503323"><ele>419.0</ele><time>2026-05-03T09:09:43.886Z</time></trkpt><trkpt lat="42.2736522" lon="13.750456"><ele>419.0</ele><time>2026-05-03T09:09:44.886Z</time></trkpt><trkpt lat="42.2736251" lon="13.7505678"><ele>419.0</ele><time>2026-05-03T09:09:45.886Z</time></trkpt><trkpt lat="42.2736278" lon="13.7506802"><ele>419.0</ele><time>2026-05-03T09:09:46.886Z</time></trkpt><trkpt lat="42.2736568" lon="13.7508198"><ele>419.0</ele><time>2026-05-03T09:09:47.886Z</time></trkpt><trkpt lat="42.2737147" lon="13.7509662"><ele>419.0</ele><time>2026-05-03T09:09:48.886Z</time></trkpt><trkpt lat="42.2737758" lon="13.7510716"><ele>419.0</ele><time>2026-05-03T09:09:49.886Z</time></trkpt><trkpt lat="42.2738314" lon="13.7511467"><ele>418.6</ele><time>2026-05-03T09:09:50.886Z</time></trkpt><trkpt lat="42.2738933" lon="13.7511812"><ele>418.2</ele><time>2026-05-03T09:09:51.886Z</time></trkpt><trkpt lat="42.2739766" lon="13.7511851"><ele>417.8</ele><time>2026-05-03T09:09:52.886Z</time></trkpt><trkpt lat="42.2740859" lon="13.7511553"><ele>417.40000000000003</ele><time>2026-05-03T09:09:53.886Z</time></trkpt><trkpt lat="42.2741961" lon="13.7511049"><ele>417.0</ele><time>2026-05-03T09:09:54.887Z</time></trkpt><trkpt lat="42.2743068" lon="13.7510594"><ele>416.75</ele><time>2026-05-03T09:09:55.887Z</time></trkpt><trkpt lat="42.2744251" lon="13.7510142"><ele>416.5</ele><time>2026-05-03T09:09:56.886Z</time></trkpt><trkpt lat="42.274542" lon="13.7509812"><ele>416.25</ele><time>2026-05-03T09:09:57.887Z</time></trkpt><trkpt lat="42.2746701" lon="13.7509587"><ele>416.0</ele><time>2026-05-03T09:09:58.887Z</time></trkpt><trkpt lat="42.2747981" lon="13.750944"><ele>415.0</ele><time>2026-05-03T09:09:59.887Z</time></trkpt><trkpt lat="42.2749226" lon="13.7509366"><ele>414.0</ele><time>2026-05-03T09:10:00.887Z</time></trkpt><trkpt lat="42.275048" lon="13.7509417"><ele>413.0</ele><time>2026-05-03T09:10:01.886Z</time></trkpt><trkpt lat="42.2751779" lon="13.7509426"><ele>412.0</ele><time>2026-05-03T09:10:02.887Z</time></trkpt><trkpt lat="42.2753077" lon="13.7509467"><ele>412.0</ele><time>2026-05-03T09:10:03.887Z</time></trkpt><trkpt lat="42.2754373" lon="13.7509576"><ele>412.0</ele><time>2026-05-03T09:10:04.887Z</time></trkpt><trkpt lat="42.2755625" lon="13.7509707"><ele>412.0</ele><time>2026-05-03T09:10:05.886Z</time></trkpt><trkpt lat="42.2756843" lon="13.7509808"><ele>412.0</ele><time>2026-05-03T09:10:06.886Z</time></trkpt><trkpt lat="42.2758" lon="13.7509877"><ele>411.40000000000003</ele><time>2026-05-03T09:10:07.887Z</time></trkpt><trkpt lat="42.2759143" lon="13.7509999"><ele>410.8</ele><time>2026-05-03T09:10:08.886Z</time></trkpt><trkpt lat="42.2760251" lon="13.7510269"><ele>410.2</ele><time>2026-05-03T09:10:09.886Z</time></trkpt><trkpt lat="42.276117" lon="13.7510977"><ele>409.6</ele><time>2026-05-03T09:10:10.887Z</time></trkpt><trkpt lat="42.2761962" lon="13.7511897"><ele>409.0</ele><time>2026-05-03T09:10:11.886Z</time></trkpt><trkpt lat="42.2762699" lon="13.7512955"><ele>408.2</ele><time>2026-05-03T09:10:12.887Z</time></trkpt><trkpt lat="42.2763461" lon="13.7514006"><ele>407.4</ele><time>2026-05-03T09:10:13.887Z</time></trkpt><trkpt lat="42.2764311" lon="13.7514908"><ele>406.6</ele><time>2026-05-03T09:10:14.886Z</time></trkpt><trkpt lat="42.276526" lon="13.751568"><ele>405.8</ele><time>2026-05-03T09:10:15.887Z</time></trkpt><trkpt lat="42.2766336" lon="13.7516177"><ele>405.0</ele><time>2026-05-03T09:10:16.887Z</time></trkpt><trkpt lat="42.2767541" lon="13.751662"><ele>404.4</ele><time>2026-05-03T09:10:17.886Z</time></trkpt><trkpt lat="42.2768658" lon="13.7517034"><ele>403.8</ele><time>2026-05-03T09:10:18.886Z</time></trkpt><trkpt lat="42.2769814" lon="13.7517374"><ele>403.20000000000005</ele><time>2026-05-03T09:10:19.886Z</time></trkpt><trkpt lat="42.2770913" lon="13.7517648"><ele>402.6</ele><time>2026-05-03T09:10:20.887Z</time></trkpt><trkpt lat="42.2771926" lon="13.7517787"><ele>402.0</ele><time>2026-05-03T09:10:21.886Z</time></trkpt><trkpt lat="42.2772844" lon="13.7517959"><ele>401.8</ele><time>2026-05-03T09:10:22.886Z</time></trkpt><trkpt lat="42.2773592" lon="13.7518204"><ele>401.6</ele><time>2026-05-03T09:10:23.887Z</time></trkpt><trkpt lat="42.2774647" lon="13.7518723"><ele>401.40000000000003</ele><time>2026-05-03T09:10:25.886Z</time></trkpt><trkpt lat="42.277533" lon="13.751931"><ele>401.20000000000005</ele><time>2026-05-03T09:10:27.886Z</time></trkpt><trkpt lat="42.2776212" lon="13.7519762"><ele>401.0</ele><time>2026-05-03T09:10:29.886Z</time></trkpt><trkpt lat="42.277718" lon="13.7520074"><ele>401.16666666666663</ele><time>2026-05-03T09:10:31.886Z</time></trkpt><trkpt lat="42.2777864" lon="13.7520321"><ele>401.3333333333333</ele><time>2026-05-03T09:10:33.886Z</time></trkpt><trkpt lat="42.2778551" lon="13.7520351"><ele>401.5</ele><time>2026-05-03T09:10:37.885Z</time></trkpt><trkpt lat="42.2779399" lon="13.7520816"><ele>401.66666666666663</ele><time>2026-05-03T09:10:40.886Z</time></trkpt><trkpt lat="42.2780603" lon="13.7521192"><ele>401.8333333333333</ele><time>2026-05-03T09:10:42.886Z</time></trkpt><trkpt lat="42.2781331" lon="13.7521446"><ele>402.0</ele><time>2026-05-03T09:10:43.886Z</time></trkpt><trkpt lat="42.2782202" lon="13.7521647"><ele>402.0</ele><time>2026-05-03T09:10:44.886Z</time></trkpt><trkpt lat="42.2783185" lon="13.7521758"><ele>402.0</ele><time>2026-05-03T09:10:45.886Z</time></trkpt><trkpt lat="42.278425" lon="13.7521844"><ele>402.0</ele><time>2026-05-03T09:10:46.887Z</time></trkpt><trkpt lat="42.278541" lon="13.7521911"><ele>402.0</ele><time>2026-05-03T09:10:47.886Z</time></trkpt><trkpt lat="42.2786685" lon="13.7521944"><ele>402.0</ele><time>2026-05-03T09:10:48.887Z</time></trkpt><trkpt lat="42.2788033" lon="13.7521986"><ele>400.66666666666663</ele><time>2026-05-03T09:10:49.887Z</time></trkpt><trkpt lat="42.2789481" lon="13.7522008"><ele>399.3333333333333</ele><time>2026-05-03T09:10:50.886Z</time></trkpt><trkpt lat="42.279104" lon="13.7521957"><ele>398.0</ele><time>2026-05-03T09:10:51.886Z</time></trkpt><trkpt lat="42.2792726" lon="13.75219"><ele>398.0</ele><time>2026-05-03T09:10:52.886Z</time></trkpt><trkpt lat="42.2794471" lon="13.7521823"><ele>398.0</ele><time>2026-05-03T09:10:53.887Z</time></trkpt><trkpt lat="42.2796145" lon="13.7521729"><ele>398.0</ele><time>2026-05-03T09:10:54.886Z</time></trkpt><trkpt lat="42.2797732" lon="13.7521622"><ele>396.25</ele><time>2026-05-03T09:10:55.887Z</time></trkpt><trkpt lat="42.2799285" lon="13.7521573"><ele>394.5</ele><time>2026-05-03T09:10:56.887Z</time></trkpt><trkpt lat="42.2800768" lon="13.7521646"><ele>392.75</ele><time>2026-05-03T09:10:57.887Z</time></trkpt><trkpt lat="42.2802151" lon="13.7521803"><ele>391.0</ele><time>2026-05-03T09:10:58.886Z</time></trkpt><trkpt lat="42.2803567" lon="13.7522072"><ele>391.0</ele><time>2026-05-03T09:10:59.887Z</time></trkpt><trkpt lat="42.2804997" lon="13.752255"><ele>391.0</ele><time>2026-05-03T09:11:00.886Z</time></trkpt><trkpt lat="42.2806414" lon="13.7523195"><ele>391.0</ele><time>2026-05-03T09:11:01.886Z</time></trkpt><trkpt lat="42.2807806" lon="13.752403"><ele>391.0</ele><time>2026-05-03T09:11:02.887Z</time></trkpt><trkpt lat="42.2809164" lon="13.7525048"><ele>390.33333333333337</ele><time>2026-05-03T09:11:03.887Z</time></trkpt><trkpt lat="42.2810478" lon="13.7526229"><ele>389.66666666666663</ele><time>2026-05-03T09:11:04.886Z</time></trkpt><trkpt lat="42.2811791" lon="13.7527573"><ele>389.0</ele><time>2026-05-03T09:11:05.886Z</time></trkpt><trkpt lat="42.281311" lon="13.7528995"><ele>389.0</ele><time>2026-05-03T09:11:06.888Z</time></trkpt><trkpt lat="42.2814345" lon="13.7530401"><ele>389.0</ele><time>2026-05-03T09:11:07.886Z</time></trkpt><trkpt lat="42.2815623" lon="13.7531822"><ele>389.0</ele><time>2026-05-03T09:11:08.886Z</time></trkpt><trkpt lat="42.2816871" lon="13.7533281"><ele>389.0</ele><time>2026-05-03T09:11:09.886Z</time></trkpt><trkpt lat="42.2818098" lon="13.7534732"><ele>389.0</ele><time>2026-05-03T09:11:10.886Z</time></trkpt><trkpt lat="42.2819341" lon="13.7536056"><ele>389.0</ele><time>2026-05-03T09:11:11.886Z</time></trkpt><trkpt lat="42.2820625" lon="13.7537193"><ele>389.66666666666663</ele><time>2026-05-03T09:11:12.886Z</time></trkpt><trkpt lat="42.2821975" lon="13.7538226"><ele>390.33333333333337</ele><time>2026-05-03T09:11:13.886Z</time></trkpt><trkpt lat="42.2823365" lon="13.753921"><ele>391.0</ele><time>2026-05-03T09:11:14.886Z</time></trkpt><trkpt lat="42.2824779" lon="13.7540147"><ele>391.0</ele><time>2026-05-03T09:11:15.886Z</time></trkpt><trkpt lat="42.2826203" lon="13.7541032"><ele>391.0</ele><time>2026-05-03T09:11:16.886Z</time></trkpt><trkpt lat="42.2827639" lon="13.7541899"><ele>391.0</ele><time>2026-05-03T09:11:17.886Z</time></trkpt><trkpt lat="42.2829004" lon="13.754271"><ele>391.0</ele><time>2026-05-03T09:11:18.887Z</time></trkpt><trkpt lat="42.2830301" lon="13.7543437"><ele>391.0</ele><time>2026-05-03T09:11:19.886Z</time></trkpt><trkpt lat="42.2831509" lon="13.7544067"><ele>391.0</ele><time>2026-05-03T09:11:20.886Z</time></trkpt><trkpt lat="42.2832599" lon="13.7544618"><ele>391.0</ele><time>2026-05-03T09:11:21.887Z</time></trkpt><trkpt lat="42.2833569" lon="13.7545052"><ele>390.33333333333337</ele><time>2026-05-03T09:11:22.886Z</time></trkpt><trkpt lat="42.2834369" lon="13.7545379"><ele>389.6666666666667</ele><time>2026-05-03T09:11:23.886Z</time></trkpt><trkpt lat="42.2835008" lon="13.7545579"><ele>389.0</ele><time>2026-05-03T09:11:24.886Z</time></trkpt><trkpt lat="42.2835687" lon="13.7545452"><ele>388.33333333333337</ele><time>2026-05-03T09:11:26.886Z</time></trkpt><trkpt lat="42.2835938" lon="13.7544325"><ele>387.6666666666667</ele><time>2026-05-03T09:11:29.887Z</time></trkpt><trkpt lat="42.2835877" lon="13.7543317"><ele>387.0</ele><time>2026-05-03T09:11:30.887Z</time></trkpt><trkpt lat="42.2835643" lon="13.7542059"><ele>386.5</ele><time>2026-05-03T09:11:31.887Z</time></trkpt><trkpt lat="42.2835344" lon="13.7540484"><ele>386.0</ele><time>2026-05-03T09:11:32.886Z</time></trkpt><trkpt lat="42.2835081" lon="13.7538787"><ele>385.5</ele><time>2026-05-03T09:11:33.887Z</time></trkpt><trkpt lat="42.2834853" lon="13.7536992"><ele>385.0</ele><time>2026-05-03T09:11:34.886Z</time></trkpt><trkpt lat="42.2834612" lon="13.7535126"><ele>385.0</ele><time>2026-05-03T09:11:35.886Z</time></trkpt><trkpt lat="42.2834381" lon="13.7533235"><ele>385.0</ele><time>2026-05-03T09:11:36.885Z</time></trkpt><trkpt lat="42.2834189" lon="13.7531338"><ele>385.0</ele><time>2026-05-03T09:11:37.887Z</time></trkpt><trkpt lat="42.2834033" lon="13.7529412"><ele>385.0</ele><time>2026-05-03T09:11:38.886Z</time></trkpt><trkpt lat="42.2833954" lon="13.7527514"><ele>385.2</ele><time>2026-05-03T09:11:39.887Z</time></trkpt><trkpt lat="42.2833914" lon="13.7525771"><ele>385.4</ele><time>2026-05-03T09:11:40.887Z</time></trkpt><trkpt lat="42.2833904" lon="13.7524309"><ele>385.6</ele><time>2026-05-03T09:11:41.886Z</time></trkpt><trkpt lat="42.2833967" lon="13.7523204"><ele>385.8</ele><time>2026-05-03T09:11:42.886Z</time></trkpt><trkpt lat="42.2834648" lon="13.7522173"><ele>386.0</ele><time>2026-05-03T09:11:44.886Z</time></trkpt><trkpt lat="42.2835289" lon="13.7522082"><ele>386.0</ele><time>2026-05-03T09:11:45.887Z</time></trkpt><trkpt lat="42.2836033" lon="13.7522171"><ele>386.0</ele><time>2026-05-03T09:11:46.886Z</time></trkpt><trkpt lat="42.2836931" lon="13.7522402"><ele>386.0</ele><time>2026-05-03T09:11:47.886Z</time></trkpt><trkpt lat="42.283793" lon="13.7522629"><ele>386.0</ele><time>2026-05-03T09:11:48.887Z</time></trkpt><trkpt lat="42.2839075" lon="13.7522887"><ele>386.0</ele><time>2026-05-03T09:11:49.887Z</time></trkpt><trkpt lat="42.284032" lon="13.7523217"><ele>385.5</ele><time>2026-05-03T09:11:50.887Z</time></trkpt><trkpt lat="42.2841588" lon="13.7523541"><ele>385.0</ele><time>2026-05-03T09:11:51.887Z</time></trkpt><trkpt lat="42.2842922" lon="13.7523945"><ele>384.5</ele><time>2026-05-03T09:11:52.886Z</time></trkpt><trkpt lat="42.28443" lon="13.7524428"><ele>384.0</ele><time>2026-05-03T09:11:53.886Z</time></trkpt><trkpt lat="42.2845679" lon="13.7524929"><ele>384.0</ele><time>2026-05-03T09:11:54.887Z</time></trkpt><trkpt lat="42.2847067" lon="13.7525469"><ele>384.0</ele><time>2026-05-03T09:11:55.886Z</time></trkpt><trkpt lat="42.2848444" lon="13.7526045"><ele>384.0</ele><time>2026-05-03T09:11:56.888Z</time></trkpt><trkpt lat="42.2849774" lon="13.7526727"><ele>384.0</ele><time>2026-05-03T09:11:57.886Z</time></trkpt><trkpt lat="42.2851118" lon="13.7527443"><ele>383.5</ele><time>2026-05-03T09:11:58.886Z</time></trkpt><trkpt lat="42.2852463" lon="13.7528038"><ele>383.0</ele><time>2026-05-03T09:11:59.886Z</time></trkpt><trkpt lat="42.285378" lon="13.7528568"><ele>382.5</ele><time>2026-05-03T09:12:00.887Z</time></trkpt><trkpt lat="42.2855049" lon="13.7529055"><ele>382.0</ele><time>2026-05-03T09:12:01.886Z</time></trkpt><trkpt lat="42.2856224" lon="13.7529492"><ele>381.6</ele><time>2026-05-03T09:12:02.887Z</time></trkpt><trkpt lat="42.2857361" lon="13.7529882"><ele>381.20000000000005</ele><time>2026-05-03T09:12:03.886Z</time></trkpt><trkpt lat="42.2858415" lon="13.7530245"><ele>380.8</ele><time>2026-05-03T09:12:04.887Z</time></trkpt><trkpt lat="42.285942" lon="13.7530579"><ele>380.4</ele><time>2026-05-03T09:12:05.886Z</time></trkpt><trkpt lat="42.2860295" lon="13.7530817"><ele>380.0</ele><time>2026-05-03T09:12:06.887Z</time></trkpt><trkpt lat="42.2860965" lon="13.7531018"><ele>380.0</ele><time>2026-05-03T09:12:07.887Z</time></trkpt><trkpt lat="42.2861883" lon="13.7531258"><ele>380.0</ele><time>2026-05-03T09:12:10.886Z</time></trkpt><trkpt lat="42.2862524" lon="13.7531395"><ele>380.0</ele><time>2026-05-03T09:12:11.886Z</time></trkpt><trkpt lat="42.286334" lon="13.753163"><ele>380.0</ele><time>2026-05-03T09:12:12.887Z</time></trkpt><trkpt lat="42.286438" lon="13.7531952"><ele>380.0</ele><time>2026-05-03T09:12:13.886Z</time></trkpt><trkpt lat="42.2865577" lon="13.7532301"><ele>379.5</ele><time>2026-05-03T09:12:14.887Z</time></trkpt><trkpt lat="42.2866847" lon="13.7532657"><ele>379.0</ele><time>2026-05-03T09:12:15.886Z</time></trkpt><trkpt lat="42.2868191" lon="13.7532982"><ele>378.5</ele><time>2026-05-03T09:12:16.886Z</time></trkpt><trkpt lat="42.2869529" lon="13.7533326"><ele>378.0</ele><time>2026-05-03T09:12:17.886Z</time></trkpt><trkpt lat="42.2870876" lon="13.7533927"><ele>378.0</ele><time>2026-05-03T09:12:18.887Z</time></trkpt><trkpt lat="42.2872214" lon="13.7534662"><ele>378.0</ele><time>2026-05-03T09:12:19.886Z</time></trkpt><trkpt lat="42.2873436" lon="13.7535325"><ele>378.0</ele><time>2026-05-03T09:12:20.886Z</time></trkpt><trkpt lat="42.287456" lon="13.7535964"><ele>378.0</ele><time>2026-05-03T09:12:21.887Z</time></trkpt><trkpt lat="42.2875594" lon="13.7536634"><ele>377.5</ele><time>2026-05-03T09:12:22.886Z</time></trkpt><trkpt lat="42.2876444" lon="13.7537326"><ele>377.0</ele><time>2026-05-03T09:12:23.886Z</time></trkpt><trkpt lat="42.2877155" lon="13.7537751"><ele>376.5</ele><time>2026-05-03T09:12:24.886Z</time></trkpt><trkpt lat="42.2877785" lon="13.7537821"><ele>376.0</ele><time>2026-05-03T09:12:25.887Z</time></trkpt><trkpt lat="42.2878391" lon="13.7537547"><ele>375.5</ele><time>2026-05-03T09:12:26.887Z</time></trkpt><trkpt lat="42.2878969" lon="13.753692"><ele>375.0</ele><time>2026-05-03T09:12:27.886Z</time></trkpt><trkpt lat="42.2879519" lon="13.753604"><ele>375.0</ele><time>2026-05-03T09:12:28.886Z</time></trkpt><trkpt lat="42.2880161" lon="13.7535081"><ele>375.0</ele><time>2026-05-03T09:12:29.887Z</time></trkpt><trkpt lat="42.2880908" lon="13.753419"><ele>375.0</ele><time>2026-05-03T09:12:30.887Z</time></trkpt><trkpt lat="42.2881694" lon="13.7533258"><ele>375.0</ele><time>2026-05-03T09:12:31.886Z</time></trkpt><trkpt lat="42.2882516" lon="13.7532216"><ele>375.0</ele><time>2026-05-03T09:12:32.886Z</time></trkpt><trkpt lat="42.2883342" lon="13.7531072"><ele>374.75</ele><time>2026-05-03T09:12:33.886Z</time></trkpt><trkpt lat="42.2884145" lon="13.752987"><ele>374.5</ele><time>2026-05-03T09:12:34.886Z</time></trkpt><trkpt lat="42.2884955" lon="13.7528643"><ele>374.25</ele><time>2026-05-03T09:12:35.886Z</time></trkpt><trkpt lat="42.2885763" lon="13.7527297"><ele>374.0</ele><time>2026-05-03T09:12:36.886Z</time></trkpt><trkpt lat="42.2886606" lon="13.7525829"><ele>374.75</ele><time>2026-05-03T09:12:37.887Z</time></trkpt><trkpt lat="42.2887448" lon="13.7524326"><ele>375.5</ele><time>2026-05-03T09:12:38.886Z</time></trkpt><trkpt lat="42.2888196" lon="13.7522831"><ele>376.25</ele><time>2026-05-03T09:12:39.887Z</time></trkpt><trkpt lat="42.2888874" lon="13.7521465"><ele>377.0</ele><time>2026-05-03T09:12:40.886Z</time></trkpt><trkpt lat="42.2889596" lon="13.7519952"><ele>378.25</ele><time>2026-05-03T09:12:41.886Z</time></trkpt><trkpt lat="42.2890315" lon="13.7518406"><ele>379.5</ele><time>2026-05-03T09:12:42.887Z</time></trkpt><trkpt lat="42.2891042" lon="13.7516849"><ele>380.75</ele><time>2026-05-03T09:12:43.887Z</time></trkpt><trkpt lat="42.2891748" lon="13.7515301"><ele>382.0</ele><time>2026-05-03T09:12:44.886Z</time></trkpt><trkpt lat="42.2892385" lon="13.7513585"><ele>382.0</ele><time>2026-05-03T09:12:45.886Z</time></trkpt><trkpt lat="42.2892995" lon="13.7511949"><ele>382.0</ele><time>2026-05-03T09:12:46.886Z</time></trkpt><trkpt lat="42.2893702" lon="13.7510391"><ele>382.0</ele><time>2026-05-03T09:12:47.886Z</time></trkpt><trkpt lat="42.2894262" lon="13.7508855"><ele>382.0</ele><time>2026-05-03T09:12:48.886Z</time></trkpt><trkpt lat="42.2894771" lon="13.750735"><ele>382.0</ele><time>2026-05-03T09:12:49.886Z</time></trkpt><trkpt lat="42.2895434" lon="13.7505932"><ele>382.0</ele><time>2026-05-03T09:12:50.886Z</time></trkpt><trkpt lat="42.2896233" lon="13.7504567"><ele>382.0</ele><time>2026-05-03T09:12:51.886Z</time></trkpt><trkpt lat="42.2897109" lon="13.7503291"><ele>382.0</ele><time>2026-05-03T09:12:52.886Z</time></trkpt><trkpt lat="42.2897944" lon="13.7501961"><ele>381.75</ele><time>2026-05-03T09:12:53.886Z</time></trkpt><trkpt lat="42.2898726" lon="13.7500529"><ele>381.5</ele><time>2026-05-03T09:12:54.887Z</time></trkpt><trkpt lat="42.2899437" lon="13.7499057"><ele>381.25</ele><time>2026-05-03T09:12:55.886Z</time></trkpt><trkpt lat="42.2900073" lon="13.7497605"><ele>381.0</ele><time>2026-05-03T09:12:56.886Z</time></trkpt><trkpt lat="42.2900689" lon="13.749613"><ele>381.0</ele><time>2026-05-03T09:12:57.886Z</time></trkpt><trkpt lat="42.2901262" lon="13.7494634"><ele>381.0</ele><time>2026-05-03T09:12:58.886Z</time></trkpt><trkpt lat="42.2901896" lon="13.7493153"><ele>381.0</ele><time>2026-05-03T09:12:59.886Z</time></trkpt><trkpt lat="42.2902706" lon="13.7491798"><ele>381.0</ele><time>2026-05-03T09:13:00.887Z</time></trkpt><trkpt lat="42.290355" lon="13.7490448"><ele>381.0</ele><time>2026-05-03T09:13:01.886Z</time></trkpt><trkpt lat="42.2904373" lon="13.7489138"><ele>381.0</ele><time>2026-05-03T09:13:02.887Z</time></trkpt><trkpt lat="42.2905202" lon="13.7487802"><ele>381.0</ele><time>2026-05-03T09:13:03.887Z</time></trkpt><trkpt lat="42.2906002" lon="13.7486413"><ele>381.0</ele><time>2026-05-03T09:13:04.886Z</time></trkpt><trkpt lat="42.2906819" lon="13.7485039"><ele>381.25</ele><time>2026-05-03T09:13:05.887Z</time></trkpt><trkpt lat="42.2907636" lon="13.7483769"><ele>381.5</ele><time>2026-05-03T09:13:06.887Z</time></trkpt><trkpt lat="42.2908454" lon="13.7482396"><ele>381.75</ele><time>2026-05-03T09:13:07.886Z</time></trkpt><trkpt lat="42.2909197" lon="13.7481088"><ele>382.0</ele><time>2026-05-03T09:13:08.886Z</time></trkpt><trkpt lat="42.2909952" lon="13.7479782"><ele>382.0</ele><time>2026-05-03T09:13:09.887Z</time></trkpt><trkpt lat="42.2910704" lon="13.7478441"><ele>382.0</ele><time>2026-05-03T09:13:10.886Z</time></trkpt><trkpt lat="42.2911476" lon="13.7477096"><ele>382.0</ele><time>2026-05-03T09:13:11.886Z</time></trkpt><trkpt lat="42.2912229" lon="13.7475713"><ele>382.0</ele><time>2026-05-03T09:13:12.886Z</time></trkpt><trkpt lat="42.2912961" lon="13.7474293"><ele>382.5</ele><time>2026-05-03T09:13:13.887Z</time></trkpt><trkpt lat="42.2913719" lon="13.7472942"><ele>383.0</ele><time>2026-05-03T09:13:14.886Z</time></trkpt><trkpt lat="42.2914509" lon="13.7471703"><ele>383.5</ele><time>2026-05-03T09:13:15.886Z</time></trkpt><trkpt lat="42.2915289" lon="13.7470606"><ele>384.0</ele><time>2026-05-03T09:13:16.886Z</time></trkpt><trkpt lat="42.2915927" lon="13.7469522"><ele>384.6</ele><time>2026-05-03T09:13:17.887Z</time></trkpt><trkpt lat="42.2916518" lon="13.7468363"><ele>385.2</ele><time>2026-05-03T09:13:18.886Z</time></trkpt><trkpt lat="42.2917026" lon="13.7467368"><ele>385.8</ele><time>2026-05-03T09:13:19.886Z</time></trkpt><trkpt lat="42.2917517" lon="13.7466554"><ele>386.40000000000003</ele><time>2026-05-03T09:13:20.887Z</time></trkpt><trkpt lat="42.2918262" lon="13.7465751"><ele>387.0</ele><time>2026-05-03T09:13:22.887Z</time></trkpt><trkpt lat="42.2919112" lon="13.7466059"><ele>387.0</ele><time>2026-05-03T09:13:24.886Z</time></trkpt><trkpt lat="42.291964" lon="13.7466554"><ele>387.0</ele><time>2026-05-03T09:13:25.887Z</time></trkpt><trkpt lat="42.2920298" lon="13.7467127"><ele>387.0</ele><time>2026-05-03T09:13:26.886Z</time></trkpt><trkpt lat="42.2921012" lon="13.7467678"><ele>387.0</ele><time>2026-05-03T09:13:27.886Z</time></trkpt><trkpt lat="42.2921779" lon="13.746827"><ele>387.0</ele><time>2026-05-03T09:13:28.886Z</time></trkpt><trkpt lat="42.2922617" lon="13.7468894"><ele>387.0</ele><time>2026-05-03T09:13:29.887Z</time></trkpt><trkpt lat="42.2923526" lon="13.7469505"><ele>386.0</ele><time>2026-05-03T09:13:30.887Z</time></trkpt><trkpt lat="42.2924498" lon="13.7470118"><ele>385.0</ele><time>2026-05-03T09:13:31.887Z</time></trkpt><trkpt lat="42.2925508" lon="13.7470768"><ele>384.0</ele><time>2026-05-03T09:13:32.886Z</time></trkpt><trkpt lat="42.2926524" lon="13.7471351"><ele>383.0</ele><time>2026-05-03T09:13:33.888Z</time></trkpt><trkpt lat="42.292755" lon="13.7471877"><ele>382.0</ele><time>2026-05-03T09:13:34.887Z</time></trkpt><trkpt lat="42.2928627" lon="13.7472305"><ele>382.0</ele><time>2026-05-03T09:13:35.886Z</time></trkpt><trkpt lat="42.2929713" lon="13.7472791"><ele>382.0</ele><time>2026-05-03T09:13:36.886Z</time></trkpt><trkpt lat="42.2930771" lon="13.7473263"><ele>382.0</ele><time>2026-05-03T09:13:37.887Z</time></trkpt><trkpt lat="42.2931712" lon="13.7473785"><ele>382.0</ele><time>2026-05-03T09:13:38.887Z</time></trkpt><trkpt lat="42.2932641" lon="13.7474438"><ele>382.0</ele><time>2026-05-03T09:13:39.886Z</time></trkpt><trkpt lat="42.293364" lon="13.7475104"><ele>382.0</ele><time>2026-05-03T09:13:40.887Z</time></trkpt><trkpt lat="42.2934687" lon="13.7475796"><ele>382.0</ele><time>2026-05-03T09:13:41.886Z</time></trkpt><trkpt lat="42.293575" lon="13.7476474"><ele>382.0</ele><time>2026-05-03T09:13:42.885Z</time></trkpt><trkpt lat="42.2936853" lon="13.7477132"><ele>382.0</ele><time>2026-05-03T09:13:43.886Z</time></trkpt><trkpt lat="42.2937989" lon="13.7477779"><ele>382.0</ele><time>2026-05-03T09:13:44.887Z</time></trkpt><trkpt lat="42.2939152" lon="13.7478362"><ele>382.0</ele><time>2026-05-03T09:13:45.888Z</time></trkpt><trkpt lat="42.2940345" lon="13.7478937"><ele>382.0</ele><time>2026-05-03T09:13:46.886Z</time></trkpt><trkpt lat="42.2941548" lon="13.747956"><ele>382.0</ele><time>2026-05-03T09:13:47.888Z</time></trkpt><trkpt lat="42.2942763" lon="13.7480222"><ele>383.25</ele><time>2026-05-03T09:13:48.887Z</time></trkpt><trkpt lat="42.2943989" lon="13.7480912"><ele>384.5</ele><time>2026-05-03T09:13:49.886Z</time></trkpt><trkpt lat="42.294519" lon="13.7481626"><ele>385.75</ele><time>2026-05-03T09:13:50.886Z</time></trkpt><trkpt lat="42.2946412" lon="13.748237"><ele>387.0</ele><time>2026-05-03T09:13:51.887Z</time></trkpt><trkpt lat="42.2947615" lon="13.7483128"><ele>388.6</ele><time>2026-05-03T09:13:52.886Z</time></trkpt><trkpt lat="42.2948742" lon="13.7483857"><ele>390.20000000000005</ele><time>2026-05-03T09:13:53.887Z</time></trkpt><trkpt lat="42.2949737" lon="13.7484531"><ele>391.8</ele><time>2026-05-03T09:13:54.887Z</time></trkpt><trkpt lat="42.2950527" lon="13.7485096"><ele>393.4</ele><time>2026-05-03T09:13:55.886Z</time></trkpt><trkpt lat="42.2951268" lon="13.7485845"><ele>395.0</ele><time>2026-05-03T09:13:57.887Z</time></trkpt><trkpt lat="42.2951706" lon="13.748648"><ele>395.3333333333333</ele><time>2026-05-03T09:14:01.887Z</time></trkpt><trkpt lat="42.2952626" lon="13.7487144"><ele>395.66666666666663</ele><time>2026-05-03T09:14:03.887Z</time></trkpt><trkpt lat="42.2953285" lon="13.748746"><ele>396.0</ele><time>2026-05-03T09:14:04.886Z</time></trkpt><trkpt lat="42.2954006" lon="13.7487772"><ele>396.33333333333337</ele><time>2026-05-03T09:14:05.886Z</time></trkpt><trkpt lat="42.2954858" lon="13.7488169"><ele>396.6666666666667</ele><time>2026-05-03T09:14:06.887Z</time></trkpt><trkpt lat="42.2955796" lon="13.7488601"><ele>397.0</ele><time>2026-05-03T09:14:07.887Z</time></trkpt><trkpt lat="42.2956741" lon="13.7489015"><ele>399.40000000000003</ele><time>2026-05-03T09:14:08.886Z</time></trkpt><trkpt lat="42.2957646" lon="13.7489488"><ele>401.8</ele><time>2026-05-03T09:14:09.886Z</time></trkpt><trkpt lat="42.2958503" lon="13.7490102"><ele>404.2</ele><time>2026-05-03T09:14:10.887Z</time></trkpt><trkpt lat="42.2959284" lon="13.7490869"><ele>406.6</ele><time>2026-05-03T09:14:11.886Z</time></trkpt><trkpt lat="42.2960018" lon="13.7491795"><ele>409.0</ele><time>2026-05-03T09:14:12.886Z</time></trkpt><trkpt lat="42.2960706" lon="13.7492805"><ele>411.0</ele><time>2026-05-03T09:14:13.887Z</time></trkpt><trkpt lat="42.2961431" lon="13.749381"><ele>413.0</ele><time>2026-05-03T09:14:14.887Z</time></trkpt><trkpt lat="42.2962203" lon="13.7494703"><ele>415.0</ele><time>2026-05-03T09:14:15.886Z</time></trkpt><trkpt lat="42.2963085" lon="13.7495398"><ele>417.0</ele><time>2026-05-03T09:14:16.887Z</time></trkpt><trkpt lat="42.296405" lon="13.7495987"><ele>419.0</ele><time>2026-05-03T09:14:17.887Z</time></trkpt><trkpt lat="42.2965032" lon="13.7496616"><ele>420.0</ele><time>2026-05-03T09:14:18.887Z</time></trkpt><trkpt lat="42.2965991" lon="13.7497341"><ele>421.0</ele><time>2026-05-03T09:14:19.886Z</time></trkpt><trkpt lat="42.2966944" lon="13.7498146"><ele>422.0</ele><time>2026-05-03T09:14:20.886Z</time></trkpt><trkpt lat="42.2967857" lon="13.7499043"><ele>423.0</ele><time>2026-05-03T09:14:21.887Z</time></trkpt><trkpt lat="42.2968681" lon="13.7499996"><ele>424.0</ele><time>2026-05-03T09:14:22.886Z</time></trkpt><trkpt lat="42.296935" lon="13.7500915"><ele>424.00000000000006</ele><time>2026-05-03T09:14:23.886Z</time></trkpt><trkpt lat="42.2969914" lon="13.7501682"><ele>424.0</ele><time>2026-05-03T09:14:24.886Z</time></trkpt><trkpt lat="42.2970551" lon="13.7502338"><ele>424.0</ele><time>2026-05-03T09:14:25.886Z</time></trkpt><trkpt lat="42.2971301" lon="13.7502915"><ele>424.0</ele><time>2026-05-03T09:14:26.887Z</time></trkpt><trkpt lat="42.2972115" lon="13.7503437"><ele>424.00000000000006</ele><time>2026-05-03T09:14:27.886Z</time></trkpt><trkpt lat="42.2972842" lon="13.7503878"><ele>424.0</ele><time>2026-05-03T09:14:28.886Z</time></trkpt><trkpt lat="42.297348" lon="13.750425"><ele>424.1666666666667</ele><time>2026-05-03T09:14:29.886Z</time></trkpt><trkpt lat="42.2974258" lon="13.7504649"><ele>424.33333333333337</ele><time>2026-05-03T09:14:31.887Z</time></trkpt><trkpt lat="42.2975081" lon="13.750365"><ele>424.5</ele><time>2026-05-03T09:14:34.886Z</time></trkpt><trkpt lat="42.2975482" lon="13.7502785"><ele>424.66666666666663</ele><time>2026-05-03T09:14:35.886Z</time></trkpt><trkpt lat="42.2976014" lon="13.7501995"><ele>424.8333333333333</ele><time>2026-05-03T09:14:36.887Z</time></trkpt><trkpt lat="42.2976636" lon="13.7501353"><ele>425.0</ele><time>2026-05-03T09:14:37.887Z</time></trkpt><trkpt lat="42.2977353" lon="13.7500863"><ele>425.6</ele><time>2026-05-03T09:14:38.887Z</time></trkpt><trkpt lat="42.2978158" lon="13.7500483"><ele>426.2</ele><time>2026-05-03T09:14:39.886Z</time></trkpt><trkpt lat="42.2979057" lon="13.7500176"><ele>426.79999999999995</ele><time>2026-05-03T09:14:40.886Z</time></trkpt><trkpt lat="42.2979903" lon="13.750005"><ele>427.4</ele><time>2026-05-03T09:14:41.886Z</time></trkpt><trkpt lat="42.2980848" lon="13.7499977"><ele>428.0</ele><time>2026-05-03T09:14:42.886Z</time></trkpt><trkpt lat="42.2981866" lon="13.749996"><ele>428.4</ele><time>2026-05-03T09:14:43.887Z</time></trkpt><trkpt lat="42.2982889" lon="13.7500022"><ele>428.79999999999995</ele><time>2026-05-03T09:14:44.887Z</time></trkpt><trkpt lat="42.2983861" lon="13.750008"><ele>429.2</ele><time>2026-05-03T09:14:45.886Z</time></trkpt><trkpt lat="42.2984933" lon="13.7500019"><ele>429.6</ele><time>2026-05-03T09:14:46.887Z</time></trkpt><trkpt lat="42.2986108" lon="13.7499771"><ele>430.0</ele><time>2026-05-03T09:14:47.886Z</time></trkpt><trkpt lat="42.2987409" lon="13.7499522"><ele>430.0</ele><time>2026-05-03T09:14:48.887Z</time></trkpt><trkpt lat="42.2988584" lon="13.7499316"><ele>430.0</ele><time>2026-05-03T09:14:49.886Z</time></trkpt><trkpt lat="42.2989755" lon="13.7499055"><ele>430.0</ele><time>2026-05-03T09:14:50.886Z</time></trkpt><trkpt lat="42.2990928" lon="13.7498845"><ele>430.0</ele><time>2026-05-03T09:14:51.886Z</time></trkpt><trkpt lat="42.2992084" lon="13.7498626"><ele>429.25</ele><time>2026-05-03T09:14:52.887Z</time></trkpt><trkpt lat="42.299326" lon="13.7498448"><ele>428.5</ele><time>2026-05-03T09:14:53.887Z</time></trkpt><trkpt lat="42.2994439" lon="13.749846"><ele>427.75</ele><time>2026-05-03T09:14:54.886Z</time></trkpt><trkpt lat="42.2995518" lon="13.7498358"><ele>427.0</ele><time>2026-05-03T09:14:55.886Z</time></trkpt><trkpt lat="42.2996631" lon="13.7497954"><ele>426.0</ele><time>2026-05-03T09:14:56.886Z</time></trkpt><trkpt lat="42.2997834" lon="13.7497355"><ele>425.0</ele><time>2026-05-03T09:14:57.887Z</time></trkpt><trkpt lat="42.2999035" lon="13.7496757"><ele>424.0</ele><time>2026-05-03T09:14:58.887Z</time></trkpt><trkpt lat="42.3000254" lon="13.7496277"><ele>423.0</ele><time>2026-05-03T09:14:59.886Z</time></trkpt><trkpt lat="42.3001527" lon="13.7495915"><ele>423.0</ele><time>2026-05-03T09:15:00.886Z</time></trkpt><trkpt lat="42.30028" lon="13.7495488"><ele>423.0</ele><time>2026-05-03T09:15:01.887Z</time></trkpt><trkpt lat="42.300404" lon="13.7495075"><ele>423.0</ele><time>2026-05-03T09:15:02.887Z</time></trkpt><trkpt lat="42.3005257" lon="13.7494626"><ele>423.0</ele><time>2026-05-03T09:15:03.886Z</time></trkpt><trkpt lat="42.3006498" lon="13.7494244"><ele>421.5</ele><time>2026-05-03T09:15:04.886Z</time></trkpt><trkpt lat="42.3007822" lon="13.7493963"><ele>420.0</ele><time>2026-05-03T09:15:05.886Z</time></trkpt><trkpt lat="42.3009125" lon="13.7493675"><ele>418.5</ele><time>2026-05-03T09:15:06.886Z</time></trkpt><trkpt lat="42.3010406" lon="13.7493396"><ele>417.0</ele><time>2026-05-03T09:15:07.886Z</time></trkpt><trkpt lat="42.3011625" lon="13.7492969"><ele>419.8</ele><time>2026-05-03T09:15:08.886Z</time></trkpt><trkpt lat="42.3012707" lon="13.7492394"><ele>422.6</ele><time>2026-05-03T09:15:09.886Z</time></trkpt><trkpt lat="42.301355" lon="13.7491689"><ele>425.40000000000003</ele><time>2026-05-03T09:15:10.886Z</time></trkpt><trkpt lat="42.301425" lon="13.7490766"><ele>428.20000000000005</ele><time>2026-05-03T09:15:11.886Z</time></trkpt><trkpt lat="42.3014878" lon="13.7489713"><ele>431.0</ele><time>2026-05-03T09:15:12.886Z</time></trkpt><trkpt lat="42.3015429" lon="13.7488705"><ele>430.99999999999994</ele><time>2026-05-03T09:15:13.886Z</time></trkpt><trkpt lat="42.3015985" lon="13.7487834"><ele>431.0</ele><time>2026-05-03T09:15:14.887Z</time></trkpt><trkpt lat="42.3016564" lon="13.7487104"><ele>431.0</ele><time>2026-05-03T09:15:15.886Z</time></trkpt><trkpt lat="42.3017099" lon="13.7486403"><ele>431.0</ele><time>2026-05-03T09:15:16.887Z</time></trkpt><trkpt lat="42.3017628" lon="13.7485714"><ele>430.99999999999994</ele><time>2026-05-03T09:15:17.886Z</time></trkpt><trkpt lat="42.3018176" lon="13.7484994"><ele>431.0</ele><time>2026-05-03T09:15:18.886Z</time></trkpt><trkpt lat="42.3018775" lon="13.7484304"><ele>433.7142857142857</ele><time>2026-05-03T09:15:19.886Z</time></trkpt><trkpt lat="42.3019416" lon="13.7483749"><ele>436.42857142857144</ele><time>2026-05-03T09:15:20.886Z</time></trkpt><trkpt lat="42.3020102" lon="13.7483337"><ele>439.14285714285717</ele><time>2026-05-03T09:15:21.887Z</time></trkpt><trkpt lat="42.3020738" lon="13.7482914"><ele>441.8571428571429</ele><time>2026-05-03T09:15:22.887Z</time></trkpt><trkpt lat="42.3021354" lon="13.7482472"><ele>444.57142857142856</ele><time>2026-05-03T09:15:23.886Z</time></trkpt><trkpt lat="42.302198" lon="13.7481989"><ele>447.28571428571433</ele><time>2026-05-03T09:15:24.886Z</time></trkpt><trkpt lat="42.3022608" lon="13.748143"><ele>450.00000000000006</ele><time>2026-05-03T09:15:25.887Z</time></trkpt><trkpt lat="42.3023255" lon="13.7480851"><ele>450.0</ele><time>2026-05-03T09:15:26.886Z</time></trkpt><trkpt lat="42.3023948" lon="13.7480301"><ele>450.0</ele><time>2026-05-03T09:15:27.886Z</time></trkpt><trkpt lat="42.3024699" lon="13.7479881"><ele>450.0</ele><time>2026-05-03T09:15:28.887Z</time></trkpt><trkpt lat="42.3025461" lon="13.747952"><ele>450.0</ele><time>2026-05-03T09:15:29.885Z</time></trkpt><trkpt lat="42.3026202" lon="13.7479144"><ele>450.0</ele><time>2026-05-03T09:15:30.886Z</time></trkpt><trkpt lat="42.3026957" lon="13.7478812"><ele>450.0</ele><time>2026-05-03T09:15:31.885Z</time></trkpt><trkpt lat="42.3027707" lon="13.7478568"><ele>450.0</ele><time>2026-05-03T09:15:32.886Z</time></trkpt><trkpt lat="42.3028438" lon="13.7478531"><ele>450.0</ele><time>2026-05-03T09:15:33.886Z</time></trkpt><trkpt lat="42.302924" lon="13.7478542"><ele>450.0</ele><time>2026-05-03T09:15:34.886Z</time></trkpt><trkpt lat="42.3030007" lon="13.7478567"><ele>450.0</ele><time>2026-05-03T09:15:35.885Z</time></trkpt><trkpt lat="42.3030758" lon="13.7478666"><ele>450.0</ele><time>2026-05-03T09:15:36.885Z</time></trkpt><trkpt lat="42.3031524" lon="13.7478719"><ele>450.0</ele><time>2026-05-03T09:15:37.885Z</time></trkpt><trkpt lat="42.3032285" lon="13.7478901"><ele>451.2</ele><time>2026-05-03T09:15:38.885Z</time></trkpt><trkpt lat="42.3033042" lon="13.7479134"><ele>452.4</ele><time>2026-05-03T09:15:39.885Z</time></trkpt><trkpt lat="42.3033866" lon="13.747933"><ele>453.6</ele><time>2026-05-03T09:15:40.885Z</time></trkpt><trkpt lat="42.3034813" lon="13.7479497"><ele>454.8</ele><time>2026-05-03T09:15:41.886Z</time></trkpt><trkpt lat="42.3035792" lon="13.747971"><ele>456.0</ele><time>2026-05-03T09:15:42.885Z</time></trkpt><trkpt lat="42.3036811" lon="13.7479913"><ele>456.0</ele><time>2026-05-03T09:15:43.885Z</time></trkpt><trkpt lat="42.3037837" lon="13.7480109"><ele>456.0</ele><time>2026-05-03T09:15:44.885Z</time></trkpt><trkpt lat="42.3038852" lon="13.7480377"><ele>456.0</ele><time>2026-05-03T09:15:45.885Z</time></trkpt><trkpt lat="42.3039904" lon="13.7480729"><ele>456.0</ele><time>2026-05-03T09:15:46.885Z</time></trkpt><trkpt lat="42.3040945" lon="13.7481188"><ele>456.0</ele><time>2026-05-03T09:15:47.886Z</time></trkpt><trkpt lat="42.3041953" lon="13.748179"><ele>459.20000000000005</ele><time>2026-05-03T09:15:48.886Z</time></trkpt><trkpt lat="42.3042956" lon="13.7482313"><ele>462.40000000000003</ele><time>2026-05-03T09:15:49.885Z</time></trkpt><trkpt lat="42.3043931" lon="13.7482857"><ele>465.6</ele><time>2026-05-03T09:15:50.886Z</time></trkpt><trkpt lat="42.304487" lon="13.7483312"><ele>468.8</ele><time>2026-05-03T09:15:51.885Z</time></trkpt><trkpt lat="42.3045776" lon="13.7483597"><ele>472.0</ele><time>2026-05-03T09:15:52.885Z</time></trkpt><trkpt lat="42.3046711" lon="13.7483702"><ele>474.50000000000006</ele><time>2026-05-03T09:15:53.886Z</time></trkpt><trkpt lat="42.3047646" lon="13.7483608"><ele>477.0</ele><time>2026-05-03T09:15:54.886Z</time></trkpt><trkpt lat="42.3048564" lon="13.748335"><ele>479.5</ele><time>2026-05-03T09:15:55.885Z</time></trkpt><trkpt lat="42.3049463" lon="13.748309"><ele>482.0</ele><time>2026-05-03T09:15:56.886Z</time></trkpt><trkpt lat="42.3050319" lon="13.7483105"><ele>484.50000000000006</ele><time>2026-05-03T09:15:57.886Z</time></trkpt><trkpt lat="42.3051086" lon="13.7483343"><ele>487.0</ele><time>2026-05-03T09:15:58.885Z</time></trkpt><trkpt lat="42.3051662" lon="13.7483825"><ele>487.0</ele><time>2026-05-03T09:15:59.885Z</time></trkpt><trkpt lat="42.3052347" lon="13.7484376"><ele>487.00000000000006</ele><time>2026-05-03T09:16:00.886Z</time></trkpt><trkpt lat="42.305312" lon="13.7484661"><ele>487.00000000000006</ele><time>2026-05-03T09:16:01.886Z</time></trkpt><trkpt lat="42.3054216" lon="13.7484797"><ele>487.0</ele><time>2026-05-03T09:16:02.886Z</time></trkpt><trkpt lat="42.3055293" lon="13.7484774"><ele>487.0</ele><time>2026-05-03T09:16:03.885Z</time></trkpt><trkpt lat="42.3056343" lon="13.7484681"><ele>488.20000000000005</ele><time>2026-05-03T09:16:04.886Z</time></trkpt><trkpt lat="42.3057339" lon="13.74844"><ele>489.40000000000003</ele><time>2026-05-03T09:16:05.885Z</time></trkpt><trkpt lat="42.3058448" lon="13.7483793"><ele>490.59999999999997</ele><time>2026-05-03T09:16:06.886Z</time></trkpt><trkpt lat="42.3059507" lon="13.7483225"><ele>491.79999999999995</ele><time>2026-05-03T09:16:07.885Z</time></trkpt><trkpt lat="42.3060541" lon="13.7482685"><ele>493.0</ele><time>2026-05-03T09:16:08.885Z</time></trkpt><trkpt lat="42.3061633" lon="13.7482275"><ele>493.0</ele><time>2026-05-03T09:16:09.886Z</time></trkpt><trkpt lat="42.3062743" lon="13.7481856"><ele>493.0</ele><time>2026-05-03T09:16:10.885Z</time></trkpt><trkpt lat="42.3063905" lon="13.7481336"><ele>493.0</ele><time>2026-05-03T09:16:11.885Z</time></trkpt><trkpt lat="42.3065029" lon="13.7480774"><ele>493.0</ele><time>2026-05-03T09:16:12.886Z</time></trkpt><trkpt lat="42.306603" lon="13.7480264"><ele>492.4</ele><time>2026-05-03T09:16:13.886Z</time></trkpt><trkpt lat="42.3066949" lon="13.7479845"><ele>491.79999999999995</ele><time>2026-05-03T09:16:14.886Z</time></trkpt><trkpt lat="42.3067922" lon="13.74795"><ele>491.2</ele><time>2026-05-03T09:16:15.885Z</time></trkpt><trkpt lat="42.3068916" lon="13.7479326"><ele>490.6</ele><time>2026-05-03T09:16:16.885Z</time></trkpt><trkpt lat="42.3069831" lon="13.7479195"><ele>490.0</ele><time>2026-05-03T09:16:17.885Z</time></trkpt><trkpt lat="42.3070617" lon="13.7478988"><ele>490.0</ele><time>2026-05-03T09:16:18.885Z</time></trkpt><trkpt lat="42.3071496" lon="13.7478952"><ele>490.0</ele><time>2026-05-03T09:16:19.885Z</time></trkpt><trkpt lat="42.3072381" lon="13.7479055"><ele>490.0</ele><time>2026-05-03T09:16:20.886Z</time></trkpt><trkpt lat="42.3073331" lon="13.7479133"><ele>490.0</ele><time>2026-05-03T09:16:21.885Z</time></trkpt><trkpt lat="42.3074301" lon="13.7479154"><ele>490.0</ele><time>2026-05-03T09:16:22.885Z</time></trkpt><trkpt lat="42.3075283" lon="13.74791"><ele>489.33333333333337</ele><time>2026-05-03T09:16:23.885Z</time></trkpt><trkpt lat="42.3076177" lon="13.7479043"><ele>488.6666666666667</ele><time>2026-05-03T09:16:24.886Z</time></trkpt><trkpt lat="42.3076966" lon="13.7479002"><ele>488.0</ele><time>2026-05-03T09:16:25.885Z</time></trkpt><trkpt lat="42.3077781" lon="13.7478952"><ele>487.33333333333337</ele><time>2026-05-03T09:16:26.885Z</time></trkpt><trkpt lat="42.3078625" lon="13.7478889"><ele>486.6666666666667</ele><time>2026-05-03T09:16:27.886Z</time></trkpt><trkpt lat="42.3079483" lon="13.7478823"><ele>486.0</ele><time>2026-05-03T09:16:28.885Z</time></trkpt><trkpt lat="42.3080349" lon="13.7478737"><ele>486.1428571428571</ele><time>2026-05-03T09:16:29.885Z</time></trkpt><trkpt lat="42.3081202" lon="13.7478677"><ele>486.28571428571433</ele><time>2026-05-03T09:16:30.885Z</time></trkpt><trkpt lat="42.3081991" lon="13.7478614"><ele>486.42857142857144</ele><time>2026-05-03T09:16:31.886Z</time></trkpt><trkpt lat="42.3082668" lon="13.7478395"><ele>486.57142857142856</ele><time>2026-05-03T09:16:32.885Z</time></trkpt><trkpt lat="42.3083341" lon="13.747812"><ele>486.71428571428567</ele><time>2026-05-03T09:16:33.885Z</time></trkpt><trkpt lat="42.3084002" lon="13.7477926"><ele>486.8571428571429</ele><time>2026-05-03T09:16:34.885Z</time></trkpt><trkpt lat="42.3084688" lon="13.7477785"><ele>487.0</ele><time>2026-05-03T09:16:35.885Z</time></trkpt><trkpt lat="42.3085357" lon="13.7477828"><ele>487.00000000000006</ele><time>2026-05-03T09:16:36.885Z</time></trkpt><trkpt lat="42.3086079" lon="13.7477912"><ele>487.0</ele><time>2026-05-03T09:16:37.885Z</time></trkpt><trkpt lat="42.3086828" lon="13.7477905"><ele>487.0</ele><time>2026-05-03T09:16:38.886Z</time></trkpt><trkpt lat="42.3087573" lon="13.7477869"><ele>487.0</ele><time>2026-05-03T09:16:39.886Z</time></trkpt><trkpt lat="42.308822" lon="13.7477808"><ele>487.00000000000006</ele><time>2026-05-03T09:16:40.885Z</time></trkpt><trkpt lat="42.3089227" lon="13.7476989"><ele>487.0</ele><time>2026-05-03T09:16:42.885Z</time></trkpt><trkpt lat="42.3089611" lon="13.747545"><ele>488.14285714285717</ele><time>2026-05-03T09:16:44.886Z</time></trkpt><trkpt lat="42.3089721" lon="13.7474569"><ele>489.2857142857142</ele><time>2026-05-03T09:16:45.885Z</time></trkpt><trkpt lat="42.3089897" lon="13.747374"><ele>490.4285714285714</ele><time>2026-05-03T09:16:46.885Z</time></trkpt><trkpt lat="42.3090234" lon="13.7472909"><ele>491.57142857142856</ele><time>2026-05-03T09:16:47.886Z</time></trkpt><trkpt lat="42.3090658" lon="13.7472051"><ele>492.71428571428567</ele><time>2026-05-03T09:16:48.885Z</time></trkpt><trkpt lat="42.3091152" lon="13.7471154"><ele>493.8571428571428</ele><time>2026-05-03T09:16:49.886Z</time></trkpt><trkpt lat="42.309163" lon="13.747035"><ele>494.99999999999994</ele><time>2026-05-03T09:16:50.886Z</time></trkpt><trkpt lat="42.3092102" lon="13.7469553"><ele>495.0</ele><time>2026-05-03T09:16:51.885Z</time></trkpt><trkpt lat="42.3092589" lon="13.7468794"><ele>495.0</ele><time>2026-05-03T09:16:52.886Z</time></trkpt><trkpt lat="42.3093047" lon="13.746806"><ele>495.0</ele><time>2026-05-03T09:16:53.885Z</time></trkpt><trkpt lat="42.3093529" lon="13.7467295"><ele>495.0</ele><time>2026-05-03T09:16:54.885Z</time></trkpt><trkpt lat="42.3094015" lon="13.7466564"><ele>495.0</ele><time>2026-05-03T09:16:55.885Z</time></trkpt><trkpt lat="42.3094926" lon="13.7465434"><ele>495.0</ele><time>2026-05-03T09:16:57.885Z</time></trkpt><trkpt lat="42.309589" lon="13.7464476"><ele>499.2</ele><time>2026-05-03T09:16:59.886Z</time></trkpt><trkpt lat="42.3096639" lon="13.7464269"><ele>503.4</ele><time>2026-05-03T09:17:01.886Z</time></trkpt><trkpt lat="42.3097393" lon="13.7464743"><ele>507.6</ele><time>2026-05-03T09:17:03.886Z</time></trkpt><trkpt lat="42.3098435" lon="13.7465551"><ele>511.8</ele><time>2026-05-03T09:17:05.885Z</time></trkpt><trkpt lat="42.3099036" lon="13.7466036"><ele>516.0</ele><time>2026-05-03T09:17:06.885Z</time></trkpt><trkpt lat="42.310015" lon="13.7466828"><ele>516.0</ele><time>2026-05-03T09:17:08.886Z</time></trkpt><trkpt lat="42.3101263" lon="13.7467604"><ele>516.0</ele><time>2026-05-03T09:17:10.885Z</time></trkpt><trkpt lat="42.3101874" lon="13.7467955"><ele>516.0</ele><time>2026-05-03T09:17:11.885Z</time></trkpt><trkpt lat="42.3103116" lon="13.7468627"><ele>516.0</ele><time>2026-05-03T09:17:13.886Z</time></trkpt><trkpt lat="42.3103827" lon="13.7469108"><ele>516.0</ele><time>2026-05-03T09:17:14.885Z</time></trkpt><trkpt lat="42.3104584" lon="13.7469524"><ele>512.5</ele><time>2026-05-03T09:17:15.886Z</time></trkpt><trkpt lat="42.3105354" lon="13.7469944"><ele>509.0</ele><time>2026-05-03T09:17:16.885Z</time></trkpt><trkpt lat="42.3106106" lon="13.7470348"><ele>505.5</ele><time>2026-05-03T09:17:17.885Z</time></trkpt><trkpt lat="42.3106842" lon="13.7470731"><ele>502.0</ele><time>2026-05-03T09:17:18.885Z</time></trkpt><trkpt lat="42.3107548" lon="13.7471108"><ele>498.5</ele><time>2026-05-03T09:17:19.885Z</time></trkpt><trkpt lat="42.3108286" lon="13.7471496"><ele>495.0</ele><time>2026-05-03T09:17:20.885Z</time></trkpt><trkpt lat="42.3109111" lon="13.7471897"><ele>495.0</ele><time>2026-05-03T09:17:21.885Z</time></trkpt><trkpt lat="42.3109936" lon="13.7472308"><ele>495.0</ele><time>2026-05-03T09:17:22.885Z</time></trkpt><trkpt lat="42.3110683" lon="13.7472688"><ele>495.0</ele><time>2026-05-03T09:17:23.885Z</time></trkpt><trkpt lat="42.311146" lon="13.7473059"><ele>495.0</ele><time>2026-05-03T09:17:24.886Z</time></trkpt><trkpt lat="42.3112325" lon="13.7473468"><ele>495.0</ele><time>2026-05-03T09:17:25.886Z</time></trkpt><trkpt lat="42.3113163" lon="13.7473902"><ele>495.0</ele><time>2026-05-03T09:17:26.885Z</time></trkpt><trkpt lat="42.3113969" lon="13.7474297"><ele>496.6666666666667</ele><time>2026-05-03T09:17:27.885Z</time></trkpt><trkpt lat="42.3114726" lon="13.7474675"><ele>498.33333333333337</ele><time>2026-05-03T09:17:28.886Z</time></trkpt><trkpt lat="42.3115535" lon="13.747508"><ele>500.0</ele><time>2026-05-03T09:17:29.886Z</time></trkpt><trkpt lat="42.3116359" lon="13.7475525"><ele>501.6666666666667</ele><time>2026-05-03T09:17:30.885Z</time></trkpt><trkpt lat="42.3117199" lon="13.747597"><ele>503.33333333333337</ele><time>2026-05-03T09:17:31.886Z</time></trkpt><trkpt lat="42.3118072" lon="13.7476446"><ele>505.0</ele><time>2026-05-03T09:17:32.885Z</time></trkpt><trkpt lat="42.3118922" lon="13.74769"><ele>499.2</ele><time>2026-05-03T09:17:33.885Z</time></trkpt><trkpt lat="42.3119828" lon="13.7477365"><ele>493.4</ele><time>2026-05-03T09:17:34.886Z</time></trkpt><trkpt lat="42.3120718" lon="13.7477806"><ele>487.6</ele><time>2026-05-03T09:17:35.885Z</time></trkpt><trkpt lat="42.3121583" lon="13.7478207"><ele>481.8</ele><time>2026-05-03T09:17:36.886Z</time></trkpt><trkpt lat="42.3122507" lon="13.7478641"><ele>476.0</ele><time>2026-05-03T09:17:37.886Z</time></trkpt><trkpt lat="42.3123389" lon="13.7479077"><ele>475.66666666666663</ele><time>2026-05-03T09:17:38.885Z</time></trkpt><trkpt lat="42.3124244" lon="13.7479514"><ele>475.3333333333333</ele><time>2026-05-03T09:17:39.886Z</time></trkpt><trkpt lat="42.3125083" lon="13.7479908"><ele>475.0</ele><time>2026-05-03T09:17:40.886Z</time></trkpt><trkpt lat="42.3125878" lon="13.7480338"><ele>474.66666666666663</ele><time>2026-05-03T09:17:41.886Z</time></trkpt><trkpt lat="42.3126722" lon="13.7480805"><ele>474.3333333333333</ele><time>2026-05-03T09:17:42.886Z</time></trkpt><trkpt lat="42.3127573" lon="13.7481273"><ele>474.0</ele><time>2026-05-03T09:17:43.885Z</time></trkpt><trkpt lat="42.3128443" lon="13.748178"><ele>474.0</ele><time>2026-05-03T09:17:44.886Z</time></trkpt><trkpt lat="42.3129414" lon="13.7482378"><ele>474.0</ele><time>2026-05-03T09:17:45.885Z</time></trkpt><trkpt lat="42.3130384" lon="13.7482943"><ele>474.0</ele><time>2026-05-03T09:17:46.886Z</time></trkpt><trkpt lat="42.3131403" lon="13.7483445"><ele>474.0</ele><time>2026-05-03T09:17:47.885Z</time></trkpt><trkpt lat="42.3132458" lon="13.748394"><ele>474.0</ele><time>2026-05-03T09:17:48.885Z</time></trkpt><trkpt lat="42.3133514" lon="13.7484464"><ele>473.6</ele><time>2026-05-03T09:17:49.886Z</time></trkpt><trkpt lat="42.3134509" lon="13.7484983"><ele>473.2</ele><time>2026-05-03T09:17:50.886Z</time></trkpt><trkpt lat="42.3135417" lon="13.7485429"><ele>472.80000000000007</ele><time>2026-05-03T09:17:51.885Z</time></trkpt><trkpt lat="42.3136202" lon="13.7485743"><ele>472.40000000000003</ele><time>2026-05-03T09:17:52.886Z</time></trkpt><trkpt lat="42.3137004" lon="13.7485911"><ele>472.0</ele><time>2026-05-03T09:17:53.886Z</time></trkpt><trkpt lat="42.3137924" lon="13.7485923"><ele>467.40000000000003</ele><time>2026-05-03T09:17:54.886Z</time></trkpt><trkpt lat="42.3138791" lon="13.7485875"><ele>462.80000000000007</ele><time>2026-05-03T09:17:55.885Z</time></trkpt><trkpt lat="42.3139712" lon="13.7485883"><ele>458.2</ele><time>2026-05-03T09:17:56.886Z</time></trkpt><trkpt lat="42.3140623" lon="13.7485863"><ele>453.6</ele><time>2026-05-03T09:17:57.886Z</time></trkpt><trkpt lat="42.3141519" lon="13.7485871"><ele>449.0</ele><time>2026-05-03T09:17:58.885Z</time></trkpt><trkpt lat="42.314243" lon="13.7485934"><ele>449.0</ele><time>2026-05-03T09:17:59.885Z</time></trkpt><trkpt lat="42.3143344" lon="13.748603"><ele>449.0</ele><time>2026-05-03T09:18:00.885Z</time></trkpt><trkpt lat="42.3144288" lon="13.7486094"><ele>449.0</ele><time>2026-05-03T09:18:01.886Z</time></trkpt><trkpt lat="42.3145259" lon="13.7486067"><ele>449.0</ele><time>2026-05-03T09:18:02.886Z</time></trkpt><trkpt lat="42.3146183" lon="13.7485991"><ele>449.0</ele><time>2026-05-03T09:18:03.885Z</time></trkpt><trkpt lat="42.3147118" lon="13.7485997"><ele>448.79999999999995</ele><time>2026-05-03T09:18:04.885Z</time></trkpt><trkpt lat="42.314806" lon="13.748607"><ele>448.59999999999997</ele><time>2026-05-03T09:18:05.885Z</time></trkpt><trkpt lat="42.3149008" lon="13.7486124"><ele>448.4</ele><time>2026-05-03T09:18:06.885Z</time></trkpt><trkpt lat="42.3149935" lon="13.7486123"><ele>448.2</ele><time>2026-05-03T09:18:07.886Z</time></trkpt><trkpt lat="42.3150931" lon="13.7486172"><ele>448.0</ele><time>2026-05-03T09:18:08.885Z</time></trkpt><trkpt lat="42.3151854" lon="13.7486273"><ele>448.0</ele><time>2026-05-03T09:18:09.885Z</time></trkpt><trkpt lat="42.3152825" lon="13.7486289"><ele>447.99999999999994</ele><time>2026-05-03T09:18:10.885Z</time></trkpt><trkpt lat="42.3153789" lon="13.7486247"><ele>447.99999999999994</ele><time>2026-05-03T09:18:11.886Z</time></trkpt><trkpt lat="42.3154751" lon="13.7486174"><ele>448.0</ele><time>2026-05-03T09:18:12.885Z</time></trkpt><trkpt lat="42.3155687" lon="13.7486099"><ele>448.0</ele><time>2026-05-03T09:18:13.885Z</time></trkpt><trkpt lat="42.315666" lon="13.7485979"><ele>448.59999999999997</ele><time>2026-05-03T09:18:14.886Z</time></trkpt><trkpt lat="42.315754" lon="13.748594"><ele>449.19999999999993</ele><time>2026-05-03T09:18:15.886Z</time></trkpt><trkpt lat="42.3158501" lon="13.7486026"><ele>449.8</ele><time>2026-05-03T09:18:16.886Z</time></trkpt><trkpt lat="42.3159458" lon="13.7486173"><ele>450.4</ele><time>2026-05-03T09:18:17.886Z</time></trkpt><trkpt lat="42.3160389" lon="13.7486271"><ele>451.0</ele><time>2026-05-03T09:18:18.885Z</time></trkpt><trkpt lat="42.3161357" lon="13.748636"><ele>451.00000000000006</ele><time>2026-05-03T09:18:19.885Z</time></trkpt><trkpt lat="42.3162349" lon="13.7486486"><ele>451.0</ele><time>2026-05-03T09:18:20.886Z</time></trkpt><trkpt lat="42.3163274" lon="13.7486712"><ele>451.0</ele><time>2026-05-03T09:18:21.885Z</time></trkpt><trkpt lat="42.3164062" lon="13.74871"><ele>451.0</ele><time>2026-05-03T09:18:22.885Z</time></trkpt><trkpt lat="42.3164745" lon="13.7487549"><ele>451.00000000000006</ele><time>2026-05-03T09:18:23.885Z</time></trkpt><trkpt lat="42.3165463" lon="13.7488104"><ele>451.0</ele><time>2026-05-03T09:18:24.886Z</time></trkpt><trkpt lat="42.3166112" lon="13.7488812"><ele>451.85714285714283</ele><time>2026-05-03T09:18:25.885Z</time></trkpt><trkpt lat="42.3166631" lon="13.7489498"><ele>452.7142857142858</ele><time>2026-05-03T09:18:26.886Z</time></trkpt><trkpt lat="42.3167192" lon="13.7490154"><ele>453.5714285714286</ele><time>2026-05-03T09:18:27.885Z</time></trkpt><trkpt lat="42.3167785" lon="13.7490909"><ele>454.42857142857144</ele><time>2026-05-03T09:18:28.885Z</time></trkpt><trkpt lat="42.3168281" lon="13.7491577"><ele>455.28571428571433</ele><time>2026-05-03T09:18:29.885Z</time></trkpt><trkpt lat="42.3168777" lon="13.7492209"><ele>456.1428571428572</ele><time>2026-05-03T09:18:30.885Z</time></trkpt><trkpt lat="42.3169313" lon="13.7492811"><ele>457.00000000000006</ele><time>2026-05-03T09:18:31.886Z</time></trkpt><trkpt lat="42.3170413" lon="13.7493732"><ele>456.33333333333337</ele><time>2026-05-03T09:18:33.885Z</time></trkpt><trkpt lat="42.3171039" lon="13.7494147"><ele>455.6666666666667</ele><time>2026-05-03T09:18:34.885Z</time></trkpt><trkpt lat="42.3171738" lon="13.7494634"><ele>455.0</ele><time>2026-05-03T09:18:35.885Z</time></trkpt><trkpt lat="42.3172436" lon="13.7495149"><ele>454.33333333333337</ele><time>2026-05-03T09:18:36.885Z</time></trkpt><trkpt lat="42.3173131" lon="13.7495753"><ele>453.6666666666667</ele><time>2026-05-03T09:18:37.885Z</time></trkpt><trkpt lat="42.3173894" lon="13.7496386"><ele>453.0</ele><time>2026-05-03T09:18:38.886Z</time></trkpt><trkpt lat="42.3174622" lon="13.7496951"><ele>453.0</ele><time>2026-05-03T09:18:39.885Z</time></trkpt><trkpt lat="42.3175296" lon="13.7497356"><ele>453.0</ele><time>2026-05-03T09:18:40.886Z</time></trkpt><trkpt lat="42.3176007" lon="13.7497555"><ele>453.0</ele><time>2026-05-03T09:18:41.885Z</time></trkpt><trkpt lat="42.317666" lon="13.7497962"><ele>453.0</ele><time>2026-05-03T09:18:42.886Z</time></trkpt><trkpt lat="42.3177171" lon="13.7498574"><ele>453.0</ele><time>2026-05-03T09:18:43.886Z</time></trkpt><trkpt lat="42.3177873" lon="13.749922"><ele>453.0</ele><time>2026-05-03T09:18:44.885Z</time></trkpt><trkpt lat="42.3178632" lon="13.7499655"><ele>453.0</ele><time>2026-05-03T09:18:45.885Z</time></trkpt><trkpt lat="42.3179288" lon="13.7500083"><ele>453.0</ele><time>2026-05-03T09:18:46.885Z</time></trkpt><trkpt lat="42.3179916" lon="13.7500535"><ele>453.0</ele><time>2026-05-03T09:18:47.886Z</time></trkpt><trkpt lat="42.3180489" lon="13.7500942"><ele>453.0</ele><time>2026-05-03T09:18:48.885Z</time></trkpt><trkpt lat="42.3181352" lon="13.7501578"><ele>453.0</ele><time>2026-05-03T09:18:50.885Z</time></trkpt><trkpt lat="42.3181787" lon="13.7502359"><ele>453.0</ele><time>2026-05-03T09:18:52.885Z</time></trkpt><trkpt lat="42.3181422" lon="13.7503568"><ele>452.71428571428567</ele><time>2026-05-03T09:18:54.886Z</time></trkpt><trkpt lat="42.3180948" lon="13.7504212"><ele>452.42857142857144</ele><time>2026-05-03T09:18:55.886Z</time></trkpt><trkpt lat="42.3180442" lon="13.7504908"><ele>452.1428571428571</ele><time>2026-05-03T09:18:56.885Z</time></trkpt><trkpt lat="42.317995" lon="13.7505636"><ele>451.85714285714283</ele><time>2026-05-03T09:18:57.885Z</time></trkpt><trkpt lat="42.317953" lon="13.7506444"><ele>451.57142857142856</ele><time>2026-05-03T09:18:58.885Z</time></trkpt><trkpt lat="42.3179153" lon="13.7507314"><ele>451.2857142857143</ele><time>2026-05-03T09:18:59.885Z</time></trkpt><trkpt lat="42.3178763" lon="13.750819"><ele>451.0</ele><time>2026-05-03T09:19:00.885Z</time></trkpt><trkpt lat="42.3178336" lon="13.7509048"><ele>449.6666666666667</ele><time>2026-05-03T09:19:01.885Z</time></trkpt><trkpt lat="42.3177917" lon="13.7509911"><ele>448.33333333333337</ele><time>2026-05-03T09:19:02.885Z</time></trkpt><trkpt lat="42.3177515" lon="13.7510795"><ele>447.0</ele><time>2026-05-03T09:19:03.885Z</time></trkpt><trkpt lat="42.3177176" lon="13.751169"><ele>445.66666666666663</ele><time>2026-05-03T09:19:04.885Z</time></trkpt><trkpt lat="42.3176771" lon="13.7513088"><ele>444.3333333333333</ele><time>2026-05-03T09:19:06.885Z</time></trkpt><trkpt lat="42.3176511" lon="13.7514003"><ele>443.0</ele><time>2026-05-03T09:19:08.885Z</time></trkpt><trkpt lat="42.3176285" lon="13.7514801"><ele>442.4</ele><time>2026-05-03T09:19:12.886Z</time></trkpt><trkpt lat="42.3177046" lon="13.7515529"><ele>441.79999999999995</ele><time>2026-05-03T09:19:15.885Z</time></trkpt><trkpt lat="42.3178123" lon="13.7515697"><ele>441.2</ele><time>2026-05-03T09:19:17.885Z</time></trkpt><trkpt lat="42.3179395" lon="13.7515425"><ele>440.6</ele><time>2026-05-03T09:19:19.886Z</time></trkpt><trkpt lat="42.3180067" lon="13.7515191"><ele>440.0</ele><time>2026-05-03T09:19:20.885Z</time></trkpt><trkpt lat="42.3180776" lon="13.7514879"><ele>439.99999999999994</ele><time>2026-05-03T09:19:21.885Z</time></trkpt><trkpt lat="42.3181528" lon="13.7514536"><ele>440.0</ele><time>2026-05-03T09:19:22.885Z</time></trkpt><trkpt lat="42.3182236" lon="13.751415"><ele>440.0</ele><time>2026-05-03T09:19:23.885Z</time></trkpt><trkpt lat="42.3182952" lon="13.7513739"><ele>440.0</ele><time>2026-05-03T09:19:24.885Z</time></trkpt><trkpt lat="42.3183667" lon="13.7513423"><ele>439.99999999999994</ele><time>2026-05-03T09:19:25.885Z</time></trkpt><trkpt lat="42.318438" lon="13.7513199"><ele>440.0</ele><time>2026-05-03T09:19:26.886Z</time></trkpt><trkpt lat="42.3185081" lon="13.7513017"><ele>439.99999999999994</ele><time>2026-05-03T09:19:27.885Z</time></trkpt><trkpt lat="42.3185747" lon="13.7512911"><ele>440.0</ele><time>2026-05-03T09:19:28.885Z</time></trkpt><trkpt lat="42.3186808" lon="13.7513014"><ele>440.0</ele><time>2026-05-03T09:19:30.885Z</time></trkpt><trkpt lat="42.3188016" lon="13.7513232"><ele>440.0</ele><time>2026-05-03T09:19:32.886Z</time></trkpt><trkpt lat="42.3188709" lon="13.7513335"><ele>439.99999999999994</ele><time>2026-05-03T09:19:33.885Z</time></trkpt><trkpt lat="42.3189475" lon="13.7513451"><ele>440.0</ele><time>2026-05-03T09:19:34.885Z</time></trkpt><trkpt lat="42.3190231" lon="13.7513517"><ele>440.99999999999994</ele><time>2026-05-03T09:19:35.885Z</time></trkpt><trkpt lat="42.3190926" lon="13.7513665"><ele>442.0</ele><time>2026-05-03T09:19:36.885Z</time></trkpt><trkpt lat="42.3191749" lon="13.7514751"><ele>443.0</ele><time>2026-05-03T09:19:38.886Z</time></trkpt><trkpt lat="42.319202" lon="13.7515577"><ele>444.0</ele><time>2026-05-03T09:19:39.886Z</time></trkpt><trkpt lat="42.3192344" lon="13.7516503"><ele>444.99999999999994</ele><time>2026-05-03T09:19:40.886Z</time></trkpt><trkpt lat="42.3192716" lon="13.7517443"><ele>446.0</ele><time>2026-05-03T09:19:41.886Z</time></trkpt><trkpt lat="42.3193077" lon="13.7518418"><ele>443.4</ele><time>2026-05-03T09:19:42.885Z</time></trkpt><trkpt lat="42.3193591" lon="13.7519392"><ele>440.8</ele><time>2026-05-03T09:19:43.885Z</time></trkpt><trkpt lat="42.3194183" lon="13.7520405"><ele>438.19999999999993</ele><time>2026-05-03T09:19:44.885Z</time></trkpt><trkpt lat="42.3194714" lon="13.7521439"><ele>435.59999999999997</ele><time>2026-05-03T09:19:45.885Z</time></trkpt><trkpt lat="42.3195184" lon="13.7522465"><ele>433.0</ele><time>2026-05-03T09:19:46.886Z</time></trkpt><trkpt lat="42.3195598" lon="13.7523604"><ele>433.0</ele><time>2026-05-03T09:19:47.885Z</time></trkpt><trkpt lat="42.3195978" lon="13.7524836"><ele>432.99999999999994</ele><time>2026-05-03T09:19:48.886Z</time></trkpt><trkpt lat="42.3196278" lon="13.7526018"><ele>432.99999999999994</ele><time>2026-05-03T09:19:49.885Z</time></trkpt><trkpt lat="42.3196551" lon="13.7527163"><ele>433.0</ele><time>2026-05-03T09:19:50.886Z</time></trkpt><trkpt lat="42.3196861" lon="13.7528349"><ele>433.0</ele><time>2026-05-03T09:19:51.885Z</time></trkpt><trkpt lat="42.3197159" lon="13.7529489"><ele>432.59999999999997</ele><time>2026-05-03T09:19:52.886Z</time></trkpt><trkpt lat="42.319747" lon="13.7530711"><ele>432.19999999999993</ele><time>2026-05-03T09:19:53.885Z</time></trkpt><trkpt lat="42.3197802" lon="13.7531923"><ele>431.8</ele><time>2026-05-03T09:19:54.885Z</time></trkpt><trkpt lat="42.3198138" lon="13.7533127"><ele>431.4</ele><time>2026-05-03T09:19:55.885Z</time></trkpt><trkpt lat="42.3198465" lon="13.7534368"><ele>431.0</ele><time>2026-05-03T09:19:56.886Z</time></trkpt><trkpt lat="42.3198795" lon="13.7535568"><ele>431.0</ele><time>2026-05-03T09:19:57.886Z</time></trkpt><trkpt lat="42.3199131" lon="13.7536781"><ele>431.0</ele><time>2026-05-03T09:19:58.885Z</time></trkpt><trkpt lat="42.3199464" lon="13.7537974"><ele>431.0</ele><time>2026-05-03T09:19:59.886Z</time></trkpt><trkpt lat="42.3199778" lon="13.7539133"><ele>431.0</ele><time>2026-05-03T09:20:00.885Z</time></trkpt><trkpt lat="42.3200091" lon="13.7540288"><ele>431.0</ele><time>2026-05-03T09:20:01.886Z</time></trkpt><trkpt lat="42.3200441" lon="13.7541391"><ele>431.0</ele><time>2026-05-03T09:20:02.885Z</time></trkpt><trkpt lat="42.3200895" lon="13.7542506"><ele>431.0</ele><time>2026-05-03T09:20:03.885Z</time></trkpt><trkpt lat="42.3201421" lon="13.7543595"><ele>431.0</ele><time>2026-05-03T09:20:04.886Z</time></trkpt><trkpt lat="42.3201947" lon="13.7544688"><ele>431.0</ele><time>2026-05-03T09:20:05.885Z</time></trkpt><trkpt lat="42.3202456" lon="13.7545796"><ele>431.0</ele><time>2026-05-03T09:20:06.886Z</time></trkpt><trkpt lat="42.3202921" lon="13.7546935"><ele>430.99999999999994</ele><time>2026-05-03T09:20:07.886Z</time></trkpt><trkpt lat="42.3203351" lon="13.7548214"><ele>431.0</ele><time>2026-05-03T09:20:08.886Z</time></trkpt><trkpt lat="42.3203752" lon="13.7549426"><ele>431.0</ele><time>2026-05-03T09:20:09.885Z</time></trkpt><trkpt lat="42.320411" lon="13.7550511"><ele>431.0</ele><time>2026-05-03T09:20:10.885Z</time></trkpt><trkpt lat="42.3204368" lon="13.7551431"><ele>430.99999999999994</ele><time>2026-05-03T09:20:11.885Z</time></trkpt><trkpt lat="42.3204654" lon="13.7552335"><ele>431.0</ele><time>2026-05-03T09:20:12.885Z</time></trkpt><trkpt lat="42.3205016" lon="13.7553186"><ele>430.99999999999994</ele><time>2026-05-03T09:20:13.885Z</time></trkpt><trkpt lat="42.3205508" lon="13.755396"><ele>431.0</ele><time>2026-05-03T09:20:14.885Z</time></trkpt><trkpt lat="42.3206053" lon="13.7554606"><ele>431.0</ele><time>2026-05-03T09:20:15.885Z</time></trkpt><trkpt lat="42.3206638" lon="13.7555179"><ele>431.0</ele><time>2026-05-03T09:20:16.886Z</time></trkpt><trkpt lat="42.3207252" lon="13.7555828"><ele>430.99999999999994</ele><time>2026-05-03T09:20:17.885Z</time></trkpt><trkpt lat="42.3207909" lon="13.7556474"><ele>431.0</ele><time>2026-05-03T09:20:18.885Z</time></trkpt><trkpt lat="42.3208564" lon="13.7557059"><ele>431.99999999999994</ele><time>2026-05-03T09:20:19.886Z</time></trkpt><trkpt lat="42.3209251" lon="13.7557588"><ele>433.0</ele><time>2026-05-03T09:20:20.885Z</time></trkpt><trkpt lat="42.3209936" lon="13.75581"><ele>434.0</ele><time>2026-05-03T09:20:21.885Z</time></trkpt><trkpt lat="42.3210559" lon="13.7558707"><ele>435.0</ele><time>2026-05-03T09:20:22.885Z</time></trkpt><trkpt lat="42.3211078" lon="13.7559415"><ele>435.99999999999994</ele><time>2026-05-03T09:20:23.886Z</time></trkpt><trkpt lat="42.3211547" lon="13.7560179"><ele>437.0</ele><time>2026-05-03T09:20:24.885Z</time></trkpt><trkpt lat="42.3212003" lon="13.7560945"><ele>437.57142857142856</ele><time>2026-05-03T09:20:25.885Z</time></trkpt><trkpt lat="42.3212446" lon="13.7561715"><ele>438.14285714285717</ele><time>2026-05-03T09:20:26.885Z</time></trkpt><trkpt lat="42.3212916" lon="13.7562457"><ele>438.7142857142857</ele><time>2026-05-03T09:20:27.885Z</time></trkpt><trkpt lat="42.3213446" lon="13.7563103"><ele>439.2857142857143</ele><time>2026-05-03T09:20:28.885Z</time></trkpt><trkpt lat="42.321399" lon="13.7563663"><ele>439.8571428571429</ele><time>2026-05-03T09:20:29.885Z</time></trkpt><trkpt lat="42.3214529" lon="13.7564197"><ele>440.42857142857144</ele><time>2026-05-03T09:20:30.885Z</time></trkpt><trkpt lat="42.3215094" lon="13.7564696"><ele>441.0</ele><time>2026-05-03T09:20:31.886Z</time></trkpt><trkpt lat="42.3215638" lon="13.7565184"><ele>441.85714285714283</ele><time>2026-05-03T09:20:32.885Z</time></trkpt><trkpt lat="42.3216167" lon="13.7565714"><ele>442.7142857142857</ele><time>2026-05-03T09:20:33.885Z</time></trkpt><trkpt lat="42.3216691" lon="13.7566257"><ele>443.57142857142856</ele><time>2026-05-03T09:20:34.885Z</time></trkpt><trkpt lat="42.3217217" lon="13.7566782"><ele>444.42857142857144</ele><time>2026-05-03T09:20:35.885Z</time></trkpt><trkpt lat="42.3217758" lon="13.7567355"><ele>445.2857142857143</ele><time>2026-05-03T09:20:36.885Z</time></trkpt><trkpt lat="42.3218365" lon="13.756795"><ele>446.1428571428571</ele><time>2026-05-03T09:20:37.885Z</time></trkpt><trkpt lat="42.3218986" lon="13.7568443"><ele>447.0</ele><time>2026-05-03T09:20:38.886Z</time></trkpt><trkpt lat="42.3219673" lon="13.75688"><ele>447.6666666666667</ele><time>2026-05-03T09:20:39.885Z</time></trkpt><trkpt lat="42.3220379" lon="13.7569075"><ele>448.33333333333337</ele><time>2026-05-03T09:20:40.885Z</time></trkpt><trkpt lat="42.322113" lon="13.7569405"><ele>449.0</ele><time>2026-05-03T09:20:41.886Z</time></trkpt><trkpt lat="42.3221809" lon="13.7569956"><ele>449.6666666666667</ele><time>2026-05-03T09:20:42.885Z</time></trkpt><trkpt lat="42.3222386" lon="13.7570676"><ele>450.33333333333337</ele><time>2026-05-03T09:20:43.887Z</time></trkpt><trkpt lat="42.3222939" lon="13.7571445"><ele>451.0</ele><time>2026-05-03T09:20:44.886Z</time></trkpt><trkpt lat="42.322356" lon="13.7572175"><ele>452.1666666666667</ele><time>2026-05-03T09:20:45.886Z</time></trkpt><trkpt lat="42.3224127" lon="13.7572947"><ele>453.33333333333337</ele><time>2026-05-03T09:20:46.886Z</time></trkpt><trkpt lat="42.3224629" lon="13.757379"><ele>454.5</ele><time>2026-05-03T09:20:47.885Z</time></trkpt><trkpt lat="42.3225092" lon="13.7574808"><ele>455.66666666666663</ele><time>2026-05-03T09:20:48.886Z</time></trkpt><trkpt lat="42.3225489" lon="13.7575981"><ele>456.8333333333333</ele><time>2026-05-03T09:20:49.885Z</time></trkpt><trkpt lat="42.3225836" lon="13.7577161"><ele>458.0</ele><time>2026-05-03T09:20:50.886Z</time></trkpt><trkpt lat="42.3226217" lon="13.757835"><ele>458.49999999999994</ele><time>2026-05-03T09:20:51.886Z</time></trkpt><trkpt lat="42.3226571" lon="13.757937"><ele>459.0</ele><time>2026-05-03T09:20:52.886Z</time></trkpt><trkpt lat="42.3226873" lon="13.7580299"><ele>459.5</ele><time>2026-05-03T09:20:53.885Z</time></trkpt><trkpt lat="42.3227482" lon="13.7581443"><ele>460.0</ele><time>2026-05-03T09:20:55.885Z</time></trkpt><trkpt lat="42.3228492" lon="13.7581911"><ele>460.49999999999994</ele><time>2026-05-03T09:20:57.886Z</time></trkpt><trkpt lat="42.3229193" lon="13.7582029"><ele>461.0</ele><time>2026-05-03T09:20:58.885Z</time></trkpt><trkpt lat="42.322993" lon="13.7582225"><ele>463.0</ele><time>2026-05-03T09:20:59.885Z</time></trkpt><trkpt lat="42.3230741" lon="13.758253"><ele>465.0</ele><time>2026-05-03T09:21:00.885Z</time></trkpt><trkpt lat="42.3231582" lon="13.758284"><ele>467.0</ele><time>2026-05-03T09:21:01.885Z</time></trkpt><trkpt lat="42.323246" lon="13.7583237"><ele>469.0</ele><time>2026-05-03T09:21:02.886Z</time></trkpt><trkpt lat="42.3233366" lon="13.7583746"><ele>471.0</ele><time>2026-05-03T09:21:03.884Z</time></trkpt><trkpt lat="42.3234277" lon="13.7584207"><ele>471.0</ele><time>2026-05-03T09:21:04.885Z</time></trkpt><trkpt lat="42.3235169" lon="13.7584624"><ele>471.0</ele><time>2026-05-03T09:21:05.886Z</time></trkpt><trkpt lat="42.3236041" lon="13.7585132"><ele>471.0</ele><time>2026-05-03T09:21:06.885Z</time></trkpt><trkpt lat="42.323687" lon="13.7585794"><ele>471.0</ele><time>2026-05-03T09:21:07.886Z</time></trkpt><trkpt lat="42.3237603" lon="13.7586594"><ele>471.0</ele><time>2026-05-03T09:21:08.886Z</time></trkpt><trkpt lat="42.3238252" lon="13.7587524"><ele>471.5</ele><time>2026-05-03T09:21:09.886Z</time></trkpt><trkpt lat="42.3238778" lon="13.7588584"><ele>472.0</ele><time>2026-05-03T09:21:10.885Z</time></trkpt><trkpt lat="42.3239153" lon="13.7589672"><ele>472.5</ele><time>2026-05-03T09:21:11.886Z</time></trkpt><trkpt lat="42.3239426" lon="13.7590871"><ele>473.0</ele><time>2026-05-03T09:21:12.886Z</time></trkpt><trkpt lat="42.3239568" lon="13.7592127"><ele>473.5</ele><time>2026-05-03T09:21:13.885Z</time></trkpt><trkpt lat="42.3239591" lon="13.7593147"><ele>474.0</ele><time>2026-05-03T09:21:14.885Z</time></trkpt><trkpt lat="42.3239942" lon="13.7594545"><ele>476.1666666666667</ele><time>2026-05-03T09:21:16.885Z</time></trkpt><trkpt lat="42.324063" lon="13.7595058"><ele>478.33333333333337</ele><time>2026-05-03T09:21:18.885Z</time></trkpt><trkpt lat="42.3241714" lon="13.7595102"><ele>480.5</ele><time>2026-05-03T09:21:20.886Z</time></trkpt><trkpt lat="42.3242489" lon="13.7595092"><ele>482.6666666666667</ele><time>2026-05-03T09:21:21.885Z</time></trkpt><trkpt lat="42.3243317" lon="13.7595177"><ele>484.83333333333337</ele><time>2026-05-03T09:21:22.885Z</time></trkpt><trkpt lat="42.3244128" lon="13.7595335"><ele>487.0</ele><time>2026-05-03T09:21:23.886Z</time></trkpt><trkpt lat="42.324491" lon="13.7595438"><ele>487.00000000000006</ele><time>2026-05-03T09:21:24.885Z</time></trkpt><trkpt lat="42.3245678" lon="13.7595531"><ele>487.0</ele><time>2026-05-03T09:21:25.885Z</time></trkpt><trkpt lat="42.3246636" lon="13.7595117"><ele>487.0</ele><time>2026-05-03T09:21:27.885Z</time></trkpt><trkpt lat="42.3247251" lon="13.7594668"><ele>487.0</ele><time>2026-05-03T09:21:28.885Z</time></trkpt><trkpt lat="42.324781" lon="13.7593926"><ele>487.00000000000006</ele><time>2026-05-03T09:21:29.886Z</time></trkpt><trkpt lat="42.3248278" lon="13.7593095"><ele>487.0</ele><time>2026-05-03T09:21:30.885Z</time></trkpt><trkpt lat="42.3248689" lon="13.7592196"><ele>487.6666666666667</ele><time>2026-05-03T09:21:31.886Z</time></trkpt><trkpt lat="42.3248972" lon="13.759122"><ele>488.33333333333337</ele><time>2026-05-03T09:21:32.885Z</time></trkpt><trkpt lat="42.3249121" lon="13.7590325"><ele>489.0</ele><time>2026-05-03T09:21:33.884Z</time></trkpt><trkpt lat="42.324927" lon="13.7588917"><ele>489.66666666666663</ele><time>2026-05-03T09:21:35.885Z</time></trkpt><trkpt lat="42.3249636" lon="13.7588189"><ele>490.3333333333333</ele><time>2026-05-03T09:21:37.886Z</time></trkpt><trkpt lat="42.3250037" lon="13.7588932"><ele>491.0</ele><time>2026-05-03T09:21:40.886Z</time></trkpt><trkpt lat="42.3249791" lon="13.7590316"><ele>491.0</ele><time>2026-05-03T09:21:42.885Z</time></trkpt><trkpt lat="42.3249564" lon="13.7591922"><ele>491.0</ele><time>2026-05-03T09:21:44.885Z</time></trkpt><trkpt lat="42.3249474" lon="13.7593495"><ele>491.0</ele><time>2026-05-03T09:21:46.885Z</time></trkpt><trkpt lat="42.3249661" lon="13.7594746"><ele>491.0</ele><time>2026-05-03T09:21:48.885Z</time></trkpt><trkpt lat="42.32498" lon="13.7595724"><ele>491.0</ele><time>2026-05-03T09:21:50.885Z</time></trkpt><trkpt lat="42.3249519" lon="13.759663"><ele>491.66666666666663</ele><time>2026-05-03T09:21:53.885Z</time></trkpt><trkpt lat="42.3249997" lon="13.7596013"><ele>492.3333333333333</ele><time>2026-05-03T09:52:28.881Z</time></trkpt><trkpt lat="42.3250896" lon="13.7595956"><ele>493.0</ele><time>2026-05-03T09:52:31.881Z</time></trkpt><trkpt lat="42.3251616" lon="13.7595777"><ele>493.66666666666663</ele><time>2026-05-03T09:52:33.881Z</time></trkpt><trkpt lat="42.3252353" lon="13.759604"><ele>494.3333333333333</ele><time>2026-05-03T09:52:35.88Z</time></trkpt><trkpt lat="42.3252742" lon="13.7597305"><ele>495.0</ele><time>2026-05-03T09:52:37.88Z</time></trkpt><trkpt lat="42.3253353" lon="13.7598714"><ele>495.0</ele><time>2026-05-03T09:52:39.879Z</time></trkpt><trkpt lat="42.3253737" lon="13.7599466"><ele>495.0</ele><time>2026-05-03T09:52:40.879Z</time></trkpt><trkpt lat="42.3254134" lon="13.7600218"><ele>495.0</ele><time>2026-05-03T09:52:41.879Z</time></trkpt><trkpt lat="42.3254511" lon="13.7601018"><ele>495.0</ele><time>2026-05-03T09:52:42.879Z</time></trkpt><trkpt lat="42.3254848" lon="13.7601804"><ele>495.0</ele><time>2026-05-03T09:52:43.88Z</time></trkpt><trkpt lat="42.325547" lon="13.7602865"><ele>495.0</ele><time>2026-05-03T09:52:45.88Z</time></trkpt><trkpt lat="42.3255965" lon="13.760379"><ele>496.0</ele><time>2026-05-03T09:52:48.88Z</time></trkpt><trkpt lat="42.3255397" lon="13.7604678"><ele>497.0</ele><time>2026-05-03T09:52:51.88Z</time></trkpt><trkpt lat="42.3254511" lon="13.7604786"><ele>498.0</ele><time>2026-05-03T09:52:53.879Z</time></trkpt><trkpt lat="42.3253493" lon="13.7604947"><ele>499.0</ele><time>2026-05-03T09:52:55.88Z</time></trkpt><trkpt lat="42.3252516" lon="13.7604991"><ele>500.0</ele><time>2026-05-03T09:52:57.88Z</time></trkpt><trkpt lat="42.3251574" lon="13.7605037"><ele>499.99999999999994</ele><time>2026-05-03T09:52:59.879Z</time></trkpt><trkpt lat="42.3250647" lon="13.7604853"><ele>500.0</ele><time>2026-05-03T09:53:01.88Z</time></trkpt><trkpt lat="42.3249892" lon="13.7604485"><ele>500.0</ele><time>2026-05-03T09:53:03.879Z</time></trkpt><trkpt lat="42.3249128" lon="13.7604053"><ele>500.0</ele><time>2026-05-03T09:53:05.88Z</time></trkpt><trkpt lat="42.3248298" lon="13.7603582"><ele>499.99999999999994</ele><time>2026-05-03T09:53:07.879Z</time></trkpt><trkpt lat="42.3247485" lon="13.7603098"><ele>500.0</ele><time>2026-05-03T09:53:09.881Z</time></trkpt><trkpt lat="42.3246693" lon="13.760263"><ele>499.99999999999994</ele><time>2026-05-03T09:53:11.88Z</time></trkpt><trkpt lat="42.3246034" lon="13.7601995"><ele>500.0</ele><time>2026-05-03T09:53:13.879Z</time></trkpt><trkpt lat="42.3245364" lon="13.7602171"><ele>500.0</ele><time>2026-05-03T09:53:16.88Z</time></trkpt><trkpt lat="42.3245969" lon="13.7602775"><ele>500.0</ele><time>2026-05-03T09:53:18.88Z</time></trkpt><trkpt lat="42.3247195" lon="13.7603416"><ele>499.99999999999994</ele><time>2026-05-03T09:53:20.88Z</time></trkpt><trkpt lat="42.3247854" lon="13.7603733"><ele>500.0</ele><time>2026-05-03T09:53:21.879Z</time></trkpt><trkpt lat="42.3248459" lon="13.7604014"><ele>500.0</ele><time>2026-05-03T09:53:22.88Z</time></trkpt><trkpt lat="42.3249473" lon="13.7604677"><ele>500.0</ele><time>2026-05-03T09:53:24.879Z</time></trkpt><trkpt lat="42.3249357" lon="13.7605773"><ele>500.0</ele><time>2026-05-03T09:53:26.88Z</time></trkpt><trkpt lat="42.3248539" lon="13.7607001"><ele>500.0</ele><time>2026-05-03T09:53:28.88Z</time></trkpt><trkpt lat="42.3248011" lon="13.7607552"><ele>500.0</ele><time>2026-05-03T09:53:29.879Z</time></trkpt><trkpt lat="42.3247316" lon="13.760806"><ele>500.0</ele><time>2026-05-03T09:53:30.88Z</time></trkpt><trkpt lat="42.324653" lon="13.7608466"><ele>500.0</ele><time>2026-05-03T09:53:31.879Z</time></trkpt><trkpt lat="42.3245611" lon="13.7608683"><ele>500.0</ele><time>2026-05-03T09:53:32.88Z</time></trkpt><trkpt lat="42.3244626" lon="13.760868"><ele>500.0</ele><time>2026-05-03T09:53:33.879Z</time></trkpt><trkpt lat="42.324363" lon="13.7608535"><ele>500.0</ele><time>2026-05-03T09:53:34.88Z</time></trkpt><trkpt lat="42.3242662" lon="13.7608376"><ele>500.0</ele><time>2026-05-03T09:53:35.88Z</time></trkpt><trkpt lat="42.3241728" lon="13.7608281"><ele>500.0</ele><time>2026-05-03T09:53:36.879Z</time></trkpt><trkpt lat="42.3240923" lon="13.7608213"><ele>500.0</ele><time>2026-05-03T09:53:37.879Z</time></trkpt><trkpt lat="42.3240092" lon="13.7608265"><ele>500.0</ele><time>2026-05-03T09:53:38.88Z</time></trkpt><trkpt lat="42.3239162" lon="13.7608247"><ele>500.0</ele><time>2026-05-03T09:53:39.879Z</time></trkpt><trkpt lat="42.3238169" lon="13.7608198"><ele>499.8</ele><time>2026-05-03T09:53:40.88Z</time></trkpt><trkpt lat="42.3237117" lon="13.7608157"><ele>499.6</ele><time>2026-05-03T09:53:41.879Z</time></trkpt><trkpt lat="42.3236" lon="13.7608115"><ele>499.4</ele><time>2026-05-03T09:53:42.879Z</time></trkpt><trkpt lat="42.3234885" lon="13.7608097"><ele>499.2</ele><time>2026-05-03T09:53:43.88Z</time></trkpt><trkpt lat="42.3233755" lon="13.7608238"><ele>499.0</ele><time>2026-05-03T09:53:44.879Z</time></trkpt><trkpt lat="42.3232658" lon="13.7608487"><ele>499.0</ele><time>2026-05-03T09:53:45.879Z</time></trkpt><trkpt lat="42.3231555" lon="13.7608757"><ele>499.0</ele><time>2026-05-03T09:53:46.879Z</time></trkpt><trkpt lat="42.3230465" lon="13.760915"><ele>499.0</ele><time>2026-05-03T09:53:47.879Z</time></trkpt><trkpt lat="42.3229346" lon="13.7609792"><ele>499.0</ele><time>2026-05-03T09:53:48.879Z</time></trkpt><trkpt lat="42.3228181" lon="13.7610633"><ele>498.5</ele><time>2026-05-03T09:53:49.879Z</time></trkpt><trkpt lat="42.3226929" lon="13.7611548"><ele>498.0</ele><time>2026-05-03T09:53:50.879Z</time></trkpt><trkpt lat="42.3225667" lon="13.7612489"><ele>497.5</ele><time>2026-05-03T09:53:51.879Z</time></trkpt><trkpt lat="42.3224408" lon="13.7613381"><ele>497.0</ele><time>2026-05-03T09:53:52.879Z</time></trkpt><trkpt lat="42.3223145" lon="13.7614234"><ele>494.25</ele><time>2026-05-03T09:53:53.879Z</time></trkpt><trkpt lat="42.3221838" lon="13.7615116"><ele>491.5</ele><time>2026-05-03T09:53:54.879Z</time></trkpt><trkpt lat="42.322063" lon="13.7615902"><ele>488.75</ele><time>2026-05-03T09:53:55.88Z</time></trkpt><trkpt lat="42.3219494" lon="13.7616626"><ele>486.0</ele><time>2026-05-03T09:53:56.88Z</time></trkpt><trkpt lat="42.3218448" lon="13.7617263"><ele>486.0</ele><time>2026-05-03T09:53:57.879Z</time></trkpt><trkpt lat="42.3217705" lon="13.7617679"><ele>486.0</ele><time>2026-05-03T09:53:58.879Z</time></trkpt><trkpt lat="42.3216498" lon="13.7617686"><ele>486.0</ele><time>2026-05-03T09:54:00.879Z</time></trkpt><trkpt lat="42.3215874" lon="13.7617111"><ele>486.0</ele><time>2026-05-03T09:54:01.879Z</time></trkpt><trkpt lat="42.321534" lon="13.7616402"><ele>486.0</ele><time>2026-05-03T09:54:02.879Z</time></trkpt><trkpt lat="42.3214858" lon="13.7615666"><ele>486.0</ele><time>2026-05-03T09:54:03.88Z</time></trkpt><trkpt lat="42.3214506" lon="13.7614853"><ele>486.0</ele><time>2026-05-03T09:54:04.88Z</time></trkpt><trkpt lat="42.3214302" lon="13.7613909"><ele>486.0</ele><time>2026-05-03T09:54:05.88Z</time></trkpt><trkpt lat="42.3214235" lon="13.7612919"><ele>486.0</ele><time>2026-05-03T09:54:06.88Z</time></trkpt><trkpt lat="42.3214177" lon="13.7611945"><ele>486.0</ele><time>2026-05-03T09:54:07.879Z</time></trkpt><trkpt lat="42.3214061" lon="13.7610977"><ele>486.0</ele><time>2026-05-03T09:54:08.879Z</time></trkpt><trkpt lat="42.3213875" lon="13.7610058"><ele>486.0</ele><time>2026-05-03T09:54:09.879Z</time></trkpt><trkpt lat="42.321345" lon="13.760859"><ele>483.3333333333333</ele><time>2026-05-03T09:54:11.879Z</time></trkpt><trkpt lat="42.3213103" lon="13.7607583"><ele>480.66666666666663</ele><time>2026-05-03T09:54:13.879Z</time></trkpt><trkpt lat="42.3212789" lon="13.7606699"><ele>478.0</ele><time>2026-05-03T09:54:15.879Z</time></trkpt><trkpt lat="42.3212527" lon="13.760563"><ele>475.3333333333333</ele><time>2026-05-03T09:54:17.88Z</time></trkpt><trkpt lat="42.3212481" lon="13.7604569"><ele>472.66666666666663</ele><time>2026-05-03T09:54:19.881Z</time></trkpt><trkpt lat="42.3212013" lon="13.7603931"><ele>470.0</ele><time>2026-05-03T09:54:22.879Z</time></trkpt><trkpt lat="42.3211158" lon="13.7604347"><ele>469.99999999999994</ele><time>2026-05-03T09:54:24.88Z</time></trkpt><trkpt lat="42.3209959" lon="13.7605039"><ele>470.0</ele><time>2026-05-03T09:54:26.88Z</time></trkpt><trkpt lat="42.3209307" lon="13.7605452"><ele>470.0</ele><time>2026-05-03T09:54:27.88Z</time></trkpt><trkpt lat="42.3208652" lon="13.7605964"><ele>470.0</ele><time>2026-05-03T09:54:28.879Z</time></trkpt><trkpt lat="42.3207928" lon="13.7606439"><ele>469.99999999999994</ele><time>2026-05-03T09:54:29.88Z</time></trkpt><trkpt lat="42.3207252" lon="13.7606968"><ele>470.0</ele><time>2026-05-03T09:54:30.879Z</time></trkpt><trkpt lat="42.3206564" lon="13.7607431"><ele>469.99999999999994</ele><time>2026-05-03T09:54:31.879Z</time></trkpt><trkpt lat="42.320593" lon="13.7607898"><ele>470.0</ele><time>2026-05-03T09:54:32.879Z</time></trkpt><trkpt lat="42.3205321" lon="13.7608324"><ele>470.0</ele><time>2026-05-03T09:54:33.88Z</time></trkpt><trkpt lat="42.3204636" lon="13.7608773"><ele>470.0</ele><time>2026-05-03T09:54:34.879Z</time></trkpt><trkpt lat="42.3203923" lon="13.760938"><ele>469.99999999999994</ele><time>2026-05-03T09:54:35.88Z</time></trkpt><trkpt lat="42.3203202" lon="13.7610047"><ele>470.0</ele><time>2026-05-03T09:54:36.88Z</time></trkpt><trkpt lat="42.3202516" lon="13.7610781"><ele>469.2</ele><time>2026-05-03T09:54:37.88Z</time></trkpt><trkpt lat="42.3201855" lon="13.7611629"><ele>468.4</ele><time>2026-05-03T09:54:38.879Z</time></trkpt><trkpt lat="42.3201224" lon="13.7612513"><ele>467.6</ele><time>2026-05-03T09:54:39.879Z</time></trkpt><trkpt lat="42.3200572" lon="13.7613367"><ele>466.8</ele><time>2026-05-03T09:54:40.879Z</time></trkpt><trkpt lat="42.3199899" lon="13.7614196"><ele>466.0</ele><time>2026-05-03T09:54:41.879Z</time></trkpt><trkpt lat="42.3199131" lon="13.7614878"><ele>466.0</ele><time>2026-05-03T09:54:42.88Z</time></trkpt><trkpt lat="42.3198314" lon="13.7615545"><ele>466.0</ele><time>2026-05-03T09:54:43.88Z</time></trkpt><trkpt lat="42.3197479" lon="13.7616248"><ele>466.0</ele><time>2026-05-03T09:54:44.879Z</time></trkpt><trkpt lat="42.3196632" lon="13.7616939"><ele>466.0</ele><time>2026-05-03T09:54:45.88Z</time></trkpt><trkpt lat="42.3195776" lon="13.7617622"><ele>466.0</ele><time>2026-05-03T09:54:46.88Z</time></trkpt><trkpt lat="42.3195006" lon="13.7618286"><ele>465.6</ele><time>2026-05-03T09:54:47.88Z</time></trkpt><trkpt lat="42.3194191" lon="13.7618971"><ele>465.20000000000005</ele><time>2026-05-03T09:54:48.879Z</time></trkpt><trkpt lat="42.3193277" lon="13.7619627"><ele>464.79999999999995</ele><time>2026-05-03T09:54:49.879Z</time></trkpt><trkpt lat="42.3192488" lon="13.7620219"><ele>464.4</ele><time>2026-05-03T09:54:50.879Z</time></trkpt><trkpt lat="42.3191636" lon="13.7620856"><ele>464.0</ele><time>2026-05-03T09:54:51.879Z</time></trkpt><trkpt lat="42.3190836" lon="13.7621451"><ele>464.0</ele><time>2026-05-03T09:54:52.88Z</time></trkpt><trkpt lat="42.3189952" lon="13.762202"><ele>464.0</ele><time>2026-05-03T09:54:53.88Z</time></trkpt><trkpt lat="42.318908" lon="13.7622688"><ele>464.0</ele><time>2026-05-03T09:54:54.879Z</time></trkpt><trkpt lat="42.318815" lon="13.7623424"><ele>464.0</ele><time>2026-05-03T09:54:55.88Z</time></trkpt><trkpt lat="42.3187233" lon="13.7624195"><ele>464.0</ele><time>2026-05-03T09:54:56.879Z</time></trkpt><trkpt lat="42.3186283" lon="13.7625019"><ele>463.79999999999995</ele><time>2026-05-03T09:54:57.88Z</time></trkpt><trkpt lat="42.3185385" lon="13.7625808"><ele>463.59999999999997</ele><time>2026-05-03T09:54:58.88Z</time></trkpt><trkpt lat="42.3184552" lon="13.7626546"><ele>463.4</ele><time>2026-05-03T09:54:59.88Z</time></trkpt><trkpt lat="42.3183789" lon="13.762726"><ele>463.2</ele><time>2026-05-03T09:55:00.88Z</time></trkpt><trkpt lat="42.3182976" lon="13.7628001"><ele>463.0</ele><time>2026-05-03T09:55:01.88Z</time></trkpt><trkpt lat="42.3182091" lon="13.7628784"><ele>463.0</ele><time>2026-05-03T09:55:02.88Z</time></trkpt><trkpt lat="42.3181182" lon="13.7629611"><ele>462.99999999999994</ele><time>2026-05-03T09:55:03.88Z</time></trkpt><trkpt lat="42.3180258" lon="13.7630442"><ele>462.99999999999994</ele><time>2026-05-03T09:55:04.879Z</time></trkpt><trkpt lat="42.3179339" lon="13.7631245"><ele>463.0</ele><time>2026-05-03T09:55:05.88Z</time></trkpt><trkpt lat="42.3178476" lon="13.7632027"><ele>463.0</ele><time>2026-05-03T09:55:06.88Z</time></trkpt><trkpt lat="42.3177678" lon="13.7632814"><ele>462.2</ele><time>2026-05-03T09:55:07.879Z</time></trkpt><trkpt lat="42.317695" lon="13.7633644"><ele>461.4</ele><time>2026-05-03T09:55:08.879Z</time></trkpt><trkpt lat="42.317625" lon="13.763457"><ele>460.59999999999997</ele><time>2026-05-03T09:55:09.879Z</time></trkpt><trkpt lat="42.3175621" lon="13.763566"><ele>459.79999999999995</ele><time>2026-05-03T09:55:10.88Z</time></trkpt><trkpt lat="42.3175009" lon="13.7636775"><ele>459.0</ele><time>2026-05-03T09:55:11.879Z</time></trkpt><trkpt lat="42.3174316" lon="13.7637927"><ele>459.0</ele><time>2026-05-03T09:55:12.879Z</time></trkpt><trkpt lat="42.317358" lon="13.7639145"><ele>459.0</ele><time>2026-05-03T09:55:13.88Z</time></trkpt><trkpt lat="42.317279" lon="13.7640447"><ele>459.0</ele><time>2026-05-03T09:55:14.879Z</time></trkpt><trkpt lat="42.3171983" lon="13.764182"><ele>459.0</ele><time>2026-05-03T09:55:15.879Z</time></trkpt><trkpt lat="42.3171163" lon="13.7643182"><ele>457.75</ele><time>2026-05-03T09:55:16.88Z</time></trkpt><trkpt lat="42.3170314" lon="13.7644543"><ele>456.5</ele><time>2026-05-03T09:55:17.88Z</time></trkpt><trkpt lat="42.3169406" lon="13.7645896"><ele>455.25</ele><time>2026-05-03T09:55:18.879Z</time></trkpt><trkpt lat="42.316844" lon="13.7647219"><ele>454.0</ele><time>2026-05-03T09:55:19.88Z</time></trkpt><trkpt lat="42.3167416" lon="13.7648496"><ele>454.0</ele><time>2026-05-03T09:55:20.88Z</time></trkpt><trkpt lat="42.3166303" lon="13.7649675"><ele>454.0</ele><time>2026-05-03T09:55:21.881Z</time></trkpt><trkpt lat="42.3165118" lon="13.7650748"><ele>454.0</ele><time>2026-05-03T09:55:22.88Z</time></trkpt><trkpt lat="42.3163914" lon="13.765175"><ele>454.0</ele><time>2026-05-03T09:55:23.879Z</time></trkpt><trkpt lat="42.3162695" lon="13.7652732"><ele>454.75</ele><time>2026-05-03T09:55:24.879Z</time></trkpt><trkpt lat="42.3161477" lon="13.7653715"><ele>455.5</ele><time>2026-05-03T09:55:25.879Z</time></trkpt><trkpt lat="42.3160337" lon="13.7654752"><ele>456.25</ele><time>2026-05-03T09:55:26.879Z</time></trkpt><trkpt lat="42.3159335" lon="13.7655964"><ele>457.0</ele><time>2026-05-03T09:55:27.879Z</time></trkpt><trkpt lat="42.3158504" lon="13.7657417"><ele>457.0</ele><time>2026-05-03T09:55:28.879Z</time></trkpt><trkpt lat="42.3157751" lon="13.7658988"><ele>457.0</ele><time>2026-05-03T09:55:29.88Z</time></trkpt><trkpt lat="42.3157009" lon="13.7660628"><ele>457.0</ele><time>2026-05-03T09:55:30.88Z</time></trkpt><trkpt lat="42.3156233" lon="13.7662231"><ele>457.0</ele><time>2026-05-03T09:55:31.88Z</time></trkpt><trkpt lat="42.3155386" lon="13.7663735"><ele>458.0</ele><time>2026-05-03T09:55:32.88Z</time></trkpt><trkpt lat="42.3154455" lon="13.7665096"><ele>459.0</ele><time>2026-05-03T09:55:33.879Z</time></trkpt><trkpt lat="42.3153471" lon="13.7666289"><ele>460.0</ele><time>2026-05-03T09:55:34.879Z</time></trkpt><trkpt lat="42.3152446" lon="13.7667301"><ele>461.0</ele><time>2026-05-03T09:55:35.88Z</time></trkpt><trkpt lat="42.3151374" lon="13.7668228"><ele>461.75</ele><time>2026-05-03T09:55:36.88Z</time></trkpt><trkpt lat="42.3150303" lon="13.766919"><ele>462.5</ele><time>2026-05-03T09:55:37.879Z</time></trkpt><trkpt lat="42.3149236" lon="13.7670233"><ele>463.25</ele><time>2026-05-03T09:55:38.879Z</time></trkpt><trkpt lat="42.3148241" lon="13.7671407"><ele>464.0</ele><time>2026-05-03T09:55:39.88Z</time></trkpt><trkpt lat="42.3147304" lon="13.7672635"><ele>464.0</ele><time>2026-05-03T09:55:40.879Z</time></trkpt><trkpt lat="42.3146422" lon="13.7673853"><ele>464.0</ele><time>2026-05-03T09:55:41.88Z</time></trkpt><trkpt lat="42.3145618" lon="13.7675024"><ele>464.0</ele><time>2026-05-03T09:55:42.879Z</time></trkpt><trkpt lat="42.3144945" lon="13.7676259"><ele>464.0</ele><time>2026-05-03T09:55:43.879Z</time></trkpt><trkpt lat="42.3144513" lon="13.7677588"><ele>464.8333333333333</ele><time>2026-05-03T09:55:44.88Z</time></trkpt><trkpt lat="42.3144275" lon="13.7678859"><ele>465.66666666666663</ele><time>2026-05-03T09:55:45.879Z</time></trkpt><trkpt lat="42.3144083" lon="13.767981"><ele>466.5</ele><time>2026-05-03T09:55:46.88Z</time></trkpt><trkpt lat="42.3143872" lon="13.7681038"><ele>467.33333333333337</ele><time>2026-05-03T09:55:48.88Z</time></trkpt><trkpt lat="42.3144158" lon="13.7680062"><ele>468.1666666666667</ele><time>2026-05-03T09:56:06.88Z</time></trkpt><trkpt lat="42.314422" lon="13.767912"><ele>469.0</ele><time>2026-05-03T09:56:08.879Z</time></trkpt><trkpt lat="42.3144343" lon="13.7678175"><ele>469.0</ele><time>2026-05-03T09:56:10.879Z</time></trkpt><trkpt lat="42.3144649" lon="13.7677028"><ele>469.0</ele><time>2026-05-03T09:56:12.88Z</time></trkpt><trkpt lat="42.3144243" lon="13.7676328"><ele>469.0</ele><time>2026-05-03T09:56:15.88Z</time></trkpt><trkpt lat="42.3143392" lon="13.7676546"><ele>469.0</ele><time>2026-05-03T09:56:17.879Z</time></trkpt><trkpt lat="42.3142756" lon="13.7676742"><ele>469.0</ele><time>2026-05-03T09:56:18.879Z</time></trkpt><trkpt lat="42.3142146" lon="13.7676988"><ele>469.0</ele><time>2026-05-03T09:56:19.88Z</time></trkpt><trkpt lat="42.3141541" lon="13.7677349"><ele>469.0</ele><time>2026-05-03T09:56:20.879Z</time></trkpt><trkpt lat="42.3141" lon="13.767786"><ele>469.0</ele><time>2026-05-03T09:56:21.88Z</time></trkpt><trkpt lat="42.3140461" lon="13.7678493"><ele>469.0</ele><time>2026-05-03T09:56:22.88Z</time></trkpt><trkpt lat="42.3139979" lon="13.7679133"><ele>469.0</ele><time>2026-05-03T09:56:23.879Z</time></trkpt><trkpt lat="42.3139578" lon="13.7679857"><ele>469.0</ele><time>2026-05-03T09:56:24.879Z</time></trkpt><trkpt lat="42.3139208" lon="13.7680726"><ele>469.0</ele><time>2026-05-03T09:56:25.879Z</time></trkpt><trkpt lat="42.3138853" lon="13.7681716"><ele>469.0</ele><time>2026-05-03T09:56:26.879Z</time></trkpt><trkpt lat="42.3138485" lon="13.7682733"><ele>469.0</ele><time>2026-05-03T09:56:27.879Z</time></trkpt><trkpt lat="42.3138119" lon="13.7683731"><ele>465.00000000000006</ele><time>2026-05-03T09:56:28.879Z</time></trkpt><trkpt lat="42.3137707" lon="13.7684704"><ele>461.0</ele><time>2026-05-03T09:56:29.88Z</time></trkpt><trkpt lat="42.3137243" lon="13.7685611"><ele>457.0</ele><time>2026-05-03T09:56:30.879Z</time></trkpt><trkpt lat="42.3136773" lon="13.7686514"><ele>453.0</ele><time>2026-05-03T09:56:31.879Z</time></trkpt><trkpt lat="42.3136333" lon="13.7687421"><ele>449.00000000000006</ele><time>2026-05-03T09:56:32.88Z</time></trkpt><trkpt lat="42.3135893" lon="13.7688425"><ele>445.0</ele><time>2026-05-03T09:56:33.881Z</time></trkpt><trkpt lat="42.3135479" lon="13.7689556"><ele>445.0</ele><time>2026-05-03T09:56:34.88Z</time></trkpt><trkpt lat="42.3135059" lon="13.7690727"><ele>445.0</ele><time>2026-05-03T09:56:35.878Z</time></trkpt><trkpt lat="42.3134583" lon="13.7691822"><ele>445.0</ele><time>2026-05-03T09:56:36.879Z</time></trkpt><trkpt lat="42.3134069" lon="13.7692862"><ele>445.0</ele><time>2026-05-03T09:56:37.88Z</time></trkpt><trkpt lat="42.3133543" lon="13.7693898"><ele>445.0</ele><time>2026-05-03T09:56:38.88Z</time></trkpt><trkpt lat="42.3133015" lon="13.7694945"><ele>445.4</ele><time>2026-05-03T09:56:39.88Z</time></trkpt><trkpt lat="42.3132408" lon="13.7695968"><ele>445.8</ele><time>2026-05-03T09:56:40.879Z</time></trkpt><trkpt lat="42.3131733" lon="13.7696922"><ele>446.20000000000005</ele><time>2026-05-03T09:56:41.88Z</time></trkpt><trkpt lat="42.3130926" lon="13.7697768"><ele>446.6</ele><time>2026-05-03T09:56:42.88Z</time></trkpt><trkpt lat="42.3130018" lon="13.7698535"><ele>447.0</ele><time>2026-05-03T09:56:43.879Z</time></trkpt><trkpt lat="42.3129034" lon="13.7699234"><ele>443.25</ele><time>2026-05-03T09:56:44.88Z</time></trkpt><trkpt lat="42.3128003" lon="13.7699928"><ele>439.5</ele><time>2026-05-03T09:56:45.879Z</time></trkpt><trkpt lat="42.3126935" lon="13.7700539"><ele>435.75</ele><time>2026-05-03T09:56:46.879Z</time></trkpt><trkpt lat="42.3125832" lon="13.7700984"><ele>432.0</ele><time>2026-05-03T09:56:47.879Z</time></trkpt><trkpt lat="42.3124731" lon="13.7701236"><ele>432.0</ele><time>2026-05-03T09:56:48.879Z</time></trkpt><trkpt lat="42.3123593" lon="13.7701479"><ele>432.0</ele><time>2026-05-03T09:56:49.879Z</time></trkpt><trkpt lat="42.3122415" lon="13.7701695"><ele>432.0</ele><time>2026-05-03T09:56:50.879Z</time></trkpt><trkpt lat="42.3121257" lon="13.7701911"><ele>432.0</ele><time>2026-05-03T09:56:51.88Z</time></trkpt><trkpt lat="42.3120195" lon="13.7702143"><ele>433.5</ele><time>2026-05-03T09:56:52.88Z</time></trkpt><trkpt lat="42.3119236" lon="13.7702375"><ele>435.0</ele><time>2026-05-03T09:56:53.879Z</time></trkpt><trkpt lat="42.3118279" lon="13.7702626"><ele>436.5</ele><time>2026-05-03T09:56:54.879Z</time></trkpt><trkpt lat="42.3117427" lon="13.7702754"><ele>438.0</ele><time>2026-05-03T09:56:55.88Z</time></trkpt><trkpt lat="42.3116644" lon="13.7702921"><ele>439.5</ele><time>2026-05-03T09:56:56.88Z</time></trkpt><trkpt lat="42.3115929" lon="13.7703344"><ele>441.0</ele><time>2026-05-03T09:56:57.879Z</time></trkpt><trkpt lat="42.3115089" lon="13.7703927"><ele>441.0</ele><time>2026-05-03T09:56:58.879Z</time></trkpt><trkpt lat="42.3114204" lon="13.7704617"><ele>441.0</ele><time>2026-05-03T09:56:59.879Z</time></trkpt><trkpt lat="42.3113317" lon="13.7705342"><ele>441.0</ele><time>2026-05-03T09:57:00.88Z</time></trkpt><trkpt lat="42.3112454" lon="13.7706145"><ele>441.0</ele><time>2026-05-03T09:57:01.879Z</time></trkpt><trkpt lat="42.3111633" lon="13.7706939"><ele>441.0</ele><time>2026-05-03T09:57:02.878Z</time></trkpt><trkpt lat="42.3110843" lon="13.7707633"><ele>440.3333333333333</ele><time>2026-05-03T09:57:03.878Z</time></trkpt><trkpt lat="42.3110072" lon="13.7708082"><ele>439.66666666666663</ele><time>2026-05-03T09:57:04.878Z</time></trkpt><trkpt lat="42.310923" lon="13.7708226"><ele>439.0</ele><time>2026-05-03T09:57:05.878Z</time></trkpt><trkpt lat="42.3108346" lon="13.7708122"><ele>438.3333333333333</ele><time>2026-05-03T09:57:06.878Z</time></trkpt><trkpt lat="42.3107498" lon="13.7707968"><ele>437.66666666666663</ele><time>2026-05-03T09:57:07.878Z</time></trkpt><trkpt lat="42.3106755" lon="13.7707835"><ele>437.0</ele><time>2026-05-03T09:57:08.879Z</time></trkpt><trkpt lat="42.3106045" lon="13.7707811"><ele>436.49999999999994</ele><time>2026-05-03T09:57:09.879Z</time></trkpt><trkpt lat="42.3105318" lon="13.7707996"><ele>436.0</ele><time>2026-05-03T09:57:10.878Z</time></trkpt><trkpt lat="42.31045" lon="13.7708257"><ele>435.5</ele><time>2026-05-03T09:57:11.879Z</time></trkpt><trkpt lat="42.3103629" lon="13.7708527"><ele>435.0</ele><time>2026-05-03T09:57:12.879Z</time></trkpt><trkpt lat="42.310275" lon="13.7708719"><ele>434.49999999999994</ele><time>2026-05-03T09:57:13.879Z</time></trkpt><trkpt lat="42.3101846" lon="13.7708834"><ele>434.0</ele><time>2026-05-03T09:57:14.878Z</time></trkpt><trkpt lat="42.3100919" lon="13.7708993"><ele>434.0</ele><time>2026-05-03T09:57:15.879Z</time></trkpt><trkpt lat="42.3099985" lon="13.7709207"><ele>434.0</ele><time>2026-05-03T09:57:16.878Z</time></trkpt><trkpt lat="42.309908" lon="13.7709576"><ele>434.0</ele><time>2026-05-03T09:57:17.879Z</time></trkpt><trkpt lat="42.3098259" lon="13.7710017"><ele>434.0</ele><time>2026-05-03T09:57:18.878Z</time></trkpt><trkpt lat="42.3097593" lon="13.7710488"><ele>434.0</ele><time>2026-05-03T09:57:19.88Z</time></trkpt><trkpt lat="42.3096742" lon="13.7711366"><ele>436.0</ele><time>2026-05-03T09:57:21.878Z</time></trkpt><trkpt lat="42.3096436" lon="13.7712256"><ele>438.0</ele><time>2026-05-03T09:57:23.878Z</time></trkpt><trkpt lat="42.3095965" lon="13.7713238"><ele>440.0</ele><time>2026-05-03T09:57:25.878Z</time></trkpt><trkpt lat="42.3095212" lon="13.7714063"><ele>442.0</ele><time>2026-05-03T09:57:27.878Z</time></trkpt><trkpt lat="42.309424" lon="13.7714847"><ele>444.0</ele><time>2026-05-03T09:57:29.879Z</time></trkpt><trkpt lat="42.3093131" lon="13.7715569"><ele>444.0</ele><time>2026-05-03T09:57:31.878Z</time></trkpt><trkpt lat="42.3092191" lon="13.7716045"><ele>444.0</ele><time>2026-05-03T09:57:33.879Z</time></trkpt><trkpt lat="42.3091367" lon="13.7716437"><ele>444.0</ele><time>2026-05-03T09:57:35.879Z</time></trkpt><trkpt lat="42.309068" lon="13.7716815"><ele>444.0</ele><time>2026-05-03T09:57:37.878Z</time></trkpt><trkpt lat="42.3090132" lon="13.7717272"><ele>444.0</ele><time>2026-05-03T09:57:39.88Z</time></trkpt><trkpt lat="42.3089595" lon="13.7717873"><ele>444.0</ele><time>2026-05-03T09:57:42.878Z</time></trkpt><trkpt lat="42.3090355" lon="13.7717216"><ele>444.0</ele><time>2026-05-03T09:58:00.878Z</time></trkpt><trkpt lat="42.3091132" lon="13.7716685"><ele>444.0</ele><time>2026-05-03T09:58:02.878Z</time></trkpt><trkpt lat="42.3091826" lon="13.7716225"><ele>444.0</ele><time>2026-05-03T09:58:05.879Z</time></trkpt><trkpt lat="42.3092567" lon="13.7715899"><ele>444.0</ele><time>2026-05-03T09:58:12.878Z</time></trkpt><trkpt lat="42.309336" lon="13.7715524"><ele>444.0</ele><time>2026-05-03T09:58:14.878Z</time></trkpt><trkpt lat="42.3094087" lon="13.7715094"><ele>444.0</ele><time>2026-05-03T09:58:16.878Z</time></trkpt><trkpt lat="42.30947" lon="13.7714626"><ele>444.0</ele><time>2026-05-03T09:58:18.878Z</time></trkpt><trkpt lat="42.3095324" lon="13.7713888"><ele>444.0</ele><time>2026-05-03T09:58:21.88Z</time></trkpt><trkpt lat="42.3096004" lon="13.7713209"><ele>444.0</ele><time>2026-05-03T09:58:24.878Z</time></trkpt><trkpt lat="42.3096307" lon="13.771241"><ele>444.0</ele><time>2026-05-03T09:58:28.879Z</time></trkpt><trkpt lat="42.3096856" lon="13.7711807"><ele>444.0</ele><time>2026-05-03T09:58:31.879Z</time></trkpt><trkpt lat="42.3097466" lon="13.7711433"><ele>444.0</ele><time>2026-05-03T09:58:33.878Z</time></trkpt><trkpt lat="42.309813" lon="13.7711048"><ele>444.0</ele><time>2026-05-03T09:58:36.879Z</time></trkpt><trkpt lat="42.3097177" lon="13.7711673"><ele>444.0</ele><time>2026-05-03T09:58:47.878Z</time></trkpt><trkpt lat="42.3096557" lon="13.7712304"><ele>444.0</ele><time>2026-05-03T09:59:08.879Z</time></trkpt><trkpt lat="42.3096152" lon="13.7713132"><ele>444.0</ele><time>2026-05-03T09:59:50.878Z</time></trkpt><trkpt lat="42.309551" lon="13.7713639"><ele>444.0</ele><time>2026-05-03T10:00:23.878Z</time></trkpt><trkpt lat="42.3094987" lon="13.7714247"><ele>444.0</ele><time>2026-05-03T10:00:41.879Z</time></trkpt><trkpt lat="42.309424" lon="13.7714949"><ele>444.0</ele><time>2026-05-03T10:00:43.878Z</time></trkpt><trkpt lat="42.3093665" lon="13.7715297"><ele>444.0</ele><time>2026-05-03T10:00:44.879Z</time></trkpt><trkpt lat="42.3093069" lon="13.7715596"><ele>444.0</ele><time>2026-05-03T10:00:45.878Z</time></trkpt><trkpt lat="42.3092401" lon="13.7715935"><ele>444.0</ele><time>2026-05-03T10:00:46.879Z</time></trkpt><trkpt lat="42.3091704" lon="13.7716235"><ele>444.0</ele><time>2026-05-03T10:00:47.878Z</time></trkpt><trkpt lat="42.309096" lon="13.7716632"><ele>444.0</ele><time>2026-05-03T10:00:48.878Z</time></trkpt><trkpt lat="42.3090226" lon="13.7717216"><ele>444.0</ele><time>2026-05-03T10:00:49.879Z</time></trkpt><trkpt lat="42.3089575" lon="13.7717962"><ele>444.0</ele><time>2026-05-03T10:00:50.878Z</time></trkpt><trkpt lat="42.3088982" lon="13.771874"><ele>443.8333333333333</ele><time>2026-05-03T10:00:51.878Z</time></trkpt><trkpt lat="42.3088342" lon="13.7719543"><ele>443.66666666666663</ele><time>2026-05-03T10:00:52.878Z</time></trkpt><trkpt lat="42.3087736" lon="13.7720362"><ele>443.5</ele><time>2026-05-03T10:00:53.879Z</time></trkpt><trkpt lat="42.3087141" lon="13.7721143"><ele>443.3333333333333</ele><time>2026-05-03T10:00:54.878Z</time></trkpt><trkpt lat="42.3086483" lon="13.7721892"><ele>443.16666666666663</ele><time>2026-05-03T10:00:55.878Z</time></trkpt><trkpt lat="42.3085783" lon="13.7722605"><ele>443.0</ele><time>2026-05-03T10:00:56.879Z</time></trkpt><trkpt lat="42.3085114" lon="13.7723319"><ele>442.99999999999994</ele><time>2026-05-03T10:00:57.879Z</time></trkpt><trkpt lat="42.3084458" lon="13.7724128"><ele>443.0</ele><time>2026-05-03T10:00:58.879Z</time></trkpt><trkpt lat="42.308384" lon="13.7724958"><ele>443.0</ele><time>2026-05-03T10:00:59.879Z</time></trkpt><trkpt lat="42.3083253" lon="13.772587"><ele>443.0</ele><time>2026-05-03T10:01:00.879Z</time></trkpt><trkpt lat="42.3082675" lon="13.7726734"><ele>442.99999999999994</ele><time>2026-05-03T10:01:01.879Z</time></trkpt><trkpt lat="42.3082144" lon="13.772753"><ele>443.0</ele><time>2026-05-03T10:01:02.879Z</time></trkpt><trkpt lat="42.3081578" lon="13.7728276"><ele>443.8333333333333</ele><time>2026-05-03T10:01:03.879Z</time></trkpt><trkpt lat="42.3080925" lon="13.7728992"><ele>444.66666666666663</ele><time>2026-05-03T10:01:04.878Z</time></trkpt><trkpt lat="42.3080311" lon="13.7729661"><ele>445.5</ele><time>2026-05-03T10:01:05.878Z</time></trkpt><trkpt lat="42.3079664" lon="13.7730384"><ele>446.33333333333337</ele><time>2026-05-03T10:01:06.879Z</time></trkpt><trkpt lat="42.3078956" lon="13.7731117"><ele>447.1666666666667</ele><time>2026-05-03T10:01:07.879Z</time></trkpt><trkpt lat="42.3078231" lon="13.773177"><ele>448.0</ele><time>2026-05-03T10:01:08.879Z</time></trkpt><trkpt lat="42.3077472" lon="13.7732293"><ele>445.59999999999997</ele><time>2026-05-03T10:01:09.879Z</time></trkpt><trkpt lat="42.3076719" lon="13.7732994"><ele>443.19999999999993</ele><time>2026-05-03T10:01:10.878Z</time></trkpt><trkpt lat="42.3076035" lon="13.7733712"><ele>440.8</ele><time>2026-05-03T10:01:11.878Z</time></trkpt><trkpt lat="42.3075325" lon="13.7734553"><ele>438.4</ele><time>2026-05-03T10:01:12.879Z</time></trkpt><trkpt lat="42.307468" lon="13.773543"><ele>436.0</ele><time>2026-05-03T10:01:13.879Z</time></trkpt><trkpt lat="42.3073994" lon="13.7736264"><ele>436.00000000000006</ele><time>2026-05-03T10:01:14.878Z</time></trkpt><trkpt lat="42.3073234" lon="13.7737034"><ele>436.0</ele><time>2026-05-03T10:01:15.878Z</time></trkpt><trkpt lat="42.3072462" lon="13.7737706"><ele>436.0</ele><time>2026-05-03T10:01:16.878Z</time></trkpt><trkpt lat="42.3071716" lon="13.7738395"><ele>436.0</ele><time>2026-05-03T10:01:17.878Z</time></trkpt><trkpt lat="42.3071008" lon="13.7739067"><ele>436.00000000000006</ele><time>2026-05-03T10:01:18.878Z</time></trkpt><trkpt lat="42.3070371" lon="13.7739821"><ele>436.0</ele><time>2026-05-03T10:01:19.879Z</time></trkpt><trkpt lat="42.3069849" lon="13.7740601"><ele>434.6666666666667</ele><time>2026-05-03T10:01:20.879Z</time></trkpt><trkpt lat="42.3069316" lon="13.7741462"><ele>433.33333333333337</ele><time>2026-05-03T10:01:21.879Z</time></trkpt><trkpt lat="42.3068703" lon="13.7742279"><ele>432.0</ele><time>2026-05-03T10:01:22.879Z</time></trkpt><trkpt lat="42.3068108" lon="13.7743051"><ele>430.66666666666663</ele><time>2026-05-03T10:01:23.879Z</time></trkpt><trkpt lat="42.306752" lon="13.7743791"><ele>429.3333333333333</ele><time>2026-05-03T10:01:24.878Z</time></trkpt><trkpt lat="42.3066982" lon="13.7744577"><ele>428.0</ele><time>2026-05-03T10:01:25.878Z</time></trkpt><trkpt lat="42.3066438" lon="13.7745444"><ele>428.0</ele><time>2026-05-03T10:01:26.879Z</time></trkpt><trkpt lat="42.3065951" lon="13.7746326"><ele>427.99999999999994</ele><time>2026-05-03T10:01:27.878Z</time></trkpt><trkpt lat="42.3065412" lon="13.7747444"><ele>427.99999999999994</ele><time>2026-05-03T10:01:28.879Z</time></trkpt><trkpt lat="42.3064892" lon="13.7748759"><ele>428.0</ele><time>2026-05-03T10:01:29.878Z</time></trkpt><trkpt lat="42.306437" lon="13.7750204"><ele>428.0</ele><time>2026-05-03T10:01:30.879Z</time></trkpt><trkpt lat="42.3063878" lon="13.7751714"><ele>427.0</ele><time>2026-05-03T10:01:31.879Z</time></trkpt><trkpt lat="42.3063443" lon="13.7753294"><ele>426.0</ele><time>2026-05-03T10:01:32.878Z</time></trkpt><trkpt lat="42.3063015" lon="13.7754888"><ele>425.0</ele><time>2026-05-03T10:01:33.879Z</time></trkpt><trkpt lat="42.3062559" lon="13.775658"><ele>424.0</ele><time>2026-05-03T10:01:34.879Z</time></trkpt><trkpt lat="42.3062162" lon="13.7758192"><ele>424.0</ele><time>2026-05-03T10:01:35.879Z</time></trkpt><trkpt lat="42.3061841" lon="13.7759629"><ele>424.0</ele><time>2026-05-03T10:01:36.878Z</time></trkpt><trkpt lat="42.3061541" lon="13.7761033"><ele>424.0</ele><time>2026-05-03T10:01:37.878Z</time></trkpt><trkpt lat="42.3061284" lon="13.776226"><ele>424.0</ele><time>2026-05-03T10:01:38.878Z</time></trkpt><trkpt lat="42.3061042" lon="13.7763416"><ele>424.0</ele><time>2026-05-03T10:01:39.878Z</time></trkpt><trkpt lat="42.3060756" lon="13.7764587"><ele>423.83333333333337</ele><time>2026-05-03T10:01:40.878Z</time></trkpt><trkpt lat="42.3060535" lon="13.7765616"><ele>423.6666666666667</ele><time>2026-05-03T10:01:41.879Z</time></trkpt><trkpt lat="42.306049" lon="13.7766619"><ele>423.5</ele><time>2026-05-03T10:01:42.879Z</time></trkpt><trkpt lat="42.3060628" lon="13.7767787"><ele>423.33333333333337</ele><time>2026-05-03T10:01:43.879Z</time></trkpt><trkpt lat="42.3060859" lon="13.7768906"><ele>423.1666666666667</ele><time>2026-05-03T10:01:44.878Z</time></trkpt><trkpt lat="42.3061068" lon="13.776987"><ele>423.0</ele><time>2026-05-03T10:01:45.878Z</time></trkpt><trkpt lat="42.3061343" lon="13.7770919"><ele>422.8333333333333</ele><time>2026-05-03T10:01:46.879Z</time></trkpt><trkpt lat="42.306149" lon="13.7771827"><ele>422.66666666666663</ele><time>2026-05-03T10:01:47.88Z</time></trkpt><trkpt lat="42.3061455" lon="13.77728"><ele>422.5</ele><time>2026-05-03T10:01:48.878Z</time></trkpt><trkpt lat="42.3061182" lon="13.7773798"><ele>422.3333333333333</ele><time>2026-05-03T10:01:49.878Z</time></trkpt><trkpt lat="42.3060854" lon="13.7774728"><ele>422.16666666666663</ele><time>2026-05-03T10:01:50.878Z</time></trkpt><trkpt lat="42.3060497" lon="13.7775587"><ele>422.0</ele><time>2026-05-03T10:01:51.878Z</time></trkpt><trkpt lat="42.3059945" lon="13.7776475"><ele>421.8333333333333</ele><time>2026-05-03T10:01:52.879Z</time></trkpt><trkpt lat="42.3059301" lon="13.7777252"><ele>421.66666666666663</ele><time>2026-05-03T10:01:53.878Z</time></trkpt><trkpt lat="42.3058627" lon="13.7778014"><ele>421.5</ele><time>2026-05-03T10:01:54.878Z</time></trkpt><trkpt lat="42.3057892" lon="13.7778761"><ele>421.33333333333337</ele><time>2026-05-03T10:01:55.879Z</time></trkpt><trkpt lat="42.3057298" lon="13.7779591"><ele>421.1666666666667</ele><time>2026-05-03T10:01:56.878Z</time></trkpt><trkpt lat="42.3056603" lon="13.7780426"><ele>421.0</ele><time>2026-05-03T10:01:57.878Z</time></trkpt><trkpt lat="42.3055938" lon="13.7781008"><ele>419.4</ele><time>2026-05-03T10:01:58.878Z</time></trkpt><trkpt lat="42.3055179" lon="13.7781477"><ele>417.8</ele><time>2026-05-03T10:01:59.878Z</time></trkpt><trkpt lat="42.3054378" lon="13.7781993"><ele>416.2</ele><time>2026-05-03T10:02:00.878Z</time></trkpt><trkpt lat="42.3053603" lon="13.7782905"><ele>414.59999999999997</ele><time>2026-05-03T10:02:01.879Z</time></trkpt><trkpt lat="42.3052861" lon="13.7783933"><ele>413.0</ele><time>2026-05-03T10:02:02.879Z</time></trkpt><trkpt lat="42.3052167" lon="13.7784841"><ele>413.25</ele><time>2026-05-03T10:02:03.878Z</time></trkpt><trkpt lat="42.3051552" lon="13.7785999"><ele>413.5</ele><time>2026-05-03T10:02:04.879Z</time></trkpt><trkpt lat="42.3050984" lon="13.7787355"><ele>413.75</ele><time>2026-05-03T10:02:05.878Z</time></trkpt><trkpt lat="42.3050348" lon="13.7788711"><ele>414.0</ele><time>2026-05-03T10:02:06.878Z</time></trkpt><trkpt lat="42.3049497" lon="13.779005"><ele>414.0</ele><time>2026-05-03T10:02:07.878Z</time></trkpt><trkpt lat="42.3048676" lon="13.7791319"><ele>414.0</ele><time>2026-05-03T10:02:08.879Z</time></trkpt><trkpt lat="42.3047835" lon="13.7792437"><ele>414.0</ele><time>2026-05-03T10:02:09.878Z</time></trkpt><trkpt lat="42.3046984" lon="13.7793752"><ele>414.0</ele><time>2026-05-03T10:02:10.878Z</time></trkpt><trkpt lat="42.3046193" lon="13.7795"><ele>412.4</ele><time>2026-05-03T10:02:11.878Z</time></trkpt><trkpt lat="42.3045373" lon="13.7795948"><ele>410.79999999999995</ele><time>2026-05-03T10:02:12.879Z</time></trkpt><trkpt lat="42.3044432" lon="13.7796631"><ele>409.20000000000005</ele><time>2026-05-03T10:02:13.878Z</time></trkpt><trkpt lat="42.3043403" lon="13.7797168"><ele>407.6</ele><time>2026-05-03T10:02:14.878Z</time></trkpt><trkpt lat="42.3042503" lon="13.7797704"><ele>406.0</ele><time>2026-05-03T10:02:15.879Z</time></trkpt><trkpt lat="42.3041672" lon="13.7798586"><ele>406.0</ele><time>2026-05-03T10:02:16.878Z</time></trkpt><trkpt lat="42.3040869" lon="13.7799771"><ele>406.0</ele><time>2026-05-03T10:02:17.878Z</time></trkpt><trkpt lat="42.3040147" lon="13.7800927"><ele>406.0</ele><time>2026-05-03T10:02:18.879Z</time></trkpt><trkpt lat="42.3039393" lon="13.7801796"><ele>406.0</ele><time>2026-05-03T10:02:19.879Z</time></trkpt><trkpt lat="42.3038801" lon="13.7802386"><ele>406.0</ele><time>2026-05-03T10:02:20.878Z</time></trkpt><trkpt lat="42.3037987" lon="13.7802817"><ele>405.50000000000006</ele><time>2026-05-03T10:02:22.878Z</time></trkpt><trkpt lat="42.3037579" lon="13.7803636"><ele>405.0</ele><time>2026-05-03T10:02:56.877Z</time></trkpt><trkpt lat="42.3036944" lon="13.7804892"><ele>404.5</ele><time>2026-05-03T10:02:58.877Z</time></trkpt><trkpt lat="42.3036563" lon="13.7805717"><ele>404.0</ele><time>2026-05-03T10:02:59.877Z</time></trkpt><trkpt lat="42.3036178" lon="13.7806644"><ele>403.50000000000006</ele><time>2026-05-03T10:03:00.877Z</time></trkpt><trkpt lat="42.3035843" lon="13.7807635"><ele>403.0</ele><time>2026-05-03T10:03:01.878Z</time></trkpt><trkpt lat="42.303557" lon="13.7808576"><ele>403.00000000000006</ele><time>2026-05-03T10:03:02.877Z</time></trkpt><trkpt lat="42.3035212" lon="13.7809353"><ele>403.0</ele><time>2026-05-03T10:03:03.877Z</time></trkpt><trkpt lat="42.3034622" lon="13.7809872"><ele>403.0</ele><time>2026-05-03T10:03:04.877Z</time></trkpt><trkpt lat="42.3033906" lon="13.7810365"><ele>403.0</ele><time>2026-05-03T10:03:05.877Z</time></trkpt><trkpt lat="42.3033148" lon="13.7810925"><ele>403.00000000000006</ele><time>2026-05-03T10:03:06.877Z</time></trkpt><trkpt lat="42.3032424" lon="13.7811578"><ele>403.0</ele><time>2026-05-03T10:03:07.878Z</time></trkpt><trkpt lat="42.3031729" lon="13.7812325"><ele>403.79999999999995</ele><time>2026-05-03T10:03:08.877Z</time></trkpt><trkpt lat="42.3031025" lon="13.781316"><ele>404.6</ele><time>2026-05-03T10:03:09.877Z</time></trkpt><trkpt lat="42.3030409" lon="13.7814081"><ele>405.4</ele><time>2026-05-03T10:03:10.877Z</time></trkpt><trkpt lat="42.3029753" lon="13.7815065"><ele>406.20000000000005</ele><time>2026-05-03T10:03:11.877Z</time></trkpt><trkpt lat="42.30291" lon="13.7816035"><ele>407.0</ele><time>2026-05-03T10:03:12.877Z</time></trkpt><trkpt lat="42.302851" lon="13.7816964"><ele>405.40000000000003</ele><time>2026-05-03T10:03:13.878Z</time></trkpt><trkpt lat="42.3027884" lon="13.7817906"><ele>403.8</ele><time>2026-05-03T10:03:14.878Z</time></trkpt><trkpt lat="42.3027223" lon="13.7818925"><ele>402.2</ele><time>2026-05-03T10:03:15.878Z</time></trkpt><trkpt lat="42.3026572" lon="13.7819975"><ele>400.6</ele><time>2026-05-03T10:03:16.878Z</time></trkpt><trkpt lat="42.3025962" lon="13.7820935"><ele>399.0</ele><time>2026-05-03T10:03:17.877Z</time></trkpt><trkpt lat="42.3025342" lon="13.7821777"><ele>399.0</ele><time>2026-05-03T10:03:18.877Z</time></trkpt><trkpt lat="42.3024709" lon="13.7822462"><ele>399.0</ele><time>2026-05-03T10:03:19.877Z</time></trkpt><trkpt lat="42.302402" lon="13.7823083"><ele>399.0</ele><time>2026-05-03T10:03:20.878Z</time></trkpt><trkpt lat="42.302331" lon="13.7823698"><ele>399.0</ele><time>2026-05-03T10:03:21.877Z</time></trkpt><trkpt lat="42.3022643" lon="13.7824212"><ele>399.0</ele><time>2026-05-03T10:03:22.877Z</time></trkpt><trkpt lat="42.3021632" lon="13.7824295"><ele>399.0</ele><time>2026-05-03T10:03:24.878Z</time></trkpt><trkpt lat="42.3021326" lon="13.7823121"><ele>397.5</ele><time>2026-05-03T10:03:26.877Z</time></trkpt><trkpt lat="42.3021289" lon="13.7822048"><ele>396.0</ele><time>2026-05-03T10:03:27.877Z</time></trkpt><trkpt lat="42.3021079" lon="13.7821079"><ele>394.5</ele><time>2026-05-03T10:03:28.877Z</time></trkpt><trkpt lat="42.3020906" lon="13.7820131"><ele>393.0</ele><time>2026-05-03T10:03:29.878Z</time></trkpt><trkpt lat="42.3020764" lon="13.7819236"><ele>391.5</ele><time>2026-05-03T10:03:30.877Z</time></trkpt><trkpt lat="42.3020538" lon="13.7817811"><ele>390.0</ele><time>2026-05-03T10:03:32.877Z</time></trkpt><trkpt lat="42.3020347" lon="13.7816842"><ele>388.8</ele><time>2026-05-03T10:03:33.877Z</time></trkpt><trkpt lat="42.302015" lon="13.7815733"><ele>387.6</ele><time>2026-05-03T10:03:34.878Z</time></trkpt><trkpt lat="42.3019963" lon="13.7814512"><ele>386.4</ele><time>2026-05-03T10:03:35.878Z</time></trkpt><trkpt lat="42.301977" lon="13.7813273"><ele>385.2</ele><time>2026-05-03T10:03:36.878Z</time></trkpt><trkpt lat="42.3019595" lon="13.7812001"><ele>384.0</ele><time>2026-05-03T10:03:37.878Z</time></trkpt><trkpt lat="42.3019448" lon="13.7810714"><ele>384.0</ele><time>2026-05-03T10:03:38.878Z</time></trkpt><trkpt lat="42.3019271" lon="13.7809443"><ele>384.0</ele><time>2026-05-03T10:03:39.877Z</time></trkpt><trkpt lat="42.3019096" lon="13.7808177"><ele>384.0</ele><time>2026-05-03T10:03:40.877Z</time></trkpt><trkpt lat="42.3018984" lon="13.78069"><ele>384.0</ele><time>2026-05-03T10:03:41.877Z</time></trkpt><trkpt lat="42.301892" lon="13.7805672"><ele>384.0</ele><time>2026-05-03T10:03:42.878Z</time></trkpt><trkpt lat="42.3018848" lon="13.7804607"><ele>384.0</ele><time>2026-05-03T10:03:43.877Z</time></trkpt><trkpt lat="42.3018869" lon="13.7803237"><ele>384.0</ele><time>2026-05-03T10:03:45.877Z</time></trkpt><trkpt lat="42.3019445" lon="13.7801954"><ele>384.0</ele><time>2026-05-03T10:03:47.877Z</time></trkpt><trkpt lat="42.3019622" lon="13.7801061"><ele>384.0</ele><time>2026-05-03T10:03:48.878Z</time></trkpt><trkpt lat="42.3019126" lon="13.7799271"><ele>384.0</ele><time>2026-05-03T10:03:50.877Z</time></trkpt><trkpt lat="42.3018705" lon="13.77982"><ele>383.6</ele><time>2026-05-03T10:03:51.878Z</time></trkpt><trkpt lat="42.3018285" lon="13.7797051"><ele>383.2</ele><time>2026-05-03T10:03:52.877Z</time></trkpt><trkpt lat="42.3017801" lon="13.779578"><ele>382.8</ele><time>2026-05-03T10:03:53.878Z</time></trkpt><trkpt lat="42.3017298" lon="13.7794412"><ele>382.40000000000003</ele><time>2026-05-03T10:03:54.877Z</time></trkpt><trkpt lat="42.3016838" lon="13.7793004"><ele>382.0</ele><time>2026-05-03T10:03:55.877Z</time></trkpt><trkpt lat="42.3016442" lon="13.779152"><ele>381.25</ele><time>2026-05-03T10:03:56.877Z</time></trkpt><trkpt lat="42.3016093" lon="13.7790007"><ele>380.5</ele><time>2026-05-03T10:03:57.877Z</time></trkpt><trkpt lat="42.301575" lon="13.7788527"><ele>379.75</ele><time>2026-05-03T10:03:58.877Z</time></trkpt><trkpt lat="42.3015402" lon="13.778708"><ele>379.0</ele><time>2026-05-03T10:03:59.878Z</time></trkpt><trkpt lat="42.3015071" lon="13.7785653"><ele>378.2</ele><time>2026-05-03T10:04:00.877Z</time></trkpt><trkpt lat="42.3014741" lon="13.7784257"><ele>377.4</ele><time>2026-05-03T10:04:01.878Z</time></trkpt><trkpt lat="42.3014406" lon="13.77829"><ele>376.6</ele><time>2026-05-03T10:04:02.877Z</time></trkpt><trkpt lat="42.3013966" lon="13.7781561"><ele>375.8</ele><time>2026-05-03T10:04:03.877Z</time></trkpt><trkpt lat="42.3013486" lon="13.7780162"><ele>375.0</ele><time>2026-05-03T10:04:04.878Z</time></trkpt><trkpt lat="42.3013083" lon="13.7778786"><ele>373.8</ele><time>2026-05-03T10:04:05.878Z</time></trkpt><trkpt lat="42.3012765" lon="13.7777459"><ele>372.6</ele><time>2026-05-03T10:04:06.877Z</time></trkpt><trkpt lat="42.3012531" lon="13.777603"><ele>371.4</ele><time>2026-05-03T10:04:07.877Z</time></trkpt><trkpt lat="42.3012423" lon="13.7774536"><ele>370.2</ele><time>2026-05-03T10:04:08.877Z</time></trkpt><trkpt lat="42.3012387" lon="13.7773035"><ele>369.0</ele><time>2026-05-03T10:04:09.876Z</time></trkpt><trkpt lat="42.301245" lon="13.7771574"><ele>368.6</ele><time>2026-05-03T10:04:10.878Z</time></trkpt><trkpt lat="42.3012555" lon="13.7770174"><ele>368.2</ele><time>2026-05-03T10:04:11.878Z</time></trkpt><trkpt lat="42.3012581" lon="13.7768933"><ele>367.8</ele><time>2026-05-03T10:04:12.877Z</time></trkpt><trkpt lat="42.3012396" lon="13.776786"><ele>367.40000000000003</ele><time>2026-05-03T10:04:13.877Z</time></trkpt><trkpt lat="42.3012024" lon="13.7766757"><ele>367.0</ele><time>2026-05-03T10:04:14.877Z</time></trkpt><trkpt lat="42.3011521" lon="13.7765625"><ele>367.0</ele><time>2026-05-03T10:04:15.877Z</time></trkpt><trkpt lat="42.3010967" lon="13.7764523"><ele>367.0</ele><time>2026-05-03T10:04:16.877Z</time></trkpt><trkpt lat="42.3010291" lon="13.776356"><ele>367.0</ele><time>2026-05-03T10:04:17.877Z</time></trkpt><trkpt lat="42.300954" lon="13.7762755"><ele>367.0</ele><time>2026-05-03T10:04:18.877Z</time></trkpt><trkpt lat="42.3008825" lon="13.7762004"><ele>367.0</ele><time>2026-05-03T10:04:19.878Z</time></trkpt><trkpt lat="42.3008351" lon="13.7760938"><ele>367.6</ele><time>2026-05-03T10:04:21.878Z</time></trkpt><trkpt lat="42.300862" lon="13.7759337"><ele>368.20000000000005</ele><time>2026-05-03T10:04:23.878Z</time></trkpt><trkpt lat="42.3008457" lon="13.7758052"><ele>368.8</ele><time>2026-05-03T10:04:25.878Z</time></trkpt><trkpt lat="42.300744" lon="13.7757311"><ele>369.4</ele><time>2026-05-03T10:04:27.877Z</time></trkpt><trkpt lat="42.3006973" lon="13.7756723"><ele>370.0</ele><time>2026-05-03T10:04:28.877Z</time></trkpt><trkpt lat="42.3006013" lon="13.7755832"><ele>368.0</ele><time>2026-05-03T10:04:30.877Z</time></trkpt><trkpt lat="42.300485" lon="13.7755387"><ele>366.0</ele><time>2026-05-03T10:04:32.878Z</time></trkpt><trkpt lat="42.3004051" lon="13.7753955"><ele>364.0</ele><time>2026-05-03T10:04:34.877Z</time></trkpt><trkpt lat="42.3003613" lon="13.775313"><ele>362.0</ele><time>2026-05-03T10:04:35.877Z</time></trkpt><trkpt lat="42.3003097" lon="13.775248"><ele>360.0</ele><time>2026-05-03T10:04:36.877Z</time></trkpt><trkpt lat="42.3002516" lon="13.7751789"><ele>360.0</ele><time>2026-05-03T10:04:37.877Z</time></trkpt><trkpt lat="42.3001953" lon="13.7751209"><ele>360.0</ele><time>2026-05-03T10:04:38.877Z</time></trkpt><trkpt lat="42.3001427" lon="13.7750711"><ele>360.0</ele><time>2026-05-03T10:04:39.878Z</time></trkpt><trkpt lat="42.3000488" lon="13.7750296"><ele>360.0</ele><time>2026-05-03T10:04:41.878Z</time></trkpt><trkpt lat="42.2999544" lon="13.7750877"><ele>360.0</ele><time>2026-05-03T10:04:43.877Z</time></trkpt><trkpt lat="42.2998848" lon="13.7751413"><ele>360.0</ele><time>2026-05-03T10:04:45.877Z</time></trkpt><trkpt lat="42.2998128" lon="13.7752282"><ele>359.6</ele><time>2026-05-03T10:04:50.877Z</time></trkpt><trkpt lat="42.2997211" lon="13.7753377"><ele>359.2</ele><time>2026-05-03T10:04:52.878Z</time></trkpt><trkpt lat="42.2996689" lon="13.7753967"><ele>358.79999999999995</ele><time>2026-05-03T10:04:53.877Z</time></trkpt><trkpt lat="42.2996119" lon="13.775453"><ele>358.4</ele><time>2026-05-03T10:04:54.877Z</time></trkpt><trkpt lat="42.2995548" lon="13.7754983"><ele>358.0</ele><time>2026-05-03T10:04:55.878Z</time></trkpt><trkpt lat="42.2994334" lon="13.7755202"><ele>358.00000000000006</ele><time>2026-05-03T10:04:57.877Z</time></trkpt><trkpt lat="42.2993673" lon="13.7754881"><ele>358.0</ele><time>2026-05-03T10:04:58.877Z</time></trkpt><trkpt lat="42.2993035" lon="13.7754368"><ele>358.0</ele><time>2026-05-03T10:04:59.877Z</time></trkpt><trkpt lat="42.299242" lon="13.7753818"><ele>358.0</ele><time>2026-05-03T10:05:00.877Z</time></trkpt><trkpt lat="42.2991772" lon="13.7753334"><ele>358.0</ele><time>2026-05-03T10:05:01.877Z</time></trkpt><trkpt lat="42.2991191" lon="13.7752878"><ele>358.00000000000006</ele><time>2026-05-03T10:05:02.878Z</time></trkpt><trkpt lat="42.2990353" lon="13.7752763"><ele>358.0</ele><time>2026-05-03T10:05:04.877Z</time></trkpt><trkpt lat="42.2989726" lon="13.7753754"><ele>358.0</ele><time>2026-05-03T10:05:06.877Z</time></trkpt><trkpt lat="42.2989366" lon="13.7754758"><ele>358.0</ele><time>2026-05-03T10:05:07.877Z</time></trkpt><trkpt lat="42.2988979" lon="13.7755858"><ele>358.0</ele><time>2026-05-03T10:05:08.878Z</time></trkpt><trkpt lat="42.2988577" lon="13.7757068"><ele>358.0</ele><time>2026-05-03T10:05:09.877Z</time></trkpt><trkpt lat="42.2988206" lon="13.775839"><ele>358.0</ele><time>2026-05-03T10:05:10.878Z</time></trkpt><trkpt lat="42.2987872" lon="13.7759831"><ele>357.5</ele><time>2026-05-03T10:05:11.878Z</time></trkpt><trkpt lat="42.2987589" lon="13.7761413"><ele>357.0</ele><time>2026-05-03T10:05:12.878Z</time></trkpt><trkpt lat="42.2987314" lon="13.7763097"><ele>356.5</ele><time>2026-05-03T10:05:13.877Z</time></trkpt><trkpt lat="42.2987004" lon="13.7764849"><ele>356.0</ele><time>2026-05-03T10:05:14.877Z</time></trkpt><trkpt lat="42.2986616" lon="13.7766634"><ele>356.0</ele><time>2026-05-03T10:05:15.878Z</time></trkpt><trkpt lat="42.2986126" lon="13.7768394"><ele>356.0</ele><time>2026-05-03T10:05:16.878Z</time></trkpt><trkpt lat="42.2985549" lon="13.7770125"><ele>356.0</ele><time>2026-05-03T10:05:17.877Z</time></trkpt><trkpt lat="42.2985032" lon="13.7771905"><ele>356.0</ele><time>2026-05-03T10:05:18.877Z</time></trkpt><trkpt lat="42.2984573" lon="13.7773663"><ele>356.1666666666667</ele><time>2026-05-03T10:05:19.878Z</time></trkpt><trkpt lat="42.2984165" lon="13.7775135"><ele>356.33333333333337</ele><time>2026-05-03T10:05:20.878Z</time></trkpt><trkpt lat="42.2983836" lon="13.7776232"><ele>356.5</ele><time>2026-05-03T10:05:21.877Z</time></trkpt><trkpt lat="42.2983517" lon="13.7777042"><ele>356.6666666666667</ele><time>2026-05-03T10:05:22.877Z</time></trkpt><trkpt lat="42.2982927" lon="13.7777705"><ele>356.8333333333333</ele><time>2026-05-03T10:05:24.877Z</time></trkpt><trkpt lat="42.2982318" lon="13.777799"><ele>357.0</ele><time>2026-05-03T10:05:25.878Z</time></trkpt><trkpt lat="42.2981593" lon="13.7778517"><ele>356.25</ele><time>2026-05-03T10:05:26.878Z</time></trkpt><trkpt lat="42.2980737" lon="13.7779409"><ele>355.5</ele><time>2026-05-03T10:05:27.877Z</time></trkpt><trkpt lat="42.2979782" lon="13.7780717"><ele>354.75</ele><time>2026-05-03T10:05:28.877Z</time></trkpt><trkpt lat="42.2978745" lon="13.7782129"><ele>354.0</ele><time>2026-05-03T10:05:29.878Z</time></trkpt><trkpt lat="42.2977735" lon="13.7783438"><ele>354.0</ele><time>2026-05-03T10:05:30.877Z</time></trkpt><trkpt lat="42.2976755" lon="13.7784736"><ele>354.0</ele><time>2026-05-03T10:05:31.878Z</time></trkpt><trkpt lat="42.2975741" lon="13.7786009"><ele>354.0</ele><time>2026-05-03T10:05:32.878Z</time></trkpt><trkpt lat="42.2974689" lon="13.7787292"><ele>354.0</ele><time>2026-05-03T10:05:33.878Z</time></trkpt><trkpt lat="42.2973534" lon="13.7788499"><ele>352.5</ele><time>2026-05-03T10:05:34.877Z</time></trkpt><trkpt lat="42.2972303" lon="13.7789635"><ele>351.0</ele><time>2026-05-03T10:05:35.878Z</time></trkpt><trkpt lat="42.2971096" lon="13.7790759"><ele>349.5</ele><time>2026-05-03T10:05:36.878Z</time></trkpt><trkpt lat="42.2970017" lon="13.7791807"><ele>348.0</ele><time>2026-05-03T10:05:37.877Z</time></trkpt><trkpt lat="42.2968955" lon="13.7792969"><ele>348.75</ele><time>2026-05-03T10:05:38.877Z</time></trkpt><trkpt lat="42.296796" lon="13.7794349"><ele>349.5</ele><time>2026-05-03T10:05:39.878Z</time></trkpt><trkpt lat="42.2967012" lon="13.7795867"><ele>350.25</ele><time>2026-05-03T10:05:40.878Z</time></trkpt><trkpt lat="42.2966044" lon="13.7797451"><ele>351.0</ele><time>2026-05-03T10:05:41.877Z</time></trkpt><trkpt lat="42.2965037" lon="13.7799205"><ele>351.0</ele><time>2026-05-03T10:05:42.877Z</time></trkpt><trkpt lat="42.2964019" lon="13.7800773"><ele>351.0</ele><time>2026-05-03T10:05:43.877Z</time></trkpt><trkpt lat="42.296302" lon="13.7802288"><ele>351.0</ele><time>2026-05-03T10:05:44.877Z</time></trkpt><trkpt lat="42.2962183" lon="13.7803908"><ele>351.25</ele><time>2026-05-03T10:05:45.877Z</time></trkpt><trkpt lat="42.2961451" lon="13.7805599"><ele>351.5</ele><time>2026-05-03T10:05:46.877Z</time></trkpt><trkpt lat="42.2960679" lon="13.7807211"><ele>351.75</ele><time>2026-05-03T10:05:47.877Z</time></trkpt><trkpt lat="42.2959709" lon="13.7808873"><ele>352.0</ele><time>2026-05-03T10:05:48.877Z</time></trkpt><trkpt lat="42.295866" lon="13.7810455"><ele>352.0</ele><time>2026-05-03T10:05:49.877Z</time></trkpt><trkpt lat="42.2957722" lon="13.7812065"><ele>352.0</ele><time>2026-05-03T10:05:50.878Z</time></trkpt><trkpt lat="42.295678" lon="13.7813613"><ele>352.0</ele><time>2026-05-03T10:05:51.878Z</time></trkpt><trkpt lat="42.2955764" lon="13.7815112"><ele>352.0</ele><time>2026-05-03T10:05:52.877Z</time></trkpt><trkpt lat="42.2954563" lon="13.781651"><ele>352.0</ele><time>2026-05-03T10:05:53.877Z</time></trkpt><trkpt lat="42.2953096" lon="13.7817911"><ele>352.0</ele><time>2026-05-03T10:05:54.877Z</time></trkpt><trkpt lat="42.295162" lon="13.7819227"><ele>352.0</ele><time>2026-05-03T10:05:55.878Z</time></trkpt><trkpt lat="42.2950197" lon="13.7820679"><ele>352.0</ele><time>2026-05-03T10:05:56.878Z</time></trkpt><trkpt lat="42.2948828" lon="13.7822169"><ele>352.0</ele><time>2026-05-03T10:05:57.877Z</time></trkpt><trkpt lat="42.2947563" lon="13.7823599"><ele>351.3333333333333</ele><time>2026-05-03T10:05:58.878Z</time></trkpt><trkpt lat="42.2946322" lon="13.7825102"><ele>350.6666666666667</ele><time>2026-05-03T10:05:59.878Z</time></trkpt><trkpt lat="42.2945132" lon="13.7826747"><ele>350.0</ele><time>2026-05-03T10:06:00.878Z</time></trkpt><trkpt lat="42.2943938" lon="13.7828362"><ele>350.0</ele><time>2026-05-03T10:06:01.877Z</time></trkpt><trkpt lat="42.2942805" lon="13.7829811"><ele>350.0</ele><time>2026-05-03T10:06:02.878Z</time></trkpt><trkpt lat="42.2941643" lon="13.7831325"><ele>350.0</ele><time>2026-05-03T10:06:03.877Z</time></trkpt><trkpt lat="42.2940525" lon="13.783294"><ele>350.0</ele><time>2026-05-03T10:06:04.878Z</time></trkpt><trkpt lat="42.2939457" lon="13.7834559"><ele>350.0</ele><time>2026-05-03T10:06:05.877Z</time></trkpt><trkpt lat="42.2938521" lon="13.7836042"><ele>350.0</ele><time>2026-05-03T10:06:06.878Z</time></trkpt><trkpt lat="42.2937476" lon="13.7837574"><ele>350.33333333333337</ele><time>2026-05-03T10:06:07.877Z</time></trkpt><trkpt lat="42.2936281" lon="13.783904"><ele>350.6666666666667</ele><time>2026-05-03T10:06:08.877Z</time></trkpt><trkpt lat="42.2935043" lon="13.7840446"><ele>351.0</ele><time>2026-05-03T10:06:09.877Z</time></trkpt><trkpt lat="42.2933811" lon="13.7841753"><ele>351.0</ele><time>2026-05-03T10:06:10.878Z</time></trkpt><trkpt lat="42.293263" lon="13.7842969"><ele>351.0</ele><time>2026-05-03T10:06:11.877Z</time></trkpt><trkpt lat="42.2931439" lon="13.7844146"><ele>351.0</ele><time>2026-05-03T10:06:12.878Z</time></trkpt><trkpt lat="42.2930204" lon="13.7845297"><ele>351.0</ele><time>2026-05-03T10:06:13.878Z</time></trkpt><trkpt lat="42.2928822" lon="13.7846313"><ele>351.3333333333333</ele><time>2026-05-03T10:06:14.877Z</time></trkpt><trkpt lat="42.2927397" lon="13.7847263"><ele>351.66666666666663</ele><time>2026-05-03T10:06:15.877Z</time></trkpt><trkpt lat="42.2926048" lon="13.7848117"><ele>352.0</ele><time>2026-05-03T10:06:16.877Z</time></trkpt><trkpt lat="42.2924697" lon="13.7848886"><ele>352.0</ele><time>2026-05-03T10:06:17.876Z</time></trkpt><trkpt lat="42.2923186" lon="13.7849572"><ele>352.0</ele><time>2026-05-03T10:06:18.877Z</time></trkpt><trkpt lat="42.2921579" lon="13.7850151"><ele>352.0</ele><time>2026-05-03T10:06:19.877Z</time></trkpt><trkpt lat="42.2920078" lon="13.7850758"><ele>352.3333333333333</ele><time>2026-05-03T10:06:20.877Z</time></trkpt><trkpt lat="42.2918511" lon="13.7851509"><ele>352.6666666666667</ele><time>2026-05-03T10:06:21.879Z</time></trkpt><trkpt lat="42.2917016" lon="13.7852453"><ele>353.0</ele><time>2026-05-03T10:06:22.877Z</time></trkpt><trkpt lat="42.2915514" lon="13.785342"><ele>352.33333333333337</ele><time>2026-05-03T10:06:23.877Z</time></trkpt><trkpt lat="42.2914093" lon="13.7854374"><ele>351.6666666666667</ele><time>2026-05-03T10:06:24.877Z</time></trkpt><trkpt lat="42.2912671" lon="13.78553"><ele>351.0</ele><time>2026-05-03T10:06:25.877Z</time></trkpt><trkpt lat="42.2911319" lon="13.7856171"><ele>351.0</ele><time>2026-05-03T10:06:26.877Z</time></trkpt><trkpt lat="42.2909969" lon="13.7857091"><ele>351.0</ele><time>2026-05-03T10:06:27.878Z</time></trkpt><trkpt lat="42.2908649" lon="13.7858172"><ele>351.0</ele><time>2026-05-03T10:06:28.877Z</time></trkpt><trkpt lat="42.2907268" lon="13.7859306"><ele>351.3333333333333</ele><time>2026-05-03T10:06:29.877Z</time></trkpt><trkpt lat="42.2905922" lon="13.7860334"><ele>351.66666666666663</ele><time>2026-05-03T10:06:30.878Z</time></trkpt><trkpt lat="42.2904631" lon="13.786138"><ele>352.0</ele><time>2026-05-03T10:06:31.877Z</time></trkpt><trkpt lat="42.2903392" lon="13.7862543"><ele>352.0</ele><time>2026-05-03T10:06:32.877Z</time></trkpt><trkpt lat="42.2902072" lon="13.7863666"><ele>352.0</ele><time>2026-05-03T10:06:33.878Z</time></trkpt><trkpt lat="42.2900769" lon="13.7864686"><ele>352.0</ele><time>2026-05-03T10:06:34.877Z</time></trkpt><trkpt lat="42.2899336" lon="13.7865771"><ele>352.0</ele><time>2026-05-03T10:06:35.878Z</time></trkpt><trkpt lat="42.2897796" lon="13.786695"><ele>352.0</ele><time>2026-05-03T10:06:36.877Z</time></trkpt><trkpt lat="42.2896276" lon="13.786811"><ele>352.0</ele><time>2026-05-03T10:06:37.878Z</time></trkpt><trkpt lat="42.2894815" lon="13.7869201"><ele>353.0</ele><time>2026-05-03T10:06:38.877Z</time></trkpt><trkpt lat="42.289338" lon="13.7870318"><ele>354.0</ele><time>2026-05-03T10:06:39.877Z</time></trkpt><trkpt lat="42.2891989" lon="13.787134"><ele>355.0</ele><time>2026-05-03T10:06:40.877Z</time></trkpt><trkpt lat="42.2890667" lon="13.7872457"><ele>355.0</ele><time>2026-05-03T10:06:41.878Z</time></trkpt><trkpt lat="42.288938" lon="13.7873655"><ele>355.0</ele><time>2026-05-03T10:06:42.877Z</time></trkpt><trkpt lat="42.2888171" lon="13.7874776"><ele>355.0</ele><time>2026-05-03T10:06:43.877Z</time></trkpt><trkpt lat="42.2886838" lon="13.7875908"><ele>356.66666666666663</ele><time>2026-05-03T10:06:44.878Z</time></trkpt><trkpt lat="42.2885516" lon="13.7876979"><ele>358.3333333333333</ele><time>2026-05-03T10:06:45.877Z</time></trkpt><trkpt lat="42.2884208" lon="13.7878075"><ele>360.0</ele><time>2026-05-03T10:06:46.878Z</time></trkpt><trkpt lat="42.2882939" lon="13.7879083"><ele>360.0</ele><time>2026-05-03T10:06:47.877Z</time></trkpt><trkpt lat="42.2881764" lon="13.7879789"><ele>360.0</ele><time>2026-05-03T10:06:48.877Z</time></trkpt><trkpt lat="42.2880524" lon="13.7880258"><ele>360.0</ele><time>2026-05-03T10:06:49.878Z</time></trkpt><trkpt lat="42.2879239" lon="13.7880678"><ele>360.0</ele><time>2026-05-03T10:06:50.877Z</time></trkpt><trkpt lat="42.2878018" lon="13.7881056"><ele>360.5</ele><time>2026-05-03T10:06:51.877Z</time></trkpt><trkpt lat="42.287683" lon="13.7881592"><ele>361.0</ele><time>2026-05-03T10:06:52.877Z</time></trkpt><trkpt lat="42.2875551" lon="13.7882247"><ele>361.5</ele><time>2026-05-03T10:06:53.878Z</time></trkpt><trkpt lat="42.2874481" lon="13.788272"><ele>362.0</ele><time>2026-05-03T10:06:54.877Z</time></trkpt><trkpt lat="42.2873522" lon="13.7883132"><ele>362.0</ele><time>2026-05-03T10:06:55.878Z</time></trkpt><trkpt lat="42.2872621" lon="13.7883616"><ele>362.0</ele><time>2026-05-03T10:06:56.877Z</time></trkpt><trkpt lat="42.2871882" lon="13.7884107"><ele>362.0</ele><time>2026-05-03T10:06:57.877Z</time></trkpt><trkpt lat="42.2871133" lon="13.7884637"><ele>362.0</ele><time>2026-05-03T10:06:58.878Z</time></trkpt><trkpt lat="42.2870329" lon="13.7885122"><ele>362.0</ele><time>2026-05-03T10:06:59.877Z</time></trkpt><trkpt lat="42.2869533" lon="13.7885664"><ele>362.0</ele><time>2026-05-03T10:07:00.877Z</time></trkpt><trkpt lat="42.2868849" lon="13.7886165"><ele>362.0</ele><time>2026-05-03T10:07:01.878Z</time></trkpt><trkpt lat="42.286821" lon="13.7886586"><ele>362.0</ele><time>2026-05-03T10:07:02.878Z</time></trkpt><trkpt lat="42.2867619" lon="13.7886963"><ele>362.0</ele><time>2026-05-03T10:07:03.878Z</time></trkpt><trkpt lat="42.2866711" lon="13.7887552"><ele>362.0</ele><time>2026-05-03T10:07:05.877Z</time></trkpt><trkpt lat="42.2865979" lon="13.7887723"><ele>362.0</ele><time>2026-05-03T10:07:08.877Z</time></trkpt><trkpt lat="42.2865906" lon="13.7886772"><ele>362.0</ele><time>2026-05-03T10:07:11.878Z</time></trkpt><trkpt lat="42.286599" lon="13.7885519"><ele>361.33333333333337</ele><time>2026-05-03T10:07:14.877Z</time></trkpt><trkpt lat="42.2865911" lon="13.7884138"><ele>360.6666666666667</ele><time>2026-05-03T10:07:16.877Z</time></trkpt><trkpt lat="42.2865829" lon="13.7883291"><ele>360.0</ele><time>2026-05-03T10:07:17.877Z</time></trkpt><trkpt lat="42.286574" lon="13.7882317"><ele>359.3333333333333</ele><time>2026-05-03T10:07:18.877Z</time></trkpt><trkpt lat="42.2865613" lon="13.788127"><ele>358.66666666666663</ele><time>2026-05-03T10:07:19.877Z</time></trkpt><trkpt lat="42.2865456" lon="13.78802"><ele>358.0</ele><time>2026-05-03T10:07:20.877Z</time></trkpt><trkpt lat="42.2865301" lon="13.7879181"><ele>358.0</ele><time>2026-05-03T10:07:21.878Z</time></trkpt><trkpt lat="42.2865195" lon="13.787818"><ele>358.0</ele><time>2026-05-03T10:07:22.878Z</time></trkpt><trkpt lat="42.2865115" lon="13.7877016"><ele>358.0</ele><time>2026-05-03T10:07:23.877Z</time></trkpt><trkpt lat="42.2865015" lon="13.7875772"><ele>358.0</ele><time>2026-05-03T10:07:24.878Z</time></trkpt><trkpt lat="42.2864867" lon="13.7874387"><ele>358.0</ele><time>2026-05-03T10:07:25.877Z</time></trkpt><trkpt lat="42.2864714" lon="13.7872928"><ele>356.75</ele><time>2026-05-03T10:07:26.878Z</time></trkpt><trkpt lat="42.2864525" lon="13.7871419"><ele>355.5</ele><time>2026-05-03T10:07:27.877Z</time></trkpt><trkpt lat="42.2864326" lon="13.7869878"><ele>354.25</ele><time>2026-05-03T10:07:28.878Z</time></trkpt><trkpt lat="42.2864115" lon="13.7868323"><ele>353.0</ele><time>2026-05-03T10:07:29.878Z</time></trkpt><trkpt lat="42.2863884" lon="13.7866709"><ele>350.75</ele><time>2026-05-03T10:07:30.877Z</time></trkpt><trkpt lat="42.2863609" lon="13.7864977"><ele>348.5</ele><time>2026-05-03T10:07:31.877Z</time></trkpt><trkpt lat="42.2863331" lon="13.7863189"><ele>346.25</ele><time>2026-05-03T10:07:32.878Z</time></trkpt><trkpt lat="42.2863056" lon="13.7861373"><ele>344.0</ele><time>2026-05-03T10:07:33.877Z</time></trkpt><trkpt lat="42.2862794" lon="13.7859579"><ele>343.75</ele><time>2026-05-03T10:07:34.877Z</time></trkpt><trkpt lat="42.2862539" lon="13.7857821"><ele>343.5</ele><time>2026-05-03T10:07:35.877Z</time></trkpt><trkpt lat="42.2862316" lon="13.7856102"><ele>343.25</ele><time>2026-05-03T10:07:36.877Z</time></trkpt><trkpt lat="42.2862106" lon="13.7854413"><ele>343.0</ele><time>2026-05-03T10:07:37.878Z</time></trkpt><trkpt lat="42.2861914" lon="13.7852774"><ele>343.0</ele><time>2026-05-03T10:07:38.877Z</time></trkpt><trkpt lat="42.2861723" lon="13.7851137"><ele>343.0</ele><time>2026-05-03T10:07:39.877Z</time></trkpt><trkpt lat="42.2861507" lon="13.7849518"><ele>343.0</ele><time>2026-05-03T10:07:40.877Z</time></trkpt><trkpt lat="42.2861292" lon="13.7847914"><ele>343.0</ele><time>2026-05-03T10:07:41.878Z</time></trkpt><trkpt lat="42.2861078" lon="13.7846273"><ele>343.0</ele><time>2026-05-03T10:07:42.877Z</time></trkpt><trkpt lat="42.2860871" lon="13.7844614"><ele>343.0</ele><time>2026-05-03T10:07:43.878Z</time></trkpt><trkpt lat="42.2860677" lon="13.7842862"><ele>343.0</ele><time>2026-05-03T10:07:44.877Z</time></trkpt><trkpt lat="42.2860484" lon="13.7841024"><ele>343.0</ele><time>2026-05-03T10:07:45.877Z</time></trkpt><trkpt lat="42.2860254" lon="13.7839122"><ele>343.66666666666663</ele><time>2026-05-03T10:07:46.878Z</time></trkpt><trkpt lat="42.2860008" lon="13.7837148"><ele>344.3333333333333</ele><time>2026-05-03T10:07:47.877Z</time></trkpt><trkpt lat="42.2859773" lon="13.7835135"><ele>345.0</ele><time>2026-05-03T10:07:48.877Z</time></trkpt><trkpt lat="42.2859549" lon="13.7833089"><ele>345.3333333333333</ele><time>2026-05-03T10:07:49.878Z</time></trkpt><trkpt lat="42.2859329" lon="13.7831016"><ele>345.66666666666663</ele><time>2026-05-03T10:07:50.877Z</time></trkpt><trkpt lat="42.2859085" lon="13.7828913"><ele>346.0</ele><time>2026-05-03T10:07:51.877Z</time></trkpt><trkpt lat="42.2858785" lon="13.782684"><ele>345.0</ele><time>2026-05-03T10:07:52.878Z</time></trkpt><trkpt lat="42.2858426" lon="13.7824779"><ele>344.0</ele><time>2026-05-03T10:07:53.877Z</time></trkpt><trkpt lat="42.2857923" lon="13.7822769"><ele>343.0</ele><time>2026-05-03T10:07:54.877Z</time></trkpt><trkpt lat="42.2857303" lon="13.7820785"><ele>343.0</ele><time>2026-05-03T10:07:55.877Z</time></trkpt><trkpt lat="42.2856554" lon="13.7818816"><ele>343.0</ele><time>2026-05-03T10:07:56.877Z</time></trkpt><trkpt lat="42.2855748" lon="13.7816804"><ele>343.0</ele><time>2026-05-03T10:07:57.878Z</time></trkpt><trkpt lat="42.2854896" lon="13.781478"><ele>343.0</ele><time>2026-05-03T10:07:58.877Z</time></trkpt><trkpt lat="42.2854041" lon="13.7812725"><ele>343.0</ele><time>2026-05-03T10:07:59.877Z</time></trkpt><trkpt lat="42.2853191" lon="13.7810646"><ele>343.0</ele><time>2026-05-03T10:08:00.878Z</time></trkpt><trkpt lat="42.285234" lon="13.7808592"><ele>343.0</ele><time>2026-05-03T10:08:01.878Z</time></trkpt><trkpt lat="42.2851482" lon="13.7806525"><ele>343.0</ele><time>2026-05-03T10:08:02.877Z</time></trkpt><trkpt lat="42.2850637" lon="13.7804437"><ele>343.0</ele><time>2026-05-03T10:08:03.877Z</time></trkpt><trkpt lat="42.2849785" lon="13.7802343"><ele>343.0</ele><time>2026-05-03T10:08:04.877Z</time></trkpt><trkpt lat="42.2848932" lon="13.7800231"><ele>343.0</ele><time>2026-05-03T10:08:05.877Z</time></trkpt><trkpt lat="42.2848097" lon="13.7798133"><ele>343.0</ele><time>2026-05-03T10:08:06.878Z</time></trkpt><trkpt lat="42.2847253" lon="13.7796041"><ele>343.0</ele><time>2026-05-03T10:08:07.877Z</time></trkpt><trkpt lat="42.2846425" lon="13.7793984"><ele>343.0</ele><time>2026-05-03T10:08:08.877Z</time></trkpt><trkpt lat="42.2845569" lon="13.7791944"><ele>343.0</ele><time>2026-05-03T10:08:09.877Z</time></trkpt><trkpt lat="42.2844741" lon="13.7789926"><ele>343.0</ele><time>2026-05-03T10:08:10.878Z</time></trkpt><trkpt lat="42.2843935" lon="13.7787908"><ele>343.0</ele><time>2026-05-03T10:08:11.878Z</time></trkpt><trkpt lat="42.284311" lon="13.7785883"><ele>343.0</ele><time>2026-05-03T10:08:12.877Z</time></trkpt><trkpt lat="42.2842265" lon="13.7783839"><ele>343.3333333333333</ele><time>2026-05-03T10:08:13.877Z</time></trkpt><trkpt lat="42.2841436" lon="13.778177"><ele>343.6666666666667</ele><time>2026-05-03T10:08:14.877Z</time></trkpt><trkpt lat="42.2840603" lon="13.7779693"><ele>344.0</ele><time>2026-05-03T10:08:15.877Z</time></trkpt><trkpt lat="42.2839748" lon="13.7777609"><ele>344.33333333333337</ele><time>2026-05-03T10:08:16.877Z</time></trkpt><trkpt lat="42.2838909" lon="13.7775534"><ele>344.6666666666667</ele><time>2026-05-03T10:08:17.877Z</time></trkpt><trkpt lat="42.2838085" lon="13.7773422"><ele>345.0</ele><time>2026-05-03T10:08:18.877Z</time></trkpt><trkpt lat="42.2837228" lon="13.7771337"><ele>345.0</ele><time>2026-05-03T10:08:19.877Z</time></trkpt><trkpt lat="42.2836361" lon="13.7769259"><ele>345.0</ele><time>2026-05-03T10:08:20.877Z</time></trkpt><trkpt lat="42.2835518" lon="13.7767178"><ele>345.0</ele><time>2026-05-03T10:08:21.877Z</time></trkpt><trkpt lat="42.2834672" lon="13.7765114"><ele>345.0</ele><time>2026-05-03T10:08:22.877Z</time></trkpt><trkpt lat="42.2833819" lon="13.7763061"><ele>345.0</ele><time>2026-05-03T10:08:23.878Z</time></trkpt><trkpt lat="42.2832976" lon="13.7761024"><ele>345.0</ele><time>2026-05-03T10:08:24.877Z</time></trkpt><trkpt lat="42.2832169" lon="13.7759034"><ele>345.0</ele><time>2026-05-03T10:08:25.877Z</time></trkpt><trkpt lat="42.2831394" lon="13.7757131"><ele>345.0</ele><time>2026-05-03T10:08:26.877Z</time></trkpt><trkpt lat="42.2830636" lon="13.7755282"><ele>345.0</ele><time>2026-05-03T10:08:27.877Z</time></trkpt><trkpt lat="42.2829896" lon="13.7753515"><ele>345.0</ele><time>2026-05-03T10:08:28.877Z</time></trkpt><trkpt lat="42.2829098" lon="13.7751879"><ele>345.0</ele><time>2026-05-03T10:08:29.877Z</time></trkpt><trkpt lat="42.2828257" lon="13.7750376"><ele>345.0</ele><time>2026-05-03T10:08:30.878Z</time></trkpt><trkpt lat="42.2827343" lon="13.7749067"><ele>345.0</ele><time>2026-05-03T10:08:31.877Z</time></trkpt><trkpt lat="42.2826336" lon="13.7748026"><ele>345.75</ele><time>2026-05-03T10:08:32.877Z</time></trkpt><trkpt lat="42.2825206" lon="13.7747206"><ele>346.5</ele><time>2026-05-03T10:08:33.877Z</time></trkpt><trkpt lat="42.2823983" lon="13.7746649"><ele>347.25</ele><time>2026-05-03T10:08:34.877Z</time></trkpt><trkpt lat="42.28227" lon="13.7746242"><ele>348.0</ele><time>2026-05-03T10:08:35.877Z</time></trkpt><trkpt lat="42.2821394" lon="13.7745965"><ele>348.25</ele><time>2026-05-03T10:08:36.878Z</time></trkpt><trkpt lat="42.2820066" lon="13.7745664"><ele>348.5</ele><time>2026-05-03T10:08:37.878Z</time></trkpt><trkpt lat="42.2818746" lon="13.7745292"><ele>348.75</ele><time>2026-05-03T10:08:38.878Z</time></trkpt><trkpt lat="42.2817513" lon="13.7744748"><ele>349.0</ele><time>2026-05-03T10:08:39.877Z</time></trkpt><trkpt lat="42.2816424" lon="13.7743974"><ele>349.5</ele><time>2026-05-03T10:08:40.877Z</time></trkpt><trkpt lat="42.2815424" lon="13.7742942"><ele>350.0</ele><time>2026-05-03T10:08:41.877Z</time></trkpt><trkpt lat="42.2814485" lon="13.7741745"><ele>350.5</ele><time>2026-05-03T10:08:42.877Z</time></trkpt><trkpt lat="42.2813496" lon="13.7740473"><ele>351.0</ele><time>2026-05-03T10:08:43.877Z</time></trkpt><trkpt lat="42.2812497" lon="13.7739153"><ele>351.0</ele><time>2026-05-03T10:08:44.877Z</time></trkpt><trkpt lat="42.2811471" lon="13.7737815"><ele>351.0</ele><time>2026-05-03T10:08:45.877Z</time></trkpt><trkpt lat="42.2810419" lon="13.7736437"><ele>351.0</ele><time>2026-05-03T10:08:46.877Z</time></trkpt><trkpt lat="42.2809404" lon="13.7735019"><ele>351.0</ele><time>2026-05-03T10:08:47.878Z</time></trkpt><trkpt lat="42.2808497" lon="13.7733488"><ele>351.5</ele><time>2026-05-03T10:08:48.878Z</time></trkpt><trkpt lat="42.2807667" lon="13.7731873"><ele>352.0</ele><time>2026-05-03T10:08:49.878Z</time></trkpt><trkpt lat="42.2806824" lon="13.773029"><ele>352.5</ele><time>2026-05-03T10:08:50.877Z</time></trkpt><trkpt lat="42.2806" lon="13.7728645"><ele>353.0</ele><time>2026-05-03T10:08:51.877Z</time></trkpt><trkpt lat="42.2805173" lon="13.7727018"><ele>353.5</ele><time>2026-05-03T10:08:52.878Z</time></trkpt><trkpt lat="42.2804403" lon="13.772547"><ele>354.0</ele><time>2026-05-03T10:08:53.877Z</time></trkpt><trkpt lat="42.2803677" lon="13.7724076"><ele>354.5</ele><time>2026-05-03T10:08:54.877Z</time></trkpt><trkpt lat="42.2802957" lon="13.7722893"><ele>355.0</ele><time>2026-05-03T10:08:55.878Z</time></trkpt><trkpt lat="42.2802087" lon="13.772199"><ele>355.0</ele><time>2026-05-03T10:08:56.877Z</time></trkpt><trkpt lat="42.2801072" lon="13.7721217"><ele>355.0</ele><time>2026-05-03T10:08:57.878Z</time></trkpt><trkpt lat="42.2799999" lon="13.7720445"><ele>355.0</ele><time>2026-05-03T10:08:58.878Z</time></trkpt><trkpt lat="42.2798956" lon="13.771956"><ele>355.0</ele><time>2026-05-03T10:08:59.878Z</time></trkpt><trkpt lat="42.2797979" lon="13.7718559"><ele>355.5</ele><time>2026-05-03T10:09:00.878Z</time></trkpt><trkpt lat="42.2797119" lon="13.7717407"><ele>356.0</ele><time>2026-05-03T10:09:01.877Z</time></trkpt><trkpt lat="42.2796417" lon="13.7716038"><ele>356.5</ele><time>2026-05-03T10:09:02.878Z</time></trkpt><trkpt lat="42.2795833" lon="13.7714529"><ele>357.0</ele><time>2026-05-03T10:09:03.877Z</time></trkpt><trkpt lat="42.2795248" lon="13.771297"><ele>357.0</ele><time>2026-05-03T10:09:04.877Z</time></trkpt><trkpt lat="42.2794672" lon="13.7711371"><ele>357.0</ele><time>2026-05-03T10:09:05.878Z</time></trkpt><trkpt lat="42.279411" lon="13.7709771"><ele>357.0</ele><time>2026-05-03T10:09:06.878Z</time></trkpt><trkpt lat="42.2793584" lon="13.7708183"><ele>357.0</ele><time>2026-05-03T10:09:07.877Z</time></trkpt><trkpt lat="42.2793082" lon="13.7706614"><ele>357.5</ele><time>2026-05-03T10:09:08.877Z</time></trkpt><trkpt lat="42.2792534" lon="13.7705095"><ele>358.0</ele><time>2026-05-03T10:09:09.878Z</time></trkpt><trkpt lat="42.2791987" lon="13.7703602"><ele>358.5</ele><time>2026-05-03T10:09:10.877Z</time></trkpt><trkpt lat="42.2791482" lon="13.7702203"><ele>359.0</ele><time>2026-05-03T10:09:11.877Z</time></trkpt><trkpt lat="42.2791021" lon="13.7700916"><ele>359.2</ele><time>2026-05-03T10:09:12.877Z</time></trkpt><trkpt lat="42.279059" lon="13.7699724"><ele>359.4</ele><time>2026-05-03T10:09:13.878Z</time></trkpt><trkpt lat="42.279018" lon="13.769859"><ele>359.6</ele><time>2026-05-03T10:09:14.877Z</time></trkpt><trkpt lat="42.2789794" lon="13.7697502"><ele>359.8</ele><time>2026-05-03T10:09:15.877Z</time></trkpt><trkpt lat="42.2789427" lon="13.7696406"><ele>360.0</ele><time>2026-05-03T10:09:16.878Z</time></trkpt><trkpt lat="42.278909" lon="13.7695417"><ele>360.0</ele><time>2026-05-03T10:09:17.878Z</time></trkpt><trkpt lat="42.2788801" lon="13.7694606"><ele>360.0</ele><time>2026-05-03T10:09:18.878Z</time></trkpt><trkpt lat="42.2788477" lon="13.7693686"><ele>360.0</ele><time>2026-05-03T10:09:20.878Z</time></trkpt><trkpt lat="42.2787448" lon="13.7693695"><ele>360.0</ele><time>2026-05-03T10:09:23.877Z</time></trkpt><trkpt lat="42.2786533" lon="13.7694464"><ele>360.0</ele><time>2026-05-03T10:09:25.877Z</time></trkpt><trkpt lat="42.2785865" lon="13.7695089"><ele>360.0</ele><time>2026-05-03T10:09:27.877Z</time></trkpt><trkpt lat="42.2785365" lon="13.7695609"><ele>360.0</ele><time>2026-05-03T10:09:29.878Z</time></trkpt><trkpt lat="42.2784808" lon="13.7696272"><ele>360.0</ele><time>2026-05-03T10:10:06.876Z</time></trkpt><trkpt lat="42.2784074" lon="13.7697093"><ele>360.0</ele><time>2026-05-03T10:10:08.877Z</time></trkpt><trkpt lat="42.2783538" lon="13.7697746"><ele>360.0</ele><time>2026-05-03T10:10:09.876Z</time></trkpt><trkpt lat="42.2782949" lon="13.7698439"><ele>360.0</ele><time>2026-05-03T10:10:10.877Z</time></trkpt><trkpt lat="42.2782264" lon="13.7699235"><ele>360.0</ele><time>2026-05-03T10:10:11.877Z</time></trkpt><trkpt lat="42.2781493" lon="13.7700143"><ele>359.5</ele><time>2026-05-03T10:10:12.877Z</time></trkpt><trkpt lat="42.2780668" lon="13.7701081"><ele>359.0</ele><time>2026-05-03T10:10:13.876Z</time></trkpt><trkpt lat="42.2779818" lon="13.7702046"><ele>358.5</ele><time>2026-05-03T10:10:14.876Z</time></trkpt><trkpt lat="42.2778937" lon="13.7703061"><ele>358.0</ele><time>2026-05-03T10:10:15.876Z</time></trkpt><trkpt lat="42.2778059" lon="13.7704105"><ele>357.2</ele><time>2026-05-03T10:10:16.876Z</time></trkpt><trkpt lat="42.2777198" lon="13.7705073"><ele>356.4</ele><time>2026-05-03T10:10:17.877Z</time></trkpt><trkpt lat="42.2776288" lon="13.7705891"><ele>355.59999999999997</ele><time>2026-05-03T10:10:18.877Z</time></trkpt><trkpt lat="42.2775344" lon="13.7706564"><ele>354.79999999999995</ele><time>2026-05-03T10:10:19.877Z</time></trkpt><trkpt lat="42.277424" lon="13.7706998"><ele>354.0</ele><time>2026-05-03T10:10:20.877Z</time></trkpt><trkpt lat="42.2773016" lon="13.7707084"><ele>352.5</ele><time>2026-05-03T10:10:21.876Z</time></trkpt><trkpt lat="42.277175" lon="13.7707019"><ele>351.0</ele><time>2026-05-03T10:10:22.876Z</time></trkpt><trkpt lat="42.2770437" lon="13.7706876"><ele>349.5</ele><time>2026-05-03T10:10:23.877Z</time></trkpt><trkpt lat="42.2769099" lon="13.7706738"><ele>348.0</ele><time>2026-05-03T10:10:24.877Z</time></trkpt><trkpt lat="42.2767735" lon="13.7706613"><ele>348.0</ele><time>2026-05-03T10:10:25.876Z</time></trkpt><trkpt lat="42.2766392" lon="13.7706477"><ele>348.0</ele><time>2026-05-03T10:10:26.876Z</time></trkpt><trkpt lat="42.2765049" lon="13.7706269"><ele>348.0</ele><time>2026-05-03T10:10:27.876Z</time></trkpt><trkpt lat="42.2763707" lon="13.7706107"><ele>348.0</ele><time>2026-05-03T10:10:28.876Z</time></trkpt><trkpt lat="42.2762438" lon="13.7706018"><ele>347.0</ele><time>2026-05-03T10:10:29.876Z</time></trkpt><trkpt lat="42.2761169" lon="13.7705825"><ele>346.0</ele><time>2026-05-03T10:10:30.876Z</time></trkpt><trkpt lat="42.2759863" lon="13.7705584"><ele>345.0</ele><time>2026-05-03T10:10:31.876Z</time></trkpt><trkpt lat="42.2758529" lon="13.7705384"><ele>344.0</ele><time>2026-05-03T10:10:32.877Z</time></trkpt><trkpt lat="42.2757239" lon="13.7705177"><ele>346.0</ele><time>2026-05-03T10:10:33.876Z</time></trkpt><trkpt lat="42.2755988" lon="13.7705085"><ele>348.0</ele><time>2026-05-03T10:10:34.876Z</time></trkpt><trkpt lat="42.2754697" lon="13.7705228"><ele>350.0</ele><time>2026-05-03T10:10:35.876Z</time></trkpt><trkpt lat="42.2753432" lon="13.7705558"><ele>352.0</ele><time>2026-05-03T10:10:36.876Z</time></trkpt><trkpt lat="42.2752245" lon="13.7706042"><ele>352.0</ele><time>2026-05-03T10:10:37.876Z</time></trkpt><trkpt lat="42.2751163" lon="13.7706652"><ele>352.0</ele><time>2026-05-03T10:10:38.876Z</time></trkpt><trkpt lat="42.2750261" lon="13.7707486"><ele>352.0</ele><time>2026-05-03T10:10:39.876Z</time></trkpt><trkpt lat="42.2749559" lon="13.7708587"><ele>352.0</ele><time>2026-05-03T10:10:40.876Z</time></trkpt><trkpt lat="42.2749094" lon="13.7709941"><ele>352.0</ele><time>2026-05-03T10:10:41.876Z</time></trkpt><trkpt lat="42.2748758" lon="13.7711382"><ele>353.25</ele><time>2026-05-03T10:10:42.877Z</time></trkpt><trkpt lat="42.2748446" lon="13.7712879"><ele>354.5</ele><time>2026-05-03T10:10:43.876Z</time></trkpt><trkpt lat="42.2748133" lon="13.7714429"><ele>355.75</ele><time>2026-05-03T10:10:44.876Z</time></trkpt><trkpt lat="42.2747824" lon="13.7715998"><ele>357.0</ele><time>2026-05-03T10:10:45.876Z</time></trkpt><trkpt lat="42.2747511" lon="13.7717563"><ele>356.25</ele><time>2026-05-03T10:10:46.877Z</time></trkpt><trkpt lat="42.2747154" lon="13.7719106"><ele>355.5</ele><time>2026-05-03T10:10:47.877Z</time></trkpt><trkpt lat="42.2746794" lon="13.772063"><ele>354.75</ele><time>2026-05-03T10:10:48.876Z</time></trkpt><trkpt lat="42.2746426" lon="13.7722122"><ele>354.0</ele><time>2026-05-03T10:10:49.876Z</time></trkpt><trkpt lat="42.2746029" lon="13.7723551"><ele>354.0</ele><time>2026-05-03T10:10:50.877Z</time></trkpt><trkpt lat="42.274551" lon="13.7724916"><ele>354.0</ele><time>2026-05-03T10:10:51.877Z</time></trkpt><trkpt lat="42.2744826" lon="13.7726192"><ele>354.0</ele><time>2026-05-03T10:10:52.876Z</time></trkpt><trkpt lat="42.2743988" lon="13.7727422"><ele>354.0</ele><time>2026-05-03T10:10:53.876Z</time></trkpt><trkpt lat="42.2743082" lon="13.7728643"><ele>353.5</ele><time>2026-05-03T10:10:54.877Z</time></trkpt><trkpt lat="42.2742095" lon="13.7729882"><ele>353.0</ele><time>2026-05-03T10:10:55.877Z</time></trkpt><trkpt lat="42.2741055" lon="13.7731083"><ele>352.5</ele><time>2026-05-03T10:10:56.876Z</time></trkpt><trkpt lat="42.2740017" lon="13.7732354"><ele>352.0</ele><time>2026-05-03T10:10:57.877Z</time></trkpt><trkpt lat="42.2738952" lon="13.7733623"><ele>352.5</ele><time>2026-05-03T10:10:58.876Z</time></trkpt><trkpt lat="42.2737849" lon="13.7734914"><ele>353.0</ele><time>2026-05-03T10:10:59.876Z</time></trkpt><trkpt lat="42.2736715" lon="13.7736212"><ele>353.5</ele><time>2026-05-03T10:11:00.877Z</time></trkpt><trkpt lat="42.2735551" lon="13.7737517"><ele>354.0</ele><time>2026-05-03T10:11:01.876Z</time></trkpt><trkpt lat="42.273441" lon="13.7738814"><ele>354.0</ele><time>2026-05-03T10:11:02.877Z</time></trkpt><trkpt lat="42.2733303" lon="13.7740193"><ele>354.0</ele><time>2026-05-03T10:11:03.877Z</time></trkpt><trkpt lat="42.2732216" lon="13.7741574"><ele>354.0</ele><time>2026-05-03T10:11:04.876Z</time></trkpt><trkpt lat="42.2731228" lon="13.7743066"><ele>354.0</ele><time>2026-05-03T10:11:05.876Z</time></trkpt><trkpt lat="42.2730294" lon="13.7744643"><ele>354.75</ele><time>2026-05-03T10:11:06.876Z</time></trkpt><trkpt lat="42.2729375" lon="13.7746207"><ele>355.5</ele><time>2026-05-03T10:11:07.877Z</time></trkpt><trkpt lat="42.2728478" lon="13.774783"><ele>356.25</ele><time>2026-05-03T10:11:08.877Z</time></trkpt><trkpt lat="42.2727556" lon="13.7749435"><ele>357.0</ele><time>2026-05-03T10:11:09.876Z</time></trkpt><trkpt lat="42.2726629" lon="13.7750998"><ele>356.0</ele><time>2026-05-03T10:11:10.877Z</time></trkpt><trkpt lat="42.2725734" lon="13.7752445"><ele>355.0</ele><time>2026-05-03T10:11:11.877Z</time></trkpt><trkpt lat="42.2724925" lon="13.7753836"><ele>354.0</ele><time>2026-05-03T10:11:12.876Z</time></trkpt><trkpt lat="42.272424" lon="13.775518"><ele>353.0</ele><time>2026-05-03T10:11:13.875Z</time></trkpt><trkpt lat="42.2723695" lon="13.775648"><ele>353.0</ele><time>2026-05-03T10:11:14.876Z</time></trkpt><trkpt lat="42.2723272" lon="13.7757776"><ele>353.0</ele><time>2026-05-03T10:11:15.877Z</time></trkpt><trkpt lat="42.2722904" lon="13.7759216"><ele>353.0</ele><time>2026-05-03T10:11:16.877Z</time></trkpt><trkpt lat="42.272266" lon="13.7760756"><ele>353.0</ele><time>2026-05-03T10:11:17.876Z</time></trkpt><trkpt lat="42.2722477" lon="13.7762401"><ele>352.5</ele><time>2026-05-03T10:11:18.876Z</time></trkpt><trkpt lat="42.2722297" lon="13.7764122"><ele>352.0</ele><time>2026-05-03T10:11:19.876Z</time></trkpt><trkpt lat="42.2722117" lon="13.7765907"><ele>351.5</ele><time>2026-05-03T10:11:20.876Z</time></trkpt><trkpt lat="42.2721962" lon="13.776772"><ele>351.0</ele><time>2026-05-03T10:11:21.876Z</time></trkpt><trkpt lat="42.272179" lon="13.7769544"><ele>350.25</ele><time>2026-05-03T10:11:22.876Z</time></trkpt><trkpt lat="42.2721594" lon="13.7771372"><ele>349.5</ele><time>2026-05-03T10:11:23.876Z</time></trkpt><trkpt lat="42.2721369" lon="13.7773229"><ele>348.75</ele><time>2026-05-03T10:11:24.877Z</time></trkpt><trkpt lat="42.2721168" lon="13.7775128"><ele>348.0</ele><time>2026-05-03T10:11:25.876Z</time></trkpt><trkpt lat="42.2720982" lon="13.7777133"><ele>347.3333333333333</ele><time>2026-05-03T10:11:26.876Z</time></trkpt><trkpt lat="42.2720797" lon="13.7779169"><ele>346.66666666666663</ele><time>2026-05-03T10:11:27.877Z</time></trkpt><trkpt lat="42.2720594" lon="13.7781245"><ele>346.0</ele><time>2026-05-03T10:11:28.877Z</time></trkpt><trkpt lat="42.2720402" lon="13.7783344"><ele>345.0</ele><time>2026-05-03T10:11:29.876Z</time></trkpt><trkpt lat="42.2720212" lon="13.7785421"><ele>344.0</ele><time>2026-05-03T10:11:30.876Z</time></trkpt><trkpt lat="42.2720003" lon="13.7787509"><ele>343.0</ele><time>2026-05-03T10:11:31.876Z</time></trkpt><trkpt lat="42.2719782" lon="13.7789584"><ele>343.0</ele><time>2026-05-03T10:11:32.877Z</time></trkpt><trkpt lat="42.271954" lon="13.7791643"><ele>343.0</ele><time>2026-05-03T10:11:33.877Z</time></trkpt><trkpt lat="42.271928" lon="13.7793587"><ele>343.0</ele><time>2026-05-03T10:11:34.876Z</time></trkpt><trkpt lat="42.2718957" lon="13.7795299"><ele>343.0</ele><time>2026-05-03T10:11:35.876Z</time></trkpt><trkpt lat="42.2718537" lon="13.7796815"><ele>342.25</ele><time>2026-05-03T10:11:36.876Z</time></trkpt><trkpt lat="42.2717943" lon="13.7798114"><ele>341.5</ele><time>2026-05-03T10:11:37.876Z</time></trkpt><trkpt lat="42.2717216" lon="13.7799411"><ele>340.75</ele><time>2026-05-03T10:11:38.876Z</time></trkpt><trkpt lat="42.2716397" lon="13.7800688"><ele>340.0</ele><time>2026-05-03T10:11:39.877Z</time></trkpt><trkpt lat="42.2715588" lon="13.7801917"><ele>340.2</ele><time>2026-05-03T10:11:40.876Z</time></trkpt><trkpt lat="42.2714807" lon="13.7803069"><ele>340.4</ele><time>2026-05-03T10:11:41.876Z</time></trkpt><trkpt lat="42.2714035" lon="13.7804194"><ele>340.6</ele><time>2026-05-03T10:11:42.876Z</time></trkpt><trkpt lat="42.2713335" lon="13.7805272"><ele>340.8</ele><time>2026-05-03T10:11:43.877Z</time></trkpt><trkpt lat="42.2712668" lon="13.7806269"><ele>341.0</ele><time>2026-05-03T10:11:44.876Z</time></trkpt><trkpt lat="42.2712012" lon="13.7807201"><ele>341.0</ele><time>2026-05-03T10:11:45.876Z</time></trkpt><trkpt lat="42.2711481" lon="13.7808063"><ele>341.0</ele><time>2026-05-03T10:11:46.876Z</time></trkpt><trkpt lat="42.2710999" lon="13.7808829"><ele>341.0</ele><time>2026-05-03T10:11:47.877Z</time></trkpt><trkpt lat="42.2710282" lon="13.7809891"><ele>341.0</ele><time>2026-05-03T10:11:49.876Z</time></trkpt><trkpt lat="42.2709612" lon="13.7810848"><ele>341.0</ele><time>2026-05-03T10:11:59.876Z</time></trkpt><trkpt lat="42.270868" lon="13.7811958"><ele>340.1666666666667</ele><time>2026-05-03T10:12:01.876Z</time></trkpt><trkpt lat="42.2708158" lon="13.7812533"><ele>339.33333333333337</ele><time>2026-05-03T10:12:02.876Z</time></trkpt><trkpt lat="42.270755" lon="13.7813116"><ele>338.5</ele><time>2026-05-03T10:12:03.876Z</time></trkpt><trkpt lat="42.2706844" lon="13.7813638"><ele>337.6666666666667</ele><time>2026-05-03T10:12:04.877Z</time></trkpt><trkpt lat="42.2706045" lon="13.781411"><ele>336.8333333333333</ele><time>2026-05-03T10:12:05.877Z</time></trkpt><trkpt lat="42.2705267" lon="13.7814577"><ele>336.0</ele><time>2026-05-03T10:12:06.876Z</time></trkpt><trkpt lat="42.2704484" lon="13.7815063"><ele>336.0</ele><time>2026-05-03T10:12:07.876Z</time></trkpt><trkpt lat="42.2703704" lon="13.7815603"><ele>336.0</ele><time>2026-05-03T10:12:08.876Z</time></trkpt><trkpt lat="42.2702952" lon="13.7816174"><ele>336.0</ele><time>2026-05-03T10:12:09.877Z</time></trkpt><trkpt lat="42.2702245" lon="13.7816682"><ele>336.0</ele><time>2026-05-03T10:12:10.877Z</time></trkpt><trkpt lat="42.2701627" lon="13.7817187"><ele>336.0</ele><time>2026-05-03T10:12:11.876Z</time></trkpt><trkpt lat="42.2701041" lon="13.7817648"><ele>336.0</ele><time>2026-05-03T10:12:12.876Z</time></trkpt><trkpt lat="42.2700057" lon="13.7818464"><ele>335.57142857142856</ele><time>2026-05-03T10:12:14.877Z</time></trkpt><trkpt lat="42.2698978" lon="13.7819136"><ele>335.1428571428571</ele><time>2026-05-03T10:12:16.875Z</time></trkpt><trkpt lat="42.2698359" lon="13.7819378"><ele>334.7142857142857</ele><time>2026-05-03T10:12:17.876Z</time></trkpt><trkpt lat="42.2697741" lon="13.7819626"><ele>334.2857142857143</ele><time>2026-05-03T10:12:18.875Z</time></trkpt><trkpt lat="42.2697126" lon="13.781983"><ele>333.85714285714283</ele><time>2026-05-03T10:12:19.876Z</time></trkpt><trkpt lat="42.2696495" lon="13.7820036"><ele>333.42857142857144</ele><time>2026-05-03T10:12:20.875Z</time></trkpt><trkpt lat="42.269586" lon="13.7820241"><ele>333.0</ele><time>2026-05-03T10:12:21.875Z</time></trkpt><trkpt lat="42.2695231" lon="13.7820486"><ele>334.4</ele><time>2026-05-03T10:12:22.875Z</time></trkpt><trkpt lat="42.26944" lon="13.782132"><ele>335.79999999999995</ele><time>2026-05-03T10:12:24.875Z</time></trkpt><trkpt lat="42.2693905" lon="13.782257"><ele>337.2</ele><time>2026-05-03T10:12:26.876Z</time></trkpt><trkpt lat="42.2693576" lon="13.7824188"><ele>338.6</ele><time>2026-05-03T10:12:28.876Z</time></trkpt><trkpt lat="42.2693452" lon="13.7825154"><ele>340.0</ele><time>2026-05-03T10:12:29.876Z</time></trkpt><trkpt lat="42.2693339" lon="13.78262"><ele>339.8333333333333</ele><time>2026-05-03T10:12:30.876Z</time></trkpt><trkpt lat="42.2693186" lon="13.782725"><ele>339.66666666666663</ele><time>2026-05-03T10:12:31.876Z</time></trkpt><trkpt lat="42.2692997" lon="13.7828305"><ele>339.5</ele><time>2026-05-03T10:12:32.876Z</time></trkpt><trkpt lat="42.2692833" lon="13.7829371"><ele>339.3333333333333</ele><time>2026-05-03T10:12:33.876Z</time></trkpt><trkpt lat="42.2692703" lon="13.7830475"><ele>339.1666666666667</ele><time>2026-05-03T10:12:34.875Z</time></trkpt><trkpt lat="42.2692512" lon="13.783162"><ele>339.0</ele><time>2026-05-03T10:12:35.876Z</time></trkpt><trkpt lat="42.2692275" lon="13.7832625"><ele>339.0</ele><time>2026-05-03T10:12:36.875Z</time></trkpt><trkpt lat="42.2691961" lon="13.7833607"><ele>339.0</ele><time>2026-05-03T10:12:37.875Z</time></trkpt><trkpt lat="42.2691648" lon="13.7834595"><ele>339.0</ele><time>2026-05-03T10:12:38.875Z</time></trkpt><trkpt lat="42.2691305" lon="13.7835557"><ele>339.0</ele><time>2026-05-03T10:12:39.875Z</time></trkpt><trkpt lat="42.2690935" lon="13.7836527"><ele>339.0</ele><time>2026-05-03T10:12:40.876Z</time></trkpt><trkpt lat="42.2690569" lon="13.7837499"><ele>339.0</ele><time>2026-05-03T10:12:41.875Z</time></trkpt><trkpt lat="42.2690158" lon="13.7838436"><ele>339.1666666666667</ele><time>2026-05-03T10:12:42.875Z</time></trkpt><trkpt lat="42.2689738" lon="13.7839382"><ele>339.3333333333333</ele><time>2026-05-03T10:12:43.875Z</time></trkpt><trkpt lat="42.2689257" lon="13.784034"><ele>339.5</ele><time>2026-05-03T10:12:44.875Z</time></trkpt><trkpt lat="42.2688802" lon="13.7841342"><ele>339.66666666666663</ele><time>2026-05-03T10:12:45.875Z</time></trkpt><trkpt lat="42.2688283" lon="13.7842314"><ele>339.8333333333333</ele><time>2026-05-03T10:12:46.875Z</time></trkpt><trkpt lat="42.2687758" lon="13.7843258"><ele>340.0</ele><time>2026-05-03T10:12:47.876Z</time></trkpt><trkpt lat="42.2687221" lon="13.7844175"><ele>340.6</ele><time>2026-05-03T10:12:48.876Z</time></trkpt><trkpt lat="42.2686662" lon="13.7845073"><ele>341.2</ele><time>2026-05-03T10:12:49.876Z</time></trkpt><trkpt lat="42.2686076" lon="13.7845948"><ele>341.79999999999995</ele><time>2026-05-03T10:12:50.875Z</time></trkpt><trkpt lat="42.2685424" lon="13.7846806"><ele>342.4</ele><time>2026-05-03T10:12:51.876Z</time></trkpt><trkpt lat="42.2684747" lon="13.784767"><ele>343.0</ele><time>2026-05-03T10:12:52.875Z</time></trkpt><trkpt lat="42.2684047" lon="13.7848484"><ele>343.0</ele><time>2026-05-03T10:12:53.875Z</time></trkpt><trkpt lat="42.268334" lon="13.7849229"><ele>343.0</ele><time>2026-05-03T10:12:54.875Z</time></trkpt><trkpt lat="42.2682615" lon="13.7849966"><ele>343.0</ele><time>2026-05-03T10:12:55.875Z</time></trkpt><trkpt lat="42.2681876" lon="13.7850704"><ele>343.0</ele><time>2026-05-03T10:12:56.875Z</time></trkpt><trkpt lat="42.2681083" lon="13.7851435"><ele>343.0</ele><time>2026-05-03T10:12:57.875Z</time></trkpt><trkpt lat="42.2680242" lon="13.785214"><ele>343.79999999999995</ele><time>2026-05-03T10:12:58.876Z</time></trkpt><trkpt lat="42.2679433" lon="13.7852846"><ele>344.6</ele><time>2026-05-03T10:12:59.875Z</time></trkpt><trkpt lat="42.2678621" lon="13.7853483"><ele>345.4</ele><time>2026-05-03T10:13:00.875Z</time></trkpt><trkpt lat="42.2677856" lon="13.7854144"><ele>346.20000000000005</ele><time>2026-05-03T10:13:01.875Z</time></trkpt><trkpt lat="42.2677054" lon="13.7854882"><ele>347.0</ele><time>2026-05-03T10:13:02.875Z</time></trkpt><trkpt lat="42.2676203" lon="13.7855756"><ele>347.0</ele><time>2026-05-03T10:13:03.875Z</time></trkpt><trkpt lat="42.2675336" lon="13.785669"><ele>347.0</ele><time>2026-05-03T10:13:04.876Z</time></trkpt><trkpt lat="42.2674576" lon="13.7857561"><ele>347.0</ele><time>2026-05-03T10:13:05.876Z</time></trkpt><trkpt lat="42.267383" lon="13.7858383"><ele>347.0</ele><time>2026-05-03T10:13:06.875Z</time></trkpt><trkpt lat="42.2673057" lon="13.7859231"><ele>347.0</ele><time>2026-05-03T10:13:07.875Z</time></trkpt><trkpt lat="42.2672301" lon="13.7860124"><ele>347.20000000000005</ele><time>2026-05-03T10:13:08.876Z</time></trkpt><trkpt lat="42.2671538" lon="13.7861014"><ele>347.4</ele><time>2026-05-03T10:13:09.876Z</time></trkpt><trkpt lat="42.2670828" lon="13.7861855"><ele>347.6</ele><time>2026-05-03T10:13:10.876Z</time></trkpt><trkpt lat="42.2670078" lon="13.7862734"><ele>347.79999999999995</ele><time>2026-05-03T10:13:11.875Z</time></trkpt><trkpt lat="42.266932" lon="13.7863671"><ele>348.0</ele><time>2026-05-03T10:13:12.875Z</time></trkpt><trkpt lat="42.2668616" lon="13.7864643"><ele>348.0</ele><time>2026-05-03T10:13:13.876Z</time></trkpt><trkpt lat="42.2667901" lon="13.7865688"><ele>348.0</ele><time>2026-05-03T10:13:14.875Z</time></trkpt><trkpt lat="42.26672" lon="13.7866783"><ele>348.0</ele><time>2026-05-03T10:13:15.875Z</time></trkpt><trkpt lat="42.2666523" lon="13.7867892"><ele>348.0</ele><time>2026-05-03T10:13:16.875Z</time></trkpt><trkpt lat="42.2665826" lon="13.7869017"><ele>348.0</ele><time>2026-05-03T10:13:17.875Z</time></trkpt><trkpt lat="42.2665126" lon="13.7870197"><ele>348.4</ele><time>2026-05-03T10:13:18.875Z</time></trkpt><trkpt lat="42.2664439" lon="13.7871397"><ele>348.79999999999995</ele><time>2026-05-03T10:13:19.875Z</time></trkpt><trkpt lat="42.2663782" lon="13.7872612"><ele>349.2</ele><time>2026-05-03T10:13:20.875Z</time></trkpt><trkpt lat="42.2663122" lon="13.7873859"><ele>349.6</ele><time>2026-05-03T10:13:21.875Z</time></trkpt><trkpt lat="42.2662465" lon="13.7875071"><ele>350.0</ele><time>2026-05-03T10:13:22.875Z</time></trkpt><trkpt lat="42.2661832" lon="13.7876268"><ele>349.4</ele><time>2026-05-03T10:13:23.875Z</time></trkpt><trkpt lat="42.2661164" lon="13.7877477"><ele>348.8</ele><time>2026-05-03T10:13:24.875Z</time></trkpt><trkpt lat="42.2660491" lon="13.7878652"><ele>348.20000000000005</ele><time>2026-05-03T10:13:25.875Z</time></trkpt><trkpt lat="42.2659806" lon="13.7879803"><ele>347.6</ele><time>2026-05-03T10:13:26.875Z</time></trkpt><trkpt lat="42.2659114" lon="13.7880954"><ele>347.0</ele><time>2026-05-03T10:13:27.875Z</time></trkpt><trkpt lat="42.2658422" lon="13.7882087"><ele>347.0</ele><time>2026-05-03T10:13:28.875Z</time></trkpt><trkpt lat="42.2657711" lon="13.7883191"><ele>347.0</ele><time>2026-05-03T10:13:29.875Z</time></trkpt><trkpt lat="42.2657087" lon="13.7884233"><ele>347.0</ele><time>2026-05-03T10:13:30.875Z</time></trkpt><trkpt lat="42.265646" lon="13.7885315"><ele>347.0</ele><time>2026-05-03T10:13:31.875Z</time></trkpt><trkpt lat="42.2655857" lon="13.7886445"><ele>347.0</ele><time>2026-05-03T10:13:32.876Z</time></trkpt><trkpt lat="42.2655214" lon="13.788759"><ele>347.0</ele><time>2026-05-03T10:13:33.876Z</time></trkpt><trkpt lat="42.2654578" lon="13.788874"><ele>347.0</ele><time>2026-05-03T10:13:34.875Z</time></trkpt><trkpt lat="42.2653998" lon="13.7889843"><ele>347.0</ele><time>2026-05-03T10:13:35.875Z</time></trkpt><trkpt lat="42.2653477" lon="13.7890992"><ele>347.0</ele><time>2026-05-03T10:13:36.875Z</time></trkpt><trkpt lat="42.2652983" lon="13.7892228"><ele>347.0</ele><time>2026-05-03T10:13:37.875Z</time></trkpt><trkpt lat="42.2652538" lon="13.7893487"><ele>347.0</ele><time>2026-05-03T10:13:38.876Z</time></trkpt><trkpt lat="42.2652133" lon="13.7894801"><ele>347.0</ele><time>2026-05-03T10:13:39.876Z</time></trkpt><trkpt lat="42.265172" lon="13.7896083"><ele>347.0</ele><time>2026-05-03T10:13:40.875Z</time></trkpt><trkpt lat="42.2651291" lon="13.7897327"><ele>347.0</ele><time>2026-05-03T10:13:41.876Z</time></trkpt><trkpt lat="42.2650843" lon="13.7898516"><ele>347.0</ele><time>2026-05-03T10:13:42.875Z</time></trkpt><trkpt lat="42.2650377" lon="13.7899748"><ele>347.0</ele><time>2026-05-03T10:13:43.876Z</time></trkpt><trkpt lat="42.2649935" lon="13.7900986"><ele>347.0</ele><time>2026-05-03T10:13:44.875Z</time></trkpt><trkpt lat="42.2649503" lon="13.790224"><ele>347.0</ele><time>2026-05-03T10:13:45.875Z</time></trkpt><trkpt lat="42.2649068" lon="13.790351"><ele>347.0</ele><time>2026-05-03T10:13:46.875Z</time></trkpt><trkpt lat="42.2648649" lon="13.7904808"><ele>347.0</ele><time>2026-05-03T10:13:47.876Z</time></trkpt><trkpt lat="42.2648207" lon="13.7906131"><ele>347.40000000000003</ele><time>2026-05-03T10:13:48.875Z</time></trkpt><trkpt lat="42.2647759" lon="13.7907469"><ele>347.8</ele><time>2026-05-03T10:13:49.875Z</time></trkpt><trkpt lat="42.2647326" lon="13.7908868"><ele>348.2</ele><time>2026-05-03T10:13:50.874Z</time></trkpt><trkpt lat="42.264689" lon="13.7910267"><ele>348.6</ele><time>2026-05-03T10:13:51.875Z</time></trkpt><trkpt lat="42.2646469" lon="13.7911654"><ele>349.0</ele><time>2026-05-03T10:13:52.875Z</time></trkpt><trkpt lat="42.2646034" lon="13.7913013"><ele>349.0</ele><time>2026-05-03T10:13:53.876Z</time></trkpt><trkpt lat="42.2645591" lon="13.7914362"><ele>349.0</ele><time>2026-05-03T10:13:54.875Z</time></trkpt><trkpt lat="42.2645152" lon="13.7915737"><ele>349.0</ele><time>2026-05-03T10:13:55.877Z</time></trkpt><trkpt lat="42.264473" lon="13.79171"><ele>349.0</ele><time>2026-05-03T10:13:56.875Z</time></trkpt><trkpt lat="42.2644297" lon="13.791842"><ele>349.0</ele><time>2026-05-03T10:13:57.875Z</time></trkpt><trkpt lat="42.2643891" lon="13.7919781"><ele>348.4</ele><time>2026-05-03T10:13:58.875Z</time></trkpt><trkpt lat="42.2643548" lon="13.7921172"><ele>347.79999999999995</ele><time>2026-05-03T10:13:59.876Z</time></trkpt><trkpt lat="42.2643196" lon="13.7922559"><ele>347.20000000000005</ele><time>2026-05-03T10:14:00.875Z</time></trkpt><trkpt lat="42.2642872" lon="13.792395"><ele>346.6</ele><time>2026-05-03T10:14:01.876Z</time></trkpt><trkpt lat="42.2642556" lon="13.7925324"><ele>346.0</ele><time>2026-05-03T10:14:02.875Z</time></trkpt><trkpt lat="42.264223" lon="13.7926686"><ele>345.6</ele><time>2026-05-03T10:14:03.875Z</time></trkpt><trkpt lat="42.2641889" lon="13.792807"><ele>345.20000000000005</ele><time>2026-05-03T10:14:04.875Z</time></trkpt><trkpt lat="42.2641491" lon="13.7929399"><ele>344.79999999999995</ele><time>2026-05-03T10:14:05.876Z</time></trkpt><trkpt lat="42.2641074" lon="13.7930728"><ele>344.4</ele><time>2026-05-03T10:14:06.875Z</time></trkpt><trkpt lat="42.264065" lon="13.7932001"><ele>344.0</ele><time>2026-05-03T10:14:07.875Z</time></trkpt><trkpt lat="42.2640215" lon="13.7933256"><ele>344.0</ele><time>2026-05-03T10:14:08.876Z</time></trkpt><trkpt lat="42.2639795" lon="13.7934523"><ele>344.0</ele><time>2026-05-03T10:14:09.876Z</time></trkpt><trkpt lat="42.2639393" lon="13.793571"><ele>344.0</ele><time>2026-05-03T10:14:10.875Z</time></trkpt><trkpt lat="42.2639001" lon="13.7936877"><ele>344.0</ele><time>2026-05-03T10:14:11.876Z</time></trkpt><trkpt lat="42.2638601" lon="13.7938099"><ele>344.0</ele><time>2026-05-03T10:14:12.876Z</time></trkpt><trkpt lat="42.263819" lon="13.7939324"><ele>344.4</ele><time>2026-05-03T10:14:13.876Z</time></trkpt><trkpt lat="42.2637766" lon="13.7940534"><ele>344.79999999999995</ele><time>2026-05-03T10:14:14.876Z</time></trkpt><trkpt lat="42.263735" lon="13.7941733"><ele>345.20000000000005</ele><time>2026-05-03T10:14:15.876Z</time></trkpt><trkpt lat="42.2636895" lon="13.7942873"><ele>345.6</ele><time>2026-05-03T10:14:16.875Z</time></trkpt><trkpt lat="42.2636373" lon="13.7943981"><ele>346.0</ele><time>2026-05-03T10:14:17.876Z</time></trkpt><trkpt lat="42.2635783" lon="13.7945081"><ele>345.20000000000005</ele><time>2026-05-03T10:14:18.876Z</time></trkpt><trkpt lat="42.2635149" lon="13.7946151"><ele>344.40000000000003</ele><time>2026-05-03T10:14:19.875Z</time></trkpt><trkpt lat="42.2634446" lon="13.7947294"><ele>343.6</ele><time>2026-05-03T10:14:20.875Z</time></trkpt><trkpt lat="42.263373" lon="13.7948489"><ele>342.8</ele><time>2026-05-03T10:14:21.875Z</time></trkpt><trkpt lat="42.2632988" lon="13.79497"><ele>342.0</ele><time>2026-05-03T10:14:22.876Z</time></trkpt><trkpt lat="42.2632252" lon="13.795092"><ele>341.8</ele><time>2026-05-03T10:14:23.875Z</time></trkpt><trkpt lat="42.2631528" lon="13.7952149"><ele>341.6</ele><time>2026-05-03T10:14:24.875Z</time></trkpt><trkpt lat="42.2630832" lon="13.7953315"><ele>341.40000000000003</ele><time>2026-05-03T10:14:25.876Z</time></trkpt><trkpt lat="42.2630175" lon="13.7954431"><ele>341.20000000000005</ele><time>2026-05-03T10:14:26.876Z</time></trkpt><trkpt lat="42.262953" lon="13.7955539"><ele>341.0</ele><time>2026-05-03T10:14:27.876Z</time></trkpt><trkpt lat="42.2628884" lon="13.7956613"><ele>341.5</ele><time>2026-05-03T10:14:28.875Z</time></trkpt><trkpt lat="42.2628263" lon="13.7957613"><ele>342.0</ele><time>2026-05-03T10:14:29.875Z</time></trkpt><trkpt lat="42.2627705" lon="13.7958536"><ele>342.5</ele><time>2026-05-03T10:14:30.876Z</time></trkpt><trkpt lat="42.2627169" lon="13.7959447"><ele>343.0</ele><time>2026-05-03T10:14:31.876Z</time></trkpt><trkpt lat="42.2626696" lon="13.7960283"><ele>343.5</ele><time>2026-05-03T10:14:32.875Z</time></trkpt><trkpt lat="42.2626309" lon="13.7960966"><ele>344.0</ele><time>2026-05-03T10:14:33.875Z</time></trkpt><trkpt lat="42.2625911" lon="13.7961864"><ele>344.0</ele><time>2026-05-03T10:14:35.876Z</time></trkpt><trkpt lat="42.2626068" lon="13.7962704"><ele>344.0</ele><time>2026-05-03T10:14:38.875Z</time></trkpt><trkpt lat="42.2627134" lon="13.7963299"><ele>344.0</ele><time>2026-05-03T10:14:40.875Z</time></trkpt><trkpt lat="42.2627952" lon="13.7963392"><ele>344.0</ele><time>2026-05-03T10:14:41.876Z</time></trkpt><trkpt lat="42.262889" lon="13.7963452"><ele>344.0</ele><time>2026-05-03T10:14:42.875Z</time></trkpt><trkpt lat="42.2629921" lon="13.7963582"><ele>344.0</ele><time>2026-05-03T10:14:43.875Z</time></trkpt><trkpt lat="42.2630986" lon="13.7963747"><ele>344.0</ele><time>2026-05-03T10:14:44.875Z</time></trkpt><trkpt lat="42.2632086" lon="13.7963938"><ele>344.0</ele><time>2026-05-03T10:14:45.875Z</time></trkpt><trkpt lat="42.263324" lon="13.7964201"><ele>344.0</ele><time>2026-05-03T10:14:46.875Z</time></trkpt><trkpt lat="42.2634378" lon="13.7964495"><ele>343.0</ele><time>2026-05-03T10:14:47.876Z</time></trkpt><trkpt lat="42.2635531" lon="13.7964735"><ele>342.0</ele><time>2026-05-03T10:14:48.875Z</time></trkpt><trkpt lat="42.2636624" lon="13.7964952"><ele>341.0</ele><time>2026-05-03T10:14:49.875Z</time></trkpt><trkpt lat="42.2637672" lon="13.7965172"><ele>340.0</ele><time>2026-05-03T10:14:50.875Z</time></trkpt><trkpt lat="42.2638684" lon="13.7965396"><ele>339.0</ele><time>2026-05-03T10:14:51.876Z</time></trkpt><trkpt lat="42.2639712" lon="13.7965647"><ele>338.2</ele><time>2026-05-03T10:14:52.876Z</time></trkpt><trkpt lat="42.2640805" lon="13.7965908"><ele>337.4</ele><time>2026-05-03T10:14:53.875Z</time></trkpt><trkpt lat="42.264189" lon="13.7966171"><ele>336.6</ele><time>2026-05-03T10:14:54.876Z</time></trkpt><trkpt lat="42.2642894" lon="13.7966528"><ele>335.8</ele><time>2026-05-03T10:14:55.876Z</time></trkpt><trkpt lat="42.264376" lon="13.7967026"><ele>335.0</ele><time>2026-05-03T10:14:56.876Z</time></trkpt><trkpt lat="42.2644537" lon="13.79677"><ele>333.6</ele><time>2026-05-03T10:14:57.876Z</time></trkpt><trkpt lat="42.2645235" lon="13.7968465"><ele>332.2</ele><time>2026-05-03T10:14:58.875Z</time></trkpt><trkpt lat="42.2645871" lon="13.7969278"><ele>330.79999999999995</ele><time>2026-05-03T10:14:59.875Z</time></trkpt><trkpt lat="42.2646487" lon="13.7970156"><ele>329.4</ele><time>2026-05-03T10:15:00.875Z</time></trkpt><trkpt lat="42.2647067" lon="13.7971149"><ele>328.0</ele><time>2026-05-03T10:15:01.875Z</time></trkpt><trkpt lat="42.264762" lon="13.7972268"><ele>328.0</ele><time>2026-05-03T10:15:02.876Z</time></trkpt><trkpt lat="42.2648016" lon="13.7973571"><ele>328.0</ele><time>2026-05-03T10:15:03.876Z</time></trkpt><trkpt lat="42.2648247" lon="13.7974992"><ele>328.0</ele><time>2026-05-03T10:15:04.875Z</time></trkpt><trkpt lat="42.2648412" lon="13.7976429"><ele>328.0</ele><time>2026-05-03T10:15:05.875Z</time></trkpt><trkpt lat="42.2648559" lon="13.797783"><ele>328.0</ele><time>2026-05-03T10:15:06.876Z</time></trkpt><trkpt lat="42.2648686" lon="13.7979119"><ele>328.16666666666663</ele><time>2026-05-03T10:15:07.875Z</time></trkpt><trkpt lat="42.2648822" lon="13.7980332"><ele>328.3333333333333</ele><time>2026-05-03T10:15:08.876Z</time></trkpt><trkpt lat="42.2648938" lon="13.7981491"><ele>328.5</ele><time>2026-05-03T10:15:09.875Z</time></trkpt><trkpt lat="42.2649056" lon="13.7982592"><ele>328.6666666666667</ele><time>2026-05-03T10:15:10.876Z</time></trkpt><trkpt lat="42.2649252" lon="13.7983616"><ele>328.83333333333337</ele><time>2026-05-03T10:15:11.876Z</time></trkpt><trkpt lat="42.2649535" lon="13.7984586"><ele>329.0</ele><time>2026-05-03T10:15:12.875Z</time></trkpt><trkpt lat="42.2649853" lon="13.79855"><ele>329.0</ele><time>2026-05-03T10:15:13.876Z</time></trkpt><trkpt lat="42.2650166" lon="13.7986381"><ele>329.0</ele><time>2026-05-03T10:15:14.875Z</time></trkpt><trkpt lat="42.265047" lon="13.7987222"><ele>329.0</ele><time>2026-05-03T10:15:15.875Z</time></trkpt><trkpt lat="42.2650755" lon="13.7988009"><ele>329.0</ele><time>2026-05-03T10:15:16.876Z</time></trkpt><trkpt lat="42.265128" lon="13.7989457"><ele>329.0</ele><time>2026-05-03T10:15:18.875Z</time></trkpt><trkpt lat="42.2651551" lon="13.7990605"><ele>329.0</ele><time>2026-05-03T10:15:20.875Z</time></trkpt><trkpt lat="42.2651423" lon="13.7991613"><ele>329.0</ele><time>2026-05-03T10:15:22.875Z</time></trkpt><trkpt lat="42.2650546" lon="13.7992559"><ele>329.0</ele><time>2026-05-03T10:15:24.875Z</time></trkpt><trkpt lat="42.2649831" lon="13.7992974"><ele>329.0</ele><time>2026-05-03T10:15:25.875Z</time></trkpt><trkpt lat="42.2649087" lon="13.7993203"><ele>329.0</ele><time>2026-05-03T10:15:26.875Z</time></trkpt><trkpt lat="42.2648334" lon="13.7993228"><ele>329.0</ele><time>2026-05-03T10:15:27.875Z</time></trkpt><trkpt lat="42.2647565" lon="13.7993089"><ele>329.0</ele><time>2026-05-03T10:15:28.874Z</time></trkpt><trkpt lat="42.2646795" lon="13.7992999"><ele>329.33333333333337</ele><time>2026-05-03T10:15:29.875Z</time></trkpt><trkpt lat="42.2646002" lon="13.7993134"><ele>329.6666666666667</ele><time>2026-05-03T10:15:30.875Z</time></trkpt><trkpt lat="42.2645215" lon="13.7993425"><ele>330.0</ele><time>2026-05-03T10:15:31.875Z</time></trkpt><trkpt lat="42.2644442" lon="13.7993894"><ele>330.3333333333333</ele><time>2026-05-03T10:15:32.876Z</time></trkpt><trkpt lat="42.2643721" lon="13.7994561"><ele>330.66666666666663</ele><time>2026-05-03T10:15:33.876Z</time></trkpt><trkpt lat="42.2643062" lon="13.7995324"><ele>331.0</ele><time>2026-05-03T10:15:34.875Z</time></trkpt><trkpt lat="42.2642439" lon="13.7996128"><ele>331.6</ele><time>2026-05-03T10:15:35.876Z</time></trkpt><trkpt lat="42.2641761" lon="13.7996858"><ele>332.20000000000005</ele><time>2026-05-03T10:15:36.876Z</time></trkpt><trkpt lat="42.2640955" lon="13.7997376"><ele>332.79999999999995</ele><time>2026-05-03T10:15:37.875Z</time></trkpt><trkpt lat="42.2640089" lon="13.7997893"><ele>333.4</ele><time>2026-05-03T10:15:38.875Z</time></trkpt><trkpt lat="42.263919" lon="13.7998418"><ele>334.0</ele><time>2026-05-03T10:15:39.876Z</time></trkpt><trkpt lat="42.263832" lon="13.7998891"><ele>334.0</ele><time>2026-05-03T10:15:40.875Z</time></trkpt><trkpt lat="42.2637414" lon="13.7999403"><ele>334.0</ele><time>2026-05-03T10:15:41.875Z</time></trkpt><trkpt lat="42.2636471" lon="13.7999921"><ele>334.0</ele><time>2026-05-03T10:15:42.875Z</time></trkpt><trkpt lat="42.2635464" lon="13.8000358"><ele>334.0</ele><time>2026-05-03T10:15:43.875Z</time></trkpt><trkpt lat="42.2634389" lon="13.8000632"><ele>334.0</ele><time>2026-05-03T10:15:44.875Z</time></trkpt><trkpt lat="42.2633324" lon="13.800076"><ele>334.0</ele><time>2026-05-03T10:15:45.876Z</time></trkpt><trkpt lat="42.2632422" lon="13.8000813"><ele>334.0</ele><time>2026-05-03T10:15:46.875Z</time></trkpt><trkpt lat="42.2631621" lon="13.8000768"><ele>334.0</ele><time>2026-05-03T10:15:47.875Z</time></trkpt><trkpt lat="42.2630859" lon="13.8000661"><ele>334.0</ele><time>2026-05-03T10:15:48.876Z</time></trkpt><trkpt lat="42.2630058" lon="13.8000428"><ele>334.0</ele><time>2026-05-03T10:15:49.876Z</time></trkpt><trkpt lat="42.2629215" lon="13.8000027"><ele>334.0</ele><time>2026-05-03T10:15:50.876Z</time></trkpt><trkpt lat="42.2628376" lon="13.7999553"><ele>333.79999999999995</ele><time>2026-05-03T10:15:51.875Z</time></trkpt><trkpt lat="42.2627511" lon="13.7999113"><ele>333.59999999999997</ele><time>2026-05-03T10:15:52.875Z</time></trkpt><trkpt lat="42.2626591" lon="13.7998866"><ele>333.4</ele><time>2026-05-03T10:15:53.875Z</time></trkpt><trkpt lat="42.2625652" lon="13.7998721"><ele>333.2</ele><time>2026-05-03T10:15:54.875Z</time></trkpt><trkpt lat="42.2624636" lon="13.7998596"><ele>333.0</ele><time>2026-05-03T10:15:55.876Z</time></trkpt><trkpt lat="42.2623616" lon="13.799845"><ele>332.79999999999995</ele><time>2026-05-03T10:15:56.875Z</time></trkpt><trkpt lat="42.2622589" lon="13.7998293"><ele>332.6</ele><time>2026-05-03T10:15:57.876Z</time></trkpt><trkpt lat="42.2621582" lon="13.799817"><ele>332.4</ele><time>2026-05-03T10:15:58.875Z</time></trkpt><trkpt lat="42.2620683" lon="13.7998092"><ele>332.20000000000005</ele><time>2026-05-03T10:15:59.875Z</time></trkpt><trkpt lat="42.261979" lon="13.7998059"><ele>332.0</ele><time>2026-05-03T10:16:00.876Z</time></trkpt><trkpt lat="42.2618936" lon="13.79981"><ele>332.0</ele><time>2026-05-03T10:16:01.876Z</time></trkpt><trkpt lat="42.2618065" lon="13.7998346"><ele>332.0</ele><time>2026-05-03T10:16:02.875Z</time></trkpt><trkpt lat="42.2617167" lon="13.7998854"><ele>332.0</ele><time>2026-05-03T10:16:03.876Z</time></trkpt><trkpt lat="42.2616251" lon="13.7999495"><ele>332.0</ele><time>2026-05-03T10:16:04.875Z</time></trkpt><trkpt lat="42.2615304" lon="13.8000265"><ele>332.0</ele><time>2026-05-03T10:16:05.875Z</time></trkpt><trkpt lat="42.2614408" lon="13.8000958"><ele>332.0</ele><time>2026-05-03T10:16:06.875Z</time></trkpt><trkpt lat="42.2613557" lon="13.8001651"><ele>332.0</ele><time>2026-05-03T10:16:07.875Z</time></trkpt><trkpt lat="42.2612756" lon="13.8002376"><ele>332.0</ele><time>2026-05-03T10:16:08.876Z</time></trkpt><trkpt lat="42.2611998" lon="13.8003208"><ele>332.0</ele><time>2026-05-03T10:16:09.876Z</time></trkpt><trkpt lat="42.2611263" lon="13.8004138"><ele>332.0</ele><time>2026-05-03T10:16:10.875Z</time></trkpt><trkpt lat="42.2610607" lon="13.8005059"><ele>332.0</ele><time>2026-05-03T10:16:11.876Z</time></trkpt><trkpt lat="42.2609907" lon="13.8005939"><ele>332.0</ele><time>2026-05-03T10:16:12.875Z</time></trkpt><trkpt lat="42.2609212" lon="13.8006913"><ele>332.0</ele><time>2026-05-03T10:16:13.876Z</time></trkpt><trkpt lat="42.2608464" lon="13.8007794"><ele>332.0</ele><time>2026-05-03T10:16:14.875Z</time></trkpt><trkpt lat="42.2607736" lon="13.800854"><ele>332.0</ele><time>2026-05-03T10:16:15.876Z</time></trkpt><trkpt lat="42.2607039" lon="13.8009204"><ele>332.0</ele><time>2026-05-03T10:16:16.876Z</time></trkpt><trkpt lat="42.2606367" lon="13.800974"><ele>332.0</ele><time>2026-05-03T10:16:17.876Z</time></trkpt><trkpt lat="42.2605795" lon="13.8010262"><ele>332.0</ele><time>2026-05-03T10:16:18.875Z</time></trkpt><trkpt lat="42.2604796" lon="13.8011147"><ele>332.0</ele><time>2026-05-03T10:16:20.874Z</time></trkpt><trkpt lat="42.2603921" lon="13.8011986"><ele>332.0</ele><time>2026-05-03T10:16:22.875Z</time></trkpt><trkpt lat="42.2603386" lon="13.8012465"><ele>332.0</ele><time>2026-05-03T10:16:23.875Z</time></trkpt><trkpt lat="42.2602822" lon="13.8013025"><ele>331.83333333333337</ele><time>2026-05-03T10:16:24.875Z</time></trkpt><trkpt lat="42.2602242" lon="13.8013659"><ele>331.6666666666667</ele><time>2026-05-03T10:16:25.876Z</time></trkpt><trkpt lat="42.2601642" lon="13.8014322"><ele>331.5</ele><time>2026-05-03T10:16:26.876Z</time></trkpt><trkpt lat="42.2601044" lon="13.8015058"><ele>331.3333333333333</ele><time>2026-05-03T10:16:27.875Z</time></trkpt><trkpt lat="42.2600424" lon="13.8015839"><ele>331.16666666666663</ele><time>2026-05-03T10:16:28.875Z</time></trkpt><trkpt lat="42.2599789" lon="13.8016641"><ele>331.0</ele><time>2026-05-03T10:16:29.876Z</time></trkpt><trkpt lat="42.2599164" lon="13.801752"><ele>331.8</ele><time>2026-05-03T10:16:30.875Z</time></trkpt><trkpt lat="42.2598612" lon="13.8018493"><ele>332.6</ele><time>2026-05-03T10:16:31.876Z</time></trkpt><trkpt lat="42.2598016" lon="13.8019418"><ele>333.4</ele><time>2026-05-03T10:16:32.875Z</time></trkpt><trkpt lat="42.2597344" lon="13.8020338"><ele>334.2</ele><time>2026-05-03T10:16:33.875Z</time></trkpt><trkpt lat="42.2596551" lon="13.8021116"><ele>335.0</ele><time>2026-05-03T10:16:34.875Z</time></trkpt><trkpt lat="42.2595723" lon="13.8021823"><ele>335.0</ele><time>2026-05-03T10:16:35.876Z</time></trkpt><trkpt lat="42.2594834" lon="13.802251"><ele>335.0</ele><time>2026-05-03T10:16:36.875Z</time></trkpt><trkpt lat="42.2593947" lon="13.8023096"><ele>335.0</ele><time>2026-05-03T10:16:37.875Z</time></trkpt><trkpt lat="42.2593003" lon="13.8023513"><ele>335.0</ele><time>2026-05-03T10:16:38.875Z</time></trkpt><trkpt lat="42.2592058" lon="13.8023821"><ele>335.0</ele><time>2026-05-03T10:16:39.876Z</time></trkpt><trkpt lat="42.2591129" lon="13.8023923"><ele>335.0</ele><time>2026-05-03T10:16:40.876Z</time></trkpt><trkpt lat="42.2590162" lon="13.8023794"><ele>335.0</ele><time>2026-05-03T10:16:41.875Z</time></trkpt><trkpt lat="42.2589166" lon="13.8023579"><ele>335.0</ele><time>2026-05-03T10:16:42.875Z</time></trkpt><trkpt lat="42.258817" lon="13.8023207"><ele>335.0</ele><time>2026-05-03T10:16:43.875Z</time></trkpt><trkpt lat="42.2587082" lon="13.8022765"><ele>335.0</ele><time>2026-05-03T10:16:44.875Z</time></trkpt><trkpt lat="42.2586043" lon="13.8022344"><ele>335.6</ele><time>2026-05-03T10:16:45.875Z</time></trkpt><trkpt lat="42.2585025" lon="13.8021898"><ele>336.2</ele><time>2026-05-03T10:16:46.875Z</time></trkpt><trkpt lat="42.2584046" lon="13.802147"><ele>336.79999999999995</ele><time>2026-05-03T10:16:47.875Z</time></trkpt><trkpt lat="42.2583042" lon="13.802094"><ele>337.4</ele><time>2026-05-03T10:16:48.875Z</time></trkpt><trkpt lat="42.258216" lon="13.8020278"><ele>338.0</ele><time>2026-05-03T10:16:49.875Z</time></trkpt><trkpt lat="42.2581391" lon="13.8019478"><ele>338.79999999999995</ele><time>2026-05-03T10:16:50.876Z</time></trkpt><trkpt lat="42.2580767" lon="13.8018509"><ele>339.6</ele><time>2026-05-03T10:16:51.875Z</time></trkpt><trkpt lat="42.2580214" lon="13.8017404"><ele>340.4</ele><time>2026-05-03T10:16:52.876Z</time></trkpt><trkpt lat="42.2579679" lon="13.8016317"><ele>341.20000000000005</ele><time>2026-05-03T10:16:53.875Z</time></trkpt><trkpt lat="42.2579097" lon="13.8015263"><ele>342.0</ele><time>2026-05-03T10:16:54.875Z</time></trkpt><trkpt lat="42.2578529" lon="13.8014228"><ele>340.6666666666667</ele><time>2026-05-03T10:16:55.875Z</time></trkpt><trkpt lat="42.2577895" lon="13.8013297"><ele>339.3333333333333</ele><time>2026-05-03T10:16:56.875Z</time></trkpt><trkpt lat="42.2577183" lon="13.8012532"><ele>338.0</ele><time>2026-05-03T10:16:57.876Z</time></trkpt><trkpt lat="42.2576382" lon="13.8012024"><ele>336.66666666666663</ele><time>2026-05-03T10:16:58.876Z</time></trkpt><trkpt lat="42.2575547" lon="13.8011786"><ele>335.3333333333333</ele><time>2026-05-03T10:16:59.876Z</time></trkpt><trkpt lat="42.2574687" lon="13.8011914"><ele>334.0</ele><time>2026-05-03T10:17:00.875Z</time></trkpt><trkpt lat="42.2573777" lon="13.8012383"><ele>332.6</ele><time>2026-05-03T10:17:01.875Z</time></trkpt><trkpt lat="42.2572853" lon="13.8013124"><ele>331.2</ele><time>2026-05-03T10:17:02.876Z</time></trkpt><trkpt lat="42.257194" lon="13.8013868"><ele>329.8</ele><time>2026-05-03T10:17:03.875Z</time></trkpt><trkpt lat="42.2571039" lon="13.8014651"><ele>328.40000000000003</ele><time>2026-05-03T10:17:04.875Z</time></trkpt><trkpt lat="42.257018" lon="13.8015523"><ele>327.0</ele><time>2026-05-03T10:17:05.876Z</time></trkpt><trkpt lat="42.2569327" lon="13.8016557"><ele>327.0</ele><time>2026-05-03T10:17:06.875Z</time></trkpt><trkpt lat="42.2568514" lon="13.8017746"><ele>327.0</ele><time>2026-05-03T10:17:07.875Z</time></trkpt><trkpt lat="42.2567711" lon="13.8018972"><ele>327.0</ele><time>2026-05-03T10:17:08.876Z</time></trkpt><trkpt lat="42.2566851" lon="13.8020252"><ele>327.0</ele><time>2026-05-03T10:17:09.876Z</time></trkpt><trkpt lat="42.2565967" lon="13.8021376"><ele>327.75</ele><time>2026-05-03T10:17:10.876Z</time></trkpt><trkpt lat="42.2565064" lon="13.8022331"><ele>328.5</ele><time>2026-05-03T10:17:11.876Z</time></trkpt><trkpt lat="42.2564125" lon="13.8023078"><ele>329.25</ele><time>2026-05-03T10:17:12.875Z</time></trkpt><trkpt lat="42.2563084" lon="13.8023692"><ele>330.0</ele><time>2026-05-03T10:17:13.876Z</time></trkpt><trkpt lat="42.2561905" lon="13.8024121"><ele>330.0</ele><time>2026-05-03T10:17:14.875Z</time></trkpt><trkpt lat="42.2560632" lon="13.8024469"><ele>330.0</ele><time>2026-05-03T10:17:15.875Z</time></trkpt><trkpt lat="42.2559303" lon="13.8024847"><ele>330.0</ele><time>2026-05-03T10:17:16.874Z</time></trkpt><trkpt lat="42.2557994" lon="13.8025291"><ele>330.0</ele><time>2026-05-03T10:17:17.877Z</time></trkpt><trkpt lat="42.2556724" lon="13.8025754"><ele>329.0</ele><time>2026-05-03T10:17:18.876Z</time></trkpt><trkpt lat="42.255561" lon="13.8026335"><ele>328.0</ele><time>2026-05-03T10:17:19.875Z</time></trkpt><trkpt lat="42.2554453" lon="13.8027069"><ele>327.0</ele><time>2026-05-03T10:17:20.875Z</time></trkpt><trkpt lat="42.2553281" lon="13.8027855"><ele>326.0</ele><time>2026-05-03T10:17:21.876Z</time></trkpt><trkpt lat="42.2552077" lon="13.8028622"><ele>327.0</ele><time>2026-05-03T10:17:22.875Z</time></trkpt><trkpt lat="42.2550817" lon="13.8029246"><ele>328.0</ele><time>2026-05-03T10:17:23.875Z</time></trkpt><trkpt lat="42.2549671" lon="13.802966"><ele>329.0</ele><time>2026-05-03T10:17:24.875Z</time></trkpt><trkpt lat="42.2548536" lon="13.8029974"><ele>330.0</ele><time>2026-05-03T10:17:25.875Z</time></trkpt><trkpt lat="42.2547489" lon="13.8030136"><ele>330.0</ele><time>2026-05-03T10:17:26.875Z</time></trkpt><trkpt lat="42.2546362" lon="13.803013"><ele>330.0</ele><time>2026-05-03T10:17:27.875Z</time></trkpt><trkpt lat="42.2545243" lon="13.8030121"><ele>330.0</ele><time>2026-05-03T10:17:28.876Z</time></trkpt><trkpt lat="42.2544104" lon="13.8030387"><ele>330.0</ele><time>2026-05-03T10:17:29.876Z</time></trkpt><trkpt lat="42.2542924" lon="13.8030782"><ele>330.0</ele><time>2026-05-03T10:17:30.876Z</time></trkpt><trkpt lat="42.2541667" lon="13.8031304"><ele>330.0</ele><time>2026-05-03T10:17:31.876Z</time></trkpt><trkpt lat="42.2540424" lon="13.8031909"><ele>330.0</ele><time>2026-05-03T10:17:32.875Z</time></trkpt><trkpt lat="42.2539197" lon="13.8032534"><ele>330.0</ele><time>2026-05-03T10:17:33.876Z</time></trkpt><trkpt lat="42.2537969" lon="13.803298"><ele>330.5</ele><time>2026-05-03T10:17:34.875Z</time></trkpt><trkpt lat="42.2536792" lon="13.8033468"><ele>331.0</ele><time>2026-05-03T10:17:35.875Z</time></trkpt><trkpt lat="42.2535728" lon="13.8034049"><ele>331.5</ele><time>2026-05-03T10:17:36.875Z</time></trkpt><trkpt lat="42.2534663" lon="13.8034895"><ele>332.0</ele><time>2026-05-03T10:17:37.875Z</time></trkpt><trkpt lat="42.2533579" lon="13.8035813"><ele>332.0</ele><time>2026-05-03T10:17:38.876Z</time></trkpt><trkpt lat="42.2532502" lon="13.8036823"><ele>332.0</ele><time>2026-05-03T10:17:39.875Z</time></trkpt><trkpt lat="42.2531406" lon="13.8037853"><ele>332.0</ele><time>2026-05-03T10:17:40.875Z</time></trkpt><trkpt lat="42.2530306" lon="13.8038751"><ele>332.0</ele><time>2026-05-03T10:17:41.876Z</time></trkpt><trkpt lat="42.2529119" lon="13.8039455"><ele>330.75</ele><time>2026-05-03T10:17:42.876Z</time></trkpt><trkpt lat="42.2527841" lon="13.8039967"><ele>329.5</ele><time>2026-05-03T10:17:43.876Z</time></trkpt><trkpt lat="42.2526574" lon="13.8040359"><ele>328.25</ele><time>2026-05-03T10:17:44.875Z</time></trkpt><trkpt lat="42.2525456" lon="13.8040598"><ele>327.0</ele><time>2026-05-03T10:17:45.875Z</time></trkpt><trkpt lat="42.2524426" lon="13.8040833"><ele>327.0</ele><time>2026-05-03T10:17:46.875Z</time></trkpt><trkpt lat="42.2523342" lon="13.8040899"><ele>327.0</ele><time>2026-05-03T10:17:47.877Z</time></trkpt><trkpt lat="42.2522158" lon="13.8040786"><ele>327.0</ele><time>2026-05-03T10:17:48.875Z</time></trkpt><trkpt lat="42.252106" lon="13.8040494"><ele>327.0</ele><time>2026-05-03T10:17:49.876Z</time></trkpt><trkpt lat="42.2520057" lon="13.8040014"><ele>327.0</ele><time>2026-05-03T10:17:50.876Z</time></trkpt><trkpt lat="42.251912" lon="13.8039274"><ele>329.0</ele><time>2026-05-03T10:17:51.876Z</time></trkpt><trkpt lat="42.2518266" lon="13.8038439"><ele>331.0</ele><time>2026-05-03T10:17:52.876Z</time></trkpt><trkpt lat="42.2517605" lon="13.803768"><ele>333.0</ele><time>2026-05-03T10:17:53.875Z</time></trkpt><trkpt lat="42.2517115" lon="13.8037106"><ele>335.0</ele><time>2026-05-03T10:17:54.876Z</time></trkpt><trkpt lat="42.2516019" lon="13.8036041"><ele>337.0</ele><time>2026-05-03T10:17:56.875Z</time></trkpt><trkpt lat="42.2515388" lon="13.8035484"><ele>337.0</ele><time>2026-05-03T10:17:57.876Z</time></trkpt><trkpt lat="42.2514615" lon="13.8034998"><ele>337.0</ele><time>2026-05-03T10:17:58.875Z</time></trkpt><trkpt lat="42.2513781" lon="13.8034643"><ele>337.0</ele><time>2026-05-03T10:17:59.876Z</time></trkpt><trkpt lat="42.2512917" lon="13.8034372"><ele>337.0</ele><time>2026-05-03T10:18:00.875Z</time></trkpt><trkpt lat="42.251204" lon="13.8034033"><ele>337.0</ele><time>2026-05-03T10:18:01.875Z</time></trkpt><trkpt lat="42.2511198" lon="13.8033645"><ele>337.0</ele><time>2026-05-03T10:18:02.876Z</time></trkpt><trkpt lat="42.251033" lon="13.803331"><ele>335.6</ele><time>2026-05-03T10:18:03.876Z</time></trkpt><trkpt lat="42.2509423" lon="13.8033135"><ele>334.20000000000005</ele><time>2026-05-03T10:18:04.875Z</time></trkpt><trkpt lat="42.2508542" lon="13.8033147"><ele>332.8</ele><time>2026-05-03T10:18:05.875Z</time></trkpt><trkpt lat="42.2507537" lon="13.803327"><ele>331.4</ele><time>2026-05-03T10:18:06.875Z</time></trkpt><trkpt lat="42.2506564" lon="13.8033521"><ele>330.0</ele><time>2026-05-03T10:18:07.875Z</time></trkpt><trkpt lat="42.2505603" lon="13.8033918"><ele>330.0</ele><time>2026-05-03T10:18:08.875Z</time></trkpt><trkpt lat="42.2504644" lon="13.8034416"><ele>330.0</ele><time>2026-05-03T10:18:09.876Z</time></trkpt><trkpt lat="42.2503698" lon="13.8035034"><ele>330.0</ele><time>2026-05-03T10:18:10.876Z</time></trkpt><trkpt lat="42.2502789" lon="13.803577"><ele>330.0</ele><time>2026-05-03T10:18:11.875Z</time></trkpt><trkpt lat="42.2501885" lon="13.803654"><ele>330.0</ele><time>2026-05-03T10:18:12.875Z</time></trkpt><trkpt lat="42.250099" lon="13.8037331"><ele>330.8</ele><time>2026-05-03T10:18:13.876Z</time></trkpt><trkpt lat="42.2500119" lon="13.8038087"><ele>331.6</ele><time>2026-05-03T10:18:14.876Z</time></trkpt><trkpt lat="42.2499295" lon="13.8038863"><ele>332.4</ele><time>2026-05-03T10:18:15.876Z</time></trkpt><trkpt lat="42.249856" lon="13.8039861"><ele>333.2</ele><time>2026-05-03T10:18:16.875Z</time></trkpt><trkpt lat="42.2497935" lon="13.8041004"><ele>334.0</ele><time>2026-05-03T10:18:17.875Z</time></trkpt><trkpt lat="42.2497284" lon="13.80422"><ele>334.5</ele><time>2026-05-03T10:18:18.876Z</time></trkpt><trkpt lat="42.2496642" lon="13.8043381"><ele>335.0</ele><time>2026-05-03T10:18:19.875Z</time></trkpt><trkpt lat="42.2495966" lon="13.804434"><ele>335.5</ele><time>2026-05-03T10:18:20.875Z</time></trkpt><trkpt lat="42.2495357" lon="13.8045155"><ele>336.0</ele><time>2026-05-03T10:18:21.875Z</time></trkpt><trkpt lat="42.249492" lon="13.8045908"><ele>336.5</ele><time>2026-05-03T10:18:22.876Z</time></trkpt><trkpt lat="42.2494526" lon="13.8046584"><ele>337.0</ele><time>2026-05-03T10:18:23.875Z</time></trkpt><trkpt lat="42.2493669" lon="13.8047879"><ele>337.0</ele><time>2026-05-03T10:18:25.876Z</time></trkpt><trkpt lat="42.2493125" lon="13.8048587"><ele>337.0</ele><time>2026-05-03T10:18:26.875Z</time></trkpt><trkpt lat="42.2492523" lon="13.8049313"><ele>337.0</ele><time>2026-05-03T10:18:27.876Z</time></trkpt><trkpt lat="42.2491944" lon="13.8050052"><ele>337.0</ele><time>2026-05-03T10:18:28.875Z</time></trkpt><trkpt lat="42.249125" lon="13.8050755"><ele>337.0</ele><time>2026-05-03T10:18:29.875Z</time></trkpt><trkpt lat="42.249052" lon="13.8051311"><ele>337.0</ele><time>2026-05-03T10:18:30.875Z</time></trkpt><trkpt lat="42.2489734" lon="13.8051527"><ele>336.66666666666663</ele><time>2026-05-03T10:18:31.875Z</time></trkpt><trkpt lat="42.2488894" lon="13.8051762"><ele>336.3333333333333</ele><time>2026-05-03T10:18:32.876Z</time></trkpt><trkpt lat="42.2488039" lon="13.8051996"><ele>336.0</ele><time>2026-05-03T10:18:33.875Z</time></trkpt><trkpt lat="42.2487152" lon="13.8052222"><ele>335.6666666666667</ele><time>2026-05-03T10:18:34.876Z</time></trkpt><trkpt lat="42.2486325" lon="13.805258"><ele>335.33333333333337</ele><time>2026-05-03T10:18:35.875Z</time></trkpt><trkpt lat="42.2485633" lon="13.8053047"><ele>335.0</ele><time>2026-05-03T10:18:36.875Z</time></trkpt><trkpt lat="42.2485015" lon="13.8053512"><ele>335.0</ele><time>2026-05-03T10:18:37.875Z</time></trkpt><trkpt lat="42.2484424" lon="13.8053971"><ele>335.0</ele><time>2026-05-03T10:18:38.875Z</time></trkpt><trkpt lat="42.248389" lon="13.8054451"><ele>335.0</ele><time>2026-05-03T10:18:39.875Z</time></trkpt><trkpt lat="42.2483078" lon="13.8055405"><ele>335.0</ele><time>2026-05-03T10:18:41.875Z</time></trkpt><trkpt lat="42.2482638" lon="13.8056335"><ele>335.0</ele><time>2026-05-03T10:18:43.876Z</time></trkpt><trkpt lat="42.2482217" lon="13.8057434"><ele>335.0</ele><time>2026-05-03T10:18:45.875Z</time></trkpt><trkpt lat="42.2481552" lon="13.8058478"><ele>333.6</ele><time>2026-05-03T10:18:47.875Z</time></trkpt><trkpt lat="42.2480983" lon="13.8059521"><ele>332.2</ele><time>2026-05-03T10:18:49.875Z</time></trkpt><trkpt lat="42.24805" lon="13.8060506"><ele>330.79999999999995</ele><time>2026-05-03T10:18:51.875Z</time></trkpt><trkpt lat="42.2480116" lon="13.8061322"><ele>329.4</ele><time>2026-05-03T10:18:53.877Z</time></trkpt><trkpt lat="42.2479626" lon="13.8062319"><ele>328.0</ele><time>2026-05-03T10:18:55.875Z</time></trkpt><trkpt lat="42.2478902" lon="13.8063559"><ele>328.0</ele><time>2026-05-03T10:18:57.875Z</time></trkpt><trkpt lat="42.2478554" lon="13.8064303"><ele>328.0</ele><time>2026-05-03T10:18:58.876Z</time></trkpt><trkpt lat="42.2478015" lon="13.8065926"><ele>328.0</ele><time>2026-05-03T10:19:00.875Z</time></trkpt><trkpt lat="42.2477822" lon="13.8066827"><ele>328.0</ele><time>2026-05-03T10:19:01.876Z</time></trkpt><trkpt lat="42.2477695" lon="13.8067809"><ele>328.0</ele><time>2026-05-03T10:19:02.876Z</time></trkpt><trkpt lat="42.2477625" lon="13.8068853"><ele>328.0</ele><time>2026-05-03T10:19:03.876Z</time></trkpt><trkpt lat="42.2477479" lon="13.8069916"><ele>327.99999999999994</ele><time>2026-05-03T10:19:04.876Z</time></trkpt><trkpt lat="42.2477266" lon="13.8070884"><ele>328.0</ele><time>2026-05-03T10:19:05.876Z</time></trkpt><trkpt lat="42.2476944" lon="13.8071706"><ele>328.0</ele><time>2026-05-03T10:19:06.875Z</time></trkpt><trkpt lat="42.247664" lon="13.807251"><ele>328.0</ele><time>2026-05-03T10:19:07.875Z</time></trkpt><trkpt lat="42.2476219" lon="13.8073318"><ele>328.0</ele><time>2026-05-03T10:19:08.875Z</time></trkpt><trkpt lat="42.2475643" lon="13.8073971"><ele>327.99999999999994</ele><time>2026-05-03T10:19:09.875Z</time></trkpt><trkpt lat="42.2475014" lon="13.8074563"><ele>328.0</ele><time>2026-05-03T10:19:10.875Z</time></trkpt><trkpt lat="42.2474287" lon="13.8075155"><ele>328.0</ele><time>2026-05-03T10:19:11.875Z</time></trkpt><trkpt lat="42.2473536" lon="13.8075685"><ele>328.0</ele><time>2026-05-03T10:19:12.875Z</time></trkpt><trkpt lat="42.2472811" lon="13.8076322"><ele>328.0</ele><time>2026-05-03T10:19:13.875Z</time></trkpt><trkpt lat="42.2472126" lon="13.8077032"><ele>328.0</ele><time>2026-05-03T10:19:14.875Z</time></trkpt><trkpt lat="42.2471456" lon="13.807772"><ele>328.0</ele><time>2026-05-03T10:19:15.875Z</time></trkpt><trkpt lat="42.2470804" lon="13.8078473"><ele>328.0</ele><time>2026-05-03T10:19:16.876Z</time></trkpt><trkpt lat="42.2470183" lon="13.8079288"><ele>327.5</ele><time>2026-05-03T10:19:17.876Z</time></trkpt><trkpt lat="42.2469645" lon="13.8080136"><ele>327.0</ele><time>2026-05-03T10:19:18.876Z</time></trkpt><trkpt lat="42.2469093" lon="13.8080989"><ele>326.5</ele><time>2026-05-03T10:19:19.875Z</time></trkpt><trkpt lat="42.2468793" lon="13.8082006"><ele>326.0</ele><time>2026-05-03T10:19:20.876Z</time></trkpt><trkpt lat="42.2468428" lon="13.8083043"><ele>325.5</ele><time>2026-05-03T10:19:21.875Z</time></trkpt><trkpt lat="42.2468378" lon="13.8084407"><ele>325.0</ele><time>2026-05-03T10:19:22.875Z</time></trkpt><trkpt lat="42.246815" lon="13.8085648"><ele>324.8</ele><time>2026-05-03T10:19:23.875Z</time></trkpt><trkpt lat="42.2467826" lon="13.8086942"><ele>324.6</ele><time>2026-05-03T10:19:24.875Z</time></trkpt><trkpt lat="42.2467405" lon="13.8088193"><ele>324.4</ele><time>2026-05-03T10:19:25.875Z</time></trkpt><trkpt lat="42.2467041" lon="13.8089542"><ele>324.2</ele><time>2026-05-03T10:19:26.876Z</time></trkpt><trkpt lat="42.2466652" lon="13.8090908"><ele>324.0</ele><time>2026-05-03T10:19:27.875Z</time></trkpt><trkpt lat="42.2466285" lon="13.8092336"><ele>324.2</ele><time>2026-05-03T10:19:28.875Z</time></trkpt><trkpt lat="42.2465908" lon="13.8093753"><ele>324.4</ele><time>2026-05-03T10:19:29.875Z</time></trkpt><trkpt lat="42.2465512" lon="13.8095141"><ele>324.6</ele><time>2026-05-03T10:19:30.874Z</time></trkpt><trkpt lat="42.2465055" lon="13.8096552"><ele>324.8</ele><time>2026-05-03T10:19:31.875Z</time></trkpt><trkpt lat="42.2464611" lon="13.8097947"><ele>325.0</ele><time>2026-05-03T10:19:32.876Z</time></trkpt><trkpt lat="42.2464199" lon="13.8099196"><ele>325.0</ele><time>2026-05-03T10:19:33.875Z</time></trkpt><trkpt lat="42.2463722" lon="13.8100299"><ele>325.0</ele><time>2026-05-03T10:19:34.876Z</time></trkpt><trkpt lat="42.2463176" lon="13.8101381"><ele>325.0</ele><time>2026-05-03T10:19:35.875Z</time></trkpt><trkpt lat="42.2462475" lon="13.8102387"><ele>325.0</ele><time>2026-05-03T10:19:36.875Z</time></trkpt><trkpt lat="42.246173" lon="13.810336"><ele>325.0</ele><time>2026-05-03T10:19:37.876Z</time></trkpt><trkpt lat="42.2461056" lon="13.8104454"><ele>325.0</ele><time>2026-05-03T10:19:38.875Z</time></trkpt><trkpt lat="42.2460321" lon="13.8105238"><ele>325.0</ele><time>2026-05-03T10:19:39.876Z</time></trkpt><trkpt lat="42.2459426" lon="13.8106021"><ele>325.0</ele><time>2026-05-03T10:19:40.875Z</time></trkpt><trkpt lat="42.2458684" lon="13.810703"><ele>325.0</ele><time>2026-05-03T10:19:41.875Z</time></trkpt><trkpt lat="42.2457899" lon="13.8108053"><ele>325.0</ele><time>2026-05-03T10:19:42.876Z</time></trkpt><trkpt lat="42.2457029" lon="13.8109149"><ele>324.75</ele><time>2026-05-03T10:19:43.875Z</time></trkpt><trkpt lat="42.2456155" lon="13.8110258"><ele>324.5</ele><time>2026-05-03T10:19:44.875Z</time></trkpt><trkpt lat="42.245525" lon="13.8111319"><ele>324.25</ele><time>2026-05-03T10:19:45.877Z</time></trkpt><trkpt lat="42.2454291" lon="13.8112247"><ele>324.0</ele><time>2026-05-03T10:19:46.875Z</time></trkpt><trkpt lat="42.2453384" lon="13.8113159"><ele>324.0</ele><time>2026-05-03T10:19:47.876Z</time></trkpt><trkpt lat="42.2452599" lon="13.8114119"><ele>324.0</ele><time>2026-05-03T10:19:48.875Z</time></trkpt><trkpt lat="42.2451953" lon="13.8115022"><ele>324.0</ele><time>2026-05-03T10:19:49.875Z</time></trkpt><trkpt lat="42.2451409" lon="13.811611"><ele>324.0</ele><time>2026-05-03T10:19:50.875Z</time></trkpt><trkpt lat="42.2450995" lon="13.8117359"><ele>324.0</ele><time>2026-05-03T10:19:51.875Z</time></trkpt><trkpt lat="42.2450566" lon="13.8118688"><ele>324.79999999999995</ele><time>2026-05-03T10:19:52.876Z</time></trkpt><trkpt lat="42.2450414" lon="13.8120107"><ele>325.59999999999997</ele><time>2026-05-03T10:19:53.875Z</time></trkpt><trkpt lat="42.2450108" lon="13.8121385"><ele>326.4</ele><time>2026-05-03T10:19:54.875Z</time></trkpt><trkpt lat="42.2449669" lon="13.8122565"><ele>327.2</ele><time>2026-05-03T10:19:55.875Z</time></trkpt><trkpt lat="42.2449135" lon="13.8123516"><ele>328.0</ele><time>2026-05-03T10:19:56.875Z</time></trkpt><trkpt lat="42.244848" lon="13.8124432"><ele>326.59999999999997</ele><time>2026-05-03T10:19:57.875Z</time></trkpt><trkpt lat="42.2447621" lon="13.8125239"><ele>325.2</ele><time>2026-05-03T10:19:58.876Z</time></trkpt><trkpt lat="42.2446703" lon="13.8125646"><ele>323.8</ele><time>2026-05-03T10:19:59.875Z</time></trkpt><trkpt lat="42.244568" lon="13.8126017"><ele>322.4</ele><time>2026-05-03T10:20:00.876Z</time></trkpt><trkpt lat="42.2444667" lon="13.8126236"><ele>321.0</ele><time>2026-05-03T10:20:01.875Z</time></trkpt><trkpt lat="42.2443719" lon="13.812649"><ele>321.8</ele><time>2026-05-03T10:20:02.876Z</time></trkpt><trkpt lat="42.2442785" lon="13.8126882"><ele>322.6</ele><time>2026-05-03T10:20:03.875Z</time></trkpt><trkpt lat="42.244179" lon="13.8127437"><ele>323.4</ele><time>2026-05-03T10:20:04.875Z</time></trkpt><trkpt lat="42.2440786" lon="13.8128146"><ele>324.2</ele><time>2026-05-03T10:20:05.875Z</time></trkpt><trkpt lat="42.2439631" lon="13.8128594"><ele>325.0</ele><time>2026-05-03T10:20:06.875Z</time></trkpt><trkpt lat="42.2438485" lon="13.8129006"><ele>325.0</ele><time>2026-05-03T10:20:07.875Z</time></trkpt><trkpt lat="42.2437384" lon="13.8129485"><ele>325.0</ele><time>2026-05-03T10:20:08.876Z</time></trkpt><trkpt lat="42.2436386" lon="13.8130037"><ele>325.0</ele><time>2026-05-03T10:20:09.876Z</time></trkpt><trkpt lat="42.2435454" lon="13.8130713"><ele>325.0</ele><time>2026-05-03T10:20:10.876Z</time></trkpt><trkpt lat="42.2434651" lon="13.8131733"><ele>325.0</ele><time>2026-05-03T10:20:11.875Z</time></trkpt><trkpt lat="42.2433722" lon="13.8132717"><ele>325.0</ele><time>2026-05-03T10:20:12.876Z</time></trkpt><trkpt lat="42.2432836" lon="13.8133801"><ele>325.0</ele><time>2026-05-03T10:20:13.875Z</time></trkpt><trkpt lat="42.243197" lon="13.8135051"><ele>325.0</ele><time>2026-05-03T10:20:14.875Z</time></trkpt><trkpt lat="42.2431074" lon="13.8136255"><ele>325.0</ele><time>2026-05-03T10:20:15.875Z</time></trkpt><trkpt lat="42.2430158" lon="13.8137427"><ele>323.75</ele><time>2026-05-03T10:20:16.876Z</time></trkpt><trkpt lat="42.2429162" lon="13.813854"><ele>322.5</ele><time>2026-05-03T10:20:17.876Z</time></trkpt><trkpt lat="42.2428108" lon="13.8139609"><ele>321.25</ele><time>2026-05-03T10:20:18.876Z</time></trkpt><trkpt lat="42.2427061" lon="13.8140706"><ele>320.0</ele><time>2026-05-03T10:20:19.875Z</time></trkpt><trkpt lat="42.2426037" lon="13.8141741"><ele>320.0</ele><time>2026-05-03T10:20:20.876Z</time></trkpt><trkpt lat="42.2425052" lon="13.8142802"><ele>320.0</ele><time>2026-05-03T10:20:21.876Z</time></trkpt><trkpt lat="42.2424089" lon="13.8143696"><ele>320.0</ele><time>2026-05-03T10:20:22.876Z</time></trkpt><trkpt lat="42.2423247" lon="13.8144365"><ele>320.0</ele><time>2026-05-03T10:20:23.876Z</time></trkpt><trkpt lat="42.2422551" lon="13.8144768"><ele>320.0</ele><time>2026-05-03T10:20:24.876Z</time></trkpt><trkpt lat="42.2421798" lon="13.8144866"><ele>319.85714285714283</ele><time>2026-05-03T10:20:25.876Z</time></trkpt><trkpt lat="42.242092" lon="13.8144919"><ele>319.7142857142857</ele><time>2026-05-03T10:20:26.875Z</time></trkpt><trkpt lat="42.2420114" lon="13.8145215"><ele>319.57142857142856</ele><time>2026-05-03T10:20:27.875Z</time></trkpt><trkpt lat="42.2419387" lon="13.8145529"><ele>319.42857142857144</ele><time>2026-05-03T10:20:28.875Z</time></trkpt><trkpt lat="42.2419144" lon="13.8146418"><ele>319.2857142857143</ele><time>2026-05-03T10:20:29.875Z</time></trkpt><trkpt lat="42.2418773" lon="13.8147121"><ele>319.14285714285717</ele><time>2026-05-03T10:20:30.876Z</time></trkpt><trkpt lat="42.2418506" lon="13.8147938"><ele>319.0</ele><time>2026-05-03T10:20:31.875Z</time></trkpt><trkpt lat="42.2418399" lon="13.8148853"><ele>319.0</ele><time>2026-05-03T10:20:32.875Z</time></trkpt><trkpt lat="42.2418199" lon="13.8149905"><ele>319.0</ele><time>2026-05-03T10:20:33.875Z</time></trkpt><trkpt lat="42.2417948" lon="13.8150929"><ele>319.0</ele><time>2026-05-03T10:20:34.875Z</time></trkpt><trkpt lat="42.2417527" lon="13.815212"><ele>319.0</ele><time>2026-05-03T10:20:35.874Z</time></trkpt><trkpt lat="42.2417229" lon="13.8153205"><ele>319.0</ele><time>2026-05-03T10:20:36.874Z</time></trkpt><trkpt lat="42.2416973" lon="13.8154275"><ele>319.0</ele><time>2026-05-03T10:20:37.874Z</time></trkpt><trkpt lat="42.2416814" lon="13.8155331"><ele>319.2857142857143</ele><time>2026-05-03T10:20:38.875Z</time></trkpt><trkpt lat="42.2416758" lon="13.8156355"><ele>319.57142857142856</ele><time>2026-05-03T10:20:39.875Z</time></trkpt><trkpt lat="42.2416735" lon="13.8157332"><ele>319.85714285714283</ele><time>2026-05-03T10:20:40.875Z</time></trkpt><trkpt lat="42.2416554" lon="13.8158254"><ele>320.1428571428571</ele><time>2026-05-03T10:20:41.876Z</time></trkpt><trkpt lat="42.2416145" lon="13.8159079"><ele>320.42857142857144</ele><time>2026-05-03T10:20:42.875Z</time></trkpt><trkpt lat="42.2415621" lon="13.8159814"><ele>320.71428571428567</ele><time>2026-05-03T10:20:43.875Z</time></trkpt><trkpt lat="42.2415023" lon="13.8160527"><ele>321.0</ele><time>2026-05-03T10:20:44.875Z</time></trkpt><trkpt lat="42.2414405" lon="13.8161183"><ele>322.3333333333333</ele><time>2026-05-03T10:20:45.874Z</time></trkpt><trkpt lat="42.2413728" lon="13.8161714"><ele>323.6666666666667</ele><time>2026-05-03T10:20:46.874Z</time></trkpt><trkpt lat="42.2412958" lon="13.8162124"><ele>325.0</ele><time>2026-05-03T10:20:47.875Z</time></trkpt><trkpt lat="42.2412177" lon="13.8162528"><ele>326.33333333333337</ele><time>2026-05-03T10:20:48.874Z</time></trkpt><trkpt lat="42.2411307" lon="13.816272"><ele>327.6666666666667</ele><time>2026-05-03T10:20:49.875Z</time></trkpt><trkpt lat="42.2410427" lon="13.8162782"><ele>329.0</ele><time>2026-05-03T10:20:50.874Z</time></trkpt><trkpt lat="42.2409493" lon="13.8162902"><ele>329.0</ele><time>2026-05-03T10:20:51.874Z</time></trkpt><trkpt lat="42.2408559" lon="13.8162965"><ele>329.0</ele><time>2026-05-03T10:20:52.874Z</time></trkpt><trkpt lat="42.2407608" lon="13.8162972"><ele>329.0</ele><time>2026-05-03T10:20:53.874Z</time></trkpt><trkpt lat="42.2406648" lon="13.8162973"><ele>329.0</ele><time>2026-05-03T10:20:54.874Z</time></trkpt><trkpt lat="42.2405668" lon="13.8163045"><ele>329.0</ele><time>2026-05-03T10:20:55.875Z</time></trkpt><trkpt lat="42.2404655" lon="13.8163119"><ele>328.6666666666667</ele><time>2026-05-03T10:20:56.875Z</time></trkpt><trkpt lat="42.2403656" lon="13.8163166"><ele>328.33333333333337</ele><time>2026-05-03T10:20:57.874Z</time></trkpt><trkpt lat="42.2402728" lon="13.8163238"><ele>328.0</ele><time>2026-05-03T10:20:58.874Z</time></trkpt><trkpt lat="42.2401921" lon="13.81633"><ele>327.6666666666667</ele><time>2026-05-03T10:20:59.874Z</time></trkpt><trkpt lat="42.2401163" lon="13.8163286"><ele>327.3333333333333</ele><time>2026-05-03T10:21:00.874Z</time></trkpt><trkpt lat="42.240049" lon="13.8163395"><ele>327.0</ele><time>2026-05-03T10:21:01.874Z</time></trkpt><trkpt lat="42.2399804" lon="13.816364"><ele>327.0</ele><time>2026-05-03T10:21:02.875Z</time></trkpt><trkpt lat="42.2399134" lon="13.8164048"><ele>327.0</ele><time>2026-05-03T10:21:03.874Z</time></trkpt><trkpt lat="42.2398402" lon="13.8164427"><ele>327.0</ele><time>2026-05-03T10:21:04.875Z</time></trkpt><trkpt lat="42.2397561" lon="13.8164661"><ele>327.0</ele><time>2026-05-03T10:21:05.874Z</time></trkpt><trkpt lat="42.2396777" lon="13.8164807"><ele>327.0</ele><time>2026-05-03T10:21:06.874Z</time></trkpt><trkpt lat="42.2396046" lon="13.816488"><ele>327.0</ele><time>2026-05-03T10:21:07.874Z</time></trkpt><trkpt lat="42.2395022" lon="13.8164612"><ele>326.20000000000005</ele><time>2026-05-03T10:21:09.875Z</time></trkpt><trkpt lat="42.2394335" lon="13.8163637"><ele>325.4</ele><time>2026-05-03T10:21:11.875Z</time></trkpt><trkpt lat="42.2393728" lon="13.8162591"><ele>324.6</ele><time>2026-05-03T10:21:13.874Z</time></trkpt><trkpt lat="42.2392722" lon="13.8161708"><ele>323.79999999999995</ele><time>2026-05-03T10:21:15.875Z</time></trkpt><trkpt lat="42.239208" lon="13.8161586"><ele>323.0</ele><time>2026-05-03T10:21:16.874Z</time></trkpt><trkpt lat="42.2391374" lon="13.8161524"><ele>323.0</ele><time>2026-05-03T10:21:17.875Z</time></trkpt><trkpt lat="42.239061" lon="13.8161364"><ele>323.0</ele><time>2026-05-03T10:21:18.874Z</time></trkpt><trkpt lat="42.2389796" lon="13.8161234"><ele>323.0</ele><time>2026-05-03T10:21:19.875Z</time></trkpt><trkpt lat="42.2388934" lon="13.8161102"><ele>323.0</ele><time>2026-05-03T10:21:20.874Z</time></trkpt><trkpt lat="42.2387996" lon="13.8160945"><ele>323.0</ele><time>2026-05-03T10:21:21.875Z</time></trkpt><trkpt lat="42.2386996" lon="13.816082"><ele>323.0</ele><time>2026-05-03T10:21:22.875Z</time></trkpt><trkpt lat="42.2385951" lon="13.8160811"><ele>322.0</ele><time>2026-05-03T10:21:23.875Z</time></trkpt><trkpt lat="42.238486" lon="13.8161039"><ele>321.0</ele><time>2026-05-03T10:21:24.873Z</time></trkpt><trkpt lat="42.2383743" lon="13.8161494"><ele>320.0</ele><time>2026-05-03T10:21:25.874Z</time></trkpt><trkpt lat="42.2382619" lon="13.816201"><ele>319.0</ele><time>2026-05-03T10:21:26.875Z</time></trkpt><trkpt lat="42.2381461" lon="13.8162562"><ele>319.0</ele><time>2026-05-03T10:21:27.875Z</time></trkpt><trkpt lat="42.2380269" lon="13.8163144"><ele>319.0</ele><time>2026-05-03T10:21:28.875Z</time></trkpt><trkpt lat="42.2379077" lon="13.8163724"><ele>319.0</ele><time>2026-05-03T10:21:29.874Z</time></trkpt><trkpt lat="42.237787" lon="13.8164293"><ele>319.0</ele><time>2026-05-03T10:21:30.875Z</time></trkpt><trkpt lat="42.2376659" lon="13.8164873"><ele>319.0</ele><time>2026-05-03T10:21:31.874Z</time></trkpt><trkpt lat="42.2375472" lon="13.816545"><ele>319.0</ele><time>2026-05-03T10:21:32.874Z</time></trkpt><trkpt lat="42.2374285" lon="13.8166021"><ele>319.0</ele><time>2026-05-03T10:21:33.875Z</time></trkpt><trkpt lat="42.2373071" lon="13.8166551"><ele>319.0</ele><time>2026-05-03T10:21:34.874Z</time></trkpt><trkpt lat="42.2371848" lon="13.8166965"><ele>319.25</ele><time>2026-05-03T10:21:35.875Z</time></trkpt><trkpt lat="42.2370603" lon="13.8167221"><ele>319.5</ele><time>2026-05-03T10:21:36.874Z</time></trkpt><trkpt lat="42.2369332" lon="13.816727"><ele>319.75</ele><time>2026-05-03T10:21:37.874Z</time></trkpt><trkpt lat="42.2368091" lon="13.8167155"><ele>320.0</ele><time>2026-05-03T10:21:38.874Z</time></trkpt><trkpt lat="42.2366852" lon="13.8166872"><ele>320.0</ele><time>2026-05-03T10:21:39.875Z</time></trkpt><trkpt lat="42.2365636" lon="13.8166371"><ele>320.0</ele><time>2026-05-03T10:21:40.874Z</time></trkpt><trkpt lat="42.2364494" lon="13.8165691"><ele>320.0</ele><time>2026-05-03T10:21:41.874Z</time></trkpt><trkpt lat="42.2363397" lon="13.8164892"><ele>320.0</ele><time>2026-05-03T10:21:42.874Z</time></trkpt><trkpt lat="42.2362358" lon="13.8164069"><ele>320.4</ele><time>2026-05-03T10:21:43.874Z</time></trkpt><trkpt lat="42.2361411" lon="13.8163249"><ele>320.8</ele><time>2026-05-03T10:21:44.874Z</time></trkpt><trkpt lat="42.2360525" lon="13.8162582"><ele>321.20000000000005</ele><time>2026-05-03T10:21:45.875Z</time></trkpt><trkpt lat="42.2359575" lon="13.8162265"><ele>321.6</ele><time>2026-05-03T10:21:46.874Z</time></trkpt><trkpt lat="42.2358611" lon="13.8162184"><ele>322.0</ele><time>2026-05-03T10:21:47.875Z</time></trkpt><trkpt lat="42.2357759" lon="13.8162286"><ele>322.0</ele><time>2026-05-03T10:21:48.874Z</time></trkpt><trkpt lat="42.2357005" lon="13.8162468"><ele>322.0</ele><time>2026-05-03T10:21:49.875Z</time></trkpt><trkpt lat="42.2356365" lon="13.8162731"><ele>322.0</ele><time>2026-05-03T10:21:50.875Z</time></trkpt><trkpt lat="42.2355758" lon="13.8163102"><ele>322.0</ele><time>2026-05-03T10:21:51.874Z</time></trkpt><trkpt lat="42.2354854" lon="13.816389"><ele>322.0</ele><time>2026-05-03T10:21:53.874Z</time></trkpt><trkpt lat="42.2354164" lon="13.8164808"><ele>322.0</ele><time>2026-05-03T10:21:55.874Z</time></trkpt><trkpt lat="42.2353617" lon="13.8165768"><ele>321.8333333333333</ele><time>2026-05-03T10:21:57.874Z</time></trkpt><trkpt lat="42.2353041" lon="13.8166747"><ele>321.66666666666663</ele><time>2026-05-03T10:21:59.875Z</time></trkpt><trkpt lat="42.2352262" lon="13.816816"><ele>321.5</ele><time>2026-05-03T10:22:01.875Z</time></trkpt><trkpt lat="42.2351848" lon="13.8168957"><ele>321.3333333333333</ele><time>2026-05-03T10:22:02.874Z</time></trkpt><trkpt lat="42.2351405" lon="13.8169758"><ele>321.1666666666667</ele><time>2026-05-03T10:22:03.874Z</time></trkpt><trkpt lat="42.2351002" lon="13.8170632"><ele>321.0</ele><time>2026-05-03T10:22:04.875Z</time></trkpt><trkpt lat="42.2350571" lon="13.8171621"><ele>321.0</ele><time>2026-05-03T10:22:05.875Z</time></trkpt><trkpt lat="42.2350056" lon="13.8172637"><ele>321.0</ele><time>2026-05-03T10:22:06.875Z</time></trkpt><trkpt lat="42.234951" lon="13.8173694"><ele>321.0</ele><time>2026-05-03T10:22:07.874Z</time></trkpt><trkpt lat="42.2348875" lon="13.8174795"><ele>321.0</ele><time>2026-05-03T10:22:08.875Z</time></trkpt><trkpt lat="42.2348168" lon="13.8175888"><ele>321.0</ele><time>2026-05-03T10:22:09.874Z</time></trkpt><trkpt lat="42.2347421" lon="13.8176993"><ele>322.25</ele><time>2026-05-03T10:22:10.874Z</time></trkpt><trkpt lat="42.2346621" lon="13.8178104"><ele>323.5</ele><time>2026-05-03T10:22:11.874Z</time></trkpt><trkpt lat="42.2345747" lon="13.8179174"><ele>324.75</ele><time>2026-05-03T10:22:12.874Z</time></trkpt><trkpt lat="42.2344813" lon="13.818019"><ele>326.0</ele><time>2026-05-03T10:22:13.874Z</time></trkpt><trkpt lat="42.2343836" lon="13.8181148"><ele>326.0</ele><time>2026-05-03T10:22:14.874Z</time></trkpt><trkpt lat="42.234282" lon="13.8182064"><ele>326.0</ele><time>2026-05-03T10:22:15.874Z</time></trkpt><trkpt lat="42.2341739" lon="13.8182934"><ele>326.0</ele><time>2026-05-03T10:22:16.874Z</time></trkpt><trkpt lat="42.2340584" lon="13.8183707"><ele>326.0</ele><time>2026-05-03T10:22:17.874Z</time></trkpt><trkpt lat="42.2339454" lon="13.8184473"><ele>327.25</ele><time>2026-05-03T10:22:18.874Z</time></trkpt><trkpt lat="42.2338293" lon="13.8185222"><ele>328.5</ele><time>2026-05-03T10:22:19.874Z</time></trkpt><trkpt lat="42.2337114" lon="13.8185935"><ele>329.75</ele><time>2026-05-03T10:22:20.874Z</time></trkpt><trkpt lat="42.23359" lon="13.8186614"><ele>331.0</ele><time>2026-05-03T10:22:21.874Z</time></trkpt><trkpt lat="42.2334682" lon="13.8187223"><ele>331.0</ele><time>2026-05-03T10:22:22.875Z</time></trkpt><trkpt lat="42.2333439" lon="13.8187818"><ele>331.0</ele><time>2026-05-03T10:22:23.874Z</time></trkpt><trkpt lat="42.2332205" lon="13.8188424"><ele>331.0</ele><time>2026-05-03T10:22:24.875Z</time></trkpt><trkpt lat="42.2330955" lon="13.8188985"><ele>331.0</ele><time>2026-05-03T10:22:25.874Z</time></trkpt><trkpt lat="42.2329682" lon="13.8189533"><ele>328.5</ele><time>2026-05-03T10:22:26.874Z</time></trkpt><trkpt lat="42.232837" lon="13.8189982"><ele>326.0</ele><time>2026-05-03T10:22:27.874Z</time></trkpt><trkpt lat="42.2327004" lon="13.8190215"><ele>323.5</ele><time>2026-05-03T10:22:28.874Z</time></trkpt><trkpt lat="42.2325612" lon="13.8190271"><ele>321.0</ele><time>2026-05-03T10:22:29.874Z</time></trkpt><trkpt lat="42.2324223" lon="13.8190337"><ele>320.75</ele><time>2026-05-03T10:22:30.874Z</time></trkpt><trkpt lat="42.2322833" lon="13.8190365"><ele>320.5</ele><time>2026-05-03T10:22:31.874Z</time></trkpt><trkpt lat="42.2321444" lon="13.8190413"><ele>320.25</ele><time>2026-05-03T10:22:32.874Z</time></trkpt><trkpt lat="42.2320087" lon="13.8190537"><ele>320.0</ele><time>2026-05-03T10:22:33.875Z</time></trkpt><trkpt lat="42.2318764" lon="13.8190779"><ele>320.0</ele><time>2026-05-03T10:22:34.875Z</time></trkpt><trkpt lat="42.2317468" lon="13.8191139"><ele>320.0</ele><time>2026-05-03T10:22:35.874Z</time></trkpt><trkpt lat="42.2316232" lon="13.8191646"><ele>320.0</ele><time>2026-05-03T10:22:36.874Z</time></trkpt><trkpt lat="42.2315057" lon="13.819227"><ele>320.0</ele><time>2026-05-03T10:22:37.874Z</time></trkpt><trkpt lat="42.2313954" lon="13.8192923"><ele>321.25</ele><time>2026-05-03T10:22:38.874Z</time></trkpt><trkpt lat="42.231287" lon="13.8193696"><ele>322.5</ele><time>2026-05-03T10:22:39.874Z</time></trkpt><trkpt lat="42.2311763" lon="13.8194436"><ele>323.75</ele><time>2026-05-03T10:22:40.874Z</time></trkpt><trkpt lat="42.2310595" lon="13.8195046"><ele>325.0</ele><time>2026-05-03T10:22:41.874Z</time></trkpt><trkpt lat="42.2309382" lon="13.8195431"><ele>325.0</ele><time>2026-05-03T10:22:42.874Z</time></trkpt><trkpt lat="42.2308107" lon="13.819564"><ele>325.0</ele><time>2026-05-03T10:22:43.874Z</time></trkpt><trkpt lat="42.23068" lon="13.8195764"><ele>325.0</ele><time>2026-05-03T10:22:44.874Z</time></trkpt><trkpt lat="42.2305524" lon="13.8195964"><ele>325.0</ele><time>2026-05-03T10:22:45.875Z</time></trkpt><trkpt lat="42.2304238" lon="13.8196157"><ele>323.25</ele><time>2026-05-03T10:22:46.875Z</time></trkpt><trkpt lat="42.2303007" lon="13.8196394"><ele>321.5</ele><time>2026-05-03T10:22:47.874Z</time></trkpt><trkpt lat="42.2301803" lon="13.8196632"><ele>319.75</ele><time>2026-05-03T10:22:48.874Z</time></trkpt><trkpt lat="42.2300608" lon="13.819674"><ele>318.0</ele><time>2026-05-03T10:22:49.875Z</time></trkpt><trkpt lat="42.229939" lon="13.8196742"><ele>318.0</ele><time>2026-05-03T10:22:50.874Z</time></trkpt><trkpt lat="42.229813" lon="13.8196811"><ele>318.0</ele><time>2026-05-03T10:22:51.875Z</time></trkpt><trkpt lat="42.2296873" lon="13.8196845"><ele>318.0</ele><time>2026-05-03T10:22:52.875Z</time></trkpt><trkpt lat="42.2295562" lon="13.8196902"><ele>318.0</ele><time>2026-05-03T10:22:53.874Z</time></trkpt><trkpt lat="42.2294254" lon="13.8196983"><ele>318.0</ele><time>2026-05-03T10:22:54.874Z</time></trkpt><trkpt lat="42.2292954" lon="13.8197101"><ele>318.0</ele><time>2026-05-03T10:22:55.874Z</time></trkpt><trkpt lat="42.2291688" lon="13.8197211"><ele>318.0</ele><time>2026-05-03T10:22:56.874Z</time></trkpt><trkpt lat="42.2290413" lon="13.8197312"><ele>318.0</ele><time>2026-05-03T10:22:57.874Z</time></trkpt><trkpt lat="42.2289143" lon="13.8197395"><ele>319.75</ele><time>2026-05-03T10:22:58.874Z</time></trkpt><trkpt lat="42.2287877" lon="13.8197448"><ele>321.5</ele><time>2026-05-03T10:22:59.875Z</time></trkpt><trkpt lat="42.2286597" lon="13.8197438"><ele>323.25</ele><time>2026-05-03T10:23:00.874Z</time></trkpt><trkpt lat="42.2285311" lon="13.8197318"><ele>325.0</ele><time>2026-05-03T10:23:01.874Z</time></trkpt><trkpt lat="42.2284015" lon="13.8197082"><ele>325.0</ele><time>2026-05-03T10:23:02.875Z</time></trkpt><trkpt lat="42.228273" lon="13.8196733"><ele>325.0</ele><time>2026-05-03T10:23:03.874Z</time></trkpt><trkpt lat="42.2281441" lon="13.8196307"><ele>325.0</ele><time>2026-05-03T10:23:04.875Z</time></trkpt><trkpt lat="42.2280138" lon="13.8195901"><ele>325.0</ele><time>2026-05-03T10:23:05.875Z</time></trkpt><trkpt lat="42.2278796" lon="13.8195634"><ele>325.0</ele><time>2026-05-03T10:23:06.874Z</time></trkpt><trkpt lat="42.227744" lon="13.8195532"><ele>325.0</ele><time>2026-05-03T10:23:07.874Z</time></trkpt><trkpt lat="42.2276092" lon="13.8195527"><ele>325.0</ele><time>2026-05-03T10:23:08.874Z</time></trkpt><trkpt lat="42.2274731" lon="13.8195598"><ele>325.0</ele><time>2026-05-03T10:23:09.874Z</time></trkpt><trkpt lat="42.2273391" lon="13.8195731"><ele>324.5</ele><time>2026-05-03T10:23:10.875Z</time></trkpt><trkpt lat="42.227213" lon="13.8195869"><ele>324.0</ele><time>2026-05-03T10:23:11.874Z</time></trkpt><trkpt lat="42.227091" lon="13.8196114"><ele>323.5</ele><time>2026-05-03T10:23:12.874Z</time></trkpt><trkpt lat="42.2269725" lon="13.8196464"><ele>323.0</ele><time>2026-05-03T10:23:13.874Z</time></trkpt><trkpt lat="42.2268541" lon="13.8196961"><ele>323.0</ele><time>2026-05-03T10:23:14.875Z</time></trkpt><trkpt lat="42.2267425" lon="13.8197605"><ele>323.0</ele><time>2026-05-03T10:23:15.874Z</time></trkpt><trkpt lat="42.2266385" lon="13.8198375"><ele>323.0</ele><time>2026-05-03T10:23:16.874Z</time></trkpt><trkpt lat="42.2265423" lon="13.8199281"><ele>323.0</ele><time>2026-05-03T10:23:17.873Z</time></trkpt><trkpt lat="42.2264572" lon="13.8200231"><ele>322.0</ele><time>2026-05-03T10:23:18.875Z</time></trkpt><trkpt lat="42.226384" lon="13.8201272"><ele>321.0</ele><time>2026-05-03T10:23:19.874Z</time></trkpt><trkpt lat="42.226315" lon="13.8202402"><ele>320.0</ele><time>2026-05-03T10:23:20.876Z</time></trkpt><trkpt lat="42.2262456" lon="13.8203584"><ele>319.0</ele><time>2026-05-03T10:23:21.874Z</time></trkpt><trkpt lat="42.2261747" lon="13.8204799"><ele>318.0</ele><time>2026-05-03T10:23:22.874Z</time></trkpt><trkpt lat="42.2261066" lon="13.820608"><ele>318.0</ele><time>2026-05-03T10:23:23.875Z</time></trkpt><trkpt lat="42.2260369" lon="13.8207419"><ele>318.0</ele><time>2026-05-03T10:23:24.874Z</time></trkpt><trkpt lat="42.2259627" lon="13.8208778"><ele>318.0</ele><time>2026-05-03T10:23:25.875Z</time></trkpt><trkpt lat="42.2258857" lon="13.8210124"><ele>318.0</ele><time>2026-05-03T10:23:26.875Z</time></trkpt><trkpt lat="42.2258066" lon="13.8211429"><ele>318.25</ele><time>2026-05-03T10:23:27.874Z</time></trkpt><trkpt lat="42.2257184" lon="13.8212621"><ele>318.5</ele><time>2026-05-03T10:23:28.874Z</time></trkpt><trkpt lat="42.2256215" lon="13.8213634"><ele>318.75</ele><time>2026-05-03T10:23:29.874Z</time></trkpt><trkpt lat="42.2255144" lon="13.8214454"><ele>319.0</ele><time>2026-05-03T10:23:30.875Z</time></trkpt><trkpt lat="42.2254028" lon="13.8215157"><ele>319.0</ele><time>2026-05-03T10:23:31.874Z</time></trkpt><trkpt lat="42.2252827" lon="13.8215753"><ele>319.0</ele><time>2026-05-03T10:23:32.874Z</time></trkpt><trkpt lat="42.2251588" lon="13.8216238"><ele>319.0</ele><time>2026-05-03T10:23:33.874Z</time></trkpt><trkpt lat="42.225032" lon="13.8216635"><ele>319.0</ele><time>2026-05-03T10:23:34.874Z</time></trkpt><trkpt lat="42.2249027" lon="13.8216978"><ele>318.75</ele><time>2026-05-03T10:23:35.874Z</time></trkpt><trkpt lat="42.2247736" lon="13.8217373"><ele>318.5</ele><time>2026-05-03T10:23:36.874Z</time></trkpt><trkpt lat="42.2246426" lon="13.8217842"><ele>318.25</ele><time>2026-05-03T10:23:37.875Z</time></trkpt><trkpt lat="42.2245136" lon="13.8218406"><ele>318.0</ele><time>2026-05-03T10:23:38.874Z</time></trkpt><trkpt lat="42.2243893" lon="13.8219076"><ele>318.5</ele><time>2026-05-03T10:23:39.874Z</time></trkpt><trkpt lat="42.2242741" lon="13.8219821"><ele>319.0</ele><time>2026-05-03T10:23:40.874Z</time></trkpt><trkpt lat="42.224161" lon="13.822072"><ele>319.5</ele><time>2026-05-03T10:23:41.875Z</time></trkpt><trkpt lat="42.2240494" lon="13.8221709"><ele>320.0</ele><time>2026-05-03T10:23:42.874Z</time></trkpt><trkpt lat="42.2239368" lon="13.8222743"><ele>320.0</ele><time>2026-05-03T10:23:43.874Z</time></trkpt><trkpt lat="42.2238234" lon="13.8223742"><ele>320.0</ele><time>2026-05-03T10:23:44.873Z</time></trkpt><trkpt lat="42.2237096" lon="13.8224664"><ele>320.0</ele><time>2026-05-03T10:23:45.874Z</time></trkpt><trkpt lat="42.2235932" lon="13.822548"><ele>320.0</ele><time>2026-05-03T10:23:46.875Z</time></trkpt><trkpt lat="42.2234746" lon="13.8226222"><ele>322.0</ele><time>2026-05-03T10:23:47.874Z</time></trkpt><trkpt lat="42.2233506" lon="13.8226831"><ele>324.0</ele><time>2026-05-03T10:23:48.874Z</time></trkpt><trkpt lat="42.2232239" lon="13.8227216"><ele>326.0</ele><time>2026-05-03T10:23:49.874Z</time></trkpt><trkpt lat="42.2230989" lon="13.822734"><ele>328.0</ele><time>2026-05-03T10:23:50.874Z</time></trkpt><trkpt lat="42.2229781" lon="13.8227151"><ele>328.0</ele><time>2026-05-03T10:23:51.875Z</time></trkpt><trkpt lat="42.2228635" lon="13.8226853"><ele>328.0</ele><time>2026-05-03T10:23:52.874Z</time></trkpt><trkpt lat="42.2227539" lon="13.8226639"><ele>328.0</ele><time>2026-05-03T10:23:53.874Z</time></trkpt><trkpt lat="42.2226492" lon="13.8226386"><ele>328.0</ele><time>2026-05-03T10:23:54.874Z</time></trkpt><trkpt lat="42.2225484" lon="13.8226142"><ele>328.0</ele><time>2026-05-03T10:23:55.875Z</time></trkpt><trkpt lat="42.2224446" lon="13.8225869"><ele>327.5</ele><time>2026-05-03T10:23:56.875Z</time></trkpt><trkpt lat="42.2223276" lon="13.8225563"><ele>327.0</ele><time>2026-05-03T10:23:57.873Z</time></trkpt><trkpt lat="42.2222042" lon="13.8225209"><ele>326.5</ele><time>2026-05-03T10:23:58.874Z</time></trkpt><trkpt lat="42.222078" lon="13.8224792"><ele>326.0</ele><time>2026-05-03T10:23:59.874Z</time></trkpt><trkpt lat="42.2219597" lon="13.8224394"><ele>326.0</ele><time>2026-05-03T10:24:00.874Z</time></trkpt><trkpt lat="42.2218494" lon="13.8224019"><ele>326.0</ele><time>2026-05-03T10:24:01.875Z</time></trkpt><trkpt lat="42.2217468" lon="13.8223689"><ele>326.0</ele><time>2026-05-03T10:24:02.874Z</time></trkpt><trkpt lat="42.2216452" lon="13.8223377"><ele>326.0</ele><time>2026-05-03T10:24:03.874Z</time></trkpt><trkpt lat="42.2215447" lon="13.8222989"><ele>326.0</ele><time>2026-05-03T10:24:04.874Z</time></trkpt><trkpt lat="42.2214423" lon="13.8222665"><ele>326.6</ele><time>2026-05-03T10:24:05.874Z</time></trkpt><trkpt lat="42.2213383" lon="13.8222431"><ele>327.20000000000005</ele><time>2026-05-03T10:24:06.875Z</time></trkpt><trkpt lat="42.221229" lon="13.8222272"><ele>327.79999999999995</ele><time>2026-05-03T10:24:07.875Z</time></trkpt><trkpt lat="42.2211162" lon="13.822217"><ele>328.4</ele><time>2026-05-03T10:24:08.875Z</time></trkpt><trkpt lat="42.2210016" lon="13.8222196"><ele>329.0</ele><time>2026-05-03T10:24:09.874Z</time></trkpt><trkpt lat="42.2208973" lon="13.8222421"><ele>329.0</ele><time>2026-05-03T10:24:10.875Z</time></trkpt><trkpt lat="42.2208017" lon="13.8222877"><ele>329.0</ele><time>2026-05-03T10:24:11.874Z</time></trkpt><trkpt lat="42.2207127" lon="13.8223586"><ele>329.0</ele><time>2026-05-03T10:24:12.875Z</time></trkpt><trkpt lat="42.2206264" lon="13.8224526"><ele>329.0</ele><time>2026-05-03T10:24:13.874Z</time></trkpt><trkpt lat="42.2205425" lon="13.822559"><ele>329.0</ele><time>2026-05-03T10:24:14.875Z</time></trkpt><trkpt lat="42.2204565" lon="13.8226675"><ele>327.75</ele><time>2026-05-03T10:24:15.875Z</time></trkpt><trkpt lat="42.2203685" lon="13.8227788"><ele>326.5</ele><time>2026-05-03T10:24:16.874Z</time></trkpt><trkpt lat="42.2202758" lon="13.8228907"><ele>325.25</ele><time>2026-05-03T10:24:17.876Z</time></trkpt><trkpt lat="42.220181" lon="13.8230023"><ele>324.0</ele><time>2026-05-03T10:24:18.874Z</time></trkpt><trkpt lat="42.2200827" lon="13.8231086"><ele>324.0</ele><time>2026-05-03T10:24:19.875Z</time></trkpt><trkpt lat="42.2199912" lon="13.823211"><ele>324.0</ele><time>2026-05-03T10:24:20.874Z</time></trkpt><trkpt lat="42.2199001" lon="13.8233136"><ele>324.0</ele><time>2026-05-03T10:24:21.875Z</time></trkpt><trkpt lat="42.2198107" lon="13.823417"><ele>324.0</ele><time>2026-05-03T10:24:22.874Z</time></trkpt><trkpt lat="42.2197174" lon="13.8235214"><ele>323.25</ele><time>2026-05-03T10:24:23.874Z</time></trkpt><trkpt lat="42.2196176" lon="13.8236223"><ele>322.5</ele><time>2026-05-03T10:24:24.875Z</time></trkpt><trkpt lat="42.219511" lon="13.8237105"><ele>321.75</ele><time>2026-05-03T10:24:25.874Z</time></trkpt><trkpt lat="42.219396" lon="13.823788"><ele>321.0</ele><time>2026-05-03T10:24:26.875Z</time></trkpt><trkpt lat="42.2192754" lon="13.8238512"><ele>321.0</ele><time>2026-05-03T10:24:27.875Z</time></trkpt><trkpt lat="42.2191538" lon="13.8239124"><ele>321.0</ele><time>2026-05-03T10:24:28.874Z</time></trkpt><trkpt lat="42.2190313" lon="13.8239773"><ele>321.0</ele><time>2026-05-03T10:24:29.874Z</time></trkpt><trkpt lat="42.2189097" lon="13.82404"><ele>321.0</ele><time>2026-05-03T10:24:30.875Z</time></trkpt><trkpt lat="42.218789" lon="13.8240996"><ele>321.25</ele><time>2026-05-03T10:24:31.875Z</time></trkpt><trkpt lat="42.2186722" lon="13.8241567"><ele>321.5</ele><time>2026-05-03T10:24:32.874Z</time></trkpt><trkpt lat="42.2185578" lon="13.8242098"><ele>321.75</ele><time>2026-05-03T10:24:33.874Z</time></trkpt><trkpt lat="42.2184556" lon="13.8242602"><ele>322.0</ele><time>2026-05-03T10:24:34.875Z</time></trkpt><trkpt lat="42.2183651" lon="13.8243052"><ele>322.3333333333333</ele><time>2026-05-03T10:24:35.875Z</time></trkpt><trkpt lat="42.2182815" lon="13.8243423"><ele>322.66666666666663</ele><time>2026-05-03T10:24:36.874Z</time></trkpt><trkpt lat="42.2182075" lon="13.8243647"><ele>323.0</ele><time>2026-05-03T10:24:37.874Z</time></trkpt><trkpt lat="42.2181352" lon="13.8243751"><ele>323.3333333333333</ele><time>2026-05-03T10:24:38.875Z</time></trkpt><trkpt lat="42.2180563" lon="13.8243936"><ele>323.6666666666667</ele><time>2026-05-03T10:24:39.874Z</time></trkpt><trkpt lat="42.2179707" lon="13.8244262"><ele>324.0</ele><time>2026-05-03T10:24:40.875Z</time></trkpt><trkpt lat="42.2178778" lon="13.8244697"><ele>324.0</ele><time>2026-05-03T10:24:41.875Z</time></trkpt><trkpt lat="42.2177806" lon="13.8245209"><ele>324.0</ele><time>2026-05-03T10:24:42.874Z</time></trkpt><trkpt lat="42.2176813" lon="13.8245767"><ele>324.0</ele><time>2026-05-03T10:24:43.875Z</time></trkpt><trkpt lat="42.2175875" lon="13.8246302"><ele>324.0</ele><time>2026-05-03T10:24:44.874Z</time></trkpt><trkpt lat="42.2174996" lon="13.824682"><ele>324.0</ele><time>2026-05-03T10:24:45.875Z</time></trkpt><trkpt lat="42.2174183" lon="13.824731"><ele>324.0</ele><time>2026-05-03T10:24:46.874Z</time></trkpt><trkpt lat="42.2173364" lon="13.8247776"><ele>324.0</ele><time>2026-05-03T10:24:47.874Z</time></trkpt><trkpt lat="42.2172606" lon="13.8248228"><ele>324.0</ele><time>2026-05-03T10:24:48.874Z</time></trkpt><trkpt lat="42.2171875" lon="13.8248587"><ele>324.0</ele><time>2026-05-03T10:24:49.875Z</time></trkpt><trkpt lat="42.2171201" lon="13.8248797"><ele>324.0</ele><time>2026-05-03T10:24:50.874Z</time></trkpt><trkpt lat="42.217053" lon="13.8248709"><ele>324.0</ele><time>2026-05-03T10:24:51.875Z</time></trkpt><trkpt lat="42.2169614" lon="13.8247399"><ele>323.6</ele><time>2026-05-03T10:24:53.874Z</time></trkpt><trkpt lat="42.2169174" lon="13.8246379"><ele>323.2</ele><time>2026-05-03T10:24:54.874Z</time></trkpt><trkpt lat="42.2168675" lon="13.824522"><ele>322.8</ele><time>2026-05-03T10:24:55.875Z</time></trkpt><trkpt lat="42.2168171" lon="13.8244019"><ele>322.40000000000003</ele><time>2026-05-03T10:24:56.874Z</time></trkpt><trkpt lat="42.2167638" lon="13.8242767"><ele>322.0</ele><time>2026-05-03T10:24:57.874Z</time></trkpt><trkpt lat="42.2167105" lon="13.824148"><ele>321.40000000000003</ele><time>2026-05-03T10:24:58.875Z</time></trkpt><trkpt lat="42.216657" lon="13.8240167"><ele>320.8</ele><time>2026-05-03T10:24:59.875Z</time></trkpt><trkpt lat="42.2166001" lon="13.8238847"><ele>320.2</ele><time>2026-05-03T10:25:00.875Z</time></trkpt><trkpt lat="42.2165439" lon="13.8237549"><ele>319.6</ele><time>2026-05-03T10:25:01.874Z</time></trkpt><trkpt lat="42.2164913" lon="13.8236289"><ele>319.0</ele><time>2026-05-03T10:25:02.875Z</time></trkpt><trkpt lat="42.216439" lon="13.8235038"><ele>317.8</ele><time>2026-05-03T10:25:03.874Z</time></trkpt><trkpt lat="42.216386" lon="13.8233757"><ele>316.59999999999997</ele><time>2026-05-03T10:25:04.874Z</time></trkpt><trkpt lat="42.2163331" lon="13.8232511"><ele>315.4</ele><time>2026-05-03T10:25:05.875Z</time></trkpt><trkpt lat="42.2162819" lon="13.8231267"><ele>314.2</ele><time>2026-05-03T10:25:06.874Z</time></trkpt><trkpt lat="42.2162317" lon="13.8230042"><ele>313.0</ele><time>2026-05-03T10:25:07.875Z</time></trkpt><trkpt lat="42.216182" lon="13.8228855"><ele>313.0</ele><time>2026-05-03T10:25:08.874Z</time></trkpt><trkpt lat="42.2161342" lon="13.822773"><ele>313.0</ele><time>2026-05-03T10:25:09.874Z</time></trkpt><trkpt lat="42.2160882" lon="13.8226699"><ele>313.0</ele><time>2026-05-03T10:25:10.874Z</time></trkpt><trkpt lat="42.216039" lon="13.8225613"><ele>313.0</ele><time>2026-05-03T10:25:11.874Z</time></trkpt><trkpt lat="42.2159798" lon="13.8224629"><ele>313.0</ele><time>2026-05-03T10:25:12.875Z</time></trkpt><trkpt lat="42.2159079" lon="13.8223875"><ele>313.4</ele><time>2026-05-03T10:25:13.875Z</time></trkpt><trkpt lat="42.2158225" lon="13.8223304"><ele>313.8</ele><time>2026-05-03T10:25:14.874Z</time></trkpt><trkpt lat="42.2157293" lon="13.8222957"><ele>314.2</ele><time>2026-05-03T10:25:15.875Z</time></trkpt><trkpt lat="42.2156332" lon="13.8222851"><ele>314.6</ele><time>2026-05-03T10:25:16.874Z</time></trkpt><trkpt lat="42.215537" lon="13.8222951"><ele>315.0</ele><time>2026-05-03T10:25:17.874Z</time></trkpt><trkpt lat="42.2154407" lon="13.8223229"><ele>315.4</ele><time>2026-05-03T10:25:18.876Z</time></trkpt><trkpt lat="42.2153461" lon="13.8223677"><ele>315.8</ele><time>2026-05-03T10:25:19.875Z</time></trkpt><trkpt lat="42.2152511" lon="13.8224213"><ele>316.2</ele><time>2026-05-03T10:25:20.874Z</time></trkpt><trkpt lat="42.215156" lon="13.8224733"><ele>316.6</ele><time>2026-05-03T10:25:21.875Z</time></trkpt><trkpt lat="42.2150601" lon="13.8225301"><ele>317.0</ele><time>2026-05-03T10:25:22.874Z</time></trkpt><trkpt lat="42.2149656" lon="13.8225866"><ele>317.0</ele><time>2026-05-03T10:25:23.874Z</time></trkpt><trkpt lat="42.2148712" lon="13.8226451"><ele>317.0</ele><time>2026-05-03T10:25:24.874Z</time></trkpt><trkpt lat="42.2147746" lon="13.8226922"><ele>317.0</ele><time>2026-05-03T10:25:25.874Z</time></trkpt><trkpt lat="42.2146838" lon="13.822741"><ele>317.0</ele><time>2026-05-03T10:25:26.874Z</time></trkpt><trkpt lat="42.2145972" lon="13.8227675"><ele>317.0</ele><time>2026-05-03T10:25:27.875Z</time></trkpt><trkpt lat="42.2145134" lon="13.8227713"><ele>317.0</ele><time>2026-05-03T10:25:28.875Z</time></trkpt><trkpt lat="42.2144374" lon="13.822744"><ele>317.0</ele><time>2026-05-03T10:25:29.875Z</time></trkpt><trkpt lat="42.214373" lon="13.8227022"><ele>317.0</ele><time>2026-05-03T10:25:30.874Z</time></trkpt><trkpt lat="42.2143158" lon="13.822655"><ele>317.0</ele><time>2026-05-03T10:25:31.875Z</time></trkpt><trkpt lat="42.2142209" lon="13.8225638"><ele>317.0</ele><time>2026-05-03T10:25:33.875Z</time></trkpt><trkpt lat="42.2141785" lon="13.8224999"><ele>317.0</ele><time>2026-05-03T10:25:34.874Z</time></trkpt><trkpt lat="42.2141143" lon="13.8223701"><ele>317.0</ele><time>2026-05-03T10:25:36.875Z</time></trkpt><trkpt lat="42.2140746" lon="13.8222516"><ele>317.0</ele><time>2026-05-03T10:25:38.874Z</time></trkpt><trkpt lat="42.2140668" lon="13.8221425"><ele>317.0</ele><time>2026-05-03T10:25:40.875Z</time></trkpt><trkpt lat="42.2140243" lon="13.8220535"><ele>317.0</ele><time>2026-05-03T10:26:02.874Z</time></trkpt><trkpt lat="42.2139345" lon="13.8220411"><ele>317.0</ele><time>2026-05-03T10:26:04.874Z</time></trkpt><trkpt lat="42.2138147" lon="13.8220605"><ele>317.0</ele><time>2026-05-03T10:26:06.875Z</time></trkpt><trkpt lat="42.2136938" lon="13.8220991"><ele>317.0</ele><time>2026-05-03T10:26:08.875Z</time></trkpt><trkpt lat="42.2136319" lon="13.8221178"><ele>317.0</ele><time>2026-05-03T10:26:09.874Z</time></trkpt><trkpt lat="42.2135663" lon="13.8221405"><ele>317.0</ele><time>2026-05-03T10:26:10.874Z</time></trkpt><trkpt lat="42.2134948" lon="13.8221672"><ele>317.0</ele><time>2026-05-03T10:26:11.874Z</time></trkpt><trkpt lat="42.2134131" lon="13.8221987"><ele>317.0</ele><time>2026-05-03T10:26:12.875Z</time></trkpt><trkpt lat="42.2133341" lon="13.822226"><ele>317.0</ele><time>2026-05-03T10:26:13.874Z</time></trkpt><trkpt lat="42.2132624" lon="13.8222455"><ele>317.0</ele><time>2026-05-03T10:26:14.874Z</time></trkpt><trkpt lat="42.2131577" lon="13.8221982"><ele>317.0</ele><time>2026-05-03T10:26:16.874Z</time></trkpt><trkpt lat="42.2131263" lon="13.8220387"><ele>317.0</ele><time>2026-05-03T10:26:18.875Z</time></trkpt><trkpt lat="42.2131305" lon="13.8219347"><ele>317.0</ele><time>2026-05-03T10:26:19.875Z</time></trkpt><trkpt lat="42.2131388" lon="13.821818"><ele>317.2</ele><time>2026-05-03T10:26:20.874Z</time></trkpt><trkpt lat="42.2131512" lon="13.8216902"><ele>317.4</ele><time>2026-05-03T10:26:21.874Z</time></trkpt><trkpt lat="42.2131685" lon="13.8215502"><ele>317.6</ele><time>2026-05-03T10:26:22.875Z</time></trkpt><trkpt lat="42.2131845" lon="13.8214075"><ele>317.8</ele><time>2026-05-03T10:26:23.874Z</time></trkpt><trkpt lat="42.2131991" lon="13.8212599"><ele>318.0</ele><time>2026-05-03T10:26:24.875Z</time></trkpt><trkpt lat="42.2132103" lon="13.8211196"><ele>318.0</ele><time>2026-05-03T10:26:25.874Z</time></trkpt><trkpt lat="42.2132144" lon="13.8209858"><ele>318.0</ele><time>2026-05-03T10:26:26.875Z</time></trkpt><trkpt lat="42.2132121" lon="13.8208603"><ele>318.0</ele><time>2026-05-03T10:26:27.874Z</time></trkpt><trkpt lat="42.2132053" lon="13.8207231"><ele>318.0</ele><time>2026-05-03T10:26:28.874Z</time></trkpt><trkpt lat="42.21319" lon="13.8205797"><ele>318.0</ele><time>2026-05-03T10:26:29.874Z</time></trkpt><trkpt lat="42.2131811" lon="13.8204389"><ele>317.5</ele><time>2026-05-03T10:26:30.874Z</time></trkpt><trkpt lat="42.2131768" lon="13.8203076"><ele>317.0</ele><time>2026-05-03T10:26:31.875Z</time></trkpt><trkpt lat="42.2131966" lon="13.8201915"><ele>316.5</ele><time>2026-05-03T10:26:32.874Z</time></trkpt><trkpt lat="42.2132392" lon="13.820092"><ele>316.0</ele><time>2026-05-03T10:26:33.875Z</time></trkpt><trkpt lat="42.2133035" lon="13.8200219"><ele>315.5</ele><time>2026-05-03T10:26:34.874Z</time></trkpt><trkpt lat="42.213387" lon="13.8199935"><ele>315.0</ele><time>2026-05-03T10:26:35.875Z</time></trkpt><trkpt lat="42.2134711" lon="13.8200157"><ele>315.0</ele><time>2026-05-03T10:26:36.874Z</time></trkpt><trkpt lat="42.2135392" lon="13.8200829"><ele>315.0</ele><time>2026-05-03T10:26:37.874Z</time></trkpt><trkpt lat="42.2135824" lon="13.8201794"><ele>315.0</ele><time>2026-05-03T10:26:38.874Z</time></trkpt><trkpt lat="42.2135927" lon="13.8202707"><ele>315.0</ele><time>2026-05-03T10:26:39.874Z</time></trkpt><trkpt lat="42.2135608" lon="13.8204089"><ele>315.0</ele><time>2026-05-03T10:26:41.874Z</time></trkpt><trkpt lat="42.2134469" lon="13.820524"><ele>315.0</ele><time>2026-05-03T10:26:43.875Z</time></trkpt><trkpt lat="42.2133603" lon="13.8205822"><ele>315.0</ele><time>2026-05-03T10:26:44.875Z</time></trkpt><trkpt lat="42.2132653" lon="13.8206457"><ele>315.0</ele><time>2026-05-03T10:26:45.874Z</time></trkpt><trkpt lat="42.2131589" lon="13.8207199"><ele>315.0</ele><time>2026-05-03T10:26:46.875Z</time></trkpt><trkpt lat="42.2130413" lon="13.8208005"><ele>315.0</ele><time>2026-05-03T10:26:47.874Z</time></trkpt><trkpt lat="42.2129157" lon="13.8208827"><ele>315.0</ele><time>2026-05-03T10:26:48.875Z</time></trkpt><trkpt lat="42.2127878" lon="13.8209645"><ele>315.0</ele><time>2026-05-03T10:26:49.874Z</time></trkpt><trkpt lat="42.2126574" lon="13.8210538"><ele>315.0</ele><time>2026-05-03T10:26:50.874Z</time></trkpt><trkpt lat="42.2125217" lon="13.8211455"><ele>315.0</ele><time>2026-05-03T10:26:51.874Z</time></trkpt><trkpt lat="42.2123782" lon="13.8212376"><ele>315.0</ele><time>2026-05-03T10:26:52.875Z</time></trkpt><trkpt lat="42.212233" lon="13.8213302"><ele>315.0</ele><time>2026-05-03T10:26:53.875Z</time></trkpt><trkpt lat="42.212083" lon="13.8214256"><ele>315.3333333333333</ele><time>2026-05-03T10:26:54.874Z</time></trkpt><trkpt lat="42.2119308" lon="13.8215244"><ele>315.66666666666663</ele><time>2026-05-03T10:26:55.875Z</time></trkpt><trkpt lat="42.2117749" lon="13.8216225"><ele>316.0</ele><time>2026-05-03T10:26:56.875Z</time></trkpt><trkpt lat="42.2116163" lon="13.821727"><ele>314.66666666666663</ele><time>2026-05-03T10:26:57.875Z</time></trkpt><trkpt lat="42.2114563" lon="13.8218303"><ele>313.3333333333333</ele><time>2026-05-03T10:26:58.874Z</time></trkpt><trkpt lat="42.2112958" lon="13.8219326"><ele>312.0</ele><time>2026-05-03T10:26:59.874Z</time></trkpt><trkpt lat="42.2111371" lon="13.8220367"><ele>312.0</ele><time>2026-05-03T10:27:00.874Z</time></trkpt><trkpt lat="42.2109797" lon="13.8221404"><ele>312.0</ele><time>2026-05-03T10:27:01.874Z</time></trkpt><trkpt lat="42.2108207" lon="13.822244"><ele>312.0</ele><time>2026-05-03T10:27:02.875Z</time></trkpt><trkpt lat="42.2106631" lon="13.8223447"><ele>311.6666666666667</ele><time>2026-05-03T10:27:03.875Z</time></trkpt><trkpt lat="42.2105059" lon="13.8224512"><ele>311.33333333333337</ele><time>2026-05-03T10:27:04.875Z</time></trkpt><trkpt lat="42.2103504" lon="13.8225511"><ele>311.0</ele><time>2026-05-03T10:27:05.874Z</time></trkpt><trkpt lat="42.2101968" lon="13.8226529"><ele>311.0</ele><time>2026-05-03T10:27:06.874Z</time></trkpt><trkpt lat="42.2100426" lon="13.822753"><ele>311.0</ele><time>2026-05-03T10:27:07.874Z</time></trkpt><trkpt lat="42.2098865" lon="13.8228521"><ele>311.0</ele><time>2026-05-03T10:27:08.874Z</time></trkpt><trkpt lat="42.2097353" lon="13.8229495"><ele>313.0</ele><time>2026-05-03T10:27:09.874Z</time></trkpt><trkpt lat="42.209589" lon="13.823046"><ele>315.0</ele><time>2026-05-03T10:27:10.874Z</time></trkpt><trkpt lat="42.2094421" lon="13.8231435"><ele>317.0</ele><time>2026-05-03T10:27:11.874Z</time></trkpt><trkpt lat="42.2092953" lon="13.823241"><ele>317.0</ele><time>2026-05-03T10:27:12.874Z</time></trkpt><trkpt lat="42.209154" lon="13.8233414"><ele>317.0</ele><time>2026-05-03T10:27:13.875Z</time></trkpt><trkpt lat="42.2090124" lon="13.8234459"><ele>317.0</ele><time>2026-05-03T10:27:14.874Z</time></trkpt><trkpt lat="42.2088736" lon="13.8235589"><ele>317.6666666666667</ele><time>2026-05-03T10:27:15.875Z</time></trkpt><trkpt lat="42.2087367" lon="13.823675"><ele>318.3333333333333</ele><time>2026-05-03T10:27:16.874Z</time></trkpt><trkpt lat="42.2086023" lon="13.8237992"><ele>319.0</ele><time>2026-05-03T10:27:17.874Z</time></trkpt><trkpt lat="42.208471" lon="13.8239281"><ele>319.0</ele><time>2026-05-03T10:27:18.875Z</time></trkpt><trkpt lat="42.2083421" lon="13.8240625"><ele>319.0</ele><time>2026-05-03T10:27:19.874Z</time></trkpt><trkpt lat="42.2082151" lon="13.8242053"><ele>319.0</ele><time>2026-05-03T10:27:20.875Z</time></trkpt><trkpt lat="42.2080903" lon="13.8243574"><ele>322.3333333333333</ele><time>2026-05-03T10:27:21.874Z</time></trkpt><trkpt lat="42.2079708" lon="13.8245167"><ele>325.6666666666667</ele><time>2026-05-03T10:27:22.874Z</time></trkpt><trkpt lat="42.2078561" lon="13.8246853"><ele>329.0</ele><time>2026-05-03T10:27:23.875Z</time></trkpt><trkpt lat="42.207749" lon="13.8248666"><ele>329.0</ele><time>2026-05-03T10:27:24.874Z</time></trkpt><trkpt lat="42.2076491" lon="13.8250559"><ele>329.0</ele><time>2026-05-03T10:27:25.875Z</time></trkpt><trkpt lat="42.2075491" lon="13.8252487"><ele>329.0</ele><time>2026-05-03T10:27:26.875Z</time></trkpt><trkpt lat="42.2074462" lon="13.8254422"><ele>332.6666666666667</ele><time>2026-05-03T10:27:27.874Z</time></trkpt><trkpt lat="42.207343" lon="13.8256374"><ele>336.3333333333333</ele><time>2026-05-03T10:27:28.874Z</time></trkpt><trkpt lat="42.2072363" lon="13.8258312"><ele>340.0</ele><time>2026-05-03T10:27:29.874Z</time></trkpt><trkpt lat="42.2071285" lon="13.8260195"><ele>331.0</ele><time>2026-05-03T10:27:30.874Z</time></trkpt><trkpt lat="42.2070158" lon="13.826199"><ele>322.0</ele><time>2026-05-03T10:27:31.874Z</time></trkpt><trkpt lat="42.2068988" lon="13.826371"><ele>313.0</ele><time>2026-05-03T10:27:32.875Z</time></trkpt><trkpt lat="42.2067792" lon="13.8265351"><ele>313.0</ele><time>2026-05-03T10:27:33.874Z</time></trkpt><trkpt lat="42.2066575" lon="13.826695"><ele>313.0</ele><time>2026-05-03T10:27:34.873Z</time></trkpt><trkpt lat="42.2065387" lon="13.8268544"><ele>313.0</ele><time>2026-05-03T10:27:35.873Z</time></trkpt><trkpt lat="42.2064221" lon="13.8270154"><ele>316.66666666666663</ele><time>2026-05-03T10:27:36.873Z</time></trkpt><trkpt lat="42.2063106" lon="13.8271786"><ele>320.3333333333333</ele><time>2026-05-03T10:27:37.873Z</time></trkpt><trkpt lat="42.2062064" lon="13.8273494"><ele>324.0</ele><time>2026-05-03T10:27:38.874Z</time></trkpt><trkpt lat="42.206113" lon="13.8275289"><ele>317.6666666666667</ele><time>2026-05-03T10:27:39.873Z</time></trkpt><trkpt lat="42.2060252" lon="13.827723"><ele>311.33333333333337</ele><time>2026-05-03T10:27:40.873Z</time></trkpt><trkpt lat="42.20595" lon="13.8279366"><ele>305.0</ele><time>2026-05-03T10:27:41.873Z</time></trkpt><trkpt lat="42.2058875" lon="13.8281665"><ele>305.0</ele><time>2026-05-03T10:27:42.873Z</time></trkpt><trkpt lat="42.2058355" lon="13.8284112"><ele>305.0</ele><time>2026-05-03T10:27:43.873Z</time></trkpt><trkpt lat="42.2057859" lon="13.8286642"><ele>305.0</ele><time>2026-05-03T10:27:44.873Z</time></trkpt><trkpt lat="42.2057377" lon="13.8289241"><ele>308.0</ele><time>2026-05-03T10:27:45.873Z</time></trkpt><trkpt lat="42.2056922" lon="13.8291894"><ele>311.0</ele><time>2026-05-03T10:27:46.873Z</time></trkpt><trkpt lat="42.2056479" lon="13.8294569"><ele>314.0</ele><time>2026-05-03T10:27:47.874Z</time></trkpt><trkpt lat="42.2056022" lon="13.8297251"><ele>314.0</ele><time>2026-05-03T10:27:48.873Z</time></trkpt><trkpt lat="42.2055577" lon="13.8299903"><ele>314.0</ele><time>2026-05-03T10:27:49.874Z</time></trkpt><trkpt lat="42.2055138" lon="13.8302537"><ele>314.0</ele><time>2026-05-03T10:27:50.874Z</time></trkpt><trkpt lat="42.2054685" lon="13.8305128"><ele>310.6666666666667</ele><time>2026-05-03T10:27:51.873Z</time></trkpt><trkpt lat="42.2054229" lon="13.8307696"><ele>307.3333333333333</ele><time>2026-05-03T10:27:52.873Z</time></trkpt><trkpt lat="42.2053755" lon="13.8310251"><ele>304.0</ele><time>2026-05-03T10:27:53.873Z</time></trkpt><trkpt lat="42.2053246" lon="13.8312841"><ele>301.3333333333333</ele><time>2026-05-03T10:27:54.873Z</time></trkpt><trkpt lat="42.2052657" lon="13.8315423"><ele>298.6666666666667</ele><time>2026-05-03T10:27:55.873Z</time></trkpt><trkpt lat="42.2052014" lon="13.8317991"><ele>296.0</ele><time>2026-05-03T10:27:56.873Z</time></trkpt><trkpt lat="42.2051296" lon="13.8320553"><ele>291.33333333333337</ele><time>2026-05-03T10:27:57.874Z</time></trkpt><trkpt lat="42.2050486" lon="13.832308"><ele>286.6666666666667</ele><time>2026-05-03T10:27:58.875Z</time></trkpt><trkpt lat="42.2049582" lon="13.8325548"><ele>282.0</ele><time>2026-05-03T10:27:59.873Z</time></trkpt><trkpt lat="42.2048641" lon="13.8328019"><ele>282.0</ele><time>2026-05-03T10:28:00.874Z</time></trkpt><trkpt lat="42.2047667" lon="13.8330465"><ele>282.0</ele><time>2026-05-03T10:28:01.874Z</time></trkpt><trkpt lat="42.2046699" lon="13.8332895"><ele>282.0</ele><time>2026-05-03T10:28:02.874Z</time></trkpt><trkpt lat="42.2045757" lon="13.8335298"><ele>282.0</ele><time>2026-05-03T10:28:03.873Z</time></trkpt><trkpt lat="42.2044788" lon="13.8337696"><ele>282.0</ele><time>2026-05-03T10:28:04.874Z</time></trkpt><trkpt lat="42.2043822" lon="13.8340089"><ele>282.0</ele><time>2026-05-03T10:28:05.873Z</time></trkpt><trkpt lat="42.2042883" lon="13.8342471"><ele>277.0</ele><time>2026-05-03T10:28:06.873Z</time></trkpt><trkpt lat="42.2041965" lon="13.8344844"><ele>272.0</ele><time>2026-05-03T10:28:07.873Z</time></trkpt><trkpt lat="42.2041033" lon="13.8347186"><ele>267.0</ele><time>2026-05-03T10:28:08.872Z</time></trkpt><trkpt lat="42.2040137" lon="13.834945"><ele>269.6666666666667</ele><time>2026-05-03T10:28:09.874Z</time></trkpt><trkpt lat="42.203924" lon="13.8351653"><ele>272.33333333333337</ele><time>2026-05-03T10:28:10.874Z</time></trkpt><trkpt lat="42.2038315" lon="13.8353804"><ele>275.0</ele><time>2026-05-03T10:28:11.873Z</time></trkpt><trkpt lat="42.203736" lon="13.8355928"><ele>275.0</ele><time>2026-05-03T10:28:12.874Z</time></trkpt><trkpt lat="42.2036305" lon="13.8357952"><ele>275.0</ele><time>2026-05-03T10:28:13.873Z</time></trkpt><trkpt lat="42.203514" lon="13.8359871"><ele>275.0</ele><time>2026-05-03T10:28:14.873Z</time></trkpt><trkpt lat="42.203387" lon="13.836164"><ele>271.33333333333337</ele><time>2026-05-03T10:28:15.873Z</time></trkpt><trkpt lat="42.2032523" lon="13.8363287"><ele>267.6666666666667</ele><time>2026-05-03T10:28:16.873Z</time></trkpt><trkpt lat="42.2031115" lon="13.8364829"><ele>264.0</ele><time>2026-05-03T10:28:17.874Z</time></trkpt><trkpt lat="42.2029624" lon="13.836624"><ele>264.0</ele><time>2026-05-03T10:28:18.873Z</time></trkpt><trkpt lat="42.2028082" lon="13.8367566"><ele>264.0</ele><time>2026-05-03T10:28:19.874Z</time></trkpt><trkpt lat="42.2026441" lon="13.8368678"><ele>264.0</ele><time>2026-05-03T10:28:20.874Z</time></trkpt><trkpt lat="42.2024739" lon="13.8369634"><ele>260.6666666666667</ele><time>2026-05-03T10:28:21.873Z</time></trkpt><trkpt lat="42.2023007" lon="13.837049"><ele>257.33333333333337</ele><time>2026-05-03T10:28:22.873Z</time></trkpt><trkpt lat="42.2021249" lon="13.8371181"><ele>254.0</ele><time>2026-05-03T10:28:23.874Z</time></trkpt><trkpt lat="42.2019469" lon="13.8371766"><ele>254.0</ele><time>2026-05-03T10:28:24.874Z</time></trkpt><trkpt lat="42.2017656" lon="13.8372198"><ele>254.0</ele><time>2026-05-03T10:28:25.873Z</time></trkpt><trkpt lat="42.2015827" lon="13.8372495"><ele>254.0</ele><time>2026-05-03T10:28:26.874Z</time></trkpt><trkpt lat="42.201397" lon="13.837277"><ele>255.0</ele><time>2026-05-03T10:28:27.873Z</time></trkpt><trkpt lat="42.201209" lon="13.8373046"><ele>256.0</ele><time>2026-05-03T10:28:28.873Z</time></trkpt><trkpt lat="42.2010192" lon="13.8373318"><ele>257.0</ele><time>2026-05-03T10:28:29.873Z</time></trkpt><trkpt lat="42.2008292" lon="13.8373595"><ele>259.0</ele><time>2026-05-03T10:28:30.874Z</time></trkpt><trkpt lat="42.2006389" lon="13.8373869"><ele>261.0</ele><time>2026-05-03T10:28:31.872Z</time></trkpt><trkpt lat="42.2004509" lon="13.8374139"><ele>263.0</ele><time>2026-05-03T10:28:32.874Z</time></trkpt><trkpt lat="42.2002644" lon="13.8374414"><ele>263.0</ele><time>2026-05-03T10:28:33.874Z</time></trkpt><trkpt lat="42.2000819" lon="13.8374684"><ele>263.0</ele><time>2026-05-03T10:28:34.873Z</time></trkpt><trkpt lat="42.1998997" lon="13.8374961"><ele>263.0</ele><time>2026-05-03T10:28:35.873Z</time></trkpt><trkpt lat="42.1997189" lon="13.8375252"><ele>265.0</ele><time>2026-05-03T10:28:36.873Z</time></trkpt><trkpt lat="42.1995423" lon="13.8375507"><ele>267.0</ele><time>2026-05-03T10:28:37.873Z</time></trkpt><trkpt lat="42.1993671" lon="13.8375713"><ele>269.0</ele><time>2026-05-03T10:28:38.873Z</time></trkpt><trkpt lat="42.1991939" lon="13.8375814"><ele>269.0</ele><time>2026-05-03T10:28:39.873Z</time></trkpt><trkpt lat="42.1990215" lon="13.837576"><ele>269.0</ele><time>2026-05-03T10:28:40.873Z</time></trkpt><trkpt lat="42.1988481" lon="13.8375486"><ele>269.0</ele><time>2026-05-03T10:28:41.874Z</time></trkpt><trkpt lat="42.1986745" lon="13.8375048"><ele>268.0</ele><time>2026-05-03T10:28:42.874Z</time></trkpt><trkpt lat="42.1984994" lon="13.8374643"><ele>267.0</ele><time>2026-05-03T10:28:43.874Z</time></trkpt><trkpt lat="42.1983238" lon="13.8374334"><ele>266.0</ele><time>2026-05-03T10:28:44.874Z</time></trkpt><trkpt lat="42.1981496" lon="13.8374237"><ele>265.33333333333337</ele><time>2026-05-03T10:28:45.873Z</time></trkpt><trkpt lat="42.1979725" lon="13.837424"><ele>264.6666666666667</ele><time>2026-05-03T10:28:46.873Z</time></trkpt><trkpt lat="42.1977981" lon="13.8374484"><ele>264.0</ele><time>2026-05-03T10:28:47.874Z</time></trkpt><trkpt lat="42.1976263" lon="13.8374982"><ele>264.0</ele><time>2026-05-03T10:28:48.874Z</time></trkpt><trkpt lat="42.1974609" lon="13.8375693"><ele>264.0</ele><time>2026-05-03T10:28:49.873Z</time></trkpt><trkpt lat="42.1972968" lon="13.837658"><ele>264.0</ele><time>2026-05-03T10:28:50.873Z</time></trkpt><trkpt lat="42.1971331" lon="13.8377611"><ele>265.6666666666667</ele><time>2026-05-03T10:28:51.873Z</time></trkpt><trkpt lat="42.1969745" lon="13.837882"><ele>267.33333333333337</ele><time>2026-05-03T10:28:52.873Z</time></trkpt><trkpt lat="42.1968217" lon="13.838023"><ele>269.0</ele><time>2026-05-03T10:28:53.874Z</time></trkpt><trkpt lat="42.1966794" lon="13.8381812"><ele>269.0</ele><time>2026-05-03T10:28:54.874Z</time></trkpt><trkpt lat="42.1965493" lon="13.8383582"><ele>269.0</ele><time>2026-05-03T10:28:55.874Z</time></trkpt><trkpt lat="42.1964293" lon="13.8385466"><ele>269.0</ele><time>2026-05-03T10:28:56.874Z</time></trkpt><trkpt lat="42.1963227" lon="13.8387514"><ele>273.0</ele><time>2026-05-03T10:28:57.873Z</time></trkpt><trkpt lat="42.1962322" lon="13.8389709"><ele>277.0</ele><time>2026-05-03T10:28:58.874Z</time></trkpt><trkpt lat="42.196159" lon="13.8392018"><ele>281.0</ele><time>2026-05-03T10:28:59.873Z</time></trkpt><trkpt lat="42.1960985" lon="13.8394368"><ele>281.0</ele><time>2026-05-03T10:29:00.873Z</time></trkpt><trkpt lat="42.1960519" lon="13.8396769"><ele>281.0</ele><time>2026-05-03T10:29:01.874Z</time></trkpt><trkpt lat="42.1960198" lon="13.8399171"><ele>281.0</ele><time>2026-05-03T10:29:02.874Z</time></trkpt><trkpt lat="42.1960016" lon="13.8401593"><ele>279.0</ele><time>2026-05-03T10:29:03.873Z</time></trkpt><trkpt lat="42.19599" lon="13.8404034"><ele>277.0</ele><time>2026-05-03T10:29:04.873Z</time></trkpt><trkpt lat="42.1959778" lon="13.8406464"><ele>275.0</ele><time>2026-05-03T10:29:05.873Z</time></trkpt><trkpt lat="42.1959639" lon="13.8408901"><ele>272.33333333333337</ele><time>2026-05-03T10:29:06.873Z</time></trkpt><trkpt lat="42.1959463" lon="13.841132"><ele>269.6666666666667</ele><time>2026-05-03T10:29:07.873Z</time></trkpt><trkpt lat="42.1959221" lon="13.8413695"><ele>267.0</ele><time>2026-05-03T10:29:08.874Z</time></trkpt><trkpt lat="42.1958782" lon="13.8416005"><ele>263.3333333333333</ele><time>2026-05-03T10:29:09.873Z</time></trkpt><trkpt lat="42.1958172" lon="13.8418227"><ele>259.66666666666663</ele><time>2026-05-03T10:29:10.873Z</time></trkpt><trkpt lat="42.1957422" lon="13.8420372"><ele>256.0</ele><time>2026-05-03T10:29:11.873Z</time></trkpt><trkpt lat="42.1956529" lon="13.8422401"><ele>276.3333333333333</ele><time>2026-05-03T10:29:12.874Z</time></trkpt><trkpt lat="42.1955513" lon="13.8424316"><ele>296.6666666666667</ele><time>2026-05-03T10:29:13.874Z</time></trkpt><trkpt lat="42.1954351" lon="13.8426093"><ele>317.0</ele><time>2026-05-03T10:29:14.873Z</time></trkpt><trkpt lat="42.1953102" lon="13.8427853"><ele>321.33333333333337</ele><time>2026-05-03T10:29:15.873Z</time></trkpt><trkpt lat="42.1951776" lon="13.842951"><ele>325.6666666666667</ele><time>2026-05-03T10:29:16.873Z</time></trkpt><trkpt lat="42.1950378" lon="13.8431098"><ele>330.0</ele><time>2026-05-03T10:29:17.874Z</time></trkpt><trkpt lat="42.1949013" lon="13.8432612"><ele>340.0</ele><time>2026-05-03T10:29:18.874Z</time></trkpt><trkpt lat="42.1947614" lon="13.8434121"><ele>350.0</ele><time>2026-05-03T10:29:19.873Z</time></trkpt><trkpt lat="42.1946208" lon="13.8435616"><ele>360.0</ele><time>2026-05-03T10:29:20.873Z</time></trkpt><trkpt lat="42.1918268" lon="13.8463424"><ele>332.0</ele><time>2026-05-03T10:29:38.873Z</time></trkpt><trkpt lat="42.1917096" lon="13.8464713"><ele>304.0</ele><time>2026-05-03T10:29:39.874Z</time></trkpt><trkpt lat="42.1915904" lon="13.8465909"><ele>276.0</ele><time>2026-05-03T10:29:40.874Z</time></trkpt><trkpt lat="42.191474" lon="13.8467128"><ele>248.0</ele><time>2026-05-03T10:29:41.874Z</time></trkpt><trkpt lat="42.1913574" lon="13.8468327"><ele>247.0</ele><time>2026-05-03T10:29:42.873Z</time></trkpt><trkpt lat="42.1912459" lon="13.8469477"><ele>246.0</ele><time>2026-05-03T10:29:43.874Z</time></trkpt><trkpt lat="42.1911334" lon="13.8470598"><ele>245.0</ele><time>2026-05-03T10:29:44.873Z</time></trkpt><trkpt lat="42.1910244" lon="13.8471665"><ele>244.0</ele><time>2026-05-03T10:29:45.873Z</time></trkpt><trkpt lat="42.1909153" lon="13.8472705"><ele>244.0</ele><time>2026-05-03T10:29:46.874Z</time></trkpt><trkpt lat="42.1908119" lon="13.8473679"><ele>243.99999999999997</ele><time>2026-05-03T10:29:47.874Z</time></trkpt><trkpt lat="42.190713" lon="13.8474451"><ele>243.99999999999997</ele><time>2026-05-03T10:29:48.873Z</time></trkpt><trkpt lat="42.1906167" lon="13.8474994"><ele>244.0</ele><time>2026-05-03T10:29:49.874Z</time></trkpt><trkpt lat="42.1905205" lon="13.8475372"><ele>244.0</ele><time>2026-05-03T10:29:50.873Z</time></trkpt><trkpt lat="42.1904238" lon="13.8475642"><ele>244.2</ele><time>2026-05-03T10:29:51.874Z</time></trkpt><trkpt lat="42.1903287" lon="13.8476016"><ele>244.39999999999998</ele><time>2026-05-03T10:29:52.874Z</time></trkpt><trkpt lat="42.1902494" lon="13.8476743"><ele>244.6</ele><time>2026-05-03T10:29:53.874Z</time></trkpt><trkpt lat="42.1901982" lon="13.847769"><ele>244.8</ele><time>2026-05-03T10:29:54.873Z</time></trkpt><trkpt lat="42.1901792" lon="13.8478801"><ele>245.0</ele><time>2026-05-03T10:29:55.873Z</time></trkpt><trkpt lat="42.1901976" lon="13.8479923"><ele>246.6</ele><time>2026-05-03T10:29:56.874Z</time></trkpt><trkpt lat="42.1902515" lon="13.8480842"><ele>248.2</ele><time>2026-05-03T10:29:57.874Z</time></trkpt><trkpt lat="42.1903263" lon="13.8481533"><ele>249.8</ele><time>2026-05-03T10:29:58.873Z</time></trkpt><trkpt lat="42.1904128" lon="13.8482246"><ele>251.4</ele><time>2026-05-03T10:29:59.873Z</time></trkpt><trkpt lat="42.1904991" lon="13.8483115"><ele>253.0</ele><time>2026-05-03T10:30:00.875Z</time></trkpt><trkpt lat="42.1905823" lon="13.8484185"><ele>251.5</ele><time>2026-05-03T10:30:01.873Z</time></trkpt><trkpt lat="42.1906583" lon="13.848543"><ele>250.0</ele><time>2026-05-03T10:30:02.873Z</time></trkpt><trkpt lat="42.1907321" lon="13.8486701"><ele>248.5</ele><time>2026-05-03T10:30:03.873Z</time></trkpt><trkpt lat="42.1908096" lon="13.8488106"><ele>247.0</ele><time>2026-05-03T10:30:04.874Z</time></trkpt><trkpt lat="42.1908865" lon="13.848973"><ele>247.0</ele><time>2026-05-03T10:30:05.873Z</time></trkpt><trkpt lat="42.1909698" lon="13.8491477"><ele>247.0</ele><time>2026-05-03T10:30:06.873Z</time></trkpt><trkpt lat="42.1910571" lon="13.8493227"><ele>247.0</ele><time>2026-05-03T10:30:07.873Z</time></trkpt><trkpt lat="42.1911502" lon="13.8494979"><ele>254.66666666666666</ele><time>2026-05-03T10:30:08.873Z</time></trkpt><trkpt lat="42.1912464" lon="13.8496731"><ele>262.3333333333333</ele><time>2026-05-03T10:30:09.873Z</time></trkpt><trkpt lat="42.1913466" lon="13.8498492"><ele>270.0</ele><time>2026-05-03T10:30:10.873Z</time></trkpt><trkpt lat="42.1914525" lon="13.8500248"><ele>267.3333333333333</ele><time>2026-05-03T10:30:11.874Z</time></trkpt><trkpt lat="42.1915662" lon="13.850198"><ele>264.66666666666663</ele><time>2026-05-03T10:30:12.873Z</time></trkpt><trkpt lat="42.1916894" lon="13.8503626"><ele>262.0</ele><time>2026-05-03T10:30:13.873Z</time></trkpt><trkpt lat="42.1918183" lon="13.8505219"><ele>262.0</ele><time>2026-05-03T10:30:14.873Z</time></trkpt><trkpt lat="42.1919531" lon="13.8506747"><ele>262.0</ele><time>2026-05-03T10:30:15.873Z</time></trkpt><trkpt lat="42.1920911" lon="13.8508196"><ele>262.0</ele><time>2026-05-03T10:30:16.873Z</time></trkpt><trkpt lat="42.1922375" lon="13.8509533"><ele>262.3333333333333</ele><time>2026-05-03T10:30:17.873Z</time></trkpt><trkpt lat="42.1923794" lon="13.8510808"><ele>262.6666666666667</ele><time>2026-05-03T10:30:18.874Z</time></trkpt><trkpt lat="42.1925157" lon="13.8512189"><ele>263.0</ele><time>2026-05-03T10:30:19.873Z</time></trkpt><trkpt lat="42.1926504" lon="13.8513633"><ele>263.0</ele><time>2026-05-03T10:30:20.874Z</time></trkpt><trkpt lat="42.1927829" lon="13.8515183"><ele>263.0</ele><time>2026-05-03T10:30:21.873Z</time></trkpt><trkpt lat="42.1929176" lon="13.8516645"><ele>263.0</ele><time>2026-05-03T10:30:22.873Z</time></trkpt><trkpt lat="42.1930635" lon="13.8517854"><ele>268.33333333333337</ele><time>2026-05-03T10:30:23.873Z</time></trkpt><trkpt lat="42.1932187" lon="13.851882"><ele>273.6666666666667</ele><time>2026-05-03T10:30:24.873Z</time></trkpt><trkpt lat="42.1933809" lon="13.8519501"><ele>279.0</ele><time>2026-05-03T10:30:25.874Z</time></trkpt><trkpt lat="42.1935487" lon="13.851998"><ele>279.0</ele><time>2026-05-03T10:30:26.874Z</time></trkpt><trkpt lat="42.1937208" lon="13.8520279"><ele>279.0</ele><time>2026-05-03T10:30:27.873Z</time></trkpt><trkpt lat="42.1938936" lon="13.8520545"><ele>279.0</ele><time>2026-05-03T10:30:28.874Z</time></trkpt><trkpt lat="42.1940674" lon="13.8520834"><ele>272.3333333333333</ele><time>2026-05-03T10:30:29.874Z</time></trkpt><trkpt lat="42.194237" lon="13.852111"><ele>265.66666666666663</ele><time>2026-05-03T10:30:30.874Z</time></trkpt><trkpt lat="42.1944048" lon="13.8521417"><ele>259.0</ele><time>2026-05-03T10:30:31.874Z</time></trkpt><trkpt lat="42.194563" lon="13.8521954"><ele>259.0</ele><time>2026-05-03T10:30:32.873Z</time></trkpt><trkpt lat="42.1947144" lon="13.8522764"><ele>259.0</ele><time>2026-05-03T10:30:33.874Z</time></trkpt><trkpt lat="42.1948573" lon="13.8523797"><ele>259.0</ele><time>2026-05-03T10:30:34.874Z</time></trkpt><trkpt lat="42.1949862" lon="13.8525122"><ele>261.0</ele><time>2026-05-03T10:30:35.873Z</time></trkpt><trkpt lat="42.1950984" lon="13.8526639"><ele>263.0</ele><time>2026-05-03T10:30:36.873Z</time></trkpt><trkpt lat="42.195197" lon="13.8528351"><ele>265.0</ele><time>2026-05-03T10:30:37.874Z</time></trkpt><trkpt lat="42.1952828" lon="13.8530198"><ele>265.0</ele><time>2026-05-03T10:30:38.874Z</time></trkpt><trkpt lat="42.1953598" lon="13.8532193"><ele>265.0</ele><time>2026-05-03T10:30:39.873Z</time></trkpt><trkpt lat="42.1954273" lon="13.8534309"><ele>265.0</ele><time>2026-05-03T10:30:40.874Z</time></trkpt><trkpt lat="42.1954919" lon="13.8536494"><ele>270.0</ele><time>2026-05-03T10:30:41.873Z</time></trkpt><trkpt lat="42.1955601" lon="13.8538714"><ele>275.0</ele><time>2026-05-03T10:30:42.873Z</time></trkpt><trkpt lat="42.1956294" lon="13.8540923"><ele>280.0</ele><time>2026-05-03T10:30:43.875Z</time></trkpt><trkpt lat="42.1956954" lon="13.8543129"><ele>269.66666666666663</ele><time>2026-05-03T10:30:44.874Z</time></trkpt><trkpt lat="42.1957577" lon="13.8545292"><ele>259.3333333333333</ele><time>2026-05-03T10:30:45.873Z</time></trkpt><trkpt lat="42.1958154" lon="13.8547441"><ele>249.0</ele><time>2026-05-03T10:30:46.873Z</time></trkpt><trkpt lat="42.1958586" lon="13.8549628"><ele>249.0</ele><time>2026-05-03T10:30:47.874Z</time></trkpt><trkpt lat="42.1958776" lon="13.8551873"><ele>249.0</ele><time>2026-05-03T10:30:48.874Z</time></trkpt><trkpt lat="42.1958774" lon="13.8554196"><ele>249.0</ele><time>2026-05-03T10:30:49.874Z</time></trkpt><trkpt lat="42.1958681" lon="13.8556584"><ele>249.0</ele><time>2026-05-03T10:30:50.874Z</time></trkpt><trkpt lat="42.1958584" lon="13.8559016"><ele>249.0</ele><time>2026-05-03T10:30:51.873Z</time></trkpt><trkpt lat="42.1958467" lon="13.8561473"><ele>249.0</ele><time>2026-05-03T10:30:52.873Z</time></trkpt><trkpt lat="42.1958334" lon="13.8563924"><ele>248.66666666666669</ele><time>2026-05-03T10:30:53.873Z</time></trkpt><trkpt lat="42.1958199" lon="13.8566381"><ele>248.33333333333334</ele><time>2026-05-03T10:30:54.873Z</time></trkpt><trkpt lat="42.1958096" lon="13.8568829"><ele>248.0</ele><time>2026-05-03T10:30:55.873Z</time></trkpt><trkpt lat="42.195797" lon="13.8571224"><ele>248.0</ele><time>2026-05-03T10:30:56.873Z</time></trkpt><trkpt lat="42.1957814" lon="13.8573625"><ele>248.0</ele><time>2026-05-03T10:30:57.873Z</time></trkpt><trkpt lat="42.1957616" lon="13.857606"><ele>248.0</ele><time>2026-05-03T10:30:58.873Z</time></trkpt><trkpt lat="42.1957415" lon="13.8578489"><ele>247.0</ele><time>2026-05-03T10:30:59.874Z</time></trkpt><trkpt lat="42.1957204" lon="13.8580916"><ele>246.0</ele><time>2026-05-03T10:31:00.873Z</time></trkpt><trkpt lat="42.1956934" lon="13.8583366"><ele>245.0</ele><time>2026-05-03T10:31:01.874Z</time></trkpt><trkpt lat="42.195665" lon="13.8585791"><ele>255.33333333333334</ele><time>2026-05-03T10:31:02.873Z</time></trkpt><trkpt lat="42.1956274" lon="13.8588219"><ele>265.6666666666667</ele><time>2026-05-03T10:31:03.874Z</time></trkpt><trkpt lat="42.1955994" lon="13.8590631"><ele>276.0</ele><time>2026-05-03T10:31:04.874Z</time></trkpt><trkpt lat="42.1955715" lon="13.859303"><ele>276.0</ele><time>2026-05-03T10:31:05.873Z</time></trkpt><trkpt lat="42.1955495" lon="13.8595436"><ele>276.0</ele><time>2026-05-03T10:31:06.874Z</time></trkpt><trkpt lat="42.1955313" lon="13.8597857"><ele>276.0</ele><time>2026-05-03T10:31:07.873Z</time></trkpt><trkpt lat="42.1955191" lon="13.8600254"><ele>275.3333333333333</ele><time>2026-05-03T10:31:08.873Z</time></trkpt><trkpt lat="42.1955067" lon="13.8602534"><ele>274.66666666666663</ele><time>2026-05-03T10:31:09.873Z</time></trkpt><trkpt lat="42.1954949" lon="13.8604823"><ele>274.0</ele><time>2026-05-03T10:31:10.874Z</time></trkpt><trkpt lat="42.1954863" lon="13.8607081"><ele>274.0</ele><time>2026-05-03T10:31:11.873Z</time></trkpt><trkpt lat="42.1954846" lon="13.8609261"><ele>274.0</ele><time>2026-05-03T10:31:12.874Z</time></trkpt><trkpt lat="42.1954907" lon="13.8611277"><ele>274.0</ele><time>2026-05-03T10:31:13.874Z</time></trkpt><trkpt lat="42.1955032" lon="13.8613167"><ele>273.75</ele><time>2026-05-03T10:31:14.874Z</time></trkpt><trkpt lat="42.1955183" lon="13.8614929"><ele>273.5</ele><time>2026-05-03T10:31:15.874Z</time></trkpt><trkpt lat="42.1955275" lon="13.8616598"><ele>273.25</ele><time>2026-05-03T10:31:16.873Z</time></trkpt><trkpt lat="42.1955307" lon="13.8618315"><ele>273.0</ele><time>2026-05-03T10:31:17.874Z</time></trkpt><trkpt lat="42.1955445" lon="13.8620073"><ele>274.75</ele><time>2026-05-03T10:31:18.874Z</time></trkpt><trkpt lat="42.1955686" lon="13.8621928"><ele>276.5</ele><time>2026-05-03T10:31:19.873Z</time></trkpt><trkpt lat="42.1956023" lon="13.8623812"><ele>278.25</ele><time>2026-05-03T10:31:20.873Z</time></trkpt><trkpt lat="42.1956506" lon="13.8625716"><ele>280.0</ele><time>2026-05-03T10:31:21.874Z</time></trkpt><trkpt lat="42.1957071" lon="13.8627644"><ele>268.66666666666663</ele><time>2026-05-03T10:31:22.873Z</time></trkpt><trkpt lat="42.1957703" lon="13.8629583"><ele>257.3333333333333</ele><time>2026-05-03T10:31:23.873Z</time></trkpt><trkpt lat="42.1958382" lon="13.8631579"><ele>246.0</ele><time>2026-05-03T10:31:24.873Z</time></trkpt><trkpt lat="42.1959115" lon="13.8633587"><ele>251.33333333333331</ele><time>2026-05-03T10:31:25.874Z</time></trkpt><trkpt lat="42.1959903" lon="13.8635642"><ele>256.66666666666663</ele><time>2026-05-03T10:31:26.873Z</time></trkpt><trkpt lat="42.1960705" lon="13.8637752"><ele>262.0</ele><time>2026-05-03T10:31:27.873Z</time></trkpt><trkpt lat="42.1961513" lon="13.8639872"><ele>262.0</ele><time>2026-05-03T10:31:28.873Z</time></trkpt><trkpt lat="42.1962338" lon="13.8642019"><ele>262.0</ele><time>2026-05-03T10:31:29.873Z</time></trkpt><trkpt lat="42.1963138" lon="13.8644194"><ele>262.0</ele><time>2026-05-03T10:31:30.874Z</time></trkpt><trkpt lat="42.1963931" lon="13.8646392"><ele>267.0</ele><time>2026-05-03T10:31:31.873Z</time></trkpt><trkpt lat="42.1964702" lon="13.8648611"><ele>272.0</ele><time>2026-05-03T10:31:32.873Z</time></trkpt><trkpt lat="42.196547" lon="13.8650858"><ele>277.0</ele><time>2026-05-03T10:31:33.872Z</time></trkpt><trkpt lat="42.1966206" lon="13.8653086"><ele>269.66666666666663</ele><time>2026-05-03T10:31:34.873Z</time></trkpt><trkpt lat="42.1966914" lon="13.8655282"><ele>262.3333333333333</ele><time>2026-05-03T10:31:35.873Z</time></trkpt><trkpt lat="42.196755" lon="13.8657484"><ele>255.0</ele><time>2026-05-03T10:31:36.873Z</time></trkpt><trkpt lat="42.1968127" lon="13.8659733"><ele>255.0</ele><time>2026-05-03T10:31:37.874Z</time></trkpt><trkpt lat="42.1968678" lon="13.8662016"><ele>255.0</ele><time>2026-05-03T10:31:38.873Z</time></trkpt><trkpt lat="42.1969183" lon="13.8664333"><ele>255.0</ele><time>2026-05-03T10:31:39.873Z</time></trkpt><trkpt lat="42.1969673" lon="13.8666634"><ele>257.6666666666667</ele><time>2026-05-03T10:31:40.873Z</time></trkpt><trkpt lat="42.197018" lon="13.8668901"><ele>260.33333333333337</ele><time>2026-05-03T10:31:41.874Z</time></trkpt><trkpt lat="42.1970691" lon="13.867111"><ele>263.0</ele><time>2026-05-03T10:31:42.873Z</time></trkpt><trkpt lat="42.1971202" lon="13.8673277"><ele>263.0</ele><time>2026-05-03T10:31:43.874Z</time></trkpt><trkpt lat="42.1971728" lon="13.8675449"><ele>263.0</ele><time>2026-05-03T10:31:44.874Z</time></trkpt><trkpt lat="42.1972222" lon="13.8677683"><ele>263.0</ele><time>2026-05-03T10:31:45.873Z</time></trkpt><trkpt lat="42.1972724" lon="13.8679944"><ele>264.0</ele><time>2026-05-03T10:31:46.873Z</time></trkpt><trkpt lat="42.1973176" lon="13.8682221"><ele>265.0</ele><time>2026-05-03T10:31:47.873Z</time></trkpt><trkpt lat="42.1973557" lon="13.8684551"><ele>266.0</ele><time>2026-05-03T10:31:48.873Z</time></trkpt><trkpt lat="42.1973884" lon="13.8686939"><ele>257.0</ele><time>2026-05-03T10:31:49.873Z</time></trkpt><trkpt lat="42.1974158" lon="13.8689345"><ele>248.0</ele><time>2026-05-03T10:31:50.873Z</time></trkpt><trkpt lat="42.1974432" lon="13.8691746"><ele>239.0</ele><time>2026-05-03T10:31:51.874Z</time></trkpt><trkpt lat="42.1974702" lon="13.8694158"><ele>238.33333333333334</ele><time>2026-05-03T10:31:52.874Z</time></trkpt><trkpt lat="42.1974993" lon="13.8696608"><ele>237.66666666666669</ele><time>2026-05-03T10:31:53.874Z</time></trkpt><trkpt lat="42.1975298" lon="13.8699075"><ele>237.0</ele><time>2026-05-03T10:31:54.873Z</time></trkpt><trkpt lat="42.1975573" lon="13.8701585"><ele>237.0</ele><time>2026-05-03T10:31:55.873Z</time></trkpt><trkpt lat="42.1975834" lon="13.8704118"><ele>237.0</ele><time>2026-05-03T10:31:56.873Z</time></trkpt><trkpt lat="42.1976127" lon="13.8706657"><ele>237.0</ele><time>2026-05-03T10:31:57.874Z</time></trkpt><trkpt lat="42.197642" lon="13.8709181"><ele>238.0</ele><time>2026-05-03T10:31:58.873Z</time></trkpt><trkpt lat="42.1976705" lon="13.8711692"><ele>239.0</ele><time>2026-05-03T10:31:59.873Z</time></trkpt><trkpt lat="42.1976993" lon="13.8714174"><ele>240.0</ele><time>2026-05-03T10:32:00.873Z</time></trkpt><trkpt lat="42.1977316" lon="13.8716608"><ele>243.33333333333331</ele><time>2026-05-03T10:32:01.873Z</time></trkpt><trkpt lat="42.1977641" lon="13.8718999"><ele>246.66666666666666</ele><time>2026-05-03T10:32:02.874Z</time></trkpt><trkpt lat="42.1977951" lon="13.8721362"><ele>250.0</ele><time>2026-05-03T10:32:03.873Z</time></trkpt><trkpt lat="42.1978306" lon="13.8723694"><ele>250.0</ele><time>2026-05-03T10:32:04.873Z</time></trkpt><trkpt lat="42.1978677" lon="13.8726014"><ele>250.0</ele><time>2026-05-03T10:32:05.874Z</time></trkpt><trkpt lat="42.197907" lon="13.8728324"><ele>250.0</ele><time>2026-05-03T10:32:06.873Z</time></trkpt><trkpt lat="42.1979471" lon="13.8730619"><ele>248.66666666666666</ele><time>2026-05-03T10:32:07.874Z</time></trkpt><trkpt lat="42.197988" lon="13.8732905"><ele>247.33333333333331</ele><time>2026-05-03T10:32:08.873Z</time></trkpt><trkpt lat="42.1980262" lon="13.873518"><ele>246.0</ele><time>2026-05-03T10:32:09.873Z</time></trkpt><trkpt lat="42.1980636" lon="13.8737441"><ele>250.66666666666669</ele><time>2026-05-03T10:32:10.873Z</time></trkpt><trkpt lat="42.1981015" lon="13.8739689"><ele>255.33333333333334</ele><time>2026-05-03T10:32:11.873Z</time></trkpt><trkpt lat="42.1981395" lon="13.8741941"><ele>260.0</ele><time>2026-05-03T10:32:12.873Z</time></trkpt><trkpt lat="42.1981729" lon="13.8744192"><ele>250.66666666666669</ele><time>2026-05-03T10:32:13.874Z</time></trkpt><trkpt lat="42.1982064" lon="13.8746409"><ele>241.33333333333331</ele><time>2026-05-03T10:32:14.874Z</time></trkpt><trkpt lat="42.1982366" lon="13.8748627"><ele>232.0</ele><time>2026-05-03T10:32:15.873Z</time></trkpt><trkpt lat="42.1982645" lon="13.8750841"><ele>229.33333333333331</ele><time>2026-05-03T10:32:16.873Z</time></trkpt><trkpt lat="42.1982764" lon="13.8753037"><ele>226.66666666666669</ele><time>2026-05-03T10:32:17.873Z</time></trkpt><trkpt lat="42.1982668" lon="13.8755191"><ele>224.0</ele><time>2026-05-03T10:32:18.874Z</time></trkpt><trkpt lat="42.19824" lon="13.8757336"><ele>223.66666666666669</ele><time>2026-05-03T10:32:19.874Z</time></trkpt><trkpt lat="42.1981979" lon="13.875945"><ele>223.33333333333331</ele><time>2026-05-03T10:32:20.874Z</time></trkpt><trkpt lat="42.1981516" lon="13.8761566"><ele>223.0</ele><time>2026-05-03T10:32:21.873Z</time></trkpt><trkpt lat="42.1981043" lon="13.8763705"><ele>236.33333333333331</ele><time>2026-05-03T10:32:22.874Z</time></trkpt><trkpt lat="42.198053" lon="13.8765778"><ele>249.66666666666669</ele><time>2026-05-03T10:32:23.874Z</time></trkpt><trkpt lat="42.1980043" lon="13.8767849"><ele>263.0</ele><time>2026-05-03T10:32:24.873Z</time></trkpt><trkpt lat="42.1979665" lon="13.8769911"><ele>263.0</ele><time>2026-05-03T10:32:25.873Z</time></trkpt><trkpt lat="42.1979438" lon="13.8771943"><ele>263.0</ele><time>2026-05-03T10:32:26.874Z</time></trkpt><trkpt lat="42.1979443" lon="13.8773963"><ele>263.0</ele><time>2026-05-03T10:32:27.873Z</time></trkpt><trkpt lat="42.1979662" lon="13.8775938"><ele>264.6666666666667</ele><time>2026-05-03T10:32:28.873Z</time></trkpt><trkpt lat="42.1980039" lon="13.8777889"><ele>266.3333333333333</ele><time>2026-05-03T10:32:29.873Z</time></trkpt><trkpt lat="42.1980572" lon="13.8779835"><ele>268.0</ele><time>2026-05-03T10:32:30.873Z</time></trkpt><trkpt lat="42.1981282" lon="13.8781773"><ele>258.3333333333333</ele><time>2026-05-03T10:32:31.874Z</time></trkpt><trkpt lat="42.1982105" lon="13.878369"><ele>248.66666666666669</ele><time>2026-05-03T10:32:32.873Z</time></trkpt><trkpt lat="42.1983065" lon="13.8785558"><ele>239.0</ele><time>2026-05-03T10:32:33.873Z</time></trkpt><trkpt lat="42.1984205" lon="13.8787249"><ele>239.0</ele><time>2026-05-03T10:32:34.874Z</time></trkpt><trkpt lat="42.1985462" lon="13.8788797"><ele>239.0</ele><time>2026-05-03T10:32:35.873Z</time></trkpt><trkpt lat="42.1986812" lon="13.8790218"><ele>239.0</ele><time>2026-05-03T10:32:36.873Z</time></trkpt><trkpt lat="42.198813" lon="13.8791641"><ele>236.0</ele><time>2026-05-03T10:32:37.873Z</time></trkpt><trkpt lat="42.1989424" lon="13.8793082"><ele>233.0</ele><time>2026-05-03T10:32:38.873Z</time></trkpt><trkpt lat="42.1990636" lon="13.8794637"><ele>230.0</ele><time>2026-05-03T10:32:39.873Z</time></trkpt><trkpt lat="42.1991693" lon="13.8796368"><ele>230.0</ele><time>2026-05-03T10:32:40.873Z</time></trkpt><trkpt lat="42.1992436" lon="13.8798253"><ele>230.0</ele><time>2026-05-03T10:32:41.874Z</time></trkpt><trkpt lat="42.1992855" lon="13.8800321"><ele>230.0</ele><time>2026-05-03T10:32:42.873Z</time></trkpt><trkpt lat="42.1992952" lon="13.8802482"><ele>232.0</ele><time>2026-05-03T10:32:43.874Z</time></trkpt><trkpt lat="42.1992846" lon="13.8804705"><ele>234.0</ele><time>2026-05-03T10:32:44.874Z</time></trkpt><trkpt lat="42.1992682" lon="13.8806962"><ele>236.0</ele><time>2026-05-03T10:32:45.874Z</time></trkpt><trkpt lat="42.1992474" lon="13.8809163"><ele>233.75</ele><time>2026-05-03T10:32:46.873Z</time></trkpt><trkpt lat="42.1992254" lon="13.8811229"><ele>231.5</ele><time>2026-05-03T10:32:47.874Z</time></trkpt><trkpt lat="42.1992111" lon="13.8813247"><ele>229.25</ele><time>2026-05-03T10:32:48.874Z</time></trkpt><trkpt lat="42.1992199" lon="13.8815152"><ele>227.0</ele><time>2026-05-03T10:32:49.873Z</time></trkpt><trkpt lat="42.1992616" lon="13.881702"><ele>229.0</ele><time>2026-05-03T10:32:50.874Z</time></trkpt><trkpt lat="42.1993242" lon="13.8818854"><ele>231.0</ele><time>2026-05-03T10:32:51.875Z</time></trkpt><trkpt lat="42.1993924" lon="13.8820731"><ele>233.0</ele><time>2026-05-03T10:32:52.873Z</time></trkpt><trkpt lat="42.1994625" lon="13.8822678"><ele>233.0</ele><time>2026-05-03T10:32:53.873Z</time></trkpt><trkpt lat="42.1995255" lon="13.8824685"><ele>233.0</ele><time>2026-05-03T10:32:54.873Z</time></trkpt><trkpt lat="42.199579" lon="13.8826745"><ele>233.0</ele><time>2026-05-03T10:32:55.874Z</time></trkpt><trkpt lat="42.1996548" lon="13.8828624"><ele>227.33333333333334</ele><time>2026-05-03T10:32:56.873Z</time></trkpt><trkpt lat="42.199749" lon="13.8830332"><ele>221.66666666666669</ele><time>2026-05-03T10:32:57.874Z</time></trkpt><trkpt lat="42.199851" lon="13.8831934"><ele>216.0</ele><time>2026-05-03T10:32:58.873Z</time></trkpt><trkpt lat="42.1999594" lon="13.8833441"><ele>223.66666666666669</ele><time>2026-05-03T10:32:59.873Z</time></trkpt><trkpt lat="42.2000693" lon="13.8834951"><ele>231.33333333333334</ele><time>2026-05-03T10:33:00.873Z</time></trkpt><trkpt lat="42.2001809" lon="13.8836471"><ele>239.0</ele><time>2026-05-03T10:33:01.873Z</time></trkpt><trkpt lat="42.2002926" lon="13.8838037"><ele>239.0</ele><time>2026-05-03T10:33:02.873Z</time></trkpt><trkpt lat="42.200395" lon="13.8839707"><ele>239.0</ele><time>2026-05-03T10:33:03.874Z</time></trkpt><trkpt lat="42.2004819" lon="13.8841539"><ele>239.0</ele><time>2026-05-03T10:33:04.873Z</time></trkpt><trkpt lat="42.200546" lon="13.8843538"><ele>243.66666666666669</ele><time>2026-05-03T10:33:05.873Z</time></trkpt><trkpt lat="42.2005998" lon="13.8845547"><ele>248.33333333333331</ele><time>2026-05-03T10:33:06.873Z</time></trkpt><trkpt lat="42.2006555" lon="13.8847528"><ele>253.0</ele><time>2026-05-03T10:33:07.873Z</time></trkpt><trkpt lat="42.2007186" lon="13.8849449"><ele>247.0</ele><time>2026-05-03T10:33:08.873Z</time></trkpt><trkpt lat="42.2007948" lon="13.8851306"><ele>241.0</ele><time>2026-05-03T10:33:09.873Z</time></trkpt><trkpt lat="42.200886" lon="13.8853067"><ele>235.0</ele><time>2026-05-03T10:33:10.874Z</time></trkpt><trkpt lat="42.2009952" lon="13.8854654"><ele>235.0</ele><time>2026-05-03T10:33:11.873Z</time></trkpt><trkpt lat="42.2011181" lon="13.8856114"><ele>235.0</ele><time>2026-05-03T10:33:12.874Z</time></trkpt><trkpt lat="42.201244" lon="13.8857542"><ele>235.0</ele><time>2026-05-03T10:33:13.873Z</time></trkpt><trkpt lat="42.2013758" lon="13.8858922"><ele>233.0</ele><time>2026-05-03T10:33:14.873Z</time></trkpt><trkpt lat="42.201511" lon="13.8860299"><ele>231.0</ele><time>2026-05-03T10:33:15.873Z</time></trkpt><trkpt lat="42.2016499" lon="13.8861722"><ele>229.0</ele><time>2026-05-03T10:33:16.874Z</time></trkpt><trkpt lat="42.2017914" lon="13.8863189"><ele>229.0</ele><time>2026-05-03T10:33:17.874Z</time></trkpt><trkpt lat="42.2019344" lon="13.8864722"><ele>229.0</ele><time>2026-05-03T10:33:18.873Z</time></trkpt><trkpt lat="42.2020723" lon="13.8866166"><ele>229.0</ele><time>2026-05-03T10:33:19.873Z</time></trkpt><trkpt lat="42.202197" lon="13.8867454"><ele>227.0</ele><time>2026-05-03T10:33:20.874Z</time></trkpt><trkpt lat="42.2023117" lon="13.8868648"><ele>225.0</ele><time>2026-05-03T10:33:21.874Z</time></trkpt><trkpt lat="42.2024202" lon="13.8869744"><ele>223.0</ele><time>2026-05-03T10:33:22.873Z</time></trkpt><trkpt lat="42.2025283" lon="13.8870893"><ele>221.0</ele><time>2026-05-03T10:33:23.873Z</time></trkpt><trkpt lat="42.2026405" lon="13.8872065"><ele>221.0</ele><time>2026-05-03T10:33:24.873Z</time></trkpt><trkpt lat="42.202757" lon="13.887321"><ele>221.0</ele><time>2026-05-03T10:33:25.874Z</time></trkpt><trkpt lat="42.2028747" lon="13.8874415"><ele>221.0</ele><time>2026-05-03T10:33:26.873Z</time></trkpt><trkpt lat="42.2029973" lon="13.8875665"><ele>221.0</ele><time>2026-05-03T10:33:27.874Z</time></trkpt><trkpt lat="42.2031204" lon="13.8876959"><ele>223.5</ele><time>2026-05-03T10:33:28.873Z</time></trkpt><trkpt lat="42.2032442" lon="13.8878253"><ele>226.0</ele><time>2026-05-03T10:33:29.874Z</time></trkpt><trkpt lat="42.2033596" lon="13.8879472"><ele>228.5</ele><time>2026-05-03T10:33:30.874Z</time></trkpt><trkpt lat="42.2034693" lon="13.8880571"><ele>231.0</ele><time>2026-05-03T10:33:31.873Z</time></trkpt><trkpt lat="42.2035704" lon="13.8881601"><ele>231.0</ele><time>2026-05-03T10:33:32.874Z</time></trkpt><trkpt lat="42.2036673" lon="13.8882597"><ele>231.00000000000003</ele><time>2026-05-03T10:33:33.874Z</time></trkpt><trkpt lat="42.2037528" lon="13.8883583"><ele>231.00000000000003</ele><time>2026-05-03T10:33:34.873Z</time></trkpt><trkpt lat="42.2038302" lon="13.8884548"><ele>231.0</ele><time>2026-05-03T10:33:35.873Z</time></trkpt><trkpt lat="42.2038979" lon="13.8885473"><ele>231.0</ele><time>2026-05-03T10:33:36.873Z</time></trkpt><trkpt lat="42.2039624" lon="13.8886411"><ele>228.8</ele><time>2026-05-03T10:33:37.874Z</time></trkpt><trkpt lat="42.2040271" lon="13.8887434"><ele>226.60000000000002</ele><time>2026-05-03T10:33:38.873Z</time></trkpt><trkpt lat="42.2040932" lon="13.8888594"><ele>224.4</ele><time>2026-05-03T10:33:39.874Z</time></trkpt><trkpt lat="42.2041589" lon="13.8889861"><ele>222.2</ele><time>2026-05-03T10:33:40.873Z</time></trkpt><trkpt lat="42.2042218" lon="13.8891205"><ele>220.0</ele><time>2026-05-03T10:33:41.874Z</time></trkpt><trkpt lat="42.2042819" lon="13.8892619"><ele>220.0</ele><time>2026-05-03T10:33:42.874Z</time></trkpt><trkpt lat="42.2043363" lon="13.8894116"><ele>220.0</ele><time>2026-05-03T10:33:43.873Z</time></trkpt><trkpt lat="42.2043815" lon="13.8895562"><ele>220.0</ele><time>2026-05-03T10:33:44.873Z</time></trkpt><trkpt lat="42.2044063" lon="13.8896693"><ele>220.0</ele><time>2026-05-03T10:33:45.873Z</time></trkpt><trkpt lat="42.2044136" lon="13.8897966"><ele>220.0</ele><time>2026-05-03T10:33:47.873Z</time></trkpt><trkpt lat="42.2043844" lon="13.8899132"><ele>219.99999999999997</ele><time>2026-05-03T10:33:53.873Z</time></trkpt><trkpt lat="42.2043599" lon="13.8900093"><ele>220.0</ele><time>2026-05-03T10:33:55.874Z</time></trkpt><trkpt lat="42.2043557" lon="13.8901122"><ele>220.0</ele><time>2026-05-03T10:34:22.872Z</time></trkpt><trkpt lat="42.2043811" lon="13.8902189"><ele>220.0</ele><time>2026-05-03T10:34:24.872Z</time></trkpt><trkpt lat="42.2044064" lon="13.8902972"><ele>220.0</ele><time>2026-05-03T10:34:25.872Z</time></trkpt><trkpt lat="42.2044369" lon="13.8903759"><ele>219.99999999999997</ele><time>2026-05-03T10:34:26.873Z</time></trkpt><trkpt lat="42.2044746" lon="13.8904567"><ele>220.0</ele><time>2026-05-03T10:34:27.873Z</time></trkpt><trkpt lat="42.2045204" lon="13.8905333"><ele>221.33333333333331</ele><time>2026-05-03T10:34:28.872Z</time></trkpt><trkpt lat="42.204571" lon="13.8906175"><ele>222.66666666666666</ele><time>2026-05-03T10:34:29.872Z</time></trkpt><trkpt lat="42.2046206" lon="13.8906901"><ele>224.0</ele><time>2026-05-03T10:34:30.873Z</time></trkpt><trkpt lat="42.2046685" lon="13.8907636"><ele>225.33333333333331</ele><time>2026-05-03T10:34:31.873Z</time></trkpt><trkpt lat="42.204718" lon="13.8908396"><ele>226.66666666666666</ele><time>2026-05-03T10:34:32.872Z</time></trkpt><trkpt lat="42.2047726" lon="13.8909219"><ele>228.0</ele><time>2026-05-03T10:34:33.872Z</time></trkpt><trkpt lat="42.2048232" lon="13.8910053"><ele>227.66666666666666</ele><time>2026-05-03T10:34:34.873Z</time></trkpt><trkpt lat="42.2048742" lon="13.8910872"><ele>227.33333333333331</ele><time>2026-05-03T10:34:35.872Z</time></trkpt><trkpt lat="42.204926" lon="13.8911629"><ele>227.0</ele><time>2026-05-03T10:34:36.873Z</time></trkpt><trkpt lat="42.2049796" lon="13.8912376"><ele>226.66666666666666</ele><time>2026-05-03T10:34:37.872Z</time></trkpt><trkpt lat="42.2050359" lon="13.8913169"><ele>226.33333333333331</ele><time>2026-05-03T10:34:38.873Z</time></trkpt><trkpt lat="42.2050865" lon="13.8913899"><ele>226.0</ele><time>2026-05-03T10:34:39.873Z</time></trkpt><trkpt lat="42.2051431" lon="13.8914666"><ele>225.99999999999997</ele><time>2026-05-03T10:34:40.872Z</time></trkpt><trkpt lat="42.205197" lon="13.8915356"><ele>226.0</ele><time>2026-05-03T10:34:41.872Z</time></trkpt><trkpt lat="42.2052547" lon="13.8916154"><ele>226.0</ele><time>2026-05-03T10:34:42.873Z</time></trkpt><trkpt lat="42.2053107" lon="13.8916978"><ele>226.0</ele><time>2026-05-03T10:34:43.873Z</time></trkpt><trkpt lat="42.2053676" lon="13.8917775"><ele>225.99999999999997</ele><time>2026-05-03T10:34:44.872Z</time></trkpt><trkpt lat="42.2054243" lon="13.8918565"><ele>226.0</ele><time>2026-05-03T10:34:45.872Z</time></trkpt><trkpt lat="42.2054794" lon="13.891934"><ele>226.0</ele><time>2026-05-03T10:34:46.873Z</time></trkpt><trkpt lat="42.2055412" lon="13.8920137"><ele>226.00000000000003</ele><time>2026-05-03T10:34:47.872Z</time></trkpt><trkpt lat="42.2056011" lon="13.8921004"><ele>226.00000000000003</ele><time>2026-05-03T10:34:48.872Z</time></trkpt><trkpt lat="42.2056688" lon="13.8921929"><ele>226.0</ele><time>2026-05-03T10:34:49.873Z</time></trkpt><trkpt lat="42.2057367" lon="13.8922818"><ele>226.0</ele><time>2026-05-03T10:34:50.872Z</time></trkpt><trkpt lat="42.2058082" lon="13.892377"><ele>226.0</ele><time>2026-05-03T10:34:51.873Z</time></trkpt><trkpt lat="42.2058736" lon="13.8924712"><ele>226.00000000000003</ele><time>2026-05-03T10:34:52.872Z</time></trkpt><trkpt lat="42.2059417" lon="13.8925614"><ele>226.00000000000003</ele><time>2026-05-03T10:34:53.873Z</time></trkpt><trkpt lat="42.2060126" lon="13.8926602"><ele>226.0</ele><time>2026-05-03T10:34:54.873Z</time></trkpt><trkpt lat="42.2060795" lon="13.892756"><ele>226.0</ele><time>2026-05-03T10:34:55.872Z</time></trkpt><trkpt lat="42.2061452" lon="13.892848"><ele>226.49999999999997</ele><time>2026-05-03T10:34:56.873Z</time></trkpt><trkpt lat="42.2062092" lon="13.8929402"><ele>227.0</ele><time>2026-05-03T10:34:57.873Z</time></trkpt><trkpt lat="42.2062725" lon="13.8930302"><ele>227.5</ele><time>2026-05-03T10:34:58.872Z</time></trkpt><trkpt lat="42.2063326" lon="13.8931147"><ele>228.0</ele><time>2026-05-03T10:34:59.873Z</time></trkpt><trkpt lat="42.2063899" lon="13.8931963"><ele>228.49999999999997</ele><time>2026-05-03T10:35:00.872Z</time></trkpt><trkpt lat="42.2064463" lon="13.8932817"><ele>229.0</ele><time>2026-05-03T10:35:01.872Z</time></trkpt><trkpt lat="42.2065023" lon="13.8933583"><ele>230.16666666666666</ele><time>2026-05-03T10:35:02.872Z</time></trkpt><trkpt lat="42.206555" lon="13.8934344"><ele>231.33333333333331</ele><time>2026-05-03T10:35:03.872Z</time></trkpt><trkpt lat="42.206608" lon="13.8935207"><ele>232.5</ele><time>2026-05-03T10:35:04.873Z</time></trkpt><trkpt lat="42.2066666" lon="13.8936047"><ele>233.66666666666669</ele><time>2026-05-03T10:35:05.873Z</time></trkpt><trkpt lat="42.2067298" lon="13.8936918"><ele>234.83333333333334</ele><time>2026-05-03T10:35:06.873Z</time></trkpt><trkpt lat="42.2068042" lon="13.893792"><ele>236.0</ele><time>2026-05-03T10:35:07.872Z</time></trkpt><trkpt lat="42.2068705" lon="13.8939009"><ele>236.0</ele><time>2026-05-03T10:35:08.873Z</time></trkpt><trkpt lat="42.206936" lon="13.894007"><ele>236.00000000000003</ele><time>2026-05-03T10:35:09.872Z</time></trkpt><trkpt lat="42.207002" lon="13.8941061"><ele>236.00000000000003</ele><time>2026-05-03T10:35:10.873Z</time></trkpt><trkpt lat="42.2070675" lon="13.8942063"><ele>236.0</ele><time>2026-05-03T10:35:11.873Z</time></trkpt><trkpt lat="42.2071383" lon="13.8943017"><ele>236.0</ele><time>2026-05-03T10:35:12.872Z</time></trkpt><trkpt lat="42.2072071" lon="13.8943897"><ele>236.8</ele><time>2026-05-03T10:35:13.873Z</time></trkpt><trkpt lat="42.2072716" lon="13.8944831"><ele>237.60000000000002</ele><time>2026-05-03T10:35:14.872Z</time></trkpt><trkpt lat="42.2073321" lon="13.8945789"><ele>238.4</ele><time>2026-05-03T10:35:15.872Z</time></trkpt><trkpt lat="42.2073859" lon="13.8946737"><ele>239.2</ele><time>2026-05-03T10:35:16.872Z</time></trkpt><trkpt lat="42.2074524" lon="13.894772"><ele>240.0</ele><time>2026-05-03T10:35:17.874Z</time></trkpt><trkpt lat="42.2075116" lon="13.8948564"><ele>238.5</ele><time>2026-05-03T10:35:18.872Z</time></trkpt><trkpt lat="42.2075696" lon="13.894935"><ele>237.0</ele><time>2026-05-03T10:35:19.873Z</time></trkpt><trkpt lat="42.2076204" lon="13.8950094"><ele>235.5</ele><time>2026-05-03T10:35:20.873Z</time></trkpt><trkpt lat="42.2076672" lon="13.8950963"><ele>234.0</ele><time>2026-05-03T10:35:22.873Z</time></trkpt><trkpt lat="42.207705" lon="13.895185"><ele>232.5</ele><time>2026-05-03T10:35:35.872Z</time></trkpt><trkpt lat="42.2077836" lon="13.8952783"><ele>231.0</ele><time>2026-05-03T10:35:38.873Z</time></trkpt><trkpt lat="42.2078731" lon="13.8953977"><ele>231.0</ele><time>2026-05-03T10:35:40.873Z</time></trkpt><trkpt lat="42.2079227" lon="13.8954663"><ele>231.0</ele><time>2026-05-03T10:35:41.872Z</time></trkpt><trkpt lat="42.2079776" lon="13.8955422"><ele>231.0</ele><time>2026-05-03T10:35:42.872Z</time></trkpt><trkpt lat="42.208032" lon="13.8956225"><ele>231.0</ele><time>2026-05-03T10:35:43.872Z</time></trkpt><trkpt lat="42.2080812" lon="13.8957075"><ele>231.0</ele><time>2026-05-03T10:35:44.872Z</time></trkpt><trkpt lat="42.2081336" lon="13.8957921"><ele>231.0</ele><time>2026-05-03T10:35:45.872Z</time></trkpt><trkpt lat="42.2081973" lon="13.8958795"><ele>230.83333333333334</ele><time>2026-05-03T10:35:46.872Z</time></trkpt><trkpt lat="42.2082576" lon="13.8959604"><ele>230.66666666666669</ele><time>2026-05-03T10:35:47.872Z</time></trkpt><trkpt lat="42.2083154" lon="13.8960503"><ele>230.5</ele><time>2026-05-03T10:35:48.873Z</time></trkpt><trkpt lat="42.208371" lon="13.8961326"><ele>230.33333333333334</ele><time>2026-05-03T10:35:49.873Z</time></trkpt><trkpt lat="42.2084255" lon="13.8962008"><ele>230.16666666666669</ele><time>2026-05-03T10:35:50.872Z</time></trkpt><trkpt lat="42.2084878" lon="13.8962541"><ele>230.0</ele><time>2026-05-03T10:35:51.872Z</time></trkpt><trkpt lat="42.2085443" lon="13.8962989"><ele>230.00000000000003</ele><time>2026-05-03T10:35:52.872Z</time></trkpt><trkpt lat="42.2086092" lon="13.8964237"><ele>230.0</ele><time>2026-05-03T10:35:54.872Z</time></trkpt><trkpt lat="42.2086486" lon="13.8964936"><ele>230.0</ele><time>2026-05-03T10:35:55.871Z</time></trkpt><trkpt lat="42.2086927" lon="13.8965652"><ele>230.0</ele><time>2026-05-03T10:35:56.872Z</time></trkpt><trkpt lat="42.2087352" lon="13.8966364"><ele>230.00000000000003</ele><time>2026-05-03T10:35:57.873Z</time></trkpt><trkpt lat="42.2087766" lon="13.8967112"><ele>230.0</ele><time>2026-05-03T10:35:58.872Z</time></trkpt><trkpt lat="42.2088224" lon="13.8967867"><ele>230.83333333333334</ele><time>2026-05-03T10:35:59.873Z</time></trkpt><trkpt lat="42.2088635" lon="13.8968609"><ele>231.66666666666669</ele><time>2026-05-03T10:36:00.872Z</time></trkpt><trkpt lat="42.2089039" lon="13.8969309"><ele>232.5</ele><time>2026-05-03T10:36:01.872Z</time></trkpt><trkpt lat="42.2089474" lon="13.8969956"><ele>233.33333333333331</ele><time>2026-05-03T10:36:02.872Z</time></trkpt><trkpt lat="42.2090313" lon="13.8971186"><ele>234.16666666666666</ele><time>2026-05-03T10:36:04.872Z</time></trkpt><trkpt lat="42.2090824" lon="13.8971872"><ele>235.0</ele><time>2026-05-03T10:36:05.873Z</time></trkpt><trkpt lat="42.2091333" lon="13.8972617"><ele>235.0</ele><time>2026-05-03T10:36:06.872Z</time></trkpt><trkpt lat="42.2091839" lon="13.8973398"><ele>235.0</ele><time>2026-05-03T10:36:07.873Z</time></trkpt><trkpt lat="42.2092395" lon="13.8974311"><ele>235.0</ele><time>2026-05-03T10:36:08.872Z</time></trkpt><trkpt lat="42.2093085" lon="13.8975277"><ele>235.0</ele><time>2026-05-03T10:36:09.872Z</time></trkpt><trkpt lat="42.2093778" lon="13.8976282"><ele>235.0</ele><time>2026-05-03T10:36:10.872Z</time></trkpt><trkpt lat="42.2094434" lon="13.897729"><ele>235.83333333333331</ele><time>2026-05-03T10:36:11.873Z</time></trkpt><trkpt lat="42.209507" lon="13.8978302"><ele>236.66666666666666</ele><time>2026-05-03T10:36:12.873Z</time></trkpt><trkpt lat="42.2095577" lon="13.8979253"><ele>237.5</ele><time>2026-05-03T10:36:13.872Z</time></trkpt><trkpt lat="42.2095941" lon="13.8980167"><ele>238.33333333333331</ele><time>2026-05-03T10:36:14.873Z</time></trkpt><trkpt lat="42.2096184" lon="13.8981216"><ele>239.16666666666666</ele><time>2026-05-03T10:36:15.873Z</time></trkpt><trkpt lat="42.2096548" lon="13.8982145"><ele>240.0</ele><time>2026-05-03T10:36:16.872Z</time></trkpt><trkpt lat="42.2097073" lon="13.8982778"><ele>240.0</ele><time>2026-05-03T10:36:17.872Z</time></trkpt><trkpt lat="42.2098223" lon="13.8983048"><ele>240.0</ele><time>2026-05-03T10:36:19.872Z</time></trkpt><trkpt lat="42.2099241" lon="13.8983526"><ele>240.0</ele><time>2026-05-03T10:36:21.872Z</time></trkpt><trkpt lat="42.2099808" lon="13.8984629"><ele>240.0</ele><time>2026-05-03T10:36:23.873Z</time></trkpt><trkpt lat="42.2100168" lon="13.8985405"><ele>240.0</ele><time>2026-05-03T10:36:24.872Z</time></trkpt><trkpt lat="42.2100558" lon="13.8986117"><ele>239.28571428571428</ele><time>2026-05-03T10:36:25.872Z</time></trkpt><trkpt lat="42.2101" lon="13.8986842"><ele>238.57142857142856</ele><time>2026-05-03T10:36:26.873Z</time></trkpt><trkpt lat="42.2101434" lon="13.8987531"><ele>237.85714285714283</ele><time>2026-05-03T10:36:27.872Z</time></trkpt><trkpt lat="42.2101892" lon="13.8988212"><ele>237.14285714285714</ele><time>2026-05-03T10:36:28.873Z</time></trkpt><trkpt lat="42.2102381" lon="13.8988841"><ele>236.4285714285714</ele><time>2026-05-03T10:36:29.872Z</time></trkpt><trkpt lat="42.2102864" lon="13.8989494"><ele>235.7142857142857</ele><time>2026-05-03T10:36:30.873Z</time></trkpt><trkpt lat="42.2103327" lon="13.8990189"><ele>235.0</ele><time>2026-05-03T10:36:31.872Z</time></trkpt><trkpt lat="42.2103814" lon="13.8990902"><ele>234.99999999999997</ele><time>2026-05-03T10:36:32.873Z</time></trkpt><trkpt lat="42.2104269" lon="13.8991615"><ele>235.0</ele><time>2026-05-03T10:36:33.873Z</time></trkpt><trkpt lat="42.210471" lon="13.8992344"><ele>235.0</ele><time>2026-05-03T10:36:34.873Z</time></trkpt><trkpt lat="42.2105154" lon="13.8993163"><ele>235.0</ele><time>2026-05-03T10:36:35.872Z</time></trkpt><trkpt lat="42.2105599" lon="13.8994137"><ele>234.99999999999997</ele><time>2026-05-03T10:36:36.873Z</time></trkpt><trkpt lat="42.2106066" lon="13.8995212"><ele>235.0</ele><time>2026-05-03T10:36:37.872Z</time></trkpt><trkpt lat="42.2106581" lon="13.8996377"><ele>233.2</ele><time>2026-05-03T10:36:38.872Z</time></trkpt><trkpt lat="42.210715" lon="13.8997545"><ele>231.4</ele><time>2026-05-03T10:36:39.872Z</time></trkpt><trkpt lat="42.2107742" lon="13.8998691"><ele>229.60000000000002</ele><time>2026-05-03T10:36:40.872Z</time></trkpt><trkpt lat="42.2108291" lon="13.8999694"><ele>227.8</ele><time>2026-05-03T10:36:41.872Z</time></trkpt><trkpt lat="42.2108839" lon="13.9000556"><ele>226.0</ele><time>2026-05-03T10:36:42.873Z</time></trkpt><trkpt lat="42.2109357" lon="13.9001348"><ele>225.99999999999997</ele><time>2026-05-03T10:36:43.872Z</time></trkpt><trkpt lat="42.2109863" lon="13.9002067"><ele>226.0</ele><time>2026-05-03T10:36:44.873Z</time></trkpt><trkpt lat="42.2110346" lon="13.9002664"><ele>226.0</ele><time>2026-05-03T10:36:45.873Z</time></trkpt><trkpt lat="42.2110827" lon="13.9003236"><ele>226.0</ele><time>2026-05-03T10:36:46.873Z</time></trkpt><trkpt lat="42.2111584" lon="13.900447"><ele>225.99999999999997</ele><time>2026-05-03T10:36:48.872Z</time></trkpt><trkpt lat="42.2111919" lon="13.9005226"><ele>226.0</ele><time>2026-05-03T10:36:49.873Z</time></trkpt><trkpt lat="42.2112266" lon="13.9005936"><ele>225.99999999999997</ele><time>2026-05-03T10:36:50.872Z</time></trkpt><trkpt lat="42.2113211" lon="13.9006678"><ele>226.0</ele><time>2026-05-03T10:36:52.873Z</time></trkpt><trkpt lat="42.2114254" lon="13.9006436"><ele>226.0</ele><time>2026-05-03T10:36:54.872Z</time></trkpt><trkpt lat="42.2115019" lon="13.900607"><ele>226.0</ele><time>2026-05-03T10:36:56.873Z</time></trkpt><trkpt lat="42.2115662" lon="13.9006253"><ele>225.99999999999997</ele><time>2026-05-03T10:36:59.872Z</time></trkpt><trkpt lat="42.2116" lon="13.900717"><ele>226.0</ele><time>2026-05-03T10:37:01.872Z</time></trkpt><trkpt lat="42.2116294" lon="13.9007995"><ele>225.66666666666666</ele><time>2026-05-03T10:37:03.872Z</time></trkpt><trkpt lat="42.2116537" lon="13.9009144"><ele>225.33333333333331</ele><time>2026-05-03T10:37:06.872Z</time></trkpt><trkpt lat="42.2116418" lon="13.901019"><ele>225.0</ele><time>2026-05-03T10:37:08.873Z</time></trkpt><trkpt lat="42.2115572" lon="13.901097"><ele>224.66666666666669</ele><time>2026-05-03T10:37:10.872Z</time></trkpt><trkpt lat="42.2114929" lon="13.9011878"><ele>224.33333333333334</ele><time>2026-05-03T10:37:12.872Z</time></trkpt><trkpt lat="42.2114789" lon="13.9012823"><ele>224.0</ele><time>2026-05-03T10:37:15.872Z</time></trkpt><trkpt lat="42.2114875" lon="13.9014059"><ele>227.33333333333334</ele><time>2026-05-03T10:37:18.871Z</time></trkpt><trkpt lat="42.2114595" lon="13.9014909"><ele>230.66666666666669</ele><time>2026-05-03T10:37:20.873Z</time></trkpt><trkpt lat="42.2113909" lon="13.9014838"><ele>234.0</ele><time>2026-05-03T10:37:22.872Z</time></trkpt><trkpt lat="42.2113183" lon="13.9014001"><ele>237.33333333333331</ele><time>2026-05-03T10:37:24.872Z</time></trkpt><trkpt lat="42.2112355" lon="13.901348"><ele>240.66666666666666</ele><time>2026-05-03T10:37:26.872Z</time></trkpt><trkpt lat="42.211136" lon="13.9013228"><ele>244.0</ele><time>2026-05-03T10:37:28.872Z</time></trkpt><trkpt lat="42.211032" lon="13.9013107"><ele>243.99999999999997</ele><time>2026-05-03T10:37:30.872Z</time></trkpt><trkpt lat="42.2109346" lon="13.9013358"><ele>244.0</ele><time>2026-05-03T10:37:32.873Z</time></trkpt><trkpt lat="42.2108851" lon="13.9014062"><ele>244.0</ele><time>2026-05-03T10:37:34.873Z</time></trkpt><trkpt lat="42.2108956" lon="13.9014943"><ele>244.0</ele><time>2026-05-03T10:37:36.872Z</time></trkpt><trkpt lat="42.2109578" lon="13.901583"><ele>243.99999999999997</ele><time>2026-05-03T10:37:38.872Z</time></trkpt><trkpt lat="42.2110172" lon="13.9016491"><ele>244.0</ele><time>2026-05-03T10:37:40.872Z</time></trkpt><trkpt lat="42.2110892" lon="13.9017116"><ele>247.49999999999997</ele><time>2026-05-03T10:37:42.873Z</time></trkpt><trkpt lat="42.2111434" lon="13.9018117"><ele>251.0</ele><time>2026-05-03T10:37:44.872Z</time></trkpt><trkpt lat="42.2111501" lon="13.9019021"><ele>254.5</ele><time>2026-05-03T10:37:46.872Z</time></trkpt><trkpt lat="42.2111173" lon="13.9019917"><ele>258.0</ele><time>2026-05-03T10:37:50.872Z</time></trkpt><trkpt lat="42.2110329" lon="13.9019736"><ele>261.5</ele><time>2026-05-03T10:37:53.873Z</time></trkpt><trkpt lat="42.2109536" lon="13.9018995"><ele>265.0</ele><time>2026-05-03T10:37:55.871Z</time></trkpt><trkpt lat="42.2108959" lon="13.9018266"><ele>265.0</ele><time>2026-05-03T10:37:57.872Z</time></trkpt><trkpt lat="42.2108212" lon="13.9017634"><ele>265.0</ele><time>2026-05-03T10:37:59.872Z</time></trkpt><trkpt lat="42.210757" lon="13.9017794"><ele>265.0</ele><time>2026-05-03T10:38:02.873Z</time></trkpt><trkpt lat="42.2107488" lon="13.9018814"><ele>265.0</ele><time>2026-05-03T10:38:06.872Z</time></trkpt><trkpt lat="42.2108198" lon="13.9019616"><ele>265.0</ele><time>2026-05-03T10:38:08.873Z</time></trkpt><trkpt lat="42.2108848" lon="13.9020545"><ele>265.0</ele><time>2026-05-03T10:38:10.872Z</time></trkpt><trkpt lat="42.2109126" lon="13.9021445"><ele>265.0</ele><time>2026-05-03T10:38:12.872Z</time></trkpt><trkpt lat="42.2109243" lon="13.9022426"><ele>265.0</ele><time>2026-05-03T10:38:14.872Z</time></trkpt><trkpt lat="42.2109449" lon="13.9023555"><ele>265.0</ele><time>2026-05-03T10:38:16.872Z</time></trkpt><trkpt lat="42.2109587" lon="13.9024809"><ele>265.0</ele><time>2026-05-03T10:38:18.872Z</time></trkpt><trkpt lat="42.2109476" lon="13.9026451"><ele>265.0</ele><time>2026-05-03T10:38:20.872Z</time></trkpt><trkpt lat="42.2109444" lon="13.902781"><ele>268.2</ele><time>2026-05-03T10:38:22.873Z</time></trkpt><trkpt lat="42.2109479" lon="13.9029102"><ele>271.4</ele><time>2026-05-03T10:38:24.872Z</time></trkpt><trkpt lat="42.2109674" lon="13.9030506"><ele>274.6</ele><time>2026-05-03T10:38:26.873Z</time></trkpt><trkpt lat="42.2110133" lon="13.9031964"><ele>277.8</ele><time>2026-05-03T10:38:28.872Z</time></trkpt><trkpt lat="42.2110445" lon="13.9032704"><ele>281.0</ele><time>2026-05-03T10:38:29.872Z</time></trkpt><trkpt lat="42.2110961" lon="13.9033809"><ele>283.0</ele><time>2026-05-03T10:38:31.873Z</time></trkpt><trkpt lat="42.2111173" lon="13.9034786"><ele>285.0</ele><time>2026-05-03T10:39:41.872Z</time></trkpt><trkpt lat="42.2111416" lon="13.9036097"><ele>287.0</ele><time>2026-05-03T10:39:43.873Z</time></trkpt><trkpt lat="42.2111569" lon="13.9036946"><ele>289.0</ele><time>2026-05-03T10:39:44.872Z</time></trkpt><trkpt lat="42.2111748" lon="13.9037929"><ele>291.0</ele><time>2026-05-03T10:39:45.872Z</time></trkpt><trkpt lat="42.2111947" lon="13.9038973"><ele>293.0</ele><time>2026-05-03T10:39:46.872Z</time></trkpt><trkpt lat="42.2112186" lon="13.9040059"><ele>293.0</ele><time>2026-05-03T10:39:47.872Z</time></trkpt><trkpt lat="42.2112406" lon="13.9041139"><ele>293.0</ele><time>2026-05-03T10:39:48.872Z</time></trkpt><trkpt lat="42.2112591" lon="13.9042236"><ele>293.0</ele><time>2026-05-03T10:39:49.872Z</time></trkpt><trkpt lat="42.2112752" lon="13.9043346"><ele>293.0</ele><time>2026-05-03T10:39:50.872Z</time></trkpt><trkpt lat="42.2112984" lon="13.9044474"><ele>293.0</ele><time>2026-05-03T10:39:51.872Z</time></trkpt><trkpt lat="42.2113258" lon="13.9045627"><ele>293.0</ele><time>2026-05-03T10:39:52.872Z</time></trkpt><trkpt lat="42.2113516" lon="13.9046806"><ele>295.4</ele><time>2026-05-03T10:39:53.872Z</time></trkpt><trkpt lat="42.211377" lon="13.9048008"><ele>297.8</ele><time>2026-05-03T10:39:54.872Z</time></trkpt><trkpt lat="42.2114008" lon="13.9049195"><ele>300.2</ele><time>2026-05-03T10:39:55.872Z</time></trkpt><trkpt lat="42.2114232" lon="13.9050408"><ele>302.6</ele><time>2026-05-03T10:39:56.872Z</time></trkpt><trkpt lat="42.2114366" lon="13.9051639"><ele>305.0</ele><time>2026-05-03T10:39:57.871Z</time></trkpt><trkpt lat="42.2114551" lon="13.9052857"><ele>305.4</ele><time>2026-05-03T10:39:58.871Z</time></trkpt><trkpt lat="42.2114793" lon="13.9054123"><ele>305.8</ele><time>2026-05-03T10:39:59.872Z</time></trkpt><trkpt lat="42.211503" lon="13.9055398"><ele>306.2</ele><time>2026-05-03T10:40:00.871Z</time></trkpt><trkpt lat="42.2115299" lon="13.9056682"><ele>306.6</ele><time>2026-05-03T10:40:01.871Z</time></trkpt><trkpt lat="42.2115581" lon="13.9057928"><ele>307.0</ele><time>2026-05-03T10:40:02.871Z</time></trkpt><trkpt lat="42.2115869" lon="13.9059195"><ele>308.6</ele><time>2026-05-03T10:40:03.872Z</time></trkpt><trkpt lat="42.2116216" lon="13.906043"><ele>310.2</ele><time>2026-05-03T10:40:04.872Z</time></trkpt><trkpt lat="42.2116589" lon="13.9061614"><ele>311.8</ele><time>2026-05-03T10:40:05.871Z</time></trkpt><trkpt lat="42.2116973" lon="13.9062748"><ele>313.4</ele><time>2026-05-03T10:40:06.871Z</time></trkpt><trkpt lat="42.2117347" lon="13.9063899"><ele>315.0</ele><time>2026-05-03T10:40:07.871Z</time></trkpt><trkpt lat="42.2117666" lon="13.9065045"><ele>315.0</ele><time>2026-05-03T10:40:08.871Z</time></trkpt><trkpt lat="42.2117969" lon="13.9066197"><ele>315.0</ele><time>2026-05-03T10:40:09.871Z</time></trkpt><trkpt lat="42.2118193" lon="13.9067371"><ele>315.0</ele><time>2026-05-03T10:40:10.871Z</time></trkpt><trkpt lat="42.2118415" lon="13.9068489"><ele>315.0</ele><time>2026-05-03T10:40:11.871Z</time></trkpt><trkpt lat="42.2118662" lon="13.9069627"><ele>315.0</ele><time>2026-05-03T10:40:12.872Z</time></trkpt><trkpt lat="42.2118968" lon="13.9070851"><ele>317.2</ele><time>2026-05-03T10:40:13.871Z</time></trkpt><trkpt lat="42.2119327" lon="13.9072041"><ele>319.4</ele><time>2026-05-03T10:40:14.871Z</time></trkpt><trkpt lat="42.2119688" lon="13.9073198"><ele>321.6</ele><time>2026-05-03T10:40:15.872Z</time></trkpt><trkpt lat="42.2120032" lon="13.9074366"><ele>323.8</ele><time>2026-05-03T10:40:16.871Z</time></trkpt><trkpt lat="42.2120316" lon="13.9075467"><ele>326.0</ele><time>2026-05-03T10:40:17.871Z</time></trkpt><trkpt lat="42.2120566" lon="13.9076624"><ele>326.5</ele><time>2026-05-03T10:40:18.871Z</time></trkpt><trkpt lat="42.2120754" lon="13.9077792"><ele>327.0</ele><time>2026-05-03T10:40:19.871Z</time></trkpt><trkpt lat="42.2120901" lon="13.9078929"><ele>327.5</ele><time>2026-05-03T10:40:20.872Z</time></trkpt><trkpt lat="42.2121022" lon="13.9080105"><ele>328.0</ele><time>2026-05-03T10:40:21.872Z</time></trkpt><trkpt lat="42.2121161" lon="13.9081295"><ele>328.5</ele><time>2026-05-03T10:40:22.872Z</time></trkpt><trkpt lat="42.212125" lon="13.9082489"><ele>329.0</ele><time>2026-05-03T10:40:23.871Z</time></trkpt><trkpt lat="42.2121234" lon="13.9083632"><ele>329.5</ele><time>2026-05-03T10:40:24.871Z</time></trkpt><trkpt lat="42.2121202" lon="13.9084708"><ele>330.0</ele><time>2026-05-03T10:40:25.871Z</time></trkpt><trkpt lat="42.2121186" lon="13.9085821"><ele>330.5</ele><time>2026-05-03T10:40:26.871Z</time></trkpt><trkpt lat="42.2121068" lon="13.9086963"><ele>331.0</ele><time>2026-05-03T10:40:27.873Z</time></trkpt><trkpt lat="42.2120824" lon="13.9088056"><ele>331.5</ele><time>2026-05-03T10:40:28.871Z</time></trkpt><trkpt lat="42.2120562" lon="13.9089122"><ele>332.0</ele><time>2026-05-03T10:40:29.871Z</time></trkpt><trkpt lat="42.2120165" lon="13.909011"><ele>332.0</ele><time>2026-05-03T10:40:30.871Z</time></trkpt><trkpt lat="42.2119674" lon="13.9091081"><ele>332.0</ele><time>2026-05-03T10:40:31.871Z</time></trkpt><trkpt lat="42.2119154" lon="13.9092072"><ele>332.0</ele><time>2026-05-03T10:40:32.871Z</time></trkpt><trkpt lat="42.2118648" lon="13.9093023"><ele>332.0</ele><time>2026-05-03T10:40:33.871Z</time></trkpt><trkpt lat="42.2118209" lon="13.9093844"><ele>332.0</ele><time>2026-05-03T10:40:34.871Z</time></trkpt><trkpt lat="42.2117802" lon="13.9094691"><ele>332.0</ele><time>2026-05-03T10:40:35.871Z</time></trkpt><trkpt lat="42.2117523" lon="13.9095577"><ele>332.57142857142856</ele><time>2026-05-03T10:40:36.871Z</time></trkpt><trkpt lat="42.2117473" lon="13.909654"><ele>333.14285714285717</ele><time>2026-05-03T10:40:37.872Z</time></trkpt><trkpt lat="42.211759" lon="13.9097502"><ele>333.7142857142857</ele><time>2026-05-03T10:40:38.871Z</time></trkpt><trkpt lat="42.2117715" lon="13.9098366"><ele>334.2857142857143</ele><time>2026-05-03T10:40:39.872Z</time></trkpt><trkpt lat="42.2117819" lon="13.9099258"><ele>334.8571428571429</ele><time>2026-05-03T10:40:40.871Z</time></trkpt><trkpt lat="42.2117925" lon="13.9100229"><ele>335.42857142857144</ele><time>2026-05-03T10:40:41.871Z</time></trkpt><trkpt lat="42.2118011" lon="13.9101247"><ele>336.0</ele><time>2026-05-03T10:40:42.872Z</time></trkpt><trkpt lat="42.2118136" lon="13.9102242"><ele>336.0</ele><time>2026-05-03T10:40:43.872Z</time></trkpt><trkpt lat="42.2118199" lon="13.9103305"><ele>336.0</ele><time>2026-05-03T10:40:44.871Z</time></trkpt><trkpt lat="42.2118256" lon="13.9104353"><ele>336.0</ele><time>2026-05-03T10:40:45.871Z</time></trkpt><trkpt lat="42.2118255" lon="13.9105456"><ele>336.0</ele><time>2026-05-03T10:40:46.871Z</time></trkpt><trkpt lat="42.2118215" lon="13.9106559"><ele>336.0</ele><time>2026-05-03T10:40:47.871Z</time></trkpt><trkpt lat="42.2118135" lon="13.9107739"><ele>336.0</ele><time>2026-05-03T10:40:48.872Z</time></trkpt><trkpt lat="42.2118047" lon="13.9108947"><ele>336.0</ele><time>2026-05-03T10:40:49.872Z</time></trkpt><trkpt lat="42.2117947" lon="13.9110124"><ele>336.0</ele><time>2026-05-03T10:40:50.872Z</time></trkpt><trkpt lat="42.2117848" lon="13.9111221"><ele>336.0</ele><time>2026-05-03T10:40:51.873Z</time></trkpt><trkpt lat="42.2117763" lon="13.9112309"><ele>336.0</ele><time>2026-05-03T10:40:52.871Z</time></trkpt><trkpt lat="42.2117689" lon="13.9113294"><ele>336.0</ele><time>2026-05-03T10:40:53.871Z</time></trkpt><trkpt lat="42.2117639" lon="13.9114214"><ele>336.0</ele><time>2026-05-03T10:40:54.871Z</time></trkpt><trkpt lat="42.2117643" lon="13.9115083"><ele>336.0</ele><time>2026-05-03T10:40:55.872Z</time></trkpt><trkpt lat="42.2117561" lon="13.9116514"><ele>336.0</ele><time>2026-05-03T10:40:57.872Z</time></trkpt><trkpt lat="42.2117653" lon="13.9118047"><ele>336.0</ele><time>2026-05-03T10:40:59.871Z</time></trkpt><trkpt lat="42.2118257" lon="13.9119469"><ele>336.0</ele><time>2026-05-03T10:41:01.871Z</time></trkpt><trkpt lat="42.2118689" lon="13.9120127"><ele>336.0</ele><time>2026-05-03T10:41:02.872Z</time></trkpt><trkpt lat="42.2119122" lon="13.9120794"><ele>335.5</ele><time>2026-05-03T10:41:03.871Z</time></trkpt><trkpt lat="42.2119584" lon="13.9121477"><ele>335.0</ele><time>2026-05-03T10:41:04.872Z</time></trkpt><trkpt lat="42.2120074" lon="13.9122223"><ele>334.5</ele><time>2026-05-03T10:41:05.872Z</time></trkpt><trkpt lat="42.2120612" lon="13.9122963"><ele>334.0</ele><time>2026-05-03T10:41:06.872Z</time></trkpt><trkpt lat="42.2121146" lon="13.912374"><ele>333.5</ele><time>2026-05-03T10:41:07.871Z</time></trkpt><trkpt lat="42.2121657" lon="13.9124533"><ele>333.0</ele><time>2026-05-03T10:41:08.872Z</time></trkpt><trkpt lat="42.2122186" lon="13.9125276"><ele>332.3333333333333</ele><time>2026-05-03T10:41:09.872Z</time></trkpt><trkpt lat="42.2122693" lon="13.9125911"><ele>331.6666666666667</ele><time>2026-05-03T10:41:10.872Z</time></trkpt><trkpt lat="42.2123258" lon="13.9126446"><ele>331.0</ele><time>2026-05-03T10:41:11.871Z</time></trkpt><trkpt lat="42.212383" lon="13.9126832"><ele>330.33333333333337</ele><time>2026-05-03T10:41:12.871Z</time></trkpt><trkpt lat="42.2124908" lon="13.9127465"><ele>329.6666666666667</ele><time>2026-05-03T10:41:14.871Z</time></trkpt><trkpt lat="42.2125498" lon="13.9127782"><ele>329.0</ele><time>2026-05-03T10:41:15.872Z</time></trkpt><trkpt lat="42.2126572" lon="13.9128773"><ele>330.33333333333337</ele><time>2026-05-03T10:41:17.872Z</time></trkpt><trkpt lat="42.2127132" lon="13.9129247"><ele>331.6666666666667</ele><time>2026-05-03T10:41:18.872Z</time></trkpt><trkpt lat="42.2128036" lon="13.9129976"><ele>333.0</ele><time>2026-05-03T10:41:20.872Z</time></trkpt><trkpt lat="42.2128867" lon="13.9130535"><ele>334.3333333333333</ele><time>2026-05-03T10:41:22.871Z</time></trkpt><trkpt lat="42.2129927" lon="13.9131219"><ele>335.66666666666663</ele><time>2026-05-03T10:41:24.872Z</time></trkpt><trkpt lat="42.2130527" lon="13.9131573"><ele>337.0</ele><time>2026-05-03T10:41:25.871Z</time></trkpt><trkpt lat="42.2131209" lon="13.9131837"><ele>337.66666666666663</ele><time>2026-05-03T10:41:26.871Z</time></trkpt><trkpt lat="42.2131873" lon="13.9132117"><ele>338.3333333333333</ele><time>2026-05-03T10:41:27.871Z</time></trkpt><trkpt lat="42.2132623" lon="13.9132278"><ele>339.0</ele><time>2026-05-03T10:41:28.872Z</time></trkpt><trkpt lat="42.2133417" lon="13.9132436"><ele>339.6666666666667</ele><time>2026-05-03T10:41:29.872Z</time></trkpt><trkpt lat="42.213422" lon="13.9132644"><ele>340.33333333333337</ele><time>2026-05-03T10:41:30.871Z</time></trkpt><trkpt lat="42.2135019" lon="13.9132908"><ele>341.0</ele><time>2026-05-03T10:41:31.871Z</time></trkpt><trkpt lat="42.2135767" lon="13.9133147"><ele>341.0</ele><time>2026-05-03T10:41:32.871Z</time></trkpt><trkpt lat="42.2136499" lon="13.913333"><ele>341.0</ele><time>2026-05-03T10:41:33.872Z</time></trkpt><trkpt lat="42.2137181" lon="13.9133503"><ele>341.0</ele><time>2026-05-03T10:41:34.871Z</time></trkpt><trkpt lat="42.2137877" lon="13.9133609"><ele>341.0</ele><time>2026-05-03T10:41:35.872Z</time></trkpt><trkpt lat="42.2138583" lon="13.9133667"><ele>341.0</ele><time>2026-05-03T10:41:36.871Z</time></trkpt><trkpt lat="42.2139314" lon="13.9133627"><ele>341.0</ele><time>2026-05-03T10:41:37.872Z</time></trkpt><trkpt lat="42.2140051" lon="13.9133568"><ele>341.0</ele><time>2026-05-03T10:41:38.872Z</time></trkpt><trkpt lat="42.2140745" lon="13.9133487"><ele>341.33333333333337</ele><time>2026-05-03T10:41:39.871Z</time></trkpt><trkpt lat="42.214145" lon="13.9133371"><ele>341.6666666666667</ele><time>2026-05-03T10:41:40.872Z</time></trkpt><trkpt lat="42.214215" lon="13.9133132"><ele>342.0</ele><time>2026-05-03T10:41:41.872Z</time></trkpt><trkpt lat="42.2142824" lon="13.9132902"><ele>342.3333333333333</ele><time>2026-05-03T10:41:42.871Z</time></trkpt><trkpt lat="42.2143472" lon="13.9132642"><ele>342.66666666666663</ele><time>2026-05-03T10:41:43.871Z</time></trkpt><trkpt lat="42.2144083" lon="13.9132372"><ele>343.0</ele><time>2026-05-03T10:41:44.871Z</time></trkpt><trkpt lat="42.2145287" lon="13.9131905"><ele>343.0</ele><time>2026-05-03T10:41:46.871Z</time></trkpt><trkpt lat="42.2146504" lon="13.9131486"><ele>343.0</ele><time>2026-05-03T10:41:48.871Z</time></trkpt><trkpt lat="42.2147685" lon="13.9131138"><ele>343.0</ele><time>2026-05-03T10:41:50.871Z</time></trkpt><trkpt lat="42.2148922" lon="13.9131206"><ele>343.0</ele><time>2026-05-03T10:41:52.871Z</time></trkpt><trkpt lat="42.2149543" lon="13.9131667"><ele>343.0</ele><time>2026-05-03T10:41:53.872Z</time></trkpt><trkpt lat="42.215019" lon="13.9132169"><ele>342.3333333333333</ele><time>2026-05-03T10:41:54.871Z</time></trkpt><trkpt lat="42.2150861" lon="13.9132728"><ele>341.66666666666663</ele><time>2026-05-03T10:41:55.871Z</time></trkpt><trkpt lat="42.2151601" lon="13.9133281"><ele>341.0</ele><time>2026-05-03T10:41:56.871Z</time></trkpt><trkpt lat="42.2152378" lon="13.91339"><ele>340.3333333333333</ele><time>2026-05-03T10:41:57.871Z</time></trkpt><trkpt lat="42.2153175" lon="13.9134472"><ele>339.6666666666667</ele><time>2026-05-03T10:41:58.871Z</time></trkpt><trkpt lat="42.2154049" lon="13.9135076"><ele>339.0</ele><time>2026-05-03T10:41:59.872Z</time></trkpt><trkpt lat="42.2154972" lon="13.9135697"><ele>338.6</ele><time>2026-05-03T10:42:00.871Z</time></trkpt><trkpt lat="42.2155921" lon="13.9136331"><ele>338.2</ele><time>2026-05-03T10:42:01.873Z</time></trkpt><trkpt lat="42.2156864" lon="13.9136953"><ele>337.8</ele><time>2026-05-03T10:42:02.871Z</time></trkpt><trkpt lat="42.2157719" lon="13.9137589"><ele>337.40000000000003</ele><time>2026-05-03T10:42:03.871Z</time></trkpt><trkpt lat="42.2158537" lon="13.9138196"><ele>337.0</ele><time>2026-05-03T10:42:04.872Z</time></trkpt><trkpt lat="42.2159416" lon="13.9138829"><ele>336.6</ele><time>2026-05-03T10:42:05.871Z</time></trkpt><trkpt lat="42.2160253" lon="13.9139502"><ele>336.20000000000005</ele><time>2026-05-03T10:42:06.871Z</time></trkpt><trkpt lat="42.2160989" lon="13.9140103"><ele>335.8</ele><time>2026-05-03T10:42:07.871Z</time></trkpt><trkpt lat="42.2161713" lon="13.9141034"><ele>335.4</ele><time>2026-05-03T10:42:09.871Z</time></trkpt><trkpt lat="42.2161442" lon="13.914202"><ele>335.0</ele><time>2026-05-03T10:42:11.872Z</time></trkpt><trkpt lat="42.2160945" lon="13.9143283"><ele>334.1666666666667</ele><time>2026-05-03T10:42:13.871Z</time></trkpt><trkpt lat="42.2160076" lon="13.9144398"><ele>333.33333333333337</ele><time>2026-05-03T10:42:15.872Z</time></trkpt><trkpt lat="42.215949" lon="13.9144905"><ele>332.5</ele><time>2026-05-03T10:42:16.871Z</time></trkpt><trkpt lat="42.2158878" lon="13.9145337"><ele>331.6666666666667</ele><time>2026-05-03T10:42:17.871Z</time></trkpt><trkpt lat="42.2158292" lon="13.9145707"><ele>330.8333333333333</ele><time>2026-05-03T10:42:18.871Z</time></trkpt><trkpt lat="42.2157275" lon="13.9146424"><ele>330.0</ele><time>2026-05-03T10:42:20.871Z</time></trkpt><trkpt lat="42.2156587" lon="13.9146986"><ele>330.4</ele><time>2026-05-03T10:42:22.872Z</time></trkpt><trkpt lat="42.2155996" lon="13.9147466"><ele>330.8</ele><time>2026-05-03T10:42:24.871Z</time></trkpt><trkpt lat="42.2155152" lon="13.9148063"><ele>331.20000000000005</ele><time>2026-05-03T10:42:26.871Z</time></trkpt><trkpt lat="42.2154119" lon="13.9148551"><ele>331.6</ele><time>2026-05-03T10:42:28.871Z</time></trkpt><trkpt lat="42.2153011" lon="13.9148942"><ele>332.0</ele><time>2026-05-03T10:42:30.871Z</time></trkpt><trkpt lat="42.2152" lon="13.9149412"><ele>332.0</ele><time>2026-05-03T10:42:32.872Z</time></trkpt><trkpt lat="42.2151154" lon="13.914981"><ele>332.0</ele><time>2026-05-03T10:42:34.872Z</time></trkpt><trkpt lat="42.2150539" lon="13.9150678"><ele>332.0</ele><time>2026-05-03T10:42:37.871Z</time></trkpt><trkpt lat="42.2149767" lon="13.9151639"><ele>332.0</ele><time>2026-05-03T10:42:39.871Z</time></trkpt><trkpt lat="42.2149101" lon="13.9152244"><ele>332.0</ele><time>2026-05-03T10:42:40.872Z</time></trkpt><trkpt lat="42.2148407" lon="13.9152891"><ele>332.0</ele><time>2026-05-03T10:42:41.872Z</time></trkpt><trkpt lat="42.2147672" lon="13.9153476"><ele>330.83333333333337</ele><time>2026-05-03T10:42:42.871Z</time></trkpt><trkpt lat="42.2146913" lon="13.9154024"><ele>329.6666666666667</ele><time>2026-05-03T10:42:43.871Z</time></trkpt><trkpt lat="42.2146123" lon="13.9154545"><ele>328.5</ele><time>2026-05-03T10:42:44.871Z</time></trkpt><trkpt lat="42.2145355" lon="13.9155143"><ele>327.3333333333333</ele><time>2026-05-03T10:42:45.871Z</time></trkpt><trkpt lat="42.2144609" lon="13.9155795"><ele>326.16666666666663</ele><time>2026-05-03T10:42:46.871Z</time></trkpt><trkpt lat="42.2143878" lon="13.9156498"><ele>325.0</ele><time>2026-05-03T10:42:47.872Z</time></trkpt><trkpt lat="42.2143146" lon="13.9157319"><ele>325.0</ele><time>2026-05-03T10:42:48.872Z</time></trkpt><trkpt lat="42.2142421" lon="13.915818"><ele>325.0</ele><time>2026-05-03T10:42:49.871Z</time></trkpt><trkpt lat="42.2141691" lon="13.9159032"><ele>325.0</ele><time>2026-05-03T10:42:50.871Z</time></trkpt><trkpt lat="42.2140949" lon="13.9159891"><ele>325.0</ele><time>2026-05-03T10:42:51.871Z</time></trkpt><trkpt lat="42.2140202" lon="13.9160685"><ele>325.0</ele><time>2026-05-03T10:42:52.871Z</time></trkpt><trkpt lat="42.2139376" lon="13.9161467"><ele>323.8</ele><time>2026-05-03T10:42:53.872Z</time></trkpt><trkpt lat="42.2138482" lon="13.9162199"><ele>322.6</ele><time>2026-05-03T10:42:54.871Z</time></trkpt><trkpt lat="42.2137542" lon="13.9162857"><ele>321.4</ele><time>2026-05-03T10:42:55.872Z</time></trkpt><trkpt lat="42.2136618" lon="13.9163555"><ele>320.2</ele><time>2026-05-03T10:42:56.872Z</time></trkpt><trkpt lat="42.2135816" lon="13.9164434"><ele>319.0</ele><time>2026-05-03T10:42:57.871Z</time></trkpt><trkpt lat="42.2135179" lon="13.9165526"><ele>319.0</ele><time>2026-05-03T10:42:58.871Z</time></trkpt><trkpt lat="42.2134762" lon="13.9166809"><ele>319.0</ele><time>2026-05-03T10:42:59.871Z</time></trkpt><trkpt lat="42.213462" lon="13.9168181"><ele>319.0</ele><time>2026-05-03T10:43:00.872Z</time></trkpt><trkpt lat="42.2134617" lon="13.9169548"><ele>319.0</ele><time>2026-05-03T10:43:01.871Z</time></trkpt><trkpt lat="42.213463" lon="13.9170929"><ele>319.0</ele><time>2026-05-03T10:43:02.871Z</time></trkpt><trkpt lat="42.2134678" lon="13.9172318"><ele>319.4</ele><time>2026-05-03T10:43:03.872Z</time></trkpt><trkpt lat="42.2134753" lon="13.9173697"><ele>319.79999999999995</ele><time>2026-05-03T10:43:04.871Z</time></trkpt><trkpt lat="42.2134827" lon="13.9175041"><ele>320.20000000000005</ele><time>2026-05-03T10:43:05.871Z</time></trkpt><trkpt lat="42.2134804" lon="13.9176312"><ele>320.6</ele><time>2026-05-03T10:43:06.871Z</time></trkpt><trkpt lat="42.2134741" lon="13.9177522"><ele>321.0</ele><time>2026-05-03T10:43:07.871Z</time></trkpt><trkpt lat="42.213466" lon="13.9178579"><ele>321.6666666666667</ele><time>2026-05-03T10:43:08.871Z</time></trkpt><trkpt lat="42.2134546" lon="13.9179506"><ele>322.3333333333333</ele><time>2026-05-03T10:43:09.871Z</time></trkpt><trkpt lat="42.2134274" lon="13.9180718"><ele>323.0</ele><time>2026-05-03T10:43:11.871Z</time></trkpt><trkpt lat="42.2133857" lon="13.9181437"><ele>323.66666666666663</ele><time>2026-05-03T10:43:21.871Z</time></trkpt><trkpt lat="42.2134471" lon="13.9181689"><ele>324.3333333333333</ele><time>2026-05-03T10:43:24.871Z</time></trkpt><trkpt lat="42.2135439" lon="13.9181572"><ele>325.0</ele><time>2026-05-03T10:43:26.871Z</time></trkpt><trkpt lat="42.2136064" lon="13.9181893"><ele>325.0</ele><time>2026-05-03T10:43:27.871Z</time></trkpt><trkpt lat="42.2136645" lon="13.9182302"><ele>325.0</ele><time>2026-05-03T10:43:28.871Z</time></trkpt><trkpt lat="42.2137263" lon="13.9182861"><ele>325.0</ele><time>2026-05-03T10:43:29.871Z</time></trkpt><trkpt lat="42.2137897" lon="13.9183568"><ele>325.0</ele><time>2026-05-03T10:43:30.872Z</time></trkpt><trkpt lat="42.2138503" lon="13.9184394"><ele>325.0</ele><time>2026-05-03T10:43:31.872Z</time></trkpt><trkpt lat="42.2139078" lon="13.9185281"><ele>325.0</ele><time>2026-05-03T10:43:32.871Z</time></trkpt><trkpt lat="42.2139668" lon="13.9186228"><ele>324.8</ele><time>2026-05-03T10:43:33.872Z</time></trkpt><trkpt lat="42.2140334" lon="13.9187178"><ele>324.6</ele><time>2026-05-03T10:43:34.872Z</time></trkpt><trkpt lat="42.2141116" lon="13.918815"><ele>324.4</ele><time>2026-05-03T10:43:35.872Z</time></trkpt><trkpt lat="42.2141948" lon="13.9189111"><ele>324.2</ele><time>2026-05-03T10:43:36.871Z</time></trkpt><trkpt lat="42.2142819" lon="13.9190041"><ele>324.0</ele><time>2026-05-03T10:43:37.871Z</time></trkpt><trkpt lat="42.2143742" lon="13.9190946"><ele>324.0</ele><time>2026-05-03T10:43:38.872Z</time></trkpt><trkpt lat="42.2144714" lon="13.9191835"><ele>324.0</ele><time>2026-05-03T10:43:39.871Z</time></trkpt><trkpt lat="42.2145728" lon="13.9192721"><ele>324.0</ele><time>2026-05-03T10:43:40.871Z</time></trkpt><trkpt lat="42.214681" lon="13.9193575"><ele>324.0</ele><time>2026-05-03T10:43:41.871Z</time></trkpt><trkpt lat="42.2147933" lon="13.919444"><ele>323.75</ele><time>2026-05-03T10:43:42.871Z</time></trkpt><trkpt lat="42.2149071" lon="13.9195313"><ele>323.5</ele><time>2026-05-03T10:43:43.872Z</time></trkpt><trkpt lat="42.2150192" lon="13.9196252"><ele>323.25</ele><time>2026-05-03T10:43:44.872Z</time></trkpt><trkpt lat="42.2151304" lon="13.9197249"><ele>323.0</ele><time>2026-05-03T10:43:45.871Z</time></trkpt><trkpt lat="42.215241" lon="13.919833"><ele>323.0</ele><time>2026-05-03T10:43:46.871Z</time></trkpt><trkpt lat="42.2153527" lon="13.9199397"><ele>323.0</ele><time>2026-05-03T10:43:47.871Z</time></trkpt><trkpt lat="42.2154649" lon="13.9200462"><ele>323.0</ele><time>2026-05-03T10:43:48.872Z</time></trkpt><trkpt lat="42.2155763" lon="13.9201599"><ele>323.0</ele><time>2026-05-03T10:43:49.871Z</time></trkpt><trkpt lat="42.2156875" lon="13.9202777"><ele>322.25</ele><time>2026-05-03T10:43:50.872Z</time></trkpt><trkpt lat="42.2157928" lon="13.9203942"><ele>321.5</ele><time>2026-05-03T10:43:51.872Z</time></trkpt><trkpt lat="42.2158981" lon="13.9205098"><ele>320.75</ele><time>2026-05-03T10:43:52.871Z</time></trkpt><trkpt lat="42.2160041" lon="13.9206228"><ele>320.0</ele><time>2026-05-03T10:43:53.872Z</time></trkpt><trkpt lat="42.2161043" lon="13.9207431"><ele>320.0</ele><time>2026-05-03T10:43:54.871Z</time></trkpt><trkpt lat="42.2161963" lon="13.9208705"><ele>320.0</ele><time>2026-05-03T10:43:55.871Z</time></trkpt><trkpt lat="42.2162846" lon="13.9209946"><ele>320.0</ele><time>2026-05-03T10:43:56.873Z</time></trkpt><trkpt lat="42.2163736" lon="13.9211189"><ele>320.0</ele><time>2026-05-03T10:43:57.871Z</time></trkpt><trkpt lat="42.2164588" lon="13.9212426"><ele>319.75</ele><time>2026-05-03T10:43:58.872Z</time></trkpt><trkpt lat="42.2165457" lon="13.9213672"><ele>319.5</ele><time>2026-05-03T10:43:59.871Z</time></trkpt><trkpt lat="42.2166351" lon="13.9214824"><ele>319.25</ele><time>2026-05-03T10:44:00.872Z</time></trkpt><trkpt lat="42.2167224" lon="13.9215838"><ele>319.0</ele><time>2026-05-03T10:44:01.871Z</time></trkpt><trkpt lat="42.2168054" lon="13.9216809"><ele>318.59999999999997</ele><time>2026-05-03T10:44:02.87Z</time></trkpt><trkpt lat="42.216883" lon="13.9217808"><ele>318.2</ele><time>2026-05-03T10:44:03.872Z</time></trkpt><trkpt lat="42.2169585" lon="13.9218927"><ele>317.79999999999995</ele><time>2026-05-03T10:44:04.871Z</time></trkpt><trkpt lat="42.2170206" lon="13.92201"><ele>317.4</ele><time>2026-05-03T10:44:05.873Z</time></trkpt><trkpt lat="42.2170726" lon="13.9221299"><ele>317.0</ele><time>2026-05-03T10:44:06.872Z</time></trkpt><trkpt lat="42.2171203" lon="13.9222618"><ele>317.0</ele><time>2026-05-03T10:44:07.871Z</time></trkpt><trkpt lat="42.2171658" lon="13.9224043"><ele>317.0</ele><time>2026-05-03T10:44:08.871Z</time></trkpt><trkpt lat="42.2172091" lon="13.9225544"><ele>317.0</ele><time>2026-05-03T10:44:09.871Z</time></trkpt><trkpt lat="42.2172556" lon="13.9227054"><ele>317.0</ele><time>2026-05-03T10:44:10.871Z</time></trkpt><trkpt lat="42.2172921" lon="13.9228223"><ele>317.0</ele><time>2026-05-03T10:44:11.872Z</time></trkpt><trkpt lat="42.2173297" lon="13.9229288"><ele>315.8</ele><time>2026-05-03T10:44:12.873Z</time></trkpt><trkpt lat="42.2173604" lon="13.9230255"><ele>314.6</ele><time>2026-05-03T10:44:13.873Z</time></trkpt><trkpt lat="42.217416" lon="13.9231595"><ele>313.40000000000003</ele><time>2026-05-03T10:44:15.871Z</time></trkpt><trkpt lat="42.2175075" lon="13.9232469"><ele>312.2</ele><time>2026-05-03T10:44:17.871Z</time></trkpt><trkpt lat="42.2175679" lon="13.9232991"><ele>311.0</ele><time>2026-05-03T10:44:18.871Z</time></trkpt><trkpt lat="42.2176379" lon="13.9233587"><ele>310.40000000000003</ele><time>2026-05-03T10:44:19.872Z</time></trkpt><trkpt lat="42.2177152" lon="13.9234178"><ele>309.8</ele><time>2026-05-03T10:44:20.872Z</time></trkpt><trkpt lat="42.2177976" lon="13.923477"><ele>309.20000000000005</ele><time>2026-05-03T10:44:21.871Z</time></trkpt><trkpt lat="42.2178839" lon="13.9235366"><ele>308.6</ele><time>2026-05-03T10:44:22.871Z</time></trkpt><trkpt lat="42.2179722" lon="13.923595"><ele>308.0</ele><time>2026-05-03T10:44:23.871Z</time></trkpt><trkpt lat="42.2180581" lon="13.9236648"><ele>308.0</ele><time>2026-05-03T10:44:24.87Z</time></trkpt><trkpt lat="42.2181432" lon="13.9237452"><ele>308.0</ele><time>2026-05-03T10:44:25.872Z</time></trkpt><trkpt lat="42.2182303" lon="13.9238261"><ele>308.0</ele><time>2026-05-03T10:44:26.872Z</time></trkpt><trkpt lat="42.2183193" lon="13.9239074"><ele>308.0</ele><time>2026-05-03T10:44:27.872Z</time></trkpt><trkpt lat="42.2184142" lon="13.9239865"><ele>308.0</ele><time>2026-05-03T10:44:28.871Z</time></trkpt><trkpt lat="42.2185067" lon="13.9240589"><ele>308.0</ele><time>2026-05-03T10:44:29.871Z</time></trkpt><trkpt lat="42.2185928" lon="13.9241266"><ele>308.0</ele><time>2026-05-03T10:44:30.871Z</time></trkpt><trkpt lat="42.2186742" lon="13.9241878"><ele>308.0</ele><time>2026-05-03T10:44:31.873Z</time></trkpt><trkpt lat="42.2187529" lon="13.9242409"><ele>308.0</ele><time>2026-05-03T10:44:32.871Z</time></trkpt><trkpt lat="42.2188279" lon="13.9242825"><ele>308.0</ele><time>2026-05-03T10:44:33.872Z</time></trkpt><trkpt lat="42.2189037" lon="13.9243163"><ele>308.0</ele><time>2026-05-03T10:44:34.872Z</time></trkpt><trkpt lat="42.2189851" lon="13.9243557"><ele>307.0</ele><time>2026-05-03T10:44:35.872Z</time></trkpt><trkpt lat="42.2190671" lon="13.9243977"><ele>306.0</ele><time>2026-05-03T10:44:36.871Z</time></trkpt><trkpt lat="42.2191483" lon="13.924442"><ele>305.0</ele><time>2026-05-03T10:44:37.872Z</time></trkpt><trkpt lat="42.219225" lon="13.9244941"><ele>304.0</ele><time>2026-05-03T10:44:38.871Z</time></trkpt><trkpt lat="42.219301" lon="13.9245634"><ele>303.0</ele><time>2026-05-03T10:44:39.871Z</time></trkpt><trkpt lat="42.2193713" lon="13.9246448"><ele>302.0</ele><time>2026-05-03T10:44:40.871Z</time></trkpt><trkpt lat="42.2194353" lon="13.9247312"><ele>302.0</ele><time>2026-05-03T10:44:41.872Z</time></trkpt><trkpt lat="42.2194936" lon="13.9248159"><ele>302.0</ele><time>2026-05-03T10:44:42.871Z</time></trkpt><trkpt lat="42.2195522" lon="13.9249004"><ele>302.0</ele><time>2026-05-03T10:44:43.871Z</time></trkpt><trkpt lat="42.2196145" lon="13.9249806"><ele>302.0</ele><time>2026-05-03T10:44:44.871Z</time></trkpt><trkpt lat="42.2196763" lon="13.9250655"><ele>302.0</ele><time>2026-05-03T10:44:45.871Z</time></trkpt><trkpt lat="42.2197386" lon="13.925159"><ele>302.0</ele><time>2026-05-03T10:44:46.871Z</time></trkpt><trkpt lat="42.2198052" lon="13.9252544"><ele>301.2</ele><time>2026-05-03T10:44:47.872Z</time></trkpt><trkpt lat="42.2198762" lon="13.9253374"><ele>300.4</ele><time>2026-05-03T10:44:48.872Z</time></trkpt><trkpt lat="42.2199494" lon="13.9254165"><ele>299.6</ele><time>2026-05-03T10:44:49.871Z</time></trkpt><trkpt lat="42.2200202" lon="13.9254887"><ele>298.8</ele><time>2026-05-03T10:44:50.871Z</time></trkpt><trkpt lat="42.2201053" lon="13.9255485"><ele>298.0</ele><time>2026-05-03T10:44:51.871Z</time></trkpt><trkpt lat="42.2201986" lon="13.9255788"><ele>298.0</ele><time>2026-05-03T10:44:52.873Z</time></trkpt><trkpt lat="42.220297" lon="13.9255943"><ele>298.0</ele><time>2026-05-03T10:44:53.871Z</time></trkpt><trkpt lat="42.2203891" lon="13.9256092"><ele>298.0</ele><time>2026-05-03T10:44:54.872Z</time></trkpt><trkpt lat="42.2204707" lon="13.9256234"><ele>298.0</ele><time>2026-05-03T10:44:55.871Z</time></trkpt><trkpt lat="42.2205853" lon="13.9256245"><ele>298.0</ele><time>2026-05-03T10:44:57.871Z</time></trkpt><trkpt lat="42.2206523" lon="13.925603"><ele>297.1428571428571</ele><time>2026-05-03T10:44:58.871Z</time></trkpt><trkpt lat="42.2207208" lon="13.925567"><ele>296.2857142857143</ele><time>2026-05-03T10:44:59.872Z</time></trkpt><trkpt lat="42.2207912" lon="13.9255404"><ele>295.42857142857144</ele><time>2026-05-03T10:45:00.871Z</time></trkpt><trkpt lat="42.2208588" lon="13.925522"><ele>294.57142857142856</ele><time>2026-05-03T10:45:01.871Z</time></trkpt><trkpt lat="42.2209251" lon="13.9255144"><ele>293.7142857142857</ele><time>2026-05-03T10:45:02.872Z</time></trkpt><trkpt lat="42.2209921" lon="13.9255135"><ele>292.85714285714283</ele><time>2026-05-03T10:45:03.872Z</time></trkpt><trkpt lat="42.2210674" lon="13.9255207"><ele>292.0</ele><time>2026-05-03T10:45:04.871Z</time></trkpt><trkpt lat="42.2211475" lon="13.9255269"><ele>292.0</ele><time>2026-05-03T10:45:05.871Z</time></trkpt><trkpt lat="42.2212295" lon="13.9255306"><ele>292.0</ele><time>2026-05-03T10:45:06.871Z</time></trkpt><trkpt lat="42.2213103" lon="13.9255358"><ele>292.0</ele><time>2026-05-03T10:45:07.871Z</time></trkpt><trkpt lat="42.2213902" lon="13.9255361"><ele>292.0</ele><time>2026-05-03T10:45:08.872Z</time></trkpt><trkpt lat="42.2214693" lon="13.9255383"><ele>292.0</ele><time>2026-05-03T10:45:09.872Z</time></trkpt><trkpt lat="42.2215463" lon="13.9255478"><ele>292.0</ele><time>2026-05-03T10:45:10.872Z</time></trkpt><trkpt lat="42.2216216" lon="13.9255594"><ele>290.3333333333333</ele><time>2026-05-03T10:45:11.871Z</time></trkpt><trkpt lat="42.2216962" lon="13.925575"><ele>288.66666666666663</ele><time>2026-05-03T10:45:12.871Z</time></trkpt><trkpt lat="42.2217738" lon="13.9255844"><ele>287.0</ele><time>2026-05-03T10:45:13.871Z</time></trkpt><trkpt lat="42.2218546" lon="13.9256011"><ele>285.3333333333333</ele><time>2026-05-03T10:45:14.871Z</time></trkpt><trkpt lat="42.2219353" lon="13.9256213"><ele>283.6666666666667</ele><time>2026-05-03T10:45:15.871Z</time></trkpt><trkpt lat="42.2220168" lon="13.9256478"><ele>282.0</ele><time>2026-05-03T10:45:16.87Z</time></trkpt><trkpt lat="42.2220787" lon="13.9256793"><ele>282.0</ele><time>2026-05-03T10:45:17.87Z</time></trkpt><trkpt lat="42.222148" lon="13.9257194"><ele>282.0</ele><time>2026-05-03T10:45:19.871Z</time></trkpt><trkpt lat="42.2222311" lon="13.925745"><ele>282.0</ele><time>2026-05-03T10:45:30.871Z</time></trkpt><trkpt lat="42.2223293" lon="13.9257925"><ele>282.0</ele><time>2026-05-03T10:45:32.87Z</time></trkpt><trkpt lat="42.2224267" lon="13.9258302"><ele>282.0</ele><time>2026-05-03T10:45:34.871Z</time></trkpt><trkpt lat="42.2225463" lon="13.9258427"><ele>279.2</ele><time>2026-05-03T10:45:36.87Z</time></trkpt><trkpt lat="42.2226613" lon="13.9258246"><ele>276.4</ele><time>2026-05-03T10:45:38.87Z</time></trkpt><trkpt lat="42.2227693" lon="13.9258174"><ele>273.6</ele><time>2026-05-03T10:45:40.87Z</time></trkpt><trkpt lat="42.2228584" lon="13.9258374"><ele>270.8</ele><time>2026-05-03T10:45:42.87Z</time></trkpt><trkpt lat="42.2229273" lon="13.9258696"><ele>268.0</ele><time>2026-05-03T10:45:44.87Z</time></trkpt><trkpt lat="42.222955" lon="13.9259814"><ele>265.8</ele><time>2026-05-03T10:45:47.87Z</time></trkpt><trkpt lat="42.2229611" lon="13.9260952"><ele>263.6</ele><time>2026-05-03T10:45:49.871Z</time></trkpt><trkpt lat="42.2229244" lon="13.9262012"><ele>261.4</ele><time>2026-05-03T10:45:51.87Z</time></trkpt><trkpt lat="42.222883" lon="13.9263211"><ele>259.2</ele><time>2026-05-03T10:45:53.871Z</time></trkpt><trkpt lat="42.2228395" lon="13.9264725"><ele>257.0</ele><time>2026-05-03T10:45:55.871Z</time></trkpt><trkpt lat="42.2228084" lon="13.9265545"><ele>257.0</ele><time>2026-05-03T10:45:56.87Z</time></trkpt><trkpt lat="42.2227831" lon="13.9266365"><ele>257.0</ele><time>2026-05-03T10:45:57.87Z</time></trkpt><trkpt lat="42.2227582" lon="13.9267222"><ele>257.0</ele><time>2026-05-03T10:45:58.87Z</time></trkpt><trkpt lat="42.2227302" lon="13.926818"><ele>257.0</ele><time>2026-05-03T10:45:59.87Z</time></trkpt><trkpt lat="42.2227031" lon="13.9269137"><ele>257.0</ele><time>2026-05-03T10:46:00.87Z</time></trkpt><trkpt lat="42.2226721" lon="13.9270084"><ele>257.0</ele><time>2026-05-03T10:46:01.871Z</time></trkpt><trkpt lat="42.2226341" lon="13.927098"><ele>257.0</ele><time>2026-05-03T10:46:02.87Z</time></trkpt><trkpt lat="42.2225882" lon="13.9271763"><ele>255.33333333333334</ele><time>2026-05-03T10:46:03.871Z</time></trkpt><trkpt lat="42.2225611" lon="13.9272655"><ele>253.66666666666669</ele><time>2026-05-03T10:46:04.871Z</time></trkpt><trkpt lat="42.2225275" lon="13.9273676"><ele>252.0</ele><time>2026-05-03T10:46:05.87Z</time></trkpt><trkpt lat="42.2224899" lon="13.9274564"><ele>250.33333333333331</ele><time>2026-05-03T10:46:06.87Z</time></trkpt><trkpt lat="42.22246" lon="13.9275485"><ele>248.66666666666666</ele><time>2026-05-03T10:46:07.871Z</time></trkpt><trkpt lat="42.2224313" lon="13.9276463"><ele>247.0</ele><time>2026-05-03T10:46:08.871Z</time></trkpt><trkpt lat="42.222402" lon="13.9277335"><ele>247.66666666666666</ele><time>2026-05-03T10:46:09.871Z</time></trkpt><trkpt lat="42.2223746" lon="13.9278248"><ele>248.33333333333331</ele><time>2026-05-03T10:46:10.87Z</time></trkpt><trkpt lat="42.2223473" lon="13.9279189"><ele>249.0</ele><time>2026-05-03T10:46:11.87Z</time></trkpt><trkpt lat="42.2223221" lon="13.9280027"><ele>249.66666666666669</ele><time>2026-05-03T10:46:12.871Z</time></trkpt><trkpt lat="42.2222673" lon="13.9281457"><ele>250.33333333333334</ele><time>2026-05-03T10:46:14.87Z</time></trkpt><trkpt lat="42.2222226" lon="13.9282684"><ele>251.0</ele><time>2026-05-03T10:46:16.87Z</time></trkpt><trkpt lat="42.2221862" lon="13.9283788"><ele>250.20000000000002</ele><time>2026-05-03T10:46:18.87Z</time></trkpt><trkpt lat="42.2221429" lon="13.9284981"><ele>249.40000000000003</ele><time>2026-05-03T10:46:20.87Z</time></trkpt><trkpt lat="42.2220738" lon="13.928651"><ele>248.6</ele><time>2026-05-03T10:46:22.87Z</time></trkpt><trkpt lat="42.2220307" lon="13.928736"><ele>247.8</ele><time>2026-05-03T10:46:23.871Z</time></trkpt><trkpt lat="42.2219831" lon="13.9288319"><ele>247.0</ele><time>2026-05-03T10:46:24.871Z</time></trkpt><trkpt lat="42.2219354" lon="13.9289402"><ele>247.0</ele><time>2026-05-03T10:46:25.871Z</time></trkpt><trkpt lat="42.2218861" lon="13.9290479"><ele>247.0</ele><time>2026-05-03T10:46:26.87Z</time></trkpt><trkpt lat="42.2218333" lon="13.9291626"><ele>247.0</ele><time>2026-05-03T10:46:27.871Z</time></trkpt><trkpt lat="42.2217792" lon="13.9292845"><ele>247.0</ele><time>2026-05-03T10:46:28.871Z</time></trkpt><trkpt lat="42.2217243" lon="13.9294134"><ele>247.0</ele><time>2026-05-03T10:46:29.871Z</time></trkpt><trkpt lat="42.2216671" lon="13.9295467"><ele>246.5</ele><time>2026-05-03T10:46:30.87Z</time></trkpt><trkpt lat="42.221608" lon="13.9296833"><ele>246.0</ele><time>2026-05-03T10:46:31.87Z</time></trkpt><trkpt lat="42.221548" lon="13.9298239"><ele>245.5</ele><time>2026-05-03T10:46:32.87Z</time></trkpt><trkpt lat="42.2214842" lon="13.929965"><ele>245.0</ele><time>2026-05-03T10:46:33.87Z</time></trkpt><trkpt lat="42.2214223" lon="13.9301034"><ele>249.25</ele><time>2026-05-03T10:46:34.871Z</time></trkpt><trkpt lat="42.2213573" lon="13.9302394"><ele>253.5</ele><time>2026-05-03T10:46:35.87Z</time></trkpt><trkpt lat="42.2212869" lon="13.9303737"><ele>257.75</ele><time>2026-05-03T10:46:36.871Z</time></trkpt><trkpt lat="42.2212041" lon="13.9304952"><ele>262.0</ele><time>2026-05-03T10:46:37.87Z</time></trkpt><trkpt lat="42.2211134" lon="13.9306029"><ele>262.0</ele><time>2026-05-03T10:46:38.87Z</time></trkpt><trkpt lat="42.2210178" lon="13.9306907"><ele>262.0</ele><time>2026-05-03T10:46:39.87Z</time></trkpt><trkpt lat="42.2209304" lon="13.9307598"><ele>262.0</ele><time>2026-05-03T10:46:40.871Z</time></trkpt><trkpt lat="42.2208475" lon="13.9308147"><ele>262.0</ele><time>2026-05-03T10:46:41.87Z</time></trkpt><trkpt lat="42.2207741" lon="13.9308428"><ele>262.0</ele><time>2026-05-03T10:46:42.871Z</time></trkpt><trkpt lat="42.2207083" lon="13.9308557"><ele>262.4</ele><time>2026-05-03T10:46:43.87Z</time></trkpt><trkpt lat="42.2205921" lon="13.9308762"><ele>262.79999999999995</ele><time>2026-05-03T10:46:45.87Z</time></trkpt><trkpt lat="42.2205445" lon="13.930993"><ele>263.2</ele><time>2026-05-03T10:46:47.871Z</time></trkpt><trkpt lat="42.2205866" lon="13.9311407"><ele>263.59999999999997</ele><time>2026-05-03T10:46:49.87Z</time></trkpt><trkpt lat="42.2206089" lon="13.9312389"><ele>264.0</ele><time>2026-05-03T10:46:50.871Z</time></trkpt><trkpt lat="42.2206342" lon="13.9313497"><ele>262.59999999999997</ele><time>2026-05-03T10:46:51.87Z</time></trkpt><trkpt lat="42.2206618" lon="13.9314705"><ele>261.2</ele><time>2026-05-03T10:46:52.871Z</time></trkpt><trkpt lat="42.2206886" lon="13.9315951"><ele>259.79999999999995</ele><time>2026-05-03T10:46:53.87Z</time></trkpt><trkpt lat="42.2207172" lon="13.9317176"><ele>258.4</ele><time>2026-05-03T10:46:54.869Z</time></trkpt><trkpt lat="42.2207489" lon="13.9318364"><ele>257.0</ele><time>2026-05-03T10:46:55.871Z</time></trkpt><trkpt lat="42.2207798" lon="13.931955"><ele>255.39999999999998</ele><time>2026-05-03T10:46:56.87Z</time></trkpt><trkpt lat="42.2208032" lon="13.9320747"><ele>253.79999999999998</ele><time>2026-05-03T10:46:57.871Z</time></trkpt><trkpt lat="42.2208299" lon="13.9321916"><ele>252.2</ele><time>2026-05-03T10:46:58.871Z</time></trkpt><trkpt lat="42.2208644" lon="13.9323086"><ele>250.6</ele><time>2026-05-03T10:46:59.87Z</time></trkpt><trkpt lat="42.2209099" lon="13.9324176"><ele>249.0</ele><time>2026-05-03T10:47:00.871Z</time></trkpt><trkpt lat="42.2209704" lon="13.9325271"><ele>247.2</ele><time>2026-05-03T10:47:01.87Z</time></trkpt><trkpt lat="42.2210437" lon="13.9326368"><ele>245.39999999999998</ele><time>2026-05-03T10:47:02.87Z</time></trkpt><trkpt lat="42.221126" lon="13.9327424"><ele>243.6</ele><time>2026-05-03T10:47:03.87Z</time></trkpt><trkpt lat="42.2212108" lon="13.9328438"><ele>241.8</ele><time>2026-05-03T10:47:04.87Z</time></trkpt><trkpt lat="42.2212931" lon="13.9329482"><ele>240.0</ele><time>2026-05-03T10:47:05.87Z</time></trkpt><trkpt lat="42.2213742" lon="13.9330633"><ele>240.0</ele><time>2026-05-03T10:47:06.87Z</time></trkpt><trkpt lat="42.2214507" lon="13.9331816"><ele>240.0</ele><time>2026-05-03T10:47:07.871Z</time></trkpt><trkpt lat="42.2215232" lon="13.9333006"><ele>240.0</ele><time>2026-05-03T10:47:08.87Z</time></trkpt><trkpt lat="42.2215952" lon="13.9334187"><ele>240.0</ele><time>2026-05-03T10:47:09.871Z</time></trkpt><trkpt lat="42.2216659" lon="13.933536"><ele>237.6</ele><time>2026-05-03T10:47:10.871Z</time></trkpt><trkpt lat="42.2217463" lon="13.93364"><ele>235.2</ele><time>2026-05-03T10:47:11.871Z</time></trkpt><trkpt lat="42.2218388" lon="13.9337166"><ele>232.8</ele><time>2026-05-03T10:47:12.87Z</time></trkpt><trkpt lat="42.2219384" lon="13.9337594"><ele>230.4</ele><time>2026-05-03T10:47:13.87Z</time></trkpt><trkpt lat="42.222042" lon="13.9337797"><ele>228.0</ele><time>2026-05-03T10:47:14.871Z</time></trkpt><trkpt lat="42.2221412" lon="13.9338144"><ele>228.0</ele><time>2026-05-03T10:47:15.869Z</time></trkpt><trkpt lat="42.2222261" lon="13.9338829"><ele>228.0</ele><time>2026-05-03T10:47:16.87Z</time></trkpt><trkpt lat="42.2222764" lon="13.933981"><ele>228.0</ele><time>2026-05-03T10:47:17.87Z</time></trkpt><trkpt lat="42.222301" lon="13.9341015"><ele>228.0</ele><time>2026-05-03T10:47:18.87Z</time></trkpt><trkpt lat="42.2223158" lon="13.9342377"><ele>228.0</ele><time>2026-05-03T10:47:19.871Z</time></trkpt><trkpt lat="42.2223332" lon="13.9343874"><ele>225.2</ele><time>2026-05-03T10:47:20.87Z</time></trkpt><trkpt lat="42.2223477" lon="13.9345361"><ele>222.4</ele><time>2026-05-03T10:47:21.87Z</time></trkpt><trkpt lat="42.2223622" lon="13.9346741"><ele>219.59999999999997</ele><time>2026-05-03T10:47:22.871Z</time></trkpt><trkpt lat="42.222392" lon="13.9347945"><ele>216.79999999999998</ele><time>2026-05-03T10:47:23.871Z</time></trkpt><trkpt lat="42.2224449" lon="13.9348943"><ele>214.0</ele><time>2026-05-03T10:47:24.87Z</time></trkpt><trkpt lat="42.2225196" lon="13.9349635"><ele>214.0</ele><time>2026-05-03T10:47:25.87Z</time></trkpt><trkpt lat="42.2226111" lon="13.9350146"><ele>213.99999999999997</ele><time>2026-05-03T10:47:26.87Z</time></trkpt><trkpt lat="42.2227092" lon="13.935061"><ele>213.99999999999997</ele><time>2026-05-03T10:47:27.87Z</time></trkpt><trkpt lat="42.2228153" lon="13.9351042"><ele>214.0</ele><time>2026-05-03T10:47:28.871Z</time></trkpt><trkpt lat="42.2229207" lon="13.9351529"><ele>214.0</ele><time>2026-05-03T10:47:29.87Z</time></trkpt><trkpt lat="42.2230225" lon="13.9352234"><ele>212.79999999999998</ele><time>2026-05-03T10:47:30.87Z</time></trkpt><trkpt lat="42.2231162" lon="13.9353112"><ele>211.59999999999997</ele><time>2026-05-03T10:47:31.87Z</time></trkpt><trkpt lat="42.223199" lon="13.9354091"><ele>210.4</ele><time>2026-05-03T10:47:32.87Z</time></trkpt><trkpt lat="42.2232737" lon="13.9355098"><ele>209.2</ele><time>2026-05-03T10:47:33.87Z</time></trkpt><trkpt lat="42.2233414" lon="13.9356155"><ele>208.0</ele><time>2026-05-03T10:47:34.87Z</time></trkpt><trkpt lat="42.223404" lon="13.9357252"><ele>207.33333333333331</ele><time>2026-05-03T10:47:35.871Z</time></trkpt><trkpt lat="42.2234603" lon="13.9358365"><ele>206.66666666666666</ele><time>2026-05-03T10:47:36.871Z</time></trkpt><trkpt lat="42.2235075" lon="13.9359514"><ele>206.0</ele><time>2026-05-03T10:47:37.87Z</time></trkpt><trkpt lat="42.223549" lon="13.936057"><ele>205.33333333333331</ele><time>2026-05-03T10:47:38.871Z</time></trkpt><trkpt lat="42.2235873" lon="13.9361555"><ele>204.66666666666666</ele><time>2026-05-03T10:47:39.871Z</time></trkpt><trkpt lat="42.2236303" lon="13.9362449"><ele>204.0</ele><time>2026-05-03T10:47:40.871Z</time></trkpt><trkpt lat="42.2236873" lon="13.9363162"><ele>203.66666666666666</ele><time>2026-05-03T10:47:41.87Z</time></trkpt><trkpt lat="42.2237584" lon="13.9363583"><ele>203.33333333333331</ele><time>2026-05-03T10:47:42.87Z</time></trkpt><trkpt lat="42.2238367" lon="13.9363662"><ele>203.0</ele><time>2026-05-03T10:47:43.87Z</time></trkpt><trkpt lat="42.2239149" lon="13.9363692"><ele>202.66666666666666</ele><time>2026-05-03T10:47:44.871Z</time></trkpt><trkpt lat="42.2239894" lon="13.9363859"><ele>202.33333333333331</ele><time>2026-05-03T10:47:45.87Z</time></trkpt><trkpt lat="42.2240678" lon="13.936413"><ele>202.0</ele><time>2026-05-03T10:47:46.871Z</time></trkpt><trkpt lat="42.2241395" lon="13.9364799"><ele>201.2</ele><time>2026-05-03T10:47:47.87Z</time></trkpt><trkpt lat="42.2242216" lon="13.9365347"><ele>200.39999999999998</ele><time>2026-05-03T10:47:48.87Z</time></trkpt><trkpt lat="42.2243169" lon="13.9365752"><ele>199.60000000000002</ele><time>2026-05-03T10:47:49.87Z</time></trkpt><trkpt lat="42.2244206" lon="13.9366114"><ele>198.8</ele><time>2026-05-03T10:47:50.871Z</time></trkpt><trkpt lat="42.2245309" lon="13.9366464"><ele>198.0</ele><time>2026-05-03T10:47:51.87Z</time></trkpt><trkpt lat="42.2246455" lon="13.936685"><ele>198.0</ele><time>2026-05-03T10:47:52.871Z</time></trkpt><trkpt lat="42.2247619" lon="13.9367251"><ele>198.0</ele><time>2026-05-03T10:47:53.871Z</time></trkpt><trkpt lat="42.2248814" lon="13.936763"><ele>198.0</ele><time>2026-05-03T10:47:54.871Z</time></trkpt><trkpt lat="42.2249969" lon="13.9368021"><ele>198.0</ele><time>2026-05-03T10:47:55.87Z</time></trkpt><trkpt lat="42.2251016" lon="13.9368395"><ele>197.60000000000002</ele><time>2026-05-03T10:47:56.87Z</time></trkpt><trkpt lat="42.2252058" lon="13.936875"><ele>197.20000000000002</ele><time>2026-05-03T10:47:57.871Z</time></trkpt><trkpt lat="42.2253048" lon="13.9369108"><ele>196.8</ele><time>2026-05-03T10:47:58.87Z</time></trkpt><trkpt lat="42.2253965" lon="13.9369445"><ele>196.4</ele><time>2026-05-03T10:47:59.87Z</time></trkpt><trkpt lat="42.2254861" lon="13.9369863"><ele>196.0</ele><time>2026-05-03T10:48:00.87Z</time></trkpt><trkpt lat="42.225564" lon="13.9370486"><ele>196.0</ele><time>2026-05-03T10:48:01.871Z</time></trkpt><trkpt lat="42.2256255" lon="13.9371294"><ele>196.0</ele><time>2026-05-03T10:48:02.871Z</time></trkpt><trkpt lat="42.2256731" lon="13.9372068"><ele>196.0</ele><time>2026-05-03T10:48:03.87Z</time></trkpt><trkpt lat="42.2257186" lon="13.937316"><ele>196.0</ele><time>2026-05-03T10:48:05.871Z</time></trkpt><trkpt lat="42.2257449" lon="13.9374273"><ele>196.0</ele><time>2026-05-03T10:48:07.871Z</time></trkpt><trkpt lat="42.2257493" lon="13.9376033"><ele>195.8</ele><time>2026-05-03T10:48:09.87Z</time></trkpt><trkpt lat="42.2257483" lon="13.9377164"><ele>195.60000000000002</ele><time>2026-05-03T10:48:10.871Z</time></trkpt><trkpt lat="42.2257451" lon="13.9378434"><ele>195.4</ele><time>2026-05-03T10:48:11.87Z</time></trkpt><trkpt lat="42.2257425" lon="13.937985"><ele>195.2</ele><time>2026-05-03T10:48:12.871Z</time></trkpt><trkpt lat="42.2257419" lon="13.9381418"><ele>195.0</ele><time>2026-05-03T10:48:13.871Z</time></trkpt><trkpt lat="42.2257391" lon="13.938309"><ele>195.25</ele><time>2026-05-03T10:48:14.87Z</time></trkpt><trkpt lat="42.2257352" lon="13.9384827"><ele>195.5</ele><time>2026-05-03T10:48:15.87Z</time></trkpt><trkpt lat="42.2257296" lon="13.9386635"><ele>195.75</ele><time>2026-05-03T10:48:16.87Z</time></trkpt><trkpt lat="42.2257258" lon="13.9388491"><ele>196.0</ele><time>2026-05-03T10:48:17.871Z</time></trkpt><trkpt lat="42.2257183" lon="13.9390423"><ele>195.75</ele><time>2026-05-03T10:48:18.87Z</time></trkpt><trkpt lat="42.2257152" lon="13.9392398"><ele>195.5</ele><time>2026-05-03T10:48:19.87Z</time></trkpt><trkpt lat="42.2257134" lon="13.9394425"><ele>195.25</ele><time>2026-05-03T10:48:20.87Z</time></trkpt><trkpt lat="42.2257075" lon="13.9396479"><ele>195.0</ele><time>2026-05-03T10:48:21.871Z</time></trkpt><trkpt lat="42.2257032" lon="13.9398538"><ele>194.66666666666669</ele><time>2026-05-03T10:48:22.871Z</time></trkpt><trkpt lat="42.2257002" lon="13.9400605"><ele>194.33333333333334</ele><time>2026-05-03T10:48:23.871Z</time></trkpt><trkpt lat="42.2257029" lon="13.9402699"><ele>194.0</ele><time>2026-05-03T10:48:24.87Z</time></trkpt><trkpt lat="42.2257143" lon="13.9404789"><ele>194.0</ele><time>2026-05-03T10:48:25.87Z</time></trkpt><trkpt lat="42.2257353" lon="13.9406857"><ele>194.0</ele><time>2026-05-03T10:48:26.87Z</time></trkpt><trkpt lat="42.2257671" lon="13.9408906"><ele>194.0</ele><time>2026-05-03T10:48:27.87Z</time></trkpt><trkpt lat="42.2258098" lon="13.9410948"><ele>193.66666666666669</ele><time>2026-05-03T10:48:28.87Z</time></trkpt><trkpt lat="42.225862" lon="13.9413022"><ele>193.33333333333331</ele><time>2026-05-03T10:48:29.871Z</time></trkpt><trkpt lat="42.2259173" lon="13.9415118"><ele>193.0</ele><time>2026-05-03T10:48:30.871Z</time></trkpt><trkpt lat="42.2259764" lon="13.9417263"><ele>193.0</ele><time>2026-05-03T10:48:31.871Z</time></trkpt><trkpt lat="42.2260381" lon="13.9419457"><ele>193.0</ele><time>2026-05-03T10:48:32.871Z</time></trkpt><trkpt lat="42.2261017" lon="13.9421745"><ele>193.0</ele><time>2026-05-03T10:48:33.87Z</time></trkpt><trkpt lat="42.2261685" lon="13.9424044"><ele>193.0</ele><time>2026-05-03T10:48:34.87Z</time></trkpt><trkpt lat="42.2262341" lon="13.9426398"><ele>193.0</ele><time>2026-05-03T10:48:35.87Z</time></trkpt><trkpt lat="42.2263024" lon="13.9428839"><ele>193.0</ele><time>2026-05-03T10:48:36.871Z</time></trkpt><trkpt lat="42.2263737" lon="13.9431349"><ele>193.66666666666666</ele><time>2026-05-03T10:48:37.87Z</time></trkpt><trkpt lat="42.2264476" lon="13.9433878"><ele>194.33333333333331</ele><time>2026-05-03T10:48:38.871Z</time></trkpt><trkpt lat="42.2265208" lon="13.9436409"><ele>195.0</ele><time>2026-05-03T10:48:39.871Z</time></trkpt><trkpt lat="42.2265936" lon="13.9438943"><ele>195.33333333333331</ele><time>2026-05-03T10:48:40.87Z</time></trkpt><trkpt lat="42.2266652" lon="13.9441446"><ele>195.66666666666666</ele><time>2026-05-03T10:48:41.87Z</time></trkpt><trkpt lat="42.2267409" lon="13.9443937"><ele>196.0</ele><time>2026-05-03T10:48:42.87Z</time></trkpt><trkpt lat="42.2268147" lon="13.9446436"><ele>196.66666666666666</ele><time>2026-05-03T10:48:43.87Z</time></trkpt><trkpt lat="42.2268868" lon="13.9448927"><ele>197.33333333333331</ele><time>2026-05-03T10:48:44.87Z</time></trkpt><trkpt lat="42.2269573" lon="13.9451415"><ele>198.0</ele><time>2026-05-03T10:48:45.87Z</time></trkpt><trkpt lat="42.2270274" lon="13.9453889"><ele>198.0</ele><time>2026-05-03T10:48:46.87Z</time></trkpt><trkpt lat="42.2270985" lon="13.9456367"><ele>198.0</ele><time>2026-05-03T10:48:47.87Z</time></trkpt><trkpt lat="42.2271716" lon="13.9458866"><ele>198.0</ele><time>2026-05-03T10:48:48.871Z</time></trkpt><trkpt lat="42.2272419" lon="13.9461349"><ele>199.0</ele><time>2026-05-03T10:48:49.87Z</time></trkpt><trkpt lat="42.2273148" lon="13.9463836"><ele>200.0</ele><time>2026-05-03T10:48:50.871Z</time></trkpt><trkpt lat="42.2273865" lon="13.9466333"><ele>201.0</ele><time>2026-05-03T10:48:51.87Z</time></trkpt><trkpt lat="42.2274573" lon="13.9468805"><ele>202.0</ele><time>2026-05-03T10:48:52.871Z</time></trkpt><trkpt lat="42.2275294" lon="13.9471257"><ele>203.0</ele><time>2026-05-03T10:48:53.87Z</time></trkpt><trkpt lat="42.227601" lon="13.9473695"><ele>204.0</ele><time>2026-05-03T10:48:54.87Z</time></trkpt><trkpt lat="42.2276711" lon="13.9476103"><ele>205.0</ele><time>2026-05-03T10:48:55.87Z</time></trkpt><trkpt lat="42.2277423" lon="13.9478421"><ele>206.0</ele><time>2026-05-03T10:48:56.87Z</time></trkpt><trkpt lat="42.2278219" lon="13.9480518"><ele>207.0</ele><time>2026-05-03T10:48:57.87Z</time></trkpt><trkpt lat="42.227924" lon="13.9482367"><ele>207.66666666666669</ele><time>2026-05-03T10:48:58.87Z</time></trkpt><trkpt lat="42.2280477" lon="13.9483902"><ele>208.33333333333334</ele><time>2026-05-03T10:48:59.871Z</time></trkpt><trkpt lat="42.2281865" lon="13.9485311"><ele>209.0</ele><time>2026-05-03T10:49:00.871Z</time></trkpt><trkpt lat="42.2283313" lon="13.9486689"><ele>209.33333333333334</ele><time>2026-05-03T10:49:01.87Z</time></trkpt><trkpt lat="42.2284756" lon="13.9488026"><ele>209.66666666666669</ele><time>2026-05-03T10:49:02.87Z</time></trkpt><trkpt lat="42.2286209" lon="13.9489354"><ele>210.0</ele><time>2026-05-03T10:49:03.87Z</time></trkpt><trkpt lat="42.2287682" lon="13.9490644"><ele>210.0</ele><time>2026-05-03T10:49:04.87Z</time></trkpt><trkpt lat="42.2289113" lon="13.9491999"><ele>210.0</ele><time>2026-05-03T10:49:05.87Z</time></trkpt><trkpt lat="42.2290524" lon="13.9493381"><ele>210.0</ele><time>2026-05-03T10:49:06.87Z</time></trkpt><trkpt lat="42.2291916" lon="13.9494745"><ele>213.33333333333331</ele><time>2026-05-03T10:49:07.87Z</time></trkpt><trkpt lat="42.2293313" lon="13.949607"><ele>216.66666666666666</ele><time>2026-05-03T10:49:08.87Z</time></trkpt><trkpt lat="42.2294715" lon="13.9497344"><ele>220.0</ele><time>2026-05-03T10:49:09.87Z</time></trkpt><trkpt lat="42.2296124" lon="13.9498545"><ele>220.0</ele><time>2026-05-03T10:49:10.871Z</time></trkpt><trkpt lat="42.2297554" lon="13.9499607"><ele>220.0</ele><time>2026-05-03T10:49:11.87Z</time></trkpt><trkpt lat="42.2299063" lon="13.9500359"><ele>220.0</ele><time>2026-05-03T10:49:12.87Z</time></trkpt><trkpt lat="42.2300634" lon="13.9500837"><ele>223.0</ele><time>2026-05-03T10:49:13.87Z</time></trkpt><trkpt lat="42.2302226" lon="13.9501179"><ele>226.0</ele><time>2026-05-03T10:49:14.87Z</time></trkpt><trkpt lat="42.2303809" lon="13.9501481"><ele>229.0</ele><time>2026-05-03T10:49:15.87Z</time></trkpt><trkpt lat="42.2305407" lon="13.9501772"><ele>233.0</ele><time>2026-05-03T10:49:16.87Z</time></trkpt><trkpt lat="42.2307029" lon="13.9502063"><ele>237.0</ele><time>2026-05-03T10:49:17.87Z</time></trkpt><trkpt lat="42.2308645" lon="13.9502349"><ele>241.0</ele><time>2026-05-03T10:49:18.87Z</time></trkpt><trkpt lat="42.2310263" lon="13.9502751"><ele>241.0</ele><time>2026-05-03T10:49:19.871Z</time></trkpt><trkpt lat="42.2311893" lon="13.9503162"><ele>241.0</ele><time>2026-05-03T10:49:20.871Z</time></trkpt><trkpt lat="42.2313522" lon="13.950363"><ele>241.0</ele><time>2026-05-03T10:49:21.871Z</time></trkpt><trkpt lat="42.2315191" lon="13.9504133"><ele>242.0</ele><time>2026-05-03T10:49:22.87Z</time></trkpt><trkpt lat="42.2316899" lon="13.9504661"><ele>243.0</ele><time>2026-05-03T10:49:23.87Z</time></trkpt><trkpt lat="42.2318606" lon="13.9505187"><ele>244.0</ele><time>2026-05-03T10:49:24.871Z</time></trkpt><trkpt lat="42.2320307" lon="13.9505761"><ele>244.0</ele><time>2026-05-03T10:49:25.87Z</time></trkpt><trkpt lat="42.2322023" lon="13.9506278"><ele>244.0</ele><time>2026-05-03T10:49:26.87Z</time></trkpt><trkpt lat="42.2323719" lon="13.9506782"><ele>244.0</ele><time>2026-05-03T10:49:27.87Z</time></trkpt><trkpt lat="42.23254" lon="13.9507298"><ele>244.33333333333331</ele><time>2026-05-03T10:49:28.87Z</time></trkpt><trkpt lat="42.2327007" lon="13.9507785"><ele>244.66666666666669</ele><time>2026-05-03T10:49:29.871Z</time></trkpt><trkpt lat="42.2328473" lon="13.9508245"><ele>245.0</ele><time>2026-05-03T10:49:30.87Z</time></trkpt><trkpt lat="42.2329821" lon="13.950867"><ele>244.25</ele><time>2026-05-03T10:49:31.87Z</time></trkpt><trkpt lat="42.2331136" lon="13.9509118"><ele>243.5</ele><time>2026-05-03T10:49:32.87Z</time></trkpt><trkpt lat="42.2332525" lon="13.9509543"><ele>242.75</ele><time>2026-05-03T10:49:33.87Z</time></trkpt><trkpt lat="42.2333997" lon="13.9510017"><ele>242.0</ele><time>2026-05-03T10:49:34.869Z</time></trkpt><trkpt lat="42.2335564" lon="13.9510504"><ele>242.0</ele><time>2026-05-03T10:49:35.871Z</time></trkpt><trkpt lat="42.2337209" lon="13.9511006"><ele>242.0</ele><time>2026-05-03T10:49:36.871Z</time></trkpt><trkpt lat="42.2338899" lon="13.9511554"><ele>242.0</ele><time>2026-05-03T10:49:37.871Z</time></trkpt><trkpt lat="42.2340619" lon="13.951209"><ele>239.0</ele><time>2026-05-03T10:49:38.87Z</time></trkpt><trkpt lat="42.2342358" lon="13.9512625"><ele>236.0</ele><time>2026-05-03T10:49:39.87Z</time></trkpt><trkpt lat="42.2344053" lon="13.951316"><ele>233.0</ele><time>2026-05-03T10:49:40.871Z</time></trkpt><trkpt lat="42.2345711" lon="13.9513667"><ele>233.0</ele><time>2026-05-03T10:49:41.871Z</time></trkpt><trkpt lat="42.2347382" lon="13.9514204"><ele>233.0</ele><time>2026-05-03T10:49:42.87Z</time></trkpt><trkpt lat="42.2348996" lon="13.9514729"><ele>233.0</ele><time>2026-05-03T10:49:43.87Z</time></trkpt><trkpt lat="42.2350554" lon="13.9515239"><ele>231.0</ele><time>2026-05-03T10:49:44.87Z</time></trkpt><trkpt lat="42.2352081" lon="13.9515793"><ele>229.0</ele><time>2026-05-03T10:49:45.87Z</time></trkpt><trkpt lat="42.2353556" lon="13.9516443"><ele>227.0</ele><time>2026-05-03T10:49:46.87Z</time></trkpt><trkpt lat="42.2354953" lon="13.9517199"><ele>226.0</ele><time>2026-05-03T10:49:47.871Z</time></trkpt><trkpt lat="42.2356238" lon="13.9518179"><ele>225.0</ele><time>2026-05-03T10:49:48.87Z</time></trkpt><trkpt lat="42.2357402" lon="13.9519312"><ele>224.0</ele><time>2026-05-03T10:49:49.87Z</time></trkpt><trkpt lat="42.2358512" lon="13.9520665"><ele>223.0</ele><time>2026-05-03T10:49:50.871Z</time></trkpt><trkpt lat="42.235963" lon="13.9522112"><ele>223.0</ele><time>2026-05-03T10:49:51.87Z</time></trkpt><trkpt lat="42.2360782" lon="13.9523596"><ele>223.0</ele><time>2026-05-03T10:49:52.87Z</time></trkpt><trkpt lat="42.2362003" lon="13.9525047"><ele>223.0</ele><time>2026-05-03T10:49:53.87Z</time></trkpt><trkpt lat="42.236333" lon="13.9526255"><ele>224.66666666666666</ele><time>2026-05-03T10:49:54.871Z</time></trkpt><trkpt lat="42.2364829" lon="13.9527154"><ele>226.33333333333331</ele><time>2026-05-03T10:49:55.87Z</time></trkpt><trkpt lat="42.2366419" lon="13.9527827"><ele>228.0</ele><time>2026-05-03T10:49:56.87Z</time></trkpt><trkpt lat="42.2368079" lon="13.9528423"><ele>228.0</ele><time>2026-05-03T10:49:57.87Z</time></trkpt><trkpt lat="42.2369753" lon="13.9528967"><ele>228.0</ele><time>2026-05-03T10:49:58.871Z</time></trkpt><trkpt lat="42.2371391" lon="13.9529465"><ele>228.0</ele><time>2026-05-03T10:49:59.87Z</time></trkpt><trkpt lat="42.2372961" lon="13.9529967"><ele>224.33333333333331</ele><time>2026-05-03T10:50:00.87Z</time></trkpt><trkpt lat="42.2374539" lon="13.9530447"><ele>220.66666666666666</ele><time>2026-05-03T10:50:01.871Z</time></trkpt><trkpt lat="42.2376088" lon="13.9530939"><ele>217.0</ele><time>2026-05-03T10:50:02.871Z</time></trkpt><trkpt lat="42.2377574" lon="13.9531409"><ele>217.0</ele><time>2026-05-03T10:50:03.87Z</time></trkpt><trkpt lat="42.2378996" lon="13.9531902"><ele>217.0</ele><time>2026-05-03T10:50:04.871Z</time></trkpt><trkpt lat="42.2380375" lon="13.9532398"><ele>217.0</ele><time>2026-05-03T10:50:05.87Z</time></trkpt><trkpt lat="42.2381726" lon="13.9532801"><ele>217.0</ele><time>2026-05-03T10:50:06.871Z</time></trkpt><trkpt lat="42.2383075" lon="13.9533188"><ele>217.25</ele><time>2026-05-03T10:50:07.87Z</time></trkpt><trkpt lat="42.2384509" lon="13.9533497"><ele>217.5</ele><time>2026-05-03T10:50:08.87Z</time></trkpt><trkpt lat="42.2385989" lon="13.9533518"><ele>217.75</ele><time>2026-05-03T10:50:09.871Z</time></trkpt><trkpt lat="42.2387448" lon="13.9533263"><ele>218.0</ele><time>2026-05-03T10:50:10.871Z</time></trkpt><trkpt lat="42.2388844" lon="13.9532695"><ele>217.25</ele><time>2026-05-03T10:50:11.87Z</time></trkpt><trkpt lat="42.2390162" lon="13.9531809"><ele>216.5</ele><time>2026-05-03T10:50:12.87Z</time></trkpt><trkpt lat="42.2391325" lon="13.9530611"><ele>215.75</ele><time>2026-05-03T10:50:13.87Z</time></trkpt><trkpt lat="42.2392306" lon="13.9529114"><ele>215.0</ele><time>2026-05-03T10:50:14.87Z</time></trkpt><trkpt lat="42.2393102" lon="13.9527453"><ele>215.0</ele><time>2026-05-03T10:50:15.871Z</time></trkpt><trkpt lat="42.2393668" lon="13.952561"><ele>215.0</ele><time>2026-05-03T10:50:16.869Z</time></trkpt><trkpt lat="42.239404" lon="13.9523577"><ele>215.0</ele><time>2026-05-03T10:50:17.871Z</time></trkpt><trkpt lat="42.2394314" lon="13.9521472"><ele>213.0</ele><time>2026-05-03T10:50:18.871Z</time></trkpt><trkpt lat="42.2394623" lon="13.9519309"><ele>211.0</ele><time>2026-05-03T10:50:19.87Z</time></trkpt><trkpt lat="42.2394885" lon="13.9517137"><ele>209.0</ele><time>2026-05-03T10:50:20.87Z</time></trkpt><trkpt lat="42.2395137" lon="13.951514"><ele>207.25</ele><time>2026-05-03T10:50:21.87Z</time></trkpt><trkpt lat="42.2395372" lon="13.9513316"><ele>205.5</ele><time>2026-05-03T10:50:22.87Z</time></trkpt><trkpt lat="42.2395773" lon="13.9511736"><ele>203.75</ele><time>2026-05-03T10:50:23.87Z</time></trkpt><trkpt lat="42.2396455" lon="13.9510464"><ele>202.0</ele><time>2026-05-03T10:50:24.87Z</time></trkpt><trkpt lat="42.2397425" lon="13.9509413"><ele>200.5</ele><time>2026-05-03T10:50:25.869Z</time></trkpt><trkpt lat="42.2398582" lon="13.9508568"><ele>199.0</ele><time>2026-05-03T10:50:26.87Z</time></trkpt><trkpt lat="42.2399891" lon="13.9507894"><ele>197.5</ele><time>2026-05-03T10:50:27.87Z</time></trkpt><trkpt lat="42.2401271" lon="13.9507398"><ele>196.0</ele><time>2026-05-03T10:50:28.87Z</time></trkpt><trkpt lat="42.2402764" lon="13.9507184"><ele>196.0</ele><time>2026-05-03T10:50:29.871Z</time></trkpt><trkpt lat="42.2404319" lon="13.9507231"><ele>196.0</ele><time>2026-05-03T10:50:30.87Z</time></trkpt><trkpt lat="42.2405895" lon="13.9507486"><ele>196.0</ele><time>2026-05-03T10:50:31.871Z</time></trkpt><trkpt lat="42.2407464" lon="13.9507899"><ele>195.33333333333331</ele><time>2026-05-03T10:50:32.87Z</time></trkpt><trkpt lat="42.2409061" lon="13.950838"><ele>194.66666666666669</ele><time>2026-05-03T10:50:33.87Z</time></trkpt><trkpt lat="42.2410632" lon="13.9508939"><ele>194.0</ele><time>2026-05-03T10:50:34.869Z</time></trkpt><trkpt lat="42.241215" lon="13.9509463"><ele>193.33333333333334</ele><time>2026-05-03T10:50:35.869Z</time></trkpt><trkpt lat="42.2413659" lon="13.9509982"><ele>192.66666666666669</ele><time>2026-05-03T10:50:36.869Z</time></trkpt><trkpt lat="42.2415148" lon="13.9510414"><ele>192.0</ele><time>2026-05-03T10:50:37.869Z</time></trkpt><trkpt lat="42.2416604" lon="13.9510878"><ele>192.0</ele><time>2026-05-03T10:50:38.87Z</time></trkpt><trkpt lat="42.2418033" lon="13.9511327"><ele>192.0</ele><time>2026-05-03T10:50:39.869Z</time></trkpt><trkpt lat="42.2419481" lon="13.9511728"><ele>192.0</ele><time>2026-05-03T10:50:40.869Z</time></trkpt><trkpt lat="42.242094" lon="13.9512077"><ele>192.0</ele><time>2026-05-03T10:50:41.87Z</time></trkpt><trkpt lat="42.2422382" lon="13.951232"><ele>190.25</ele><time>2026-05-03T10:50:42.87Z</time></trkpt><trkpt lat="42.2423832" lon="13.9512401"><ele>188.5</ele><time>2026-05-03T10:50:43.87Z</time></trkpt><trkpt lat="42.2425298" lon="13.9512278"><ele>186.75</ele><time>2026-05-03T10:50:44.87Z</time></trkpt><trkpt lat="42.2426814" lon="13.9511893"><ele>185.0</ele><time>2026-05-03T10:50:45.87Z</time></trkpt><trkpt lat="42.2428348" lon="13.9511331"><ele>185.0</ele><time>2026-05-03T10:50:46.869Z</time></trkpt><trkpt lat="42.242986" lon="13.9510712"><ele>185.0</ele><time>2026-05-03T10:50:47.869Z</time></trkpt><trkpt lat="42.2431358" lon="13.9510074"><ele>185.0</ele><time>2026-05-03T10:50:48.869Z</time></trkpt><trkpt lat="42.2432875" lon="13.9509398"><ele>184.33333333333331</ele><time>2026-05-03T10:50:49.87Z</time></trkpt><trkpt lat="42.2434387" lon="13.9508743"><ele>183.66666666666666</ele><time>2026-05-03T10:50:50.87Z</time></trkpt><trkpt lat="42.2435937" lon="13.9508109"><ele>183.0</ele><time>2026-05-03T10:50:51.87Z</time></trkpt><trkpt lat="42.2437486" lon="13.9507455"><ele>179.33333333333334</ele><time>2026-05-03T10:50:52.869Z</time></trkpt><trkpt lat="42.2439064" lon="13.9506868"><ele>175.66666666666669</ele><time>2026-05-03T10:50:53.869Z</time></trkpt><trkpt lat="42.2440663" lon="13.9506439"><ele>172.0</ele><time>2026-05-03T10:50:54.869Z</time></trkpt><trkpt lat="42.2442315" lon="13.9506293"><ele>170.66666666666669</ele><time>2026-05-03T10:50:55.87Z</time></trkpt><trkpt lat="42.2443952" lon="13.9506284"><ele>169.33333333333334</ele><time>2026-05-03T10:50:56.869Z</time></trkpt><trkpt lat="42.2445563" lon="13.9506271"><ele>168.0</ele><time>2026-05-03T10:50:57.87Z</time></trkpt><trkpt lat="42.2447142" lon="13.9506278"><ele>165.66666666666666</ele><time>2026-05-03T10:50:58.869Z</time></trkpt><trkpt lat="42.2448691" lon="13.9506298"><ele>163.33333333333331</ele><time>2026-05-03T10:50:59.87Z</time></trkpt><trkpt lat="42.2450175" lon="13.9506474"><ele>161.0</ele><time>2026-05-03T10:51:00.869Z</time></trkpt><trkpt lat="42.2451651" lon="13.9506942"><ele>161.0</ele><time>2026-05-03T10:51:01.87Z</time></trkpt><trkpt lat="42.2453082" lon="13.9507569"><ele>161.0</ele><time>2026-05-03T10:51:02.869Z</time></trkpt><trkpt lat="42.2454473" lon="13.9508237"><ele>161.0</ele><time>2026-05-03T10:51:03.869Z</time></trkpt><trkpt lat="42.2455818" lon="13.9508957"><ele>161.0</ele><time>2026-05-03T10:51:04.869Z</time></trkpt><trkpt lat="42.2457147" lon="13.9509743"><ele>159.25</ele><time>2026-05-03T10:51:05.869Z</time></trkpt><trkpt lat="42.2458395" lon="13.9510671"><ele>157.5</ele><time>2026-05-03T10:51:06.869Z</time></trkpt><trkpt lat="42.2459503" lon="13.9511809"><ele>155.75</ele><time>2026-05-03T10:51:07.869Z</time></trkpt><trkpt lat="42.2460508" lon="13.9513096"><ele>154.0</ele><time>2026-05-03T10:51:08.869Z</time></trkpt><trkpt lat="42.2461447" lon="13.9514407"><ele>154.0</ele><time>2026-05-03T10:51:09.869Z</time></trkpt><trkpt lat="42.2462343" lon="13.9515709"><ele>154.0</ele><time>2026-05-03T10:51:10.869Z</time></trkpt><trkpt lat="42.2463198" lon="13.9516919"><ele>154.0</ele><time>2026-05-03T10:51:11.87Z</time></trkpt><trkpt lat="42.2464055" lon="13.9518076"><ele>154.0</ele><time>2026-05-03T10:51:12.87Z</time></trkpt><trkpt lat="42.2464882" lon="13.9519134"><ele>151.75</ele><time>2026-05-03T10:51:13.869Z</time></trkpt><trkpt lat="42.2465765" lon="13.952003"><ele>149.5</ele><time>2026-05-03T10:51:14.869Z</time></trkpt><trkpt lat="42.2466737" lon="13.9520652"><ele>147.25</ele><time>2026-05-03T10:51:15.87Z</time></trkpt><trkpt lat="42.2467807" lon="13.9521007"><ele>145.0</ele><time>2026-05-03T10:51:16.869Z</time></trkpt><trkpt lat="42.2469019" lon="13.9521098"><ele>145.0</ele><time>2026-05-03T10:51:17.87Z</time></trkpt><trkpt lat="42.2470334" lon="13.9521015"><ele>145.0</ele><time>2026-05-03T10:51:18.869Z</time></trkpt><trkpt lat="42.247166" lon="13.9520825"><ele>145.0</ele><time>2026-05-03T10:51:19.869Z</time></trkpt><trkpt lat="42.247302" lon="13.9520686"><ele>145.0</ele><time>2026-05-03T10:51:20.869Z</time></trkpt><trkpt lat="42.2474389" lon="13.9520534"><ele>143.75</ele><time>2026-05-03T10:51:21.869Z</time></trkpt><trkpt lat="42.2475746" lon="13.9520414"><ele>142.5</ele><time>2026-05-03T10:51:22.869Z</time></trkpt><trkpt lat="42.2477101" lon="13.9520281"><ele>141.25</ele><time>2026-05-03T10:51:23.869Z</time></trkpt><trkpt lat="42.2478474" lon="13.9520153"><ele>140.0</ele><time>2026-05-03T10:51:24.87Z</time></trkpt><trkpt lat="42.2479835" lon="13.9520026"><ele>140.0</ele><time>2026-05-03T10:51:25.871Z</time></trkpt><trkpt lat="42.2481168" lon="13.9519904"><ele>140.0</ele><time>2026-05-03T10:51:26.87Z</time></trkpt><trkpt lat="42.2482488" lon="13.9519788"><ele>140.0</ele><time>2026-05-03T10:51:27.869Z</time></trkpt><trkpt lat="42.2483804" lon="13.9519626"><ele>140.0</ele><time>2026-05-03T10:51:28.869Z</time></trkpt><trkpt lat="42.2485116" lon="13.9519464"><ele>140.25</ele><time>2026-05-03T10:51:29.869Z</time></trkpt><trkpt lat="42.2486467" lon="13.9519305"><ele>140.5</ele><time>2026-05-03T10:51:30.87Z</time></trkpt><trkpt lat="42.2487852" lon="13.9519156"><ele>140.75</ele><time>2026-05-03T10:51:31.869Z</time></trkpt><trkpt lat="42.2489224" lon="13.9519045"><ele>141.0</ele><time>2026-05-03T10:51:32.869Z</time></trkpt><trkpt lat="42.2490592" lon="13.9518916"><ele>141.0</ele><time>2026-05-03T10:51:33.87Z</time></trkpt><trkpt lat="42.2491914" lon="13.9518782"><ele>141.0</ele><time>2026-05-03T10:51:34.87Z</time></trkpt><trkpt lat="42.2493199" lon="13.951865"><ele>141.0</ele><time>2026-05-03T10:51:35.869Z</time></trkpt><trkpt lat="42.249444" lon="13.9518546"><ele>141.0</ele><time>2026-05-03T10:51:36.87Z</time></trkpt><trkpt lat="42.2495622" lon="13.9518416"><ele>141.0</ele><time>2026-05-03T10:51:37.869Z</time></trkpt><trkpt lat="42.2496757" lon="13.9518258"><ele>141.0</ele><time>2026-05-03T10:51:38.869Z</time></trkpt><trkpt lat="42.249786" lon="13.9518149"><ele>141.0</ele><time>2026-05-03T10:51:39.87Z</time></trkpt><trkpt lat="42.2498973" lon="13.9518021"><ele>141.0</ele><time>2026-05-03T10:51:40.87Z</time></trkpt><trkpt lat="42.2500086" lon="13.9517886"><ele>141.0</ele><time>2026-05-03T10:51:41.87Z</time></trkpt><trkpt lat="42.2501252" lon="13.9517809"><ele>140.4</ele><time>2026-05-03T10:51:42.869Z</time></trkpt><trkpt lat="42.2502381" lon="13.9517732"><ele>139.8</ele><time>2026-05-03T10:51:43.869Z</time></trkpt><trkpt lat="42.2503519" lon="13.95176"><ele>139.20000000000002</ele><time>2026-05-03T10:51:44.869Z</time></trkpt><trkpt lat="42.2504618" lon="13.9517477"><ele>138.6</ele><time>2026-05-03T10:51:45.87Z</time></trkpt><trkpt lat="42.2505646" lon="13.951734"><ele>138.0</ele><time>2026-05-03T10:51:46.869Z</time></trkpt><trkpt lat="42.2506632" lon="13.9517239"><ele>138.0</ele><time>2026-05-03T10:51:47.87Z</time></trkpt><trkpt lat="42.2507574" lon="13.9517139"><ele>138.0</ele><time>2026-05-03T10:51:48.87Z</time></trkpt><trkpt lat="42.2508562" lon="13.951703"><ele>138.0</ele><time>2026-05-03T10:51:49.869Z</time></trkpt><trkpt lat="42.2509508" lon="13.9516871"><ele>138.0</ele><time>2026-05-03T10:51:50.87Z</time></trkpt><trkpt lat="42.251046" lon="13.9516793"><ele>138.0</ele><time>2026-05-03T10:51:51.87Z</time></trkpt><trkpt lat="42.2511383" lon="13.9516822"><ele>138.0</ele><time>2026-05-03T10:51:52.869Z</time></trkpt><trkpt lat="42.2512262" lon="13.9516868"><ele>138.0</ele><time>2026-05-03T10:51:53.87Z</time></trkpt><trkpt lat="42.2513076" lon="13.9516991"><ele>138.0</ele><time>2026-05-03T10:51:54.869Z</time></trkpt><trkpt lat="42.2513822" lon="13.9517218"><ele>138.0</ele><time>2026-05-03T10:51:55.869Z</time></trkpt><trkpt lat="42.2514538" lon="13.9517425"><ele>138.0</ele><time>2026-05-03T10:51:56.869Z</time></trkpt><trkpt lat="42.2515223" lon="13.9517575"><ele>138.0</ele><time>2026-05-03T10:51:57.869Z</time></trkpt><trkpt lat="42.2515902" lon="13.9517738"><ele>137.14285714285714</ele><time>2026-05-03T10:51:58.87Z</time></trkpt><trkpt lat="42.2516583" lon="13.9517851"><ele>136.2857142857143</ele><time>2026-05-03T10:51:59.869Z</time></trkpt><trkpt lat="42.2517291" lon="13.9517989"><ele>135.42857142857144</ele><time>2026-05-03T10:52:00.869Z</time></trkpt><trkpt lat="42.2517982" lon="13.9518141"><ele>134.57142857142858</ele><time>2026-05-03T10:52:01.87Z</time></trkpt><trkpt lat="42.2518712" lon="13.9518323"><ele>133.71428571428572</ele><time>2026-05-03T10:52:02.869Z</time></trkpt><trkpt lat="42.2519407" lon="13.9518509"><ele>132.85714285714286</ele><time>2026-05-03T10:52:03.869Z</time></trkpt><trkpt lat="42.2520117" lon="13.9518634"><ele>132.0</ele><time>2026-05-03T10:52:04.87Z</time></trkpt><trkpt lat="42.2520796" lon="13.9518702"><ele>132.0</ele><time>2026-05-03T10:52:05.87Z</time></trkpt><trkpt lat="42.252165" lon="13.951885"><ele>132.0</ele><time>2026-05-03T10:52:07.869Z</time></trkpt><trkpt lat="42.2522626" lon="13.951885"><ele>132.0</ele><time>2026-05-03T10:52:59.87Z</time></trkpt><trkpt lat="42.2523319" lon="13.9518717"><ele>132.0</ele><time>2026-05-03T10:53:00.869Z</time></trkpt><trkpt lat="42.2524068" lon="13.9518765"><ele>132.0</ele><time>2026-05-03T10:53:01.869Z</time></trkpt><trkpt lat="42.2524895" lon="13.9518903"><ele>132.0</ele><time>2026-05-03T10:53:02.869Z</time></trkpt><trkpt lat="42.2525808" lon="13.9519064"><ele>131.4</ele><time>2026-05-03T10:53:03.87Z</time></trkpt><trkpt lat="42.2526796" lon="13.9519271"><ele>130.79999999999998</ele><time>2026-05-03T10:53:04.87Z</time></trkpt><trkpt lat="42.2527823" lon="13.9519481"><ele>130.2</ele><time>2026-05-03T10:53:05.87Z</time></trkpt><trkpt lat="42.2528867" lon="13.9519665"><ele>129.6</ele><time>2026-05-03T10:53:06.87Z</time></trkpt><trkpt lat="42.2529994" lon="13.9519904"><ele>129.0</ele><time>2026-05-03T10:53:07.869Z</time></trkpt><trkpt lat="42.2531138" lon="13.9520153"><ele>129.5</ele><time>2026-05-03T10:53:08.869Z</time></trkpt><trkpt lat="42.2532238" lon="13.9520416"><ele>130.0</ele><time>2026-05-03T10:53:09.869Z</time></trkpt><trkpt lat="42.2533343" lon="13.9520686"><ele>130.5</ele><time>2026-05-03T10:53:10.869Z</time></trkpt><trkpt lat="42.2534475" lon="13.9520669"><ele>131.0</ele><time>2026-05-03T10:53:11.869Z</time></trkpt><trkpt lat="42.2535606" lon="13.9520339"><ele>131.0</ele><time>2026-05-03T10:53:12.869Z</time></trkpt><trkpt lat="42.253676" lon="13.9519908"><ele>131.0</ele><time>2026-05-03T10:53:13.87Z</time></trkpt><trkpt lat="42.2537972" lon="13.9519424"><ele>131.0</ele><time>2026-05-03T10:53:14.87Z</time></trkpt><trkpt lat="42.2539244" lon="13.9518913"><ele>131.0</ele><time>2026-05-03T10:53:15.87Z</time></trkpt><trkpt lat="42.2540621" lon="13.9518416"><ele>132.66666666666666</ele><time>2026-05-03T10:53:16.87Z</time></trkpt><trkpt lat="42.254207" lon="13.9517938"><ele>134.33333333333334</ele><time>2026-05-03T10:53:17.869Z</time></trkpt><trkpt lat="42.2543582" lon="13.9517468"><ele>136.0</ele><time>2026-05-03T10:53:18.87Z</time></trkpt><trkpt lat="42.2545064" lon="13.9517011"><ele>136.0</ele><time>2026-05-03T10:53:19.869Z</time></trkpt><trkpt lat="42.2546648" lon="13.9516532"><ele>136.0</ele><time>2026-05-03T10:53:20.87Z</time></trkpt><trkpt lat="42.2548287" lon="13.9516058"><ele>136.0</ele><time>2026-05-03T10:53:21.869Z</time></trkpt><trkpt lat="42.2549951" lon="13.9515596"><ele>137.66666666666669</ele><time>2026-05-03T10:53:22.87Z</time></trkpt><trkpt lat="42.2551634" lon="13.9515123"><ele>139.33333333333334</ele><time>2026-05-03T10:53:23.869Z</time></trkpt><trkpt lat="42.2553321" lon="13.9514619"><ele>141.0</ele><time>2026-05-03T10:53:24.869Z</time></trkpt><trkpt lat="42.2555006" lon="13.9514117"><ele>141.66666666666666</ele><time>2026-05-03T10:53:25.87Z</time></trkpt><trkpt lat="42.2556702" lon="13.9513583"><ele>142.33333333333331</ele><time>2026-05-03T10:53:26.869Z</time></trkpt><trkpt lat="42.2558395" lon="13.9513024"><ele>143.0</ele><time>2026-05-03T10:53:27.869Z</time></trkpt><trkpt lat="42.2560103" lon="13.9512496"><ele>143.0</ele><time>2026-05-03T10:53:28.869Z</time></trkpt><trkpt lat="42.2561823" lon="13.9512"><ele>143.0</ele><time>2026-05-03T10:53:29.869Z</time></trkpt><trkpt lat="42.2563579" lon="13.9511568"><ele>143.0</ele><time>2026-05-03T10:53:30.869Z</time></trkpt><trkpt lat="42.2565368" lon="13.9511231"><ele>143.33333333333331</ele><time>2026-05-03T10:53:31.869Z</time></trkpt><trkpt lat="42.256717" lon="13.9511124"><ele>143.66666666666666</ele><time>2026-05-03T10:53:32.869Z</time></trkpt><trkpt lat="42.2568978" lon="13.9511133"><ele>144.0</ele><time>2026-05-03T10:53:33.87Z</time></trkpt><trkpt lat="42.2570768" lon="13.9511213"><ele>144.0</ele><time>2026-05-03T10:53:34.869Z</time></trkpt><trkpt lat="42.257255" lon="13.9511333"><ele>144.0</ele><time>2026-05-03T10:53:35.87Z</time></trkpt><trkpt lat="42.2574355" lon="13.9511432"><ele>144.0</ele><time>2026-05-03T10:53:36.87Z</time></trkpt><trkpt lat="42.2576113" lon="13.9511524"><ele>143.66666666666666</ele><time>2026-05-03T10:53:37.869Z</time></trkpt><trkpt lat="42.257786" lon="13.951168"><ele>143.33333333333331</ele><time>2026-05-03T10:53:38.869Z</time></trkpt><trkpt lat="42.2579645" lon="13.9511912"><ele>143.0</ele><time>2026-05-03T10:53:39.869Z</time></trkpt><trkpt lat="42.2581434" lon="13.9512262"><ele>143.66666666666666</ele><time>2026-05-03T10:53:40.87Z</time></trkpt><trkpt lat="42.2583213" lon="13.9512736"><ele>144.33333333333334</ele><time>2026-05-03T10:53:41.869Z</time></trkpt><trkpt lat="42.2584966" lon="13.9513357"><ele>145.0</ele><time>2026-05-03T10:53:42.87Z</time></trkpt><trkpt lat="42.2586728" lon="13.951413"><ele>145.0</ele><time>2026-05-03T10:53:43.869Z</time></trkpt><trkpt lat="42.2588464" lon="13.9514985"><ele>145.0</ele><time>2026-05-03T10:53:44.87Z</time></trkpt><trkpt lat="42.2590165" lon="13.951594"><ele>145.0</ele><time>2026-05-03T10:53:45.869Z</time></trkpt><trkpt lat="42.2591828" lon="13.9517033"><ele>146.0</ele><time>2026-05-03T10:53:46.869Z</time></trkpt><trkpt lat="42.2593424" lon="13.9518257"><ele>147.0</ele><time>2026-05-03T10:53:47.869Z</time></trkpt><trkpt lat="42.2594967" lon="13.9519611"><ele>148.0</ele><time>2026-05-03T10:53:48.869Z</time></trkpt><trkpt lat="42.2596429" lon="13.9521168"><ele>148.0</ele><time>2026-05-03T10:53:49.869Z</time></trkpt><trkpt lat="42.2597823" lon="13.952283"><ele>148.0</ele><time>2026-05-03T10:53:50.869Z</time></trkpt><trkpt lat="42.2599149" lon="13.9524577"><ele>148.0</ele><time>2026-05-03T10:53:51.869Z</time></trkpt><trkpt lat="42.2600385" lon="13.9526405"><ele>147.66666666666669</ele><time>2026-05-03T10:53:52.87Z</time></trkpt><trkpt lat="42.2601559" lon="13.9528283"><ele>147.33333333333334</ele><time>2026-05-03T10:53:53.87Z</time></trkpt><trkpt lat="42.2602685" lon="13.9530185"><ele>147.0</ele><time>2026-05-03T10:53:54.87Z</time></trkpt><trkpt lat="42.2603683" lon="13.9532147"><ele>149.0</ele><time>2026-05-03T10:53:55.869Z</time></trkpt><trkpt lat="42.2604599" lon="13.9534181"><ele>151.0</ele><time>2026-05-03T10:53:56.87Z</time></trkpt><trkpt lat="42.2605372" lon="13.9536255"><ele>153.0</ele><time>2026-05-03T10:53:57.869Z</time></trkpt><trkpt lat="42.2606036" lon="13.9538348"><ele>148.0</ele><time>2026-05-03T10:53:58.87Z</time></trkpt><trkpt lat="42.2606596" lon="13.9540518"><ele>143.0</ele><time>2026-05-03T10:53:59.869Z</time></trkpt><trkpt lat="42.2607103" lon="13.9542709"><ele>138.0</ele><time>2026-05-03T10:54:00.869Z</time></trkpt><trkpt lat="42.2607581" lon="13.9544908"><ele>138.0</ele><time>2026-05-03T10:54:01.869Z</time></trkpt><trkpt lat="42.2608058" lon="13.9547084"><ele>138.0</ele><time>2026-05-03T10:54:02.869Z</time></trkpt><trkpt lat="42.2608513" lon="13.9549219"><ele>138.0</ele><time>2026-05-03T10:54:03.869Z</time></trkpt><trkpt lat="42.2608982" lon="13.955134"><ele>138.0</ele><time>2026-05-03T10:54:04.869Z</time></trkpt><trkpt lat="42.2609423" lon="13.9553454"><ele>138.0</ele><time>2026-05-03T10:54:05.869Z</time></trkpt><trkpt lat="42.260987" lon="13.9555551"><ele>138.0</ele><time>2026-05-03T10:54:06.869Z</time></trkpt><trkpt lat="42.2610304" lon="13.9557588"><ele>138.5</ele><time>2026-05-03T10:54:07.87Z</time></trkpt><trkpt lat="42.2610715" lon="13.955956"><ele>139.0</ele><time>2026-05-03T10:54:08.869Z</time></trkpt><trkpt lat="42.2611109" lon="13.9561434"><ele>139.5</ele><time>2026-05-03T10:54:09.87Z</time></trkpt><trkpt lat="42.2611468" lon="13.9563167"><ele>140.0</ele><time>2026-05-03T10:54:10.869Z</time></trkpt><trkpt lat="42.2611795" lon="13.9564703"><ele>140.0</ele><time>2026-05-03T10:54:11.87Z</time></trkpt><trkpt lat="42.2612106" lon="13.9566069"><ele>140.0</ele><time>2026-05-03T10:54:12.869Z</time></trkpt><trkpt lat="42.2612427" lon="13.956723"><ele>140.0</ele><time>2026-05-03T10:54:13.869Z</time></trkpt><trkpt lat="42.2612669" lon="13.9568171"><ele>140.0</ele><time>2026-05-03T10:54:14.869Z</time></trkpt><trkpt lat="42.2612647" lon="13.9569297"><ele>140.0</ele><time>2026-05-03T10:54:16.869Z</time></trkpt><trkpt lat="42.2611753" lon="13.9569751"><ele>141.0</ele><time>2026-05-03T10:54:19.869Z</time></trkpt><trkpt lat="42.261112" lon="13.9570027"><ele>142.0</ele><time>2026-05-03T10:54:23.869Z</time></trkpt><trkpt lat="42.2610551" lon="13.9571162"><ele>143.0</ele><time>2026-05-03T11:01:47.868Z</time></trkpt><trkpt lat="42.2609587" lon="13.9571987"><ele>144.0</ele><time>2026-05-03T11:01:49.868Z</time></trkpt><trkpt lat="42.2609016" lon="13.957237"><ele>145.0</ele><time>2026-05-03T11:01:50.868Z</time></trkpt><trkpt lat="42.2608315" lon="13.9572784"><ele>146.0</ele><time>2026-05-03T11:01:51.867Z</time></trkpt><trkpt lat="42.2607564" lon="13.9573228"><ele>146.0</ele><time>2026-05-03T11:01:52.867Z</time></trkpt><trkpt lat="42.2606704" lon="13.9573731"><ele>146.0</ele><time>2026-05-03T11:01:53.868Z</time></trkpt><trkpt lat="42.2605843" lon="13.9574208"><ele>146.0</ele><time>2026-05-03T11:01:54.867Z</time></trkpt><trkpt lat="42.2604959" lon="13.9574703"><ele>146.0</ele><time>2026-05-03T11:01:55.867Z</time></trkpt><trkpt lat="42.2604064" lon="13.9575187"><ele>146.0</ele><time>2026-05-03T11:01:56.867Z</time></trkpt><trkpt lat="42.2603169" lon="13.9575699"><ele>149.5</ele><time>2026-05-03T11:01:57.867Z</time></trkpt><trkpt lat="42.2602167" lon="13.9576287"><ele>153.0</ele><time>2026-05-03T11:01:58.868Z</time></trkpt><trkpt lat="42.260114" lon="13.9576962"><ele>156.5</ele><time>2026-05-03T11:01:59.867Z</time></trkpt><trkpt lat="42.2600016" lon="13.9577742"><ele>160.0</ele><time>2026-05-03T11:02:00.867Z</time></trkpt><trkpt lat="42.2598865" lon="13.9578561"><ele>162.0</ele><time>2026-05-03T11:02:01.867Z</time></trkpt><trkpt lat="42.2597651" lon="13.9579429"><ele>164.0</ele><time>2026-05-03T11:02:02.867Z</time></trkpt><trkpt lat="42.2596415" lon="13.9580335"><ele>166.0</ele><time>2026-05-03T11:02:03.868Z</time></trkpt><trkpt lat="42.2595153" lon="13.9581296"><ele>168.0</ele><time>2026-05-03T11:02:04.867Z</time></trkpt><trkpt lat="42.2593905" lon="13.958225"><ele>168.0</ele><time>2026-05-03T11:02:05.867Z</time></trkpt><trkpt lat="42.2592707" lon="13.9583198"><ele>168.0</ele><time>2026-05-03T11:02:06.867Z</time></trkpt><trkpt lat="42.2591504" lon="13.9584061"><ele>168.0</ele><time>2026-05-03T11:02:07.867Z</time></trkpt><trkpt lat="42.2590291" lon="13.9584888"><ele>168.0</ele><time>2026-05-03T11:02:08.868Z</time></trkpt><trkpt lat="42.2589029" lon="13.9585641"><ele>171.75</ele><time>2026-05-03T11:02:09.867Z</time></trkpt><trkpt lat="42.2587738" lon="13.9586376"><ele>175.5</ele><time>2026-05-03T11:02:10.867Z</time></trkpt><trkpt lat="42.2586424" lon="13.9587094"><ele>179.25</ele><time>2026-05-03T11:02:11.867Z</time></trkpt><trkpt lat="42.2585098" lon="13.958784"><ele>183.0</ele><time>2026-05-03T11:02:12.867Z</time></trkpt><trkpt lat="42.2583771" lon="13.9588646"><ele>183.0</ele><time>2026-05-03T11:02:13.867Z</time></trkpt><trkpt lat="42.2582443" lon="13.9589428"><ele>183.0</ele><time>2026-05-03T11:02:14.867Z</time></trkpt><trkpt lat="42.2581077" lon="13.9590219"><ele>183.0</ele><time>2026-05-03T11:02:15.867Z</time></trkpt><trkpt lat="42.257972" lon="13.9590988"><ele>183.0</ele><time>2026-05-03T11:02:16.868Z</time></trkpt><trkpt lat="42.2578432" lon="13.9591746"><ele>186.75</ele><time>2026-05-03T11:02:17.867Z</time></trkpt><trkpt lat="42.2577223" lon="13.9592505"><ele>190.5</ele><time>2026-05-03T11:02:18.867Z</time></trkpt><trkpt lat="42.2576084" lon="13.9593228"><ele>194.25</ele><time>2026-05-03T11:02:19.868Z</time></trkpt><trkpt lat="42.2574998" lon="13.9593899"><ele>198.0</ele><time>2026-05-03T11:02:20.866Z</time></trkpt><trkpt lat="42.2574008" lon="13.9594491"><ele>198.0</ele><time>2026-05-03T11:02:21.867Z</time></trkpt><trkpt lat="42.2573073" lon="13.9595012"><ele>198.0</ele><time>2026-05-03T11:02:22.868Z</time></trkpt><trkpt lat="42.2572144" lon="13.9595504"><ele>198.0</ele><time>2026-05-03T11:02:23.867Z</time></trkpt><trkpt lat="42.2571278" lon="13.9595973"><ele>198.0</ele><time>2026-05-03T11:02:24.867Z</time></trkpt><trkpt lat="42.2570562" lon="13.9596432"><ele>198.0</ele><time>2026-05-03T11:02:25.868Z</time></trkpt><trkpt lat="42.256997" lon="13.9597"><ele>198.0</ele><time>2026-05-03T11:02:26.867Z</time></trkpt><trkpt lat="42.2569634" lon="13.9598507"><ele>198.0</ele><time>2026-05-03T11:02:28.867Z</time></trkpt><trkpt lat="42.2569832" lon="13.9599418"><ele>198.0</ele><time>2026-05-03T11:02:29.868Z</time></trkpt><trkpt lat="42.2570264" lon="13.9600561"><ele>198.0</ele><time>2026-05-03T11:02:30.868Z</time></trkpt><trkpt lat="42.2570777" lon="13.9601796"><ele>198.0</ele><time>2026-05-03T11:02:31.867Z</time></trkpt><trkpt lat="42.25713" lon="13.9603165"><ele>198.0</ele><time>2026-05-03T11:02:32.867Z</time></trkpt><trkpt lat="42.2571876" lon="13.9604693"><ele>198.25</ele><time>2026-05-03T11:02:33.867Z</time></trkpt><trkpt lat="42.2572462" lon="13.960632"><ele>198.5</ele><time>2026-05-03T11:02:34.867Z</time></trkpt><trkpt lat="42.2573102" lon="13.9608037"><ele>198.75</ele><time>2026-05-03T11:02:35.867Z</time></trkpt><trkpt lat="42.2573778" lon="13.9609803"><ele>199.0</ele><time>2026-05-03T11:02:36.867Z</time></trkpt><trkpt lat="42.257444" lon="13.9611618"><ele>199.0</ele><time>2026-05-03T11:02:37.867Z</time></trkpt><trkpt lat="42.2575103" lon="13.9613407"><ele>199.0</ele><time>2026-05-03T11:02:38.867Z</time></trkpt><trkpt lat="42.2575779" lon="13.9615235"><ele>199.0</ele><time>2026-05-03T11:02:39.868Z</time></trkpt><trkpt lat="42.2576463" lon="13.9617072"><ele>199.0</ele><time>2026-05-03T11:02:40.868Z</time></trkpt><trkpt lat="42.2577156" lon="13.9618845"><ele>199.0</ele><time>2026-05-03T11:02:41.867Z</time></trkpt><trkpt lat="42.2577865" lon="13.9620605"><ele>199.0</ele><time>2026-05-03T11:02:42.868Z</time></trkpt><trkpt lat="42.2578547" lon="13.9622341"><ele>199.0</ele><time>2026-05-03T11:02:43.867Z</time></trkpt><trkpt lat="42.257921" lon="13.9624027"><ele>198.5</ele><time>2026-05-03T11:02:44.867Z</time></trkpt><trkpt lat="42.2579877" lon="13.962563"><ele>198.0</ele><time>2026-05-03T11:02:45.867Z</time></trkpt><trkpt lat="42.2580546" lon="13.9627301"><ele>197.5</ele><time>2026-05-03T11:02:46.867Z</time></trkpt><trkpt lat="42.258118" lon="13.9628984"><ele>197.0</ele><time>2026-05-03T11:02:47.867Z</time></trkpt><trkpt lat="42.2581766" lon="13.9630542"><ele>198.75</ele><time>2026-05-03T11:02:48.867Z</time></trkpt><trkpt lat="42.2582337" lon="13.9632153"><ele>200.5</ele><time>2026-05-03T11:02:49.867Z</time></trkpt><trkpt lat="42.2582956" lon="13.9633647"><ele>202.25</ele><time>2026-05-03T11:02:50.867Z</time></trkpt><trkpt lat="42.2583535" lon="13.9634926"><ele>204.0</ele><time>2026-05-03T11:02:51.868Z</time></trkpt><trkpt lat="42.2584237" lon="13.9636146"><ele>204.25</ele><time>2026-05-03T11:02:52.867Z</time></trkpt><trkpt lat="42.2585051" lon="13.9637289"><ele>204.5</ele><time>2026-05-03T11:02:53.868Z</time></trkpt><trkpt lat="42.2585758" lon="13.963855"><ele>204.75</ele><time>2026-05-03T11:02:54.868Z</time></trkpt><trkpt lat="42.2586414" lon="13.9639989"><ele>205.0</ele><time>2026-05-03T11:02:55.867Z</time></trkpt><trkpt lat="42.258709" lon="13.9641485"><ele>205.25</ele><time>2026-05-03T11:02:56.867Z</time></trkpt><trkpt lat="42.2587784" lon="13.9643088"><ele>205.5</ele><time>2026-05-03T11:02:57.867Z</time></trkpt><trkpt lat="42.258857" lon="13.9644793"><ele>205.75</ele><time>2026-05-03T11:02:58.867Z</time></trkpt><trkpt lat="42.2589435" lon="13.9646535"><ele>206.0</ele><time>2026-05-03T11:02:59.867Z</time></trkpt><trkpt lat="42.2590314" lon="13.9648304"><ele>206.5</ele><time>2026-05-03T11:03:00.867Z</time></trkpt><trkpt lat="42.2591176" lon="13.9650079"><ele>207.0</ele><time>2026-05-03T11:03:01.867Z</time></trkpt><trkpt lat="42.2592002" lon="13.9651743"><ele>207.5</ele><time>2026-05-03T11:03:02.868Z</time></trkpt><trkpt lat="42.2592733" lon="13.9653279"><ele>208.0</ele><time>2026-05-03T11:03:03.867Z</time></trkpt><trkpt lat="42.259337" lon="13.9654672"><ele>207.99999999999997</ele><time>2026-05-03T11:03:04.867Z</time></trkpt><trkpt lat="42.2593963" lon="13.9655845"><ele>208.0</ele><time>2026-05-03T11:03:05.867Z</time></trkpt><trkpt lat="42.259445" lon="13.9656898"><ele>208.0</ele><time>2026-05-03T11:03:06.867Z</time></trkpt><trkpt lat="42.2594843" lon="13.9657818"><ele>208.0</ele><time>2026-05-03T11:03:07.866Z</time></trkpt><trkpt lat="42.2595117" lon="13.9658661"><ele>207.99999999999997</ele><time>2026-05-03T11:03:09.867Z</time></trkpt><trkpt lat="42.2595301" lon="13.9659844"><ele>208.0</ele><time>2026-05-03T11:03:12.867Z</time></trkpt><trkpt lat="42.2595452" lon="13.9661152"><ele>208.28571428571428</ele><time>2026-05-03T11:03:15.867Z</time></trkpt><trkpt lat="42.2595492" lon="13.9662483"><ele>208.57142857142858</ele><time>2026-05-03T11:03:17.867Z</time></trkpt><trkpt lat="42.2595384" lon="13.9663359"><ele>208.85714285714286</ele><time>2026-05-03T11:05:09.868Z</time></trkpt><trkpt lat="42.2595486" lon="13.9664221"><ele>209.14285714285714</ele><time>2026-05-03T11:05:11.868Z</time></trkpt><trkpt lat="42.2595891" lon="13.9665111"><ele>209.42857142857144</ele><time>2026-05-03T11:05:14.867Z</time></trkpt><trkpt lat="42.259614" lon="13.9665902"><ele>209.71428571428572</ele><time>2026-05-03T11:05:17.867Z</time></trkpt><trkpt lat="42.2595967" lon="13.9666785"><ele>210.0</ele><time>2026-05-03T11:05:20.867Z</time></trkpt><trkpt lat="42.2595716" lon="13.9667712"><ele>210.66666666666666</ele><time>2026-05-03T11:05:23.868Z</time></trkpt><trkpt lat="42.2595483" lon="13.9668663"><ele>211.33333333333331</ele><time>2026-05-03T11:05:27.868Z</time></trkpt><trkpt lat="42.2595812" lon="13.9669667"><ele>212.0</ele><time>2026-05-03T11:05:33.868Z</time></trkpt><trkpt lat="42.2596291" lon="13.9670949"><ele>212.66666666666666</ele><time>2026-05-03T11:05:35.868Z</time></trkpt><trkpt lat="42.2596721" lon="13.9672036"><ele>213.33333333333331</ele><time>2026-05-03T11:05:45.868Z</time></trkpt><trkpt lat="42.2596994" lon="13.9672877"><ele>214.0</ele><time>2026-05-03T11:05:46.867Z</time></trkpt><trkpt lat="42.25973" lon="13.9673813"><ele>213.99999999999997</ele><time>2026-05-03T11:05:47.868Z</time></trkpt><trkpt lat="42.2597641" lon="13.9674877"><ele>214.0</ele><time>2026-05-03T11:05:48.868Z</time></trkpt><trkpt lat="42.2597977" lon="13.9675955"><ele>214.0</ele><time>2026-05-03T11:05:49.867Z</time></trkpt><trkpt lat="42.259826" lon="13.9677039"><ele>214.0</ele><time>2026-05-03T11:05:50.867Z</time></trkpt><trkpt lat="42.2598488" lon="13.9678027"><ele>213.99999999999997</ele><time>2026-05-03T11:05:51.868Z</time></trkpt><trkpt lat="42.2598778" lon="13.967897"><ele>214.0</ele><time>2026-05-03T11:05:52.868Z</time></trkpt><trkpt lat="42.2599236" lon="13.9679977"><ele>210.2</ele><time>2026-05-03T11:05:53.867Z</time></trkpt><trkpt lat="42.2599829" lon="13.9680969"><ele>206.39999999999998</ele><time>2026-05-03T11:05:54.867Z</time></trkpt><trkpt lat="42.2600354" lon="13.9682238"><ele>202.6</ele><time>2026-05-03T11:05:55.867Z</time></trkpt><trkpt lat="42.2600878" lon="13.9683583"><ele>198.8</ele><time>2026-05-03T11:05:56.867Z</time></trkpt><trkpt lat="42.2601432" lon="13.9685027"><ele>195.0</ele><time>2026-05-03T11:05:57.867Z</time></trkpt><trkpt lat="42.2602002" lon="13.9686475"><ele>194.75</ele><time>2026-05-03T11:05:58.867Z</time></trkpt><trkpt lat="42.2602642" lon="13.9687952"><ele>194.5</ele><time>2026-05-03T11:05:59.867Z</time></trkpt><trkpt lat="42.2603248" lon="13.9689503"><ele>194.25</ele><time>2026-05-03T11:06:00.867Z</time></trkpt><trkpt lat="42.2603812" lon="13.9690963"><ele>194.0</ele><time>2026-05-03T11:06:01.867Z</time></trkpt><trkpt lat="42.2604333" lon="13.9692398"><ele>194.75</ele><time>2026-05-03T11:06:02.867Z</time></trkpt><trkpt lat="42.2604807" lon="13.969384"><ele>195.5</ele><time>2026-05-03T11:06:03.868Z</time></trkpt><trkpt lat="42.2605374" lon="13.9695359"><ele>196.25</ele><time>2026-05-03T11:06:04.867Z</time></trkpt><trkpt lat="42.2605969" lon="13.9696909"><ele>197.0</ele><time>2026-05-03T11:06:05.867Z</time></trkpt><trkpt lat="42.2606546" lon="13.9698417"><ele>196.75</ele><time>2026-05-03T11:06:06.868Z</time></trkpt><trkpt lat="42.2607101" lon="13.9699961"><ele>196.5</ele><time>2026-05-03T11:06:07.867Z</time></trkpt><trkpt lat="42.2607692" lon="13.9701466"><ele>196.25</ele><time>2026-05-03T11:06:08.869Z</time></trkpt><trkpt lat="42.2608268" lon="13.9702883"><ele>196.0</ele><time>2026-05-03T11:06:09.868Z</time></trkpt><trkpt lat="42.2608783" lon="13.97042"><ele>196.0</ele><time>2026-05-03T11:06:10.867Z</time></trkpt><trkpt lat="42.2609264" lon="13.9705553"><ele>196.0</ele><time>2026-05-03T11:06:11.867Z</time></trkpt><trkpt lat="42.2609809" lon="13.9707062"><ele>196.0</ele><time>2026-05-03T11:06:12.867Z</time></trkpt><trkpt lat="42.2610347" lon="13.970852"><ele>196.0</ele><time>2026-05-03T11:06:13.868Z</time></trkpt><trkpt lat="42.2610843" lon="13.9709853"><ele>197.0</ele><time>2026-05-03T11:06:14.867Z</time></trkpt><trkpt lat="42.2611313" lon="13.9711054"><ele>198.0</ele><time>2026-05-03T11:06:15.868Z</time></trkpt><trkpt lat="42.2611677" lon="13.9712352"><ele>199.0</ele><time>2026-05-03T11:06:16.867Z</time></trkpt><trkpt lat="42.2611836" lon="13.9713512"><ele>200.0</ele><time>2026-05-03T11:06:17.867Z</time></trkpt><trkpt lat="42.2612147" lon="13.9714467"><ele>201.0</ele><time>2026-05-03T11:06:18.867Z</time></trkpt><trkpt lat="42.2612789" lon="13.9715551"><ele>201.0</ele><time>2026-05-03T11:06:19.867Z</time></trkpt><trkpt lat="42.2613401" lon="13.9716796"><ele>201.0</ele><time>2026-05-03T11:06:20.867Z</time></trkpt><trkpt lat="42.2613971" lon="13.971804"><ele>201.0</ele><time>2026-05-03T11:06:21.867Z</time></trkpt><trkpt lat="42.261441" lon="13.9719212"><ele>201.0</ele><time>2026-05-03T11:06:22.868Z</time></trkpt><trkpt lat="42.261475" lon="13.9720408"><ele>201.0</ele><time>2026-05-03T11:06:23.867Z</time></trkpt><trkpt lat="42.2615175" lon="13.9721711"><ele>199.60000000000002</ele><time>2026-05-03T11:06:24.867Z</time></trkpt><trkpt lat="42.2615644" lon="13.9723059"><ele>198.2</ele><time>2026-05-03T11:06:25.868Z</time></trkpt><trkpt lat="42.2616117" lon="13.972429"><ele>196.8</ele><time>2026-05-03T11:06:26.867Z</time></trkpt><trkpt lat="42.2616642" lon="13.9725459"><ele>195.39999999999998</ele><time>2026-05-03T11:06:27.867Z</time></trkpt><trkpt lat="42.2617265" lon="13.9726684"><ele>194.0</ele><time>2026-05-03T11:06:28.866Z</time></trkpt><trkpt lat="42.2617822" lon="13.9727765"><ele>193.79999999999998</ele><time>2026-05-03T11:06:29.866Z</time></trkpt><trkpt lat="42.2618264" lon="13.9728941"><ele>193.6</ele><time>2026-05-03T11:06:30.866Z</time></trkpt><trkpt lat="42.2618646" lon="13.9730154"><ele>193.4</ele><time>2026-05-03T11:06:31.866Z</time></trkpt><trkpt lat="42.2619087" lon="13.9731458"><ele>193.2</ele><time>2026-05-03T11:06:32.866Z</time></trkpt><trkpt lat="42.2619539" lon="13.9732725"><ele>193.0</ele><time>2026-05-03T11:06:33.866Z</time></trkpt><trkpt lat="42.2619866" lon="13.9734033"><ele>193.8</ele><time>2026-05-03T11:06:34.866Z</time></trkpt><trkpt lat="42.26201" lon="13.9735167"><ele>194.60000000000002</ele><time>2026-05-03T11:06:35.867Z</time></trkpt><trkpt lat="42.2620506" lon="13.9736383"><ele>195.39999999999998</ele><time>2026-05-03T11:06:36.865Z</time></trkpt><trkpt lat="42.2621031" lon="13.9737607"><ele>196.2</ele><time>2026-05-03T11:06:37.866Z</time></trkpt><trkpt lat="42.2621563" lon="13.9738871"><ele>197.0</ele><time>2026-05-03T11:06:38.867Z</time></trkpt><trkpt lat="42.2622126" lon="13.974021"><ele>197.0</ele><time>2026-05-03T11:06:39.866Z</time></trkpt><trkpt lat="42.2622688" lon="13.9741611"><ele>197.0</ele><time>2026-05-03T11:06:40.866Z</time></trkpt><trkpt lat="42.2623197" lon="13.9742913"><ele>197.0</ele><time>2026-05-03T11:06:41.866Z</time></trkpt><trkpt lat="42.2623639" lon="13.974422"><ele>197.0</ele><time>2026-05-03T11:06:42.866Z</time></trkpt><trkpt lat="42.2623931" lon="13.9745551"><ele>197.0</ele><time>2026-05-03T11:06:43.867Z</time></trkpt><trkpt lat="42.2624171" lon="13.9746893"><ele>197.66666666666669</ele><time>2026-05-03T11:06:44.866Z</time></trkpt><trkpt lat="42.2624359" lon="13.9748124"><ele>198.33333333333334</ele><time>2026-05-03T11:06:45.866Z</time></trkpt><trkpt lat="42.2624584" lon="13.9749108"><ele>199.0</ele><time>2026-05-03T11:06:46.866Z</time></trkpt><trkpt lat="42.2624989" lon="13.9750508"><ele>199.66666666666669</ele><time>2026-05-03T11:06:48.866Z</time></trkpt><trkpt lat="42.2625189" lon="13.975173"><ele>200.33333333333334</ele><time>2026-05-03T11:07:01.867Z</time></trkpt><trkpt lat="42.2625352" lon="13.9752656"><ele>201.0</ele><time>2026-05-03T11:07:02.867Z</time></trkpt><trkpt lat="42.2625514" lon="13.9753704"><ele>201.0</ele><time>2026-05-03T11:07:03.866Z</time></trkpt><trkpt lat="42.2625716" lon="13.9754904"><ele>201.0</ele><time>2026-05-03T11:07:04.868Z</time></trkpt><trkpt lat="42.2625959" lon="13.9756171"><ele>201.0</ele><time>2026-05-03T11:07:05.866Z</time></trkpt><trkpt lat="42.2626214" lon="13.9757364"><ele>201.0</ele><time>2026-05-03T11:07:06.867Z</time></trkpt><trkpt lat="42.2626242" lon="13.9758354"><ele>201.0</ele><time>2026-05-03T11:07:07.866Z</time></trkpt><trkpt lat="42.262604" lon="13.9759245"><ele>201.0</ele><time>2026-05-03T11:07:08.866Z</time></trkpt><trkpt lat="42.262554" lon="13.975997"><ele>202.33333333333334</ele><time>2026-05-03T11:07:09.866Z</time></trkpt><trkpt lat="42.2625031" lon="13.9760658"><ele>203.66666666666669</ele><time>2026-05-03T11:07:10.866Z</time></trkpt><trkpt lat="42.2624671" lon="13.9761891"><ele>205.0</ele><time>2026-05-03T11:07:12.867Z</time></trkpt><trkpt lat="42.2624616" lon="13.9762823"><ele>206.33333333333334</ele><time>2026-05-03T11:07:14.866Z</time></trkpt><trkpt lat="42.2624628" lon="13.976392"><ele>207.66666666666669</ele><time>2026-05-03T11:07:16.866Z</time></trkpt><trkpt lat="42.2624829" lon="13.9765172"><ele>209.0</ele><time>2026-05-03T11:07:18.867Z</time></trkpt><trkpt lat="42.2625044" lon="13.9766058"><ele>210.16666666666669</ele><time>2026-05-03T11:07:19.867Z</time></trkpt><trkpt lat="42.2625268" lon="13.9767013"><ele>211.33333333333334</ele><time>2026-05-03T11:07:20.867Z</time></trkpt><trkpt lat="42.2625563" lon="13.9767998"><ele>212.5</ele><time>2026-05-03T11:07:21.867Z</time></trkpt><trkpt lat="42.2625843" lon="13.9768933"><ele>213.66666666666669</ele><time>2026-05-03T11:07:22.867Z</time></trkpt><trkpt lat="42.2626145" lon="13.976997"><ele>214.83333333333334</ele><time>2026-05-03T11:07:23.866Z</time></trkpt><trkpt lat="42.2626461" lon="13.977109"><ele>216.0</ele><time>2026-05-03T11:07:24.867Z</time></trkpt><trkpt lat="42.2626767" lon="13.977227"><ele>216.0</ele><time>2026-05-03T11:07:25.866Z</time></trkpt><trkpt lat="42.2627072" lon="13.9773502"><ele>216.00000000000003</ele><time>2026-05-03T11:07:26.866Z</time></trkpt><trkpt lat="42.2627395" lon="13.9774833"><ele>216.00000000000003</ele><time>2026-05-03T11:07:27.867Z</time></trkpt><trkpt lat="42.2627743" lon="13.9776282"><ele>216.0</ele><time>2026-05-03T11:07:28.866Z</time></trkpt><trkpt lat="42.2628093" lon="13.9777822"><ele>216.0</ele><time>2026-05-03T11:07:29.867Z</time></trkpt><trkpt lat="42.2628418" lon="13.9779446"><ele>218.0</ele><time>2026-05-03T11:07:30.866Z</time></trkpt><trkpt lat="42.2628731" lon="13.978111"><ele>220.0</ele><time>2026-05-03T11:07:31.866Z</time></trkpt><trkpt lat="42.2629003" lon="13.9782877"><ele>222.0</ele><time>2026-05-03T11:07:32.867Z</time></trkpt><trkpt lat="42.2629264" lon="13.9784655"><ele>224.0</ele><time>2026-05-03T11:07:33.866Z</time></trkpt><trkpt lat="42.2629506" lon="13.9786467"><ele>225.5</ele><time>2026-05-03T11:07:34.866Z</time></trkpt><trkpt lat="42.2629697" lon="13.978827"><ele>227.0</ele><time>2026-05-03T11:07:35.867Z</time></trkpt><trkpt lat="42.2629862" lon="13.9790079"><ele>228.5</ele><time>2026-05-03T11:07:36.866Z</time></trkpt><trkpt lat="42.2629959" lon="13.9791665"><ele>230.0</ele><time>2026-05-03T11:07:37.866Z</time></trkpt><trkpt lat="42.2629979" lon="13.9792933"><ele>230.16666666666669</ele><time>2026-05-03T11:07:38.866Z</time></trkpt><trkpt lat="42.262993" lon="13.9793959"><ele>230.33333333333334</ele><time>2026-05-03T11:07:39.866Z</time></trkpt><trkpt lat="42.2629894" lon="13.9795223"><ele>230.5</ele><time>2026-05-03T11:07:41.867Z</time></trkpt><trkpt lat="42.2630507" lon="13.9795861"><ele>230.66666666666669</ele><time>2026-05-03T11:07:44.866Z</time></trkpt><trkpt lat="42.2631157" lon="13.9796485"><ele>230.83333333333334</ele><time>2026-05-03T11:07:46.866Z</time></trkpt><trkpt lat="42.2631476" lon="13.9797781"><ele>231.0</ele><time>2026-05-03T11:07:49.867Z</time></trkpt><trkpt lat="42.2631874" lon="13.9799412"><ele>228.66666666666666</ele><time>2026-05-03T11:07:51.866Z</time></trkpt><trkpt lat="42.263209" lon="13.980024"><ele>226.33333333333331</ele><time>2026-05-03T11:07:52.866Z</time></trkpt><trkpt lat="42.2632382" lon="13.9801556"><ele>224.0</ele><time>2026-05-03T11:07:54.866Z</time></trkpt><trkpt lat="42.2632141" lon="13.9800706"><ele>221.66666666666666</ele><time>2026-05-03T11:08:23.867Z</time></trkpt><trkpt lat="42.2632103" lon="13.9799706"><ele>219.33333333333331</ele><time>2026-05-03T11:09:01.866Z</time></trkpt><trkpt lat="42.2631715" lon="13.9798713"><ele>217.0</ele><time>2026-05-03T11:09:05.867Z</time></trkpt><trkpt lat="42.263153" lon="13.9797869"><ele>216.99999999999997</ele><time>2026-05-03T11:09:07.866Z</time></trkpt><trkpt lat="42.2631584" lon="13.9796963"><ele>217.0</ele><time>2026-05-03T11:09:10.866Z</time></trkpt><trkpt lat="42.2632418" lon="13.9797503"><ele>217.0</ele><time>2026-05-03T11:09:13.867Z</time></trkpt><trkpt lat="42.2633096" lon="13.9798817"><ele>217.0</ele><time>2026-05-03T11:09:15.866Z</time></trkpt><trkpt lat="42.2633461" lon="13.9799582"><ele>216.99999999999997</ele><time>2026-05-03T11:09:16.867Z</time></trkpt><trkpt lat="42.2633771" lon="13.9800412"><ele>217.0</ele><time>2026-05-03T11:09:17.867Z</time></trkpt><trkpt lat="42.2634029" lon="13.9801419"><ele>216.99999999999997</ele><time>2026-05-03T11:09:18.866Z</time></trkpt><trkpt lat="42.2634205" lon="13.980242"><ele>217.0</ele><time>2026-05-03T11:09:19.867Z</time></trkpt><trkpt lat="42.2634321" lon="13.9803435"><ele>217.0</ele><time>2026-05-03T11:09:20.866Z</time></trkpt><trkpt lat="42.263437" lon="13.9804384"><ele>217.0</ele><time>2026-05-03T11:09:21.866Z</time></trkpt><trkpt lat="42.2634361" lon="13.9805428"><ele>216.99999999999997</ele><time>2026-05-03T11:09:22.867Z</time></trkpt><trkpt lat="42.2634264" lon="13.9806517"><ele>217.0</ele><time>2026-05-03T11:09:23.867Z</time></trkpt><trkpt lat="42.2634066" lon="13.9807549"><ele>217.16666666666666</ele><time>2026-05-03T11:09:24.866Z</time></trkpt><trkpt lat="42.2633855" lon="13.9808561"><ele>217.33333333333331</ele><time>2026-05-03T11:09:25.866Z</time></trkpt><trkpt lat="42.2633723" lon="13.9809581"><ele>217.5</ele><time>2026-05-03T11:09:26.867Z</time></trkpt><trkpt lat="42.2633802" lon="13.9810517"><ele>217.66666666666669</ele><time>2026-05-03T11:09:27.867Z</time></trkpt><trkpt lat="42.2633966" lon="13.9811382"><ele>217.83333333333334</ele><time>2026-05-03T11:09:28.866Z</time></trkpt><trkpt lat="42.2634459" lon="13.9812737"><ele>218.0</ele><time>2026-05-03T11:09:30.867Z</time></trkpt><trkpt lat="42.2635116" lon="13.9813115"><ele>218.00000000000003</ele><time>2026-05-03T11:09:32.866Z</time></trkpt><trkpt lat="42.2636225" lon="13.981244"><ele>218.0</ele><time>2026-05-03T11:09:34.866Z</time></trkpt><trkpt lat="42.263691" lon="13.98118"><ele>218.0</ele><time>2026-05-03T11:09:35.867Z</time></trkpt><trkpt lat="42.2637512" lon="13.9811202"><ele>218.0</ele><time>2026-05-03T11:09:36.866Z</time></trkpt><trkpt lat="42.2638216" lon="13.9810696"><ele>218.00000000000003</ele><time>2026-05-03T11:09:37.867Z</time></trkpt><trkpt lat="42.2638926" lon="13.9810194"><ele>218.0</ele><time>2026-05-03T11:09:38.867Z</time></trkpt><trkpt lat="42.263957" lon="13.9809963"><ele>215.4</ele><time>2026-05-03T11:09:39.867Z</time></trkpt><trkpt lat="42.2640674" lon="13.9810412"><ele>212.8</ele><time>2026-05-03T11:09:41.867Z</time></trkpt><trkpt lat="42.2641098" lon="13.9811583"><ele>210.2</ele><time>2026-05-03T11:09:42.866Z</time></trkpt><trkpt lat="42.264161" lon="13.9812685"><ele>207.6</ele><time>2026-05-03T11:09:43.866Z</time></trkpt><trkpt lat="42.2642216" lon="13.9813738"><ele>205.0</ele><time>2026-05-03T11:09:44.866Z</time></trkpt><trkpt lat="42.2642861" lon="13.9814691"><ele>205.0</ele><time>2026-05-03T11:09:45.867Z</time></trkpt><trkpt lat="42.264358" lon="13.9815395"><ele>205.0</ele><time>2026-05-03T11:09:46.866Z</time></trkpt><trkpt lat="42.2644421" lon="13.9815943"><ele>205.0</ele><time>2026-05-03T11:09:47.867Z</time></trkpt><trkpt lat="42.2645261" lon="13.9816427"><ele>205.0</ele><time>2026-05-03T11:09:48.866Z</time></trkpt><trkpt lat="42.2645973" lon="13.9817173"><ele>205.0</ele><time>2026-05-03T11:09:49.867Z</time></trkpt><trkpt lat="42.2646567" lon="13.9818175"><ele>205.0</ele><time>2026-05-03T11:09:50.866Z</time></trkpt><trkpt lat="42.2647096" lon="13.9819346"><ele>205.0</ele><time>2026-05-03T11:09:51.867Z</time></trkpt><trkpt lat="42.2647445" lon="13.982061"><ele>205.0</ele><time>2026-05-03T11:09:52.866Z</time></trkpt><trkpt lat="42.2647714" lon="13.9822021"><ele>205.0</ele><time>2026-05-03T11:09:53.866Z</time></trkpt><trkpt lat="42.2647918" lon="13.9823401"><ele>205.0</ele><time>2026-05-03T11:09:54.867Z</time></trkpt><trkpt lat="42.2648135" lon="13.9824716"><ele>201.8</ele><time>2026-05-03T11:09:55.866Z</time></trkpt><trkpt lat="42.2648347" lon="13.9826176"><ele>198.6</ele><time>2026-05-03T11:09:56.867Z</time></trkpt><trkpt lat="42.264851" lon="13.9827621"><ele>195.39999999999998</ele><time>2026-05-03T11:09:57.867Z</time></trkpt><trkpt lat="42.2648719" lon="13.9829082"><ele>192.2</ele><time>2026-05-03T11:09:58.867Z</time></trkpt><trkpt lat="42.2648889" lon="13.9830511"><ele>189.0</ele><time>2026-05-03T11:09:59.867Z</time></trkpt><trkpt lat="42.2648998" lon="13.9831996"><ele>188.2</ele><time>2026-05-03T11:10:00.866Z</time></trkpt><trkpt lat="42.2649142" lon="13.9833507"><ele>187.39999999999998</ele><time>2026-05-03T11:10:01.866Z</time></trkpt><trkpt lat="42.2649323" lon="13.9834901"><ele>186.6</ele><time>2026-05-03T11:10:02.866Z</time></trkpt><trkpt lat="42.26495" lon="13.9836091"><ele>185.8</ele><time>2026-05-03T11:10:03.866Z</time></trkpt><trkpt lat="42.264976" lon="13.9837245"><ele>185.0</ele><time>2026-05-03T11:10:04.866Z</time></trkpt><trkpt lat="42.2649979" lon="13.9838161"><ele>185.0</ele><time>2026-05-03T11:10:05.866Z</time></trkpt><trkpt lat="42.2650672" lon="13.983906"><ele>185.0</ele><time>2026-05-03T11:10:07.866Z</time></trkpt><trkpt lat="42.2651789" lon="13.9838544"><ele>185.0</ele><time>2026-05-03T11:10:09.866Z</time></trkpt><trkpt lat="42.2652265" lon="13.9837683"><ele>185.0</ele><time>2026-05-03T11:10:10.866Z</time></trkpt><trkpt lat="42.265257" lon="13.983663"><ele>185.0</ele><time>2026-05-03T11:10:11.866Z</time></trkpt><trkpt lat="42.2652645" lon="13.9835411"><ele>185.0</ele><time>2026-05-03T11:10:12.866Z</time></trkpt><trkpt lat="42.2652463" lon="13.9833831"><ele>185.0</ele><time>2026-05-03T11:10:13.866Z</time></trkpt><trkpt lat="42.2652205" lon="13.9832186"><ele>185.0</ele><time>2026-05-03T11:10:14.867Z</time></trkpt><trkpt lat="42.2652019" lon="13.983067"><ele>185.0</ele><time>2026-05-03T11:10:15.866Z</time></trkpt><trkpt lat="42.2652007" lon="13.9829315"><ele>185.8</ele><time>2026-05-03T11:10:16.866Z</time></trkpt><trkpt lat="42.2652209" lon="13.982797"><ele>186.6</ele><time>2026-05-03T11:10:17.866Z</time></trkpt><trkpt lat="42.2652515" lon="13.9826687"><ele>187.39999999999998</ele><time>2026-05-03T11:10:18.866Z</time></trkpt><trkpt lat="42.2652967" lon="13.9825538"><ele>188.2</ele><time>2026-05-03T11:10:19.867Z</time></trkpt><trkpt lat="42.2653444" lon="13.9824468"><ele>189.0</ele><time>2026-05-03T11:10:20.867Z</time></trkpt><trkpt lat="42.2653892" lon="13.9823521"><ele>189.0</ele><time>2026-05-03T11:10:21.866Z</time></trkpt><trkpt lat="42.2654297" lon="13.9822573"><ele>189.0</ele><time>2026-05-03T11:10:22.867Z</time></trkpt><trkpt lat="42.2654815" lon="13.9821773"><ele>189.0</ele><time>2026-05-03T11:10:23.866Z</time></trkpt><trkpt lat="42.265547" lon="13.9821379"><ele>189.0</ele><time>2026-05-03T11:10:24.866Z</time></trkpt><trkpt lat="42.265663" lon="13.9821595"><ele>189.0</ele><time>2026-05-03T11:10:26.866Z</time></trkpt><trkpt lat="42.265741" lon="13.9822814"><ele>186.16666666666666</ele><time>2026-05-03T11:10:28.866Z</time></trkpt><trkpt lat="42.2658188" lon="13.9823767"><ele>183.33333333333334</ele><time>2026-05-03T11:10:30.865Z</time></trkpt><trkpt lat="42.2658769" lon="13.9824619"><ele>180.5</ele><time>2026-05-03T11:10:32.867Z</time></trkpt><trkpt lat="42.2659328" lon="13.9825389"><ele>177.66666666666669</ele><time>2026-05-03T11:10:35.867Z</time></trkpt><trkpt lat="42.2659846" lon="13.9826089"><ele>174.83333333333334</ele><time>2026-05-03T11:10:39.867Z</time></trkpt><trkpt lat="42.2660276" lon="13.9826716"><ele>172.0</ele><time>2026-05-03T11:10:45.866Z</time></trkpt><trkpt lat="42.2660971" lon="13.9827409"><ele>172.0</ele><time>2026-05-03T11:10:47.866Z</time></trkpt><trkpt lat="42.2661641" lon="13.9828011"><ele>172.0</ele><time>2026-05-03T11:10:48.866Z</time></trkpt><trkpt lat="42.2662504" lon="13.9828572"><ele>172.0</ele><time>2026-05-03T11:10:49.866Z</time></trkpt><trkpt lat="42.2663485" lon="13.9828835"><ele>172.0</ele><time>2026-05-03T11:10:50.867Z</time></trkpt><trkpt lat="42.2664481" lon="13.9828896"><ele>172.0</ele><time>2026-05-03T11:10:51.866Z</time></trkpt><trkpt lat="42.2665403" lon="13.9828845"><ele>170.33333333333334</ele><time>2026-05-03T11:10:52.867Z</time></trkpt><trkpt lat="42.2666282" lon="13.9828873"><ele>168.66666666666669</ele><time>2026-05-03T11:10:53.867Z</time></trkpt><trkpt lat="42.2667052" lon="13.9828999"><ele>167.0</ele><time>2026-05-03T11:10:54.866Z</time></trkpt><trkpt lat="42.2667756" lon="13.9829219"><ele>165.33333333333334</ele><time>2026-05-03T11:10:55.866Z</time></trkpt><trkpt lat="42.2668521" lon="13.9829909"><ele>163.66666666666666</ele><time>2026-05-03T11:10:57.866Z</time></trkpt><trkpt lat="42.266883" lon="13.9830906"><ele>162.0</ele><time>2026-05-03T11:10:59.867Z</time></trkpt><trkpt lat="42.2668908" lon="13.9832007"><ele>162.0</ele><time>2026-05-03T11:11:00.867Z</time></trkpt><trkpt lat="42.2669013" lon="13.9833321"><ele>162.0</ele><time>2026-05-03T11:11:01.867Z</time></trkpt><trkpt lat="42.266913" lon="13.9834762"><ele>162.0</ele><time>2026-05-03T11:11:02.867Z</time></trkpt><trkpt lat="42.266923" lon="13.9836372"><ele>162.0</ele><time>2026-05-03T11:11:03.866Z</time></trkpt><trkpt lat="42.266935" lon="13.9838136"><ele>162.5</ele><time>2026-05-03T11:11:04.866Z</time></trkpt><trkpt lat="42.2669513" lon="13.9840039"><ele>163.0</ele><time>2026-05-03T11:11:05.867Z</time></trkpt><trkpt lat="42.2669707" lon="13.9842016"><ele>163.5</ele><time>2026-05-03T11:11:06.867Z</time></trkpt><trkpt lat="42.2669967" lon="13.9844136"><ele>164.0</ele><time>2026-05-03T11:11:07.866Z</time></trkpt><trkpt lat="42.2670262" lon="13.9846354"><ele>162.33333333333331</ele><time>2026-05-03T11:11:08.866Z</time></trkpt><trkpt lat="42.267058" lon="13.9848565"><ele>160.66666666666666</ele><time>2026-05-03T11:11:09.867Z</time></trkpt><trkpt lat="42.2670815" lon="13.9850727"><ele>159.0</ele><time>2026-05-03T11:11:10.867Z</time></trkpt><trkpt lat="42.2670917" lon="13.9852985"><ele>157.0</ele><time>2026-05-03T11:11:11.868Z</time></trkpt><trkpt lat="42.267091" lon="13.9855316"><ele>155.0</ele><time>2026-05-03T11:11:12.866Z</time></trkpt><trkpt lat="42.2670807" lon="13.9857659"><ele>153.0</ele><time>2026-05-03T11:11:13.866Z</time></trkpt><trkpt lat="42.267058" lon="13.986004"><ele>151.33333333333334</ele><time>2026-05-03T11:11:14.867Z</time></trkpt><trkpt lat="42.267023" lon="13.9862448"><ele>149.66666666666669</ele><time>2026-05-03T11:11:15.866Z</time></trkpt><trkpt lat="42.2669794" lon="13.9864829"><ele>148.0</ele><time>2026-05-03T11:11:16.866Z</time></trkpt><trkpt lat="42.2669356" lon="13.9867167"><ele>146.0</ele><time>2026-05-03T11:11:17.866Z</time></trkpt><trkpt lat="42.2668889" lon="13.9869511"><ele>144.0</ele><time>2026-05-03T11:11:18.867Z</time></trkpt><trkpt lat="42.266841" lon="13.9871855"><ele>142.0</ele><time>2026-05-03T11:11:19.866Z</time></trkpt><trkpt lat="42.26679" lon="13.9874174"><ele>140.33333333333334</ele><time>2026-05-03T11:11:20.866Z</time></trkpt><trkpt lat="42.2667366" lon="13.9876519"><ele>138.66666666666666</ele><time>2026-05-03T11:11:21.866Z</time></trkpt><trkpt lat="42.2666831" lon="13.9878879"><ele>137.0</ele><time>2026-05-03T11:11:22.867Z</time></trkpt><trkpt lat="42.2666372" lon="13.9881264"><ele>135.33333333333331</ele><time>2026-05-03T11:11:23.866Z</time></trkpt><trkpt lat="42.2666036" lon="13.988364"><ele>133.66666666666666</ele><time>2026-05-03T11:11:24.866Z</time></trkpt><trkpt lat="42.2665866" lon="13.9886057"><ele>132.0</ele><time>2026-05-03T11:11:25.866Z</time></trkpt><trkpt lat="42.266589" lon="13.9888507"><ele>132.0</ele><time>2026-05-03T11:11:26.867Z</time></trkpt><trkpt lat="42.266608" lon="13.989096"><ele>132.0</ele><time>2026-05-03T11:11:27.866Z</time></trkpt><trkpt lat="42.2666418" lon="13.9893406"><ele>132.0</ele><time>2026-05-03T11:11:28.866Z</time></trkpt><trkpt lat="42.2666819" lon="13.9895848"><ele>132.0</ele><time>2026-05-03T11:11:29.866Z</time></trkpt><trkpt lat="42.2667291" lon="13.9898274"><ele>132.0</ele><time>2026-05-03T11:11:30.866Z</time></trkpt><trkpt lat="42.2667738" lon="13.990068"><ele>132.0</ele><time>2026-05-03T11:11:31.866Z</time></trkpt><trkpt lat="42.2668123" lon="13.9903093"><ele>131.66666666666666</ele><time>2026-05-03T11:11:32.866Z</time></trkpt><trkpt lat="42.2668378" lon="13.9905508"><ele>131.33333333333331</ele><time>2026-05-03T11:11:33.866Z</time></trkpt><trkpt lat="42.2668431" lon="13.9907945"><ele>131.0</ele><time>2026-05-03T11:11:34.867Z</time></trkpt><trkpt lat="42.2668301" lon="13.9910383"><ele>129.0</ele><time>2026-05-03T11:11:35.867Z</time></trkpt><trkpt lat="42.2668028" lon="13.9912814"><ele>127.0</ele><time>2026-05-03T11:11:36.866Z</time></trkpt><trkpt lat="42.2667689" lon="13.9915272"><ele>125.0</ele><time>2026-05-03T11:11:37.867Z</time></trkpt><trkpt lat="42.2667296" lon="13.9917733"><ele>123.33333333333333</ele><time>2026-05-03T11:11:38.867Z</time></trkpt><trkpt lat="42.2666892" lon="13.9920211"><ele>121.66666666666666</ele><time>2026-05-03T11:11:39.866Z</time></trkpt><trkpt lat="42.2666495" lon="13.9922696"><ele>120.0</ele><time>2026-05-03T11:11:40.867Z</time></trkpt><trkpt lat="42.26661" lon="13.9925145"><ele>119.33333333333334</ele><time>2026-05-03T11:11:41.866Z</time></trkpt><trkpt lat="42.2665698" lon="13.9927555"><ele>118.66666666666667</ele><time>2026-05-03T11:11:42.866Z</time></trkpt><trkpt lat="42.2665281" lon="13.9929945"><ele>118.0</ele><time>2026-05-03T11:11:43.866Z</time></trkpt><trkpt lat="42.2664869" lon="13.9932333"><ele>117.66666666666667</ele><time>2026-05-03T11:11:44.865Z</time></trkpt><trkpt lat="42.266448" lon="13.9934694"><ele>117.33333333333334</ele><time>2026-05-03T11:11:45.865Z</time></trkpt><trkpt lat="42.2664074" lon="13.9937001"><ele>117.0</ele><time>2026-05-03T11:11:46.865Z</time></trkpt><trkpt lat="42.2663691" lon="13.9939316"><ele>119.33333333333334</ele><time>2026-05-03T11:11:47.865Z</time></trkpt><trkpt lat="42.2663286" lon="13.9941577"><ele>121.66666666666667</ele><time>2026-05-03T11:11:48.865Z</time></trkpt><trkpt lat="42.2662921" lon="13.9943672"><ele>124.0</ele><time>2026-05-03T11:11:49.865Z</time></trkpt><trkpt lat="42.2662567" lon="13.9945631"><ele>124.0</ele><time>2026-05-03T11:11:50.866Z</time></trkpt><trkpt lat="42.2662182" lon="13.9947317"><ele>124.0</ele><time>2026-05-03T11:11:51.866Z</time></trkpt><trkpt lat="42.2661788" lon="13.994851"><ele>124.0</ele><time>2026-05-03T11:11:52.866Z</time></trkpt><trkpt lat="42.2661411" lon="13.9949409"><ele>124.0</ele><time>2026-05-03T11:11:53.865Z</time></trkpt><trkpt lat="42.2660963" lon="13.9950215"><ele>124.0</ele><time>2026-05-03T11:11:54.866Z</time></trkpt><trkpt lat="42.2660459" lon="13.9950961"><ele>123.6</ele><time>2026-05-03T11:11:55.865Z</time></trkpt><trkpt lat="42.266018" lon="13.9951918"><ele>123.2</ele><time>2026-05-03T11:11:56.865Z</time></trkpt><trkpt lat="42.2660186" lon="13.9953114"><ele>122.79999999999998</ele><time>2026-05-03T11:11:57.865Z</time></trkpt><trkpt lat="42.2660317" lon="13.9954533"><ele>122.39999999999999</ele><time>2026-05-03T11:11:58.866Z</time></trkpt><trkpt lat="42.2660321" lon="13.9956121"><ele>122.0</ele><time>2026-05-03T11:11:59.865Z</time></trkpt><trkpt lat="42.2660236" lon="13.9957783"><ele>121.6</ele><time>2026-05-03T11:12:00.865Z</time></trkpt><trkpt lat="42.2660095" lon="13.9959355"><ele>121.19999999999999</ele><time>2026-05-03T11:12:01.865Z</time></trkpt><trkpt lat="42.2659918" lon="13.9960851"><ele>120.8</ele><time>2026-05-03T11:12:02.866Z</time></trkpt><trkpt lat="42.2659731" lon="13.9962214"><ele>120.4</ele><time>2026-05-03T11:12:03.865Z</time></trkpt><trkpt lat="42.2659536" lon="13.9963441"><ele>120.0</ele><time>2026-05-03T11:12:04.866Z</time></trkpt><trkpt lat="42.2659355" lon="13.9964577"><ele>120.0</ele><time>2026-05-03T11:12:05.865Z</time></trkpt><trkpt lat="42.2659185" lon="13.9965552"><ele>120.0</ele><time>2026-05-03T11:12:06.865Z</time></trkpt><trkpt lat="42.2658879" lon="13.9967036"><ele>120.0</ele><time>2026-05-03T11:12:08.866Z</time></trkpt><trkpt lat="42.2658682" lon="13.9967902"><ele>120.0</ele><time>2026-05-03T11:12:10.865Z</time></trkpt><trkpt lat="42.2658542" lon="13.996876"><ele>120.0</ele><time>2026-05-03T11:12:43.866Z</time></trkpt><trkpt lat="42.2658365" lon="13.9969689"><ele>120.0</ele><time>2026-05-03T11:12:44.865Z</time></trkpt><trkpt lat="42.2658162" lon="13.9970732"><ele>120.0</ele><time>2026-05-03T11:12:45.865Z</time></trkpt><trkpt lat="42.2657986" lon="13.997195"><ele>120.0</ele><time>2026-05-03T11:12:46.866Z</time></trkpt><trkpt lat="42.2657771" lon="13.9973312"><ele>120.0</ele><time>2026-05-03T11:12:47.865Z</time></trkpt><trkpt lat="42.2657504" lon="13.9974798"><ele>120.0</ele><time>2026-05-03T11:12:48.866Z</time></trkpt><trkpt lat="42.2657192" lon="13.9976372"><ele>120.0</ele><time>2026-05-03T11:12:49.865Z</time></trkpt><trkpt lat="42.2656807" lon="13.9977989"><ele>119.5</ele><time>2026-05-03T11:12:50.865Z</time></trkpt><trkpt lat="42.2656363" lon="13.9979675"><ele>119.0</ele><time>2026-05-03T11:12:51.865Z</time></trkpt><trkpt lat="42.2655762" lon="13.9981356"><ele>118.5</ele><time>2026-05-03T11:12:52.85Z</time></trkpt><trkpt lat="42.2655057" lon="13.9983003"><ele>118.0</ele><time>2026-05-03T11:12:53.848Z</time></trkpt><trkpt lat="42.2654202" lon="13.9984612"><ele>117.66666666666667</ele><time>2026-05-03T11:12:54.865Z</time></trkpt><trkpt lat="42.2653232" lon="13.998611"><ele>117.33333333333334</ele><time>2026-05-03T11:12:55.866Z</time></trkpt><trkpt lat="42.2652111" lon="13.9987598"><ele>117.0</ele><time>2026-05-03T11:12:56.865Z</time></trkpt><trkpt lat="42.2650872" lon="13.9989072"><ele>117.0</ele><time>2026-05-03T11:12:57.865Z</time></trkpt><trkpt lat="42.2649503" lon="13.9990509"><ele>117.0</ele><time>2026-05-03T11:12:58.866Z</time></trkpt><trkpt lat="42.2648094" lon="13.9991949"><ele>117.0</ele><time>2026-05-03T11:12:59.865Z</time></trkpt><trkpt lat="42.2646656" lon="13.9993437"><ele>117.33333333333334</ele><time>2026-05-03T11:13:00.865Z</time></trkpt><trkpt lat="42.2645177" lon="13.9994913"><ele>117.66666666666667</ele><time>2026-05-03T11:13:01.866Z</time></trkpt><trkpt lat="42.264367" lon="13.9996425"><ele>118.0</ele><time>2026-05-03T11:13:02.853Z</time></trkpt><trkpt lat="42.2642165" lon="13.9997922"><ele>118.0</ele><time>2026-05-03T11:13:03.852Z</time></trkpt><trkpt lat="42.2640661" lon="13.9999421"><ele>118.0</ele><time>2026-05-03T11:13:04.85Z</time></trkpt><trkpt lat="42.2639201" lon="14.0000905"><ele>118.0</ele><time>2026-05-03T11:13:05.849Z</time></trkpt><trkpt lat="42.263776" lon="14.0002361"><ele>119.66666666666667</ele><time>2026-05-03T11:13:06.851Z</time></trkpt><trkpt lat="42.2636386" lon="14.0003826"><ele>121.33333333333334</ele><time>2026-05-03T11:13:07.851Z</time></trkpt><trkpt lat="42.2635174" lon="14.0005343"><ele>123.0</ele><time>2026-05-03T11:13:08.851Z</time></trkpt><trkpt lat="42.2634165" lon="14.0006973"><ele>120.66666666666666</ele><time>2026-05-03T11:13:09.852Z</time></trkpt><trkpt lat="42.2633353" lon="14.0008761"><ele>118.33333333333333</ele><time>2026-05-03T11:13:10.851Z</time></trkpt><trkpt lat="42.2632747" lon="14.0010707"><ele>116.0</ele><time>2026-05-03T11:13:11.851Z</time></trkpt><trkpt lat="42.2632362" lon="14.001276"><ele>116.0</ele><time>2026-05-03T11:13:12.852Z</time></trkpt><trkpt lat="42.2632209" lon="14.0014892"><ele>116.0</ele><time>2026-05-03T11:13:13.851Z</time></trkpt><trkpt lat="42.2632321" lon="14.0017038"><ele>116.0</ele><time>2026-05-03T11:13:14.851Z</time></trkpt><trkpt lat="42.2632699" lon="14.0019157"><ele>114.33333333333333</ele><time>2026-05-03T11:13:15.852Z</time></trkpt><trkpt lat="42.2633353" lon="14.0021186"><ele>112.66666666666666</ele><time>2026-05-03T11:13:16.852Z</time></trkpt><trkpt lat="42.2634152" lon="14.0023138"><ele>111.0</ele><time>2026-05-03T11:13:17.852Z</time></trkpt><trkpt lat="42.263503" lon="14.0025031"><ele>110.33333333333334</ele><time>2026-05-03T11:13:18.851Z</time></trkpt><trkpt lat="42.2635922" lon="14.0026917"><ele>109.66666666666667</ele><time>2026-05-03T11:13:19.851Z</time></trkpt><trkpt lat="42.2636785" lon="14.002872"><ele>109.0</ele><time>2026-05-03T11:13:20.852Z</time></trkpt><trkpt lat="42.2637611" lon="14.0030447"><ele>109.0</ele><time>2026-05-03T11:13:21.851Z</time></trkpt><trkpt lat="42.2638362" lon="14.0032083"><ele>109.0</ele><time>2026-05-03T11:13:22.852Z</time></trkpt><trkpt lat="42.2638961" lon="14.0033582"><ele>109.0</ele><time>2026-05-03T11:13:23.851Z</time></trkpt><trkpt lat="42.2639393" lon="14.0034952"><ele>109.0</ele><time>2026-05-03T11:13:24.851Z</time></trkpt><trkpt lat="42.263964" lon="14.003624"><ele>109.00000000000001</ele><time>2026-05-03T11:13:25.852Z</time></trkpt><trkpt lat="42.2639639" lon="14.0037444"><ele>109.0</ele><time>2026-05-03T11:13:26.851Z</time></trkpt><trkpt lat="42.2639555" lon="14.0038567"><ele>109.0</ele><time>2026-05-03T11:13:27.851Z</time></trkpt><trkpt lat="42.2639683" lon="14.0039594"><ele>109.0</ele><time>2026-05-03T11:13:28.865Z</time></trkpt><trkpt lat="42.2640058" lon="14.0040482"><ele>109.00000000000001</ele><time>2026-05-03T11:13:29.866Z</time></trkpt><trkpt lat="42.2640702" lon="14.0041198"><ele>109.0</ele><time>2026-05-03T11:13:30.865Z</time></trkpt><trkpt lat="42.2641494" lon="14.0041912"><ele>109.25</ele><time>2026-05-03T11:13:31.865Z</time></trkpt><trkpt lat="42.2642324" lon="14.0042856"><ele>109.5</ele><time>2026-05-03T11:13:32.865Z</time></trkpt><trkpt lat="42.2643147" lon="14.0044061"><ele>109.75</ele><time>2026-05-03T11:13:33.865Z</time></trkpt><trkpt lat="42.2643915" lon="14.0045435"><ele>110.0</ele><time>2026-05-03T11:13:34.864Z</time></trkpt><trkpt lat="42.2644684" lon="14.0046986"><ele>110.0</ele><time>2026-05-03T11:13:35.865Z</time></trkpt><trkpt lat="42.2645423" lon="14.0048561"><ele>110.0</ele><time>2026-05-03T11:13:36.865Z</time></trkpt><trkpt lat="42.2646107" lon="14.0050062"><ele>110.0</ele><time>2026-05-03T11:13:37.865Z</time></trkpt><trkpt lat="42.2646792" lon="14.0051603"><ele>110.0</ele><time>2026-05-03T11:13:38.866Z</time></trkpt><trkpt lat="42.2647476" lon="14.005314"><ele>108.75</ele><time>2026-05-03T11:13:39.865Z</time></trkpt><trkpt lat="42.2648135" lon="14.0054611"><ele>107.5</ele><time>2026-05-03T11:13:40.865Z</time></trkpt><trkpt lat="42.2648758" lon="14.0056013"><ele>106.25</ele><time>2026-05-03T11:13:41.865Z</time></trkpt><trkpt lat="42.264935" lon="14.0057403"><ele>105.0</ele><time>2026-05-03T11:13:42.866Z</time></trkpt><trkpt lat="42.264991" lon="14.0058723"><ele>104.4</ele><time>2026-05-03T11:13:43.866Z</time></trkpt><trkpt lat="42.2650433" lon="14.0059931"><ele>103.8</ele><time>2026-05-03T11:13:44.865Z</time></trkpt><trkpt lat="42.2650903" lon="14.0060959"><ele>103.19999999999999</ele><time>2026-05-03T11:13:45.865Z</time></trkpt><trkpt lat="42.2651351" lon="14.0061947"><ele>102.6</ele><time>2026-05-03T11:13:46.866Z</time></trkpt><trkpt lat="42.265182" lon="14.0062959"><ele>102.0</ele><time>2026-05-03T11:13:47.866Z</time></trkpt><trkpt lat="42.2652344" lon="14.0064104"><ele>102.0</ele><time>2026-05-03T11:13:48.866Z</time></trkpt><trkpt lat="42.2652939" lon="14.0065361"><ele>102.0</ele><time>2026-05-03T11:13:49.865Z</time></trkpt><trkpt lat="42.265366" lon="14.0066831"><ele>102.0</ele><time>2026-05-03T11:13:50.866Z</time></trkpt><trkpt lat="42.265443" lon="14.0068573"><ele>102.0</ele><time>2026-05-03T11:13:51.865Z</time></trkpt><trkpt lat="42.2655207" lon="14.0070396"><ele>102.0</ele><time>2026-05-03T11:13:52.866Z</time></trkpt><trkpt lat="42.2656028" lon="14.0072244"><ele>102.0</ele><time>2026-05-03T11:13:53.865Z</time></trkpt><trkpt lat="42.2656931" lon="14.0074028"><ele>102.0</ele><time>2026-05-03T11:13:54.865Z</time></trkpt><trkpt lat="42.265795" lon="14.0075698"><ele>101.66666666666666</ele><time>2026-05-03T11:13:55.866Z</time></trkpt><trkpt lat="42.265905" lon="14.0077201"><ele>101.33333333333333</ele><time>2026-05-03T11:13:56.866Z</time></trkpt><trkpt lat="42.266018" lon="14.0078571"><ele>101.0</ele><time>2026-05-03T11:13:57.865Z</time></trkpt><trkpt lat="42.2661319" lon="14.007986"><ele>101.0</ele><time>2026-05-03T11:13:58.865Z</time></trkpt><trkpt lat="42.2662458" lon="14.0081162"><ele>101.0</ele><time>2026-05-03T11:13:59.866Z</time></trkpt><trkpt lat="42.2663563" lon="14.0082519"><ele>101.0</ele><time>2026-05-03T11:14:00.865Z</time></trkpt><trkpt lat="42.2664589" lon="14.0083859"><ele>101.0</ele><time>2026-05-03T11:14:01.865Z</time></trkpt><trkpt lat="42.2665469" lon="14.0085266"><ele>100.5</ele><time>2026-05-03T11:14:02.865Z</time></trkpt><trkpt lat="42.2666218" lon="14.0086636"><ele>100.0</ele><time>2026-05-03T11:14:03.865Z</time></trkpt><trkpt lat="42.2666868" lon="14.0087998"><ele>99.5</ele><time>2026-05-03T11:14:04.866Z</time></trkpt><trkpt lat="42.2667515" lon="14.0089369"><ele>99.0</ele><time>2026-05-03T11:14:05.865Z</time></trkpt><trkpt lat="42.2668173" lon="14.009071"><ele>98.6</ele><time>2026-05-03T11:14:06.865Z</time></trkpt><trkpt lat="42.2668764" lon="14.0092004"><ele>98.2</ele><time>2026-05-03T11:14:07.865Z</time></trkpt><trkpt lat="42.2669314" lon="14.0093238"><ele>97.8</ele><time>2026-05-03T11:14:08.865Z</time></trkpt><trkpt lat="42.2669871" lon="14.0094454"><ele>97.39999999999999</ele><time>2026-05-03T11:14:09.865Z</time></trkpt><trkpt lat="42.2670455" lon="14.0095708"><ele>97.0</ele><time>2026-05-03T11:14:10.865Z</time></trkpt><trkpt lat="42.2671022" lon="14.0096939"><ele>97.00000000000001</ele><time>2026-05-03T11:14:11.865Z</time></trkpt><trkpt lat="42.2671541" lon="14.0098104"><ele>97.0</ele><time>2026-05-03T11:14:12.865Z</time></trkpt><trkpt lat="42.2671986" lon="14.0099171"><ele>97.0</ele><time>2026-05-03T11:14:13.865Z</time></trkpt><trkpt lat="42.2672291" lon="14.0100088"><ele>97.0</ele><time>2026-05-03T11:14:14.866Z</time></trkpt><trkpt lat="42.2672433" lon="14.0100922"><ele>97.00000000000001</ele><time>2026-05-03T11:14:15.865Z</time></trkpt><trkpt lat="42.2672442" lon="14.0101825"><ele>97.0</ele><time>2026-05-03T11:14:16.865Z</time></trkpt><trkpt lat="42.2672309" lon="14.0102865"><ele>97.50000000000001</ele><time>2026-05-03T11:14:17.865Z</time></trkpt><trkpt lat="42.2672052" lon="14.0103971"><ele>98.0</ele><time>2026-05-03T11:14:18.866Z</time></trkpt><trkpt lat="42.2671629" lon="14.0104957"><ele>98.5</ele><time>2026-05-03T11:14:19.865Z</time></trkpt><trkpt lat="42.2671009" lon="14.0105774"><ele>99.0</ele><time>2026-05-03T11:14:20.866Z</time></trkpt><trkpt lat="42.2670296" lon="14.0106465"><ele>99.50000000000001</ele><time>2026-05-03T11:14:21.865Z</time></trkpt><trkpt lat="42.2669533" lon="14.0107121"><ele>100.0</ele><time>2026-05-03T11:14:22.865Z</time></trkpt><trkpt lat="42.2668829" lon="14.0107743"><ele>99.8</ele><time>2026-05-03T11:14:23.865Z</time></trkpt><trkpt lat="42.2668126" lon="14.010835"><ele>99.6</ele><time>2026-05-03T11:14:24.865Z</time></trkpt><trkpt lat="42.2667363" lon="14.010899"><ele>99.4</ele><time>2026-05-03T11:14:25.865Z</time></trkpt><trkpt lat="42.266652" lon="14.0109681"><ele>99.2</ele><time>2026-05-03T11:14:26.866Z</time></trkpt><trkpt lat="42.2665627" lon="14.0110407"><ele>99.0</ele><time>2026-05-03T11:14:27.865Z</time></trkpt><trkpt lat="42.2664671" lon="14.0111187"><ele>99.6</ele><time>2026-05-03T11:14:28.866Z</time></trkpt><trkpt lat="42.2663717" lon="14.0111969"><ele>100.2</ele><time>2026-05-03T11:14:29.865Z</time></trkpt><trkpt lat="42.2662757" lon="14.0112768"><ele>100.8</ele><time>2026-05-03T11:14:30.865Z</time></trkpt><trkpt lat="42.2661819" lon="14.0113554"><ele>101.39999999999999</ele><time>2026-05-03T11:14:31.865Z</time></trkpt><trkpt lat="42.2660884" lon="14.0114327"><ele>102.0</ele><time>2026-05-03T11:14:32.865Z</time></trkpt><trkpt lat="42.2659927" lon="14.0115093"><ele>102.0</ele><time>2026-05-03T11:14:33.865Z</time></trkpt><trkpt lat="42.2659057" lon="14.0115786"><ele>102.0</ele><time>2026-05-03T11:14:34.865Z</time></trkpt><trkpt lat="42.2658229" lon="14.0116415"><ele>102.0</ele><time>2026-05-03T11:14:35.865Z</time></trkpt><trkpt lat="42.2657392" lon="14.0117055"><ele>102.0</ele><time>2026-05-03T11:14:36.866Z</time></trkpt><trkpt lat="42.2656549" lon="14.0117768"><ele>102.0</ele><time>2026-05-03T11:14:37.866Z</time></trkpt><trkpt lat="42.2655656" lon="14.0118523"><ele>103.25</ele><time>2026-05-03T11:14:38.865Z</time></trkpt><trkpt lat="42.2654685" lon="14.0119314"><ele>104.5</ele><time>2026-05-03T11:14:39.865Z</time></trkpt><trkpt lat="42.2653687" lon="14.0120203"><ele>105.75</ele><time>2026-05-03T11:14:40.865Z</time></trkpt><trkpt lat="42.2652668" lon="14.0121077"><ele>107.0</ele><time>2026-05-03T11:14:41.866Z</time></trkpt><trkpt lat="42.265174" lon="14.012197"><ele>107.0</ele><time>2026-05-03T11:14:42.865Z</time></trkpt><trkpt lat="42.2650909" lon="14.0122912"><ele>106.99999999999999</ele><time>2026-05-03T11:14:43.866Z</time></trkpt><trkpt lat="42.265019" lon="14.0124025"><ele>106.99999999999999</ele><time>2026-05-03T11:14:44.865Z</time></trkpt><trkpt lat="42.2649671" lon="14.0125288"><ele>107.0</ele><time>2026-05-03T11:14:45.866Z</time></trkpt><trkpt lat="42.2649313" lon="14.0126678"><ele>107.0</ele><time>2026-05-03T11:14:46.865Z</time></trkpt><trkpt lat="42.2649134" lon="14.0128178"><ele>104.6</ele><time>2026-05-03T11:14:47.866Z</time></trkpt><trkpt lat="42.264915" lon="14.0129688"><ele>102.19999999999999</ele><time>2026-05-03T11:14:48.865Z</time></trkpt><trkpt lat="42.2649363" lon="14.0131148"><ele>99.8</ele><time>2026-05-03T11:14:49.866Z</time></trkpt><trkpt lat="42.2649756" lon="14.0132539"><ele>97.4</ele><time>2026-05-03T11:14:50.865Z</time></trkpt><trkpt lat="42.2650301" lon="14.0133869"><ele>95.0</ele><time>2026-05-03T11:14:51.865Z</time></trkpt><trkpt lat="42.2650962" lon="14.0135133"><ele>94.0</ele><time>2026-05-03T11:14:52.865Z</time></trkpt><trkpt lat="42.2651699" lon="14.0136369"><ele>93.0</ele><time>2026-05-03T11:14:53.865Z</time></trkpt><trkpt lat="42.2652456" lon="14.013759"><ele>92.0</ele><time>2026-05-03T11:14:54.865Z</time></trkpt><trkpt lat="42.2653205" lon="14.0138826"><ele>91.0</ele><time>2026-05-03T11:14:55.866Z</time></trkpt><trkpt lat="42.2653977" lon="14.0140084"><ele>91.0</ele><time>2026-05-03T11:14:56.865Z</time></trkpt><trkpt lat="42.2654744" lon="14.0141355"><ele>91.0</ele><time>2026-05-03T11:14:57.865Z</time></trkpt><trkpt lat="42.2655486" lon="14.0142646"><ele>91.0</ele><time>2026-05-03T11:14:58.865Z</time></trkpt><trkpt lat="42.2656228" lon="14.0143941"><ele>91.0</ele><time>2026-05-03T11:14:59.865Z</time></trkpt><trkpt lat="42.2656985" lon="14.0145227"><ele>90.6</ele><time>2026-05-03T11:15:00.866Z</time></trkpt><trkpt lat="42.2657727" lon="14.0146467"><ele>90.19999999999999</ele><time>2026-05-03T11:15:01.865Z</time></trkpt><trkpt lat="42.2658436" lon="14.0147654"><ele>89.80000000000001</ele><time>2026-05-03T11:15:02.865Z</time></trkpt><trkpt lat="42.2659102" lon="14.0148777"><ele>89.4</ele><time>2026-05-03T11:15:03.866Z</time></trkpt><trkpt lat="42.2659727" lon="14.0149804"><ele>89.0</ele><time>2026-05-03T11:15:04.866Z</time></trkpt><trkpt lat="42.2660262" lon="14.0150745"><ele>89.0</ele><time>2026-05-03T11:15:05.866Z</time></trkpt><trkpt lat="42.2660724" lon="14.0151588"><ele>89.0</ele><time>2026-05-03T11:15:06.866Z</time></trkpt><trkpt lat="42.2661134" lon="14.0152263"><ele>89.0</ele><time>2026-05-03T11:15:07.866Z</time></trkpt><trkpt lat="42.2661802" lon="14.0152941"><ele>89.0</ele><time>2026-05-03T11:15:09.865Z</time></trkpt><trkpt lat="42.2662608" lon="14.015246"><ele>89.0</ele><time>2026-05-03T11:15:12.866Z</time></trkpt><trkpt lat="42.2663312" lon="14.0151837"><ele>89.0</ele><time>2026-05-03T11:15:14.865Z</time></trkpt><trkpt lat="42.2663963" lon="14.0151167"><ele>89.0</ele><time>2026-05-03T11:15:16.865Z</time></trkpt><trkpt lat="42.2664546" lon="14.0150493"><ele>89.0</ele><time>2026-05-03T11:15:18.865Z</time></trkpt><trkpt lat="42.2665095" lon="14.0149875"><ele>89.0</ele><time>2026-05-03T11:15:20.865Z</time></trkpt><trkpt lat="42.2665542" lon="14.0148922"><ele>89.0</ele><time>2026-05-03T11:15:23.865Z</time></trkpt><trkpt lat="42.266518" lon="14.0149802"><ele>89.0</ele><time>2026-05-03T11:28:37.864Z</time></trkpt><trkpt lat="42.2664592" lon="14.0150521"><ele>89.0</ele><time>2026-05-03T11:28:41.864Z</time></trkpt><trkpt lat="42.2664023" lon="14.0151055"><ele>89.0</ele><time>2026-05-03T11:28:47.864Z</time></trkpt><trkpt lat="42.266353" lon="14.0151775"><ele>89.0</ele><time>2026-05-03T11:29:26.864Z</time></trkpt><trkpt lat="42.2662992" lon="14.015236"><ele>89.0</ele><time>2026-05-03T11:29:29.864Z</time></trkpt><trkpt lat="42.2662467" lon="14.0152911"><ele>89.0</ele><time>2026-05-03T11:29:32.865Z</time></trkpt><trkpt lat="42.266237" lon="14.0153923"><ele>89.0</ele><time>2026-05-03T11:30:08.864Z</time></trkpt><trkpt lat="42.266281" lon="14.0155185"><ele>89.0</ele><time>2026-05-03T11:30:10.865Z</time></trkpt><trkpt lat="42.2663229" lon="14.0155915"><ele>89.0</ele><time>2026-05-03T11:30:11.864Z</time></trkpt><trkpt lat="42.2663678" lon="14.0156693"><ele>89.0</ele><time>2026-05-03T11:30:12.865Z</time></trkpt><trkpt lat="42.2664138" lon="14.0157422"><ele>89.0</ele><time>2026-05-03T11:30:13.865Z</time></trkpt><trkpt lat="42.2664544" lon="14.0158112"><ele>89.0</ele><time>2026-05-03T11:30:14.865Z</time></trkpt><trkpt lat="42.2665022" lon="14.015893"><ele>89.0</ele><time>2026-05-03T11:30:15.865Z</time></trkpt><trkpt lat="42.2665605" lon="14.0159932"><ele>89.0</ele><time>2026-05-03T11:30:16.864Z</time></trkpt><trkpt lat="42.2666216" lon="14.0160948"><ele>88.80000000000001</ele><time>2026-05-03T11:30:17.865Z</time></trkpt><trkpt lat="42.2666855" lon="14.0162052"><ele>88.60000000000001</ele><time>2026-05-03T11:30:18.864Z</time></trkpt><trkpt lat="42.2667495" lon="14.0163136"><ele>88.4</ele><time>2026-05-03T11:30:19.865Z</time></trkpt><trkpt lat="42.2668099" lon="14.0164154"><ele>88.2</ele><time>2026-05-03T11:30:20.865Z</time></trkpt><trkpt lat="42.266875" lon="14.0165231"><ele>88.0</ele><time>2026-05-03T11:30:21.864Z</time></trkpt><trkpt lat="42.2669411" lon="14.0166266"><ele>88.4</ele><time>2026-05-03T11:30:22.864Z</time></trkpt><trkpt lat="42.2670043" lon="14.0167262"><ele>88.80000000000001</ele><time>2026-05-03T11:30:23.864Z</time></trkpt><trkpt lat="42.2670624" lon="14.016838"><ele>89.2</ele><time>2026-05-03T11:30:24.864Z</time></trkpt><trkpt lat="42.2671266" lon="14.0169533"><ele>89.6</ele><time>2026-05-03T11:30:25.864Z</time></trkpt><trkpt lat="42.2671908" lon="14.0170655"><ele>90.0</ele><time>2026-05-03T11:30:26.864Z</time></trkpt><trkpt lat="42.2672537" lon="14.0171726"><ele>89.8</ele><time>2026-05-03T11:30:27.865Z</time></trkpt><trkpt lat="42.2673171" lon="14.0172802"><ele>89.6</ele><time>2026-05-03T11:30:28.865Z</time></trkpt><trkpt lat="42.2673827" lon="14.0173922"><ele>89.4</ele><time>2026-05-03T11:30:29.864Z</time></trkpt><trkpt lat="42.2674535" lon="14.0175079"><ele>89.2</ele><time>2026-05-03T11:30:30.864Z</time></trkpt><trkpt lat="42.2675245" lon="14.0176284"><ele>89.0</ele><time>2026-05-03T11:30:31.864Z</time></trkpt><trkpt lat="42.2675994" lon="14.0177489"><ele>89.0</ele><time>2026-05-03T11:30:32.865Z</time></trkpt><trkpt lat="42.2676774" lon="14.0178589"><ele>89.0</ele><time>2026-05-03T11:30:33.864Z</time></trkpt><trkpt lat="42.2677619" lon="14.0179527"><ele>89.0</ele><time>2026-05-03T11:30:34.864Z</time></trkpt><trkpt lat="42.2678491" lon="14.0180233"><ele>89.0</ele><time>2026-05-03T11:30:35.865Z</time></trkpt><trkpt lat="42.2679456" lon="14.0180775"><ele>89.0</ele><time>2026-05-03T11:30:36.864Z</time></trkpt><trkpt lat="42.2680546" lon="14.0181211"><ele>88.5</ele><time>2026-05-03T11:30:37.864Z</time></trkpt><trkpt lat="42.2681685" lon="14.0181584"><ele>88.0</ele><time>2026-05-03T11:30:38.864Z</time></trkpt><trkpt lat="42.2682876" lon="14.0181901"><ele>87.5</ele><time>2026-05-03T11:30:39.865Z</time></trkpt><trkpt lat="42.2684044" lon="14.0182146"><ele>87.0</ele><time>2026-05-03T11:30:40.864Z</time></trkpt><trkpt lat="42.268521" lon="14.0182378"><ele>87.0</ele><time>2026-05-03T11:30:41.865Z</time></trkpt><trkpt lat="42.2686412" lon="14.0182625"><ele>87.0</ele><time>2026-05-03T11:30:42.865Z</time></trkpt><trkpt lat="42.2687618" lon="14.0182912"><ele>87.0</ele><time>2026-05-03T11:30:43.865Z</time></trkpt><trkpt lat="42.2688753" lon="14.0183217"><ele>87.0</ele><time>2026-05-03T11:30:44.865Z</time></trkpt><trkpt lat="42.2689857" lon="14.0183491"><ele>88.0</ele><time>2026-05-03T11:30:45.865Z</time></trkpt><trkpt lat="42.2690938" lon="14.0183749"><ele>89.0</ele><time>2026-05-03T11:30:46.864Z</time></trkpt><trkpt lat="42.2692003" lon="14.0184005"><ele>90.0</ele><time>2026-05-03T11:30:47.865Z</time></trkpt><trkpt lat="42.2693" lon="14.0184273"><ele>91.0</ele><time>2026-05-03T11:30:48.864Z</time></trkpt><trkpt lat="42.2694052" lon="14.0184547"><ele>92.0</ele><time>2026-05-03T11:30:49.865Z</time></trkpt><trkpt lat="42.2695126" lon="14.018485"><ele>92.0</ele><time>2026-05-03T11:30:50.864Z</time></trkpt><trkpt lat="42.2696203" lon="14.0185228"><ele>92.0</ele><time>2026-05-03T11:30:51.865Z</time></trkpt><trkpt lat="42.2697285" lon="14.0185746"><ele>92.0</ele><time>2026-05-03T11:30:52.865Z</time></trkpt><trkpt lat="42.2698364" lon="14.0186409"><ele>92.0</ele><time>2026-05-03T11:30:53.864Z</time></trkpt><trkpt lat="42.269944" lon="14.018722"><ele>92.0</ele><time>2026-05-03T11:30:54.864Z</time></trkpt><trkpt lat="42.2700553" lon="14.0188137"><ele>92.0</ele><time>2026-05-03T11:30:55.865Z</time></trkpt><trkpt lat="42.2701723" lon="14.0188974"><ele>92.0</ele><time>2026-05-03T11:30:56.865Z</time></trkpt><trkpt lat="42.2702916" lon="14.0189757"><ele>92.0</ele><time>2026-05-03T11:30:57.864Z</time></trkpt><trkpt lat="42.2704055" lon="14.0190518"><ele>92.0</ele><time>2026-05-03T11:30:58.864Z</time></trkpt><trkpt lat="42.2705105" lon="14.0191191"><ele>92.0</ele><time>2026-05-03T11:30:59.864Z</time></trkpt><trkpt lat="42.2706106" lon="14.0191826"><ele>92.0</ele><time>2026-05-03T11:31:00.864Z</time></trkpt><trkpt lat="42.2707081" lon="14.0192437"><ele>92.0</ele><time>2026-05-03T11:31:01.865Z</time></trkpt><trkpt lat="42.2707894" lon="14.0192938"><ele>92.0</ele><time>2026-05-03T11:31:02.865Z</time></trkpt><trkpt lat="42.270865" lon="14.0193456"><ele>93.0</ele><time>2026-05-03T11:31:03.864Z</time></trkpt><trkpt lat="42.2709136" lon="14.0194002"><ele>94.0</ele><time>2026-05-03T11:31:04.864Z</time></trkpt><trkpt lat="42.2709178" lon="14.0195406"><ele>95.0</ele><time>2026-05-03T11:31:06.865Z</time></trkpt><trkpt lat="42.2708842" lon="14.0196169"><ele>96.0</ele><time>2026-05-03T11:31:07.865Z</time></trkpt><trkpt lat="42.2708525" lon="14.0197043"><ele>97.0</ele><time>2026-05-03T11:31:08.864Z</time></trkpt><trkpt lat="42.2708078" lon="14.0197817"><ele>98.0</ele><time>2026-05-03T11:31:09.865Z</time></trkpt><trkpt lat="42.2707419" lon="14.0198151"><ele>99.0</ele><time>2026-05-03T11:31:10.864Z</time></trkpt><trkpt lat="42.2706659" lon="14.0198171"><ele>99.6</ele><time>2026-05-03T11:31:11.864Z</time></trkpt><trkpt lat="42.2705803" lon="14.0197989"><ele>100.2</ele><time>2026-05-03T11:31:12.865Z</time></trkpt><trkpt lat="42.2704911" lon="14.0197734"><ele>100.8</ele><time>2026-05-03T11:31:13.864Z</time></trkpt><trkpt lat="42.2703966" lon="14.0197414"><ele>101.39999999999999</ele><time>2026-05-03T11:31:14.865Z</time></trkpt><trkpt lat="42.2702985" lon="14.019701"><ele>102.0</ele><time>2026-05-03T11:31:15.864Z</time></trkpt><trkpt lat="42.2701917" lon="14.0196536"><ele>102.0</ele><time>2026-05-03T11:31:16.864Z</time></trkpt><trkpt lat="42.2700811" lon="14.0196013"><ele>102.0</ele><time>2026-05-03T11:31:17.865Z</time></trkpt><trkpt lat="42.2699687" lon="14.0195477"><ele>102.0</ele><time>2026-05-03T11:31:18.865Z</time></trkpt><trkpt lat="42.2698559" lon="14.0195006"><ele>102.0</ele><time>2026-05-03T11:31:19.865Z</time></trkpt><trkpt lat="42.2697494" lon="14.0194698"><ele>102.66666666666667</ele><time>2026-05-03T11:31:20.865Z</time></trkpt><trkpt lat="42.269651" lon="14.019446"><ele>103.33333333333334</ele><time>2026-05-03T11:31:21.864Z</time></trkpt><trkpt lat="42.2695608" lon="14.0194372"><ele>104.0</ele><time>2026-05-03T11:31:22.864Z</time></trkpt><trkpt lat="42.2694836" lon="14.0194379"><ele>104.66666666666667</ele><time>2026-05-03T11:31:23.864Z</time></trkpt><trkpt lat="42.2694171" lon="14.0194461"><ele>105.33333333333334</ele><time>2026-05-03T11:31:24.865Z</time></trkpt><trkpt lat="42.2693393" lon="14.019465"><ele>106.0</ele><time>2026-05-03T11:31:25.865Z</time></trkpt><trkpt lat="42.2692563" lon="14.0194886"><ele>106.00000000000001</ele><time>2026-05-03T11:31:26.863Z</time></trkpt><trkpt lat="42.2691746" lon="14.0195177"><ele>106.0</ele><time>2026-05-03T11:31:27.864Z</time></trkpt><trkpt lat="42.2691012" lon="14.0195686"><ele>106.0</ele><time>2026-05-03T11:31:28.864Z</time></trkpt><trkpt lat="42.2690466" lon="14.0196617"><ele>106.0</ele><time>2026-05-03T11:31:29.864Z</time></trkpt><trkpt lat="42.2690212" lon="14.0197584"><ele>106.00000000000001</ele><time>2026-05-03T11:31:30.865Z</time></trkpt><trkpt lat="42.2690266" lon="14.0198971"><ele>106.0</ele><time>2026-05-03T11:31:32.864Z</time></trkpt><trkpt lat="42.2690558" lon="14.0199856"><ele>108.16666666666667</ele><time>2026-05-03T11:31:52.863Z</time></trkpt><trkpt lat="42.2690951" lon="14.0201228"><ele>110.33333333333334</ele><time>2026-05-03T11:31:54.863Z</time></trkpt><trkpt lat="42.2691165" lon="14.0202154"><ele>112.5</ele><time>2026-05-03T11:31:55.863Z</time></trkpt><trkpt lat="42.2691359" lon="14.0203213"><ele>114.66666666666666</ele><time>2026-05-03T11:31:56.864Z</time></trkpt><trkpt lat="42.269148" lon="14.0204169"><ele>116.83333333333333</ele><time>2026-05-03T11:31:57.863Z</time></trkpt><trkpt lat="42.2691493" lon="14.0205095"><ele>119.0</ele><time>2026-05-03T11:31:58.863Z</time></trkpt><trkpt lat="42.2691484" lon="14.0206134"><ele>118.99999999999999</ele><time>2026-05-03T11:31:59.863Z</time></trkpt><trkpt lat="42.2691463" lon="14.0207205"><ele>119.0</ele><time>2026-05-03T11:32:00.864Z</time></trkpt><trkpt lat="42.2691393" lon="14.020833"><ele>119.0</ele><time>2026-05-03T11:32:01.864Z</time></trkpt><trkpt lat="42.2691304" lon="14.0209444"><ele>119.0</ele><time>2026-05-03T11:32:02.864Z</time></trkpt><trkpt lat="42.2691097" lon="14.0210897"><ele>118.99999999999999</ele><time>2026-05-03T11:32:03.863Z</time></trkpt><trkpt lat="42.269094" lon="14.0211982"><ele>119.0</ele><time>2026-05-03T11:32:04.863Z</time></trkpt><trkpt lat="42.269082" lon="14.0213036"><ele>121.4</ele><time>2026-05-03T11:32:05.864Z</time></trkpt><trkpt lat="42.2691002" lon="14.0214253"><ele>123.80000000000001</ele><time>2026-05-03T11:32:07.864Z</time></trkpt><trkpt lat="42.2691544" lon="14.0214901"><ele>126.19999999999999</ele><time>2026-05-03T11:32:09.863Z</time></trkpt><trkpt lat="42.2692622" lon="14.0215533"><ele>128.6</ele><time>2026-05-03T11:32:11.863Z</time></trkpt><trkpt lat="42.269373" lon="14.0216279"><ele>131.0</ele><time>2026-05-03T11:32:13.863Z</time></trkpt><trkpt lat="42.2694642" lon="14.0216874"><ele>132.33333333333331</ele><time>2026-05-03T11:32:15.863Z</time></trkpt><trkpt lat="42.2695403" lon="14.0217518"><ele>133.66666666666666</ele><time>2026-05-03T11:32:17.864Z</time></trkpt><trkpt lat="42.2696049" lon="14.021843"><ele>135.0</ele><time>2026-05-03T11:32:19.864Z</time></trkpt><trkpt lat="42.2696555" lon="14.0218956"><ele>136.33333333333334</ele><time>2026-05-03T11:32:20.863Z</time></trkpt><trkpt lat="42.2697417" lon="14.0219931"><ele>137.66666666666669</ele><time>2026-05-03T11:32:22.864Z</time></trkpt><trkpt lat="42.2697949" lon="14.0220717"><ele>139.0</ele><time>2026-05-03T11:32:23.864Z</time></trkpt><trkpt lat="42.2698584" lon="14.0221639"><ele>139.0</ele><time>2026-05-03T11:32:24.863Z</time></trkpt><trkpt lat="42.2699269" lon="14.022268"><ele>139.0</ele><time>2026-05-03T11:32:25.863Z</time></trkpt><trkpt lat="42.270004" lon="14.0223806"><ele>139.0</ele><time>2026-05-03T11:32:26.864Z</time></trkpt><trkpt lat="42.2700701" lon="14.0224794"><ele>139.0</ele><time>2026-05-03T11:32:27.863Z</time></trkpt><trkpt lat="42.2701333" lon="14.0225663"><ele>139.0</ele><time>2026-05-03T11:32:28.864Z</time></trkpt><trkpt lat="42.270208" lon="14.0226477"><ele>141.4</ele><time>2026-05-03T11:32:29.863Z</time></trkpt><trkpt lat="42.2702836" lon="14.0227111"><ele>143.8</ele><time>2026-05-03T11:32:30.863Z</time></trkpt><trkpt lat="42.2703522" lon="14.0227815"><ele>146.2</ele><time>2026-05-03T11:32:31.863Z</time></trkpt><trkpt lat="42.2704226" lon="14.0228723"><ele>148.6</ele><time>2026-05-03T11:32:32.864Z</time></trkpt><trkpt lat="42.270492" lon="14.0229693"><ele>151.0</ele><time>2026-05-03T11:32:33.863Z</time></trkpt><trkpt lat="42.2705726" lon="14.0230843"><ele>149.8</ele><time>2026-05-03T11:32:34.864Z</time></trkpt><trkpt lat="42.2706569" lon="14.0232046"><ele>148.6</ele><time>2026-05-03T11:32:35.863Z</time></trkpt><trkpt lat="42.2707263" lon="14.0233044"><ele>147.4</ele><time>2026-05-03T11:32:36.863Z</time></trkpt><trkpt lat="42.2707831" lon="14.0233907"><ele>146.2</ele><time>2026-05-03T11:32:37.863Z</time></trkpt><trkpt lat="42.2708367" lon="14.0234764"><ele>145.0</ele><time>2026-05-03T11:32:38.863Z</time></trkpt><trkpt lat="42.2708859" lon="14.0235803"><ele>147.16666666666669</ele><time>2026-05-03T11:32:39.863Z</time></trkpt><trkpt lat="42.2709214" lon="14.023683"><ele>149.33333333333334</ele><time>2026-05-03T11:32:40.864Z</time></trkpt><trkpt lat="42.2709428" lon="14.0237939"><ele>151.5</ele><time>2026-05-03T11:32:41.863Z</time></trkpt><trkpt lat="42.2709499" lon="14.0238908"><ele>153.66666666666666</ele><time>2026-05-03T11:32:42.863Z</time></trkpt><trkpt lat="42.2709219" lon="14.0240289"><ele>155.83333333333331</ele><time>2026-05-03T11:32:44.864Z</time></trkpt><trkpt lat="42.2708528" lon="14.0240951"><ele>158.0</ele><time>2026-05-03T11:32:46.863Z</time></trkpt><trkpt lat="42.2707458" lon="14.0241305"><ele>158.0</ele><time>2026-05-03T11:32:48.863Z</time></trkpt><trkpt lat="42.270677" lon="14.0241343"><ele>158.0</ele><time>2026-05-03T11:32:49.863Z</time></trkpt><trkpt lat="42.2705964" lon="14.0241349"><ele>158.0</ele><time>2026-05-03T11:32:50.864Z</time></trkpt><trkpt lat="42.270508" lon="14.024134"><ele>158.0</ele><time>2026-05-03T11:32:51.858Z</time></trkpt><trkpt lat="42.2704125" lon="14.0241384"><ele>158.0</ele><time>2026-05-03T11:32:52.863Z</time></trkpt><trkpt lat="42.27031" lon="14.0241406"><ele>158.0</ele><time>2026-05-03T11:32:53.863Z</time></trkpt><trkpt lat="42.2702142" lon="14.0241338"><ele>159.60000000000002</ele><time>2026-05-03T11:32:54.864Z</time></trkpt><trkpt lat="42.2701232" lon="14.0241335"><ele>161.20000000000002</ele><time>2026-05-03T11:32:55.863Z</time></trkpt><trkpt lat="42.2700203" lon="14.0241355"><ele>162.8</ele><time>2026-05-03T11:32:56.864Z</time></trkpt><trkpt lat="42.269926" lon="14.0241548"><ele>164.4</ele><time>2026-05-03T11:32:57.864Z</time></trkpt><trkpt lat="42.2698406" lon="14.0241903"><ele>166.0</ele><time>2026-05-03T11:32:58.863Z</time></trkpt><trkpt lat="42.2697613" lon="14.0242342"><ele>168.33333333333334</ele><time>2026-05-03T11:32:59.864Z</time></trkpt><trkpt lat="42.2696956" lon="14.0242637"><ele>170.66666666666669</ele><time>2026-05-03T11:33:00.863Z</time></trkpt><trkpt lat="42.26963" lon="14.0242658"><ele>173.0</ele><time>2026-05-03T11:33:01.863Z</time></trkpt><trkpt lat="42.2695512" lon="14.0242426"><ele>175.33333333333334</ele><time>2026-05-03T11:33:02.864Z</time></trkpt><trkpt lat="42.2694624" lon="14.0242159"><ele>177.66666666666666</ele><time>2026-05-03T11:33:03.863Z</time></trkpt><trkpt lat="42.2693665" lon="14.0241809"><ele>180.0</ele><time>2026-05-03T11:33:04.863Z</time></trkpt><trkpt lat="42.2692986" lon="14.024145"><ele>180.0</ele><time>2026-05-03T11:33:05.864Z</time></trkpt><trkpt lat="42.2692358" lon="14.024113"><ele>180.0</ele><time>2026-05-03T11:33:06.864Z</time></trkpt><trkpt lat="42.2691338" lon="14.0241195"><ele>180.0</ele><time>2026-05-03T11:33:08.863Z</time></trkpt><trkpt lat="42.269065" lon="14.024162"><ele>180.0</ele><time>2026-05-03T11:33:09.863Z</time></trkpt><trkpt lat="42.2689842" lon="14.0242063"><ele>180.0</ele><time>2026-05-03T11:33:10.863Z</time></trkpt><trkpt lat="42.2688902" lon="14.0242476"><ele>180.0</ele><time>2026-05-03T11:33:11.864Z</time></trkpt><trkpt lat="42.2687893" lon="14.0242846"><ele>183.8</ele><time>2026-05-03T11:33:12.863Z</time></trkpt><trkpt lat="42.2686787" lon="14.0243275"><ele>187.6</ele><time>2026-05-03T11:33:13.863Z</time></trkpt><trkpt lat="42.2685698" lon="14.0243726"><ele>191.39999999999998</ele><time>2026-05-03T11:33:14.863Z</time></trkpt><trkpt lat="42.2684712" lon="14.0244205"><ele>195.2</ele><time>2026-05-03T11:33:15.863Z</time></trkpt><trkpt lat="42.2683782" lon="14.0244776"><ele>199.0</ele><time>2026-05-03T11:33:16.864Z</time></trkpt><trkpt lat="42.2682923" lon="14.024536"><ele>199.0</ele><time>2026-05-03T11:33:17.863Z</time></trkpt><trkpt lat="42.2682045" lon="14.0246035"><ele>199.0</ele><time>2026-05-03T11:33:18.864Z</time></trkpt><trkpt lat="42.2681178" lon="14.0246769"><ele>199.0</ele><time>2026-05-03T11:33:19.863Z</time></trkpt><trkpt lat="42.2680551" lon="14.0247374"><ele>199.0</ele><time>2026-05-03T11:33:20.864Z</time></trkpt><trkpt lat="42.2679534" lon="14.0248443"><ele>199.0</ele><time>2026-05-03T11:33:22.864Z</time></trkpt><trkpt lat="42.2678656" lon="14.0249059"><ele>199.16666666666666</ele><time>2026-05-03T11:33:24.863Z</time></trkpt><trkpt lat="42.2677869" lon="14.0249521"><ele>199.33333333333331</ele><time>2026-05-03T11:33:26.863Z</time></trkpt><trkpt lat="42.2677309" lon="14.0249963"><ele>199.5</ele><time>2026-05-03T11:33:29.863Z</time></trkpt><trkpt lat="42.2676551" lon="14.0250472"><ele>199.66666666666669</ele><time>2026-05-03T11:33:33.863Z</time></trkpt><trkpt lat="42.267601" lon="14.025094"><ele>199.83333333333334</ele><time>2026-05-03T11:33:50.864Z</time></trkpt><trkpt lat="42.2675418" lon="14.0251235"><ele>200.0</ele><time>2026-05-03T11:33:52.864Z</time></trkpt><trkpt lat="42.267453" lon="14.0252032"><ele>206.6</ele><time>2026-05-03T11:33:54.863Z</time></trkpt><trkpt lat="42.2673511" lon="14.0253077"><ele>213.2</ele><time>2026-05-03T11:33:56.863Z</time></trkpt><trkpt lat="42.2672315" lon="14.025336"><ele>219.8</ele><time>2026-05-03T11:33:58.863Z</time></trkpt><trkpt lat="42.2671283" lon="14.0252553"><ele>226.4</ele><time>2026-05-03T11:34:00.863Z</time></trkpt><trkpt lat="42.2670768" lon="14.0251923"><ele>233.0</ele><time>2026-05-03T11:34:01.863Z</time></trkpt><trkpt lat="42.2670218" lon="14.0251303"><ele>234.50000000000003</ele><time>2026-05-03T11:34:02.863Z</time></trkpt><trkpt lat="42.2669673" lon="14.0250633"><ele>236.0</ele><time>2026-05-03T11:34:03.864Z</time></trkpt><trkpt lat="42.2669005" lon="14.0249961"><ele>237.5</ele><time>2026-05-03T11:34:04.863Z</time></trkpt><trkpt lat="42.2668282" lon="14.0249159"><ele>239.0</ele><time>2026-05-03T11:34:05.863Z</time></trkpt><trkpt lat="42.2667573" lon="14.0248287"><ele>240.50000000000003</ele><time>2026-05-03T11:34:06.863Z</time></trkpt><trkpt lat="42.2666798" lon="14.0247446"><ele>242.0</ele><time>2026-05-03T11:34:07.863Z</time></trkpt><trkpt lat="42.2666123" lon="14.0246692"><ele>238.16666666666669</ele><time>2026-05-03T11:34:08.863Z</time></trkpt><trkpt lat="42.2665486" lon="14.0245985"><ele>234.33333333333334</ele><time>2026-05-03T11:34:09.864Z</time></trkpt><trkpt lat="42.266491" lon="14.0245378"><ele>230.5</ele><time>2026-05-03T11:34:10.863Z</time></trkpt><trkpt lat="42.2664389" lon="14.0244838"><ele>226.66666666666669</ele><time>2026-05-03T11:34:11.863Z</time></trkpt><trkpt lat="42.2663152" lon="14.0244256"><ele>222.83333333333334</ele><time>2026-05-03T11:34:13.863Z</time></trkpt><trkpt lat="42.2662552" lon="14.0243807"><ele>219.0</ele><time>2026-05-03T11:34:14.863Z</time></trkpt><trkpt lat="42.2661798" lon="14.0242691"><ele>219.0</ele><time>2026-05-03T11:34:16.863Z</time></trkpt><trkpt lat="42.2660869" lon="14.0242615"><ele>218.99999999999997</ele><time>2026-05-03T11:34:18.863Z</time></trkpt><trkpt lat="42.2659868" lon="14.0243571"><ele>218.99999999999997</ele><time>2026-05-03T11:34:20.863Z</time></trkpt><trkpt lat="42.2658636" lon="14.0244123"><ele>219.0</ele><time>2026-05-03T11:34:22.863Z</time></trkpt><trkpt lat="42.2657767" lon="14.0244389"><ele>219.0</ele><time>2026-05-03T11:34:23.863Z</time></trkpt><trkpt lat="42.2656897" lon="14.0244591"><ele>216.66666666666666</ele><time>2026-05-03T11:34:24.864Z</time></trkpt><trkpt lat="42.2656035" lon="14.024472"><ele>214.33333333333331</ele><time>2026-05-03T11:34:25.863Z</time></trkpt><trkpt lat="42.2655087" lon="14.0244873"><ele>212.0</ele><time>2026-05-03T11:34:26.863Z</time></trkpt><trkpt lat="42.2654147" lon="14.0245161"><ele>209.66666666666666</ele><time>2026-05-03T11:34:27.863Z</time></trkpt><trkpt lat="42.2653311" lon="14.0245419"><ele>207.33333333333331</ele><time>2026-05-03T11:34:28.863Z</time></trkpt><trkpt lat="42.2652468" lon="14.0245561"><ele>205.0</ele><time>2026-05-03T11:34:29.863Z</time></trkpt><trkpt lat="42.2651583" lon="14.0245606"><ele>205.0</ele><time>2026-05-03T11:34:30.864Z</time></trkpt><trkpt lat="42.2650463" lon="14.0246212"><ele>205.0</ele><time>2026-05-03T11:34:32.863Z</time></trkpt><trkpt lat="42.2649856" lon="14.0247745"><ele>205.0</ele><time>2026-05-03T11:34:34.864Z</time></trkpt><trkpt lat="42.264948" lon="14.0248646"><ele>205.0</ele><time>2026-05-03T11:34:35.863Z</time></trkpt><trkpt lat="42.2648933" lon="14.0249321"><ele>205.0</ele><time>2026-05-03T11:34:36.863Z</time></trkpt><trkpt lat="42.2648371" lon="14.0249807"><ele>208.49999999999997</ele><time>2026-05-03T11:34:37.864Z</time></trkpt><trkpt lat="42.2647755" lon="14.0250079"><ele>212.0</ele><time>2026-05-03T11:34:38.863Z</time></trkpt><trkpt lat="42.2646955" lon="14.0250094"><ele>215.5</ele><time>2026-05-03T11:34:39.863Z</time></trkpt><trkpt lat="42.2645977" lon="14.025015"><ele>219.0</ele><time>2026-05-03T11:34:40.864Z</time></trkpt><trkpt lat="42.2645051" lon="14.025036"><ele>222.49999999999997</ele><time>2026-05-03T11:34:41.863Z</time></trkpt><trkpt lat="42.2644145" lon="14.0250392"><ele>226.0</ele><time>2026-05-03T11:34:42.863Z</time></trkpt><trkpt lat="42.2643212" lon="14.025024"><ele>225.99999999999997</ele><time>2026-05-03T11:34:43.864Z</time></trkpt><trkpt lat="42.2642225" lon="14.0249827"><ele>226.0</ele><time>2026-05-03T11:34:44.863Z</time></trkpt><trkpt lat="42.2641315" lon="14.0249469"><ele>226.0</ele><time>2026-05-03T11:34:45.864Z</time></trkpt><trkpt lat="42.2640458" lon="14.024914"><ele>226.0</ele><time>2026-05-03T11:34:46.863Z</time></trkpt><trkpt lat="42.2639678" lon="14.0248822"><ele>225.99999999999997</ele><time>2026-05-03T11:34:47.863Z</time></trkpt><trkpt lat="42.2638903" lon="14.0248583"><ele>226.0</ele><time>2026-05-03T11:34:48.864Z</time></trkpt><trkpt lat="42.2638103" lon="14.0248294"><ele>225.49999999999997</ele><time>2026-05-03T11:34:49.864Z</time></trkpt><trkpt lat="42.263743" lon="14.024785"><ele>225.0</ele><time>2026-05-03T11:34:50.863Z</time></trkpt><trkpt lat="42.2636772" lon="14.0247576"><ele>224.5</ele><time>2026-05-03T11:34:51.864Z</time></trkpt><trkpt lat="42.2636054" lon="14.0247469"><ele>224.0</ele><time>2026-05-03T11:34:52.863Z</time></trkpt><trkpt lat="42.2635198" lon="14.0246724"><ele>223.49999999999997</ele><time>2026-05-03T11:34:54.863Z</time></trkpt><trkpt lat="42.2634847" lon="14.0245943"><ele>223.0</ele><time>2026-05-03T11:34:55.864Z</time></trkpt><trkpt lat="42.2634316" lon="14.0245002"><ele>223.0</ele><time>2026-05-03T11:34:56.863Z</time></trkpt><trkpt lat="42.2633616" lon="14.0243835"><ele>223.0</ele><time>2026-05-03T11:34:57.864Z</time></trkpt><trkpt lat="42.2633046" lon="14.0242628"><ele>223.0</ele><time>2026-05-03T11:34:58.864Z</time></trkpt><trkpt lat="42.2632602" lon="14.024154"><ele>223.0</ele><time>2026-05-03T11:34:59.864Z</time></trkpt><trkpt lat="42.2632045" lon="14.0240608"><ele>223.0</ele><time>2026-05-03T11:35:00.862Z</time></trkpt><trkpt lat="42.2631434" lon="14.0239931"><ele>224.16666666666666</ele><time>2026-05-03T11:35:01.863Z</time></trkpt><trkpt lat="42.2630712" lon="14.0239506"><ele>225.33333333333331</ele><time>2026-05-03T11:35:02.863Z</time></trkpt><trkpt lat="42.2629918" lon="14.0239349"><ele>226.5</ele><time>2026-05-03T11:35:03.863Z</time></trkpt><trkpt lat="42.2629134" lon="14.0239415"><ele>227.66666666666669</ele><time>2026-05-03T11:35:04.864Z</time></trkpt><trkpt lat="42.2628317" lon="14.0239543"><ele>228.83333333333334</ele><time>2026-05-03T11:35:05.864Z</time></trkpt><trkpt lat="42.2627522" lon="14.0239508"><ele>230.0</ele><time>2026-05-03T11:35:06.864Z</time></trkpt><trkpt lat="42.2626786" lon="14.0239274"><ele>230.0</ele><time>2026-05-03T11:35:07.863Z</time></trkpt><trkpt lat="42.2625957" lon="14.0238896"><ele>230.0</ele><time>2026-05-03T11:35:08.864Z</time></trkpt><trkpt lat="42.262504" lon="14.0238676"><ele>230.0</ele><time>2026-05-03T11:35:09.863Z</time></trkpt><trkpt lat="42.2624122" lon="14.0238383"><ele>230.0</ele><time>2026-05-03T11:35:10.863Z</time></trkpt><trkpt lat="42.2623259" lon="14.0238142"><ele>230.0</ele><time>2026-05-03T11:35:11.864Z</time></trkpt><trkpt lat="42.2622313" lon="14.0238018"><ele>232.00000000000003</ele><time>2026-05-03T11:35:12.863Z</time></trkpt><trkpt lat="42.2621312" lon="14.0237941"><ele>234.0</ele><time>2026-05-03T11:35:13.863Z</time></trkpt><trkpt lat="42.2620426" lon="14.0237682"><ele>236.0</ele><time>2026-05-03T11:35:14.863Z</time></trkpt><trkpt lat="42.2619566" lon="14.0237245"><ele>238.0</ele><time>2026-05-03T11:35:15.863Z</time></trkpt><trkpt lat="42.2618879" lon="14.0236769"><ele>240.00000000000003</ele><time>2026-05-03T11:35:16.864Z</time></trkpt><trkpt lat="42.261819" lon="14.0236239"><ele>242.0</ele><time>2026-05-03T11:35:18.864Z</time></trkpt><trkpt lat="42.2618813" lon="14.0236586"><ele>242.0</ele><time>2026-05-03T11:35:58.863Z</time></trkpt><trkpt lat="42.2619404" lon="14.0237111"><ele>241.99999999999997</ele><time>2026-05-03T11:36:12.863Z</time></trkpt><trkpt lat="42.2619975" lon="14.0237584"><ele>242.0</ele><time>2026-05-03T11:36:15.864Z</time></trkpt><trkpt lat="42.2620828" lon="14.0237883"><ele>242.0</ele><time>2026-05-03T11:36:18.863Z</time></trkpt><trkpt lat="42.2621464" lon="14.0238021"><ele>241.99999999999997</ele><time>2026-05-03T11:36:20.863Z</time></trkpt><trkpt lat="42.2622132" lon="14.0238105"><ele>242.0</ele><time>2026-05-03T11:36:42.863Z</time></trkpt><trkpt lat="42.2622906" lon="14.0237986"><ele>242.0</ele><time>2026-05-03T11:36:46.863Z</time></trkpt><trkpt lat="42.2623538" lon="14.0238112"><ele>240.00000000000003</ele><time>2026-05-03T11:36:48.864Z</time></trkpt><trkpt lat="42.2624192" lon="14.0238385"><ele>238.0</ele><time>2026-05-03T11:36:50.863Z</time></trkpt><trkpt lat="42.2624877" lon="14.0238617"><ele>236.0</ele><time>2026-05-03T11:36:52.863Z</time></trkpt><trkpt lat="42.2625636" lon="14.0238762"><ele>234.0</ele><time>2026-05-03T11:36:55.863Z</time></trkpt><trkpt lat="42.2625397" lon="14.0237761"><ele>232.00000000000003</ele><time>2026-05-03T11:36:59.863Z</time></trkpt><trkpt lat="42.262473" lon="14.0237248"><ele>230.0</ele><time>2026-05-03T11:37:01.863Z</time></trkpt><trkpt lat="42.2623903" lon="14.0237092"><ele>230.0</ele><time>2026-05-03T11:37:29.862Z</time></trkpt><trkpt lat="42.2623121" lon="14.0236895"><ele>230.0</ele><time>2026-05-03T11:37:31.863Z</time></trkpt><trkpt lat="42.2622292" lon="14.0236491"><ele>230.0</ele><time>2026-05-03T11:37:33.862Z</time></trkpt><trkpt lat="42.2621481" lon="14.0235853"><ele>230.0</ele><time>2026-05-03T11:37:35.863Z</time></trkpt><trkpt lat="42.2620543" lon="14.0235029"><ele>230.0</ele><time>2026-05-03T11:37:37.862Z</time></trkpt><trkpt lat="42.2619704" lon="14.0234082"><ele>229.8</ele><time>2026-05-03T11:37:39.862Z</time></trkpt><trkpt lat="42.2619247" lon="14.0233268"><ele>229.6</ele><time>2026-05-03T11:37:41.862Z</time></trkpt><trkpt lat="42.2619122" lon="14.0232287"><ele>229.39999999999998</ele><time>2026-05-03T11:37:44.862Z</time></trkpt><trkpt lat="42.2620136" lon="14.0231802"><ele>229.2</ele><time>2026-05-03T11:37:47.862Z</time></trkpt><trkpt lat="42.2620829" lon="14.0230482"><ele>229.0</ele><time>2026-05-03T11:37:49.862Z</time></trkpt><trkpt lat="42.26212" lon="14.0228966"><ele>229.0</ele><time>2026-05-03T11:37:51.862Z</time></trkpt><trkpt lat="42.2621412" lon="14.0228124"><ele>229.0</ele><time>2026-05-03T11:37:52.863Z</time></trkpt><trkpt lat="42.262164" lon="14.0227156"><ele>229.0</ele><time>2026-05-03T11:37:53.862Z</time></trkpt><trkpt lat="42.2621839" lon="14.0226181"><ele>229.0</ele><time>2026-05-03T11:37:54.862Z</time></trkpt><trkpt lat="42.2621945" lon="14.0225138"><ele>229.0</ele><time>2026-05-03T11:37:55.863Z</time></trkpt><trkpt lat="42.2621921" lon="14.0224114"><ele>229.0</ele><time>2026-05-03T11:37:56.862Z</time></trkpt><trkpt lat="42.2621726" lon="14.0223146"><ele>229.0</ele><time>2026-05-03T11:37:57.863Z</time></trkpt><trkpt lat="42.262133" lon="14.0222215"><ele>226.6</ele><time>2026-05-03T11:37:58.862Z</time></trkpt><trkpt lat="42.2620734" lon="14.0221345"><ele>224.2</ele><time>2026-05-03T11:37:59.862Z</time></trkpt><trkpt lat="42.2620006" lon="14.0220558"><ele>221.79999999999998</ele><time>2026-05-03T11:38:00.862Z</time></trkpt><trkpt lat="42.2619219" lon="14.0219816"><ele>219.39999999999998</ele><time>2026-05-03T11:38:01.862Z</time></trkpt><trkpt lat="42.2618393" lon="14.0219192"><ele>217.0</ele><time>2026-05-03T11:38:02.862Z</time></trkpt><trkpt lat="42.2617497" lon="14.02188"><ele>217.0</ele><time>2026-05-03T11:38:03.862Z</time></trkpt><trkpt lat="42.2616494" lon="14.0218724"><ele>217.0</ele><time>2026-05-03T11:38:04.862Z</time></trkpt><trkpt lat="42.2615473" lon="14.0218837"><ele>217.0</ele><time>2026-05-03T11:38:05.863Z</time></trkpt><trkpt lat="42.2614505" lon="14.0219055"><ele>217.0</ele><time>2026-05-03T11:38:06.862Z</time></trkpt><trkpt lat="42.2613604" lon="14.0219279"><ele>217.0</ele><time>2026-05-03T11:38:07.862Z</time></trkpt><trkpt lat="42.2612769" lon="14.021953"><ele>215.57142857142858</ele><time>2026-05-03T11:38:08.862Z</time></trkpt><trkpt lat="42.2612002" lon="14.0219782"><ele>214.14285714285714</ele><time>2026-05-03T11:38:09.862Z</time></trkpt><trkpt lat="42.2611309" lon="14.0220073"><ele>212.71428571428572</ele><time>2026-05-03T11:38:10.862Z</time></trkpt><trkpt lat="42.2610721" lon="14.0220463"><ele>211.28571428571428</ele><time>2026-05-03T11:38:11.863Z</time></trkpt><trkpt lat="42.2610179" lon="14.0221077"><ele>209.85714285714286</ele><time>2026-05-03T11:38:12.862Z</time></trkpt><trkpt lat="42.2609689" lon="14.0221821"><ele>208.42857142857144</ele><time>2026-05-03T11:38:13.862Z</time></trkpt><trkpt lat="42.2609134" lon="14.0222645"><ele>207.0</ele><time>2026-05-03T11:38:14.862Z</time></trkpt><trkpt lat="42.2608541" lon="14.022351"><ele>207.0</ele><time>2026-05-03T11:38:15.862Z</time></trkpt><trkpt lat="42.2607914" lon="14.022445"><ele>207.0</ele><time>2026-05-03T11:38:16.862Z</time></trkpt><trkpt lat="42.2607289" lon="14.0225592"><ele>207.0</ele><time>2026-05-03T11:38:17.862Z</time></trkpt><trkpt lat="42.260671" lon="14.0226862"><ele>207.0</ele><time>2026-05-03T11:38:18.862Z</time></trkpt><trkpt lat="42.2606141" lon="14.0228133"><ele>207.0</ele><time>2026-05-03T11:38:19.863Z</time></trkpt><trkpt lat="42.2605561" lon="14.0229337"><ele>207.2</ele><time>2026-05-03T11:38:20.862Z</time></trkpt><trkpt lat="42.2604988" lon="14.0230393"><ele>207.39999999999998</ele><time>2026-05-03T11:38:21.863Z</time></trkpt><trkpt lat="42.2604401" lon="14.0231285"><ele>207.60000000000002</ele><time>2026-05-03T11:38:22.863Z</time></trkpt><trkpt lat="42.2603663" lon="14.0231891"><ele>207.8</ele><time>2026-05-03T11:38:23.863Z</time></trkpt><trkpt lat="42.2602845" lon="14.0232122"><ele>208.0</ele><time>2026-05-03T11:38:24.862Z</time></trkpt><trkpt lat="42.260188" lon="14.0232176"><ele>208.0</ele><time>2026-05-03T11:38:25.862Z</time></trkpt><trkpt lat="42.2600802" lon="14.0232206"><ele>208.0</ele><time>2026-05-03T11:38:26.862Z</time></trkpt><trkpt lat="42.2599704" lon="14.0232293"><ele>208.0</ele><time>2026-05-03T11:38:27.862Z</time></trkpt><trkpt lat="42.2598585" lon="14.0232376"><ele>208.0</ele><time>2026-05-03T11:38:28.863Z</time></trkpt><trkpt lat="42.2597555" lon="14.0232454"><ele>208.0</ele><time>2026-05-03T11:38:29.862Z</time></trkpt><trkpt lat="42.259656" lon="14.0232464"><ele>209.4</ele><time>2026-05-03T11:38:30.862Z</time></trkpt><trkpt lat="42.259579" lon="14.023245"><ele>210.8</ele><time>2026-05-03T11:38:31.862Z</time></trkpt><trkpt lat="42.2594903" lon="14.0232893"><ele>212.2</ele><time>2026-05-03T11:38:33.863Z</time></trkpt><trkpt lat="42.259458" lon="14.0234019"><ele>213.6</ele><time>2026-05-03T11:38:35.862Z</time></trkpt><trkpt lat="42.2594834" lon="14.0235763"><ele>215.0</ele><time>2026-05-03T11:38:37.862Z</time></trkpt><trkpt lat="42.2595" lon="14.0236835"><ele>215.50000000000003</ele><time>2026-05-03T11:38:38.864Z</time></trkpt><trkpt lat="42.259519" lon="14.0237972"><ele>216.0</ele><time>2026-05-03T11:38:39.862Z</time></trkpt><trkpt lat="42.259529" lon="14.0239028"><ele>216.5</ele><time>2026-05-03T11:38:40.862Z</time></trkpt><trkpt lat="42.2595289" lon="14.0240144"><ele>217.0</ele><time>2026-05-03T11:38:41.862Z</time></trkpt><trkpt lat="42.2595118" lon="14.0241323"><ele>217.50000000000003</ele><time>2026-05-03T11:38:42.864Z</time></trkpt><trkpt lat="42.259483" lon="14.0242585"><ele>218.0</ele><time>2026-05-03T11:38:43.863Z</time></trkpt><trkpt lat="42.2594647" lon="14.0243911"><ele>220.4</ele><time>2026-05-03T11:38:44.862Z</time></trkpt><trkpt lat="42.2594525" lon="14.0245228"><ele>222.8</ele><time>2026-05-03T11:38:45.862Z</time></trkpt><trkpt lat="42.2594425" lon="14.0246513"><ele>225.2</ele><time>2026-05-03T11:38:46.862Z</time></trkpt><trkpt lat="42.2594301" lon="14.0247774"><ele>227.6</ele><time>2026-05-03T11:38:47.862Z</time></trkpt><trkpt lat="42.2594201" lon="14.0249016"><ele>230.0</ele><time>2026-05-03T11:38:48.862Z</time></trkpt><trkpt lat="42.2594249" lon="14.0250196"><ele>232.16666666666669</ele><time>2026-05-03T11:38:49.862Z</time></trkpt><trkpt lat="42.259445" lon="14.0251288"><ele>234.33333333333334</ele><time>2026-05-03T11:38:50.863Z</time></trkpt><trkpt lat="42.25947" lon="14.0252129"><ele>236.5</ele><time>2026-05-03T11:38:51.862Z</time></trkpt><trkpt lat="42.2595454" lon="14.0253006"><ele>238.66666666666669</ele><time>2026-05-03T11:38:53.862Z</time></trkpt><trkpt lat="42.2596064" lon="14.0253278"><ele>240.83333333333334</ele><time>2026-05-03T11:38:54.862Z</time></trkpt><trkpt lat="42.2596739" lon="14.0253636"><ele>243.0</ele><time>2026-05-03T11:38:55.862Z</time></trkpt><trkpt lat="42.2597465" lon="14.0254117"><ele>243.33333333333334</ele><time>2026-05-03T11:38:56.862Z</time></trkpt><trkpt lat="42.2598369" lon="14.0254822"><ele>243.66666666666669</ele><time>2026-05-03T11:38:57.862Z</time></trkpt><trkpt lat="42.2599251" lon="14.0255457"><ele>244.0</ele><time>2026-05-03T11:38:58.864Z</time></trkpt><trkpt lat="42.2599953" lon="14.0255925"><ele>244.33333333333334</ele><time>2026-05-03T11:38:59.863Z</time></trkpt><trkpt lat="42.2600552" lon="14.0256561"><ele>244.66666666666669</ele><time>2026-05-03T11:39:00.862Z</time></trkpt><trkpt lat="42.2600967" lon="14.0257278"><ele>245.0</ele><time>2026-05-03T11:39:01.863Z</time></trkpt><trkpt lat="42.2601372" lon="14.0258147"><ele>248.50000000000003</ele><time>2026-05-03T11:39:02.863Z</time></trkpt><trkpt lat="42.2601852" lon="14.0258782"><ele>252.0</ele><time>2026-05-03T11:39:03.863Z</time></trkpt><trkpt lat="42.2602529" lon="14.0259251"><ele>255.5</ele><time>2026-05-03T11:39:04.862Z</time></trkpt><trkpt lat="42.2603237" lon="14.0259707"><ele>259.0</ele><time>2026-05-03T11:39:05.862Z</time></trkpt><trkpt lat="42.2604032" lon="14.0260543"><ele>262.5</ele><time>2026-05-03T11:39:07.862Z</time></trkpt><trkpt lat="42.2604513" lon="14.0261745"><ele>266.0</ele><time>2026-05-03T11:39:09.862Z</time></trkpt><trkpt lat="42.2604782" lon="14.0262594"><ele>266.0</ele><time>2026-05-03T11:39:10.862Z</time></trkpt><trkpt lat="42.2605277" lon="14.0263457"><ele>266.0</ele><time>2026-05-03T11:39:11.863Z</time></trkpt><trkpt lat="42.2605888" lon="14.0264534"><ele>266.0</ele><time>2026-05-03T11:39:12.861Z</time></trkpt><trkpt lat="42.2606686" lon="14.0265826"><ele>266.0</ele><time>2026-05-03T11:39:13.862Z</time></trkpt><trkpt lat="42.2607331" lon="14.0267041"><ele>266.0</ele><time>2026-05-03T11:39:14.863Z</time></trkpt><trkpt lat="42.2608019" lon="14.0268287"><ele>269.5</ele><time>2026-05-03T11:39:15.863Z</time></trkpt><trkpt lat="42.2608616" lon="14.0269295"><ele>273.0</ele><time>2026-05-03T11:39:16.862Z</time></trkpt><trkpt lat="42.2609133" lon="14.0270168"><ele>276.5</ele><time>2026-05-03T11:39:17.862Z</time></trkpt><trkpt lat="42.2609596" lon="14.0270838"><ele>280.0</ele><time>2026-05-03T11:39:18.862Z</time></trkpt><trkpt lat="42.2610425" lon="14.0271966"><ele>283.5</ele><time>2026-05-03T11:39:20.862Z</time></trkpt><trkpt lat="42.2611179" lon="14.0272172"><ele>287.0</ele><time>2026-05-03T11:39:22.863Z</time></trkpt><trkpt lat="42.2611495" lon="14.027122"><ele>287.0</ele><time>2026-05-03T11:39:24.862Z</time></trkpt><trkpt lat="42.2610933" lon="14.0269409"><ele>287.0</ele><time>2026-05-03T11:39:26.863Z</time></trkpt><trkpt lat="42.2610599" lon="14.0268228"><ele>287.0</ele><time>2026-05-03T11:39:27.862Z</time></trkpt><trkpt lat="42.2610314" lon="14.0266996"><ele>287.0</ele><time>2026-05-03T11:39:28.863Z</time></trkpt><trkpt lat="42.2609962" lon="14.0265558"><ele>287.0</ele><time>2026-05-03T11:39:29.862Z</time></trkpt><trkpt lat="42.2609612" lon="14.0264335"><ele>285.33333333333337</ele><time>2026-05-03T11:39:30.862Z</time></trkpt><trkpt lat="42.2609511" lon="14.0263342"><ele>283.6666666666667</ele><time>2026-05-03T11:39:31.862Z</time></trkpt><trkpt lat="42.2609033" lon="14.0262119"><ele>282.0</ele><time>2026-05-03T11:39:33.861Z</time></trkpt><trkpt lat="42.260978" lon="14.0262068"><ele>280.3333333333333</ele><time>2026-05-03T11:39:56.862Z</time></trkpt><trkpt lat="42.2610077" lon="14.0263247"><ele>278.66666666666663</ele><time>2026-05-03T11:39:58.862Z</time></trkpt><trkpt lat="42.2610281" lon="14.0264119"><ele>277.0</ele><time>2026-05-03T11:39:59.862Z</time></trkpt><trkpt lat="42.2610609" lon="14.0264996"><ele>277.0</ele><time>2026-05-03T11:40:00.862Z</time></trkpt><trkpt lat="42.2610998" lon="14.0265971"><ele>277.0</ele><time>2026-05-03T11:40:01.862Z</time></trkpt><trkpt lat="42.2611453" lon="14.0266997"><ele>277.0</ele><time>2026-05-03T11:40:02.862Z</time></trkpt><trkpt lat="42.2611931" lon="14.0268003"><ele>277.0</ele><time>2026-05-03T11:40:03.862Z</time></trkpt><trkpt lat="42.2612435" lon="14.0268984"><ele>277.0</ele><time>2026-05-03T11:40:04.862Z</time></trkpt><trkpt lat="42.261295" lon="14.0270029"><ele>277.0</ele><time>2026-05-03T11:40:05.862Z</time></trkpt><trkpt lat="42.2613421" lon="14.0271149"><ele>279.0</ele><time>2026-05-03T11:40:06.862Z</time></trkpt><trkpt lat="42.2613785" lon="14.027238"><ele>281.0</ele><time>2026-05-03T11:40:07.862Z</time></trkpt><trkpt lat="42.2614045" lon="14.0273731"><ele>283.0</ele><time>2026-05-03T11:40:08.862Z</time></trkpt><trkpt lat="42.261423" lon="14.0275123"><ele>285.0</ele><time>2026-05-03T11:40:09.863Z</time></trkpt><trkpt lat="42.2614453" lon="14.0276511"><ele>287.0</ele><time>2026-05-03T11:40:10.862Z</time></trkpt><trkpt lat="42.261491" lon="14.0277757"><ele>290.6</ele><time>2026-05-03T11:40:11.863Z</time></trkpt><trkpt lat="42.2615588" lon="14.0278781"><ele>294.2</ele><time>2026-05-03T11:40:12.862Z</time></trkpt><trkpt lat="42.261633" lon="14.0279717"><ele>297.8</ele><time>2026-05-03T11:40:13.862Z</time></trkpt><trkpt lat="42.2617047" lon="14.0280769"><ele>301.4</ele><time>2026-05-03T11:40:14.862Z</time></trkpt><trkpt lat="42.2617745" lon="14.0281924"><ele>305.0</ele><time>2026-05-03T11:40:15.862Z</time></trkpt><trkpt lat="42.261839" lon="14.0283187"><ele>305.8</ele><time>2026-05-03T11:40:16.862Z</time></trkpt><trkpt lat="42.2618954" lon="14.028448"><ele>306.6</ele><time>2026-05-03T11:40:17.862Z</time></trkpt><trkpt lat="42.2619492" lon="14.0285752"><ele>307.4</ele><time>2026-05-03T11:40:18.863Z</time></trkpt><trkpt lat="42.2619958" lon="14.0286827"><ele>308.2</ele><time>2026-05-03T11:40:19.863Z</time></trkpt><trkpt lat="42.2620338" lon="14.0287629"><ele>309.0</ele><time>2026-05-03T11:40:20.863Z</time></trkpt><trkpt lat="42.2620989" lon="14.0288323"><ele>309.0</ele><time>2026-05-03T11:40:22.863Z</time></trkpt><trkpt lat="42.2621957" lon="14.028806"><ele>309.0</ele><time>2026-05-03T11:40:24.863Z</time></trkpt><trkpt lat="42.2622493" lon="14.0287388"><ele>309.0</ele><time>2026-05-03T11:40:25.863Z</time></trkpt><trkpt lat="42.2623051" lon="14.0286534"><ele>309.0</ele><time>2026-05-03T11:40:26.862Z</time></trkpt><trkpt lat="42.2623627" lon="14.0285703"><ele>309.0</ele><time>2026-05-03T11:40:27.862Z</time></trkpt><trkpt lat="42.2624136" lon="14.0285036"><ele>309.0</ele><time>2026-05-03T11:40:28.862Z</time></trkpt><trkpt lat="42.2625227" lon="14.028443"><ele>309.0</ele><time>2026-05-03T11:40:30.862Z</time></trkpt><trkpt lat="42.2625923" lon="14.0284651"><ele>309.0</ele><time>2026-05-03T11:40:31.863Z</time></trkpt><trkpt lat="42.2626698" lon="14.0285079"><ele>309.0</ele><time>2026-05-03T11:40:32.863Z</time></trkpt><trkpt lat="42.262757" lon="14.0285577"><ele>309.0</ele><time>2026-05-03T11:40:33.862Z</time></trkpt><trkpt lat="42.262848" lon="14.0286128"><ele>309.0</ele><time>2026-05-03T11:40:34.863Z</time></trkpt><trkpt lat="42.2629374" lon="14.0286721"><ele>309.0</ele><time>2026-05-03T11:40:35.862Z</time></trkpt><trkpt lat="42.2630286" lon="14.0287378"><ele>307.75</ele><time>2026-05-03T11:40:36.863Z</time></trkpt><trkpt lat="42.2631261" lon="14.0288056"><ele>306.5</ele><time>2026-05-03T11:40:37.862Z</time></trkpt><trkpt lat="42.2632321" lon="14.0288728"><ele>305.25</ele><time>2026-05-03T11:40:38.862Z</time></trkpt><trkpt lat="42.2633412" lon="14.0289437"><ele>304.0</ele><time>2026-05-03T11:40:39.863Z</time></trkpt><trkpt lat="42.2634489" lon="14.0290174"><ele>304.0</ele><time>2026-05-03T11:40:40.862Z</time></trkpt><trkpt lat="42.2635636" lon="14.0290934"><ele>304.0</ele><time>2026-05-03T11:40:41.862Z</time></trkpt><trkpt lat="42.2636839" lon="14.0291681"><ele>304.0</ele><time>2026-05-03T11:40:42.863Z</time></trkpt><trkpt lat="42.2638066" lon="14.0292407"><ele>304.0</ele><time>2026-05-03T11:40:43.862Z</time></trkpt><trkpt lat="42.2639311" lon="14.0293028"><ele>304.5</ele><time>2026-05-03T11:40:44.862Z</time></trkpt><trkpt lat="42.2640603" lon="14.0293527"><ele>305.0</ele><time>2026-05-03T11:40:45.862Z</time></trkpt><trkpt lat="42.2641904" lon="14.0293928"><ele>305.5</ele><time>2026-05-03T11:40:46.862Z</time></trkpt><trkpt lat="42.2643183" lon="14.0294182"><ele>306.0</ele><time>2026-05-03T11:40:47.862Z</time></trkpt><trkpt lat="42.2644473" lon="14.0294227"><ele>306.0</ele><time>2026-05-03T11:40:48.863Z</time></trkpt><trkpt lat="42.2645691" lon="14.0294082"><ele>306.0</ele><time>2026-05-03T11:40:49.862Z</time></trkpt><trkpt lat="42.2646787" lon="14.0293799"><ele>306.0</ele><time>2026-05-03T11:40:50.863Z</time></trkpt><trkpt lat="42.2647757" lon="14.0293568"><ele>306.0</ele><time>2026-05-03T11:40:51.862Z</time></trkpt><trkpt lat="42.2648588" lon="14.0293326"><ele>306.0</ele><time>2026-05-03T11:40:52.863Z</time></trkpt><trkpt lat="42.2649716" lon="14.0293644"><ele>306.0</ele><time>2026-05-03T11:40:54.863Z</time></trkpt><trkpt lat="42.265049" lon="14.0294873"><ele>306.0</ele><time>2026-05-03T11:40:56.862Z</time></trkpt><trkpt lat="42.2650842" lon="14.0295688"><ele>306.0</ele><time>2026-05-03T11:40:57.862Z</time></trkpt><trkpt lat="42.2651194" lon="14.0296487"><ele>306.0</ele><time>2026-05-03T11:40:58.863Z</time></trkpt><trkpt lat="42.2651482" lon="14.0297313"><ele>306.0</ele><time>2026-05-03T11:40:59.862Z</time></trkpt><trkpt lat="42.2651634" lon="14.0298268"><ele>306.0</ele><time>2026-05-03T11:41:00.863Z</time></trkpt><trkpt lat="42.2651676" lon="14.0299319"><ele>306.3333333333333</ele><time>2026-05-03T11:41:01.862Z</time></trkpt><trkpt lat="42.2651706" lon="14.0300429"><ele>306.6666666666667</ele><time>2026-05-03T11:41:02.862Z</time></trkpt><trkpt lat="42.26517" lon="14.0301572"><ele>307.0</ele><time>2026-05-03T11:41:03.862Z</time></trkpt><trkpt lat="42.2651645" lon="14.0302662"><ele>307.33333333333337</ele><time>2026-05-03T11:41:04.862Z</time></trkpt><trkpt lat="42.2651528" lon="14.0303647"><ele>307.6666666666667</ele><time>2026-05-03T11:41:05.861Z</time></trkpt><trkpt lat="42.2651281" lon="14.0304448"><ele>308.0</ele><time>2026-05-03T11:41:06.862Z</time></trkpt><trkpt lat="42.2650648" lon="14.0305604"><ele>308.0</ele><time>2026-05-03T11:41:08.862Z</time></trkpt><trkpt lat="42.2650171" lon="14.0306526"><ele>308.0</ele><time>2026-05-03T11:41:10.862Z</time></trkpt><trkpt lat="42.2649724" lon="14.0307458"><ele>308.0</ele><time>2026-05-03T11:41:12.863Z</time></trkpt><trkpt lat="42.2649184" lon="14.0308415"><ele>308.0</ele><time>2026-05-03T11:41:14.862Z</time></trkpt><trkpt lat="42.2648693" lon="14.030909"><ele>308.0</ele><time>2026-05-03T11:41:16.862Z</time></trkpt><trkpt lat="42.264935" lon="14.0308399"><ele>308.0</ele><time>2026-05-03T11:41:22.862Z</time></trkpt><trkpt lat="42.2649841" lon="14.0307579"><ele>308.0</ele><time>2026-05-03T11:41:24.862Z</time></trkpt><trkpt lat="42.265036" lon="14.030664"><ele>308.0</ele><time>2026-05-03T11:41:26.862Z</time></trkpt><trkpt lat="42.2650921" lon="14.0305526"><ele>308.0</ele><time>2026-05-03T11:41:28.863Z</time></trkpt><trkpt lat="42.2651244" lon="14.0304468"><ele>308.0</ele><time>2026-05-03T11:41:30.862Z</time></trkpt><trkpt lat="42.2651436" lon="14.0303601"><ele>308.0</ele><time>2026-05-03T11:41:45.862Z</time></trkpt><trkpt lat="42.2652258" lon="14.0303948"><ele>308.0</ele><time>2026-05-03T11:41:50.862Z</time></trkpt><trkpt lat="42.2652996" lon="14.0304935"><ele>308.0</ele><time>2026-05-03T11:41:52.862Z</time></trkpt><trkpt lat="42.2653693" lon="14.030588"><ele>308.0</ele><time>2026-05-03T11:41:54.862Z</time></trkpt><trkpt lat="42.2654205" lon="14.0306966"><ele>308.0</ele><time>2026-05-03T11:41:56.862Z</time></trkpt><trkpt lat="42.2654583" lon="14.0308042"><ele>308.0</ele><time>2026-05-03T11:41:58.863Z</time></trkpt><trkpt lat="42.2654617" lon="14.0309135"><ele>308.0</ele><time>2026-05-03T11:42:00.862Z</time></trkpt><trkpt lat="42.2654892" lon="14.0310701"><ele>308.0</ele><time>2026-05-03T11:42:02.863Z</time></trkpt><trkpt lat="42.2655241" lon="14.0311611"><ele>308.0</ele><time>2026-05-03T11:42:03.863Z</time></trkpt><trkpt lat="42.2655605" lon="14.0312596"><ele>308.0</ele><time>2026-05-03T11:42:04.862Z</time></trkpt><trkpt lat="42.2655989" lon="14.0313648"><ele>308.0</ele><time>2026-05-03T11:42:05.862Z</time></trkpt><trkpt lat="42.2656371" lon="14.0314621"><ele>308.0</ele><time>2026-05-03T11:42:06.862Z</time></trkpt><trkpt lat="42.2656746" lon="14.0315584"><ele>308.0</ele><time>2026-05-03T11:42:07.862Z</time></trkpt><trkpt lat="42.2657075" lon="14.0316525"><ele>304.83333333333337</ele><time>2026-05-03T11:42:08.862Z</time></trkpt><trkpt lat="42.2657339" lon="14.0317506"><ele>301.6666666666667</ele><time>2026-05-03T11:42:09.862Z</time></trkpt><trkpt lat="42.2657526" lon="14.0318539"><ele>298.5</ele><time>2026-05-03T11:42:10.863Z</time></trkpt><trkpt lat="42.2657726" lon="14.0319588"><ele>295.3333333333333</ele><time>2026-05-03T11:42:11.862Z</time></trkpt><trkpt lat="42.265798" lon="14.032067"><ele>292.16666666666663</ele><time>2026-05-03T11:42:12.862Z</time></trkpt><trkpt lat="42.2658363" lon="14.0321778"><ele>289.0</ele><time>2026-05-03T11:42:13.862Z</time></trkpt><trkpt lat="42.2658806" lon="14.0322824"><ele>289.0</ele><time>2026-05-03T11:42:14.863Z</time></trkpt><trkpt lat="42.2659313" lon="14.0323767"><ele>289.0</ele><time>2026-05-03T11:42:15.862Z</time></trkpt><trkpt lat="42.2659878" lon="14.0324569"><ele>289.0</ele><time>2026-05-03T11:42:16.862Z</time></trkpt><trkpt lat="42.2660447" lon="14.032544"><ele>289.0</ele><time>2026-05-03T11:42:17.863Z</time></trkpt><trkpt lat="42.2660919" lon="14.0326268"><ele>289.0</ele><time>2026-05-03T11:42:18.862Z</time></trkpt><trkpt lat="42.2661418" lon="14.0327033"><ele>289.0</ele><time>2026-05-03T11:42:19.862Z</time></trkpt><trkpt lat="42.2661989" lon="14.0327692"><ele>287.4</ele><time>2026-05-03T11:42:20.863Z</time></trkpt><trkpt lat="42.2662556" lon="14.0328308"><ele>285.79999999999995</ele><time>2026-05-03T11:42:21.861Z</time></trkpt><trkpt lat="42.2663609" lon="14.0329109"><ele>284.20000000000005</ele><time>2026-05-03T11:42:23.86Z</time></trkpt><trkpt lat="42.2664439" lon="14.0329533"><ele>282.6</ele><time>2026-05-03T11:42:25.861Z</time></trkpt><trkpt lat="42.2665277" lon="14.032927"><ele>281.0</ele><time>2026-05-03T11:42:27.862Z</time></trkpt><trkpt lat="42.2666092" lon="14.0328509"><ele>278.2</ele><time>2026-05-03T11:42:29.861Z</time></trkpt><trkpt lat="42.2666765" lon="14.032754"><ele>275.40000000000003</ele><time>2026-05-03T11:42:31.861Z</time></trkpt><trkpt lat="42.2667346" lon="14.0326753"><ele>272.6</ele><time>2026-05-03T11:42:33.861Z</time></trkpt><trkpt lat="42.2668118" lon="14.0326842"><ele>269.8</ele><time>2026-05-03T11:42:35.861Z</time></trkpt><trkpt lat="42.2668221" lon="14.0328136"><ele>267.0</ele><time>2026-05-03T11:42:37.862Z</time></trkpt><trkpt lat="42.2668189" lon="14.0329808"><ele>267.00000000000006</ele><time>2026-05-03T11:42:39.862Z</time></trkpt><trkpt lat="42.2668161" lon="14.0330712"><ele>267.0</ele><time>2026-05-03T11:42:40.861Z</time></trkpt><trkpt lat="42.2668159" lon="14.0331696"><ele>267.0</ele><time>2026-05-03T11:42:41.861Z</time></trkpt><trkpt lat="42.2668143" lon="14.0332639"><ele>267.0</ele><time>2026-05-03T11:42:42.862Z</time></trkpt><trkpt lat="42.2668112" lon="14.0333644"><ele>267.0</ele><time>2026-05-03T11:42:43.863Z</time></trkpt><trkpt lat="42.2668092" lon="14.0334654"><ele>267.00000000000006</ele><time>2026-05-03T11:42:44.861Z</time></trkpt><trkpt lat="42.2668056" lon="14.0335686"><ele>267.0</ele><time>2026-05-03T11:42:45.861Z</time></trkpt><trkpt lat="42.2667897" lon="14.0336562"><ele>264.6</ele><time>2026-05-03T11:42:46.861Z</time></trkpt><trkpt lat="42.2667804" lon="14.0337845"><ele>262.2</ele><time>2026-05-03T11:42:48.862Z</time></trkpt><trkpt lat="42.2668199" lon="14.0338916"><ele>259.8</ele><time>2026-05-03T11:42:51.861Z</time></trkpt><trkpt lat="42.2668623" lon="14.0339902"><ele>257.4</ele><time>2026-05-03T11:42:53.862Z</time></trkpt><trkpt lat="42.2669328" lon="14.0341205"><ele>255.0</ele><time>2026-05-03T11:42:55.861Z</time></trkpt><trkpt lat="42.2670077" lon="14.0342555"><ele>253.71428571428572</ele><time>2026-05-03T11:42:57.861Z</time></trkpt><trkpt lat="42.2670492" lon="14.0343233"><ele>252.42857142857144</ele><time>2026-05-03T11:42:58.862Z</time></trkpt><trkpt lat="42.2670885" lon="14.0343929"><ele>251.14285714285717</ele><time>2026-05-03T11:42:59.862Z</time></trkpt><trkpt lat="42.2671316" lon="14.0344729"><ele>249.8571428571429</ele><time>2026-05-03T11:43:00.861Z</time></trkpt><trkpt lat="42.2671727" lon="14.0345463"><ele>248.57142857142858</ele><time>2026-05-03T11:43:01.862Z</time></trkpt><trkpt lat="42.2672159" lon="14.0346192"><ele>247.28571428571433</ele><time>2026-05-03T11:43:02.862Z</time></trkpt><trkpt lat="42.267257" lon="14.0346981"><ele>246.00000000000003</ele><time>2026-05-03T11:43:03.861Z</time></trkpt><trkpt lat="42.2672951" lon="14.0347697"><ele>246.0</ele><time>2026-05-03T11:43:04.861Z</time></trkpt><trkpt lat="42.2673472" lon="14.0349174"><ele>246.00000000000003</ele><time>2026-05-03T11:43:06.861Z</time></trkpt><trkpt lat="42.2673774" lon="14.0350413"><ele>246.00000000000003</ele><time>2026-05-03T11:43:08.861Z</time></trkpt><trkpt lat="42.2673723" lon="14.0351864"><ele>246.0</ele><time>2026-05-03T11:43:10.861Z</time></trkpt><trkpt lat="42.2673676" lon="14.0353366"><ele>246.0</ele><time>2026-05-03T11:43:12.862Z</time></trkpt><trkpt lat="42.2673704" lon="14.0354911"><ele>244.20000000000002</ele><time>2026-05-03T11:43:14.861Z</time></trkpt><trkpt lat="42.2673711" lon="14.0356545"><ele>242.40000000000003</ele><time>2026-05-03T11:43:16.861Z</time></trkpt><trkpt lat="42.267359" lon="14.0358135"><ele>240.6</ele><time>2026-05-03T11:43:18.862Z</time></trkpt><trkpt lat="42.2673162" lon="14.0359319"><ele>238.8</ele><time>2026-05-03T11:43:20.861Z</time></trkpt><trkpt lat="42.2672966" lon="14.0360349"><ele>237.0</ele><time>2026-05-03T11:43:22.862Z</time></trkpt><trkpt lat="42.26733" lon="14.0361235"><ele>234.6</ele><time>2026-05-03T11:43:24.862Z</time></trkpt><trkpt lat="42.2674045" lon="14.0362128"><ele>232.2</ele><time>2026-05-03T11:43:26.862Z</time></trkpt><trkpt lat="42.2674997" lon="14.0363069"><ele>229.8</ele><time>2026-05-03T11:43:28.861Z</time></trkpt><trkpt lat="42.2675693" lon="14.0364377"><ele>227.4</ele><time>2026-05-03T11:43:30.862Z</time></trkpt><trkpt lat="42.2676421" lon="14.0365463"><ele>225.0</ele><time>2026-05-03T11:43:32.861Z</time></trkpt><trkpt lat="42.2676814" lon="14.0366297"><ele>225.0</ele><time>2026-05-03T11:43:35.862Z</time></trkpt><trkpt lat="42.2677248" lon="14.0366979"><ele>225.0</ele><time>2026-05-03T11:43:47.861Z</time></trkpt><trkpt lat="42.2677682" lon="14.0365986"><ele>225.0</ele><time>2026-05-03T11:46:20.862Z</time></trkpt><trkpt lat="42.267858" lon="14.036498"><ele>225.0</ele><time>2026-05-03T11:46:22.861Z</time></trkpt><trkpt lat="42.2679142" lon="14.0364506"><ele>225.0</ele><time>2026-05-03T11:46:23.862Z</time></trkpt><trkpt lat="42.2680146" lon="14.0363591"><ele>225.00000000000003</ele><time>2026-05-03T11:46:25.862Z</time></trkpt><trkpt lat="42.2680781" lon="14.0363067"><ele>225.0</ele><time>2026-05-03T11:46:26.861Z</time></trkpt><trkpt lat="42.2681433" lon="14.036263"><ele>225.00000000000003</ele><time>2026-05-03T11:46:27.862Z</time></trkpt><trkpt lat="42.268216" lon="14.0362203"><ele>225.00000000000003</ele><time>2026-05-03T11:46:28.862Z</time></trkpt><trkpt lat="42.2682867" lon="14.0361897"><ele>225.0</ele><time>2026-05-03T11:46:29.862Z</time></trkpt><trkpt lat="42.2683398" lon="14.0361412"><ele>225.00000000000003</ele><time>2026-05-03T11:46:30.861Z</time></trkpt><trkpt lat="42.268398" lon="14.036096"><ele>225.00000000000003</ele><time>2026-05-03T11:46:31.86Z</time></trkpt><trkpt lat="42.2684526" lon="14.0360485"><ele>227.66666666666666</ele><time>2026-05-03T11:46:32.862Z</time></trkpt><trkpt lat="42.2685195" lon="14.0360128"><ele>230.33333333333331</ele><time>2026-05-03T11:46:33.861Z</time></trkpt><trkpt lat="42.2685884" lon="14.0359839"><ele>233.0</ele><time>2026-05-03T11:46:34.862Z</time></trkpt><trkpt lat="42.2686578" lon="14.0359392"><ele>235.66666666666666</ele><time>2026-05-03T11:46:35.862Z</time></trkpt><trkpt lat="42.2687323" lon="14.0359095"><ele>238.33333333333331</ele><time>2026-05-03T11:46:36.861Z</time></trkpt><trkpt lat="42.2687981" lon="14.0358952"><ele>241.0</ele><time>2026-05-03T11:46:37.862Z</time></trkpt><trkpt lat="42.2688883" lon="14.0358959"><ele>242.16666666666666</ele><time>2026-05-03T11:46:38.862Z</time></trkpt><trkpt lat="42.2689682" lon="14.0359"><ele>243.33333333333331</ele><time>2026-05-03T11:46:39.861Z</time></trkpt><trkpt lat="42.2690537" lon="14.0358838"><ele>244.5</ele><time>2026-05-03T11:46:40.861Z</time></trkpt><trkpt lat="42.2691388" lon="14.0358684"><ele>245.66666666666669</ele><time>2026-05-03T11:46:41.861Z</time></trkpt><trkpt lat="42.2692174" lon="14.0358743"><ele>246.83333333333334</ele><time>2026-05-03T11:46:42.861Z</time></trkpt><trkpt lat="42.269282" lon="14.0358865"><ele>248.0</ele><time>2026-05-03T11:46:43.861Z</time></trkpt><trkpt lat="42.2693519" lon="14.0358983"><ele>248.00000000000003</ele><time>2026-05-03T11:46:44.862Z</time></trkpt><trkpt lat="42.2694212" lon="14.0359139"><ele>248.0</ele><time>2026-05-03T11:46:45.861Z</time></trkpt><trkpt lat="42.2695282" lon="14.0359371"><ele>248.0</ele><time>2026-05-03T11:46:47.862Z</time></trkpt><trkpt lat="42.2695962" lon="14.035959"><ele>248.0</ele><time>2026-05-03T11:46:50.862Z</time></trkpt><trkpt lat="42.2696734" lon="14.0360112"><ele>248.00000000000003</ele><time>2026-05-03T11:47:25.861Z</time></trkpt><trkpt lat="42.2697463" lon="14.0360379"><ele>248.0</ele><time>2026-05-03T11:47:26.862Z</time></trkpt><trkpt lat="42.2698375" lon="14.0360623"><ele>250.16666666666669</ele><time>2026-05-03T11:47:27.862Z</time></trkpt><trkpt lat="42.2699328" lon="14.0360903"><ele>252.33333333333334</ele><time>2026-05-03T11:47:28.862Z</time></trkpt><trkpt lat="42.2700083" lon="14.0361212"><ele>254.5</ele><time>2026-05-03T11:47:29.861Z</time></trkpt><trkpt lat="42.2700731" lon="14.036149"><ele>256.6666666666667</ele><time>2026-05-03T11:47:30.862Z</time></trkpt><trkpt lat="42.2701696" lon="14.0361813"><ele>258.8333333333333</ele><time>2026-05-03T11:47:32.861Z</time></trkpt><trkpt lat="42.2702369" lon="14.0361734"><ele>261.0</ele><time>2026-05-03T11:47:57.86Z</time></trkpt><trkpt lat="42.2703293" lon="14.0361498"><ele>261.0</ele><time>2026-05-03T11:48:01.86Z</time></trkpt><trkpt lat="42.2704458" lon="14.0361029"><ele>261.0</ele><time>2026-05-03T11:48:03.861Z</time></trkpt><trkpt lat="42.270512" lon="14.0360778"><ele>261.0</ele><time>2026-05-03T11:48:04.861Z</time></trkpt><trkpt lat="42.2705777" lon="14.0360676"><ele>261.0</ele><time>2026-05-03T11:48:05.861Z</time></trkpt><trkpt lat="42.2707073" lon="14.0360699"><ele>261.0</ele><time>2026-05-03T11:48:07.86Z</time></trkpt><trkpt lat="42.2707767" lon="14.0360885"><ele>259.6666666666667</ele><time>2026-05-03T11:48:08.861Z</time></trkpt><trkpt lat="42.2708503" lon="14.0361102"><ele>258.3333333333333</ele><time>2026-05-03T11:48:09.861Z</time></trkpt><trkpt lat="42.2709237" lon="14.0361352"><ele>257.0</ele><time>2026-05-03T11:48:10.86Z</time></trkpt><trkpt lat="42.2709911" lon="14.0361559"><ele>255.66666666666666</ele><time>2026-05-03T11:48:11.86Z</time></trkpt><trkpt lat="42.271055" lon="14.0361726"><ele>254.33333333333331</ele><time>2026-05-03T11:48:12.86Z</time></trkpt><trkpt lat="42.2711164" lon="14.0361949"><ele>253.0</ele><time>2026-05-03T11:48:13.86Z</time></trkpt><trkpt lat="42.2712177" lon="14.036214"><ele>252.99999999999997</ele><time>2026-05-03T11:48:15.86Z</time></trkpt><trkpt lat="42.2712709" lon="14.0361649"><ele>253.0</ele><time>2026-05-03T11:48:17.861Z</time></trkpt><trkpt lat="42.2712753" lon="14.0360374"><ele>253.0</ele><time>2026-05-03T11:48:19.86Z</time></trkpt><trkpt lat="42.2713049" lon="14.035941"><ele>253.0</ele><time>2026-05-03T11:48:20.86Z</time></trkpt><trkpt lat="42.2713366" lon="14.035834"><ele>252.99999999999997</ele><time>2026-05-03T11:48:21.86Z</time></trkpt><trkpt lat="42.2713555" lon="14.0357371"><ele>253.0</ele><time>2026-05-03T11:48:22.86Z</time></trkpt><trkpt lat="42.2713624" lon="14.0356301"><ele>254.66666666666666</ele><time>2026-05-03T11:48:23.86Z</time></trkpt><trkpt lat="42.2713658" lon="14.0355187"><ele>256.3333333333333</ele><time>2026-05-03T11:48:24.86Z</time></trkpt><trkpt lat="42.2713382" lon="14.0354009"><ele>258.0</ele><time>2026-05-03T11:48:25.861Z</time></trkpt><trkpt lat="42.2713364" lon="14.035289"><ele>259.6666666666667</ele><time>2026-05-03T11:48:26.86Z</time></trkpt><trkpt lat="42.2713471" lon="14.0351716"><ele>261.33333333333337</ele><time>2026-05-03T11:48:27.861Z</time></trkpt><trkpt lat="42.2713692" lon="14.0350669"><ele>263.0</ele><time>2026-05-03T11:48:28.86Z</time></trkpt><trkpt lat="42.2713958" lon="14.0349561"><ele>261.2</ele><time>2026-05-03T11:48:29.86Z</time></trkpt><trkpt lat="42.2714324" lon="14.0348411"><ele>259.4</ele><time>2026-05-03T11:48:30.86Z</time></trkpt><trkpt lat="42.2714722" lon="14.034714"><ele>257.59999999999997</ele><time>2026-05-03T11:48:31.86Z</time></trkpt><trkpt lat="42.271509" lon="14.0345828"><ele>255.79999999999998</ele><time>2026-05-03T11:48:32.86Z</time></trkpt><trkpt lat="42.2715379" lon="14.034462"><ele>254.0</ele><time>2026-05-03T11:48:33.86Z</time></trkpt><trkpt lat="42.2715659" lon="14.0343358"><ele>254.00000000000003</ele><time>2026-05-03T11:48:34.86Z</time></trkpt><trkpt lat="42.2715902" lon="14.034214"><ele>254.0</ele><time>2026-05-03T11:48:35.861Z</time></trkpt><trkpt lat="42.2716017" lon="14.0340992"><ele>254.0</ele><time>2026-05-03T11:48:36.861Z</time></trkpt><trkpt lat="42.2716197" lon="14.0339885"><ele>254.0</ele><time>2026-05-03T11:48:37.861Z</time></trkpt><trkpt lat="42.2716441" lon="14.0338781"><ele>254.00000000000003</ele><time>2026-05-03T11:48:38.861Z</time></trkpt><trkpt lat="42.2716784" lon="14.0337725"><ele>254.0</ele><time>2026-05-03T11:48:39.862Z</time></trkpt><trkpt lat="42.2717142" lon="14.0336566"><ele>256.1666666666667</ele><time>2026-05-03T11:48:40.86Z</time></trkpt><trkpt lat="42.2717413" lon="14.0335346"><ele>258.33333333333337</ele><time>2026-05-03T11:48:41.86Z</time></trkpt><trkpt lat="42.2717603" lon="14.0334233"><ele>260.5</ele><time>2026-05-03T11:48:42.861Z</time></trkpt><trkpt lat="42.2717694" lon="14.0333275"><ele>262.6666666666667</ele><time>2026-05-03T11:48:43.86Z</time></trkpt><trkpt lat="42.2717576" lon="14.0332224"><ele>264.8333333333333</ele><time>2026-05-03T11:48:44.861Z</time></trkpt><trkpt lat="42.2717487" lon="14.0331138"><ele>267.0</ele><time>2026-05-03T11:48:45.861Z</time></trkpt><trkpt lat="42.2717439" lon="14.033012"><ele>269.1666666666667</ele><time>2026-05-03T11:48:46.86Z</time></trkpt><trkpt lat="42.2717492" lon="14.0329249"><ele>271.3333333333333</ele><time>2026-05-03T11:48:47.86Z</time></trkpt><trkpt lat="42.2718051" lon="14.0328714"><ele>273.5</ele><time>2026-05-03T11:48:48.86Z</time></trkpt><trkpt lat="42.271908" lon="14.0328282"><ele>275.66666666666663</ele><time>2026-05-03T11:48:50.86Z</time></trkpt><trkpt lat="42.271959" lon="14.0327749"><ele>277.8333333333333</ele><time>2026-05-03T11:48:52.86Z</time></trkpt><trkpt lat="42.2719756" lon="14.0326185"><ele>280.0</ele><time>2026-05-03T11:48:55.861Z</time></trkpt><trkpt lat="42.2719837" lon="14.0325047"><ele>282.0</ele><time>2026-05-03T11:48:56.86Z</time></trkpt><trkpt lat="42.2720025" lon="14.032401"><ele>284.0</ele><time>2026-05-03T11:48:57.86Z</time></trkpt><trkpt lat="42.2720155" lon="14.0322782"><ele>286.0</ele><time>2026-05-03T11:48:58.861Z</time></trkpt><trkpt lat="42.2720324" lon="14.0321348"><ele>288.0</ele><time>2026-05-03T11:48:59.86Z</time></trkpt><trkpt lat="42.2720543" lon="14.0320188"><ele>290.0</ele><time>2026-05-03T11:49:00.861Z</time></trkpt><trkpt lat="42.2720681" lon="14.0319059"><ele>290.0</ele><time>2026-05-03T11:49:01.86Z</time></trkpt><trkpt lat="42.2720699" lon="14.0318024"><ele>290.0</ele><time>2026-05-03T11:49:02.86Z</time></trkpt><trkpt lat="42.2720776" lon="14.0317081"><ele>290.0</ele><time>2026-05-03T11:49:03.86Z</time></trkpt><trkpt lat="42.2720868" lon="14.031621"><ele>290.0</ele><time>2026-05-03T11:49:04.86Z</time></trkpt><trkpt lat="42.2721007" lon="14.0315347"><ele>290.0</ele><time>2026-05-03T11:49:05.86Z</time></trkpt><trkpt lat="42.2721245" lon="14.0313985"><ele>290.0</ele><time>2026-05-03T11:49:07.86Z</time></trkpt><trkpt lat="42.2721596" lon="14.0312296"><ele>289.83333333333337</ele><time>2026-05-03T11:49:09.86Z</time></trkpt><trkpt lat="42.2721796" lon="14.0311413"><ele>289.6666666666667</ele><time>2026-05-03T11:49:10.861Z</time></trkpt><trkpt lat="42.272196" lon="14.03105"><ele>289.5</ele><time>2026-05-03T11:49:11.861Z</time></trkpt><trkpt lat="42.2722248" lon="14.0309398"><ele>289.3333333333333</ele><time>2026-05-03T11:49:13.86Z</time></trkpt><trkpt lat="42.2722931" lon="14.0309"><ele>289.16666666666663</ele><time>2026-05-03T11:49:17.86Z</time></trkpt><trkpt lat="42.2723711" lon="14.0308817"><ele>289.0</ele><time>2026-05-03T11:49:34.862Z</time></trkpt><trkpt lat="42.2724772" lon="14.0308649"><ele>289.0</ele><time>2026-05-03T11:49:36.86Z</time></trkpt><trkpt lat="42.27254" lon="14.0308485"><ele>289.0</ele><time>2026-05-03T11:49:37.861Z</time></trkpt><trkpt lat="42.2726118" lon="14.0308367"><ele>289.0</ele><time>2026-05-03T11:49:38.861Z</time></trkpt><trkpt lat="42.2726984" lon="14.0308261"><ele>289.0</ele><time>2026-05-03T11:49:39.86Z</time></trkpt><trkpt lat="42.2727926" lon="14.0308134"><ele>289.0</ele><time>2026-05-03T11:49:40.861Z</time></trkpt><trkpt lat="42.272891" lon="14.0308038"><ele>289.0</ele><time>2026-05-03T11:49:41.861Z</time></trkpt><trkpt lat="42.2729898" lon="14.0308001"><ele>287.4</ele><time>2026-05-03T11:49:42.859Z</time></trkpt><trkpt lat="42.273099" lon="14.0308"><ele>285.79999999999995</ele><time>2026-05-03T11:49:43.86Z</time></trkpt><trkpt lat="42.2732047" lon="14.0308181"><ele>284.20000000000005</ele><time>2026-05-03T11:49:44.861Z</time></trkpt><trkpt lat="42.2733136" lon="14.0308536"><ele>282.6</ele><time>2026-05-03T11:49:45.86Z</time></trkpt><trkpt lat="42.2734226" lon="14.030908"><ele>281.0</ele><time>2026-05-03T11:49:46.86Z</time></trkpt><trkpt lat="42.273531" lon="14.0309697"><ele>281.0</ele><time>2026-05-03T11:49:47.861Z</time></trkpt><trkpt lat="42.2736337" lon="14.0310392"><ele>281.0</ele><time>2026-05-03T11:49:48.861Z</time></trkpt><trkpt lat="42.2737312" lon="14.0311191"><ele>281.0</ele><time>2026-05-03T11:49:49.86Z</time></trkpt><trkpt lat="42.273826" lon="14.0312069"><ele>281.0</ele><time>2026-05-03T11:49:50.86Z</time></trkpt><trkpt lat="42.2739222" lon="14.0313051"><ele>280.25</ele><time>2026-05-03T11:49:51.86Z</time></trkpt><trkpt lat="42.2740154" lon="14.0314096"><ele>279.5</ele><time>2026-05-03T11:49:52.86Z</time></trkpt><trkpt lat="42.274109" lon="14.0315086"><ele>278.75</ele><time>2026-05-03T11:49:53.861Z</time></trkpt><trkpt lat="42.2742001" lon="14.0316005"><ele>278.0</ele><time>2026-05-03T11:49:54.86Z</time></trkpt><trkpt lat="42.2742921" lon="14.0316747"><ele>278.0</ele><time>2026-05-03T11:49:55.86Z</time></trkpt><trkpt lat="42.2743914" lon="14.0317085"><ele>278.0</ele><time>2026-05-03T11:49:56.861Z</time></trkpt><trkpt lat="42.2745014" lon="14.031707"><ele>278.0</ele><time>2026-05-03T11:49:57.861Z</time></trkpt><trkpt lat="42.2746166" lon="14.031673"><ele>278.0</ele><time>2026-05-03T11:49:58.861Z</time></trkpt><trkpt lat="42.2747403" lon="14.0316242"><ele>270.0</ele><time>2026-05-03T11:49:59.86Z</time></trkpt><trkpt lat="42.2748767" lon="14.0315723"><ele>262.0</ele><time>2026-05-03T11:50:00.861Z</time></trkpt><trkpt lat="42.2750208" lon="14.0315128"><ele>254.0</ele><time>2026-05-03T11:50:01.86Z</time></trkpt><trkpt lat="42.2751616" lon="14.0314488"><ele>246.0</ele><time>2026-05-03T11:50:02.86Z</time></trkpt><trkpt lat="42.2753" lon="14.0313738"><ele>246.0</ele><time>2026-05-03T11:50:03.86Z</time></trkpt><trkpt lat="42.2754354" lon="14.0312983"><ele>246.0</ele><time>2026-05-03T11:50:04.861Z</time></trkpt><trkpt lat="42.2755623" lon="14.031227"><ele>246.0</ele><time>2026-05-03T11:50:05.861Z</time></trkpt><trkpt lat="42.2756848" lon="14.0311602"><ele>246.0</ele><time>2026-05-03T11:50:06.86Z</time></trkpt><trkpt lat="42.2758038" lon="14.0310988"><ele>247.5</ele><time>2026-05-03T11:50:07.86Z</time></trkpt><trkpt lat="42.2759223" lon="14.0310442"><ele>249.0</ele><time>2026-05-03T11:50:08.86Z</time></trkpt><trkpt lat="42.2760383" lon="14.0310038"><ele>250.5</ele><time>2026-05-03T11:50:09.86Z</time></trkpt><trkpt lat="42.2761494" lon="14.0309894"><ele>252.0</ele><time>2026-05-03T11:50:10.861Z</time></trkpt><trkpt lat="42.2762636" lon="14.0310087"><ele>252.0</ele><time>2026-05-03T11:50:11.86Z</time></trkpt><trkpt lat="42.2763712" lon="14.03107"><ele>252.0</ele><time>2026-05-03T11:50:12.861Z</time></trkpt><trkpt lat="42.2764688" lon="14.0311657"><ele>252.0</ele><time>2026-05-03T11:50:13.86Z</time></trkpt><trkpt lat="42.2765597" lon="14.0312857"><ele>252.0</ele><time>2026-05-03T11:50:14.861Z</time></trkpt><trkpt lat="42.2766428" lon="14.0314236"><ele>252.75</ele><time>2026-05-03T11:50:15.86Z</time></trkpt><trkpt lat="42.2767259" lon="14.0315651"><ele>253.5</ele><time>2026-05-03T11:50:16.86Z</time></trkpt><trkpt lat="42.2768052" lon="14.0317112"><ele>254.25</ele><time>2026-05-03T11:50:17.861Z</time></trkpt><trkpt lat="42.2768882" lon="14.0318638"><ele>255.0</ele><time>2026-05-03T11:50:18.86Z</time></trkpt><trkpt lat="42.2769788" lon="14.0320177"><ele>255.0</ele><time>2026-05-03T11:50:19.86Z</time></trkpt><trkpt lat="42.2770736" lon="14.0321741"><ele>255.0</ele><time>2026-05-03T11:50:20.86Z</time></trkpt><trkpt lat="42.2771712" lon="14.0323319"><ele>255.0</ele><time>2026-05-03T11:50:21.861Z</time></trkpt><trkpt lat="42.2772711" lon="14.0324899"><ele>250.75</ele><time>2026-05-03T11:50:22.86Z</time></trkpt><trkpt lat="42.2773755" lon="14.0326434"><ele>246.5</ele><time>2026-05-03T11:50:23.86Z</time></trkpt><trkpt lat="42.2774777" lon="14.0327874"><ele>242.25</ele><time>2026-05-03T11:50:24.861Z</time></trkpt><trkpt lat="42.277573" lon="14.0329276"><ele>238.0</ele><time>2026-05-03T11:50:25.861Z</time></trkpt><trkpt lat="42.2776619" lon="14.0330637"><ele>238.0</ele><time>2026-05-03T11:50:26.86Z</time></trkpt><trkpt lat="42.2777444" lon="14.0331886"><ele>238.0</ele><time>2026-05-03T11:50:27.86Z</time></trkpt><trkpt lat="42.2778282" lon="14.0333189"><ele>238.0</ele><time>2026-05-03T11:50:28.86Z</time></trkpt><trkpt lat="42.2779077" lon="14.0334541"><ele>238.0</ele><time>2026-05-03T11:50:29.86Z</time></trkpt><trkpt lat="42.2779788" lon="14.0335853"><ele>239.5</ele><time>2026-05-03T11:50:30.86Z</time></trkpt><trkpt lat="42.2780515" lon="14.0337318"><ele>241.0</ele><time>2026-05-03T11:50:31.861Z</time></trkpt><trkpt lat="42.2781285" lon="14.0338911"><ele>242.5</ele><time>2026-05-03T11:50:32.86Z</time></trkpt><trkpt lat="42.2782054" lon="14.0340538"><ele>244.0</ele><time>2026-05-03T11:50:33.861Z</time></trkpt><trkpt lat="42.2782831" lon="14.0342207"><ele>240.5</ele><time>2026-05-03T11:50:34.861Z</time></trkpt><trkpt lat="42.278357" lon="14.0343849"><ele>237.0</ele><time>2026-05-03T11:50:35.861Z</time></trkpt><trkpt lat="42.2784265" lon="14.0345463"><ele>233.5</ele><time>2026-05-03T11:50:36.86Z</time></trkpt><trkpt lat="42.2784973" lon="14.0347062"><ele>230.0</ele><time>2026-05-03T11:50:37.861Z</time></trkpt><trkpt lat="42.2785801" lon="14.034856"><ele>230.66666666666669</ele><time>2026-05-03T11:50:38.86Z</time></trkpt><trkpt lat="42.2786861" lon="14.0349943"><ele>231.33333333333331</ele><time>2026-05-03T11:50:39.861Z</time></trkpt><trkpt lat="42.278806" lon="14.0351314"><ele>232.0</ele><time>2026-05-03T11:50:40.861Z</time></trkpt><trkpt lat="42.2789247" lon="14.035278"><ele>230.0</ele><time>2026-05-03T11:50:41.861Z</time></trkpt><trkpt lat="42.2790323" lon="14.0354233"><ele>228.0</ele><time>2026-05-03T11:50:42.86Z</time></trkpt><trkpt lat="42.279135" lon="14.0355675"><ele>226.0</ele><time>2026-05-03T11:50:43.86Z</time></trkpt><trkpt lat="42.2792246" lon="14.0357231"><ele>224.0</ele><time>2026-05-03T11:50:44.86Z</time></trkpt><trkpt lat="42.2793062" lon="14.0358958"><ele>224.0</ele><time>2026-05-03T11:50:45.861Z</time></trkpt><trkpt lat="42.2793837" lon="14.0360748"><ele>224.0</ele><time>2026-05-03T11:50:46.86Z</time></trkpt><trkpt lat="42.27946" lon="14.0362495"><ele>224.0</ele><time>2026-05-03T11:50:47.86Z</time></trkpt><trkpt lat="42.2795444" lon="14.0364224"><ele>224.0</ele><time>2026-05-03T11:50:48.86Z</time></trkpt><trkpt lat="42.2796268" lon="14.0365905"><ele>224.0</ele><time>2026-05-03T11:50:49.86Z</time></trkpt><trkpt lat="42.2797109" lon="14.0367611"><ele>224.0</ele><time>2026-05-03T11:50:50.86Z</time></trkpt><trkpt lat="42.2797994" lon="14.0369328"><ele>223.0</ele><time>2026-05-03T11:50:51.86Z</time></trkpt><trkpt lat="42.2798847" lon="14.0370993"><ele>222.0</ele><time>2026-05-03T11:50:52.861Z</time></trkpt><trkpt lat="42.279964" lon="14.0372711"><ele>221.0</ele><time>2026-05-03T11:50:53.861Z</time></trkpt><trkpt lat="42.2800423" lon="14.0374458"><ele>221.0</ele><time>2026-05-03T11:50:54.86Z</time></trkpt><trkpt lat="42.2801255" lon="14.0376212"><ele>221.0</ele><time>2026-05-03T11:50:55.861Z</time></trkpt><trkpt lat="42.2802147" lon="14.0377953"><ele>221.0</ele><time>2026-05-03T11:50:56.861Z</time></trkpt><trkpt lat="42.2803134" lon="14.0379667"><ele>221.0</ele><time>2026-05-03T11:50:57.861Z</time></trkpt><trkpt lat="42.2804178" lon="14.0381357"><ele>221.0</ele><time>2026-05-03T11:50:58.861Z</time></trkpt><trkpt lat="42.2805263" lon="14.0382943"><ele>221.0</ele><time>2026-05-03T11:50:59.861Z</time></trkpt><trkpt lat="42.280636" lon="14.0384424"><ele>219.0</ele><time>2026-05-03T11:51:00.86Z</time></trkpt><trkpt lat="42.2807403" lon="14.0385878"><ele>217.0</ele><time>2026-05-03T11:51:01.861Z</time></trkpt><trkpt lat="42.2808439" lon="14.0387279"><ele>215.0</ele><time>2026-05-03T11:51:02.861Z</time></trkpt><trkpt lat="42.280957" lon="14.0388669"><ele>213.0</ele><time>2026-05-03T11:51:03.86Z</time></trkpt><trkpt lat="42.2810799" lon="14.0390016"><ele>213.0</ele><time>2026-05-03T11:51:04.86Z</time></trkpt><trkpt lat="42.2812142" lon="14.0391216"><ele>213.0</ele><time>2026-05-03T11:51:05.861Z</time></trkpt><trkpt lat="42.2813592" lon="14.0392311"><ele>213.0</ele><time>2026-05-03T11:51:06.861Z</time></trkpt><trkpt lat="42.2815056" lon="14.039329"><ele>212.66666666666669</ele><time>2026-05-03T11:51:07.86Z</time></trkpt><trkpt lat="42.2816601" lon="14.0394158"><ele>212.33333333333334</ele><time>2026-05-03T11:51:08.861Z</time></trkpt><trkpt lat="42.2818158" lon="14.0394947"><ele>212.0</ele><time>2026-05-03T11:51:09.861Z</time></trkpt><trkpt lat="42.2819637" lon="14.0395723"><ele>212.0</ele><time>2026-05-03T11:51:10.86Z</time></trkpt><trkpt lat="42.2820942" lon="14.0396704"><ele>212.0</ele><time>2026-05-03T11:51:11.86Z</time></trkpt><trkpt lat="42.2822209" lon="14.0397857"><ele>212.0</ele><time>2026-05-03T11:51:12.86Z</time></trkpt><trkpt lat="42.282338" lon="14.0399206"><ele>211.0</ele><time>2026-05-03T11:51:13.86Z</time></trkpt><trkpt lat="42.2824455" lon="14.0400592"><ele>210.0</ele><time>2026-05-03T11:51:14.861Z</time></trkpt><trkpt lat="42.2825465" lon="14.0401959"><ele>209.0</ele><time>2026-05-03T11:51:15.86Z</time></trkpt><trkpt lat="42.2826446" lon="14.0403348"><ele>208.0</ele><time>2026-05-03T11:51:16.861Z</time></trkpt><trkpt lat="42.28274" lon="14.0404781"><ele>208.0</ele><time>2026-05-03T11:51:17.86Z</time></trkpt><trkpt lat="42.2828278" lon="14.0406333"><ele>208.0</ele><time>2026-05-03T11:51:18.86Z</time></trkpt><trkpt lat="42.2828932" lon="14.0408093"><ele>208.0</ele><time>2026-05-03T11:51:19.86Z</time></trkpt><trkpt lat="42.2829433" lon="14.0409812"><ele>208.0</ele><time>2026-05-03T11:51:20.862Z</time></trkpt><trkpt lat="42.2829912" lon="14.0411399"><ele>207.0</ele><time>2026-05-03T11:51:21.86Z</time></trkpt><trkpt lat="42.2830514" lon="14.0412816"><ele>206.0</ele><time>2026-05-03T11:51:22.86Z</time></trkpt><trkpt lat="42.283123" lon="14.0413943"><ele>205.0</ele><time>2026-05-03T11:51:23.861Z</time></trkpt><trkpt lat="42.2832131" lon="14.0414766"><ele>204.0</ele><time>2026-05-03T11:51:24.861Z</time></trkpt><trkpt lat="42.2833271" lon="14.0415185"><ele>204.0</ele><time>2026-05-03T11:51:25.86Z</time></trkpt><trkpt lat="42.2834571" lon="14.0415383"><ele>204.0</ele><time>2026-05-03T11:51:26.86Z</time></trkpt><trkpt lat="42.2835855" lon="14.0415525"><ele>204.0</ele><time>2026-05-03T11:51:27.861Z</time></trkpt><trkpt lat="42.2837094" lon="14.0415688"><ele>204.0</ele><time>2026-05-03T11:51:28.861Z</time></trkpt><trkpt lat="42.2838366" lon="14.0415987"><ele>201.75</ele><time>2026-05-03T11:51:29.86Z</time></trkpt><trkpt lat="42.2839707" lon="14.0416466"><ele>199.5</ele><time>2026-05-03T11:51:30.86Z</time></trkpt><trkpt lat="42.2841041" lon="14.0416941"><ele>197.25</ele><time>2026-05-03T11:51:31.861Z</time></trkpt><trkpt lat="42.2842359" lon="14.0417433"><ele>195.0</ele><time>2026-05-03T11:51:32.861Z</time></trkpt><trkpt lat="42.2843637" lon="14.0417905"><ele>195.0</ele><time>2026-05-03T11:51:33.86Z</time></trkpt><trkpt lat="42.2844875" lon="14.0418391"><ele>195.0</ele><time>2026-05-03T11:51:34.86Z</time></trkpt><trkpt lat="42.2846103" lon="14.0418895"><ele>195.0</ele><time>2026-05-03T11:51:35.86Z</time></trkpt><trkpt lat="42.2847337" lon="14.0419326"><ele>195.0</ele><time>2026-05-03T11:51:36.861Z</time></trkpt><trkpt lat="42.2848552" lon="14.0419732"><ele>192.75</ele><time>2026-05-03T11:51:37.861Z</time></trkpt><trkpt lat="42.2849808" lon="14.0420192"><ele>190.5</ele><time>2026-05-03T11:51:38.86Z</time></trkpt><trkpt lat="42.2850998" lon="14.042066"><ele>188.25</ele><time>2026-05-03T11:51:39.86Z</time></trkpt><trkpt lat="42.2852195" lon="14.0421156"><ele>186.0</ele><time>2026-05-03T11:51:40.86Z</time></trkpt><trkpt lat="42.2853508" lon="14.0421625"><ele>186.0</ele><time>2026-05-03T11:51:41.861Z</time></trkpt><trkpt lat="42.2854914" lon="14.0421988"><ele>186.0</ele><time>2026-05-03T11:51:42.861Z</time></trkpt><trkpt lat="42.2856391" lon="14.0422284"><ele>186.0</ele><time>2026-05-03T11:51:43.861Z</time></trkpt><trkpt lat="42.2857916" lon="14.0422553"><ele>186.0</ele><time>2026-05-03T11:51:44.86Z</time></trkpt><trkpt lat="42.285937" lon="14.0422822"><ele>185.25</ele><time>2026-05-03T11:51:45.86Z</time></trkpt><trkpt lat="42.2860822" lon="14.0423048"><ele>184.5</ele><time>2026-05-03T11:51:46.86Z</time></trkpt><trkpt lat="42.2862326" lon="14.0423391"><ele>183.75</ele><time>2026-05-03T11:51:47.859Z</time></trkpt><trkpt lat="42.2863749" lon="14.0423773"><ele>183.0</ele><time>2026-05-03T11:51:48.86Z</time></trkpt><trkpt lat="42.2865165" lon="14.0424164"><ele>181.75</ele><time>2026-05-03T11:51:49.86Z</time></trkpt><trkpt lat="42.2866448" lon="14.0424533"><ele>180.5</ele><time>2026-05-03T11:51:50.861Z</time></trkpt><trkpt lat="42.2867679" lon="14.0424895"><ele>179.25</ele><time>2026-05-03T11:51:51.86Z</time></trkpt><trkpt lat="42.2868879" lon="14.0425241"><ele>178.0</ele><time>2026-05-03T11:51:52.861Z</time></trkpt><trkpt lat="42.2870048" lon="14.0425594"><ele>176.0</ele><time>2026-05-03T11:51:53.861Z</time></trkpt><trkpt lat="42.2871193" lon="14.0425894"><ele>174.0</ele><time>2026-05-03T11:51:54.861Z</time></trkpt><trkpt lat="42.2872344" lon="14.0426191"><ele>172.0</ele><time>2026-05-03T11:51:55.86Z</time></trkpt><trkpt lat="42.2873505" lon="14.0426545"><ele>170.0</ele><time>2026-05-03T11:51:56.859Z</time></trkpt><trkpt lat="42.2874752" lon="14.042694"><ele>169.0</ele><time>2026-05-03T11:51:57.86Z</time></trkpt><trkpt lat="42.2876021" lon="14.0427245"><ele>168.0</ele><time>2026-05-03T11:51:58.86Z</time></trkpt><trkpt lat="42.2877264" lon="14.0427481"><ele>167.0</ele><time>2026-05-03T11:51:59.86Z</time></trkpt><trkpt lat="42.2878489" lon="14.0427675"><ele>166.0</ele><time>2026-05-03T11:52:00.861Z</time></trkpt><trkpt lat="42.2879715" lon="14.0427824"><ele>166.0</ele><time>2026-05-03T11:52:01.861Z</time></trkpt><trkpt lat="42.2880916" lon="14.0427943"><ele>166.0</ele><time>2026-05-03T11:52:02.86Z</time></trkpt><trkpt lat="42.2882175" lon="14.0428012"><ele>166.0</ele><time>2026-05-03T11:52:03.86Z</time></trkpt><trkpt lat="42.2883513" lon="14.0428063"><ele>166.0</ele><time>2026-05-03T11:52:04.86Z</time></trkpt><trkpt lat="42.288493" lon="14.0428078"><ele>164.0</ele><time>2026-05-03T11:52:05.86Z</time></trkpt><trkpt lat="42.2886317" lon="14.0428043"><ele>162.0</ele><time>2026-05-03T11:52:06.861Z</time></trkpt><trkpt lat="42.2887695" lon="14.0427969"><ele>160.0</ele><time>2026-05-03T11:52:07.86Z</time></trkpt><trkpt lat="42.2888977" lon="14.0427905"><ele>158.0</ele><time>2026-05-03T11:52:08.86Z</time></trkpt><trkpt lat="42.2890065" lon="14.0427858"><ele>156.20000000000002</ele><time>2026-05-03T11:52:09.86Z</time></trkpt><trkpt lat="42.2891023" lon="14.0427849"><ele>154.4</ele><time>2026-05-03T11:52:10.86Z</time></trkpt><trkpt lat="42.2891841" lon="14.0427885"><ele>152.60000000000002</ele><time>2026-05-03T11:52:11.86Z</time></trkpt><trkpt lat="42.2892492" lon="14.0428002"><ele>150.8</ele><time>2026-05-03T11:52:12.86Z</time></trkpt><trkpt lat="42.2893133" lon="14.0429056"><ele>149.0</ele><time>2026-05-03T11:52:14.86Z</time></trkpt><trkpt lat="42.2892266" lon="14.0430044"><ele>149.0</ele><time>2026-05-03T11:52:16.861Z</time></trkpt><trkpt lat="42.2891268" lon="14.0430132"><ele>149.0</ele><time>2026-05-03T11:52:18.861Z</time></trkpt><trkpt lat="42.289068" lon="14.043095"><ele>149.0</ele><time>2026-05-03T11:52:20.86Z</time></trkpt><trkpt lat="42.2891221" lon="14.0432103"><ele>149.0</ele><time>2026-05-03T11:52:22.861Z</time></trkpt><trkpt lat="42.2892046" lon="14.0432462"><ele>149.0</ele><time>2026-05-03T11:52:23.86Z</time></trkpt><trkpt lat="42.2892943" lon="14.0432638"><ele>149.0</ele><time>2026-05-03T11:52:24.86Z</time></trkpt><trkpt lat="42.2893937" lon="14.0432649"><ele>149.0</ele><time>2026-05-03T11:52:25.86Z</time></trkpt><trkpt lat="42.2895039" lon="14.0432495"><ele>149.0</ele><time>2026-05-03T11:52:26.86Z</time></trkpt><trkpt lat="42.2896233" lon="14.04322"><ele>149.0</ele><time>2026-05-03T11:52:27.86Z</time></trkpt><trkpt lat="42.2897446" lon="14.0431828"><ele>145.75</ele><time>2026-05-03T11:52:28.861Z</time></trkpt><trkpt lat="42.2898675" lon="14.0431421"><ele>142.5</ele><time>2026-05-03T11:52:29.86Z</time></trkpt><trkpt lat="42.2899926" lon="14.0430913"><ele>139.25</ele><time>2026-05-03T11:52:30.86Z</time></trkpt><trkpt lat="42.2901152" lon="14.0430476"><ele>136.0</ele><time>2026-05-03T11:52:31.861Z</time></trkpt><trkpt lat="42.2902322" lon="14.043021"><ele>136.0</ele><time>2026-05-03T11:52:32.861Z</time></trkpt><trkpt lat="42.2903273" lon="14.0430032"><ele>136.0</ele><time>2026-05-03T11:52:33.859Z</time></trkpt><trkpt lat="42.2904119" lon="14.04299"><ele>136.0</ele><time>2026-05-03T11:52:34.86Z</time></trkpt><trkpt lat="42.2904773" lon="14.0429928"><ele>136.0</ele><time>2026-05-03T11:52:35.86Z</time></trkpt><trkpt lat="42.2905338" lon="14.0431036"><ele>136.0</ele><time>2026-05-03T11:52:37.861Z</time></trkpt><trkpt lat="42.2904374" lon="14.0432167"><ele>136.0</ele><time>2026-05-03T11:52:39.86Z</time></trkpt><trkpt lat="42.2903638" lon="14.0432768"><ele>136.0</ele><time>2026-05-03T11:52:40.86Z</time></trkpt><trkpt lat="42.2902897" lon="14.0433452"><ele>136.0</ele><time>2026-05-03T11:52:41.862Z</time></trkpt><trkpt lat="42.2902155" lon="14.0434181"><ele>136.0</ele><time>2026-05-03T11:52:42.86Z</time></trkpt><trkpt lat="42.2901453" lon="14.0434924"><ele>136.0</ele><time>2026-05-03T11:52:43.86Z</time></trkpt><trkpt lat="42.2900761" lon="14.0435698"><ele>136.0</ele><time>2026-05-03T11:52:44.861Z</time></trkpt><trkpt lat="42.2900142" lon="14.0436419"><ele>132.83333333333334</ele><time>2026-05-03T11:52:45.861Z</time></trkpt><trkpt lat="42.2899675" lon="14.0437096"><ele>129.66666666666669</ele><time>2026-05-03T11:52:46.861Z</time></trkpt><trkpt lat="42.289979" lon="14.0438491"><ele>126.5</ele><time>2026-05-03T11:52:48.86Z</time></trkpt><trkpt lat="42.2900811" lon="14.0438992"><ele>123.33333333333334</ele><time>2026-05-03T11:52:50.862Z</time></trkpt><trkpt lat="42.2901753" lon="14.0439045"><ele>120.16666666666667</ele><time>2026-05-03T11:52:52.861Z</time></trkpt><trkpt lat="42.2901537" lon="14.0439942"><ele>117.0</ele><time>2026-05-03T11:52:55.86Z</time></trkpt><trkpt lat="42.2900079" lon="14.0440363"><ele>117.0</ele><time>2026-05-03T11:52:57.86Z</time></trkpt><trkpt lat="42.2899018" lon="14.0440787"><ele>117.0</ele><time>2026-05-03T11:52:58.86Z</time></trkpt><trkpt lat="42.2897847" lon="14.0441298"><ele>117.0</ele><time>2026-05-03T11:52:59.861Z</time></trkpt><trkpt lat="42.2896595" lon="14.0441873"><ele>117.0</ele><time>2026-05-03T11:53:00.86Z</time></trkpt><trkpt lat="42.2895334" lon="14.0442451"><ele>114.25</ele><time>2026-05-03T11:53:01.859Z</time></trkpt><trkpt lat="42.2894093" lon="14.0443003"><ele>111.5</ele><time>2026-05-03T11:53:02.859Z</time></trkpt><trkpt lat="42.2892934" lon="14.0443498"><ele>108.75</ele><time>2026-05-03T11:53:03.859Z</time></trkpt><trkpt lat="42.289181" lon="14.0444059"><ele>106.0</ele><time>2026-05-03T11:53:04.86Z</time></trkpt><trkpt lat="42.2890715" lon="14.0444647"><ele>106.0</ele><time>2026-05-03T11:53:05.86Z</time></trkpt><trkpt lat="42.2889704" lon="14.0445391"><ele>106.0</ele><time>2026-05-03T11:53:06.86Z</time></trkpt><trkpt lat="42.2888758" lon="14.0446469"><ele>106.0</ele><time>2026-05-03T11:53:07.859Z</time></trkpt><trkpt lat="42.2887949" lon="14.0447679"><ele>106.0</ele><time>2026-05-03T11:53:08.86Z</time></trkpt><trkpt lat="42.2887269" lon="14.0448938"><ele>105.5</ele><time>2026-05-03T11:53:09.859Z</time></trkpt><trkpt lat="42.2886643" lon="14.0450169"><ele>105.0</ele><time>2026-05-03T11:53:10.859Z</time></trkpt><trkpt lat="42.2885945" lon="14.0451412"><ele>104.5</ele><time>2026-05-03T11:53:11.86Z</time></trkpt><trkpt lat="42.2885082" lon="14.0452422"><ele>104.0</ele><time>2026-05-03T11:53:12.86Z</time></trkpt><trkpt lat="42.2884048" lon="14.0453107"><ele>104.0</ele><time>2026-05-03T11:53:13.859Z</time></trkpt><trkpt lat="42.2882832" lon="14.0453486"><ele>104.0</ele><time>2026-05-03T11:53:14.86Z</time></trkpt><trkpt lat="42.2881502" lon="14.0453658"><ele>104.0</ele><time>2026-05-03T11:53:15.86Z</time></trkpt><trkpt lat="42.2880119" lon="14.0453863"><ele>104.0</ele><time>2026-05-03T11:53:16.859Z</time></trkpt><trkpt lat="42.2878723" lon="14.045425"><ele>107.25</ele><time>2026-05-03T11:53:17.859Z</time></trkpt><trkpt lat="42.2877386" lon="14.0454756"><ele>110.5</ele><time>2026-05-03T11:53:18.859Z</time></trkpt><trkpt lat="42.2876083" lon="14.0455451"><ele>113.75</ele><time>2026-05-03T11:53:19.86Z</time></trkpt><trkpt lat="42.2874819" lon="14.0456206"><ele>117.0</ele><time>2026-05-03T11:53:20.86Z</time></trkpt><trkpt lat="42.2873603" lon="14.045686"><ele>119.25</ele><time>2026-05-03T11:53:21.859Z</time></trkpt><trkpt lat="42.2872331" lon="14.0457458"><ele>121.5</ele><time>2026-05-03T11:53:22.859Z</time></trkpt><trkpt lat="42.2871086" lon="14.0457916"><ele>123.75</ele><time>2026-05-03T11:53:23.859Z</time></trkpt><trkpt lat="42.2869919" lon="14.0458218"><ele>126.0</ele><time>2026-05-03T11:53:24.859Z</time></trkpt><trkpt lat="42.2868915" lon="14.0458449"><ele>122.16666666666667</ele><time>2026-05-03T11:53:25.859Z</time></trkpt><trkpt lat="42.2868128" lon="14.0458645"><ele>118.33333333333334</ele><time>2026-05-03T11:53:26.859Z</time></trkpt><trkpt lat="42.2867534" lon="14.0458943"><ele>114.5</ele><time>2026-05-03T11:53:27.859Z</time></trkpt><trkpt lat="42.2866986" lon="14.0459989"><ele>110.66666666666667</ele><time>2026-05-03T11:53:29.859Z</time></trkpt><trkpt lat="42.2867162" lon="14.0461416"><ele>106.83333333333334</ele><time>2026-05-03T11:53:31.86Z</time></trkpt><trkpt lat="42.2867479" lon="14.0462601"><ele>103.0</ele><time>2026-05-03T11:53:33.859Z</time></trkpt><trkpt lat="42.2867641" lon="14.04636"><ele>103.0</ele><time>2026-05-03T11:53:35.86Z</time></trkpt><trkpt lat="42.2867303" lon="14.0464399"><ele>103.0</ele><time>2026-05-03T11:53:37.86Z</time></trkpt><trkpt lat="42.2866617" lon="14.0464893"><ele>103.0</ele><time>2026-05-03T11:53:38.86Z</time></trkpt><trkpt lat="42.286576" lon="14.0465356"><ele>103.0</ele><time>2026-05-03T11:53:39.859Z</time></trkpt><trkpt lat="42.2864751" lon="14.0465895"><ele>103.0</ele><time>2026-05-03T11:53:40.859Z</time></trkpt><trkpt lat="42.2863661" lon="14.0466513"><ele>101.0</ele><time>2026-05-03T11:53:41.859Z</time></trkpt><trkpt lat="42.2862533" lon="14.0467173"><ele>99.0</ele><time>2026-05-03T11:53:42.861Z</time></trkpt><trkpt lat="42.2861355" lon="14.0467876"><ele>97.0</ele><time>2026-05-03T11:53:43.859Z</time></trkpt><trkpt lat="42.286014" lon="14.0468566"><ele>95.0</ele><time>2026-05-03T11:53:44.859Z</time></trkpt><trkpt lat="42.2858941" lon="14.0469283"><ele>95.0</ele><time>2026-05-03T11:53:45.86Z</time></trkpt><trkpt lat="42.2857781" lon="14.0469982"><ele>95.0</ele><time>2026-05-03T11:53:46.86Z</time></trkpt><trkpt lat="42.285664" lon="14.0470693"><ele>95.0</ele><time>2026-05-03T11:53:47.859Z</time></trkpt><trkpt lat="42.2855583" lon="14.0471335"><ele>95.0</ele><time>2026-05-03T11:53:48.859Z</time></trkpt><trkpt lat="42.2854594" lon="14.0471942"><ele>95.0</ele><time>2026-05-03T11:53:49.86Z</time></trkpt><trkpt lat="42.2853615" lon="14.047253"><ele>95.0</ele><time>2026-05-03T11:53:50.859Z</time></trkpt><trkpt lat="42.2852654" lon="14.0473067"><ele>95.0</ele><time>2026-05-03T11:53:51.859Z</time></trkpt><trkpt lat="42.2851694" lon="14.0473601"><ele>95.0</ele><time>2026-05-03T11:53:52.859Z</time></trkpt><trkpt lat="42.2850734" lon="14.0474151"><ele>95.0</ele><time>2026-05-03T11:53:53.86Z</time></trkpt><trkpt lat="42.2849843" lon="14.0474623"><ele>95.66666666666667</ele><time>2026-05-03T11:53:54.86Z</time></trkpt><trkpt lat="42.2849073" lon="14.0475009"><ele>96.33333333333334</ele><time>2026-05-03T11:53:55.859Z</time></trkpt><trkpt lat="42.2848403" lon="14.0475315"><ele>97.0</ele><time>2026-05-03T11:53:56.859Z</time></trkpt><trkpt lat="42.2847355" lon="14.0475765"><ele>97.66666666666667</ele><time>2026-05-03T11:53:58.859Z</time></trkpt><trkpt lat="42.2846847" lon="14.0476411"><ele>98.33333333333333</ele><time>2026-05-03T11:54:00.859Z</time></trkpt><trkpt lat="42.2847802" lon="14.0477025"><ele>99.0</ele><time>2026-05-03T11:54:03.86Z</time></trkpt><trkpt lat="42.284869" lon="14.0476816"><ele>99.33333333333333</ele><time>2026-05-03T11:54:04.859Z</time></trkpt><trkpt lat="42.2849469" lon="14.0476604"><ele>99.66666666666666</ele><time>2026-05-03T11:54:05.86Z</time></trkpt><trkpt lat="42.285026" lon="14.0476545"><ele>100.0</ele><time>2026-05-03T11:54:06.859Z</time></trkpt><trkpt lat="42.2851043" lon="14.0476704"><ele>100.33333333333333</ele><time>2026-05-03T11:54:07.86Z</time></trkpt><trkpt lat="42.2851709" lon="14.0477115"><ele>100.66666666666666</ele><time>2026-05-03T11:54:08.86Z</time></trkpt><trkpt lat="42.2852254" lon="14.0477725"><ele>101.0</ele><time>2026-05-03T11:54:09.86Z</time></trkpt><trkpt lat="42.2852836" lon="14.04783"><ele>100.99999999999999</ele><time>2026-05-03T11:54:10.86Z</time></trkpt><trkpt lat="42.2853587" lon="14.0478573"><ele>101.0</ele><time>2026-05-03T11:54:11.86Z</time></trkpt><trkpt lat="42.2854348" lon="14.0478521"><ele>101.0</ele><time>2026-05-03T11:54:12.86Z</time></trkpt><trkpt lat="42.2855146" lon="14.0478179"><ele>101.0</ele><time>2026-05-03T11:54:13.859Z</time></trkpt><trkpt lat="42.2855969" lon="14.047762"><ele>100.99999999999999</ele><time>2026-05-03T11:54:14.859Z</time></trkpt><trkpt lat="42.2856813" lon="14.0477011"><ele>101.0</ele><time>2026-05-03T11:54:15.86Z</time></trkpt><trkpt lat="42.2857683" lon="14.0476399"><ele>101.8</ele><time>2026-05-03T11:54:16.86Z</time></trkpt><trkpt lat="42.2858559" lon="14.0475891"><ele>102.6</ele><time>2026-05-03T11:54:17.86Z</time></trkpt><trkpt lat="42.2859506" lon="14.0475503"><ele>103.4</ele><time>2026-05-03T11:54:18.859Z</time></trkpt><trkpt lat="42.2860527" lon="14.0475263"><ele>104.2</ele><time>2026-05-03T11:54:19.86Z</time></trkpt><trkpt lat="42.2861548" lon="14.0475165"><ele>105.0</ele><time>2026-05-03T11:54:20.86Z</time></trkpt><trkpt lat="42.2862525" lon="14.0475218"><ele>105.0</ele><time>2026-05-03T11:54:21.86Z</time></trkpt><trkpt lat="42.2863555" lon="14.0475474"><ele>105.0</ele><time>2026-05-03T11:54:22.86Z</time></trkpt><trkpt lat="42.2864591" lon="14.0475917"><ele>105.0</ele><time>2026-05-03T11:54:23.859Z</time></trkpt><trkpt lat="42.2865574" lon="14.0476528"><ele>105.0</ele><time>2026-05-03T11:54:24.86Z</time></trkpt><trkpt lat="42.2866581" lon="14.0477255"><ele>105.0</ele><time>2026-05-03T11:54:25.859Z</time></trkpt><trkpt lat="42.2867581" lon="14.0478042"><ele>106.25</ele><time>2026-05-03T11:54:26.86Z</time></trkpt><trkpt lat="42.2868688" lon="14.0478672"><ele>107.5</ele><time>2026-05-03T11:54:27.859Z</time></trkpt><trkpt lat="42.2869843" lon="14.0479123"><ele>108.75</ele><time>2026-05-03T11:54:28.859Z</time></trkpt><trkpt lat="42.2871087" lon="14.0479445"><ele>110.0</ele><time>2026-05-03T11:54:29.859Z</time></trkpt><trkpt lat="42.2872381" lon="14.0479675"><ele>109.25</ele><time>2026-05-03T11:54:30.86Z</time></trkpt><trkpt lat="42.287372" lon="14.0479858"><ele>108.5</ele><time>2026-05-03T11:54:31.859Z</time></trkpt><trkpt lat="42.2875106" lon="14.0479887"><ele>107.75</ele><time>2026-05-03T11:54:32.859Z</time></trkpt><trkpt lat="42.2876533" lon="14.0479674"><ele>107.0</ele><time>2026-05-03T11:54:33.859Z</time></trkpt><trkpt lat="42.2877934" lon="14.0479408"><ele>107.0</ele><time>2026-05-03T11:54:34.859Z</time></trkpt><trkpt lat="42.2879283" lon="14.0479144"><ele>107.0</ele><time>2026-05-03T11:54:35.86Z</time></trkpt><trkpt lat="42.2880576" lon="14.0478921"><ele>107.0</ele><time>2026-05-03T11:54:36.86Z</time></trkpt><trkpt lat="42.2881893" lon="14.0478813"><ele>107.0</ele><time>2026-05-03T11:54:37.859Z</time></trkpt><trkpt lat="42.2883223" lon="14.0478891"><ele>108.75</ele><time>2026-05-03T11:54:38.86Z</time></trkpt><trkpt lat="42.2884587" lon="14.047908"><ele>110.5</ele><time>2026-05-03T11:54:39.859Z</time></trkpt><trkpt lat="42.2885993" lon="14.0479207"><ele>112.25</ele><time>2026-05-03T11:54:40.859Z</time></trkpt><trkpt lat="42.2887446" lon="14.0479343"><ele>114.0</ele><time>2026-05-03T11:54:41.86Z</time></trkpt><trkpt lat="42.2888908" lon="14.0479536"><ele>115.25</ele><time>2026-05-03T11:54:42.859Z</time></trkpt><trkpt lat="42.2890341" lon="14.0479732"><ele>116.5</ele><time>2026-05-03T11:54:43.86Z</time></trkpt><trkpt lat="42.2891767" lon="14.0479931"><ele>117.75</ele><time>2026-05-03T11:54:44.859Z</time></trkpt><trkpt lat="42.2893069" lon="14.0480147"><ele>119.0</ele><time>2026-05-03T11:54:45.86Z</time></trkpt><trkpt lat="42.2894366" lon="14.0480435"><ele>119.0</ele><time>2026-05-03T11:54:46.86Z</time></trkpt><trkpt lat="42.2895639" lon="14.0480788"><ele>119.0</ele><time>2026-05-03T11:54:47.859Z</time></trkpt><trkpt lat="42.2896898" lon="14.0481063"><ele>119.0</ele><time>2026-05-03T11:54:48.859Z</time></trkpt><trkpt lat="42.289808" lon="14.0481185"><ele>119.0</ele><time>2026-05-03T11:54:49.859Z</time></trkpt><trkpt lat="42.2899143" lon="14.0481265"><ele>119.49999999999999</ele><time>2026-05-03T11:54:50.859Z</time></trkpt><trkpt lat="42.2900081" lon="14.048132"><ele>120.0</ele><time>2026-05-03T11:54:51.859Z</time></trkpt><trkpt lat="42.2900943" lon="14.048139"><ele>120.5</ele><time>2026-05-03T11:54:52.86Z</time></trkpt><trkpt lat="42.2901687" lon="14.0481641"><ele>121.0</ele><time>2026-05-03T11:54:53.859Z</time></trkpt><trkpt lat="42.2902289" lon="14.048212"><ele>121.49999999999999</ele><time>2026-05-03T11:54:54.859Z</time></trkpt><trkpt lat="42.2902703" lon="14.0482889"><ele>122.0</ele><time>2026-05-03T11:54:55.859Z</time></trkpt><trkpt lat="42.290311" lon="14.048398"><ele>129.0</ele><time>2026-05-03T11:54:56.859Z</time></trkpt><trkpt lat="42.2903548" lon="14.0485262"><ele>136.0</ele><time>2026-05-03T11:54:57.858Z</time></trkpt><trkpt lat="42.2904125" lon="14.0486582"><ele>143.0</ele><time>2026-05-03T11:54:58.859Z</time></trkpt><trkpt lat="42.2904743" lon="14.0487894"><ele>150.0</ele><time>2026-05-03T11:54:59.859Z</time></trkpt><trkpt lat="42.2905466" lon="14.0489281"><ele>150.25</ele><time>2026-05-03T11:55:00.859Z</time></trkpt><trkpt lat="42.2906239" lon="14.0490635"><ele>150.5</ele><time>2026-05-03T11:55:01.859Z</time></trkpt><trkpt lat="42.2907076" lon="14.049199"><ele>150.75</ele><time>2026-05-03T11:55:02.859Z</time></trkpt><trkpt lat="42.2907954" lon="14.0493411"><ele>151.0</ele><time>2026-05-03T11:55:03.859Z</time></trkpt><trkpt lat="42.2908851" lon="14.0494849"><ele>151.0</ele><time>2026-05-03T11:55:04.859Z</time></trkpt><trkpt lat="42.2909663" lon="14.0496186"><ele>151.0</ele><time>2026-05-03T11:55:05.86Z</time></trkpt><trkpt lat="42.2910461" lon="14.0497508"><ele>151.0</ele><time>2026-05-03T11:55:06.859Z</time></trkpt><trkpt lat="42.2911297" lon="14.0498777"><ele>151.0</ele><time>2026-05-03T11:55:07.86Z</time></trkpt><trkpt lat="42.2912117" lon="14.0499816"><ele>152.4</ele><time>2026-05-03T11:55:08.859Z</time></trkpt><trkpt lat="42.2912898" lon="14.0500693"><ele>153.8</ele><time>2026-05-03T11:55:09.859Z</time></trkpt><trkpt lat="42.2913725" lon="14.0501543"><ele>155.20000000000002</ele><time>2026-05-03T11:55:10.86Z</time></trkpt><trkpt lat="42.291458" lon="14.0502354"><ele>156.6</ele><time>2026-05-03T11:55:11.859Z</time></trkpt><trkpt lat="42.2915483" lon="14.0503009"><ele>158.0</ele><time>2026-05-03T11:55:12.859Z</time></trkpt><trkpt lat="42.2916452" lon="14.0503435"><ele>158.0</ele><time>2026-05-03T11:55:13.859Z</time></trkpt><trkpt lat="42.2917422" lon="14.0503696"><ele>158.0</ele><time>2026-05-03T11:55:14.859Z</time></trkpt><trkpt lat="42.2918251" lon="14.0503939"><ele>158.0</ele><time>2026-05-03T11:55:15.859Z</time></trkpt><trkpt lat="42.2918918" lon="14.0504513"><ele>158.0</ele><time>2026-05-03T11:55:16.859Z</time></trkpt><trkpt lat="42.2919337" lon="14.0505405"><ele>158.0</ele><time>2026-05-03T11:55:17.86Z</time></trkpt><trkpt lat="42.2919591" lon="14.0506508"><ele>158.0</ele><time>2026-05-03T11:55:18.858Z</time></trkpt><trkpt lat="42.2919853" lon="14.0507727"><ele>160.4</ele><time>2026-05-03T11:55:19.86Z</time></trkpt><trkpt lat="42.2920106" lon="14.050898"><ele>162.8</ele><time>2026-05-03T11:55:20.86Z</time></trkpt><trkpt lat="42.2920407" lon="14.0510339"><ele>165.2</ele><time>2026-05-03T11:55:21.86Z</time></trkpt><trkpt lat="42.2920773" lon="14.0511812"><ele>167.6</ele><time>2026-05-03T11:55:22.859Z</time></trkpt><trkpt lat="42.2921197" lon="14.0513348"><ele>170.0</ele><time>2026-05-03T11:55:23.86Z</time></trkpt><trkpt lat="42.2921609" lon="14.051478"><ele>170.0</ele><time>2026-05-03T11:55:24.86Z</time></trkpt><trkpt lat="42.2922079" lon="14.0516201"><ele>170.0</ele><time>2026-05-03T11:55:25.859Z</time></trkpt><trkpt lat="42.2922566" lon="14.0517639"><ele>170.0</ele><time>2026-05-03T11:55:26.859Z</time></trkpt><trkpt lat="42.2922998" lon="14.0519023"><ele>170.0</ele><time>2026-05-03T11:55:27.859Z</time></trkpt><trkpt lat="42.2923382" lon="14.052023"><ele>170.0</ele><time>2026-05-03T11:55:28.859Z</time></trkpt><trkpt lat="42.2923686" lon="14.0521307"><ele>170.5</ele><time>2026-05-03T11:55:29.86Z</time></trkpt><trkpt lat="42.2923856" lon="14.0522278"><ele>171.0</ele><time>2026-05-03T11:55:30.86Z</time></trkpt><trkpt lat="42.2923907" lon="14.0523659"><ele>171.5</ele><time>2026-05-03T11:55:32.859Z</time></trkpt><trkpt lat="42.2924065" lon="14.0524529"><ele>172.0</ele><time>2026-05-03T11:55:35.859Z</time></trkpt><trkpt lat="42.2924749" lon="14.0524917"><ele>172.5</ele><time>2026-05-03T11:55:38.86Z</time></trkpt><trkpt lat="42.2925935" lon="14.0524619"><ele>173.0</ele><time>2026-05-03T11:55:40.859Z</time></trkpt><trkpt lat="42.2926601" lon="14.052453"><ele>173.16666666666666</ele><time>2026-05-03T11:55:41.859Z</time></trkpt><trkpt lat="42.2927228" lon="14.0524631"><ele>173.33333333333331</ele><time>2026-05-03T11:55:42.859Z</time></trkpt><trkpt lat="42.2927876" lon="14.0524876"><ele>173.5</ele><time>2026-05-03T11:55:43.86Z</time></trkpt><trkpt lat="42.2928557" lon="14.0525236"><ele>173.66666666666666</ele><time>2026-05-03T11:55:44.859Z</time></trkpt><trkpt lat="42.2929421" lon="14.0525788"><ele>173.83333333333334</ele><time>2026-05-03T11:55:45.859Z</time></trkpt><trkpt lat="42.2930443" lon="14.0526382"><ele>174.0</ele><time>2026-05-03T11:55:46.859Z</time></trkpt><trkpt lat="42.2931346" lon="14.0526926"><ele>173.6</ele><time>2026-05-03T11:55:47.859Z</time></trkpt><trkpt lat="42.293216" lon="14.0527488"><ele>173.2</ele><time>2026-05-03T11:55:48.859Z</time></trkpt><trkpt lat="42.2932833" lon="14.05282"><ele>172.79999999999998</ele><time>2026-05-03T11:55:49.859Z</time></trkpt><trkpt lat="42.2933461" lon="14.0529111"><ele>172.39999999999998</ele><time>2026-05-03T11:55:50.859Z</time></trkpt><trkpt lat="42.2934106" lon="14.0530208"><ele>172.0</ele><time>2026-05-03T11:55:51.86Z</time></trkpt><trkpt lat="42.2934783" lon="14.0531285"><ele>172.0</ele><time>2026-05-03T11:55:52.859Z</time></trkpt><trkpt lat="42.2935439" lon="14.0532407"><ele>172.0</ele><time>2026-05-03T11:55:53.859Z</time></trkpt><trkpt lat="42.293613" lon="14.0533513"><ele>172.0</ele><time>2026-05-03T11:55:54.86Z</time></trkpt><trkpt lat="42.2936829" lon="14.053465"><ele>172.0</ele><time>2026-05-03T11:55:55.86Z</time></trkpt><trkpt lat="42.2937491" lon="14.0535801"><ele>172.0</ele><time>2026-05-03T11:55:56.86Z</time></trkpt><trkpt lat="42.2938092" lon="14.0536793"><ele>172.0</ele><time>2026-05-03T11:55:57.86Z</time></trkpt><trkpt lat="42.293862" lon="14.0537703"><ele>172.0</ele><time>2026-05-03T11:55:58.86Z</time></trkpt><trkpt lat="42.2939069" lon="14.053851"><ele>172.0</ele><time>2026-05-03T11:55:59.86Z</time></trkpt><trkpt lat="42.2939746" lon="14.0539659"><ele>172.0</ele><time>2026-05-03T11:56:01.859Z</time></trkpt><trkpt lat="42.2940256" lon="14.0540648"><ele>172.0</ele><time>2026-05-03T11:56:03.859Z</time></trkpt><trkpt lat="42.2940663" lon="14.0542268"><ele>172.83333333333334</ele><time>2026-05-03T11:56:05.86Z</time></trkpt><trkpt lat="42.2940875" lon="14.0543234"><ele>173.66666666666669</ele><time>2026-05-03T11:56:06.859Z</time></trkpt><trkpt lat="42.2941009" lon="14.0544187"><ele>174.5</ele><time>2026-05-03T11:56:07.859Z</time></trkpt><trkpt lat="42.2941083" lon="14.0545097"><ele>175.33333333333334</ele><time>2026-05-03T11:56:08.859Z</time></trkpt><trkpt lat="42.2941229" lon="14.054651"><ele>176.16666666666666</ele><time>2026-05-03T11:56:10.859Z</time></trkpt><trkpt lat="42.2941334" lon="14.0547679"><ele>177.0</ele><time>2026-05-03T11:56:12.86Z</time></trkpt><trkpt lat="42.294142" lon="14.0548589"><ele>177.0</ele><time>2026-05-03T11:56:14.859Z</time></trkpt><trkpt lat="42.2942086" lon="14.0549098"><ele>177.0</ele><time>2026-05-03T11:56:26.859Z</time></trkpt><trkpt lat="42.2942897" lon="14.0549007"><ele>177.0</ele><time>2026-05-03T11:56:29.859Z</time></trkpt><trkpt lat="42.2943528" lon="14.0548988"><ele>177.0</ele><time>2026-05-03T11:56:31.859Z</time></trkpt><trkpt lat="42.2944114" lon="14.0548609"><ele>177.0</ele><time>2026-05-03T11:56:33.859Z</time></trkpt><trkpt lat="42.2944559" lon="14.0547967"><ele>177.0</ele><time>2026-05-03T11:56:35.86Z</time></trkpt><trkpt lat="42.294528" lon="14.0547793"><ele>177.0</ele><time>2026-05-03T11:56:38.86Z</time></trkpt><trkpt lat="42.2945934" lon="14.0548283"><ele>177.0</ele><time>2026-05-03T11:56:41.86Z</time></trkpt><trkpt lat="42.2946573" lon="14.0548181"><ele>177.0</ele><time>2026-05-03T11:56:44.859Z</time></trkpt><trkpt lat="42.2947209" lon="14.0547919"><ele>177.0</ele><time>2026-05-03T11:57:05.859Z</time></trkpt><trkpt lat="42.2947967" lon="14.0548517"><ele>177.0</ele><time>2026-05-03T11:57:07.859Z</time></trkpt><trkpt lat="42.2948521" lon="14.054911"><ele>177.0</ele><time>2026-05-03T11:57:08.859Z</time></trkpt><trkpt lat="42.294916" lon="14.0549787"><ele>177.0</ele><time>2026-05-03T11:57:09.859Z</time></trkpt><trkpt lat="42.2949849" lon="14.0550488"><ele>176.39999999999998</ele><time>2026-05-03T11:57:10.859Z</time></trkpt><trkpt lat="42.2950639" lon="14.0551026"><ele>175.79999999999998</ele><time>2026-05-03T11:57:11.859Z</time></trkpt><trkpt lat="42.2951514" lon="14.0551349"><ele>175.2</ele><time>2026-05-03T11:57:12.859Z</time></trkpt><trkpt lat="42.2952646" lon="14.0551429"><ele>174.6</ele><time>2026-05-03T11:57:13.859Z</time></trkpt><trkpt lat="42.2953933" lon="14.0551449"><ele>174.0</ele><time>2026-05-03T11:57:14.859Z</time></trkpt><trkpt lat="42.2955092" lon="14.055152"><ele>172.6</ele><time>2026-05-03T11:57:15.86Z</time></trkpt><trkpt lat="42.2956091" lon="14.0551642"><ele>171.2</ele><time>2026-05-03T11:57:16.859Z</time></trkpt><trkpt lat="42.2957172" lon="14.0551777"><ele>169.79999999999998</ele><time>2026-05-03T11:57:17.86Z</time></trkpt><trkpt lat="42.2958303" lon="14.0551866"><ele>168.39999999999998</ele><time>2026-05-03T11:57:18.86Z</time></trkpt><trkpt lat="42.2959369" lon="14.0551956"><ele>167.0</ele><time>2026-05-03T11:57:19.859Z</time></trkpt><trkpt lat="42.2960559" lon="14.0551808"><ele>167.0</ele><time>2026-05-03T11:57:20.859Z</time></trkpt><trkpt lat="42.2961734" lon="14.0551555"><ele>167.0</ele><time>2026-05-03T11:57:21.86Z</time></trkpt><trkpt lat="42.2962946" lon="14.0551188"><ele>167.0</ele><time>2026-05-03T11:57:22.859Z</time></trkpt><trkpt lat="42.2964183" lon="14.0550648"><ele>167.0</ele><time>2026-05-03T11:57:23.859Z</time></trkpt><trkpt lat="42.2965489" lon="14.0549719"><ele>164.5</ele><time>2026-05-03T11:57:24.859Z</time></trkpt><trkpt lat="42.2966711" lon="14.0548923"><ele>162.0</ele><time>2026-05-03T11:57:25.86Z</time></trkpt><trkpt lat="42.2967956" lon="14.0548165"><ele>159.5</ele><time>2026-05-03T11:57:26.859Z</time></trkpt><trkpt lat="42.2969041" lon="14.0547496"><ele>157.0</ele><time>2026-05-03T11:57:27.859Z</time></trkpt><trkpt lat="42.2970001" lon="14.0546884"><ele>156.99999999999997</ele><time>2026-05-03T11:57:28.859Z</time></trkpt><trkpt lat="42.2970818" lon="14.0546319"><ele>157.0</ele><time>2026-05-03T11:57:29.86Z</time></trkpt><trkpt lat="42.2971401" lon="14.0545954"><ele>157.0</ele><time>2026-05-03T11:57:30.86Z</time></trkpt><trkpt lat="42.2971955" lon="14.0545481"><ele>157.0</ele><time>2026-05-03T11:57:44.859Z</time></trkpt><trkpt lat="42.2971327" lon="14.0545387"><ele>157.0</ele><time>2026-05-03T11:57:49.859Z</time></trkpt><trkpt lat="42.297088" lon="14.0546139"><ele>156.99999999999997</ele><time>2026-05-03T11:57:52.859Z</time></trkpt><trkpt lat="42.2970304" lon="14.054666"><ele>157.0</ele><time>2026-05-03T11:57:56.859Z</time></trkpt><trkpt lat="42.2969714" lon="14.0547058"><ele>157.0</ele><time>2026-05-03T11:58:01.859Z</time></trkpt><trkpt lat="42.2968717" lon="14.0547674"><ele>157.0</ele><time>2026-05-03T11:58:17.858Z</time></trkpt><trkpt lat="42.2968115" lon="14.0548059"><ele>157.0</ele><time>2026-05-03T11:58:18.859Z</time></trkpt><trkpt lat="42.2967438" lon="14.0548483"><ele>157.0</ele><time>2026-05-03T11:58:19.858Z</time></trkpt><trkpt lat="42.2966724" lon="14.0548943"><ele>157.0</ele><time>2026-05-03T11:58:20.858Z</time></trkpt><trkpt lat="42.296597" lon="14.0549434"><ele>157.0</ele><time>2026-05-03T11:58:21.859Z</time></trkpt><trkpt lat="42.2965227" lon="14.0549849"><ele>157.5</ele><time>2026-05-03T11:58:22.859Z</time></trkpt><trkpt lat="42.2964512" lon="14.0550344"><ele>158.0</ele><time>2026-05-03T11:58:23.858Z</time></trkpt><trkpt lat="42.2963788" lon="14.0550826"><ele>158.5</ele><time>2026-05-03T11:58:24.858Z</time></trkpt><trkpt lat="42.2963039" lon="14.0551171"><ele>159.0</ele><time>2026-05-03T11:58:25.858Z</time></trkpt><trkpt lat="42.2962237" lon="14.0551377"><ele>159.5</ele><time>2026-05-03T11:58:26.859Z</time></trkpt><trkpt lat="42.2961354" lon="14.0551625"><ele>160.0</ele><time>2026-05-03T11:58:27.858Z</time></trkpt><trkpt lat="42.2960478" lon="14.0551833"><ele>161.16666666666669</ele><time>2026-05-03T11:58:28.859Z</time></trkpt><trkpt lat="42.2959662" lon="14.0551908"><ele>162.33333333333334</ele><time>2026-05-03T11:58:29.858Z</time></trkpt><trkpt lat="42.2958888" lon="14.0551938"><ele>163.5</ele><time>2026-05-03T11:58:30.859Z</time></trkpt><trkpt lat="42.295818" lon="14.0551905"><ele>164.66666666666666</ele><time>2026-05-03T11:58:31.858Z</time></trkpt><trkpt lat="42.2957302" lon="14.0552267"><ele>165.83333333333331</ele><time>2026-05-03T11:58:33.858Z</time></trkpt><trkpt lat="42.2957245" lon="14.0553368"><ele>167.0</ele><time>2026-05-03T11:58:35.858Z</time></trkpt><trkpt lat="42.2957682" lon="14.0553983"><ele>167.0</ele><time>2026-05-03T11:58:36.858Z</time></trkpt><trkpt lat="42.2958424" lon="14.0554708"><ele>167.0</ele><time>2026-05-03T11:58:37.858Z</time></trkpt><trkpt lat="42.2959049" lon="14.0555634"><ele>167.0</ele><time>2026-05-03T11:58:38.859Z</time></trkpt><trkpt lat="42.2959645" lon="14.0556802"><ele>167.0</ele><time>2026-05-03T11:58:39.858Z</time></trkpt><trkpt lat="42.2960338" lon="14.0558289"><ele>167.0</ele><time>2026-05-03T11:58:40.859Z</time></trkpt><trkpt lat="42.2961018" lon="14.0559779"><ele>167.75</ele><time>2026-05-03T11:58:41.859Z</time></trkpt><trkpt lat="42.2961667" lon="14.0561188"><ele>168.5</ele><time>2026-05-03T11:58:42.859Z</time></trkpt><trkpt lat="42.2962293" lon="14.0562583"><ele>169.25</ele><time>2026-05-03T11:58:43.858Z</time></trkpt><trkpt lat="42.2962935" lon="14.0564082"><ele>170.0</ele><time>2026-05-03T11:58:44.858Z</time></trkpt><trkpt lat="42.2963676" lon="14.0565641"><ele>168.5</ele><time>2026-05-03T11:58:45.858Z</time></trkpt><trkpt lat="42.2964491" lon="14.056719"><ele>167.0</ele><time>2026-05-03T11:58:46.859Z</time></trkpt><trkpt lat="42.2965261" lon="14.0568637"><ele>165.5</ele><time>2026-05-03T11:58:47.858Z</time></trkpt><trkpt lat="42.2966016" lon="14.0570107"><ele>164.0</ele><time>2026-05-03T11:58:48.858Z</time></trkpt><trkpt lat="42.2966769" lon="14.0571538"><ele>164.0</ele><time>2026-05-03T11:58:49.858Z</time></trkpt><trkpt lat="42.2967497" lon="14.0572884"><ele>164.0</ele><time>2026-05-03T11:58:50.858Z</time></trkpt><trkpt lat="42.2968214" lon="14.0574334"><ele>164.0</ele><time>2026-05-03T11:58:51.858Z</time></trkpt><trkpt lat="42.2968899" lon="14.0575837"><ele>164.0</ele><time>2026-05-03T11:58:52.858Z</time></trkpt><trkpt lat="42.2969561" lon="14.0577233"><ele>163.25</ele><time>2026-05-03T11:58:53.858Z</time></trkpt><trkpt lat="42.2970244" lon="14.057866"><ele>162.5</ele><time>2026-05-03T11:58:54.858Z</time></trkpt><trkpt lat="42.2970926" lon="14.0580075"><ele>161.75</ele><time>2026-05-03T11:58:55.858Z</time></trkpt><trkpt lat="42.2971561" lon="14.058136"><ele>161.0</ele><time>2026-05-03T11:58:56.859Z</time></trkpt><trkpt lat="42.2972068" lon="14.0582388"><ele>160.25</ele><time>2026-05-03T11:58:57.859Z</time></trkpt><trkpt lat="42.2972619" lon="14.0583542"><ele>159.5</ele><time>2026-05-03T11:58:59.858Z</time></trkpt><trkpt lat="42.2973219" lon="14.0584394"><ele>158.75</ele><time>2026-05-03T11:59:02.859Z</time></trkpt><trkpt lat="42.2973941" lon="14.0585119"><ele>158.0</ele><time>2026-05-03T11:59:04.858Z</time></trkpt><trkpt lat="42.2976104" lon="14.058594"><ele>158.0</ele><time>2026-05-03T11:59:08.858Z</time></trkpt><trkpt lat="42.2977355" lon="14.0586476"><ele>158.0</ele><time>2026-05-03T11:59:10.858Z</time></trkpt><trkpt lat="42.2978016" lon="14.0586755"><ele>158.0</ele><time>2026-05-03T11:59:11.859Z</time></trkpt><trkpt lat="42.2978777" lon="14.0587137"><ele>158.0</ele><time>2026-05-03T11:59:12.859Z</time></trkpt><trkpt lat="42.297967" lon="14.0587609"><ele>158.0</ele><time>2026-05-03T11:59:13.859Z</time></trkpt><trkpt lat="42.2980645" lon="14.0588101"><ele>157.25</ele><time>2026-05-03T11:59:14.858Z</time></trkpt><trkpt lat="42.2981751" lon="14.0588605"><ele>156.5</ele><time>2026-05-03T11:59:15.859Z</time></trkpt><trkpt lat="42.2982922" lon="14.0589126"><ele>155.75</ele><time>2026-05-03T11:59:16.859Z</time></trkpt><trkpt lat="42.2984107" lon="14.0589694"><ele>155.0</ele><time>2026-05-03T11:59:17.858Z</time></trkpt><trkpt lat="42.2985301" lon="14.0590197"><ele>155.0</ele><time>2026-05-03T11:59:18.858Z</time></trkpt><trkpt lat="42.298648" lon="14.0590704"><ele>155.0</ele><time>2026-05-03T11:59:19.859Z</time></trkpt><trkpt lat="42.2987548" lon="14.0591175"><ele>155.0</ele><time>2026-05-03T11:59:20.858Z</time></trkpt><trkpt lat="42.2988537" lon="14.059161"><ele>155.0</ele><time>2026-05-03T11:59:21.859Z</time></trkpt><trkpt lat="42.2989429" lon="14.0592047"><ele>155.0</ele><time>2026-05-03T11:59:22.858Z</time></trkpt><trkpt lat="42.2990019" lon="14.059251"><ele>154.6</ele><time>2026-05-03T11:59:23.858Z</time></trkpt><trkpt lat="42.2990249" lon="14.0593655"><ele>154.2</ele><time>2026-05-03T11:59:25.859Z</time></trkpt><trkpt lat="42.29891" lon="14.0594328"><ele>153.8</ele><time>2026-05-03T11:59:27.858Z</time></trkpt><trkpt lat="42.2988133" lon="14.059444"><ele>153.4</ele><time>2026-05-03T11:59:28.858Z</time></trkpt><trkpt lat="42.2987043" lon="14.059445"><ele>153.0</ele><time>2026-05-03T11:59:29.858Z</time></trkpt><trkpt lat="42.2985841" lon="14.0594231"><ele>153.0</ele><time>2026-05-03T11:59:30.858Z</time></trkpt><trkpt lat="42.2984617" lon="14.0593695"><ele>153.0</ele><time>2026-05-03T11:59:31.858Z</time></trkpt><trkpt lat="42.298353" lon="14.0592831"><ele>153.0</ele><time>2026-05-03T11:59:32.859Z</time></trkpt><trkpt lat="42.2982584" lon="14.0591776"><ele>153.0</ele><time>2026-05-03T11:59:33.858Z</time></trkpt><trkpt lat="42.2981713" lon="14.0590846"><ele>153.33333333333334</ele><time>2026-05-03T11:59:34.859Z</time></trkpt><trkpt lat="42.2980862" lon="14.0590408"><ele>153.66666666666666</ele><time>2026-05-03T11:59:35.858Z</time></trkpt><trkpt lat="42.2980023" lon="14.0590388"><ele>154.0</ele><time>2026-05-03T11:59:36.858Z</time></trkpt><trkpt lat="42.2979299" lon="14.0590863"><ele>154.33333333333331</ele><time>2026-05-03T11:59:37.859Z</time></trkpt><trkpt lat="42.2978797" lon="14.05917"><ele>154.66666666666666</ele><time>2026-05-03T11:59:38.858Z</time></trkpt><trkpt lat="42.2978633" lon="14.0592791"><ele>155.0</ele><time>2026-05-03T11:59:39.859Z</time></trkpt><trkpt lat="42.29789" lon="14.0593824"><ele>154.5</ele><time>2026-05-03T11:59:40.859Z</time></trkpt><trkpt lat="42.2979528" lon="14.0594661"><ele>154.0</ele><time>2026-05-03T11:59:41.858Z</time></trkpt><trkpt lat="42.2980437" lon="14.0595474"><ele>153.5</ele><time>2026-05-03T11:59:42.858Z</time></trkpt><trkpt lat="42.2981474" lon="14.0596483"><ele>153.0</ele><time>2026-05-03T11:59:43.858Z</time></trkpt><trkpt lat="42.2982636" lon="14.0597612"><ele>153.0</ele><time>2026-05-03T11:59:44.858Z</time></trkpt><trkpt lat="42.2983922" lon="14.0598781"><ele>153.0</ele><time>2026-05-03T11:59:45.859Z</time></trkpt><trkpt lat="42.2985294" lon="14.0600018"><ele>153.0</ele><time>2026-05-03T11:59:46.859Z</time></trkpt><trkpt lat="42.2986696" lon="14.0601364"><ele>149.66666666666666</ele><time>2026-05-03T11:59:47.858Z</time></trkpt><trkpt lat="42.2988101" lon="14.0602788"><ele>146.33333333333331</ele><time>2026-05-03T11:59:48.858Z</time></trkpt><trkpt lat="42.2989561" lon="14.0604307"><ele>143.0</ele><time>2026-05-03T11:59:49.859Z</time></trkpt><trkpt lat="42.2991064" lon="14.0605943"><ele>143.0</ele><time>2026-05-03T11:59:50.858Z</time></trkpt><trkpt lat="42.2992507" lon="14.0607626"><ele>143.0</ele><time>2026-05-03T11:59:51.858Z</time></trkpt><trkpt lat="42.2993885" lon="14.0609468"><ele>143.0</ele><time>2026-05-03T11:59:52.858Z</time></trkpt><trkpt lat="42.2995264" lon="14.0611449"><ele>141.66666666666666</ele><time>2026-05-03T11:59:53.858Z</time></trkpt><trkpt lat="42.299663" lon="14.0613504"><ele>140.33333333333334</ele><time>2026-05-03T11:59:54.858Z</time></trkpt><trkpt lat="42.2998009" lon="14.0615592"><ele>139.0</ele><time>2026-05-03T11:59:55.858Z</time></trkpt><trkpt lat="42.2999405" lon="14.0617664"><ele>131.66666666666669</ele><time>2026-05-03T11:59:56.858Z</time></trkpt><trkpt lat="42.3000758" lon="14.0619707"><ele>124.33333333333334</ele><time>2026-05-03T11:59:57.858Z</time></trkpt><trkpt lat="42.3002095" lon="14.0621728"><ele>117.0</ele><time>2026-05-03T11:59:58.859Z</time></trkpt><trkpt lat="42.3003424" lon="14.0623703"><ele>115.66666666666666</ele><time>2026-05-03T11:59:59.859Z</time></trkpt><trkpt lat="42.3004743" lon="14.0625659"><ele>114.33333333333333</ele><time>2026-05-03T12:00:00.859Z</time></trkpt><trkpt lat="42.3006063" lon="14.062759"><ele>113.0</ele><time>2026-05-03T12:00:01.859Z</time></trkpt><trkpt lat="42.3007412" lon="14.0629451"><ele>113.0</ele><time>2026-05-03T12:00:02.859Z</time></trkpt><trkpt lat="42.3008824" lon="14.0631208"><ele>113.0</ele><time>2026-05-03T12:00:03.859Z</time></trkpt><trkpt lat="42.3010291" lon="14.0632895"><ele>113.0</ele><time>2026-05-03T12:00:04.858Z</time></trkpt><trkpt lat="42.3011793" lon="14.0634514"><ele>113.0</ele><time>2026-05-03T12:00:05.859Z</time></trkpt><trkpt lat="42.3013328" lon="14.0636042"><ele>113.0</ele><time>2026-05-03T12:00:06.858Z</time></trkpt><trkpt lat="42.3014903" lon="14.0637463"><ele>113.0</ele><time>2026-05-03T12:00:07.859Z</time></trkpt><trkpt lat="42.3016462" lon="14.0638804"><ele>113.0</ele><time>2026-05-03T12:00:08.858Z</time></trkpt><trkpt lat="42.301803" lon="14.0640169"><ele>113.0</ele><time>2026-05-03T12:00:09.859Z</time></trkpt><trkpt lat="42.3019663" lon="14.0641529"><ele>113.0</ele><time>2026-05-03T12:00:10.859Z</time></trkpt><trkpt lat="42.302133" lon="14.0642864"><ele>108.33333333333333</ele><time>2026-05-03T12:00:11.858Z</time></trkpt><trkpt lat="42.3023068" lon="14.0644078"><ele>103.66666666666666</ele><time>2026-05-03T12:00:12.859Z</time></trkpt><trkpt lat="42.3024879" lon="14.0645126"><ele>99.0</ele><time>2026-05-03T12:00:13.859Z</time></trkpt><trkpt lat="42.3026672" lon="14.0646089"><ele>99.0</ele><time>2026-05-03T12:00:14.859Z</time></trkpt><trkpt lat="42.3028443" lon="14.0647003"><ele>99.0</ele><time>2026-05-03T12:00:15.858Z</time></trkpt><trkpt lat="42.3030229" lon="14.0647896"><ele>99.0</ele><time>2026-05-03T12:00:16.859Z</time></trkpt><trkpt lat="42.3032013" lon="14.0648723"><ele>103.0</ele><time>2026-05-03T12:00:17.858Z</time></trkpt><trkpt lat="42.3033768" lon="14.0649452"><ele>107.0</ele><time>2026-05-03T12:00:18.859Z</time></trkpt><trkpt lat="42.3035462" lon="14.0650021"><ele>111.0</ele><time>2026-05-03T12:00:19.858Z</time></trkpt><trkpt lat="42.3037087" lon="14.0650453"><ele>104.75</ele><time>2026-05-03T12:00:20.858Z</time></trkpt><trkpt lat="42.3038552" lon="14.0650822"><ele>98.5</ele><time>2026-05-03T12:00:21.858Z</time></trkpt><trkpt lat="42.3039866" lon="14.0651145"><ele>92.25</ele><time>2026-05-03T12:00:22.858Z</time></trkpt><trkpt lat="42.3041078" lon="14.0651464"><ele>86.0</ele><time>2026-05-03T12:00:23.858Z</time></trkpt><trkpt lat="42.3042177" lon="14.0651815"><ele>85.83333333333334</ele><time>2026-05-03T12:00:24.858Z</time></trkpt><trkpt lat="42.3043033" lon="14.0652094"><ele>85.66666666666667</ele><time>2026-05-03T12:00:25.858Z</time></trkpt><trkpt lat="42.304373" lon="14.0652371"><ele>85.5</ele><time>2026-05-03T12:00:26.858Z</time></trkpt><trkpt lat="42.3044426" lon="14.0652626"><ele>85.33333333333333</ele><time>2026-05-03T12:00:27.859Z</time></trkpt><trkpt lat="42.3045459" lon="14.0652862"><ele>85.16666666666666</ele><time>2026-05-03T12:00:28.859Z</time></trkpt><trkpt lat="42.3046573" lon="14.0652981"><ele>85.0</ele><time>2026-05-03T12:00:29.858Z</time></trkpt><trkpt lat="42.3047833" lon="14.0653041"><ele>84.75</ele><time>2026-05-03T12:00:30.859Z</time></trkpt><trkpt lat="42.3049129" lon="14.06531"><ele>84.5</ele><time>2026-05-03T12:00:31.859Z</time></trkpt><trkpt lat="42.3050412" lon="14.0653023"><ele>84.25</ele><time>2026-05-03T12:00:32.857Z</time></trkpt><trkpt lat="42.3051606" lon="14.065267"><ele>84.0</ele><time>2026-05-03T12:00:33.858Z</time></trkpt><trkpt lat="42.3052688" lon="14.0651984"><ele>84.0</ele><time>2026-05-03T12:00:34.859Z</time></trkpt><trkpt lat="42.3053644" lon="14.0651003"><ele>84.0</ele><time>2026-05-03T12:00:35.859Z</time></trkpt><trkpt lat="42.3054572" lon="14.0649785"><ele>84.0</ele><time>2026-05-03T12:00:36.858Z</time></trkpt><trkpt lat="42.3055527" lon="14.064846"><ele>84.0</ele><time>2026-05-03T12:00:37.859Z</time></trkpt><trkpt lat="42.3056551" lon="14.0647068"><ele>83.25</ele><time>2026-05-03T12:00:38.858Z</time></trkpt><trkpt lat="42.305759" lon="14.0645636"><ele>82.5</ele><time>2026-05-03T12:00:39.859Z</time></trkpt><trkpt lat="42.3058676" lon="14.0644211"><ele>81.75</ele><time>2026-05-03T12:00:40.859Z</time></trkpt><trkpt lat="42.3059738" lon="14.064283"><ele>81.0</ele><time>2026-05-03T12:00:41.858Z</time></trkpt><trkpt lat="42.3060751" lon="14.064151"><ele>80.5</ele><time>2026-05-03T12:00:42.859Z</time></trkpt><trkpt lat="42.3061709" lon="14.06402"><ele>80.0</ele><time>2026-05-03T12:00:43.858Z</time></trkpt><trkpt lat="42.306268" lon="14.0638984"><ele>79.5</ele><time>2026-05-03T12:00:44.858Z</time></trkpt><trkpt lat="42.3063617" lon="14.0637785"><ele>79.0</ele><time>2026-05-03T12:00:45.858Z</time></trkpt><trkpt lat="42.3064506" lon="14.0636648"><ele>78.0</ele><time>2026-05-03T12:00:46.858Z</time></trkpt><trkpt lat="42.3065334" lon="14.0635577"><ele>77.0</ele><time>2026-05-03T12:00:47.858Z</time></trkpt><trkpt lat="42.3066095" lon="14.0634572"><ele>76.0</ele><time>2026-05-03T12:00:48.858Z</time></trkpt><trkpt lat="42.3066799" lon="14.0633653"><ele>75.0</ele><time>2026-05-03T12:00:49.858Z</time></trkpt><trkpt lat="42.3067473" lon="14.0632805"><ele>74.0</ele><time>2026-05-03T12:00:50.859Z</time></trkpt><trkpt lat="42.3068107" lon="14.0632013"><ele>73.83333333333334</ele><time>2026-05-03T12:00:51.858Z</time></trkpt><trkpt lat="42.3068691" lon="14.0631287"><ele>73.66666666666667</ele><time>2026-05-03T12:00:52.859Z</time></trkpt><trkpt lat="42.3069204" lon="14.0630654"><ele>73.5</ele><time>2026-05-03T12:00:53.859Z</time></trkpt><trkpt lat="42.3070053" lon="14.0629633"><ele>73.33333333333333</ele><time>2026-05-03T12:00:55.858Z</time></trkpt><trkpt lat="42.3070645" lon="14.0628836"><ele>73.16666666666666</ele><time>2026-05-03T12:00:57.859Z</time></trkpt><trkpt lat="42.3071151" lon="14.0628102"><ele>73.0</ele><time>2026-05-03T12:01:00.86Z</time></trkpt><trkpt lat="42.3071662" lon="14.0627424"><ele>73.0</ele><time>2026-05-03T12:06:23.857Z</time></trkpt><trkpt lat="42.3072402" lon="14.0626557"><ele>73.0</ele><time>2026-05-03T12:06:25.857Z</time></trkpt><trkpt lat="42.3073362" lon="14.0625351"><ele>73.0</ele><time>2026-05-03T12:06:27.857Z</time></trkpt><trkpt lat="42.3073815" lon="14.0624744"><ele>73.0</ele><time>2026-05-03T12:06:28.857Z</time></trkpt><trkpt lat="42.3074375" lon="14.0623993"><ele>73.0</ele><time>2026-05-03T12:06:29.858Z</time></trkpt><trkpt lat="42.3074888" lon="14.0623319"><ele>73.0</ele><time>2026-05-03T12:06:30.858Z</time></trkpt><trkpt lat="42.307549" lon="14.0622557"><ele>72.83333333333333</ele><time>2026-05-03T12:06:31.858Z</time></trkpt><trkpt lat="42.3076075" lon="14.0621795"><ele>72.66666666666666</ele><time>2026-05-03T12:06:32.858Z</time></trkpt><trkpt lat="42.307666" lon="14.0621047"><ele>72.5</ele><time>2026-05-03T12:06:33.857Z</time></trkpt><trkpt lat="42.3077248" lon="14.0620283"><ele>72.33333333333333</ele><time>2026-05-03T12:06:34.857Z</time></trkpt><trkpt lat="42.3077823" lon="14.0619524"><ele>72.16666666666667</ele><time>2026-05-03T12:06:35.857Z</time></trkpt><trkpt lat="42.3078383" lon="14.0618858"><ele>72.0</ele><time>2026-05-03T12:06:36.857Z</time></trkpt><trkpt lat="42.3078892" lon="14.0618293"><ele>72.0</ele><time>2026-05-03T12:06:37.857Z</time></trkpt><trkpt lat="42.3079731" lon="14.0617595"><ele>72.0</ele><time>2026-05-03T12:06:39.858Z</time></trkpt><trkpt lat="42.3080358" lon="14.0617487"><ele>72.0</ele><time>2026-05-03T12:06:41.859Z</time></trkpt><trkpt lat="42.3081183" lon="14.0618396"><ele>72.0</ele><time>2026-05-03T12:06:43.857Z</time></trkpt><trkpt lat="42.3081607" lon="14.061925"><ele>72.0</ele><time>2026-05-03T12:06:44.857Z</time></trkpt><trkpt lat="42.3082077" lon="14.0620208"><ele>72.0</ele><time>2026-05-03T12:06:45.858Z</time></trkpt><trkpt lat="42.3082608" lon="14.0621306"><ele>72.0</ele><time>2026-05-03T12:06:46.857Z</time></trkpt><trkpt lat="42.308319" lon="14.0622445"><ele>72.0</ele><time>2026-05-03T12:06:47.857Z</time></trkpt><trkpt lat="42.3083815" lon="14.0623681"><ele>72.0</ele><time>2026-05-03T12:06:48.858Z</time></trkpt><trkpt lat="42.3084454" lon="14.0624986"><ele>72.0</ele><time>2026-05-03T12:06:49.857Z</time></trkpt><trkpt lat="42.3085093" lon="14.0626298"><ele>72.0</ele><time>2026-05-03T12:06:50.857Z</time></trkpt><trkpt lat="42.3085666" lon="14.0627481"><ele>72.2</ele><time>2026-05-03T12:06:51.858Z</time></trkpt><trkpt lat="42.3086208" lon="14.0628631"><ele>72.4</ele><time>2026-05-03T12:06:52.858Z</time></trkpt><trkpt lat="42.3086817" lon="14.0629869"><ele>72.6</ele><time>2026-05-03T12:06:53.858Z</time></trkpt><trkpt lat="42.3087465" lon="14.0631168"><ele>72.8</ele><time>2026-05-03T12:06:54.857Z</time></trkpt><trkpt lat="42.3088049" lon="14.0632429"><ele>73.0</ele><time>2026-05-03T12:06:55.858Z</time></trkpt><trkpt lat="42.3088608" lon="14.063357"><ele>73.0</ele><time>2026-05-03T12:06:56.857Z</time></trkpt><trkpt lat="42.308918" lon="14.063476"><ele>73.0</ele><time>2026-05-03T12:06:57.857Z</time></trkpt><trkpt lat="42.3089768" lon="14.0636024"><ele>73.0</ele><time>2026-05-03T12:06:58.858Z</time></trkpt><trkpt lat="42.3090393" lon="14.0637349"><ele>73.0</ele><time>2026-05-03T12:06:59.859Z</time></trkpt><trkpt lat="42.3091016" lon="14.0638687"><ele>73.0</ele><time>2026-05-03T12:07:00.858Z</time></trkpt><trkpt lat="42.3091646" lon="14.0640008"><ele>71.75</ele><time>2026-05-03T12:07:01.858Z</time></trkpt><trkpt lat="42.3092323" lon="14.0641384"><ele>70.5</ele><time>2026-05-03T12:07:02.858Z</time></trkpt><trkpt lat="42.3093023" lon="14.0642849"><ele>69.25</ele><time>2026-05-03T12:07:03.857Z</time></trkpt><trkpt lat="42.3093751" lon="14.0644381"><ele>68.0</ele><time>2026-05-03T12:07:04.857Z</time></trkpt><trkpt lat="42.3094506" lon="14.064594"><ele>68.0</ele><time>2026-05-03T12:07:05.857Z</time></trkpt><trkpt lat="42.3095237" lon="14.0647466"><ele>68.0</ele><time>2026-05-03T12:07:06.857Z</time></trkpt><trkpt lat="42.309599" lon="14.0649033"><ele>68.0</ele><time>2026-05-03T12:07:07.858Z</time></trkpt><trkpt lat="42.3096765" lon="14.0650611"><ele>68.0</ele><time>2026-05-03T12:07:08.857Z</time></trkpt><trkpt lat="42.3097561" lon="14.0652238"><ele>69.0</ele><time>2026-05-03T12:07:09.857Z</time></trkpt><trkpt lat="42.3098386" lon="14.0653946"><ele>70.0</ele><time>2026-05-03T12:07:10.857Z</time></trkpt><trkpt lat="42.3099254" lon="14.0655725"><ele>71.0</ele><time>2026-05-03T12:07:11.857Z</time></trkpt><trkpt lat="42.3100101" lon="14.0657516"><ele>71.0</ele><time>2026-05-03T12:07:12.858Z</time></trkpt><trkpt lat="42.310094" lon="14.0659202"><ele>71.0</ele><time>2026-05-03T12:07:13.857Z</time></trkpt><trkpt lat="42.3101695" lon="14.0660807"><ele>71.0</ele><time>2026-05-03T12:07:14.857Z</time></trkpt><trkpt lat="42.31025" lon="14.0662391"><ele>71.0</ele><time>2026-05-03T12:07:15.857Z</time></trkpt><trkpt lat="42.3103246" lon="14.0663787"><ele>71.0</ele><time>2026-05-03T12:07:16.857Z</time></trkpt><trkpt lat="42.3103929" lon="14.0664976"><ele>71.0</ele><time>2026-05-03T12:07:17.858Z</time></trkpt><trkpt lat="42.310456" lon="14.0666048"><ele>71.0</ele><time>2026-05-03T12:07:18.857Z</time></trkpt><trkpt lat="42.3105125" lon="14.0666992"><ele>71.0</ele><time>2026-05-03T12:07:19.858Z</time></trkpt><trkpt lat="42.310556" lon="14.0667929"><ele>71.0</ele><time>2026-05-03T12:07:20.857Z</time></trkpt><trkpt lat="42.3105831" lon="14.0669097"><ele>71.0</ele><time>2026-05-03T12:07:21.857Z</time></trkpt><trkpt lat="42.3105961" lon="14.0670334"><ele>71.0</ele><time>2026-05-03T12:07:22.858Z</time></trkpt><trkpt lat="42.3106394" lon="14.067155"><ele>71.0</ele><time>2026-05-03T12:07:23.857Z</time></trkpt><trkpt lat="42.310702" lon="14.0672767"><ele>71.0</ele><time>2026-05-03T12:07:24.858Z</time></trkpt><trkpt lat="42.3107728" lon="14.0674023"><ele>71.0</ele><time>2026-05-03T12:07:25.858Z</time></trkpt><trkpt lat="42.3108421" lon="14.0675336"><ele>71.25</ele><time>2026-05-03T12:07:26.856Z</time></trkpt><trkpt lat="42.3109139" lon="14.0676734"><ele>71.5</ele><time>2026-05-03T12:07:27.857Z</time></trkpt><trkpt lat="42.310987" lon="14.0678206"><ele>71.75</ele><time>2026-05-03T12:07:28.857Z</time></trkpt><trkpt lat="42.3110584" lon="14.0679696"><ele>72.0</ele><time>2026-05-03T12:07:29.857Z</time></trkpt><trkpt lat="42.3111304" lon="14.0681189"><ele>72.0</ele><time>2026-05-03T12:07:30.858Z</time></trkpt><trkpt lat="42.3112042" lon="14.0682689"><ele>72.0</ele><time>2026-05-03T12:07:31.857Z</time></trkpt><trkpt lat="42.3112788" lon="14.0684204"><ele>72.0</ele><time>2026-05-03T12:07:32.857Z</time></trkpt><trkpt lat="42.3113539" lon="14.0685725"><ele>72.0</ele><time>2026-05-03T12:07:33.857Z</time></trkpt><trkpt lat="42.3114318" lon="14.0687235"><ele>72.0</ele><time>2026-05-03T12:07:34.857Z</time></trkpt><trkpt lat="42.3115114" lon="14.0688905"><ele>72.0</ele><time>2026-05-03T12:07:35.858Z</time></trkpt><trkpt lat="42.3115989" lon="14.0690675"><ele>72.0</ele><time>2026-05-03T12:07:36.857Z</time></trkpt><trkpt lat="42.3116854" lon="14.0692468"><ele>72.0</ele><time>2026-05-03T12:07:37.857Z</time></trkpt><trkpt lat="42.3117732" lon="14.0694292"><ele>72.0</ele><time>2026-05-03T12:07:38.857Z</time></trkpt><trkpt lat="42.3118606" lon="14.0696164"><ele>72.0</ele><time>2026-05-03T12:07:39.857Z</time></trkpt><trkpt lat="42.3119482" lon="14.0698018"><ele>71.66666666666667</ele><time>2026-05-03T12:07:40.857Z</time></trkpt><trkpt lat="42.3120359" lon="14.0699856"><ele>71.33333333333334</ele><time>2026-05-03T12:07:41.858Z</time></trkpt><trkpt lat="42.3121247" lon="14.0701651"><ele>71.0</ele><time>2026-05-03T12:07:42.858Z</time></trkpt><trkpt lat="42.3122095" lon="14.0703438"><ele>70.75</ele><time>2026-05-03T12:07:43.858Z</time></trkpt><trkpt lat="42.3122934" lon="14.0705173"><ele>70.5</ele><time>2026-05-03T12:07:44.857Z</time></trkpt><trkpt lat="42.3123754" lon="14.0706872"><ele>70.25</ele><time>2026-05-03T12:07:45.857Z</time></trkpt><trkpt lat="42.3124552" lon="14.0708523"><ele>70.0</ele><time>2026-05-03T12:07:46.857Z</time></trkpt><trkpt lat="42.3125322" lon="14.0710107"><ele>69.75</ele><time>2026-05-03T12:07:47.858Z</time></trkpt><trkpt lat="42.3126037" lon="14.0711558"><ele>69.5</ele><time>2026-05-03T12:07:48.859Z</time></trkpt><trkpt lat="42.3126718" lon="14.0712923"><ele>69.25</ele><time>2026-05-03T12:07:49.857Z</time></trkpt><trkpt lat="42.3127373" lon="14.0714248"><ele>69.0</ele><time>2026-05-03T12:07:50.857Z</time></trkpt><trkpt lat="42.3128025" lon="14.0715516"><ele>69.2</ele><time>2026-05-03T12:07:51.857Z</time></trkpt><trkpt lat="42.3128651" lon="14.0716639"><ele>69.4</ele><time>2026-05-03T12:07:52.858Z</time></trkpt><trkpt lat="42.3129279" lon="14.0717598"><ele>69.6</ele><time>2026-05-03T12:07:53.858Z</time></trkpt><trkpt lat="42.3129916" lon="14.0718355"><ele>69.8</ele><time>2026-05-03T12:07:54.857Z</time></trkpt><trkpt lat="42.3130485" lon="14.0718895"><ele>70.0</ele><time>2026-05-03T12:07:55.857Z</time></trkpt><trkpt lat="42.3131208" lon="14.0719813"><ele>69.66666666666666</ele><time>2026-05-03T12:07:57.857Z</time></trkpt><trkpt lat="42.3131667" lon="14.0720463"><ele>69.33333333333333</ele><time>2026-05-03T12:08:00.858Z</time></trkpt><trkpt lat="42.3132028" lon="14.0721251"><ele>69.0</ele><time>2026-05-03T12:10:17.856Z</time></trkpt><trkpt lat="42.3132076" lon="14.0722194"><ele>68.66666666666667</ele><time>2026-05-03T12:10:19.856Z</time></trkpt><trkpt lat="42.3132037" lon="14.0723397"><ele>68.33333333333334</ele><time>2026-05-03T12:10:22.857Z</time></trkpt><trkpt lat="42.3132245" lon="14.0724334"><ele>68.0</ele><time>2026-05-03T12:10:23.856Z</time></trkpt><trkpt lat="42.3132621" lon="14.072539"><ele>67.5</ele><time>2026-05-03T12:10:24.857Z</time></trkpt><trkpt lat="42.3133189" lon="14.0726598"><ele>67.0</ele><time>2026-05-03T12:10:25.856Z</time></trkpt><trkpt lat="42.3133895" lon="14.0728034"><ele>66.5</ele><time>2026-05-03T12:10:26.856Z</time></trkpt><trkpt lat="42.3134805" lon="14.0729918"><ele>66.0</ele><time>2026-05-03T12:10:27.857Z</time></trkpt><trkpt lat="42.3135926" lon="14.0732218"><ele>66.33333333333333</ele><time>2026-05-03T12:10:28.856Z</time></trkpt><trkpt lat="42.3137122" lon="14.07347"><ele>66.66666666666666</ele><time>2026-05-03T12:10:29.856Z</time></trkpt><trkpt lat="42.3138263" lon="14.0737048"><ele>67.0</ele><time>2026-05-03T12:10:30.856Z</time></trkpt><trkpt lat="42.3139351" lon="14.0739285"><ele>67.33333333333333</ele><time>2026-05-03T12:10:31.856Z</time></trkpt><trkpt lat="42.3140333" lon="14.0741386"><ele>67.66666666666667</ele><time>2026-05-03T12:10:32.857Z</time></trkpt><trkpt lat="42.3141266" lon="14.0743408"><ele>68.0</ele><time>2026-05-03T12:10:33.857Z</time></trkpt><trkpt lat="42.3142197" lon="14.0745332"><ele>68.0</ele><time>2026-05-03T12:10:34.857Z</time></trkpt><trkpt lat="42.3143065" lon="14.0747094"><ele>68.0</ele><time>2026-05-03T12:10:35.856Z</time></trkpt><trkpt lat="42.3143854" lon="14.0748611"><ele>68.0</ele><time>2026-05-03T12:10:36.856Z</time></trkpt><trkpt lat="42.3144525" lon="14.0749819"><ele>68.0</ele><time>2026-05-03T12:10:37.856Z</time></trkpt><trkpt lat="42.3145178" lon="14.0751038"><ele>68.0</ele><time>2026-05-03T12:10:38.856Z</time></trkpt><trkpt lat="42.3145872" lon="14.0752588"><ele>68.0</ele><time>2026-05-03T12:10:39.855Z</time></trkpt><trkpt lat="42.3146617" lon="14.0754494"><ele>68.0</ele><time>2026-05-03T12:10:40.856Z</time></trkpt><trkpt lat="42.3147539" lon="14.0756553"><ele>68.33333333333334</ele><time>2026-05-03T12:10:41.856Z</time></trkpt><trkpt lat="42.3148563" lon="14.075868"><ele>68.66666666666667</ele><time>2026-05-03T12:10:42.857Z</time></trkpt><trkpt lat="42.3149615" lon="14.0760864"><ele>69.0</ele><time>2026-05-03T12:10:43.856Z</time></trkpt><trkpt lat="42.3150659" lon="14.0763079"><ele>69.0</ele><time>2026-05-03T12:10:44.857Z</time></trkpt><trkpt lat="42.3151638" lon="14.0765157"><ele>69.0</ele><time>2026-05-03T12:10:45.856Z</time></trkpt><trkpt lat="42.3152511" lon="14.0767004"><ele>69.0</ele><time>2026-05-03T12:10:46.856Z</time></trkpt><trkpt lat="42.3153358" lon="14.0768751"><ele>69.0</ele><time>2026-05-03T12:10:47.856Z</time></trkpt><trkpt lat="42.3154173" lon="14.0770423"><ele>69.0</ele><time>2026-05-03T12:10:48.856Z</time></trkpt><trkpt lat="42.3154981" lon="14.0772087"><ele>69.0</ele><time>2026-05-03T12:10:49.857Z</time></trkpt><trkpt lat="42.3155807" lon="14.0773785"><ele>69.0</ele><time>2026-05-03T12:10:50.856Z</time></trkpt><trkpt lat="42.3156619" lon="14.077551"><ele>68.66666666666667</ele><time>2026-05-03T12:10:51.857Z</time></trkpt><trkpt lat="42.3157449" lon="14.0777271"><ele>68.33333333333334</ele><time>2026-05-03T12:10:52.856Z</time></trkpt><trkpt lat="42.3158296" lon="14.0779043"><ele>68.0</ele><time>2026-05-03T12:10:53.856Z</time></trkpt><trkpt lat="42.3159152" lon="14.0780794"><ele>68.0</ele><time>2026-05-03T12:10:54.856Z</time></trkpt><trkpt lat="42.316001" lon="14.0782546"><ele>68.0</ele><time>2026-05-03T12:10:55.857Z</time></trkpt><trkpt lat="42.3160852" lon="14.0784275"><ele>68.0</ele><time>2026-05-03T12:10:56.856Z</time></trkpt><trkpt lat="42.31617" lon="14.0786004"><ele>68.0</ele><time>2026-05-03T12:10:57.856Z</time></trkpt><trkpt lat="42.3162553" lon="14.0787771"><ele>68.0</ele><time>2026-05-03T12:10:58.855Z</time></trkpt><trkpt lat="42.3163373" lon="14.0789483"><ele>68.0</ele><time>2026-05-03T12:10:59.857Z</time></trkpt><trkpt lat="42.3164177" lon="14.0791157"><ele>67.75</ele><time>2026-05-03T12:11:00.855Z</time></trkpt><trkpt lat="42.3165" lon="14.0792868"><ele>67.5</ele><time>2026-05-03T12:11:01.856Z</time></trkpt><trkpt lat="42.3165799" lon="14.0794573"><ele>67.25</ele><time>2026-05-03T12:11:02.856Z</time></trkpt><trkpt lat="42.3166601" lon="14.0796258"><ele>67.0</ele><time>2026-05-03T12:11:03.856Z</time></trkpt><trkpt lat="42.316739" lon="14.0797899"><ele>67.0</ele><time>2026-05-03T12:11:04.856Z</time></trkpt><trkpt lat="42.3168195" lon="14.0799536"><ele>67.0</ele><time>2026-05-03T12:11:05.856Z</time></trkpt><trkpt lat="42.3168986" lon="14.0801152"><ele>67.0</ele><time>2026-05-03T12:11:06.856Z</time></trkpt><trkpt lat="42.3169714" lon="14.0802662"><ele>67.0</ele><time>2026-05-03T12:11:07.856Z</time></trkpt><trkpt lat="42.317039" lon="14.0804058"><ele>67.0</ele><time>2026-05-03T12:11:08.856Z</time></trkpt><trkpt lat="42.3171003" lon="14.0805406"><ele>67.0</ele><time>2026-05-03T12:11:09.857Z</time></trkpt><trkpt lat="42.317164" lon="14.0806703"><ele>67.0</ele><time>2026-05-03T12:11:10.857Z</time></trkpt><trkpt lat="42.3172279" lon="14.0807972"><ele>67.0</ele><time>2026-05-03T12:11:11.856Z</time></trkpt><trkpt lat="42.3172917" lon="14.0809301"><ele>66.5</ele><time>2026-05-03T12:11:12.857Z</time></trkpt><trkpt lat="42.3173577" lon="14.0810693"><ele>66.0</ele><time>2026-05-03T12:11:13.856Z</time></trkpt><trkpt lat="42.317425" lon="14.0812105"><ele>65.5</ele><time>2026-05-03T12:11:14.856Z</time></trkpt><trkpt lat="42.3174925" lon="14.0813472"><ele>65.0</ele><time>2026-05-03T12:11:15.856Z</time></trkpt><trkpt lat="42.3175574" lon="14.0814751"><ele>64.75</ele><time>2026-05-03T12:11:16.857Z</time></trkpt><trkpt lat="42.3176167" lon="14.0816006"><ele>64.5</ele><time>2026-05-03T12:11:17.857Z</time></trkpt><trkpt lat="42.3176778" lon="14.0817285"><ele>64.25</ele><time>2026-05-03T12:11:18.857Z</time></trkpt><trkpt lat="42.3177375" lon="14.0818589"><ele>64.0</ele><time>2026-05-03T12:11:19.857Z</time></trkpt><trkpt lat="42.3178003" lon="14.0819923"><ele>64.0</ele><time>2026-05-03T12:11:20.856Z</time></trkpt><trkpt lat="42.3178644" lon="14.0821307"><ele>64.0</ele><time>2026-05-03T12:11:21.856Z</time></trkpt><trkpt lat="42.3179316" lon="14.0822714"><ele>64.0</ele><time>2026-05-03T12:11:22.856Z</time></trkpt><trkpt lat="42.3179979" lon="14.0824142"><ele>64.0</ele><time>2026-05-03T12:11:23.857Z</time></trkpt><trkpt lat="42.3180644" lon="14.0825593"><ele>64.0</ele><time>2026-05-03T12:11:24.857Z</time></trkpt><trkpt lat="42.3181326" lon="14.0827027"><ele>64.0</ele><time>2026-05-03T12:11:25.856Z</time></trkpt><trkpt lat="42.3182014" lon="14.0828468"><ele>64.0</ele><time>2026-05-03T12:11:26.856Z</time></trkpt><trkpt lat="42.3182716" lon="14.0829861"><ele>64.0</ele><time>2026-05-03T12:11:27.856Z</time></trkpt><trkpt lat="42.3183429" lon="14.0831246"><ele>64.0</ele><time>2026-05-03T12:11:28.857Z</time></trkpt><trkpt lat="42.3184096" lon="14.0832583"><ele>64.0</ele><time>2026-05-03T12:11:29.857Z</time></trkpt><trkpt lat="42.3184731" lon="14.0833949"><ele>64.0</ele><time>2026-05-03T12:11:30.856Z</time></trkpt><trkpt lat="42.3185408" lon="14.0835363"><ele>64.0</ele><time>2026-05-03T12:11:31.857Z</time></trkpt><trkpt lat="42.3186087" lon="14.0836795"><ele>64.0</ele><time>2026-05-03T12:11:32.857Z</time></trkpt><trkpt lat="42.3186761" lon="14.0838229"><ele>64.0</ele><time>2026-05-03T12:11:33.856Z</time></trkpt><trkpt lat="42.3187419" lon="14.0839666"><ele>64.0</ele><time>2026-05-03T12:11:34.857Z</time></trkpt><trkpt lat="42.3188112" lon="14.084113"><ele>64.0</ele><time>2026-05-03T12:11:35.856Z</time></trkpt><trkpt lat="42.3188832" lon="14.0842582"><ele>63.75</ele><time>2026-05-03T12:11:36.856Z</time></trkpt><trkpt lat="42.3189563" lon="14.0844098"><ele>63.5</ele><time>2026-05-03T12:11:37.855Z</time></trkpt><trkpt lat="42.319032" lon="14.084561"><ele>63.25</ele><time>2026-05-03T12:11:38.856Z</time></trkpt><trkpt lat="42.319106" lon="14.0847166"><ele>63.0</ele><time>2026-05-03T12:11:39.856Z</time></trkpt><trkpt lat="42.319181" lon="14.0848755"><ele>62.75</ele><time>2026-05-03T12:11:40.857Z</time></trkpt><trkpt lat="42.3192563" lon="14.0850317"><ele>62.5</ele><time>2026-05-03T12:11:41.856Z</time></trkpt><trkpt lat="42.3193288" lon="14.0851868"><ele>62.25</ele><time>2026-05-03T12:11:42.857Z</time></trkpt><trkpt lat="42.3193982" lon="14.085335"><ele>62.0</ele><time>2026-05-03T12:11:43.856Z</time></trkpt><trkpt lat="42.3194652" lon="14.0854753"><ele>62.0</ele><time>2026-05-03T12:11:44.856Z</time></trkpt><trkpt lat="42.3195309" lon="14.0856104"><ele>62.0</ele><time>2026-05-03T12:11:45.856Z</time></trkpt><trkpt lat="42.3195992" lon="14.0857526"><ele>62.0</ele><time>2026-05-03T12:11:46.856Z</time></trkpt><trkpt lat="42.3196685" lon="14.0858985"><ele>62.0</ele><time>2026-05-03T12:11:47.857Z</time></trkpt><trkpt lat="42.319739" lon="14.0860506"><ele>61.75</ele><time>2026-05-03T12:11:48.856Z</time></trkpt><trkpt lat="42.3198152" lon="14.0862033"><ele>61.5</ele><time>2026-05-03T12:11:49.856Z</time></trkpt><trkpt lat="42.319889" lon="14.0863569"><ele>61.25</ele><time>2026-05-03T12:11:50.856Z</time></trkpt><trkpt lat="42.3199586" lon="14.0865028"><ele>61.0</ele><time>2026-05-03T12:11:51.857Z</time></trkpt><trkpt lat="42.3200269" lon="14.0866493"><ele>61.0</ele><time>2026-05-03T12:11:52.856Z</time></trkpt><trkpt lat="42.3201" lon="14.0867913"><ele>61.0</ele><time>2026-05-03T12:11:53.856Z</time></trkpt><trkpt lat="42.3201687" lon="14.0869335"><ele>61.0</ele><time>2026-05-03T12:11:54.856Z</time></trkpt><trkpt lat="42.3202335" lon="14.087074"><ele>61.0</ele><time>2026-05-03T12:11:55.857Z</time></trkpt><trkpt lat="42.320303" lon="14.0872174"><ele>61.0</ele><time>2026-05-03T12:11:56.856Z</time></trkpt><trkpt lat="42.3203688" lon="14.0873612"><ele>61.0</ele><time>2026-05-03T12:11:57.856Z</time></trkpt><trkpt lat="42.3204338" lon="14.0874962"><ele>61.0</ele><time>2026-05-03T12:11:58.857Z</time></trkpt><trkpt lat="42.3204982" lon="14.0876237"><ele>61.0</ele><time>2026-05-03T12:11:59.856Z</time></trkpt><trkpt lat="42.3205621" lon="14.0877538"><ele>60.75</ele><time>2026-05-03T12:12:00.856Z</time></trkpt><trkpt lat="42.3206346" lon="14.0879004"><ele>60.5</ele><time>2026-05-03T12:12:01.856Z</time></trkpt><trkpt lat="42.3207189" lon="14.0880633"><ele>60.25</ele><time>2026-05-03T12:12:02.857Z</time></trkpt><trkpt lat="42.3208064" lon="14.0882373"><ele>60.0</ele><time>2026-05-03T12:12:03.857Z</time></trkpt><trkpt lat="42.3208918" lon="14.0884167"><ele>60.0</ele><time>2026-05-03T12:12:04.856Z</time></trkpt><trkpt lat="42.320975" lon="14.0885995"><ele>60.0</ele><time>2026-05-03T12:12:05.856Z</time></trkpt><trkpt lat="42.3210584" lon="14.0887787"><ele>60.0</ele><time>2026-05-03T12:12:06.857Z</time></trkpt><trkpt lat="42.3211416" lon="14.0889514"><ele>59.75</ele><time>2026-05-03T12:12:07.856Z</time></trkpt><trkpt lat="42.3212214" lon="14.0891191"><ele>59.5</ele><time>2026-05-03T12:12:08.856Z</time></trkpt><trkpt lat="42.3213011" lon="14.0892861"><ele>59.25</ele><time>2026-05-03T12:12:09.856Z</time></trkpt><trkpt lat="42.32138" lon="14.0894531"><ele>59.0</ele><time>2026-05-03T12:12:10.857Z</time></trkpt><trkpt lat="42.3214563" lon="14.0896125"><ele>59.0</ele><time>2026-05-03T12:12:11.857Z</time></trkpt><trkpt lat="42.3215302" lon="14.0897638"><ele>59.0</ele><time>2026-05-03T12:12:12.856Z</time></trkpt><trkpt lat="42.3216013" lon="14.0899087"><ele>59.0</ele><time>2026-05-03T12:12:13.857Z</time></trkpt><trkpt lat="42.3216717" lon="14.0900558"><ele>59.0</ele><time>2026-05-03T12:12:14.857Z</time></trkpt><trkpt lat="42.3217479" lon="14.0902061"><ele>58.75</ele><time>2026-05-03T12:12:15.856Z</time></trkpt><trkpt lat="42.3218267" lon="14.0903622"><ele>58.5</ele><time>2026-05-03T12:12:16.856Z</time></trkpt><trkpt lat="42.3219054" lon="14.0905248"><ele>58.25</ele><time>2026-05-03T12:12:17.857Z</time></trkpt><trkpt lat="42.3219867" lon="14.0906981"><ele>58.0</ele><time>2026-05-03T12:12:18.856Z</time></trkpt><trkpt lat="42.3220689" lon="14.0908763"><ele>58.0</ele><time>2026-05-03T12:12:19.855Z</time></trkpt><trkpt lat="42.3221509" lon="14.0910509"><ele>58.0</ele><time>2026-05-03T12:12:20.857Z</time></trkpt><trkpt lat="42.3222297" lon="14.0912237"><ele>58.0</ele><time>2026-05-03T12:12:21.856Z</time></trkpt><trkpt lat="42.3223122" lon="14.0913998"><ele>58.33333333333333</ele><time>2026-05-03T12:12:22.856Z</time></trkpt><trkpt lat="42.3223961" lon="14.0915741"><ele>58.66666666666667</ele><time>2026-05-03T12:12:23.857Z</time></trkpt><trkpt lat="42.3224778" lon="14.0917458"><ele>59.0</ele><time>2026-05-03T12:12:24.856Z</time></trkpt><trkpt lat="42.3225585" lon="14.0919127"><ele>59.0</ele><time>2026-05-03T12:12:25.856Z</time></trkpt><trkpt lat="42.3226366" lon="14.0920785"><ele>59.0</ele><time>2026-05-03T12:12:26.856Z</time></trkpt><trkpt lat="42.3227151" lon="14.0922418"><ele>59.0</ele><time>2026-05-03T12:12:27.857Z</time></trkpt><trkpt lat="42.3227907" lon="14.0924004"><ele>59.0</ele><time>2026-05-03T12:12:28.857Z</time></trkpt><trkpt lat="42.322865" lon="14.0925582"><ele>58.75</ele><time>2026-05-03T12:12:29.856Z</time></trkpt><trkpt lat="42.3229383" lon="14.0927171"><ele>58.5</ele><time>2026-05-03T12:12:30.856Z</time></trkpt><trkpt lat="42.3230114" lon="14.0928715"><ele>58.25</ele><time>2026-05-03T12:12:31.857Z</time></trkpt><trkpt lat="42.3230841" lon="14.0930193"><ele>58.0</ele><time>2026-05-03T12:12:32.856Z</time></trkpt><trkpt lat="42.3231552" lon="14.093164"><ele>58.0</ele><time>2026-05-03T12:12:33.855Z</time></trkpt><trkpt lat="42.3232234" lon="14.0933057"><ele>58.0</ele><time>2026-05-03T12:12:34.856Z</time></trkpt><trkpt lat="42.3232921" lon="14.0934454"><ele>58.0</ele><time>2026-05-03T12:12:35.856Z</time></trkpt><trkpt lat="42.3233567" lon="14.0935851"><ele>58.0</ele><time>2026-05-03T12:12:36.856Z</time></trkpt><trkpt lat="42.3234198" lon="14.093725"><ele>58.0</ele><time>2026-05-03T12:12:37.857Z</time></trkpt><trkpt lat="42.3234798" lon="14.0938676"><ele>58.0</ele><time>2026-05-03T12:12:38.856Z</time></trkpt><trkpt lat="42.3235334" lon="14.0940138"><ele>58.0</ele><time>2026-05-03T12:12:39.856Z</time></trkpt><trkpt lat="42.32358" lon="14.0941655"><ele>58.0</ele><time>2026-05-03T12:12:40.856Z</time></trkpt><trkpt lat="42.3236229" lon="14.094323"><ele>58.0</ele><time>2026-05-03T12:12:41.856Z</time></trkpt><trkpt lat="42.3236627" lon="14.0944828"><ele>58.0</ele><time>2026-05-03T12:12:42.856Z</time></trkpt><trkpt lat="42.3236995" lon="14.0946432"><ele>58.0</ele><time>2026-05-03T12:12:43.856Z</time></trkpt><trkpt lat="42.3237384" lon="14.0948046"><ele>58.0</ele><time>2026-05-03T12:12:44.856Z</time></trkpt><trkpt lat="42.323769" lon="14.0949599"><ele>58.2</ele><time>2026-05-03T12:12:45.856Z</time></trkpt><trkpt lat="42.3237967" lon="14.0951046"><ele>58.4</ele><time>2026-05-03T12:12:46.856Z</time></trkpt><trkpt lat="42.3238278" lon="14.0952495"><ele>58.60000000000001</ele><time>2026-05-03T12:12:47.856Z</time></trkpt><trkpt lat="42.3238556" lon="14.0953861"><ele>58.800000000000004</ele><time>2026-05-03T12:12:48.856Z</time></trkpt><trkpt lat="42.3238852" lon="14.0955292"><ele>59.0</ele><time>2026-05-03T12:12:49.857Z</time></trkpt><trkpt lat="42.323916" lon="14.0956731"><ele>58.800000000000004</ele><time>2026-05-03T12:12:50.856Z</time></trkpt><trkpt lat="42.3239437" lon="14.0958106"><ele>58.60000000000001</ele><time>2026-05-03T12:12:51.856Z</time></trkpt><trkpt lat="42.323967" lon="14.095939"><ele>58.4</ele><time>2026-05-03T12:12:52.857Z</time></trkpt><trkpt lat="42.323992" lon="14.0960672"><ele>58.2</ele><time>2026-05-03T12:12:53.856Z</time></trkpt><trkpt lat="42.3240185" lon="14.0961999"><ele>58.0</ele><time>2026-05-03T12:12:54.856Z</time></trkpt><trkpt lat="42.3240461" lon="14.0963352"><ele>58.0</ele><time>2026-05-03T12:12:55.856Z</time></trkpt><trkpt lat="42.3240741" lon="14.0964744"><ele>58.0</ele><time>2026-05-03T12:12:56.857Z</time></trkpt><trkpt lat="42.3241016" lon="14.0966098"><ele>58.0</ele><time>2026-05-03T12:12:57.856Z</time></trkpt><trkpt lat="42.3241278" lon="14.09675"><ele>58.0</ele><time>2026-05-03T12:12:58.856Z</time></trkpt><trkpt lat="42.3241563" lon="14.0968897"><ele>58.0</ele><time>2026-05-03T12:12:59.856Z</time></trkpt><trkpt lat="42.3241855" lon="14.0970307"><ele>58.0</ele><time>2026-05-03T12:13:00.857Z</time></trkpt><trkpt lat="42.3242156" lon="14.0971709"><ele>58.0</ele><time>2026-05-03T12:13:01.856Z</time></trkpt><trkpt lat="42.3242433" lon="14.0973136"><ele>58.0</ele><time>2026-05-03T12:13:02.856Z</time></trkpt><trkpt lat="42.3242713" lon="14.0974488"><ele>58.0</ele><time>2026-05-03T12:13:03.856Z</time></trkpt><trkpt lat="42.3243016" lon="14.0975744"><ele>58.0</ele><time>2026-05-03T12:13:04.857Z</time></trkpt><trkpt lat="42.3243398" lon="14.0976979"><ele>57.75</ele><time>2026-05-03T12:13:05.856Z</time></trkpt><trkpt lat="42.3243874" lon="14.0978289"><ele>57.5</ele><time>2026-05-03T12:13:06.856Z</time></trkpt><trkpt lat="42.3244552" lon="14.0979842"><ele>57.25</ele><time>2026-05-03T12:13:07.857Z</time></trkpt><trkpt lat="42.3245418" lon="14.0981534"><ele>57.0</ele><time>2026-05-03T12:13:08.856Z</time></trkpt><trkpt lat="42.3246527" lon="14.0983299"><ele>55.66666666666667</ele><time>2026-05-03T12:13:09.856Z</time></trkpt><trkpt lat="42.3247812" lon="14.0985398"><ele>54.333333333333336</ele><time>2026-05-03T12:13:10.857Z</time></trkpt><trkpt lat="42.3249185" lon="14.0987867"><ele>53.0</ele><time>2026-05-03T12:13:11.856Z</time></trkpt><trkpt lat="42.3250665" lon="14.0990491"><ele>54.5</ele><time>2026-05-03T12:13:12.857Z</time></trkpt><trkpt lat="42.3252205" lon="14.0992963"><ele>56.0</ele><time>2026-05-03T12:13:13.856Z</time></trkpt><trkpt lat="42.3253627" lon="14.0995307"><ele>56.0</ele><time>2026-05-03T12:13:14.856Z</time></trkpt><trkpt lat="42.3254996" lon="14.0997493"><ele>56.0</ele><time>2026-05-03T12:13:15.858Z</time></trkpt><trkpt lat="42.3256295" lon="14.0999536"><ele>56.0</ele><time>2026-05-03T12:13:16.856Z</time></trkpt><trkpt lat="42.3257546" lon="14.1001495"><ele>55.0</ele><time>2026-05-03T12:13:17.857Z</time></trkpt><trkpt lat="42.3258688" lon="14.1003341"><ele>54.0</ele><time>2026-05-03T12:13:18.856Z</time></trkpt><trkpt lat="42.3259704" lon="14.1005092"><ele>53.0</ele><time>2026-05-03T12:13:19.857Z</time></trkpt><trkpt lat="42.3260477" lon="14.100668"><ele>53.4</ele><time>2026-05-03T12:13:20.856Z</time></trkpt><trkpt lat="42.3261025" lon="14.1008203"><ele>53.8</ele><time>2026-05-03T12:13:21.856Z</time></trkpt><trkpt lat="42.3261355" lon="14.1009563"><ele>54.2</ele><time>2026-05-03T12:13:22.857Z</time></trkpt><trkpt lat="42.3261669" lon="14.1010613"><ele>54.6</ele><time>2026-05-03T12:13:23.857Z</time></trkpt><trkpt lat="42.3262209" lon="14.1011486"><ele>55.0</ele><time>2026-05-03T12:13:24.856Z</time></trkpt><trkpt lat="42.3262943" lon="14.1012187"><ele>55.0</ele><time>2026-05-03T12:13:25.856Z</time></trkpt><trkpt lat="42.3263906" lon="14.1012719"><ele>55.0</ele><time>2026-05-03T12:13:26.857Z</time></trkpt><trkpt lat="42.3264841" lon="14.1013532"><ele>55.0</ele><time>2026-05-03T12:13:27.856Z</time></trkpt><trkpt lat="42.3265862" lon="14.1014727"><ele>55.0</ele><time>2026-05-03T12:13:28.856Z</time></trkpt><trkpt lat="42.3267028" lon="14.1016283"><ele>55.0</ele><time>2026-05-03T12:13:29.856Z</time></trkpt><trkpt lat="42.3268252" lon="14.1018102"><ele>55.0</ele><time>2026-05-03T12:13:30.855Z</time></trkpt><trkpt lat="42.3269381" lon="14.1020065"><ele>55.0</ele><time>2026-05-03T12:13:31.855Z</time></trkpt><trkpt lat="42.3270485" lon="14.1022111"><ele>55.666666666666664</ele><time>2026-05-03T12:13:32.855Z</time></trkpt><trkpt lat="42.3271484" lon="14.1024299"><ele>56.33333333333333</ele><time>2026-05-03T12:13:33.855Z</time></trkpt><trkpt lat="42.3272454" lon="14.1026661"><ele>57.0</ele><time>2026-05-03T12:13:34.855Z</time></trkpt><trkpt lat="42.3273346" lon="14.1029219"><ele>54.33333333333333</ele><time>2026-05-03T12:13:35.855Z</time></trkpt><trkpt lat="42.3274137" lon="14.1031816"><ele>51.666666666666664</ele><time>2026-05-03T12:13:36.855Z</time></trkpt><trkpt lat="42.3274869" lon="14.1034268"><ele>49.0</ele><time>2026-05-03T12:13:37.855Z</time></trkpt><trkpt lat="42.3275555" lon="14.103653"><ele>49.0</ele><time>2026-05-03T12:13:38.855Z</time></trkpt><trkpt lat="42.3276183" lon="14.1038521"><ele>49.0</ele><time>2026-05-03T12:13:39.855Z</time></trkpt><trkpt lat="42.3276773" lon="14.1040353"><ele>49.0</ele><time>2026-05-03T12:13:40.855Z</time></trkpt><trkpt lat="42.327731" lon="14.1042128"><ele>48.5</ele><time>2026-05-03T12:13:41.855Z</time></trkpt><trkpt lat="42.3277832" lon="14.1043799"><ele>48.0</ele><time>2026-05-03T12:13:42.855Z</time></trkpt><trkpt lat="42.3278407" lon="14.1045514"><ele>47.5</ele><time>2026-05-03T12:13:43.856Z</time></trkpt><trkpt lat="42.3279076" lon="14.1047418"><ele>47.0</ele><time>2026-05-03T12:13:44.856Z</time></trkpt><trkpt lat="42.3279774" lon="14.1049685"><ele>46.666666666666664</ele><time>2026-05-03T12:13:45.856Z</time></trkpt><trkpt lat="42.3280455" lon="14.1052087"><ele>46.333333333333336</ele><time>2026-05-03T12:13:46.856Z</time></trkpt><trkpt lat="42.3281185" lon="14.1054531"><ele>46.0</ele><time>2026-05-03T12:13:47.855Z</time></trkpt><trkpt lat="42.3281955" lon="14.1056997"><ele>46.0</ele><time>2026-05-03T12:13:48.855Z</time></trkpt><trkpt lat="42.328274" lon="14.1059501"><ele>46.0</ele><time>2026-05-03T12:13:49.856Z</time></trkpt><trkpt lat="42.3283511" lon="14.1061969"><ele>46.0</ele><time>2026-05-03T12:13:50.855Z</time></trkpt><trkpt lat="42.3284297" lon="14.1064359"><ele>46.0</ele><time>2026-05-03T12:13:51.855Z</time></trkpt><trkpt lat="42.328503" lon="14.1066649"><ele>46.0</ele><time>2026-05-03T12:13:52.855Z</time></trkpt><trkpt lat="42.3285708" lon="14.10689"><ele>46.0</ele><time>2026-05-03T12:13:53.856Z</time></trkpt><trkpt lat="42.3286408" lon="14.1071092"><ele>46.0</ele><time>2026-05-03T12:13:54.855Z</time></trkpt><trkpt lat="42.3287076" lon="14.1073206"><ele>46.0</ele><time>2026-05-03T12:13:55.855Z</time></trkpt><trkpt lat="42.3287735" lon="14.1075279"><ele>46.0</ele><time>2026-05-03T12:13:56.855Z</time></trkpt><trkpt lat="42.3288426" lon="14.1077329"><ele>44.333333333333336</ele><time>2026-05-03T12:13:57.855Z</time></trkpt><trkpt lat="42.3289148" lon="14.1079444"><ele>42.666666666666664</ele><time>2026-05-03T12:13:58.855Z</time></trkpt><trkpt lat="42.3289804" lon="14.1081646"><ele>41.0</ele><time>2026-05-03T12:13:59.856Z</time></trkpt><trkpt lat="42.329047" lon="14.1083823"><ele>41.0</ele><time>2026-05-03T12:14:00.856Z</time></trkpt><trkpt lat="42.3291131" lon="14.1085984"><ele>41.0</ele><time>2026-05-03T12:14:01.855Z</time></trkpt><trkpt lat="42.3291774" lon="14.1088069"><ele>41.0</ele><time>2026-05-03T12:14:02.855Z</time></trkpt><trkpt lat="42.3292425" lon="14.1090082"><ele>41.666666666666664</ele><time>2026-05-03T12:14:03.856Z</time></trkpt><trkpt lat="42.3293126" lon="14.1092105"><ele>42.333333333333336</ele><time>2026-05-03T12:14:04.856Z</time></trkpt><trkpt lat="42.3293795" lon="14.1094263"><ele>43.0</ele><time>2026-05-03T12:14:05.856Z</time></trkpt><trkpt lat="42.3294489" lon="14.1096617"><ele>43.0</ele><time>2026-05-03T12:14:06.856Z</time></trkpt><trkpt lat="42.3295167" lon="14.1099033"><ele>43.0</ele><time>2026-05-03T12:14:07.855Z</time></trkpt><trkpt lat="42.3295899" lon="14.1101482"><ele>43.0</ele><time>2026-05-03T12:14:08.855Z</time></trkpt><trkpt lat="42.3296637" lon="14.1103897"><ele>42.66666666666667</ele><time>2026-05-03T12:14:09.855Z</time></trkpt><trkpt lat="42.3297393" lon="14.1106276"><ele>42.333333333333336</ele><time>2026-05-03T12:14:10.856Z</time></trkpt><trkpt lat="42.3298155" lon="14.1108624"><ele>42.0</ele><time>2026-05-03T12:14:11.856Z</time></trkpt><trkpt lat="42.3298906" lon="14.1110957"><ele>42.0</ele><time>2026-05-03T12:14:12.855Z</time></trkpt><trkpt lat="42.3299639" lon="14.1113233"><ele>42.0</ele><time>2026-05-03T12:14:13.855Z</time></trkpt><trkpt lat="42.3300345" lon="14.1115488"><ele>42.0</ele><time>2026-05-03T12:14:14.855Z</time></trkpt><trkpt lat="42.3301032" lon="14.1117694"><ele>42.333333333333336</ele><time>2026-05-03T12:14:15.856Z</time></trkpt><trkpt lat="42.3301715" lon="14.1119853"><ele>42.66666666666667</ele><time>2026-05-03T12:14:16.856Z</time></trkpt><trkpt lat="42.3302365" lon="14.1121936"><ele>43.0</ele><time>2026-05-03T12:14:17.855Z</time></trkpt><trkpt lat="42.330296" lon="14.1123895"><ele>43.0</ele><time>2026-05-03T12:14:18.855Z</time></trkpt><trkpt lat="42.3303479" lon="14.112574"><ele>43.0</ele><time>2026-05-03T12:14:19.856Z</time></trkpt><trkpt lat="42.3303919" lon="14.112744"><ele>43.0</ele><time>2026-05-03T12:14:20.855Z</time></trkpt><trkpt lat="42.3304231" lon="14.1129221"><ele>43.0</ele><time>2026-05-03T12:14:21.856Z</time></trkpt><trkpt lat="42.3304492" lon="14.1130858"><ele>43.0</ele><time>2026-05-03T12:14:22.855Z</time></trkpt><trkpt lat="42.3304977" lon="14.1132145"><ele>43.0</ele><time>2026-05-03T12:14:23.856Z</time></trkpt><trkpt lat="42.3305653" lon="14.113335"><ele>43.0</ele><time>2026-05-03T12:14:24.856Z</time></trkpt><trkpt lat="42.3306314" lon="14.1134813"><ele>43.0</ele><time>2026-05-03T12:14:25.855Z</time></trkpt><trkpt lat="42.3306924" lon="14.1136603"><ele>41.333333333333336</ele><time>2026-05-03T12:14:26.856Z</time></trkpt><trkpt lat="42.3307582" lon="14.1138552"><ele>39.666666666666664</ele><time>2026-05-03T12:14:27.855Z</time></trkpt><trkpt lat="42.3308245" lon="14.1140613"><ele>38.0</ele><time>2026-05-03T12:14:28.855Z</time></trkpt><trkpt lat="42.3308938" lon="14.1142806"><ele>38.0</ele><time>2026-05-03T12:14:29.855Z</time></trkpt><trkpt lat="42.3309674" lon="14.1145116"><ele>38.0</ele><time>2026-05-03T12:14:30.856Z</time></trkpt><trkpt lat="42.3310401" lon="14.1147445"><ele>38.0</ele><time>2026-05-03T12:14:31.855Z</time></trkpt><trkpt lat="42.3311128" lon="14.1149803"><ele>38.0</ele><time>2026-05-03T12:14:32.855Z</time></trkpt><trkpt lat="42.3311855" lon="14.1152179"><ele>38.0</ele><time>2026-05-03T12:14:33.856Z</time></trkpt><trkpt lat="42.33126" lon="14.1154598"><ele>38.0</ele><time>2026-05-03T12:14:34.856Z</time></trkpt><trkpt lat="42.3313348" lon="14.1157028"><ele>38.0</ele><time>2026-05-03T12:14:35.855Z</time></trkpt><trkpt lat="42.3314082" lon="14.1159395"><ele>38.0</ele><time>2026-05-03T12:14:36.855Z</time></trkpt><trkpt lat="42.3314825" lon="14.11617"><ele>38.0</ele><time>2026-05-03T12:14:37.855Z</time></trkpt><trkpt lat="42.3315561" lon="14.1164039"><ele>38.0</ele><time>2026-05-03T12:14:38.856Z</time></trkpt><trkpt lat="42.3316279" lon="14.1166342"><ele>38.0</ele><time>2026-05-03T12:14:39.855Z</time></trkpt><trkpt lat="42.3316981" lon="14.1168602"><ele>38.0</ele><time>2026-05-03T12:14:40.856Z</time></trkpt><trkpt lat="42.3317664" lon="14.1170866"><ele>38.0</ele><time>2026-05-03T12:14:41.855Z</time></trkpt><trkpt lat="42.3318376" lon="14.1173166"><ele>38.0</ele><time>2026-05-03T12:14:42.856Z</time></trkpt><trkpt lat="42.3319117" lon="14.1175489"><ele>38.0</ele><time>2026-05-03T12:14:43.855Z</time></trkpt><trkpt lat="42.3319831" lon="14.1177804"><ele>38.666666666666664</ele><time>2026-05-03T12:14:44.855Z</time></trkpt><trkpt lat="42.3320574" lon="14.1180129"><ele>39.333333333333336</ele><time>2026-05-03T12:14:45.855Z</time></trkpt><trkpt lat="42.3321334" lon="14.1182438"><ele>40.0</ele><time>2026-05-03T12:14:46.856Z</time></trkpt><trkpt lat="42.3322046" lon="14.1184693"><ele>39.333333333333336</ele><time>2026-05-03T12:14:47.855Z</time></trkpt><trkpt lat="42.332275" lon="14.1186851"><ele>38.666666666666664</ele><time>2026-05-03T12:14:48.855Z</time></trkpt><trkpt lat="42.3323416" lon="14.1188917"><ele>38.0</ele><time>2026-05-03T12:14:49.856Z</time></trkpt><trkpt lat="42.3324061" lon="14.1190873"><ele>37.75</ele><time>2026-05-03T12:14:50.855Z</time></trkpt><trkpt lat="42.3324628" lon="14.1192629"><ele>37.5</ele><time>2026-05-03T12:14:51.855Z</time></trkpt><trkpt lat="42.332518" lon="14.1194278"><ele>37.25</ele><time>2026-05-03T12:14:52.855Z</time></trkpt><trkpt lat="42.3325653" lon="14.1195864"><ele>37.0</ele><time>2026-05-03T12:14:53.855Z</time></trkpt><trkpt lat="42.3326126" lon="14.1197435"><ele>37.0</ele><time>2026-05-03T12:14:54.855Z</time></trkpt><trkpt lat="42.3326616" lon="14.119889"><ele>37.0</ele><time>2026-05-03T12:14:55.855Z</time></trkpt><trkpt lat="42.332722" lon="14.1200541"><ele>37.0</ele><time>2026-05-03T12:14:56.856Z</time></trkpt><trkpt lat="42.3327859" lon="14.1202477"><ele>37.0</ele><time>2026-05-03T12:14:57.855Z</time></trkpt><trkpt lat="42.3328603" lon="14.1204865"><ele>38.0</ele><time>2026-05-03T12:14:58.855Z</time></trkpt><trkpt lat="42.3329353" lon="14.1207384"><ele>39.0</ele><time>2026-05-03T12:14:59.855Z</time></trkpt><trkpt lat="42.3330089" lon="14.1210015"><ele>40.0</ele><time>2026-05-03T12:15:00.856Z</time></trkpt><trkpt lat="42.3330869" lon="14.1212548"><ele>40.66666666666667</ele><time>2026-05-03T12:15:01.855Z</time></trkpt><trkpt lat="42.3331643" lon="14.1215114"><ele>41.333333333333336</ele><time>2026-05-03T12:15:02.855Z</time></trkpt><trkpt lat="42.3332432" lon="14.1217636"><ele>42.0</ele><time>2026-05-03T12:15:03.855Z</time></trkpt><trkpt lat="42.3333188" lon="14.122013"><ele>42.0</ele><time>2026-05-03T12:15:04.856Z</time></trkpt><trkpt lat="42.3333956" lon="14.1222478"><ele>42.0</ele><time>2026-05-03T12:15:05.855Z</time></trkpt><trkpt lat="42.3334656" lon="14.1224695"><ele>42.0</ele><time>2026-05-03T12:15:06.855Z</time></trkpt><trkpt lat="42.3335327" lon="14.1226787"><ele>42.333333333333336</ele><time>2026-05-03T12:15:07.855Z</time></trkpt><trkpt lat="42.3335995" lon="14.1228811"><ele>42.66666666666667</ele><time>2026-05-03T12:15:08.855Z</time></trkpt><trkpt lat="42.3336591" lon="14.1230785"><ele>43.0</ele><time>2026-05-03T12:15:09.856Z</time></trkpt><trkpt lat="42.3337206" lon="14.1232767"><ele>43.0</ele><time>2026-05-03T12:15:10.856Z</time></trkpt><trkpt lat="42.3337818" lon="14.123478"><ele>43.0</ele><time>2026-05-03T12:15:11.856Z</time></trkpt><trkpt lat="42.333847" lon="14.1236781"><ele>43.0</ele><time>2026-05-03T12:15:12.855Z</time></trkpt><trkpt lat="42.3339098" lon="14.1238772"><ele>42.333333333333336</ele><time>2026-05-03T12:15:13.855Z</time></trkpt><trkpt lat="42.3339727" lon="14.1240726"><ele>41.666666666666664</ele><time>2026-05-03T12:15:14.856Z</time></trkpt><trkpt lat="42.3340342" lon="14.1242734"><ele>41.0</ele><time>2026-05-03T12:15:15.855Z</time></trkpt><trkpt lat="42.3340998" lon="14.1244755"><ele>41.0</ele><time>2026-05-03T12:15:16.855Z</time></trkpt><trkpt lat="42.3341663" lon="14.1246787"><ele>41.0</ele><time>2026-05-03T12:15:17.855Z</time></trkpt><trkpt lat="42.3342315" lon="14.1248849"><ele>41.0</ele><time>2026-05-03T12:15:18.855Z</time></trkpt><trkpt lat="42.3342957" lon="14.1250902"><ele>41.666666666666664</ele><time>2026-05-03T12:15:19.856Z</time></trkpt><trkpt lat="42.3343629" lon="14.1252936"><ele>42.333333333333336</ele><time>2026-05-03T12:15:20.855Z</time></trkpt><trkpt lat="42.3344296" lon="14.1255025"><ele>43.0</ele><time>2026-05-03T12:15:21.855Z</time></trkpt><trkpt lat="42.3344946" lon="14.1257055"><ele>43.66666666666667</ele><time>2026-05-03T12:15:22.855Z</time></trkpt><trkpt lat="42.3345561" lon="14.1259065"><ele>44.333333333333336</ele><time>2026-05-03T12:15:23.855Z</time></trkpt><trkpt lat="42.3346191" lon="14.126106"><ele>45.0</ele><time>2026-05-03T12:15:24.855Z</time></trkpt><trkpt lat="42.3346873" lon="14.1263115"><ele>45.0</ele><time>2026-05-03T12:15:25.855Z</time></trkpt><trkpt lat="42.3347585" lon="14.1265242"><ele>45.0</ele><time>2026-05-03T12:15:26.855Z</time></trkpt><trkpt lat="42.3348336" lon="14.1267477"><ele>45.0</ele><time>2026-05-03T12:15:27.856Z</time></trkpt><trkpt lat="42.3349115" lon="14.1269771"><ele>45.333333333333336</ele><time>2026-05-03T12:15:28.855Z</time></trkpt><trkpt lat="42.3349866" lon="14.1272138"><ele>45.66666666666667</ele><time>2026-05-03T12:15:29.856Z</time></trkpt><trkpt lat="42.33506" lon="14.1274531"><ele>46.0</ele><time>2026-05-03T12:15:30.855Z</time></trkpt><trkpt lat="42.3351313" lon="14.1276959"><ele>46.66666666666667</ele><time>2026-05-03T12:15:31.856Z</time></trkpt><trkpt lat="42.335203" lon="14.1279422"><ele>47.333333333333336</ele><time>2026-05-03T12:15:32.856Z</time></trkpt><trkpt lat="42.3352767" lon="14.1281883"><ele>48.0</ele><time>2026-05-03T12:15:33.855Z</time></trkpt><trkpt lat="42.3353524" lon="14.1284301"><ele>48.33333333333333</ele><time>2026-05-03T12:15:34.855Z</time></trkpt><trkpt lat="42.3354274" lon="14.1286692"><ele>48.666666666666664</ele><time>2026-05-03T12:15:35.856Z</time></trkpt><trkpt lat="42.3354993" lon="14.1289049"><ele>49.0</ele><time>2026-05-03T12:15:36.855Z</time></trkpt><trkpt lat="42.3355726" lon="14.1291327"><ele>49.33333333333333</ele><time>2026-05-03T12:15:37.856Z</time></trkpt><trkpt lat="42.3356428" lon="14.1293605"><ele>49.66666666666667</ele><time>2026-05-03T12:15:38.855Z</time></trkpt><trkpt lat="42.3357166" lon="14.1295909"><ele>50.0</ele><time>2026-05-03T12:15:39.855Z</time></trkpt><trkpt lat="42.3357904" lon="14.1298241"><ele>50.66666666666667</ele><time>2026-05-03T12:15:40.856Z</time></trkpt><trkpt lat="42.3358641" lon="14.1300595"><ele>51.33333333333333</ele><time>2026-05-03T12:15:41.855Z</time></trkpt><trkpt lat="42.3359372" lon="14.1302952"><ele>52.0</ele><time>2026-05-03T12:15:42.855Z</time></trkpt><trkpt lat="42.3360111" lon="14.1305281"><ele>52.0</ele><time>2026-05-03T12:15:43.856Z</time></trkpt><trkpt lat="42.336084" lon="14.1307619"><ele>52.0</ele><time>2026-05-03T12:15:44.856Z</time></trkpt><trkpt lat="42.3361553" lon="14.1309935"><ele>52.0</ele><time>2026-05-03T12:15:45.855Z</time></trkpt><trkpt lat="42.3362236" lon="14.1312177"><ele>52.0</ele><time>2026-05-03T12:15:46.856Z</time></trkpt><trkpt lat="42.3362927" lon="14.1314396"><ele>52.0</ele><time>2026-05-03T12:15:47.855Z</time></trkpt><trkpt lat="42.3363626" lon="14.1316562"><ele>52.0</ele><time>2026-05-03T12:15:48.855Z</time></trkpt><trkpt lat="42.3364382" lon="14.1318679"><ele>52.0</ele><time>2026-05-03T12:15:49.856Z</time></trkpt><trkpt lat="42.336529" lon="14.1320657"><ele>52.0</ele><time>2026-05-03T12:15:50.855Z</time></trkpt><trkpt lat="42.3366355" lon="14.1322482"><ele>52.0</ele><time>2026-05-03T12:15:51.855Z</time></trkpt><trkpt lat="42.3367586" lon="14.1324135"><ele>52.666666666666664</ele><time>2026-05-03T12:15:52.855Z</time></trkpt><trkpt lat="42.336895" lon="14.1325603"><ele>53.33333333333333</ele><time>2026-05-03T12:15:53.856Z</time></trkpt><trkpt lat="42.337038" lon="14.1326846"><ele>54.0</ele><time>2026-05-03T12:15:54.856Z</time></trkpt><trkpt lat="42.3371863" lon="14.1327836"><ele>54.33333333333333</ele><time>2026-05-03T12:15:55.856Z</time></trkpt><trkpt lat="42.3373431" lon="14.1328615"><ele>54.666666666666664</ele><time>2026-05-03T12:15:56.856Z</time></trkpt><trkpt lat="42.3375087" lon="14.132922"><ele>55.0</ele><time>2026-05-03T12:15:57.854Z</time></trkpt><trkpt lat="42.3376809" lon="14.1329804"><ele>55.0</ele><time>2026-05-03T12:15:58.856Z</time></trkpt><trkpt lat="42.3378542" lon="14.1330374"><ele>55.0</ele><time>2026-05-03T12:15:59.855Z</time></trkpt><trkpt lat="42.3380323" lon="14.1330936"><ele>55.0</ele><time>2026-05-03T12:16:00.856Z</time></trkpt><trkpt lat="42.3382132" lon="14.1331498"><ele>55.0</ele><time>2026-05-03T12:16:01.856Z</time></trkpt><trkpt lat="42.3383941" lon="14.1332066"><ele>55.0</ele><time>2026-05-03T12:16:02.855Z</time></trkpt><trkpt lat="42.3385759" lon="14.1332608"><ele>55.0</ele><time>2026-05-03T12:16:03.856Z</time></trkpt><trkpt lat="42.3387527" lon="14.1333145"><ele>55.33333333333333</ele><time>2026-05-03T12:16:04.855Z</time></trkpt><trkpt lat="42.3389269" lon="14.1333683"><ele>55.66666666666667</ele><time>2026-05-03T12:16:05.856Z</time></trkpt><trkpt lat="42.3391011" lon="14.1334202"><ele>56.0</ele><time>2026-05-03T12:16:06.855Z</time></trkpt><trkpt lat="42.3392705" lon="14.1334721"><ele>56.0</ele><time>2026-05-03T12:16:07.856Z</time></trkpt><trkpt lat="42.3394309" lon="14.13352"><ele>56.0</ele><time>2026-05-03T12:16:08.855Z</time></trkpt><trkpt lat="42.3395792" lon="14.1335651"><ele>56.0</ele><time>2026-05-03T12:16:09.855Z</time></trkpt><trkpt lat="42.3397202" lon="14.1336071"><ele>55.75</ele><time>2026-05-03T12:16:10.855Z</time></trkpt><trkpt lat="42.3398521" lon="14.133643"><ele>55.5</ele><time>2026-05-03T12:16:11.855Z</time></trkpt><trkpt lat="42.3399767" lon="14.1336794"><ele>55.25</ele><time>2026-05-03T12:16:12.855Z</time></trkpt><trkpt lat="42.3400933" lon="14.133717"><ele>55.0</ele><time>2026-05-03T12:16:13.855Z</time></trkpt><trkpt lat="42.3401996" lon="14.1337516"><ele>54.99999999999999</ele><time>2026-05-03T12:16:14.856Z</time></trkpt><trkpt lat="42.3402879" lon="14.133785"><ele>55.0</ele><time>2026-05-03T12:16:15.855Z</time></trkpt><trkpt lat="42.3403666" lon="14.1338274"><ele>55.0</ele><time>2026-05-03T12:16:16.855Z</time></trkpt><trkpt lat="42.3404313" lon="14.1338812"><ele>55.0</ele><time>2026-05-03T12:16:17.855Z</time></trkpt><trkpt lat="42.3404836" lon="14.1339392"><ele>54.99999999999999</ele><time>2026-05-03T12:16:18.855Z</time></trkpt><trkpt lat="42.3405371" lon="14.1339874"><ele>55.0</ele><time>2026-05-03T12:16:19.856Z</time></trkpt><trkpt lat="42.3406026" lon="14.1339991"><ele>54.6</ele><time>2026-05-03T12:16:20.855Z</time></trkpt><trkpt lat="42.3406932" lon="14.1339091"><ele>54.2</ele><time>2026-05-03T12:16:22.855Z</time></trkpt><trkpt lat="42.3407042" lon="14.1338211"><ele>53.8</ele><time>2026-05-03T12:16:23.855Z</time></trkpt><trkpt lat="42.3406858" lon="14.1337207"><ele>53.4</ele><time>2026-05-03T12:16:24.855Z</time></trkpt><trkpt lat="42.3406727" lon="14.1335966"><ele>53.0</ele><time>2026-05-03T12:16:25.855Z</time></trkpt><trkpt lat="42.3406977" lon="14.1334622"><ele>53.0</ele><time>2026-05-03T12:16:26.855Z</time></trkpt><trkpt lat="42.3407612" lon="14.1333074"><ele>53.0</ele><time>2026-05-03T12:16:27.856Z</time></trkpt><trkpt lat="42.3408405" lon="14.1331591"><ele>53.0</ele><time>2026-05-03T12:16:28.855Z</time></trkpt><trkpt lat="42.3409272" lon="14.1330096"><ele>53.0</ele><time>2026-05-03T12:16:29.855Z</time></trkpt><trkpt lat="42.341018" lon="14.1328636"><ele>52.5</ele><time>2026-05-03T12:16:30.855Z</time></trkpt><trkpt lat="42.3411076" lon="14.132724"><ele>52.0</ele><time>2026-05-03T12:16:31.855Z</time></trkpt><trkpt lat="42.3412047" lon="14.1325812"><ele>51.5</ele><time>2026-05-03T12:16:32.856Z</time></trkpt><trkpt lat="42.3413017" lon="14.1324349"><ele>51.0</ele><time>2026-05-03T12:16:33.857Z</time></trkpt><trkpt lat="42.3413832" lon="14.1322923"><ele>50.25</ele><time>2026-05-03T12:16:34.855Z</time></trkpt><trkpt lat="42.3414603" lon="14.1321324"><ele>49.5</ele><time>2026-05-03T12:16:35.856Z</time></trkpt><trkpt lat="42.3415249" lon="14.1319666"><ele>48.75</ele><time>2026-05-03T12:16:36.855Z</time></trkpt><trkpt lat="42.3415812" lon="14.1317927"><ele>48.0</ele><time>2026-05-03T12:16:37.855Z</time></trkpt><trkpt lat="42.3416352" lon="14.1316234"><ele>47.75</ele><time>2026-05-03T12:16:38.855Z</time></trkpt><trkpt lat="42.3416851" lon="14.131468"><ele>47.5</ele><time>2026-05-03T12:16:39.855Z</time></trkpt><trkpt lat="42.3417435" lon="14.1313326"><ele>47.25</ele><time>2026-05-03T12:16:40.855Z</time></trkpt><trkpt lat="42.3418056" lon="14.1311951"><ele>47.0</ele><time>2026-05-03T12:16:41.855Z</time></trkpt><trkpt lat="42.3418427" lon="14.1310355"><ele>47.0</ele><time>2026-05-03T12:16:42.854Z</time></trkpt><trkpt lat="42.3418761" lon="14.1308685"><ele>47.0</ele><time>2026-05-03T12:16:43.856Z</time></trkpt><trkpt lat="42.3419136" lon="14.1307002"><ele>47.0</ele><time>2026-05-03T12:16:44.855Z</time></trkpt><trkpt lat="42.341943" lon="14.1305431"><ele>47.0</ele><time>2026-05-03T12:16:45.855Z</time></trkpt><trkpt lat="42.341976" lon="14.130396"><ele>46.83333333333333</ele><time>2026-05-03T12:16:46.856Z</time></trkpt><trkpt lat="42.3420036" lon="14.1302557"><ele>46.666666666666664</ele><time>2026-05-03T12:16:47.855Z</time></trkpt><trkpt lat="42.342011" lon="14.1301238"><ele>46.5</ele><time>2026-05-03T12:16:48.855Z</time></trkpt><trkpt lat="42.3420247" lon="14.1300018"><ele>46.333333333333336</ele><time>2026-05-03T12:16:49.855Z</time></trkpt><trkpt lat="42.3420372" lon="14.129901"><ele>46.16666666666667</ele><time>2026-05-03T12:16:50.855Z</time></trkpt><trkpt lat="42.3420586" lon="14.1298045"><ele>46.0</ele><time>2026-05-03T12:16:51.856Z</time></trkpt><trkpt lat="42.3421022" lon="14.1297121"><ele>45.66666666666667</ele><time>2026-05-03T12:16:52.855Z</time></trkpt><trkpt lat="42.3421495" lon="14.1296065"><ele>45.333333333333336</ele><time>2026-05-03T12:16:53.856Z</time></trkpt><trkpt lat="42.3421777" lon="14.1294972"><ele>45.0</ele><time>2026-05-03T12:16:54.855Z</time></trkpt><trkpt lat="42.3421807" lon="14.1293909"><ele>44.666666666666664</ele><time>2026-05-03T12:16:55.856Z</time></trkpt><trkpt lat="42.3421489" lon="14.1292907"><ele>44.33333333333333</ele><time>2026-05-03T12:16:56.856Z</time></trkpt><trkpt lat="42.3420865" lon="14.1292169"><ele>44.0</ele><time>2026-05-03T12:16:57.855Z</time></trkpt><trkpt lat="42.3420135" lon="14.1291365"><ele>42.75</ele><time>2026-05-03T12:16:58.855Z</time></trkpt><trkpt lat="42.3419466" lon="14.1290226"><ele>41.5</ele><time>2026-05-03T12:16:59.855Z</time></trkpt><trkpt lat="42.3418959" lon="14.1288752"><ele>40.25</ele><time>2026-05-03T12:17:00.855Z</time></trkpt><trkpt lat="42.3418527" lon="14.1287022"><ele>39.0</ele><time>2026-05-03T12:17:01.855Z</time></trkpt><trkpt lat="42.3418043" lon="14.1285035"><ele>39.0</ele><time>2026-05-03T12:17:02.856Z</time></trkpt><trkpt lat="42.3417617" lon="14.1282816"><ele>39.0</ele><time>2026-05-03T12:17:03.855Z</time></trkpt><trkpt lat="42.3417199" lon="14.128032"><ele>39.0</ele><time>2026-05-03T12:17:04.855Z</time></trkpt><trkpt lat="42.3416763" lon="14.1277662"><ele>38.333333333333336</ele><time>2026-05-03T12:17:05.855Z</time></trkpt><trkpt lat="42.3416278" lon="14.1274901"><ele>37.66666666666667</ele><time>2026-05-03T12:17:06.855Z</time></trkpt><trkpt lat="42.3415773" lon="14.1272089"><ele>37.0</ele><time>2026-05-03T12:17:07.855Z</time></trkpt><trkpt lat="42.3415269" lon="14.126927"><ele>36.333333333333336</ele><time>2026-05-03T12:17:08.855Z</time></trkpt><trkpt lat="42.3414764" lon="14.1266449"><ele>35.666666666666664</ele><time>2026-05-03T12:17:09.855Z</time></trkpt><trkpt lat="42.3414271" lon="14.1263594"><ele>35.0</ele><time>2026-05-03T12:17:10.856Z</time></trkpt><trkpt lat="42.3413785" lon="14.1260744"><ele>35.0</ele><time>2026-05-03T12:17:11.855Z</time></trkpt><trkpt lat="42.3413311" lon="14.1257904"><ele>35.0</ele><time>2026-05-03T12:17:12.855Z</time></trkpt><trkpt lat="42.3412817" lon="14.1255083"><ele>35.0</ele><time>2026-05-03T12:17:13.856Z</time></trkpt><trkpt lat="42.3412345" lon="14.1252339"><ele>35.0</ele><time>2026-05-03T12:17:14.855Z</time></trkpt><trkpt lat="42.3411885" lon="14.1249545"><ele>35.0</ele><time>2026-05-03T12:17:15.856Z</time></trkpt><trkpt lat="42.3411414" lon="14.1246756"><ele>35.0</ele><time>2026-05-03T12:17:16.855Z</time></trkpt><trkpt lat="42.3410927" lon="14.1243913"><ele>35.0</ele><time>2026-05-03T12:17:17.855Z</time></trkpt><trkpt lat="42.3410446" lon="14.1241088"><ele>35.0</ele><time>2026-05-03T12:17:18.855Z</time></trkpt><trkpt lat="42.3409968" lon="14.1238339"><ele>35.0</ele><time>2026-05-03T12:17:19.855Z</time></trkpt><trkpt lat="42.3409519" lon="14.1235664"><ele>35.0</ele><time>2026-05-03T12:17:20.856Z</time></trkpt><trkpt lat="42.3409084" lon="14.1233061"><ele>35.0</ele><time>2026-05-03T12:17:21.856Z</time></trkpt><trkpt lat="42.3408689" lon="14.1230656"><ele>35.0</ele><time>2026-05-03T12:17:22.855Z</time></trkpt><trkpt lat="42.3408321" lon="14.12284"><ele>35.0</ele><time>2026-05-03T12:17:23.855Z</time></trkpt><trkpt lat="42.3408051" lon="14.1226288"><ele>35.0</ele><time>2026-05-03T12:17:24.855Z</time></trkpt><trkpt lat="42.340793" lon="14.122411"><ele>35.0</ele><time>2026-05-03T12:17:25.856Z</time></trkpt><trkpt lat="42.3407985" lon="14.1221926"><ele>34.8</ele><time>2026-05-03T12:17:26.855Z</time></trkpt><trkpt lat="42.3408246" lon="14.1219998"><ele>34.6</ele><time>2026-05-03T12:17:27.855Z</time></trkpt><trkpt lat="42.3408623" lon="14.1218503"><ele>34.4</ele><time>2026-05-03T12:17:28.855Z</time></trkpt><trkpt lat="42.3409111" lon="14.1217379"><ele>34.2</ele><time>2026-05-03T12:17:29.855Z</time></trkpt><trkpt lat="42.3409723" lon="14.1216633"><ele>34.0</ele><time>2026-05-03T12:17:30.855Z</time></trkpt><trkpt lat="42.3410424" lon="14.1216005"><ele>33.2</ele><time>2026-05-03T12:17:31.855Z</time></trkpt><trkpt lat="42.341107" lon="14.1215388"><ele>32.4</ele><time>2026-05-03T12:17:32.856Z</time></trkpt><trkpt lat="42.3411514" lon="14.1214454"><ele>31.6</ele><time>2026-05-03T12:17:33.855Z</time></trkpt><trkpt lat="42.3411793" lon="14.1213237"><ele>30.8</ele><time>2026-05-03T12:17:34.855Z</time></trkpt><trkpt lat="42.3411955" lon="14.1211864"><ele>30.0</ele><time>2026-05-03T12:17:35.855Z</time></trkpt><trkpt lat="42.3412195" lon="14.1210501"><ele>30.0</ele><time>2026-05-03T12:17:36.855Z</time></trkpt><trkpt lat="42.3412661" lon="14.1209095"><ele>30.0</ele><time>2026-05-03T12:17:37.855Z</time></trkpt><trkpt lat="42.3413336" lon="14.1207728"><ele>30.0</ele><time>2026-05-03T12:17:38.855Z</time></trkpt><trkpt lat="42.3414125" lon="14.1206283"><ele>30.0</ele><time>2026-05-03T12:17:39.856Z</time></trkpt><trkpt lat="42.3414988" lon="14.1204739"><ele>31.0</ele><time>2026-05-03T12:17:40.856Z</time></trkpt><trkpt lat="42.3415869" lon="14.120313"><ele>32.0</ele><time>2026-05-03T12:17:41.855Z</time></trkpt><trkpt lat="42.3416797" lon="14.1201467"><ele>33.0</ele><time>2026-05-03T12:17:42.855Z</time></trkpt><trkpt lat="42.3417763" lon="14.119976"><ele>32.333333333333336</ele><time>2026-05-03T12:17:43.855Z</time></trkpt><trkpt lat="42.3418765" lon="14.1197997"><ele>31.666666666666668</ele><time>2026-05-03T12:17:44.855Z</time></trkpt><trkpt lat="42.3419778" lon="14.119619"><ele>31.0</ele><time>2026-05-03T12:17:45.855Z</time></trkpt><trkpt lat="42.3420798" lon="14.1194312"><ele>31.0</ele><time>2026-05-03T12:17:46.855Z</time></trkpt><trkpt lat="42.3421817" lon="14.119239"><ele>31.0</ele><time>2026-05-03T12:17:47.856Z</time></trkpt><trkpt lat="42.3422826" lon="14.1190421"><ele>31.0</ele><time>2026-05-03T12:17:48.855Z</time></trkpt><trkpt lat="42.3423767" lon="14.1188344"><ele>31.666666666666668</ele><time>2026-05-03T12:17:49.856Z</time></trkpt><trkpt lat="42.3424542" lon="14.1186156"><ele>32.333333333333336</ele><time>2026-05-03T12:17:50.856Z</time></trkpt><trkpt lat="42.3425147" lon="14.1183888"><ele>33.0</ele><time>2026-05-03T12:17:51.855Z</time></trkpt><trkpt lat="42.3425643" lon="14.1181586"><ele>35.0</ele><time>2026-05-03T12:17:52.856Z</time></trkpt><trkpt lat="42.3426113" lon="14.1179253"><ele>37.0</ele><time>2026-05-03T12:17:53.855Z</time></trkpt><trkpt lat="42.3426545" lon="14.1176947"><ele>39.0</ele><time>2026-05-03T12:17:54.855Z</time></trkpt><trkpt lat="42.3426984" lon="14.1174663"><ele>41.0</ele><time>2026-05-03T12:17:55.855Z</time></trkpt><trkpt lat="42.3427434" lon="14.1172413"><ele>43.0</ele><time>2026-05-03T12:17:56.855Z</time></trkpt><trkpt lat="42.3427881" lon="14.1170196"><ele>45.0</ele><time>2026-05-03T12:17:57.857Z</time></trkpt><trkpt lat="42.3428252" lon="14.1167968"><ele>45.0</ele><time>2026-05-03T12:17:58.856Z</time></trkpt><trkpt lat="42.3428636" lon="14.1165817"><ele>45.0</ele><time>2026-05-03T12:17:59.855Z</time></trkpt><trkpt lat="42.3429031" lon="14.1163652"><ele>45.0</ele><time>2026-05-03T12:18:00.855Z</time></trkpt><trkpt lat="42.3429428" lon="14.1161478"><ele>45.333333333333336</ele><time>2026-05-03T12:18:01.855Z</time></trkpt><trkpt lat="42.3429818" lon="14.1159265"><ele>45.66666666666667</ele><time>2026-05-03T12:18:02.855Z</time></trkpt><trkpt lat="42.3430185" lon="14.1157066"><ele>46.0</ele><time>2026-05-03T12:18:03.856Z</time></trkpt><trkpt lat="42.3430566" lon="14.1154812"><ele>46.66666666666667</ele><time>2026-05-03T12:18:04.856Z</time></trkpt><trkpt lat="42.3430938" lon="14.1152512"><ele>47.333333333333336</ele><time>2026-05-03T12:18:05.855Z</time></trkpt><trkpt lat="42.3431286" lon="14.1150197"><ele>48.0</ele><time>2026-05-03T12:18:06.855Z</time></trkpt><trkpt lat="42.3431606" lon="14.114783"><ele>48.0</ele><time>2026-05-03T12:18:07.856Z</time></trkpt><trkpt lat="42.3431925" lon="14.1145457"><ele>48.0</ele><time>2026-05-03T12:18:08.856Z</time></trkpt><trkpt lat="42.3432226" lon="14.1143079"><ele>48.0</ele><time>2026-05-03T12:18:09.856Z</time></trkpt><trkpt lat="42.3432543" lon="14.1140743"><ele>47.666666666666664</ele><time>2026-05-03T12:18:10.856Z</time></trkpt><trkpt lat="42.3432806" lon="14.1138592"><ele>47.33333333333333</ele><time>2026-05-03T12:18:11.855Z</time></trkpt><trkpt lat="42.3433055" lon="14.113658"><ele>47.0</ele><time>2026-05-03T12:18:12.856Z</time></trkpt><trkpt lat="42.3433293" lon="14.1134617"><ele>47.0</ele><time>2026-05-03T12:18:13.855Z</time></trkpt><trkpt lat="42.3433538" lon="14.113272"><ele>47.0</ele><time>2026-05-03T12:18:14.856Z</time></trkpt><trkpt lat="42.3433787" lon="14.1130912"><ele>47.0</ele><time>2026-05-03T12:18:15.856Z</time></trkpt><trkpt lat="42.3434018" lon="14.1129228"><ele>47.0</ele><time>2026-05-03T12:18:16.855Z</time></trkpt><trkpt lat="42.3434242" lon="14.1127522"><ele>47.0</ele><time>2026-05-03T12:18:17.855Z</time></trkpt><trkpt lat="42.3434463" lon="14.1125928"><ele>47.0</ele><time>2026-05-03T12:18:18.855Z</time></trkpt><trkpt lat="42.3434656" lon="14.1124392"><ele>47.0</ele><time>2026-05-03T12:18:19.855Z</time></trkpt><trkpt lat="42.3434853" lon="14.1122917"><ele>47.0</ele><time>2026-05-03T12:18:20.856Z</time></trkpt><trkpt lat="42.3435043" lon="14.1121459"><ele>47.0</ele><time>2026-05-03T12:18:21.855Z</time></trkpt><trkpt lat="42.3435213" lon="14.1120087"><ele>47.0</ele><time>2026-05-03T12:18:22.855Z</time></trkpt><trkpt lat="42.3435367" lon="14.1118816"><ele>47.0</ele><time>2026-05-03T12:18:23.855Z</time></trkpt><trkpt lat="42.3435522" lon="14.1117681"><ele>47.0</ele><time>2026-05-03T12:18:24.855Z</time></trkpt><trkpt lat="42.3435671" lon="14.1116694"><ele>47.0</ele><time>2026-05-03T12:18:25.856Z</time></trkpt><trkpt lat="42.3436147" lon="14.1115204"><ele>47.2</ele><time>2026-05-03T12:18:27.856Z</time></trkpt><trkpt lat="42.3437247" lon="14.1114573"><ele>47.400000000000006</ele><time>2026-05-03T12:18:29.854Z</time></trkpt><trkpt lat="42.3438053" lon="14.1114887"><ele>47.599999999999994</ele><time>2026-05-03T12:18:30.855Z</time></trkpt><trkpt lat="42.343903" lon="14.1115543"><ele>47.8</ele><time>2026-05-03T12:18:31.855Z</time></trkpt><trkpt lat="42.3440106" lon="14.1116175"><ele>48.0</ele><time>2026-05-03T12:18:32.855Z</time></trkpt><trkpt lat="42.3441281" lon="14.1116921"><ele>48.0</ele><time>2026-05-03T12:18:33.854Z</time></trkpt><trkpt lat="42.344259" lon="14.1117788"><ele>48.0</ele><time>2026-05-03T12:18:34.854Z</time></trkpt><trkpt lat="42.3443951" lon="14.1118729"><ele>48.0</ele><time>2026-05-03T12:18:35.854Z</time></trkpt><trkpt lat="42.3445378" lon="14.111967"><ele>48.0</ele><time>2026-05-03T12:18:36.854Z</time></trkpt><trkpt lat="42.3446837" lon="14.1120656"><ele>48.0</ele><time>2026-05-03T12:18:37.854Z</time></trkpt><trkpt lat="42.3448316" lon="14.112164"><ele>48.0</ele><time>2026-05-03T12:18:38.854Z</time></trkpt><trkpt lat="42.3449836" lon="14.1122553"><ele>47.333333333333336</ele><time>2026-05-03T12:18:39.854Z</time></trkpt><trkpt lat="42.3451407" lon="14.1123341"><ele>46.66666666666667</ele><time>2026-05-03T12:18:40.854Z</time></trkpt><trkpt lat="42.3453038" lon="14.1123987"><ele>46.0</ele><time>2026-05-03T12:18:41.854Z</time></trkpt><trkpt lat="42.3454752" lon="14.1124536"><ele>46.0</ele><time>2026-05-03T12:18:42.855Z</time></trkpt><trkpt lat="42.3456504" lon="14.1125071"><ele>46.0</ele><time>2026-05-03T12:18:43.854Z</time></trkpt><trkpt lat="42.3458289" lon="14.1125625"><ele>46.0</ele><time>2026-05-03T12:18:44.854Z</time></trkpt><trkpt lat="42.3460083" lon="14.1126217"><ele>46.0</ele><time>2026-05-03T12:18:45.855Z</time></trkpt><trkpt lat="42.3461873" lon="14.1126896"><ele>46.0</ele><time>2026-05-03T12:18:46.855Z</time></trkpt><trkpt lat="42.3463655" lon="14.1127675"><ele>46.0</ele><time>2026-05-03T12:18:47.854Z</time></trkpt><trkpt lat="42.3465449" lon="14.1128477"><ele>45.333333333333336</ele><time>2026-05-03T12:18:48.855Z</time></trkpt><trkpt lat="42.3467228" lon="14.1129327"><ele>44.666666666666664</ele><time>2026-05-03T12:18:49.854Z</time></trkpt><trkpt lat="42.3469" lon="14.1130184"><ele>44.0</ele><time>2026-05-03T12:18:50.854Z</time></trkpt><trkpt lat="42.347076" lon="14.1131029"><ele>44.33333333333333</ele><time>2026-05-03T12:18:51.854Z</time></trkpt><trkpt lat="42.347252" lon="14.113186"><ele>44.666666666666664</ele><time>2026-05-03T12:18:52.854Z</time></trkpt><trkpt lat="42.3474198" lon="14.1132671"><ele>45.0</ele><time>2026-05-03T12:18:53.854Z</time></trkpt><trkpt lat="42.3475801" lon="14.113347"><ele>45.0</ele><time>2026-05-03T12:18:54.855Z</time></trkpt><trkpt lat="42.347734" lon="14.1134233"><ele>45.0</ele><time>2026-05-03T12:18:55.854Z</time></trkpt><trkpt lat="42.3478828" lon="14.1134999"><ele>45.0</ele><time>2026-05-03T12:18:56.854Z</time></trkpt><trkpt lat="42.3480256" lon="14.1135708"><ele>45.0</ele><time>2026-05-03T12:18:57.855Z</time></trkpt><trkpt lat="42.3481641" lon="14.113622"><ele>45.0</ele><time>2026-05-03T12:18:58.854Z</time></trkpt><trkpt lat="42.3483035" lon="14.1136354"><ele>45.0</ele><time>2026-05-03T12:18:59.854Z</time></trkpt><trkpt lat="42.3484455" lon="14.1136152"><ele>45.0</ele><time>2026-05-03T12:19:00.854Z</time></trkpt><trkpt lat="42.348587" lon="14.1135574"><ele>45.0</ele><time>2026-05-03T12:19:01.854Z</time></trkpt><trkpt lat="42.3487328" lon="14.1134787"><ele>45.0</ele><time>2026-05-03T12:19:02.854Z</time></trkpt><trkpt lat="42.3488816" lon="14.1133879"><ele>45.0</ele><time>2026-05-03T12:19:03.854Z</time></trkpt><trkpt lat="42.3490344" lon="14.1132912"><ele>43.666666666666664</ele><time>2026-05-03T12:19:04.854Z</time></trkpt><trkpt lat="42.3491864" lon="14.1131925"><ele>42.33333333333333</ele><time>2026-05-03T12:19:05.855Z</time></trkpt><trkpt lat="42.3493276" lon="14.1130983"><ele>41.0</ele><time>2026-05-03T12:19:06.854Z</time></trkpt><trkpt lat="42.3494622" lon="14.1130044"><ele>41.0</ele><time>2026-05-03T12:19:07.854Z</time></trkpt><trkpt lat="42.3496017" lon="14.1129072"><ele>41.0</ele><time>2026-05-03T12:19:08.854Z</time></trkpt><trkpt lat="42.3497423" lon="14.1128107"><ele>41.0</ele><time>2026-05-03T12:19:09.855Z</time></trkpt><trkpt lat="42.349886" lon="14.1127198"><ele>42.0</ele><time>2026-05-03T12:19:10.854Z</time></trkpt><trkpt lat="42.3500374" lon="14.1126347"><ele>43.0</ele><time>2026-05-03T12:19:11.854Z</time></trkpt><trkpt lat="42.3501955" lon="14.1125696"><ele>44.0</ele><time>2026-05-03T12:19:12.854Z</time></trkpt><trkpt lat="42.3503575" lon="14.1125238"><ele>44.0</ele><time>2026-05-03T12:19:13.854Z</time></trkpt><trkpt lat="42.3505239" lon="14.1124985"><ele>44.0</ele><time>2026-05-03T12:19:14.855Z</time></trkpt><trkpt lat="42.3506942" lon="14.1125062"><ele>44.0</ele><time>2026-05-03T12:19:15.854Z</time></trkpt><trkpt lat="42.3508603" lon="14.1125365"><ele>44.0</ele><time>2026-05-03T12:19:16.854Z</time></trkpt><trkpt lat="42.3510317" lon="14.1125852"><ele>44.0</ele><time>2026-05-03T12:19:17.855Z</time></trkpt><trkpt lat="42.3512085" lon="14.1126442"><ele>44.0</ele><time>2026-05-03T12:19:18.854Z</time></trkpt><trkpt lat="42.3513887" lon="14.1127139"><ele>42.666666666666664</ele><time>2026-05-03T12:19:19.854Z</time></trkpt><trkpt lat="42.3515736" lon="14.1127881"><ele>41.333333333333336</ele><time>2026-05-03T12:19:20.854Z</time></trkpt><trkpt lat="42.3517656" lon="14.1128664"><ele>40.0</ele><time>2026-05-03T12:19:21.855Z</time></trkpt><trkpt lat="42.3519575" lon="14.1129419"><ele>40.0</ele><time>2026-05-03T12:19:22.854Z</time></trkpt><trkpt lat="42.3521521" lon="14.113024"><ele>40.0</ele><time>2026-05-03T12:19:23.854Z</time></trkpt><trkpt lat="42.3523506" lon="14.1131056"><ele>40.0</ele><time>2026-05-03T12:19:24.855Z</time></trkpt><trkpt lat="42.3525499" lon="14.1131876"><ele>38.66666666666667</ele><time>2026-05-03T12:19:25.854Z</time></trkpt><trkpt lat="42.3527496" lon="14.113271"><ele>37.333333333333336</ele><time>2026-05-03T12:19:26.854Z</time></trkpt><trkpt lat="42.3529487" lon="14.1133532"><ele>36.0</ele><time>2026-05-03T12:19:27.854Z</time></trkpt><trkpt lat="42.3531492" lon="14.113432"><ele>35.666666666666664</ele><time>2026-05-03T12:19:28.855Z</time></trkpt><trkpt lat="42.3533491" lon="14.1135136"><ele>35.33333333333333</ele><time>2026-05-03T12:19:29.854Z</time></trkpt><trkpt lat="42.353551" lon="14.1135944"><ele>35.0</ele><time>2026-05-03T12:19:30.855Z</time></trkpt><trkpt lat="42.3537548" lon="14.1136771"><ele>35.33333333333333</ele><time>2026-05-03T12:19:31.855Z</time></trkpt><trkpt lat="42.3539598" lon="14.1137601"><ele>35.666666666666664</ele><time>2026-05-03T12:19:32.854Z</time></trkpt><trkpt lat="42.3541667" lon="14.1138421"><ele>36.0</ele><time>2026-05-03T12:19:33.855Z</time></trkpt><trkpt lat="42.3543739" lon="14.1139246"><ele>36.0</ele><time>2026-05-03T12:19:34.854Z</time></trkpt><trkpt lat="42.3545803" lon="14.1140056"><ele>36.0</ele><time>2026-05-03T12:19:35.855Z</time></trkpt><trkpt lat="42.3547873" lon="14.1140866"><ele>36.0</ele><time>2026-05-03T12:19:36.854Z</time></trkpt><trkpt lat="42.3549926" lon="14.1141678"><ele>36.333333333333336</ele><time>2026-05-03T12:19:37.855Z</time></trkpt><trkpt lat="42.3551935" lon="14.1142515"><ele>36.66666666666667</ele><time>2026-05-03T12:19:38.854Z</time></trkpt><trkpt lat="42.3553919" lon="14.1143329"><ele>37.0</ele><time>2026-05-03T12:19:39.855Z</time></trkpt><trkpt lat="42.3555896" lon="14.1144177"><ele>40.333333333333336</ele><time>2026-05-03T12:19:40.854Z</time></trkpt><trkpt lat="42.3557915" lon="14.1145021"><ele>43.666666666666664</ele><time>2026-05-03T12:19:41.855Z</time></trkpt><trkpt lat="42.3559964" lon="14.1145864"><ele>47.0</ele><time>2026-05-03T12:19:42.854Z</time></trkpt><trkpt lat="42.3562043" lon="14.1146711"><ele>47.666666666666664</ele><time>2026-05-03T12:19:43.855Z</time></trkpt><trkpt lat="42.3564137" lon="14.1147539"><ele>48.33333333333333</ele><time>2026-05-03T12:19:44.854Z</time></trkpt><trkpt lat="42.3566209" lon="14.114834"><ele>49.0</ele><time>2026-05-03T12:19:45.854Z</time></trkpt><trkpt lat="42.3568231" lon="14.114914"><ele>46.33333333333333</ele><time>2026-05-03T12:19:46.854Z</time></trkpt><trkpt lat="42.3570231" lon="14.1149925"><ele>43.666666666666664</ele><time>2026-05-03T12:19:47.855Z</time></trkpt><trkpt lat="42.3572228" lon="14.1150733"><ele>41.0</ele><time>2026-05-03T12:19:48.854Z</time></trkpt><trkpt lat="42.3574241" lon="14.115156"><ele>41.0</ele><time>2026-05-03T12:19:49.854Z</time></trkpt><trkpt lat="42.3576262" lon="14.1152398"><ele>41.0</ele><time>2026-05-03T12:19:50.855Z</time></trkpt><trkpt lat="42.3578286" lon="14.1153214"><ele>41.0</ele><time>2026-05-03T12:19:51.854Z</time></trkpt><trkpt lat="42.3580323" lon="14.1154051"><ele>41.0</ele><time>2026-05-03T12:19:52.854Z</time></trkpt><trkpt lat="42.358237" lon="14.1154873"><ele>41.0</ele><time>2026-05-03T12:19:53.855Z</time></trkpt><trkpt lat="42.3584402" lon="14.1155681"><ele>41.0</ele><time>2026-05-03T12:19:54.855Z</time></trkpt><trkpt lat="42.3586393" lon="14.1156472"><ele>41.0</ele><time>2026-05-03T12:19:55.854Z</time></trkpt><trkpt lat="42.3588421" lon="14.1157252"><ele>41.0</ele><time>2026-05-03T12:19:56.854Z</time></trkpt><trkpt lat="42.3590428" lon="14.1158035"><ele>41.0</ele><time>2026-05-03T12:19:57.854Z</time></trkpt><trkpt lat="42.3592417" lon="14.1158857"><ele>39.666666666666664</ele><time>2026-05-03T12:19:58.854Z</time></trkpt><trkpt lat="42.35944" lon="14.1159702"><ele>38.333333333333336</ele><time>2026-05-03T12:19:59.854Z</time></trkpt><trkpt lat="42.3596378" lon="14.116055"><ele>37.0</ele><time>2026-05-03T12:20:00.854Z</time></trkpt><trkpt lat="42.3598339" lon="14.1161423"><ele>37.0</ele><time>2026-05-03T12:20:01.855Z</time></trkpt><trkpt lat="42.3600291" lon="14.1162309"><ele>37.0</ele><time>2026-05-03T12:20:02.854Z</time></trkpt><trkpt lat="42.3602254" lon="14.1163185"><ele>37.0</ele><time>2026-05-03T12:20:03.854Z</time></trkpt><trkpt lat="42.3604217" lon="14.1164067"><ele>38.66666666666667</ele><time>2026-05-03T12:20:04.854Z</time></trkpt><trkpt lat="42.3606194" lon="14.1164949"><ele>40.333333333333336</ele><time>2026-05-03T12:20:05.855Z</time></trkpt><trkpt lat="42.3608159" lon="14.1165841"><ele>42.0</ele><time>2026-05-03T12:20:06.854Z</time></trkpt><trkpt lat="42.3610116" lon="14.1166716"><ele>40.0</ele><time>2026-05-03T12:20:07.854Z</time></trkpt><trkpt lat="42.3612051" lon="14.1167589"><ele>38.0</ele><time>2026-05-03T12:20:08.854Z</time></trkpt><trkpt lat="42.3614008" lon="14.1168485"><ele>36.0</ele><time>2026-05-03T12:20:09.854Z</time></trkpt><trkpt lat="42.361598" lon="14.1169403"><ele>36.0</ele><time>2026-05-03T12:20:10.855Z</time></trkpt><trkpt lat="42.3617967" lon="14.1170312"><ele>36.0</ele><time>2026-05-03T12:20:11.855Z</time></trkpt><trkpt lat="42.3619959" lon="14.1171217"><ele>36.0</ele><time>2026-05-03T12:20:12.855Z</time></trkpt><trkpt lat="42.3621951" lon="14.1172089"><ele>33.666666666666664</ele><time>2026-05-03T12:20:13.854Z</time></trkpt><trkpt lat="42.3623923" lon="14.1172926"><ele>31.333333333333332</ele><time>2026-05-03T12:20:14.854Z</time></trkpt><trkpt lat="42.362588" lon="14.1173658"><ele>29.0</ele><time>2026-05-03T12:20:15.855Z</time></trkpt><trkpt lat="42.3627854" lon="14.1174191"><ele>29.0</ele><time>2026-05-03T12:20:16.854Z</time></trkpt><trkpt lat="42.3629796" lon="14.1174502"><ele>29.0</ele><time>2026-05-03T12:20:17.854Z</time></trkpt><trkpt lat="42.3631742" lon="14.117464"><ele>29.0</ele><time>2026-05-03T12:20:18.854Z</time></trkpt><trkpt lat="42.3633686" lon="14.1174689"><ele>29.666666666666664</ele><time>2026-05-03T12:20:19.855Z</time></trkpt><trkpt lat="42.3635599" lon="14.1174715"><ele>30.333333333333336</ele><time>2026-05-03T12:20:20.854Z</time></trkpt><trkpt lat="42.3637442" lon="14.1174752"><ele>31.0</ele><time>2026-05-03T12:20:21.854Z</time></trkpt><trkpt lat="42.3639292" lon="14.117482"><ele>31.666666666666668</ele><time>2026-05-03T12:20:22.855Z</time></trkpt><trkpt lat="42.3641124" lon="14.1175027"><ele>32.333333333333336</ele><time>2026-05-03T12:20:23.854Z</time></trkpt><trkpt lat="42.3642981" lon="14.1175498"><ele>33.0</ele><time>2026-05-03T12:20:24.854Z</time></trkpt><trkpt lat="42.3644816" lon="14.1176259"><ele>33.0</ele><time>2026-05-03T12:20:25.855Z</time></trkpt><trkpt lat="42.3646622" lon="14.1177255"><ele>33.0</ele><time>2026-05-03T12:20:26.854Z</time></trkpt><trkpt lat="42.3648437" lon="14.1178373"><ele>33.0</ele><time>2026-05-03T12:20:27.855Z</time></trkpt><trkpt lat="42.3650254" lon="14.1179518"><ele>32.666666666666664</ele><time>2026-05-03T12:20:28.855Z</time></trkpt><trkpt lat="42.3652061" lon="14.1180734"><ele>32.33333333333333</ele><time>2026-05-03T12:20:29.854Z</time></trkpt><trkpt lat="42.3653867" lon="14.1181962"><ele>32.0</ele><time>2026-05-03T12:20:30.854Z</time></trkpt><trkpt lat="42.3655644" lon="14.1183137"><ele>30.666666666666664</ele><time>2026-05-03T12:20:31.855Z</time></trkpt><trkpt lat="42.365745" lon="14.1184364"><ele>29.333333333333336</ele><time>2026-05-03T12:20:32.854Z</time></trkpt><trkpt lat="42.3659265" lon="14.1185555"><ele>28.0</ele><time>2026-05-03T12:20:33.854Z</time></trkpt><trkpt lat="42.3661059" lon="14.1186749"><ele>28.0</ele><time>2026-05-03T12:20:34.854Z</time></trkpt><trkpt lat="42.3662843" lon="14.1187961"><ele>28.0</ele><time>2026-05-03T12:20:35.855Z</time></trkpt><trkpt lat="42.3664624" lon="14.1189209"><ele>28.0</ele><time>2026-05-03T12:20:36.854Z</time></trkpt><trkpt lat="42.3666408" lon="14.1190462"><ele>27.666666666666668</ele><time>2026-05-03T12:20:37.854Z</time></trkpt><trkpt lat="42.3668209" lon="14.119169"><ele>27.333333333333336</ele><time>2026-05-03T12:20:38.854Z</time></trkpt><trkpt lat="42.3670006" lon="14.1192942"><ele>27.0</ele><time>2026-05-03T12:20:39.854Z</time></trkpt><trkpt lat="42.3671804" lon="14.1194213"><ele>27.333333333333336</ele><time>2026-05-03T12:20:40.854Z</time></trkpt><trkpt lat="42.3673575" lon="14.1195467"><ele>27.666666666666668</ele><time>2026-05-03T12:20:41.855Z</time></trkpt><trkpt lat="42.3675356" lon="14.1196695"><ele>28.0</ele><time>2026-05-03T12:20:42.854Z</time></trkpt><trkpt lat="42.3677096" lon="14.119791"><ele>28.0</ele><time>2026-05-03T12:20:43.855Z</time></trkpt><trkpt lat="42.3678804" lon="14.1199102"><ele>28.0</ele><time>2026-05-03T12:20:44.856Z</time></trkpt><trkpt lat="42.3680532" lon="14.1200256"><ele>28.0</ele><time>2026-05-03T12:20:45.854Z</time></trkpt><trkpt lat="42.368231" lon="14.1201265"><ele>28.333333333333336</ele><time>2026-05-03T12:20:46.855Z</time></trkpt><trkpt lat="42.3684139" lon="14.1202037"><ele>28.666666666666664</ele><time>2026-05-03T12:20:47.854Z</time></trkpt><trkpt lat="42.3686014" lon="14.1202524"><ele>29.0</ele><time>2026-05-03T12:20:48.855Z</time></trkpt><trkpt lat="42.3687911" lon="14.1202818"><ele>31.666666666666664</ele><time>2026-05-03T12:20:49.855Z</time></trkpt><trkpt lat="42.3689827" lon="14.1203089"><ele>34.333333333333336</ele><time>2026-05-03T12:20:50.854Z</time></trkpt><trkpt lat="42.3691744" lon="14.1203367"><ele>37.0</ele><time>2026-05-03T12:20:51.854Z</time></trkpt><trkpt lat="42.3693662" lon="14.1203633"><ele>37.0</ele><time>2026-05-03T12:20:52.854Z</time></trkpt><trkpt lat="42.3695612" lon="14.1203873"><ele>37.0</ele><time>2026-05-03T12:20:53.854Z</time></trkpt><trkpt lat="42.3697585" lon="14.1204106"><ele>37.0</ele><time>2026-05-03T12:20:54.854Z</time></trkpt><trkpt lat="42.3699572" lon="14.1204351"><ele>37.0</ele><time>2026-05-03T12:20:55.855Z</time></trkpt><trkpt lat="42.3701566" lon="14.1204582"><ele>37.0</ele><time>2026-05-03T12:20:56.854Z</time></trkpt><trkpt lat="42.3703535" lon="14.1204853"><ele>37.0</ele><time>2026-05-03T12:20:57.855Z</time></trkpt><trkpt lat="42.3705528" lon="14.1205174"><ele>37.333333333333336</ele><time>2026-05-03T12:20:58.855Z</time></trkpt><trkpt lat="42.3707534" lon="14.1205648"><ele>37.666666666666664</ele><time>2026-05-03T12:20:59.855Z</time></trkpt><trkpt lat="42.3709508" lon="14.1206234"><ele>38.0</ele><time>2026-05-03T12:21:00.855Z</time></trkpt><trkpt lat="42.371143" lon="14.1206918"><ele>36.33333333333333</ele><time>2026-05-03T12:21:01.854Z</time></trkpt><trkpt lat="42.3713268" lon="14.1207664"><ele>34.666666666666664</ele><time>2026-05-03T12:21:02.854Z</time></trkpt><trkpt lat="42.3715047" lon="14.1208452"><ele>33.0</ele><time>2026-05-03T12:21:03.854Z</time></trkpt><trkpt lat="42.3716723" lon="14.12092"><ele>33.0</ele><time>2026-05-03T12:21:04.854Z</time></trkpt><trkpt lat="42.3718367" lon="14.1209986"><ele>33.0</ele><time>2026-05-03T12:21:05.853Z</time></trkpt><trkpt lat="42.3719981" lon="14.1210837"><ele>33.0</ele><time>2026-05-03T12:21:06.854Z</time></trkpt><trkpt lat="42.3721544" lon="14.1211819"><ele>36.333333333333336</ele><time>2026-05-03T12:21:07.855Z</time></trkpt><trkpt lat="42.3723036" lon="14.1212924"><ele>39.66666666666667</ele><time>2026-05-03T12:21:08.854Z</time></trkpt><trkpt lat="42.3724456" lon="14.121401"><ele>43.0</ele><time>2026-05-03T12:21:09.855Z</time></trkpt><trkpt lat="42.3725751" lon="14.1215033"><ele>42.5</ele><time>2026-05-03T12:21:10.854Z</time></trkpt><trkpt lat="42.3727003" lon="14.1216033"><ele>42.0</ele><time>2026-05-03T12:21:11.854Z</time></trkpt><trkpt lat="42.3728247" lon="14.1217028"><ele>41.5</ele><time>2026-05-03T12:21:12.854Z</time></trkpt><trkpt lat="42.3729518" lon="14.1218026"><ele>41.0</ele><time>2026-05-03T12:21:13.854Z</time></trkpt><trkpt lat="42.3730695" lon="14.1218972"><ele>41.0</ele><time>2026-05-03T12:21:14.854Z</time></trkpt><trkpt lat="42.3731842" lon="14.1219897"><ele>41.0</ele><time>2026-05-03T12:21:15.855Z</time></trkpt><trkpt lat="42.3732966" lon="14.1220805"><ele>41.0</ele><time>2026-05-03T12:21:16.854Z</time></trkpt><trkpt lat="42.3734083" lon="14.1221671"><ele>41.0</ele><time>2026-05-03T12:21:17.854Z</time></trkpt><trkpt lat="42.3735198" lon="14.1222542"><ele>41.0</ele><time>2026-05-03T12:21:18.854Z</time></trkpt><trkpt lat="42.3736318" lon="14.122341"><ele>41.0</ele><time>2026-05-03T12:21:19.854Z</time></trkpt><trkpt lat="42.3737453" lon="14.1224284"><ele>41.0</ele><time>2026-05-03T12:21:20.855Z</time></trkpt><trkpt lat="42.3738518" lon="14.1225089"><ele>41.0</ele><time>2026-05-03T12:21:21.855Z</time></trkpt><trkpt lat="42.3739378" lon="14.1225758"><ele>41.0</ele><time>2026-05-03T12:21:22.854Z</time></trkpt><trkpt lat="42.3740019" lon="14.1226214"><ele>41.0</ele><time>2026-05-03T12:21:23.854Z</time></trkpt><trkpt lat="42.3740759" lon="14.1226682"><ele>41.0</ele><time>2026-05-03T12:21:25.855Z</time></trkpt><trkpt lat="42.3741842" lon="14.1227326"><ele>41.0</ele><time>2026-05-03T12:22:03.854Z</time></trkpt><trkpt lat="42.374268" lon="14.1228079"><ele>41.0</ele><time>2026-05-03T12:22:04.855Z</time></trkpt><trkpt lat="42.3743747" lon="14.1229007"><ele>41.0</ele><time>2026-05-03T12:22:05.854Z</time></trkpt><trkpt lat="42.3745212" lon="14.1230247"><ele>41.0</ele><time>2026-05-03T12:22:06.854Z</time></trkpt><trkpt lat="42.3746805" lon="14.1231473"><ele>41.0</ele><time>2026-05-03T12:22:07.854Z</time></trkpt><trkpt lat="42.3748457" lon="14.1232749"><ele>40.33333333333333</ele><time>2026-05-03T12:22:08.855Z</time></trkpt><trkpt lat="42.3750128" lon="14.1234043"><ele>39.666666666666664</ele><time>2026-05-03T12:22:09.854Z</time></trkpt><trkpt lat="42.375178" lon="14.1235375"><ele>39.0</ele><time>2026-05-03T12:22:10.854Z</time></trkpt><trkpt lat="42.3753385" lon="14.1236645"><ele>39.0</ele><time>2026-05-03T12:22:11.854Z</time></trkpt><trkpt lat="42.3754996" lon="14.123783"><ele>39.0</ele><time>2026-05-03T12:22:12.854Z</time></trkpt><trkpt lat="42.3756542" lon="14.123884"><ele>39.0</ele><time>2026-05-03T12:22:13.854Z</time></trkpt><trkpt lat="42.3758024" lon="14.12396"><ele>38.75</ele><time>2026-05-03T12:22:14.854Z</time></trkpt><trkpt lat="42.3759455" lon="14.1240076"><ele>38.5</ele><time>2026-05-03T12:22:15.855Z</time></trkpt><trkpt lat="42.376075" lon="14.1240487"><ele>38.25</ele><time>2026-05-03T12:22:16.855Z</time></trkpt><trkpt lat="42.3761824" lon="14.1241032"><ele>38.0</ele><time>2026-05-03T12:22:17.854Z</time></trkpt><trkpt lat="42.3762588" lon="14.1241655"><ele>38.0</ele><time>2026-05-03T12:22:18.854Z</time></trkpt><trkpt lat="42.3763138" lon="14.1242247"><ele>38.0</ele><time>2026-05-03T12:22:19.854Z</time></trkpt><trkpt lat="42.3763577" lon="14.1242901"><ele>38.0</ele><time>2026-05-03T12:22:20.855Z</time></trkpt><trkpt lat="42.3763943" lon="14.1243737"><ele>38.0</ele><time>2026-05-03T12:22:21.854Z</time></trkpt><trkpt lat="42.3764387" lon="14.1244591"><ele>38.0</ele><time>2026-05-03T12:22:22.855Z</time></trkpt><trkpt lat="42.3764961" lon="14.1244986"><ele>38.0</ele><time>2026-05-03T12:22:23.854Z</time></trkpt><trkpt lat="42.3765591" lon="14.124495"><ele>38.0</ele><time>2026-05-03T12:22:24.854Z</time></trkpt><trkpt lat="42.3766176" lon="14.12444"><ele>37.75</ele><time>2026-05-03T12:22:25.855Z</time></trkpt><trkpt lat="42.3766698" lon="14.1243411"><ele>37.5</ele><time>2026-05-03T12:22:26.855Z</time></trkpt><trkpt lat="42.3767408" lon="14.1242175"><ele>37.25</ele><time>2026-05-03T12:22:27.854Z</time></trkpt><trkpt lat="42.3768253" lon="14.1240958"><ele>37.0</ele><time>2026-05-03T12:22:28.855Z</time></trkpt><trkpt lat="42.3769172" lon="14.1239559"><ele>38.75</ele><time>2026-05-03T12:22:29.854Z</time></trkpt><trkpt lat="42.3770039" lon="14.1237995"><ele>40.5</ele><time>2026-05-03T12:22:30.854Z</time></trkpt><trkpt lat="42.3770975" lon="14.1236439"><ele>42.25</ele><time>2026-05-03T12:22:31.855Z</time></trkpt><trkpt lat="42.3771996" lon="14.1235247"><ele>44.0</ele><time>2026-05-03T12:22:32.855Z</time></trkpt><trkpt lat="42.3773204" lon="14.1234396"><ele>44.666666666666664</ele><time>2026-05-03T12:22:33.854Z</time></trkpt><trkpt lat="42.3774558" lon="14.1234076"><ele>45.333333333333336</ele><time>2026-05-03T12:22:34.854Z</time></trkpt><trkpt lat="42.3776035" lon="14.1234191"><ele>46.0</ele><time>2026-05-03T12:22:35.854Z</time></trkpt><trkpt lat="42.3777678" lon="14.1234484"><ele>46.0</ele><time>2026-05-03T12:22:36.855Z</time></trkpt><trkpt lat="42.3779375" lon="14.1234761"><ele>46.0</ele><time>2026-05-03T12:22:37.854Z</time></trkpt><trkpt lat="42.3781151" lon="14.1235051"><ele>46.0</ele><time>2026-05-03T12:22:38.854Z</time></trkpt><trkpt lat="42.3782968" lon="14.123534"><ele>49.0</ele><time>2026-05-03T12:22:39.854Z</time></trkpt><trkpt lat="42.3784749" lon="14.1235656"><ele>52.0</ele><time>2026-05-03T12:22:40.854Z</time></trkpt><trkpt lat="42.3786501" lon="14.1235961"><ele>55.0</ele><time>2026-05-03T12:22:41.854Z</time></trkpt><trkpt lat="42.3788238" lon="14.123627"><ele>56.33333333333333</ele><time>2026-05-03T12:22:42.854Z</time></trkpt><trkpt lat="42.3789826" lon="14.1236558"><ele>57.66666666666667</ele><time>2026-05-03T12:22:43.854Z</time></trkpt><trkpt lat="42.3791347" lon="14.1236891"><ele>59.0</ele><time>2026-05-03T12:22:44.854Z</time></trkpt><trkpt lat="42.3792798" lon="14.1237433"><ele>59.0</ele><time>2026-05-03T12:22:45.854Z</time></trkpt><trkpt lat="42.3794053" lon="14.1238149"><ele>59.0</ele><time>2026-05-03T12:22:46.855Z</time></trkpt><trkpt lat="42.3795186" lon="14.1239093"><ele>59.0</ele><time>2026-05-03T12:22:47.854Z</time></trkpt><trkpt lat="42.379634" lon="14.1240228"><ele>59.0</ele><time>2026-05-03T12:22:48.855Z</time></trkpt><trkpt lat="42.3797643" lon="14.1241417"><ele>56.66666666666667</ele><time>2026-05-03T12:22:49.854Z</time></trkpt><trkpt lat="42.3799044" lon="14.1242692"><ele>54.33333333333333</ele><time>2026-05-03T12:22:50.855Z</time></trkpt><trkpt lat="42.3800565" lon="14.1243956"><ele>52.0</ele><time>2026-05-03T12:22:51.853Z</time></trkpt><trkpt lat="42.3802183" lon="14.1245166"><ele>52.0</ele><time>2026-05-03T12:22:52.854Z</time></trkpt><trkpt lat="42.3803836" lon="14.1246391"><ele>52.0</ele><time>2026-05-03T12:22:53.854Z</time></trkpt><trkpt lat="42.3805508" lon="14.1247665"><ele>52.0</ele><time>2026-05-03T12:22:54.855Z</time></trkpt><trkpt lat="42.3807239" lon="14.1248924"><ele>50.666666666666664</ele><time>2026-05-03T12:22:55.854Z</time></trkpt><trkpt lat="42.3808972" lon="14.1250165"><ele>49.33333333333333</ele><time>2026-05-03T12:22:56.855Z</time></trkpt><trkpt lat="42.3810712" lon="14.1251385"><ele>48.0</ele><time>2026-05-03T12:22:57.854Z</time></trkpt><trkpt lat="42.3812472" lon="14.125263"><ele>49.66666666666667</ele><time>2026-05-03T12:22:58.854Z</time></trkpt><trkpt lat="42.3814226" lon="14.1253898"><ele>51.333333333333336</ele><time>2026-05-03T12:22:59.854Z</time></trkpt><trkpt lat="42.381594" lon="14.1255164"><ele>53.0</ele><time>2026-05-03T12:23:00.855Z</time></trkpt><trkpt lat="42.3817593" lon="14.1256451"><ele>53.0</ele><time>2026-05-03T12:23:01.854Z</time></trkpt><trkpt lat="42.3819172" lon="14.1257771"><ele>53.0</ele><time>2026-05-03T12:23:02.854Z</time></trkpt><trkpt lat="42.3820704" lon="14.1259158"><ele>53.0</ele><time>2026-05-03T12:23:03.854Z</time></trkpt><trkpt lat="42.3822181" lon="14.1260513"><ele>53.0</ele><time>2026-05-03T12:23:04.855Z</time></trkpt><trkpt lat="42.3823657" lon="14.1261737"><ele>53.0</ele><time>2026-05-03T12:23:05.854Z</time></trkpt><trkpt lat="42.3825135" lon="14.12627"><ele>53.0</ele><time>2026-05-03T12:23:06.855Z</time></trkpt><trkpt lat="42.3826698" lon="14.1263361"><ele>53.0</ele><time>2026-05-03T12:23:07.854Z</time></trkpt><trkpt lat="42.3828319" lon="14.1263798"><ele>53.0</ele><time>2026-05-03T12:23:08.854Z</time></trkpt><trkpt lat="42.3829957" lon="14.1263999"><ele>53.0</ele><time>2026-05-03T12:23:09.854Z</time></trkpt><trkpt lat="42.3831529" lon="14.1264112"><ele>53.0</ele><time>2026-05-03T12:23:10.855Z</time></trkpt><trkpt lat="42.383296" lon="14.1264233"><ele>53.0</ele><time>2026-05-03T12:23:11.855Z</time></trkpt><trkpt lat="42.3834292" lon="14.1264518"><ele>53.0</ele><time>2026-05-03T12:23:12.854Z</time></trkpt><trkpt lat="42.3835662" lon="14.1265171"><ele>53.0</ele><time>2026-05-03T12:23:13.854Z</time></trkpt><trkpt lat="42.3837074" lon="14.1266047"><ele>49.333333333333336</ele><time>2026-05-03T12:23:14.855Z</time></trkpt><trkpt lat="42.3838661" lon="14.1266984"><ele>45.66666666666667</ele><time>2026-05-03T12:23:15.855Z</time></trkpt><trkpt lat="42.3840303" lon="14.1267864"><ele>42.0</ele><time>2026-05-03T12:23:16.855Z</time></trkpt><trkpt lat="42.384199" lon="14.1268682"><ele>42.0</ele><time>2026-05-03T12:23:17.854Z</time></trkpt><trkpt lat="42.3843695" lon="14.1269427"><ele>42.0</ele><time>2026-05-03T12:23:18.854Z</time></trkpt><trkpt lat="42.3845329" lon="14.1270056"><ele>42.0</ele><time>2026-05-03T12:23:19.854Z</time></trkpt><trkpt lat="42.3846926" lon="14.127066"><ele>43.0</ele><time>2026-05-03T12:23:20.854Z</time></trkpt><trkpt lat="42.3848521" lon="14.1271356"><ele>44.0</ele><time>2026-05-03T12:23:21.855Z</time></trkpt><trkpt lat="42.3850042" lon="14.1272272"><ele>45.0</ele><time>2026-05-03T12:23:22.854Z</time></trkpt><trkpt lat="42.3851476" lon="14.1273488"><ele>42.0</ele><time>2026-05-03T12:23:23.854Z</time></trkpt><trkpt lat="42.3852872" lon="14.1274919"><ele>39.0</ele><time>2026-05-03T12:23:24.854Z</time></trkpt><trkpt lat="42.3854273" lon="14.12764"><ele>36.0</ele><time>2026-05-03T12:23:25.854Z</time></trkpt><trkpt lat="42.3855731" lon="14.1277882"><ele>36.0</ele><time>2026-05-03T12:23:26.854Z</time></trkpt><trkpt lat="42.385714" lon="14.1279262"><ele>36.0</ele><time>2026-05-03T12:23:27.855Z</time></trkpt><trkpt lat="42.3858572" lon="14.1280595"><ele>36.0</ele><time>2026-05-03T12:23:28.854Z</time></trkpt><trkpt lat="42.3859965" lon="14.1281943"><ele>35.666666666666664</ele><time>2026-05-03T12:23:29.854Z</time></trkpt><trkpt lat="42.3861356" lon="14.1283341"><ele>35.33333333333333</ele><time>2026-05-03T12:23:30.855Z</time></trkpt><trkpt lat="42.386265" lon="14.1284848"><ele>35.0</ele><time>2026-05-03T12:23:31.854Z</time></trkpt><trkpt lat="42.3863777" lon="14.1286576"><ele>35.666666666666664</ele><time>2026-05-03T12:23:32.853Z</time></trkpt><trkpt lat="42.3864891" lon="14.1288359"><ele>36.333333333333336</ele><time>2026-05-03T12:23:33.853Z</time></trkpt><trkpt lat="42.3865956" lon="14.1290129"><ele>37.0</ele><time>2026-05-03T12:23:34.854Z</time></trkpt><trkpt lat="42.3866998" lon="14.1291769"><ele>36.0</ele><time>2026-05-03T12:23:35.853Z</time></trkpt><trkpt lat="42.386798" lon="14.1293202"><ele>35.0</ele><time>2026-05-03T12:23:36.853Z</time></trkpt><trkpt lat="42.3868972" lon="14.129451"><ele>34.0</ele><time>2026-05-03T12:23:37.853Z</time></trkpt><trkpt lat="42.3869972" lon="14.1295648"><ele>33.0</ele><time>2026-05-03T12:23:38.853Z</time></trkpt><trkpt lat="42.3871017" lon="14.1296706"><ele>32.75</ele><time>2026-05-03T12:23:39.853Z</time></trkpt><trkpt lat="42.3872121" lon="14.1297836"><ele>32.5</ele><time>2026-05-03T12:23:40.853Z</time></trkpt><trkpt lat="42.3873297" lon="14.1298941"><ele>32.25</ele><time>2026-05-03T12:23:41.852Z</time></trkpt><trkpt lat="42.3874485" lon="14.1300018"><ele>32.0</ele><time>2026-05-03T12:23:42.853Z</time></trkpt><trkpt lat="42.3875569" lon="14.130107"><ele>32.0</ele><time>2026-05-03T12:23:43.854Z</time></trkpt><trkpt lat="42.3876649" lon="14.1302111"><ele>32.0</ele><time>2026-05-03T12:23:44.854Z</time></trkpt><trkpt lat="42.387769" lon="14.1303107"><ele>32.0</ele><time>2026-05-03T12:23:45.853Z</time></trkpt><trkpt lat="42.3878654" lon="14.1303954"><ele>32.0</ele><time>2026-05-03T12:23:46.854Z</time></trkpt><trkpt lat="42.3879512" lon="14.1304538"><ele>31.666666666666664</ele><time>2026-05-03T12:23:47.853Z</time></trkpt><trkpt lat="42.3880283" lon="14.1305017"><ele>31.333333333333332</ele><time>2026-05-03T12:23:48.853Z</time></trkpt><trkpt lat="42.3881089" lon="14.130547"><ele>31.0</ele><time>2026-05-03T12:23:50.853Z</time></trkpt><trkpt lat="42.3881747" lon="14.1305725"><ele>30.666666666666664</ele><time>2026-05-03T12:23:52.854Z</time></trkpt><trkpt lat="42.3882543" lon="14.1306102"><ele>30.333333333333332</ele><time>2026-05-03T12:23:53.854Z</time></trkpt><trkpt lat="42.3883404" lon="14.1306577"><ele>30.0</ele><time>2026-05-03T12:23:54.854Z</time></trkpt><trkpt lat="42.388434" lon="14.130712"><ele>30.5</ele><time>2026-05-03T12:23:55.853Z</time></trkpt><trkpt lat="42.3885312" lon="14.130768"><ele>31.0</ele><time>2026-05-03T12:23:56.854Z</time></trkpt><trkpt lat="42.3886333" lon="14.1308293"><ele>31.5</ele><time>2026-05-03T12:23:57.854Z</time></trkpt><trkpt lat="42.3887373" lon="14.1308957"><ele>32.0</ele><time>2026-05-03T12:23:58.853Z</time></trkpt><trkpt lat="42.3888462" lon="14.1309652"><ele>32.25</ele><time>2026-05-03T12:23:59.853Z</time></trkpt><trkpt lat="42.3889585" lon="14.1310346"><ele>32.5</ele><time>2026-05-03T12:24:00.853Z</time></trkpt><trkpt lat="42.3890711" lon="14.1311137"><ele>32.75</ele><time>2026-05-03T12:24:01.853Z</time></trkpt><trkpt lat="42.389184" lon="14.1311931"><ele>33.0</ele><time>2026-05-03T12:24:02.853Z</time></trkpt><trkpt lat="42.3892913" lon="14.1312739"><ele>33.0</ele><time>2026-05-03T12:24:03.853Z</time></trkpt><trkpt lat="42.3893945" lon="14.1313581"><ele>33.0</ele><time>2026-05-03T12:24:04.854Z</time></trkpt><trkpt lat="42.3894946" lon="14.1314399"><ele>33.0</ele><time>2026-05-03T12:24:05.854Z</time></trkpt><trkpt lat="42.3895992" lon="14.1315265"><ele>33.0</ele><time>2026-05-03T12:24:06.853Z</time></trkpt><trkpt lat="42.3897016" lon="14.1316163"><ele>32.5</ele><time>2026-05-03T12:24:07.853Z</time></trkpt><trkpt lat="42.3898071" lon="14.1317079"><ele>32.0</ele><time>2026-05-03T12:24:08.853Z</time></trkpt><trkpt lat="42.3899122" lon="14.1317983"><ele>31.5</ele><time>2026-05-03T12:24:09.854Z</time></trkpt><trkpt lat="42.3900154" lon="14.1318909"><ele>31.0</ele><time>2026-05-03T12:24:10.854Z</time></trkpt><trkpt lat="42.3901205" lon="14.1319822"><ele>31.0</ele><time>2026-05-03T12:24:11.853Z</time></trkpt><trkpt lat="42.3902245" lon="14.1320751"><ele>31.0</ele><time>2026-05-03T12:24:12.853Z</time></trkpt><trkpt lat="42.3903299" lon="14.1321699"><ele>31.0</ele><time>2026-05-03T12:24:13.854Z</time></trkpt><trkpt lat="42.3904312" lon="14.1322623"><ele>31.0</ele><time>2026-05-03T12:24:14.854Z</time></trkpt><trkpt lat="42.3905364" lon="14.132356"><ele>30.75</ele><time>2026-05-03T12:24:15.853Z</time></trkpt><trkpt lat="42.3906394" lon="14.132446"><ele>30.5</ele><time>2026-05-03T12:24:16.853Z</time></trkpt><trkpt lat="42.3907454" lon="14.132541"><ele>30.25</ele><time>2026-05-03T12:24:17.852Z</time></trkpt><trkpt lat="42.3908519" lon="14.1326353"><ele>30.0</ele><time>2026-05-03T12:24:18.854Z</time></trkpt><trkpt lat="42.3909591" lon="14.1327278"><ele>30.0</ele><time>2026-05-03T12:24:19.853Z</time></trkpt><trkpt lat="42.391076" lon="14.1328246"><ele>30.0</ele><time>2026-05-03T12:24:20.852Z</time></trkpt><trkpt lat="42.3912068" lon="14.1329359"><ele>30.0</ele><time>2026-05-03T12:24:21.854Z</time></trkpt><trkpt lat="42.391348" lon="14.1330635"><ele>30.0</ele><time>2026-05-03T12:24:22.853Z</time></trkpt><trkpt lat="42.3914951" lon="14.1332002"><ele>30.0</ele><time>2026-05-03T12:24:23.853Z</time></trkpt><trkpt lat="42.3916473" lon="14.1333457"><ele>30.0</ele><time>2026-05-03T12:24:24.853Z</time></trkpt><trkpt lat="42.3918036" lon="14.1334948"><ele>30.0</ele><time>2026-05-03T12:24:25.853Z</time></trkpt><trkpt lat="42.3919625" lon="14.1336428"><ele>30.0</ele><time>2026-05-03T12:24:26.854Z</time></trkpt><trkpt lat="42.3921195" lon="14.1337844"><ele>30.0</ele><time>2026-05-03T12:24:27.854Z</time></trkpt><trkpt lat="42.3922767" lon="14.1339305"><ele>29.666666666666664</ele><time>2026-05-03T12:24:28.854Z</time></trkpt><trkpt lat="42.3924346" lon="14.1340749"><ele>29.333333333333332</ele><time>2026-05-03T12:24:29.854Z</time></trkpt><trkpt lat="42.3925991" lon="14.1342246"><ele>29.0</ele><time>2026-05-03T12:24:30.853Z</time></trkpt><trkpt lat="42.392752" lon="14.1343355"><ele>29.0</ele><time>2026-05-03T12:24:31.853Z</time></trkpt><trkpt lat="42.3929461" lon="14.134509"><ele>29.0</ele><time>2026-05-03T12:24:32.853Z</time></trkpt><trkpt lat="42.3931265" lon="14.1346874"><ele>29.333333333333332</ele><time>2026-05-03T12:24:33.853Z</time></trkpt><trkpt lat="42.3932923" lon="14.1348393"><ele>29.666666666666664</ele><time>2026-05-03T12:24:34.853Z</time></trkpt><trkpt lat="42.3934594" lon="14.1349818"><ele>30.0</ele><time>2026-05-03T12:24:35.854Z</time></trkpt><trkpt lat="42.393626" lon="14.1351266"><ele>30.0</ele><time>2026-05-03T12:24:36.854Z</time></trkpt><trkpt lat="42.3937906" lon="14.13527"><ele>30.0</ele><time>2026-05-03T12:24:37.853Z</time></trkpt><trkpt lat="42.3939523" lon="14.1354132"><ele>30.0</ele><time>2026-05-03T12:24:38.854Z</time></trkpt><trkpt lat="42.3941128" lon="14.1355568"><ele>30.0</ele><time>2026-05-03T12:24:39.854Z</time></trkpt><trkpt lat="42.3942722" lon="14.1356992"><ele>30.0</ele><time>2026-05-03T12:24:40.854Z</time></trkpt><trkpt lat="42.394428" lon="14.1358381"><ele>30.0</ele><time>2026-05-03T12:24:41.854Z</time></trkpt><trkpt lat="42.3945815" lon="14.1359764"><ele>29.666666666666664</ele><time>2026-05-03T12:24:42.853Z</time></trkpt><trkpt lat="42.3947338" lon="14.1361167"><ele>29.333333333333332</ele><time>2026-05-03T12:24:43.853Z</time></trkpt><trkpt lat="42.3948876" lon="14.1362567"><ele>29.0</ele><time>2026-05-03T12:24:44.853Z</time></trkpt><trkpt lat="42.3950442" lon="14.1363966"><ele>29.0</ele><time>2026-05-03T12:24:45.853Z</time></trkpt><trkpt lat="42.3952007" lon="14.1365367"><ele>29.0</ele><time>2026-05-03T12:24:46.853Z</time></trkpt><trkpt lat="42.3953581" lon="14.1366759"><ele>29.0</ele><time>2026-05-03T12:24:47.854Z</time></trkpt><trkpt lat="42.3955166" lon="14.1368157"><ele>28.0</ele><time>2026-05-03T12:24:48.854Z</time></trkpt><trkpt lat="42.3956747" lon="14.1369583"><ele>27.0</ele><time>2026-05-03T12:24:49.853Z</time></trkpt><trkpt lat="42.3958317" lon="14.1370978"><ele>26.0</ele><time>2026-05-03T12:24:50.854Z</time></trkpt><trkpt lat="42.3959856" lon="14.1372357"><ele>26.0</ele><time>2026-05-03T12:24:51.853Z</time></trkpt><trkpt lat="42.3961419" lon="14.1373744"><ele>26.0</ele><time>2026-05-03T12:24:52.853Z</time></trkpt><trkpt lat="42.3962972" lon="14.1375131"><ele>26.0</ele><time>2026-05-03T12:24:53.854Z</time></trkpt><trkpt lat="42.3964537" lon="14.1376527"><ele>26.333333333333332</ele><time>2026-05-03T12:24:54.852Z</time></trkpt><trkpt lat="42.3966112" lon="14.1377933"><ele>26.666666666666664</ele><time>2026-05-03T12:24:55.853Z</time></trkpt><trkpt lat="42.3967662" lon="14.137932"><ele>27.0</ele><time>2026-05-03T12:24:56.853Z</time></trkpt><trkpt lat="42.3969199" lon="14.1380694"><ele>27.0</ele><time>2026-05-03T12:24:57.853Z</time></trkpt><trkpt lat="42.3970664" lon="14.1381987"><ele>27.0</ele><time>2026-05-03T12:24:58.854Z</time></trkpt><trkpt lat="42.3972165" lon="14.1383276"><ele>27.0</ele><time>2026-05-03T12:24:59.854Z</time></trkpt><trkpt lat="42.3973682" lon="14.1384615"><ele>26.666666666666664</ele><time>2026-05-03T12:25:00.853Z</time></trkpt><trkpt lat="42.3975219" lon="14.1386015"><ele>26.333333333333332</ele><time>2026-05-03T12:25:01.854Z</time></trkpt><trkpt lat="42.3976758" lon="14.1387444"><ele>26.0</ele><time>2026-05-03T12:25:02.854Z</time></trkpt><trkpt lat="42.397831" lon="14.1388877"><ele>26.0</ele><time>2026-05-03T12:25:03.853Z</time></trkpt><trkpt lat="42.3979847" lon="14.139027"><ele>26.0</ele><time>2026-05-03T12:25:04.854Z</time></trkpt><trkpt lat="42.3981411" lon="14.1391677"><ele>26.0</ele><time>2026-05-03T12:25:05.853Z</time></trkpt><trkpt lat="42.3982996" lon="14.1393097"><ele>26.0</ele><time>2026-05-03T12:25:06.853Z</time></trkpt><trkpt lat="42.3984599" lon="14.1394531"><ele>26.0</ele><time>2026-05-03T12:25:07.853Z</time></trkpt><trkpt lat="42.3986212" lon="14.1395983"><ele>26.0</ele><time>2026-05-03T12:25:08.854Z</time></trkpt><trkpt lat="42.3987855" lon="14.1397441"><ele>25.666666666666664</ele><time>2026-05-03T12:25:09.853Z</time></trkpt><trkpt lat="42.3989499" lon="14.1398915"><ele>25.333333333333336</ele><time>2026-05-03T12:25:10.852Z</time></trkpt><trkpt lat="42.3991151" lon="14.1400416"><ele>25.0</ele><time>2026-05-03T12:25:11.853Z</time></trkpt><trkpt lat="42.3992816" lon="14.1401935"><ele>25.0</ele><time>2026-05-03T12:25:12.853Z</time></trkpt><trkpt lat="42.3994497" lon="14.1403459"><ele>25.0</ele><time>2026-05-03T12:25:13.854Z</time></trkpt><trkpt lat="42.3996161" lon="14.1404964"><ele>25.0</ele><time>2026-05-03T12:25:14.853Z</time></trkpt><trkpt lat="42.399781" lon="14.1406422"><ele>25.333333333333336</ele><time>2026-05-03T12:25:15.853Z</time></trkpt><trkpt lat="42.3999455" lon="14.1407844"><ele>25.666666666666664</ele><time>2026-05-03T12:25:16.853Z</time></trkpt><trkpt lat="42.400112" lon="14.1409262"><ele>26.0</ele><time>2026-05-03T12:25:17.853Z</time></trkpt><trkpt lat="42.4002767" lon="14.1410717"><ele>26.0</ele><time>2026-05-03T12:25:18.853Z</time></trkpt><trkpt lat="42.4004418" lon="14.1412179"><ele>26.0</ele><time>2026-05-03T12:25:19.854Z</time></trkpt><trkpt lat="42.4006051" lon="14.1413641"><ele>26.0</ele><time>2026-05-03T12:25:20.853Z</time></trkpt><trkpt lat="42.400767" lon="14.1415076"><ele>25.666666666666664</ele><time>2026-05-03T12:25:21.853Z</time></trkpt><trkpt lat="42.4009282" lon="14.1416511"><ele>25.333333333333336</ele><time>2026-05-03T12:25:22.854Z</time></trkpt><trkpt lat="42.4010902" lon="14.141796"><ele>25.0</ele><time>2026-05-03T12:25:23.853Z</time></trkpt><trkpt lat="42.4012527" lon="14.1419406"><ele>25.0</ele><time>2026-05-03T12:25:24.853Z</time></trkpt><trkpt lat="42.401417" lon="14.1420855"><ele>25.0</ele><time>2026-05-03T12:25:25.854Z</time></trkpt><trkpt lat="42.4015802" lon="14.1422324"><ele>25.0</ele><time>2026-05-03T12:25:26.853Z</time></trkpt><trkpt lat="42.4017443" lon="14.1423821"><ele>24.666666666666668</ele><time>2026-05-03T12:25:27.853Z</time></trkpt><trkpt lat="42.4019089" lon="14.1425375"><ele>24.333333333333336</ele><time>2026-05-03T12:25:28.854Z</time></trkpt><trkpt lat="42.4020769" lon="14.1426941"><ele>24.0</ele><time>2026-05-03T12:25:29.854Z</time></trkpt><trkpt lat="42.4022487" lon="14.1428446"><ele>24.0</ele><time>2026-05-03T12:25:30.854Z</time></trkpt><trkpt lat="42.4024227" lon="14.1429942"><ele>24.0</ele><time>2026-05-03T12:25:31.854Z</time></trkpt><trkpt lat="42.4025981" lon="14.1431432"><ele>24.0</ele><time>2026-05-03T12:25:32.853Z</time></trkpt><trkpt lat="42.4027747" lon="14.143295"><ele>24.0</ele><time>2026-05-03T12:25:33.853Z</time></trkpt><trkpt lat="42.4029527" lon="14.1434521"><ele>24.0</ele><time>2026-05-03T12:25:34.853Z</time></trkpt><trkpt lat="42.403131" lon="14.1436097"><ele>24.0</ele><time>2026-05-03T12:25:35.854Z</time></trkpt><trkpt lat="42.4033103" lon="14.1437671"><ele>24.0</ele><time>2026-05-03T12:25:36.853Z</time></trkpt><trkpt lat="42.4034893" lon="14.1439257"><ele>24.0</ele><time>2026-05-03T12:25:37.854Z</time></trkpt><trkpt lat="42.4036617" lon="14.1440823"><ele>24.0</ele><time>2026-05-03T12:25:38.853Z</time></trkpt><trkpt lat="42.4038336" lon="14.1442341"><ele>24.333333333333336</ele><time>2026-05-03T12:25:39.854Z</time></trkpt><trkpt lat="42.4040005" lon="14.1443848"><ele>24.666666666666668</ele><time>2026-05-03T12:25:40.853Z</time></trkpt><trkpt lat="42.4041652" lon="14.144534"><ele>25.0</ele><time>2026-05-03T12:25:41.853Z</time></trkpt><trkpt lat="42.4043258" lon="14.1446812"><ele>25.0</ele><time>2026-05-03T12:25:42.853Z</time></trkpt><trkpt lat="42.4044831" lon="14.1448267"><ele>25.0</ele><time>2026-05-03T12:25:43.853Z</time></trkpt><trkpt lat="42.4046429" lon="14.144967"><ele>25.0</ele><time>2026-05-03T12:25:44.854Z</time></trkpt><trkpt lat="42.4047934" lon="14.1451009"><ele>24.333333333333336</ele><time>2026-05-03T12:25:45.854Z</time></trkpt><trkpt lat="42.4049346" lon="14.1452292"><ele>23.666666666666668</ele><time>2026-05-03T12:25:46.854Z</time></trkpt><trkpt lat="42.4050653" lon="14.1453468"><ele>23.0</ele><time>2026-05-03T12:25:47.853Z</time></trkpt><trkpt lat="42.4051836" lon="14.1454548"><ele>23.0</ele><time>2026-05-03T12:25:48.853Z</time></trkpt><trkpt lat="42.4052893" lon="14.1455535"><ele>23.0</ele><time>2026-05-03T12:25:49.853Z</time></trkpt><trkpt lat="42.4053742" lon="14.1456507"><ele>23.0</ele><time>2026-05-03T12:25:50.853Z</time></trkpt><trkpt lat="42.4054224" lon="14.1457472"><ele>23.0</ele><time>2026-05-03T12:25:51.854Z</time></trkpt><trkpt lat="42.4054408" lon="14.14584"><ele>23.0</ele><time>2026-05-03T12:25:52.853Z</time></trkpt><trkpt lat="42.4054481" lon="14.1459436"><ele>22.799999999999997</ele><time>2026-05-03T12:25:53.854Z</time></trkpt><trkpt lat="42.4054786" lon="14.1460259"><ele>22.6</ele><time>2026-05-03T12:25:54.853Z</time></trkpt><trkpt lat="42.4055346" lon="14.1460805"><ele>22.4</ele><time>2026-05-03T12:25:55.853Z</time></trkpt><trkpt lat="42.4056751" lon="14.1460548"><ele>22.200000000000003</ele><time>2026-05-03T12:25:57.854Z</time></trkpt><trkpt lat="42.4057716" lon="14.1460457"><ele>22.0</ele><time>2026-05-03T12:25:58.853Z</time></trkpt><trkpt lat="42.4058713" lon="14.1460854"><ele>22.0</ele><time>2026-05-03T12:25:59.853Z</time></trkpt><trkpt lat="42.4059769" lon="14.1461652"><ele>22.0</ele><time>2026-05-03T12:26:00.854Z</time></trkpt><trkpt lat="42.4060913" lon="14.1462706"><ele>22.0</ele><time>2026-05-03T12:26:01.853Z</time></trkpt><trkpt lat="42.4062135" lon="14.1463812"><ele>22.0</ele><time>2026-05-03T12:26:02.854Z</time></trkpt><trkpt lat="42.4063438" lon="14.1464932"><ele>22.0</ele><time>2026-05-03T12:26:03.853Z</time></trkpt><trkpt lat="42.4064772" lon="14.1466104"><ele>22.0</ele><time>2026-05-03T12:26:04.853Z</time></trkpt><trkpt lat="42.4066202" lon="14.1467222"><ele>22.0</ele><time>2026-05-03T12:26:05.853Z</time></trkpt><trkpt lat="42.4067714" lon="14.146821"><ele>22.0</ele><time>2026-05-03T12:26:06.853Z</time></trkpt><trkpt lat="42.4069314" lon="14.1469074"><ele>22.0</ele><time>2026-05-03T12:26:07.853Z</time></trkpt><trkpt lat="42.4070997" lon="14.1469785"><ele>22.0</ele><time>2026-05-03T12:26:08.854Z</time></trkpt><trkpt lat="42.407278" lon="14.1470354"><ele>20.666666666666664</ele><time>2026-05-03T12:26:09.853Z</time></trkpt><trkpt lat="42.4074613" lon="14.1470791"><ele>19.333333333333332</ele><time>2026-05-03T12:26:10.854Z</time></trkpt><trkpt lat="42.4076483" lon="14.1471207"><ele>18.0</ele><time>2026-05-03T12:26:11.853Z</time></trkpt><trkpt lat="42.4078355" lon="14.1471621"><ele>17.666666666666668</ele><time>2026-05-03T12:26:12.854Z</time></trkpt><trkpt lat="42.4080237" lon="14.147208"><ele>17.333333333333336</ele><time>2026-05-03T12:26:13.853Z</time></trkpt><trkpt lat="42.4082114" lon="14.1472615"><ele>17.0</ele><time>2026-05-03T12:26:14.853Z</time></trkpt><trkpt lat="42.4083942" lon="14.1473306"><ele>17.0</ele><time>2026-05-03T12:26:15.854Z</time></trkpt><trkpt lat="42.4085728" lon="14.147415"><ele>17.0</ele><time>2026-05-03T12:26:16.853Z</time></trkpt><trkpt lat="42.4087478" lon="14.1475167"><ele>17.0</ele><time>2026-05-03T12:26:17.853Z</time></trkpt><trkpt lat="42.4089185" lon="14.1476347"><ele>17.0</ele><time>2026-05-03T12:26:18.853Z</time></trkpt><trkpt lat="42.4090874" lon="14.1477623"><ele>17.0</ele><time>2026-05-03T12:26:19.853Z</time></trkpt><trkpt lat="42.4092563" lon="14.1478959"><ele>17.0</ele><time>2026-05-03T12:26:20.854Z</time></trkpt><trkpt lat="42.4094271" lon="14.148032"><ele>17.0</ele><time>2026-05-03T12:26:21.853Z</time></trkpt><trkpt lat="42.4095979" lon="14.1481697"><ele>17.0</ele><time>2026-05-03T12:26:22.854Z</time></trkpt><trkpt lat="42.4097688" lon="14.1483065"><ele>17.0</ele><time>2026-05-03T12:26:23.853Z</time></trkpt><trkpt lat="42.409944" lon="14.1484442"><ele>17.666666666666668</ele><time>2026-05-03T12:26:24.854Z</time></trkpt><trkpt lat="42.4101219" lon="14.1485835"><ele>18.333333333333332</ele><time>2026-05-03T12:26:25.853Z</time></trkpt><trkpt lat="42.4102995" lon="14.1487245"><ele>19.0</ele><time>2026-05-03T12:26:26.854Z</time></trkpt><trkpt lat="42.4104833" lon="14.1488689"><ele>19.0</ele><time>2026-05-03T12:26:27.853Z</time></trkpt><trkpt lat="42.4106704" lon="14.149017"><ele>19.0</ele><time>2026-05-03T12:26:28.853Z</time></trkpt><trkpt lat="42.4108602" lon="14.1491658"><ele>19.0</ele><time>2026-05-03T12:26:29.854Z</time></trkpt><trkpt lat="42.4110536" lon="14.1493169"><ele>19.666666666666664</ele><time>2026-05-03T12:26:30.852Z</time></trkpt><trkpt lat="42.4112466" lon="14.1494686"><ele>20.333333333333332</ele><time>2026-05-03T12:26:31.853Z</time></trkpt><trkpt lat="42.4114394" lon="14.1496209"><ele>21.0</ele><time>2026-05-03T12:26:32.854Z</time></trkpt><trkpt lat="42.4116312" lon="14.149773"><ele>20.0</ele><time>2026-05-03T12:26:33.853Z</time></trkpt><trkpt lat="42.4118228" lon="14.1499242"><ele>19.0</ele><time>2026-05-03T12:26:34.853Z</time></trkpt><trkpt lat="42.4120123" lon="14.150074"><ele>18.0</ele><time>2026-05-03T12:26:35.854Z</time></trkpt><trkpt lat="42.4122025" lon="14.1502228"><ele>17.0</ele><time>2026-05-03T12:26:36.853Z</time></trkpt><trkpt lat="42.4123916" lon="14.1503706"><ele>16.0</ele><time>2026-05-03T12:26:37.854Z</time></trkpt><trkpt lat="42.4125752" lon="14.1505159"><ele>15.0</ele><time>2026-05-03T12:26:38.853Z</time></trkpt><trkpt lat="42.412752" lon="14.1506628"><ele>15.0</ele><time>2026-05-03T12:26:39.853Z</time></trkpt><trkpt lat="42.4129217" lon="14.1508209"><ele>15.0</ele><time>2026-05-03T12:26:40.853Z</time></trkpt><trkpt lat="42.4130849" lon="14.1509866"><ele>15.0</ele><time>2026-05-03T12:26:41.853Z</time></trkpt><trkpt lat="42.4132422" lon="14.1511482"><ele>15.0</ele><time>2026-05-03T12:26:42.853Z</time></trkpt><trkpt lat="42.4133926" lon="14.1513023"><ele>15.0</ele><time>2026-05-03T12:26:43.854Z</time></trkpt><trkpt lat="42.4135485" lon="14.1514487"><ele>15.0</ele><time>2026-05-03T12:26:44.853Z</time></trkpt><trkpt lat="42.4137102" lon="14.15158"><ele>15.333333333333332</ele><time>2026-05-03T12:26:45.853Z</time></trkpt><trkpt lat="42.4138765" lon="14.1516974"><ele>15.666666666666666</ele><time>2026-05-03T12:26:46.854Z</time></trkpt><trkpt lat="42.4140486" lon="14.1517998"><ele>16.0</ele><time>2026-05-03T12:26:47.853Z</time></trkpt><trkpt lat="42.4142206" lon="14.1518859"><ele>16.0</ele><time>2026-05-03T12:26:48.854Z</time></trkpt><trkpt lat="42.414394" lon="14.1519527"><ele>16.0</ele><time>2026-05-03T12:26:49.853Z</time></trkpt><trkpt lat="42.4145672" lon="14.1519961"><ele>16.0</ele><time>2026-05-03T12:26:50.853Z</time></trkpt><trkpt lat="42.4147394" lon="14.1520246"><ele>15.666666666666666</ele><time>2026-05-03T12:26:51.853Z</time></trkpt><trkpt lat="42.4149117" lon="14.1520477"><ele>15.333333333333332</ele><time>2026-05-03T12:26:52.853Z</time></trkpt><trkpt lat="42.4150808" lon="14.1520624"><ele>15.0</ele><time>2026-05-03T12:26:53.853Z</time></trkpt><trkpt lat="42.4152475" lon="14.1520727"><ele>15.0</ele><time>2026-05-03T12:26:54.853Z</time></trkpt><trkpt lat="42.4154145" lon="14.1520841"><ele>15.0</ele><time>2026-05-03T12:26:55.854Z</time></trkpt><trkpt lat="42.4155797" lon="14.1520999"><ele>15.0</ele><time>2026-05-03T12:26:56.853Z</time></trkpt><trkpt lat="42.4157446" lon="14.1521271"><ele>15.333333333333332</ele><time>2026-05-03T12:26:57.853Z</time></trkpt><trkpt lat="42.4159081" lon="14.1521672"><ele>15.666666666666666</ele><time>2026-05-03T12:26:58.853Z</time></trkpt><trkpt lat="42.4160671" lon="14.152234"><ele>16.0</ele><time>2026-05-03T12:26:59.854Z</time></trkpt><trkpt lat="42.4162122" lon="14.1523319"><ele>17.333333333333332</ele><time>2026-05-03T12:27:00.854Z</time></trkpt><trkpt lat="42.4163428" lon="14.1524602"><ele>18.666666666666668</ele><time>2026-05-03T12:27:01.853Z</time></trkpt><trkpt lat="42.4164669" lon="14.1526131"><ele>20.0</ele><time>2026-05-03T12:27:02.853Z</time></trkpt><trkpt lat="42.4165873" lon="14.1527735"><ele>20.0</ele><time>2026-05-03T12:27:03.854Z</time></trkpt><trkpt lat="42.4167144" lon="14.1529389"><ele>20.0</ele><time>2026-05-03T12:27:04.853Z</time></trkpt><trkpt lat="42.4168404" lon="14.1531121"><ele>20.0</ele><time>2026-05-03T12:27:05.853Z</time></trkpt><trkpt lat="42.4169697" lon="14.1532862"><ele>19.666666666666668</ele><time>2026-05-03T12:27:06.853Z</time></trkpt><trkpt lat="42.4171018" lon="14.1534664"><ele>19.333333333333332</ele><time>2026-05-03T12:27:07.853Z</time></trkpt><trkpt lat="42.4172351" lon="14.1536472"><ele>19.0</ele><time>2026-05-03T12:27:08.853Z</time></trkpt><trkpt lat="42.4173705" lon="14.1538276"><ele>19.0</ele><time>2026-05-03T12:27:09.853Z</time></trkpt><trkpt lat="42.4175092" lon="14.1540097"><ele>19.0</ele><time>2026-05-03T12:27:10.854Z</time></trkpt><trkpt lat="42.417648" lon="14.1541911"><ele>19.0</ele><time>2026-05-03T12:27:11.853Z</time></trkpt><trkpt lat="42.4177855" lon="14.1543758"><ele>19.0</ele><time>2026-05-03T12:27:12.853Z</time></trkpt><trkpt lat="42.4179229" lon="14.1545604"><ele>19.0</ele><time>2026-05-03T12:27:13.853Z</time></trkpt><trkpt lat="42.4180585" lon="14.1547465"><ele>19.0</ele><time>2026-05-03T12:27:14.853Z</time></trkpt><trkpt lat="42.4181936" lon="14.1549302"><ele>18.333333333333332</ele><time>2026-05-03T12:27:15.854Z</time></trkpt><trkpt lat="42.4183244" lon="14.1551138"><ele>17.666666666666668</ele><time>2026-05-03T12:27:16.854Z</time></trkpt><trkpt lat="42.4184556" lon="14.1552939"><ele>17.0</ele><time>2026-05-03T12:27:17.853Z</time></trkpt><trkpt lat="42.4185874" lon="14.1554786"><ele>17.0</ele><time>2026-05-03T12:27:18.853Z</time></trkpt><trkpt lat="42.4187187" lon="14.1556653"><ele>17.0</ele><time>2026-05-03T12:27:19.853Z</time></trkpt><trkpt lat="42.4188464" lon="14.155848"><ele>17.0</ele><time>2026-05-03T12:27:20.853Z</time></trkpt><trkpt lat="42.4189751" lon="14.1560271"><ele>19.0</ele><time>2026-05-03T12:27:21.854Z</time></trkpt><trkpt lat="42.4191027" lon="14.1561894"><ele>21.0</ele><time>2026-05-03T12:27:22.853Z</time></trkpt><trkpt lat="42.419245" lon="14.1563164"><ele>23.0</ele><time>2026-05-03T12:27:23.853Z</time></trkpt><trkpt lat="42.4194054" lon="14.1564128"><ele>23.0</ele><time>2026-05-03T12:27:24.854Z</time></trkpt><trkpt lat="42.4195762" lon="14.1564905"><ele>23.0</ele><time>2026-05-03T12:27:25.853Z</time></trkpt><trkpt lat="42.4197519" lon="14.1565641"><ele>23.0</ele><time>2026-05-03T12:27:26.854Z</time></trkpt><trkpt lat="42.4199294" lon="14.156636"><ele>22.0</ele><time>2026-05-03T12:27:27.854Z</time></trkpt><trkpt lat="42.4200997" lon="14.1567051"><ele>21.0</ele><time>2026-05-03T12:27:28.853Z</time></trkpt><trkpt lat="42.4202655" lon="14.1567763"><ele>20.0</ele><time>2026-05-03T12:27:29.854Z</time></trkpt><trkpt lat="42.4204319" lon="14.1568515"><ele>20.333333333333336</ele><time>2026-05-03T12:27:30.853Z</time></trkpt><trkpt lat="42.4206044" lon="14.1569221"><ele>20.666666666666668</ele><time>2026-05-03T12:27:31.853Z</time></trkpt><trkpt lat="42.4207754" lon="14.1569971"><ele>21.0</ele><time>2026-05-03T12:27:32.854Z</time></trkpt><trkpt lat="42.4209425" lon="14.1570705"><ele>21.0</ele><time>2026-05-03T12:27:33.853Z</time></trkpt><trkpt lat="42.421103" lon="14.1571398"><ele>21.0</ele><time>2026-05-03T12:27:34.854Z</time></trkpt><trkpt lat="42.4212589" lon="14.157206"><ele>21.0</ele><time>2026-05-03T12:27:35.853Z</time></trkpt><trkpt lat="42.4214083" lon="14.1572667"><ele>21.5</ele><time>2026-05-03T12:27:36.854Z</time></trkpt><trkpt lat="42.4215505" lon="14.1573265"><ele>22.0</ele><time>2026-05-03T12:27:37.853Z</time></trkpt><trkpt lat="42.4216911" lon="14.1573746"><ele>22.5</ele><time>2026-05-03T12:27:38.853Z</time></trkpt><trkpt lat="42.4218238" lon="14.1574108"><ele>23.0</ele><time>2026-05-03T12:27:39.853Z</time></trkpt><trkpt lat="42.4219452" lon="14.1574251"><ele>22.25</ele><time>2026-05-03T12:27:40.854Z</time></trkpt><trkpt lat="42.422063" lon="14.1574186"><ele>21.5</ele><time>2026-05-03T12:27:41.853Z</time></trkpt><trkpt lat="42.4221804" lon="14.1574312"><ele>20.75</ele><time>2026-05-03T12:27:42.853Z</time></trkpt><trkpt lat="42.4222967" lon="14.1574754"><ele>20.0</ele><time>2026-05-03T12:27:43.853Z</time></trkpt><trkpt lat="42.4224137" lon="14.1575284"><ele>20.0</ele><time>2026-05-03T12:27:44.853Z</time></trkpt><trkpt lat="42.4225307" lon="14.1575957"><ele>20.0</ele><time>2026-05-03T12:27:45.854Z</time></trkpt><trkpt lat="42.422645" lon="14.1576766"><ele>20.0</ele><time>2026-05-03T12:27:46.853Z</time></trkpt><trkpt lat="42.4227559" lon="14.1577592"><ele>20.0</ele><time>2026-05-03T12:27:47.854Z</time></trkpt><trkpt lat="42.4228719" lon="14.1578265"><ele>19.5</ele><time>2026-05-03T12:27:48.853Z</time></trkpt><trkpt lat="42.4229884" lon="14.1578833"><ele>19.0</ele><time>2026-05-03T12:27:49.853Z</time></trkpt><trkpt lat="42.4231032" lon="14.1579326"><ele>18.5</ele><time>2026-05-03T12:27:50.854Z</time></trkpt><trkpt lat="42.423215" lon="14.157977"><ele>18.0</ele><time>2026-05-03T12:27:51.853Z</time></trkpt><trkpt lat="42.4233265" lon="14.1580228"><ele>18.0</ele><time>2026-05-03T12:27:52.853Z</time></trkpt><trkpt lat="42.4234399" lon="14.1580692"><ele>18.0</ele><time>2026-05-03T12:27:53.853Z</time></trkpt><trkpt lat="42.4235521" lon="14.1581141"><ele>18.0</ele><time>2026-05-03T12:27:54.854Z</time></trkpt><trkpt lat="42.4236672" lon="14.1581608"><ele>18.0</ele><time>2026-05-03T12:27:55.853Z</time></trkpt><trkpt lat="42.4237834" lon="14.1582089"><ele>17.75</ele><time>2026-05-03T12:27:56.853Z</time></trkpt><trkpt lat="42.4238986" lon="14.1582541"><ele>17.5</ele><time>2026-05-03T12:27:57.854Z</time></trkpt><trkpt lat="42.4240139" lon="14.1582983"><ele>17.25</ele><time>2026-05-03T12:27:58.853Z</time></trkpt><trkpt lat="42.4241347" lon="14.1583445"><ele>17.0</ele><time>2026-05-03T12:27:59.853Z</time></trkpt><trkpt lat="42.4242624" lon="14.1583998"><ele>17.0</ele><time>2026-05-03T12:28:00.853Z</time></trkpt><trkpt lat="42.4244008" lon="14.158454"><ele>17.0</ele><time>2026-05-03T12:28:01.854Z</time></trkpt><trkpt lat="42.4245476" lon="14.1585138"><ele>17.0</ele><time>2026-05-03T12:28:02.854Z</time></trkpt><trkpt lat="42.424694" lon="14.15858"><ele>17.333333333333336</ele><time>2026-05-03T12:28:03.853Z</time></trkpt><trkpt lat="42.4248413" lon="14.1586464"><ele>17.666666666666668</ele><time>2026-05-03T12:28:04.854Z</time></trkpt><trkpt lat="42.4249852" lon="14.1587168"><ele>18.0</ele><time>2026-05-03T12:28:05.853Z</time></trkpt><trkpt lat="42.4251188" lon="14.1587827"><ele>18.0</ele><time>2026-05-03T12:28:06.853Z</time></trkpt><trkpt lat="42.4252522" lon="14.1588447"><ele>18.0</ele><time>2026-05-03T12:28:07.853Z</time></trkpt><trkpt lat="42.4253862" lon="14.1589062"><ele>18.0</ele><time>2026-05-03T12:28:08.853Z</time></trkpt><trkpt lat="42.4255214" lon="14.1589716"><ele>18.0</ele><time>2026-05-03T12:28:09.853Z</time></trkpt><trkpt lat="42.4256586" lon="14.1590345"><ele>18.25</ele><time>2026-05-03T12:28:10.853Z</time></trkpt><trkpt lat="42.4257974" lon="14.159105"><ele>18.5</ele><time>2026-05-03T12:28:11.853Z</time></trkpt><trkpt lat="42.4259355" lon="14.1591726"><ele>18.75</ele><time>2026-05-03T12:28:12.853Z</time></trkpt><trkpt lat="42.4260731" lon="14.1592511"><ele>19.0</ele><time>2026-05-03T12:28:13.854Z</time></trkpt><trkpt lat="42.4262097" lon="14.1593372"><ele>19.333333333333332</ele><time>2026-05-03T12:28:14.854Z</time></trkpt><trkpt lat="42.4263447" lon="14.159433"><ele>19.666666666666668</ele><time>2026-05-03T12:28:15.853Z</time></trkpt><trkpt lat="42.4264822" lon="14.159535"><ele>20.0</ele><time>2026-05-03T12:28:16.854Z</time></trkpt><trkpt lat="42.4266205" lon="14.1596359"><ele>20.0</ele><time>2026-05-03T12:28:17.853Z</time></trkpt><trkpt lat="42.4267559" lon="14.1597408"><ele>20.0</ele><time>2026-05-03T12:28:18.853Z</time></trkpt><trkpt lat="42.4268903" lon="14.1598481"><ele>20.0</ele><time>2026-05-03T12:28:19.853Z</time></trkpt><trkpt lat="42.4270241" lon="14.1599596"><ele>19.333333333333336</ele><time>2026-05-03T12:28:20.854Z</time></trkpt><trkpt lat="42.4271556" lon="14.1600666"><ele>18.666666666666668</ele><time>2026-05-03T12:28:21.853Z</time></trkpt><trkpt lat="42.4272914" lon="14.1601771"><ele>18.0</ele><time>2026-05-03T12:28:22.854Z</time></trkpt><trkpt lat="42.42743" lon="14.1602915"><ele>18.0</ele><time>2026-05-03T12:28:23.853Z</time></trkpt><trkpt lat="42.4275695" lon="14.160408"><ele>18.0</ele><time>2026-05-03T12:28:24.853Z</time></trkpt><trkpt lat="42.4277058" lon="14.160534"><ele>18.0</ele><time>2026-05-03T12:28:25.854Z</time></trkpt><trkpt lat="42.427847" lon="14.1606721"><ele>17.666666666666668</ele><time>2026-05-03T12:28:26.854Z</time></trkpt><trkpt lat="42.4279888" lon="14.1608141"><ele>17.333333333333336</ele><time>2026-05-03T12:28:27.854Z</time></trkpt><trkpt lat="42.4281327" lon="14.1609556"><ele>17.0</ele><time>2026-05-03T12:28:28.853Z</time></trkpt><trkpt lat="42.428274" lon="14.1610997"><ele>17.0</ele><time>2026-05-03T12:28:29.853Z</time></trkpt><trkpt lat="42.4284171" lon="14.1612449"><ele>17.0</ele><time>2026-05-03T12:28:30.854Z</time></trkpt><trkpt lat="42.4285554" lon="14.1613854"><ele>17.0</ele><time>2026-05-03T12:28:31.854Z</time></trkpt><trkpt lat="42.428688" lon="14.1615176"><ele>20.333333333333336</ele><time>2026-05-03T12:28:32.853Z</time></trkpt><trkpt lat="42.4288129" lon="14.1616448"><ele>23.666666666666668</ele><time>2026-05-03T12:28:33.853Z</time></trkpt><trkpt lat="42.4289373" lon="14.1617664"><ele>27.0</ele><time>2026-05-03T12:28:34.852Z</time></trkpt><trkpt lat="42.4290607" lon="14.1618894"><ele>27.0</ele><time>2026-05-03T12:28:35.852Z</time></trkpt><trkpt lat="42.4291836" lon="14.1620134"><ele>27.0</ele><time>2026-05-03T12:28:36.852Z</time></trkpt><trkpt lat="42.4293059" lon="14.1621385"><ele>27.0</ele><time>2026-05-03T12:28:37.853Z</time></trkpt><trkpt lat="42.4294296" lon="14.162263"><ele>25.5</ele><time>2026-05-03T12:28:38.852Z</time></trkpt><trkpt lat="42.4295517" lon="14.1623783"><ele>24.0</ele><time>2026-05-03T12:28:39.853Z</time></trkpt><trkpt lat="42.4296764" lon="14.1624846"><ele>22.5</ele><time>2026-05-03T12:28:40.852Z</time></trkpt><trkpt lat="42.4298026" lon="14.1625798"><ele>21.0</ele><time>2026-05-03T12:28:41.853Z</time></trkpt><trkpt lat="42.4299337" lon="14.1626521"><ele>21.0</ele><time>2026-05-03T12:28:42.852Z</time></trkpt><trkpt lat="42.4300704" lon="14.1627074"><ele>21.0</ele><time>2026-05-03T12:28:43.852Z</time></trkpt><trkpt lat="42.4302109" lon="14.162752"><ele>21.0</ele><time>2026-05-03T12:28:44.853Z</time></trkpt><trkpt lat="42.4303426" lon="14.1627821"><ele>21.0</ele><time>2026-05-03T12:28:45.852Z</time></trkpt><trkpt lat="42.4304444" lon="14.1627957"><ele>21.0</ele><time>2026-05-03T12:28:46.853Z</time></trkpt><trkpt lat="42.430522" lon="14.1628003"><ele>21.0</ele><time>2026-05-03T12:28:47.853Z</time></trkpt><trkpt lat="42.4305998" lon="14.1627573"><ele>21.0</ele><time>2026-05-03T12:28:49.852Z</time></trkpt><trkpt lat="42.4305496" lon="14.162676"><ele>21.0</ele><time>2026-05-03T12:28:51.853Z</time></trkpt><trkpt lat="42.4304497" lon="14.1625993"><ele>21.0</ele><time>2026-05-03T12:28:53.853Z</time></trkpt><trkpt lat="42.4303965" lon="14.1625422"><ele>21.0</ele><time>2026-05-03T12:28:54.853Z</time></trkpt><trkpt lat="42.4303468" lon="14.1624125"><ele>21.4</ele><time>2026-05-03T12:28:56.852Z</time></trkpt><trkpt lat="42.4303903" lon="14.1622434"><ele>21.8</ele><time>2026-05-03T12:28:58.853Z</time></trkpt><trkpt lat="42.4304318" lon="14.162143"><ele>22.2</ele><time>2026-05-03T12:28:59.853Z</time></trkpt><trkpt lat="42.4304784" lon="14.1620267"><ele>22.599999999999998</ele><time>2026-05-03T12:29:00.852Z</time></trkpt><trkpt lat="42.4305322" lon="14.161899"><ele>23.0</ele><time>2026-05-03T12:29:01.852Z</time></trkpt><trkpt lat="42.4305889" lon="14.1617611"><ele>23.0</ele><time>2026-05-03T12:29:02.852Z</time></trkpt><trkpt lat="42.4306455" lon="14.1616236"><ele>23.0</ele><time>2026-05-03T12:29:03.852Z</time></trkpt><trkpt lat="42.4307007" lon="14.1614877"><ele>23.0</ele><time>2026-05-03T12:29:04.852Z</time></trkpt><trkpt lat="42.4307478" lon="14.1613684"><ele>23.0</ele><time>2026-05-03T12:29:05.851Z</time></trkpt><trkpt lat="42.4307944" lon="14.1612597"><ele>23.0</ele><time>2026-05-03T12:29:06.853Z</time></trkpt><trkpt lat="42.4308348" lon="14.1611636"><ele>23.799999999999997</ele><time>2026-05-03T12:29:07.852Z</time></trkpt><trkpt lat="42.4308711" lon="14.1610625"><ele>24.6</ele><time>2026-05-03T12:29:08.852Z</time></trkpt><trkpt lat="42.4309242" lon="14.160935"><ele>25.400000000000002</ele><time>2026-05-03T12:29:09.853Z</time></trkpt><trkpt lat="42.4309887" lon="14.1607927"><ele>26.200000000000003</ele><time>2026-05-03T12:29:10.852Z</time></trkpt><trkpt lat="42.4310556" lon="14.1606388"><ele>27.0</ele><time>2026-05-03T12:29:11.852Z</time></trkpt><trkpt lat="42.4311259" lon="14.1604739"><ele>27.0</ele><time>2026-05-03T12:29:12.853Z</time></trkpt><trkpt lat="42.4311967" lon="14.1603059"><ele>27.0</ele><time>2026-05-03T12:29:13.852Z</time></trkpt><trkpt lat="42.4312707" lon="14.1601328"><ele>27.0</ele><time>2026-05-03T12:29:14.852Z</time></trkpt><trkpt lat="42.4313447" lon="14.1599529"><ele>27.0</ele><time>2026-05-03T12:29:15.852Z</time></trkpt><trkpt lat="42.4314205" lon="14.1597728"><ele>28.666666666666664</ele><time>2026-05-03T12:29:16.853Z</time></trkpt><trkpt lat="42.4314957" lon="14.1595844"><ele>30.333333333333332</ele><time>2026-05-03T12:29:17.852Z</time></trkpt><trkpt lat="42.4315738" lon="14.1593962"><ele>32.0</ele><time>2026-05-03T12:29:18.853Z</time></trkpt><trkpt lat="42.4316522" lon="14.1592058"><ele>32.33333333333333</ele><time>2026-05-03T12:29:19.853Z</time></trkpt><trkpt lat="42.431729" lon="14.1590162"><ele>32.666666666666664</ele><time>2026-05-03T12:29:20.852Z</time></trkpt><trkpt lat="42.4318044" lon="14.1588271"><ele>33.0</ele><time>2026-05-03T12:29:21.853Z</time></trkpt><trkpt lat="42.4318773" lon="14.1586432"><ele>33.0</ele><time>2026-05-03T12:29:22.853Z</time></trkpt><trkpt lat="42.43195" lon="14.1584654"><ele>33.0</ele><time>2026-05-03T12:29:23.852Z</time></trkpt><trkpt lat="42.4320206" lon="14.1582919"><ele>33.0</ele><time>2026-05-03T12:29:24.852Z</time></trkpt><trkpt lat="42.4320914" lon="14.1581189"><ele>33.0</ele><time>2026-05-03T12:29:25.852Z</time></trkpt><trkpt lat="42.4321643" lon="14.1579445"><ele>35.0</ele><time>2026-05-03T12:29:26.853Z</time></trkpt><trkpt lat="42.4322375" lon="14.157777"><ele>37.0</ele><time>2026-05-03T12:29:27.852Z</time></trkpt><trkpt lat="42.432314" lon="14.157616"><ele>39.0</ele><time>2026-05-03T12:29:28.853Z</time></trkpt><trkpt lat="42.4323985" lon="14.1574647"><ele>41.0</ele><time>2026-05-03T12:29:29.853Z</time></trkpt><trkpt lat="42.4324961" lon="14.1573297"><ele>42.0</ele><time>2026-05-03T12:29:30.852Z</time></trkpt><trkpt lat="42.4326066" lon="14.1572052"><ele>43.0</ele><time>2026-05-03T12:29:31.852Z</time></trkpt><trkpt lat="42.4327238" lon="14.1570857"><ele>44.0</ele><time>2026-05-03T12:29:32.852Z</time></trkpt><trkpt lat="42.4328483" lon="14.1569717"><ele>45.0</ele><time>2026-05-03T12:29:33.852Z</time></trkpt><trkpt lat="42.4329787" lon="14.1568589"><ele>46.66666666666667</ele><time>2026-05-03T12:29:34.853Z</time></trkpt><trkpt lat="42.4331141" lon="14.1567455"><ele>48.333333333333336</ele><time>2026-05-03T12:29:35.852Z</time></trkpt><trkpt lat="42.4332545" lon="14.1566245"><ele>50.0</ele><time>2026-05-03T12:29:36.852Z</time></trkpt><trkpt lat="42.4333981" lon="14.1565078"><ele>50.66666666666667</ele><time>2026-05-03T12:29:37.853Z</time></trkpt><trkpt lat="42.4335465" lon="14.156394"><ele>51.33333333333333</ele><time>2026-05-03T12:29:38.852Z</time></trkpt><trkpt lat="42.4336984" lon="14.156281"><ele>52.0</ele><time>2026-05-03T12:29:39.853Z</time></trkpt><trkpt lat="42.4338531" lon="14.1561692"><ele>52.666666666666664</ele><time>2026-05-03T12:29:40.853Z</time></trkpt><trkpt lat="42.4340055" lon="14.1560532"><ele>53.33333333333333</ele><time>2026-05-03T12:29:41.853Z</time></trkpt><trkpt lat="42.4341631" lon="14.1559363"><ele>54.0</ele><time>2026-05-03T12:29:42.852Z</time></trkpt><trkpt lat="42.4343217" lon="14.155821"><ele>54.33333333333333</ele><time>2026-05-03T12:29:43.853Z</time></trkpt><trkpt lat="42.4344811" lon="14.1557027"><ele>54.666666666666664</ele><time>2026-05-03T12:29:44.852Z</time></trkpt><trkpt lat="42.4346387" lon="14.1555858"><ele>55.0</ele><time>2026-05-03T12:29:45.852Z</time></trkpt><trkpt lat="42.4348" lon="14.1554657"><ele>56.33333333333333</ele><time>2026-05-03T12:29:46.853Z</time></trkpt><trkpt lat="42.4349611" lon="14.155343"><ele>57.66666666666667</ele><time>2026-05-03T12:29:47.852Z</time></trkpt><trkpt lat="42.4351229" lon="14.15522"><ele>59.0</ele><time>2026-05-03T12:29:48.853Z</time></trkpt><trkpt lat="42.4352834" lon="14.1550956"><ele>59.0</ele><time>2026-05-03T12:29:49.853Z</time></trkpt><trkpt lat="42.435444" lon="14.1549736"><ele>59.0</ele><time>2026-05-03T12:29:50.852Z</time></trkpt><trkpt lat="42.435605" lon="14.1548527"><ele>59.0</ele><time>2026-05-03T12:29:51.853Z</time></trkpt><trkpt lat="42.4357661" lon="14.1547295"><ele>60.333333333333336</ele><time>2026-05-03T12:29:52.852Z</time></trkpt><trkpt lat="42.4359269" lon="14.1546042"><ele>61.66666666666667</ele><time>2026-05-03T12:29:53.853Z</time></trkpt><trkpt lat="42.4360869" lon="14.1544772"><ele>63.0</ele><time>2026-05-03T12:29:54.852Z</time></trkpt><trkpt lat="42.4362447" lon="14.1543462"><ele>63.33333333333333</ele><time>2026-05-03T12:29:55.852Z</time></trkpt><trkpt lat="42.4364017" lon="14.1542126"><ele>63.666666666666664</ele><time>2026-05-03T12:29:56.853Z</time></trkpt><trkpt lat="42.4365554" lon="14.154083"><ele>64.0</ele><time>2026-05-03T12:29:57.853Z</time></trkpt><trkpt lat="42.4367075" lon="14.1539512"><ele>65.66666666666666</ele><time>2026-05-03T12:29:58.852Z</time></trkpt><trkpt lat="42.4368603" lon="14.1538189"><ele>67.33333333333333</ele><time>2026-05-03T12:29:59.852Z</time></trkpt><trkpt lat="42.4370139" lon="14.1536863"><ele>69.0</ele><time>2026-05-03T12:30:00.853Z</time></trkpt><trkpt lat="42.4371686" lon="14.1535556"><ele>69.0</ele><time>2026-05-03T12:30:01.851Z</time></trkpt><trkpt lat="42.4373262" lon="14.1534333"><ele>69.0</ele><time>2026-05-03T12:30:02.852Z</time></trkpt><trkpt lat="42.4374877" lon="14.1533372"><ele>69.0</ele><time>2026-05-03T12:30:03.852Z</time></trkpt><trkpt lat="42.437658" lon="14.1532703"><ele>69.0</ele><time>2026-05-03T12:30:04.852Z</time></trkpt><trkpt lat="42.4378251" lon="14.1532255"><ele>69.0</ele><time>2026-05-03T12:30:05.852Z</time></trkpt><trkpt lat="42.4379896" lon="14.1531797"><ele>69.0</ele><time>2026-05-03T12:30:06.852Z</time></trkpt><trkpt lat="42.4381504" lon="14.1531183"><ele>67.0</ele><time>2026-05-03T12:30:07.853Z</time></trkpt><trkpt lat="42.4383055" lon="14.1530319"><ele>65.0</ele><time>2026-05-03T12:30:08.852Z</time></trkpt><trkpt lat="42.4384513" lon="14.1529241"><ele>63.0</ele><time>2026-05-03T12:30:09.852Z</time></trkpt><trkpt lat="42.4385933" lon="14.1527945"><ele>63.0</ele><time>2026-05-03T12:30:10.851Z</time></trkpt><trkpt lat="42.4387309" lon="14.152646"><ele>63.0</ele><time>2026-05-03T12:30:11.852Z</time></trkpt><trkpt lat="42.4388631" lon="14.1524817"><ele>63.0</ele><time>2026-05-03T12:30:12.852Z</time></trkpt><trkpt lat="42.4389896" lon="14.1523063"><ele>66.33333333333333</ele><time>2026-05-03T12:30:13.853Z</time></trkpt><trkpt lat="42.4391121" lon="14.1521305"><ele>69.66666666666666</ele><time>2026-05-03T12:30:14.853Z</time></trkpt><trkpt lat="42.4392316" lon="14.1519626"><ele>73.0</ele><time>2026-05-03T12:30:15.852Z</time></trkpt><trkpt lat="42.4393543" lon="14.1518085"><ele>73.0</ele><time>2026-05-03T12:30:16.852Z</time></trkpt><trkpt lat="42.4394911" lon="14.1516767"><ele>73.0</ele><time>2026-05-03T12:30:17.852Z</time></trkpt><trkpt lat="42.4396405" lon="14.1515714"><ele>73.0</ele><time>2026-05-03T12:30:18.852Z</time></trkpt><trkpt lat="42.4397948" lon="14.1514858"><ele>74.0</ele><time>2026-05-03T12:30:19.853Z</time></trkpt><trkpt lat="42.4399493" lon="14.1514103"><ele>75.0</ele><time>2026-05-03T12:30:20.852Z</time></trkpt><trkpt lat="42.4401013" lon="14.1513302"><ele>76.0</ele><time>2026-05-03T12:30:21.853Z</time></trkpt><trkpt lat="42.4402516" lon="14.1512399"><ele>76.0</ele><time>2026-05-03T12:30:22.852Z</time></trkpt><trkpt lat="42.4403981" lon="14.1511381"><ele>76.0</ele><time>2026-05-03T12:30:23.852Z</time></trkpt><trkpt lat="42.4405415" lon="14.1510381"><ele>76.0</ele><time>2026-05-03T12:30:24.853Z</time></trkpt><trkpt lat="42.4406853" lon="14.1509469"><ele>79.0</ele><time>2026-05-03T12:30:25.852Z</time></trkpt><trkpt lat="42.4408248" lon="14.1508804"><ele>82.0</ele><time>2026-05-03T12:30:26.852Z</time></trkpt><trkpt lat="42.4409668" lon="14.150836"><ele>85.0</ele><time>2026-05-03T12:30:27.852Z</time></trkpt><trkpt lat="42.4411044" lon="14.1508212"><ele>88.0</ele><time>2026-05-03T12:30:28.852Z</time></trkpt><trkpt lat="42.441244" lon="14.1508423"><ele>89.0</ele><time>2026-05-03T12:30:29.853Z</time></trkpt><trkpt lat="42.4413868" lon="14.1508855"><ele>90.0</ele><time>2026-05-03T12:30:30.853Z</time></trkpt><trkpt lat="42.4415334" lon="14.1509385"><ele>91.0</ele><time>2026-05-03T12:30:31.852Z</time></trkpt><trkpt lat="42.4416836" lon="14.1509716"><ele>91.0</ele><time>2026-05-03T12:30:32.853Z</time></trkpt><trkpt lat="42.4418313" lon="14.1509721"><ele>91.0</ele><time>2026-05-03T12:30:33.852Z</time></trkpt><trkpt lat="42.4419765" lon="14.150942"><ele>91.0</ele><time>2026-05-03T12:30:34.853Z</time></trkpt><trkpt lat="42.4421048" lon="14.1508886"><ele>91.0</ele><time>2026-05-03T12:30:35.852Z</time></trkpt><trkpt lat="42.4422084" lon="14.1508118"><ele>91.75</ele><time>2026-05-03T12:30:36.852Z</time></trkpt><trkpt lat="42.4422916" lon="14.1507107"><ele>92.5</ele><time>2026-05-03T12:30:37.852Z</time></trkpt><trkpt lat="42.4423539" lon="14.1505833"><ele>93.25</ele><time>2026-05-03T12:30:38.852Z</time></trkpt><trkpt lat="42.4423974" lon="14.1504345"><ele>94.0</ele><time>2026-05-03T12:30:39.852Z</time></trkpt><trkpt lat="42.4424335" lon="14.1502725"><ele>94.0</ele><time>2026-05-03T12:30:40.853Z</time></trkpt><trkpt lat="42.4424693" lon="14.1500993"><ele>94.0</ele><time>2026-05-03T12:30:41.852Z</time></trkpt><trkpt lat="42.4425024" lon="14.1499186"><ele>94.0</ele><time>2026-05-03T12:30:42.852Z</time></trkpt><trkpt lat="42.4425417" lon="14.1497326"><ele>94.0</ele><time>2026-05-03T12:30:43.852Z</time></trkpt><trkpt lat="42.4425889" lon="14.1495468"><ele>95.33333333333333</ele><time>2026-05-03T12:30:44.853Z</time></trkpt><trkpt lat="42.4426429" lon="14.1493607"><ele>96.66666666666666</ele><time>2026-05-03T12:30:45.853Z</time></trkpt><trkpt lat="42.4427072" lon="14.1491751"><ele>98.0</ele><time>2026-05-03T12:30:46.853Z</time></trkpt><trkpt lat="42.4427797" lon="14.1489884"><ele>100.0</ele><time>2026-05-03T12:30:47.853Z</time></trkpt><trkpt lat="42.4428614" lon="14.14881"><ele>102.0</ele><time>2026-05-03T12:30:48.852Z</time></trkpt><trkpt lat="42.4429543" lon="14.1486401"><ele>104.0</ele><time>2026-05-03T12:30:49.853Z</time></trkpt><trkpt lat="42.4430579" lon="14.1484796"><ele>104.0</ele><time>2026-05-03T12:30:50.853Z</time></trkpt><trkpt lat="42.4431669" lon="14.1483201"><ele>104.0</ele><time>2026-05-03T12:30:51.852Z</time></trkpt><trkpt lat="42.4432789" lon="14.1481612"><ele>104.0</ele><time>2026-05-03T12:30:52.853Z</time></trkpt><trkpt lat="42.443393" lon="14.1480046"><ele>109.0</ele><time>2026-05-03T12:30:53.853Z</time></trkpt><trkpt lat="42.4435053" lon="14.1478536"><ele>114.0</ele><time>2026-05-03T12:30:54.852Z</time></trkpt><trkpt lat="42.443623" lon="14.147715"><ele>119.0</ele><time>2026-05-03T12:30:55.852Z</time></trkpt><trkpt lat="42.4437514" lon="14.1476007"><ele>117.75</ele><time>2026-05-03T12:30:56.853Z</time></trkpt><trkpt lat="42.4438933" lon="14.147524"><ele>116.5</ele><time>2026-05-03T12:30:57.852Z</time></trkpt><trkpt lat="42.4440394" lon="14.1474742"><ele>115.25</ele><time>2026-05-03T12:30:58.852Z</time></trkpt><trkpt lat="42.44418" lon="14.1474329"><ele>114.0</ele><time>2026-05-03T12:30:59.852Z</time></trkpt><trkpt lat="42.4443087" lon="14.1473894"><ele>116.0</ele><time>2026-05-03T12:31:00.853Z</time></trkpt><trkpt lat="42.4444108" lon="14.1473112"><ele>118.0</ele><time>2026-05-03T12:31:01.852Z</time></trkpt><trkpt lat="42.4444852" lon="14.1472028"><ele>120.0</ele><time>2026-05-03T12:31:02.853Z</time></trkpt><trkpt lat="42.4445354" lon="14.1471024"><ele>122.0</ele><time>2026-05-03T12:31:03.853Z</time></trkpt><trkpt lat="42.4445745" lon="14.1470078"><ele>124.0</ele><time>2026-05-03T12:31:04.853Z</time></trkpt><trkpt lat="42.4446275" lon="14.1469047"><ele>124.5</ele><time>2026-05-03T12:31:05.852Z</time></trkpt><trkpt lat="42.4446929" lon="14.1467988"><ele>125.0</ele><time>2026-05-03T12:31:06.852Z</time></trkpt><trkpt lat="42.4447728" lon="14.1466736"><ele>125.5</ele><time>2026-05-03T12:31:07.852Z</time></trkpt><trkpt lat="42.4448643" lon="14.146515"><ele>126.0</ele><time>2026-05-03T12:31:08.852Z</time></trkpt><trkpt lat="42.4449654" lon="14.1463397"><ele>126.0</ele><time>2026-05-03T12:31:09.853Z</time></trkpt><trkpt lat="42.445072" lon="14.1461546"><ele>126.0</ele><time>2026-05-03T12:31:10.853Z</time></trkpt><trkpt lat="42.4451799" lon="14.1459605"><ele>126.0</ele><time>2026-05-03T12:31:11.853Z</time></trkpt><trkpt lat="42.4452862" lon="14.1457722"><ele>124.0</ele><time>2026-05-03T12:31:12.853Z</time></trkpt><trkpt lat="42.4453988" lon="14.1455849"><ele>122.0</ele><time>2026-05-03T12:31:13.853Z</time></trkpt><trkpt lat="42.4455212" lon="14.1454126"><ele>120.0</ele><time>2026-05-03T12:31:14.852Z</time></trkpt><trkpt lat="42.4456549" lon="14.1452618"><ele>120.0</ele><time>2026-05-03T12:31:15.853Z</time></trkpt><trkpt lat="42.4458029" lon="14.1451218"><ele>120.0</ele><time>2026-05-03T12:31:16.852Z</time></trkpt><trkpt lat="42.4459469" lon="14.1450052"><ele>120.0</ele><time>2026-05-03T12:31:17.852Z</time></trkpt><trkpt lat="42.4460902" lon="14.1449033"><ele>120.33333333333334</ele><time>2026-05-03T12:31:18.853Z</time></trkpt><trkpt lat="42.4462423" lon="14.1448121"><ele>120.66666666666667</ele><time>2026-05-03T12:31:19.853Z</time></trkpt><trkpt lat="42.4464035" lon="14.1447364"><ele>121.0</ele><time>2026-05-03T12:31:20.852Z</time></trkpt><trkpt lat="42.4465764" lon="14.1446795"><ele>121.0</ele><time>2026-05-03T12:31:21.852Z</time></trkpt><trkpt lat="42.4467509" lon="14.1446285"><ele>121.0</ele><time>2026-05-03T12:31:22.852Z</time></trkpt><trkpt lat="42.4469164" lon="14.1445785"><ele>121.0</ele><time>2026-05-03T12:31:23.853Z</time></trkpt><trkpt lat="42.4470678" lon="14.1445387"><ele>122.25</ele><time>2026-05-03T12:31:24.852Z</time></trkpt><trkpt lat="42.4472034" lon="14.144516"><ele>123.5</ele><time>2026-05-03T12:31:25.853Z</time></trkpt><trkpt lat="42.4473238" lon="14.1445309"><ele>124.75</ele><time>2026-05-03T12:31:26.852Z</time></trkpt><trkpt lat="42.4474338" lon="14.1445885"><ele>126.0</ele><time>2026-05-03T12:31:27.853Z</time></trkpt><trkpt lat="42.4475113" lon="14.1446954"><ele>126.0</ele><time>2026-05-03T12:31:28.852Z</time></trkpt><trkpt lat="42.4475525" lon="14.1448318"><ele>126.0</ele><time>2026-05-03T12:31:29.853Z</time></trkpt><trkpt lat="42.4475743" lon="14.1449945"><ele>126.0</ele><time>2026-05-03T12:31:30.853Z</time></trkpt><trkpt lat="42.4475756" lon="14.1451748"><ele>126.0</ele><time>2026-05-03T12:31:31.852Z</time></trkpt><trkpt lat="42.4475807" lon="14.1453567"><ele>126.25</ele><time>2026-05-03T12:31:32.852Z</time></trkpt><trkpt lat="42.4475953" lon="14.1455316"><ele>126.5</ele><time>2026-05-03T12:31:33.852Z</time></trkpt><trkpt lat="42.4476313" lon="14.1456895"><ele>126.75</ele><time>2026-05-03T12:31:34.852Z</time></trkpt><trkpt lat="42.447693" lon="14.1458354"><ele>127.0</ele><time>2026-05-03T12:31:35.853Z</time></trkpt><trkpt lat="42.4477758" lon="14.1459725"><ele>127.5</ele><time>2026-05-03T12:31:36.853Z</time></trkpt><trkpt lat="42.447879" lon="14.1460937"><ele>128.0</ele><time>2026-05-03T12:31:37.853Z</time></trkpt><trkpt lat="42.4480009" lon="14.1462002"><ele>128.5</ele><time>2026-05-03T12:31:38.853Z</time></trkpt><trkpt lat="42.4481408" lon="14.1462864"><ele>129.0</ele><time>2026-05-03T12:31:39.852Z</time></trkpt><trkpt lat="42.4482923" lon="14.1463577"><ele>133.33333333333334</ele><time>2026-05-03T12:31:40.853Z</time></trkpt><trkpt lat="42.4484456" lon="14.1464147"><ele>137.66666666666669</ele><time>2026-05-03T12:31:41.853Z</time></trkpt><trkpt lat="42.4485997" lon="14.1464373"><ele>142.0</ele><time>2026-05-03T12:31:42.853Z</time></trkpt><trkpt lat="42.4487514" lon="14.1464221"><ele>142.5</ele><time>2026-05-03T12:31:43.853Z</time></trkpt><trkpt lat="42.4488868" lon="14.1463718"><ele>143.0</ele><time>2026-05-03T12:31:44.853Z</time></trkpt><trkpt lat="42.4490127" lon="14.1462871"><ele>143.5</ele><time>2026-05-03T12:31:45.852Z</time></trkpt><trkpt lat="42.4491213" lon="14.1461699"><ele>144.0</ele><time>2026-05-03T12:31:46.852Z</time></trkpt><trkpt lat="42.4492216" lon="14.1460232"><ele>144.0</ele><time>2026-05-03T12:31:47.853Z</time></trkpt><trkpt lat="42.4493219" lon="14.1458553"><ele>144.0</ele><time>2026-05-03T12:31:48.852Z</time></trkpt><trkpt lat="42.4494235" lon="14.1456739"><ele>144.0</ele><time>2026-05-03T12:31:49.851Z</time></trkpt><trkpt lat="42.4495238" lon="14.1454834"><ele>143.33333333333334</ele><time>2026-05-03T12:31:50.853Z</time></trkpt><trkpt lat="42.4496215" lon="14.1452842"><ele>142.66666666666669</ele><time>2026-05-03T12:31:51.853Z</time></trkpt><trkpt lat="42.4497117" lon="14.1450776"><ele>142.0</ele><time>2026-05-03T12:31:52.852Z</time></trkpt><trkpt lat="42.4497908" lon="14.1448697"><ele>142.0</ele><time>2026-05-03T12:31:53.853Z</time></trkpt><trkpt lat="42.4498573" lon="14.144659"><ele>142.0</ele><time>2026-05-03T12:31:54.852Z</time></trkpt><trkpt lat="42.4499085" lon="14.1444409"><ele>142.0</ele><time>2026-05-03T12:31:55.852Z</time></trkpt><trkpt lat="42.4499352" lon="14.1442137"><ele>140.66666666666669</ele><time>2026-05-03T12:31:56.852Z</time></trkpt><trkpt lat="42.4499416" lon="14.1439812"><ele>139.33333333333334</ele><time>2026-05-03T12:31:57.852Z</time></trkpt><trkpt lat="42.4499342" lon="14.1437459"><ele>138.0</ele><time>2026-05-03T12:31:58.853Z</time></trkpt><trkpt lat="42.4499218" lon="14.1435177"><ele>138.0</ele><time>2026-05-03T12:31:59.851Z</time></trkpt><trkpt lat="42.4499041" lon="14.1432923"><ele>138.0</ele><time>2026-05-03T12:32:00.852Z</time></trkpt><trkpt lat="42.4498726" lon="14.143071"><ele>138.0</ele><time>2026-05-03T12:32:01.852Z</time></trkpt><trkpt lat="42.4498211" lon="14.1428555"><ele>137.66666666666666</ele><time>2026-05-03T12:32:02.853Z</time></trkpt><trkpt lat="42.4497567" lon="14.1426545"><ele>137.33333333333331</ele><time>2026-05-03T12:32:03.853Z</time></trkpt><trkpt lat="42.449692" lon="14.1424698"><ele>137.0</ele><time>2026-05-03T12:32:04.852Z</time></trkpt><trkpt lat="42.4496311" lon="14.1423013"><ele>137.75</ele><time>2026-05-03T12:32:05.852Z</time></trkpt><trkpt lat="42.4495787" lon="14.1421476"><ele>138.5</ele><time>2026-05-03T12:32:06.852Z</time></trkpt><trkpt lat="42.4495575" lon="14.1420019"><ele>139.25</ele><time>2026-05-03T12:32:07.852Z</time></trkpt><trkpt lat="42.4495836" lon="14.1418613"><ele>140.0</ele><time>2026-05-03T12:32:08.853Z</time></trkpt><trkpt lat="42.4496504" lon="14.1417426"><ele>140.0</ele><time>2026-05-03T12:32:09.852Z</time></trkpt><trkpt lat="42.449751" lon="14.1416456"><ele>140.0</ele><time>2026-05-03T12:32:10.853Z</time></trkpt><trkpt lat="42.4498765" lon="14.1415512"><ele>140.0</ele><time>2026-05-03T12:32:11.851Z</time></trkpt><trkpt lat="42.450019" lon="14.1414639"><ele>140.0</ele><time>2026-05-03T12:32:12.852Z</time></trkpt><trkpt lat="42.4501755" lon="14.1413901"><ele>141.66666666666666</ele><time>2026-05-03T12:32:13.852Z</time></trkpt><trkpt lat="42.4503376" lon="14.1413218"><ele>143.33333333333334</ele><time>2026-05-03T12:32:14.853Z</time></trkpt><trkpt lat="42.4505022" lon="14.1412542"><ele>145.0</ele><time>2026-05-03T12:32:15.853Z</time></trkpt><trkpt lat="42.450671" lon="14.1411929"><ele>146.66666666666669</ele><time>2026-05-03T12:32:16.853Z</time></trkpt><trkpt lat="42.4508428" lon="14.1411336"><ele>148.33333333333334</ele><time>2026-05-03T12:32:17.852Z</time></trkpt><trkpt lat="42.4510152" lon="14.1410761"><ele>150.0</ele><time>2026-05-03T12:32:18.852Z</time></trkpt><trkpt lat="42.4511835" lon="14.141019"><ele>150.66666666666666</ele><time>2026-05-03T12:32:19.852Z</time></trkpt><trkpt lat="42.4513477" lon="14.1409685"><ele>151.33333333333331</ele><time>2026-05-03T12:32:20.853Z</time></trkpt><trkpt lat="42.4515023" lon="14.1409277"><ele>152.0</ele><time>2026-05-03T12:32:21.852Z</time></trkpt><trkpt lat="42.451655" lon="14.1408911"><ele>152.0</ele><time>2026-05-03T12:32:22.852Z</time></trkpt><trkpt lat="42.4518126" lon="14.1408643"><ele>152.0</ele><time>2026-05-03T12:32:23.852Z</time></trkpt><trkpt lat="42.4519683" lon="14.1408376"><ele>152.0</ele><time>2026-05-03T12:32:24.852Z</time></trkpt><trkpt lat="42.4521223" lon="14.1408076"><ele>152.0</ele><time>2026-05-03T12:32:25.852Z</time></trkpt><trkpt lat="42.4522731" lon="14.1407788"><ele>152.0</ele><time>2026-05-03T12:32:26.852Z</time></trkpt><trkpt lat="42.4524165" lon="14.1407509"><ele>152.0</ele><time>2026-05-03T12:32:27.852Z</time></trkpt><trkpt lat="42.4525532" lon="14.1407218"><ele>152.0</ele><time>2026-05-03T12:32:28.852Z</time></trkpt><trkpt lat="42.4526779" lon="14.1406949"><ele>152.0</ele><time>2026-05-03T12:32:29.852Z</time></trkpt><trkpt lat="42.4527874" lon="14.1406716"><ele>152.0</ele><time>2026-05-03T12:32:30.852Z</time></trkpt><trkpt lat="42.4528788" lon="14.1406475"><ele>152.0</ele><time>2026-05-03T12:32:31.852Z</time></trkpt><trkpt lat="42.4529544" lon="14.1406249"><ele>152.0</ele><time>2026-05-03T12:32:32.852Z</time></trkpt><trkpt lat="42.453041" lon="14.1405978"><ele>152.0</ele><time>2026-05-03T12:32:34.853Z</time></trkpt><trkpt lat="42.4531256" lon="14.1405646"><ele>155.39999999999998</ele><time>2026-05-03T12:32:40.852Z</time></trkpt><trkpt lat="42.4531958" lon="14.140521"><ele>158.79999999999998</ele><time>2026-05-03T12:32:41.852Z</time></trkpt><trkpt lat="42.4532808" lon="14.1404685"><ele>162.2</ele><time>2026-05-03T12:32:42.852Z</time></trkpt><trkpt lat="42.4533895" lon="14.1404059"><ele>165.6</ele><time>2026-05-03T12:32:43.852Z</time></trkpt><trkpt lat="42.4535178" lon="14.1403294"><ele>169.0</ele><time>2026-05-03T12:32:44.853Z</time></trkpt><trkpt lat="42.4536595" lon="14.140242"><ele>169.0</ele><time>2026-05-03T12:32:45.852Z</time></trkpt><trkpt lat="42.4537884" lon="14.1401521"><ele>169.0</ele><time>2026-05-03T12:32:46.852Z</time></trkpt><trkpt lat="42.4539021" lon="14.1400185"><ele>169.0</ele><time>2026-05-03T12:32:47.852Z</time></trkpt><trkpt lat="42.4539953" lon="14.1398563"><ele>169.0</ele><time>2026-05-03T12:32:48.852Z</time></trkpt><trkpt lat="42.4540785" lon="14.1396826"><ele>170.66666666666669</ele><time>2026-05-03T12:32:49.852Z</time></trkpt><trkpt lat="42.4541681" lon="14.1395064"><ele>172.33333333333334</ele><time>2026-05-03T12:32:50.852Z</time></trkpt><trkpt lat="42.4542564" lon="14.1393326"><ele>174.0</ele><time>2026-05-03T12:32:51.853Z</time></trkpt><trkpt lat="42.454345" lon="14.1391673"><ele>173.75</ele><time>2026-05-03T12:32:52.852Z</time></trkpt><trkpt lat="42.4544344" lon="14.139006"><ele>173.5</ele><time>2026-05-03T12:32:53.853Z</time></trkpt><trkpt lat="42.4545166" lon="14.1388573"><ele>173.25</ele><time>2026-05-03T12:32:54.852Z</time></trkpt><trkpt lat="42.4545996" lon="14.1387111"><ele>173.0</ele><time>2026-05-03T12:32:55.852Z</time></trkpt><trkpt lat="42.454687" lon="14.1385639"><ele>173.0</ele><time>2026-05-03T12:32:56.852Z</time></trkpt><trkpt lat="42.4547751" lon="14.1384166"><ele>173.0</ele><time>2026-05-03T12:32:57.852Z</time></trkpt><trkpt lat="42.4548642" lon="14.1382682"><ele>173.0</ele><time>2026-05-03T12:32:58.852Z</time></trkpt><trkpt lat="42.4549449" lon="14.1381272"><ele>173.0</ele><time>2026-05-03T12:32:59.852Z</time></trkpt><trkpt lat="42.4550053" lon="14.1379698"><ele>173.0</ele><time>2026-05-03T12:33:00.852Z</time></trkpt><trkpt lat="42.4550465" lon="14.1378024"><ele>173.0</ele><time>2026-05-03T12:33:01.852Z</time></trkpt><trkpt lat="42.4550611" lon="14.137628"><ele>173.0</ele><time>2026-05-03T12:33:02.852Z</time></trkpt><trkpt lat="42.4550593" lon="14.1374498"><ele>173.0</ele><time>2026-05-03T12:33:03.853Z</time></trkpt><trkpt lat="42.4550555" lon="14.137277"><ele>173.0</ele><time>2026-05-03T12:33:04.852Z</time></trkpt><trkpt lat="42.4550534" lon="14.1371065"><ele>173.0</ele><time>2026-05-03T12:33:05.853Z</time></trkpt><trkpt lat="42.4550492" lon="14.136943"><ele>173.0</ele><time>2026-05-03T12:33:06.852Z</time></trkpt><trkpt lat="42.4550462" lon="14.1367894"><ele>173.0</ele><time>2026-05-03T12:33:07.852Z</time></trkpt><trkpt lat="42.4550466" lon="14.1366491"><ele>174.66666666666666</ele><time>2026-05-03T12:33:08.853Z</time></trkpt><trkpt lat="42.4550662" lon="14.1365349"><ele>176.33333333333331</ele><time>2026-05-03T12:33:09.853Z</time></trkpt><trkpt lat="42.4550941" lon="14.1364373"><ele>178.0</ele><time>2026-05-03T12:33:10.852Z</time></trkpt><trkpt lat="42.4551764" lon="14.1364164"><ele>179.66666666666666</ele><time>2026-05-03T12:33:11.853Z</time></trkpt><trkpt lat="42.4552411" lon="14.1363723"><ele>181.33333333333334</ele><time>2026-05-03T12:33:12.853Z</time></trkpt><trkpt lat="42.4553327" lon="14.1363359"><ele>183.0</ele><time>2026-05-03T12:33:13.852Z</time></trkpt><trkpt lat="42.4554112" lon="14.1362973"><ele>182.5</ele><time>2026-05-03T12:33:14.853Z</time></trkpt><trkpt lat="42.4554829" lon="14.1362537"><ele>182.0</ele><time>2026-05-03T12:33:15.853Z</time></trkpt><trkpt lat="42.4555547" lon="14.1362091"><ele>181.5</ele><time>2026-05-03T12:33:16.852Z</time></trkpt><trkpt lat="42.4556333" lon="14.1361649"><ele>181.0</ele><time>2026-05-03T12:33:17.853Z</time></trkpt><trkpt lat="42.4557203" lon="14.1361121"><ele>180.5</ele><time>2026-05-03T12:33:18.853Z</time></trkpt><trkpt lat="42.4558197" lon="14.1360502"><ele>180.0</ele><time>2026-05-03T12:33:19.852Z</time></trkpt><trkpt lat="42.4559146" lon="14.135965"><ele>180.0</ele><time>2026-05-03T12:33:20.852Z</time></trkpt><trkpt lat="42.4560026" lon="14.1358509"><ele>180.0</ele><time>2026-05-03T12:33:21.852Z</time></trkpt><trkpt lat="42.4560815" lon="14.135714"><ele>180.0</ele><time>2026-05-03T12:33:22.852Z</time></trkpt><trkpt lat="42.4561526" lon="14.1355624"><ele>180.0</ele><time>2026-05-03T12:33:23.852Z</time></trkpt><trkpt lat="42.4562152" lon="14.1353836"><ele>176.0</ele><time>2026-05-03T12:33:24.852Z</time></trkpt><trkpt lat="42.4562722" lon="14.1351907"><ele>172.0</ele><time>2026-05-03T12:33:25.852Z</time></trkpt><trkpt lat="42.4563328" lon="14.1349885"><ele>168.0</ele><time>2026-05-03T12:33:26.852Z</time></trkpt><trkpt lat="42.456396" lon="14.1347798"><ele>168.0</ele><time>2026-05-03T12:33:27.853Z</time></trkpt><trkpt lat="42.4564646" lon="14.1345679"><ele>168.0</ele><time>2026-05-03T12:33:28.852Z</time></trkpt><trkpt lat="42.4565355" lon="14.1343569"><ele>168.0</ele><time>2026-05-03T12:33:29.852Z</time></trkpt><trkpt lat="42.4566015" lon="14.1341425"><ele>168.0</ele><time>2026-05-03T12:33:30.853Z</time></trkpt><trkpt lat="42.4566594" lon="14.1339241"><ele>168.0</ele><time>2026-05-03T12:33:31.853Z</time></trkpt><trkpt lat="42.4567116" lon="14.1336999"><ele>168.0</ele><time>2026-05-03T12:33:32.852Z</time></trkpt><trkpt lat="42.4567506" lon="14.1334683"><ele>168.0</ele><time>2026-05-03T12:33:33.852Z</time></trkpt><trkpt lat="42.456785" lon="14.1332418"><ele>168.0</ele><time>2026-05-03T12:33:34.853Z</time></trkpt><trkpt lat="42.4568164" lon="14.1330184"><ele>168.0</ele><time>2026-05-03T12:33:35.852Z</time></trkpt><trkpt lat="42.4568525" lon="14.1327901"><ele>167.33333333333334</ele><time>2026-05-03T12:33:36.852Z</time></trkpt><trkpt lat="42.4568986" lon="14.1325683"><ele>166.66666666666669</ele><time>2026-05-03T12:33:37.852Z</time></trkpt><trkpt lat="42.4569637" lon="14.1323474"><ele>166.0</ele><time>2026-05-03T12:33:38.852Z</time></trkpt><trkpt lat="42.4570414" lon="14.1321266"><ele>164.0</ele><time>2026-05-03T12:33:39.852Z</time></trkpt><trkpt lat="42.4571269" lon="14.1319145"><ele>162.0</ele><time>2026-05-03T12:33:40.852Z</time></trkpt><trkpt lat="42.4572176" lon="14.1317033"><ele>160.0</ele><time>2026-05-03T12:33:41.852Z</time></trkpt><trkpt lat="42.4573078" lon="14.1314898"><ele>160.0</ele><time>2026-05-03T12:33:42.853Z</time></trkpt><trkpt lat="42.4573972" lon="14.1312757"><ele>160.0</ele><time>2026-05-03T12:33:43.853Z</time></trkpt><trkpt lat="42.4574906" lon="14.1310721"><ele>160.0</ele><time>2026-05-03T12:33:44.852Z</time></trkpt><trkpt lat="42.457586" lon="14.1308751"><ele>160.33333333333334</ele><time>2026-05-03T12:33:45.852Z</time></trkpt><trkpt lat="42.45769" lon="14.1306976"><ele>160.66666666666666</ele><time>2026-05-03T12:33:46.852Z</time></trkpt><trkpt lat="42.457809" lon="14.1305465"><ele>161.0</ele><time>2026-05-03T12:33:47.852Z</time></trkpt><trkpt lat="42.4579357" lon="14.1304125"><ele>160.0</ele><time>2026-05-03T12:33:48.852Z</time></trkpt><trkpt lat="42.4580613" lon="14.1302795"><ele>159.0</ele><time>2026-05-03T12:33:49.853Z</time></trkpt><trkpt lat="42.4581843" lon="14.1301455"><ele>158.0</ele><time>2026-05-03T12:33:50.852Z</time></trkpt><trkpt lat="42.4582982" lon="14.1300018"><ele>158.66666666666666</ele><time>2026-05-03T12:33:51.852Z</time></trkpt><trkpt lat="42.4584004" lon="14.1298462"><ele>159.33333333333334</ele><time>2026-05-03T12:33:52.852Z</time></trkpt><trkpt lat="42.4584901" lon="14.1296807"><ele>160.0</ele><time>2026-05-03T12:33:53.851Z</time></trkpt><trkpt lat="42.4585678" lon="14.129504"><ele>160.0</ele><time>2026-05-03T12:33:54.851Z</time></trkpt><trkpt lat="42.4586348" lon="14.1293217"><ele>160.0</ele><time>2026-05-03T12:33:55.851Z</time></trkpt><trkpt lat="42.458683" lon="14.1291408"><ele>160.0</ele><time>2026-05-03T12:33:56.851Z</time></trkpt><trkpt lat="42.4587117" lon="14.1289502"><ele>160.0</ele><time>2026-05-03T12:33:57.852Z</time></trkpt><trkpt lat="42.4587212" lon="14.128771"><ele>160.75</ele><time>2026-05-03T12:33:58.851Z</time></trkpt><trkpt lat="42.458713" lon="14.1285876"><ele>161.5</ele><time>2026-05-03T12:33:59.851Z</time></trkpt><trkpt lat="42.4586813" lon="14.1284066"><ele>162.25</ele><time>2026-05-03T12:34:00.851Z</time></trkpt><trkpt lat="42.4586344" lon="14.1282302"><ele>163.0</ele><time>2026-05-03T12:34:01.851Z</time></trkpt><trkpt lat="42.4585764" lon="14.1280591"><ele>163.0</ele><time>2026-05-03T12:34:02.851Z</time></trkpt><trkpt lat="42.4585133" lon="14.1278906"><ele>163.0</ele><time>2026-05-03T12:34:03.851Z</time></trkpt><trkpt lat="42.45845" lon="14.1277226"><ele>163.0</ele><time>2026-05-03T12:34:04.851Z</time></trkpt><trkpt lat="42.4583866" lon="14.1275542"><ele>163.0</ele><time>2026-05-03T12:34:05.851Z</time></trkpt><trkpt lat="42.4583149" lon="14.1274058"><ele>161.25</ele><time>2026-05-03T12:34:06.851Z</time></trkpt><trkpt lat="42.4582257" lon="14.1272788"><ele>159.5</ele><time>2026-05-03T12:34:07.851Z</time></trkpt><trkpt lat="42.4581199" lon="14.1271627"><ele>157.75</ele><time>2026-05-03T12:34:08.851Z</time></trkpt><trkpt lat="42.4580129" lon="14.1270453"><ele>156.0</ele><time>2026-05-03T12:34:09.852Z</time></trkpt><trkpt lat="42.4579088" lon="14.1268988"><ele>156.0</ele><time>2026-05-03T12:34:10.851Z</time></trkpt><trkpt lat="42.4578096" lon="14.1267324"><ele>156.0</ele><time>2026-05-03T12:34:11.852Z</time></trkpt><trkpt lat="42.4577182" lon="14.1265576"><ele>156.0</ele><time>2026-05-03T12:34:12.851Z</time></trkpt><trkpt lat="42.4576308" lon="14.1263913"><ele>158.75</ele><time>2026-05-03T12:34:13.851Z</time></trkpt><trkpt lat="42.4575459" lon="14.1262231"><ele>161.5</ele><time>2026-05-03T12:34:14.851Z</time></trkpt><trkpt lat="42.4574705" lon="14.1260562"><ele>164.25</ele><time>2026-05-03T12:34:15.852Z</time></trkpt><trkpt lat="42.4574094" lon="14.125903"><ele>167.0</ele><time>2026-05-03T12:34:16.851Z</time></trkpt><trkpt lat="42.4573572" lon="14.1257463"><ele>168.75</ele><time>2026-05-03T12:34:17.852Z</time></trkpt><trkpt lat="42.4573166" lon="14.1255917"><ele>170.5</ele><time>2026-05-03T12:34:18.852Z</time></trkpt><trkpt lat="42.4572836" lon="14.1254358"><ele>172.25</ele><time>2026-05-03T12:34:19.852Z</time></trkpt><trkpt lat="42.4572599" lon="14.1252875"><ele>174.0</ele><time>2026-05-03T12:34:20.852Z</time></trkpt><trkpt lat="42.4572452" lon="14.1251394"><ele>174.0</ele><time>2026-05-03T12:34:21.851Z</time></trkpt><trkpt lat="42.4572418" lon="14.1249781"><ele>174.0</ele><time>2026-05-03T12:34:22.851Z</time></trkpt><trkpt lat="42.4572481" lon="14.1247979"><ele>174.0</ele><time>2026-05-03T12:34:23.851Z</time></trkpt><trkpt lat="42.457263" lon="14.1246062"><ele>174.0</ele><time>2026-05-03T12:34:24.85Z</time></trkpt><trkpt lat="42.4572889" lon="14.1244147"><ele>173.25</ele><time>2026-05-03T12:34:25.851Z</time></trkpt><trkpt lat="42.4573268" lon="14.1242222"><ele>172.5</ele><time>2026-05-03T12:34:26.852Z</time></trkpt><trkpt lat="42.4573729" lon="14.124027"><ele>171.75</ele><time>2026-05-03T12:34:27.851Z</time></trkpt><trkpt lat="42.457423" lon="14.1238452"><ele>171.0</ele><time>2026-05-03T12:34:28.851Z</time></trkpt><trkpt lat="42.4574773" lon="14.1236666"><ele>169.25</ele><time>2026-05-03T12:34:29.851Z</time></trkpt><trkpt lat="42.4575307" lon="14.123482"><ele>167.5</ele><time>2026-05-03T12:34:30.851Z</time></trkpt><trkpt lat="42.4575836" lon="14.1233018"><ele>165.75</ele><time>2026-05-03T12:34:31.852Z</time></trkpt><trkpt lat="42.4576369" lon="14.1231183"><ele>164.0</ele><time>2026-05-03T12:34:32.851Z</time></trkpt><trkpt lat="42.4576918" lon="14.1229349"><ele>163.5</ele><time>2026-05-03T12:34:33.851Z</time></trkpt><trkpt lat="42.4577458" lon="14.1227516"><ele>163.0</ele><time>2026-05-03T12:34:34.851Z</time></trkpt><trkpt lat="42.4578023" lon="14.1225677"><ele>162.5</ele><time>2026-05-03T12:34:35.852Z</time></trkpt><trkpt lat="42.4578708" lon="14.1223898"><ele>162.0</ele><time>2026-05-03T12:34:36.851Z</time></trkpt><trkpt lat="42.4579463" lon="14.1222151"><ele>161.33333333333334</ele><time>2026-05-03T12:34:37.851Z</time></trkpt><trkpt lat="42.4580372" lon="14.1220502"><ele>160.66666666666669</ele><time>2026-05-03T12:34:38.85Z</time></trkpt><trkpt lat="42.4581382" lon="14.1218964"><ele>160.0</ele><time>2026-05-03T12:34:39.852Z</time></trkpt><trkpt lat="42.4582527" lon="14.1217524"><ele>160.0</ele><time>2026-05-03T12:34:40.851Z</time></trkpt><trkpt lat="42.4583754" lon="14.1216092"><ele>160.0</ele><time>2026-05-03T12:34:41.851Z</time></trkpt><trkpt lat="42.4585023" lon="14.1214726"><ele>160.0</ele><time>2026-05-03T12:34:42.851Z</time></trkpt><trkpt lat="42.4586226" lon="14.121345"><ele>160.0</ele><time>2026-05-03T12:34:43.852Z</time></trkpt><trkpt lat="42.458744" lon="14.1212206"><ele>160.0</ele><time>2026-05-03T12:34:44.851Z</time></trkpt><trkpt lat="42.4588629" lon="14.1210949"><ele>160.0</ele><time>2026-05-03T12:34:45.852Z</time></trkpt><trkpt lat="42.4589791" lon="14.1209745"><ele>160.0</ele><time>2026-05-03T12:34:46.851Z</time></trkpt><trkpt lat="42.4590915" lon="14.1208528"><ele>160.0</ele><time>2026-05-03T12:34:47.851Z</time></trkpt><trkpt lat="42.4592053" lon="14.1207337"><ele>160.0</ele><time>2026-05-03T12:34:48.851Z</time></trkpt><trkpt lat="42.4593177" lon="14.1206189"><ele>160.0</ele><time>2026-05-03T12:34:49.851Z</time></trkpt><trkpt lat="42.4594241" lon="14.1205123"><ele>160.0</ele><time>2026-05-03T12:34:50.851Z</time></trkpt><trkpt lat="42.4595216" lon="14.1204099"><ele>160.0</ele><time>2026-05-03T12:34:51.852Z</time></trkpt><trkpt lat="42.4596128" lon="14.1203159"><ele>160.0</ele><time>2026-05-03T12:34:52.852Z</time></trkpt><trkpt lat="42.4596971" lon="14.1202293"><ele>160.0</ele><time>2026-05-03T12:34:53.851Z</time></trkpt><trkpt lat="42.459773" lon="14.120162"><ele>160.0</ele><time>2026-05-03T12:34:54.851Z</time></trkpt><trkpt lat="42.4598346" lon="14.1201144"><ele>160.0</ele><time>2026-05-03T12:34:55.851Z</time></trkpt><trkpt lat="42.4598945" lon="14.1200798"><ele>160.0</ele><time>2026-05-03T12:34:56.851Z</time></trkpt><trkpt lat="42.4599619" lon="14.1200615"><ele>160.0</ele><time>2026-05-03T12:34:57.851Z</time></trkpt><trkpt lat="42.4600411" lon="14.1200473"><ele>160.0</ele><time>2026-05-03T12:34:58.852Z</time></trkpt><trkpt lat="42.4601257" lon="14.1200213"><ele>160.0</ele><time>2026-05-03T12:34:59.851Z</time></trkpt><trkpt lat="42.4602163" lon="14.1200012"><ele>160.0</ele><time>2026-05-03T12:35:00.852Z</time></trkpt><trkpt lat="42.4603208" lon="14.1200166"><ele>160.0</ele><time>2026-05-03T12:35:01.851Z</time></trkpt><trkpt lat="42.4604388" lon="14.1200606"><ele>160.5</ele><time>2026-05-03T12:35:02.851Z</time></trkpt><trkpt lat="42.4605676" lon="14.1201197"><ele>161.0</ele><time>2026-05-03T12:35:03.851Z</time></trkpt><trkpt lat="42.460715" lon="14.1201758"><ele>161.5</ele><time>2026-05-03T12:35:04.851Z</time></trkpt><trkpt lat="42.4608674" lon="14.1202202"><ele>162.0</ele><time>2026-05-03T12:35:05.851Z</time></trkpt><trkpt lat="42.4610272" lon="14.1202652"><ele>162.0</ele><time>2026-05-03T12:35:06.852Z</time></trkpt><trkpt lat="42.4611869" lon="14.1203183"><ele>162.0</ele><time>2026-05-03T12:35:07.851Z</time></trkpt><trkpt lat="42.4613443" lon="14.1203917"><ele>162.0</ele><time>2026-05-03T12:35:08.851Z</time></trkpt><trkpt lat="42.4614961" lon="14.1204899"><ele>164.33333333333334</ele><time>2026-05-03T12:35:09.851Z</time></trkpt><trkpt lat="42.4616458" lon="14.120606"><ele>166.66666666666669</ele><time>2026-05-03T12:35:10.851Z</time></trkpt><trkpt lat="42.4617984" lon="14.1207183"><ele>169.0</ele><time>2026-05-03T12:35:11.851Z</time></trkpt><trkpt lat="42.4619509" lon="14.1208368"><ele>168.0</ele><time>2026-05-03T12:35:12.851Z</time></trkpt><trkpt lat="42.4621044" lon="14.1209534"><ele>167.0</ele><time>2026-05-03T12:35:13.851Z</time></trkpt><trkpt lat="42.4622561" lon="14.1210624"><ele>166.0</ele><time>2026-05-03T12:35:14.852Z</time></trkpt><trkpt lat="42.462407" lon="14.1211707"><ele>166.0</ele><time>2026-05-03T12:35:15.851Z</time></trkpt><trkpt lat="42.4625566" lon="14.1212834"><ele>166.0</ele><time>2026-05-03T12:35:16.851Z</time></trkpt><trkpt lat="42.462707" lon="14.1213956"><ele>166.0</ele><time>2026-05-03T12:35:17.851Z</time></trkpt><trkpt lat="42.4628577" lon="14.1215069"><ele>162.33333333333334</ele><time>2026-05-03T12:35:18.852Z</time></trkpt><trkpt lat="42.4630113" lon="14.1216206"><ele>158.66666666666666</ele><time>2026-05-03T12:35:19.851Z</time></trkpt><trkpt lat="42.4631599" lon="14.1217317"><ele>155.0</ele><time>2026-05-03T12:35:20.851Z</time></trkpt><trkpt lat="42.4633111" lon="14.1218415"><ele>155.0</ele><time>2026-05-03T12:35:21.851Z</time></trkpt><trkpt lat="42.4634615" lon="14.1219532"><ele>155.0</ele><time>2026-05-03T12:35:22.851Z</time></trkpt><trkpt lat="42.4636066" lon="14.1220642"><ele>155.0</ele><time>2026-05-03T12:35:23.851Z</time></trkpt><trkpt lat="42.4637421" lon="14.1221785"><ele>153.66666666666666</ele><time>2026-05-03T12:35:24.851Z</time></trkpt><trkpt lat="42.4638596" lon="14.1223172"><ele>152.33333333333334</ele><time>2026-05-03T12:35:25.851Z</time></trkpt><trkpt lat="42.4639644" lon="14.1224803"><ele>151.0</ele><time>2026-05-03T12:35:26.851Z</time></trkpt><trkpt lat="42.4640622" lon="14.122663"><ele>150.33333333333334</ele><time>2026-05-03T12:35:27.852Z</time></trkpt><trkpt lat="42.4641517" lon="14.1228563"><ele>149.66666666666666</ele><time>2026-05-03T12:35:28.851Z</time></trkpt><trkpt lat="42.4642274" lon="14.1230471"><ele>149.0</ele><time>2026-05-03T12:35:29.852Z</time></trkpt><trkpt lat="42.4642919" lon="14.1232503"><ele>149.0</ele><time>2026-05-03T12:35:30.852Z</time></trkpt><trkpt lat="42.4643479" lon="14.1234642"><ele>149.0</ele><time>2026-05-03T12:35:31.851Z</time></trkpt><trkpt lat="42.4644066" lon="14.123678"><ele>149.0</ele><time>2026-05-03T12:35:32.851Z</time></trkpt><trkpt lat="42.464474" lon="14.1238799"><ele>147.33333333333331</ele><time>2026-05-03T12:35:33.851Z</time></trkpt><trkpt lat="42.4645608" lon="14.1240682"><ele>145.66666666666666</ele><time>2026-05-03T12:35:34.851Z</time></trkpt><trkpt lat="42.4646664" lon="14.1242425"><ele>144.0</ele><time>2026-05-03T12:35:35.852Z</time></trkpt><trkpt lat="42.464788" lon="14.1244086"><ele>143.0</ele><time>2026-05-03T12:35:36.851Z</time></trkpt><trkpt lat="42.4649091" lon="14.1245702"><ele>142.0</ele><time>2026-05-03T12:35:37.851Z</time></trkpt><trkpt lat="42.4650208" lon="14.1247335"><ele>141.0</ele><time>2026-05-03T12:35:38.852Z</time></trkpt><trkpt lat="42.4651211" lon="14.1249047"><ele>143.33333333333334</ele><time>2026-05-03T12:35:39.851Z</time></trkpt><trkpt lat="42.465217" lon="14.1250882"><ele>145.66666666666669</ele><time>2026-05-03T12:35:40.851Z</time></trkpt><trkpt lat="42.4653225" lon="14.1252668"><ele>148.0</ele><time>2026-05-03T12:35:41.851Z</time></trkpt><trkpt lat="42.4654334" lon="14.1254419"><ele>146.33333333333334</ele><time>2026-05-03T12:35:42.851Z</time></trkpt><trkpt lat="42.4655479" lon="14.1256058"><ele>144.66666666666666</ele><time>2026-05-03T12:35:43.851Z</time></trkpt><trkpt lat="42.4656724" lon="14.1257567"><ele>143.0</ele><time>2026-05-03T12:35:44.851Z</time></trkpt><trkpt lat="42.4657983" lon="14.1258886"><ele>143.0</ele><time>2026-05-03T12:35:45.852Z</time></trkpt><trkpt lat="42.4659393" lon="14.1259935"><ele>143.0</ele><time>2026-05-03T12:35:46.852Z</time></trkpt><trkpt lat="42.4660908" lon="14.1260606"><ele>143.0</ele><time>2026-05-03T12:35:47.852Z</time></trkpt><trkpt lat="42.4662478" lon="14.1260926"><ele>140.75</ele><time>2026-05-03T12:35:48.851Z</time></trkpt><trkpt lat="42.4664042" lon="14.1261228"><ele>138.5</ele><time>2026-05-03T12:35:49.851Z</time></trkpt><trkpt lat="42.4665496" lon="14.1261693"><ele>136.25</ele><time>2026-05-03T12:35:50.851Z</time></trkpt><trkpt lat="42.4666766" lon="14.1262389"><ele>134.0</ele><time>2026-05-03T12:35:51.852Z</time></trkpt><trkpt lat="42.4667772" lon="14.1263589"><ele>134.0</ele><time>2026-05-03T12:35:52.851Z</time></trkpt><trkpt lat="42.4668662" lon="14.1265147"><ele>134.0</ele><time>2026-05-03T12:35:53.851Z</time></trkpt><trkpt lat="42.4669599" lon="14.1266878"><ele>134.0</ele><time>2026-05-03T12:35:54.851Z</time></trkpt><trkpt lat="42.4670555" lon="14.1268769"><ele>134.33333333333331</ele><time>2026-05-03T12:35:55.851Z</time></trkpt><trkpt lat="42.4671518" lon="14.1270775"><ele>134.66666666666666</ele><time>2026-05-03T12:35:56.851Z</time></trkpt><trkpt lat="42.4672449" lon="14.1272878"><ele>135.0</ele><time>2026-05-03T12:35:57.852Z</time></trkpt><trkpt lat="42.4673367" lon="14.1275012"><ele>138.33333333333334</ele><time>2026-05-03T12:35:58.851Z</time></trkpt><trkpt lat="42.4674227" lon="14.1277208"><ele>141.66666666666669</ele><time>2026-05-03T12:35:59.852Z</time></trkpt><trkpt lat="42.4675029" lon="14.1279429"><ele>145.0</ele><time>2026-05-03T12:36:00.851Z</time></trkpt><trkpt lat="42.4675771" lon="14.1281551"><ele>145.5</ele><time>2026-05-03T12:36:01.851Z</time></trkpt><trkpt lat="42.4676428" lon="14.1283449"><ele>146.0</ele><time>2026-05-03T12:36:02.851Z</time></trkpt><trkpt lat="42.4677112" lon="14.1285091"><ele>146.5</ele><time>2026-05-03T12:36:03.85Z</time></trkpt><trkpt lat="42.467808" lon="14.1286379"><ele>147.0</ele><time>2026-05-03T12:36:04.851Z</time></trkpt><trkpt lat="42.4679251" lon="14.128738"><ele>150.33333333333334</ele><time>2026-05-03T12:36:05.851Z</time></trkpt><trkpt lat="42.4680634" lon="14.1288098"><ele>153.66666666666669</ele><time>2026-05-03T12:36:06.852Z</time></trkpt><trkpt lat="42.4682144" lon="14.1288669"><ele>157.0</ele><time>2026-05-03T12:36:07.851Z</time></trkpt><trkpt lat="42.4683746" lon="14.1289215"><ele>157.0</ele><time>2026-05-03T12:36:08.852Z</time></trkpt><trkpt lat="42.4685391" lon="14.1289774"><ele>157.0</ele><time>2026-05-03T12:36:09.852Z</time></trkpt><trkpt lat="42.4687045" lon="14.1290329"><ele>157.0</ele><time>2026-05-03T12:36:10.851Z</time></trkpt><trkpt lat="42.4688573" lon="14.1290863"><ele>154.66666666666669</ele><time>2026-05-03T12:36:11.851Z</time></trkpt><trkpt lat="42.4690007" lon="14.1291376"><ele>152.33333333333334</ele><time>2026-05-03T12:36:12.852Z</time></trkpt><trkpt lat="42.4691427" lon="14.1291965"><ele>150.0</ele><time>2026-05-03T12:36:13.851Z</time></trkpt><trkpt lat="42.4692856" lon="14.1292842"><ele>150.0</ele><time>2026-05-03T12:36:14.851Z</time></trkpt><trkpt lat="42.4694261" lon="14.1293979"><ele>150.0</ele><time>2026-05-03T12:36:15.851Z</time></trkpt><trkpt lat="42.4695644" lon="14.1295321"><ele>150.0</ele><time>2026-05-03T12:36:16.851Z</time></trkpt><trkpt lat="42.4697006" lon="14.1296756"><ele>150.0</ele><time>2026-05-03T12:36:17.852Z</time></trkpt><trkpt lat="42.4698352" lon="14.1298262"><ele>150.0</ele><time>2026-05-03T12:36:18.852Z</time></trkpt><trkpt lat="42.4699677" lon="14.1299862"><ele>150.0</ele><time>2026-05-03T12:36:19.851Z</time></trkpt><trkpt lat="42.4701032" lon="14.130152"><ele>150.0</ele><time>2026-05-03T12:36:20.851Z</time></trkpt><trkpt lat="42.4702377" lon="14.1303225"><ele>150.0</ele><time>2026-05-03T12:36:21.851Z</time></trkpt><trkpt lat="42.4703774" lon="14.1304904"><ele>150.0</ele><time>2026-05-03T12:36:22.851Z</time></trkpt><trkpt lat="42.4705192" lon="14.1306597"><ele>148.0</ele><time>2026-05-03T12:36:23.852Z</time></trkpt><trkpt lat="42.4706598" lon="14.1308317"><ele>146.0</ele><time>2026-05-03T12:36:24.851Z</time></trkpt><trkpt lat="42.4707956" lon="14.1310033"><ele>144.0</ele><time>2026-05-03T12:36:25.851Z</time></trkpt><trkpt lat="42.4709326" lon="14.1311736"><ele>144.0</ele><time>2026-05-03T12:36:26.851Z</time></trkpt><trkpt lat="42.4710686" lon="14.131344"><ele>144.0</ele><time>2026-05-03T12:36:27.851Z</time></trkpt><trkpt lat="42.4712011" lon="14.1315048"><ele>144.0</ele><time>2026-05-03T12:36:28.851Z</time></trkpt><trkpt lat="42.4713193" lon="14.131661"><ele>143.5</ele><time>2026-05-03T12:36:29.852Z</time></trkpt><trkpt lat="42.4714192" lon="14.1318171"><ele>143.0</ele><time>2026-05-03T12:36:30.851Z</time></trkpt><trkpt lat="42.4714831" lon="14.1319896"><ele>142.5</ele><time>2026-05-03T12:36:31.851Z</time></trkpt><trkpt lat="42.4715187" lon="14.1321801"><ele>142.0</ele><time>2026-05-03T12:36:32.852Z</time></trkpt><trkpt lat="42.4715364" lon="14.1323756"><ele>143.5</ele><time>2026-05-03T12:36:33.851Z</time></trkpt><trkpt lat="42.4715531" lon="14.1325743"><ele>145.0</ele><time>2026-05-03T12:36:34.851Z</time></trkpt><trkpt lat="42.4715838" lon="14.1327722"><ele>146.5</ele><time>2026-05-03T12:36:35.851Z</time></trkpt><trkpt lat="42.4716324" lon="14.1329548"><ele>148.0</ele><time>2026-05-03T12:36:36.851Z</time></trkpt><trkpt lat="42.4717053" lon="14.1331168"><ele>148.0</ele><time>2026-05-03T12:36:37.851Z</time></trkpt><trkpt lat="42.4718013" lon="14.1332437"><ele>148.0</ele><time>2026-05-03T12:36:38.851Z</time></trkpt><trkpt lat="42.47192" lon="14.1333252"><ele>148.0</ele><time>2026-05-03T12:36:39.851Z</time></trkpt><trkpt lat="42.4720538" lon="14.1333557"><ele>148.0</ele><time>2026-05-03T12:36:40.851Z</time></trkpt><trkpt lat="42.4721943" lon="14.1333583"><ele>150.5</ele><time>2026-05-03T12:36:41.851Z</time></trkpt><trkpt lat="42.4723357" lon="14.1333654"><ele>153.0</ele><time>2026-05-03T12:36:42.852Z</time></trkpt><trkpt lat="42.4724695" lon="14.133413"><ele>155.5</ele><time>2026-05-03T12:36:43.851Z</time></trkpt><trkpt lat="42.4725893" lon="14.1335089"><ele>158.0</ele><time>2026-05-03T12:36:44.851Z</time></trkpt><trkpt lat="42.4726993" lon="14.1336382"><ele>158.0</ele><time>2026-05-03T12:36:45.851Z</time></trkpt><trkpt lat="42.4728181" lon="14.1337634"><ele>158.0</ele><time>2026-05-03T12:36:46.852Z</time></trkpt><trkpt lat="42.4729475" lon="14.1338679"><ele>158.0</ele><time>2026-05-03T12:36:47.852Z</time></trkpt><trkpt lat="42.4730817" lon="14.1339632"><ele>160.66666666666666</ele><time>2026-05-03T12:36:48.852Z</time></trkpt><trkpt lat="42.473211" lon="14.134071"><ele>163.33333333333334</ele><time>2026-05-03T12:36:49.85Z</time></trkpt><trkpt lat="42.4733309" lon="14.1341996"><ele>166.0</ele><time>2026-05-03T12:36:50.851Z</time></trkpt><trkpt lat="42.4734374" lon="14.1343406"><ele>166.0</ele><time>2026-05-03T12:36:51.851Z</time></trkpt><trkpt lat="42.4735178" lon="14.1344827"><ele>166.0</ele><time>2026-05-03T12:36:52.851Z</time></trkpt><trkpt lat="42.4735685" lon="14.1346469"><ele>166.0</ele><time>2026-05-03T12:36:53.851Z</time></trkpt><trkpt lat="42.4735983" lon="14.1348282"><ele>166.0</ele><time>2026-05-03T12:36:54.851Z</time></trkpt><trkpt lat="42.4736335" lon="14.1350107"><ele>164.0</ele><time>2026-05-03T12:36:55.85Z</time></trkpt><trkpt lat="42.4736728" lon="14.1351734"><ele>162.0</ele><time>2026-05-03T12:36:56.851Z</time></trkpt><trkpt lat="42.4737252" lon="14.1353189"><ele>160.0</ele><time>2026-05-03T12:36:57.851Z</time></trkpt><trkpt lat="42.473804" lon="14.1354328"><ele>158.0</ele><time>2026-05-03T12:36:58.852Z</time></trkpt><trkpt lat="42.4739107" lon="14.1355141"><ele>160.0</ele><time>2026-05-03T12:36:59.851Z</time></trkpt><trkpt lat="42.4740368" lon="14.1355786"><ele>162.0</ele><time>2026-05-03T12:37:00.852Z</time></trkpt><trkpt lat="42.4741728" lon="14.1356471"><ele>164.0</ele><time>2026-05-03T12:37:01.852Z</time></trkpt><trkpt lat="42.4743144" lon="14.1357357"><ele>166.0</ele><time>2026-05-03T12:37:02.851Z</time></trkpt><trkpt lat="42.4744429" lon="14.1358521"><ele>166.0</ele><time>2026-05-03T12:37:03.851Z</time></trkpt><trkpt lat="42.4745634" lon="14.1359761"><ele>166.0</ele><time>2026-05-03T12:37:04.851Z</time></trkpt><trkpt lat="42.4746973" lon="14.1360653"><ele>166.0</ele><time>2026-05-03T12:37:05.852Z</time></trkpt><trkpt lat="42.4748408" lon="14.1361246"><ele>170.25</ele><time>2026-05-03T12:37:06.851Z</time></trkpt><trkpt lat="42.4749837" lon="14.1361755"><ele>174.5</ele><time>2026-05-03T12:37:07.851Z</time></trkpt><trkpt lat="42.4751129" lon="14.136247"><ele>178.75</ele><time>2026-05-03T12:37:08.852Z</time></trkpt><trkpt lat="42.4752131" lon="14.1363589"><ele>183.0</ele><time>2026-05-03T12:37:09.852Z</time></trkpt><trkpt lat="42.4752984" lon="14.1364989"><ele>183.0</ele><time>2026-05-03T12:37:10.853Z</time></trkpt><trkpt lat="42.4753963" lon="14.1366349"><ele>183.0</ele><time>2026-05-03T12:37:11.851Z</time></trkpt><trkpt lat="42.4755193" lon="14.1367538"><ele>183.0</ele><time>2026-05-03T12:37:12.851Z</time></trkpt><trkpt lat="42.4756635" lon="14.1368616"><ele>183.0</ele><time>2026-05-03T12:37:13.851Z</time></trkpt><trkpt lat="42.475815" lon="14.1369652"><ele>183.0</ele><time>2026-05-03T12:37:14.851Z</time></trkpt><trkpt lat="42.475972" lon="14.1370664"><ele>183.0</ele><time>2026-05-03T12:37:15.852Z</time></trkpt><trkpt lat="42.4761291" lon="14.1371597"><ele>185.33333333333334</ele><time>2026-05-03T12:37:16.851Z</time></trkpt><trkpt lat="42.4762809" lon="14.1372451"><ele>187.66666666666669</ele><time>2026-05-03T12:37:17.852Z</time></trkpt><trkpt lat="42.4764287" lon="14.1373209"><ele>190.0</ele><time>2026-05-03T12:37:18.851Z</time></trkpt><trkpt lat="42.4765743" lon="14.137382"><ele>188.0</ele><time>2026-05-03T12:37:19.852Z</time></trkpt><trkpt lat="42.4767163" lon="14.1374227"><ele>186.0</ele><time>2026-05-03T12:37:20.851Z</time></trkpt><trkpt lat="42.4768522" lon="14.1374457"><ele>184.0</ele><time>2026-05-03T12:37:21.852Z</time></trkpt><trkpt lat="42.4769901" lon="14.1374618"><ele>182.0</ele><time>2026-05-03T12:37:22.851Z</time></trkpt><trkpt lat="42.4771281" lon="14.1374689"><ele>182.0</ele><time>2026-05-03T12:37:23.851Z</time></trkpt><trkpt lat="42.477271" lon="14.1374633"><ele>182.0</ele><time>2026-05-03T12:37:24.852Z</time></trkpt><trkpt lat="42.4774212" lon="14.1374424"><ele>182.0</ele><time>2026-05-03T12:37:25.852Z</time></trkpt><trkpt lat="42.4775766" lon="14.1373986"><ele>179.33333333333331</ele><time>2026-05-03T12:37:26.851Z</time></trkpt><trkpt lat="42.4777356" lon="14.1373335"><ele>176.66666666666666</ele><time>2026-05-03T12:37:27.852Z</time></trkpt><trkpt lat="42.4778879" lon="14.1372684"><ele>174.0</ele><time>2026-05-03T12:37:28.851Z</time></trkpt><trkpt lat="42.4780331" lon="14.1372144"><ele>172.5</ele><time>2026-05-03T12:37:29.851Z</time></trkpt><trkpt lat="42.4781666" lon="14.1371893"><ele>171.0</ele><time>2026-05-03T12:37:30.851Z</time></trkpt><trkpt lat="42.4782964" lon="14.1372019"><ele>169.5</ele><time>2026-05-03T12:37:31.852Z</time></trkpt><trkpt lat="42.4784306" lon="14.137247"><ele>168.0</ele><time>2026-05-03T12:37:32.852Z</time></trkpt><trkpt lat="42.4785673" lon="14.1372925"><ele>168.0</ele><time>2026-05-03T12:37:33.851Z</time></trkpt><trkpt lat="42.4787038" lon="14.1373046"><ele>168.0</ele><time>2026-05-03T12:37:34.852Z</time></trkpt><trkpt lat="42.4788432" lon="14.1372644"><ele>168.0</ele><time>2026-05-03T12:37:35.851Z</time></trkpt><trkpt lat="42.478983" lon="14.1372018"><ele>168.0</ele><time>2026-05-03T12:37:36.851Z</time></trkpt><trkpt lat="42.4791128" lon="14.1371327"><ele>167.75</ele><time>2026-05-03T12:37:37.851Z</time></trkpt><trkpt lat="42.479224" lon="14.1370322"><ele>167.5</ele><time>2026-05-03T12:37:38.851Z</time></trkpt><trkpt lat="42.4793194" lon="14.1368946"><ele>167.25</ele><time>2026-05-03T12:37:39.852Z</time></trkpt><trkpt lat="42.4794066" lon="14.1367385"><ele>167.0</ele><time>2026-05-03T12:37:40.851Z</time></trkpt><trkpt lat="42.4794898" lon="14.1365897"><ele>166.5</ele><time>2026-05-03T12:37:41.852Z</time></trkpt><trkpt lat="42.4795838" lon="14.13645"><ele>166.0</ele><time>2026-05-03T12:37:42.851Z</time></trkpt><trkpt lat="42.4796895" lon="14.1363099"><ele>165.5</ele><time>2026-05-03T12:37:43.852Z</time></trkpt><trkpt lat="42.4797913" lon="14.1361701"><ele>165.0</ele><time>2026-05-03T12:37:44.852Z</time></trkpt><trkpt lat="42.4798738" lon="14.1360216"><ele>165.0</ele><time>2026-05-03T12:37:45.851Z</time></trkpt><trkpt lat="42.4799351" lon="14.1358486"><ele>165.0</ele><time>2026-05-03T12:37:46.852Z</time></trkpt><trkpt lat="42.4799823" lon="14.1356618"><ele>165.0</ele><time>2026-05-03T12:37:47.851Z</time></trkpt><trkpt lat="42.4800286" lon="14.1354778"><ele>165.0</ele><time>2026-05-03T12:37:48.851Z</time></trkpt><trkpt lat="42.4800922" lon="14.1353138"><ele>163.0</ele><time>2026-05-03T12:37:49.852Z</time></trkpt><trkpt lat="42.4801711" lon="14.1351803"><ele>161.0</ele><time>2026-05-03T12:37:50.851Z</time></trkpt><trkpt lat="42.4802616" lon="14.1350649"><ele>159.0</ele><time>2026-05-03T12:37:51.852Z</time></trkpt><trkpt lat="42.4803628" lon="14.1349618"><ele>157.0</ele><time>2026-05-03T12:37:52.851Z</time></trkpt><trkpt lat="42.480464" lon="14.1348735"><ele>157.2</ele><time>2026-05-03T12:37:53.851Z</time></trkpt><trkpt lat="42.4805701" lon="14.1348079"><ele>157.39999999999998</ele><time>2026-05-03T12:37:54.851Z</time></trkpt><trkpt lat="42.4806748" lon="14.1347773"><ele>157.60000000000002</ele><time>2026-05-03T12:37:55.852Z</time></trkpt><trkpt lat="42.4807752" lon="14.134801"><ele>157.8</ele><time>2026-05-03T12:37:56.852Z</time></trkpt><trkpt lat="42.48087" lon="14.1348648"><ele>158.0</ele><time>2026-05-03T12:37:57.852Z</time></trkpt><trkpt lat="42.4809613" lon="14.1349491"><ele>158.0</ele><time>2026-05-03T12:37:58.851Z</time></trkpt><trkpt lat="42.4810418" lon="14.1350551"><ele>158.0</ele><time>2026-05-03T12:37:59.852Z</time></trkpt><trkpt lat="42.4811016" lon="14.1351865"><ele>158.0</ele><time>2026-05-03T12:38:00.852Z</time></trkpt><trkpt lat="42.4811514" lon="14.135337"><ele>158.0</ele><time>2026-05-03T12:38:01.852Z</time></trkpt><trkpt lat="42.4812071" lon="14.135501"><ele>155.25</ele><time>2026-05-03T12:38:02.851Z</time></trkpt><trkpt lat="42.4812681" lon="14.135674"><ele>152.5</ele><time>2026-05-03T12:38:03.851Z</time></trkpt><trkpt lat="42.4813298" lon="14.1358564"><ele>149.75</ele><time>2026-05-03T12:38:04.851Z</time></trkpt><trkpt lat="42.4813896" lon="14.1360376"><ele>147.0</ele><time>2026-05-03T12:38:05.851Z</time></trkpt><trkpt lat="42.4814475" lon="14.1362075"><ele>147.0</ele><time>2026-05-03T12:38:06.851Z</time></trkpt><trkpt lat="42.481512" lon="14.1363602"><ele>147.0</ele><time>2026-05-03T12:38:07.852Z</time></trkpt><trkpt lat="42.4815991" lon="14.1364734"><ele>147.0</ele><time>2026-05-03T12:38:08.851Z</time></trkpt><trkpt lat="42.4817025" lon="14.136535"><ele>147.0</ele><time>2026-05-03T12:38:09.851Z</time></trkpt><trkpt lat="42.4818123" lon="14.1365416"><ele>147.0</ele><time>2026-05-03T12:38:10.851Z</time></trkpt><trkpt lat="42.4819255" lon="14.1365041"><ele>147.0</ele><time>2026-05-03T12:38:11.851Z</time></trkpt><trkpt lat="42.4820261" lon="14.1364121"><ele>147.0</ele><time>2026-05-03T12:38:12.85Z</time></trkpt><trkpt lat="42.4820986" lon="14.1362769"><ele>147.0</ele><time>2026-05-03T12:38:13.851Z</time></trkpt><trkpt lat="42.4821503" lon="14.1361065"><ele>145.33333333333334</ele><time>2026-05-03T12:38:14.852Z</time></trkpt><trkpt lat="42.4821964" lon="14.1359138"><ele>143.66666666666669</ele><time>2026-05-03T12:38:15.851Z</time></trkpt><trkpt lat="42.4822421" lon="14.1357095"><ele>142.0</ele><time>2026-05-03T12:38:16.851Z</time></trkpt><trkpt lat="42.482288" lon="14.1354892"><ele>141.0</ele><time>2026-05-03T12:38:17.851Z</time></trkpt><trkpt lat="42.4823367" lon="14.1352587"><ele>140.0</ele><time>2026-05-03T12:38:18.853Z</time></trkpt><trkpt lat="42.4823846" lon="14.1350345"><ele>139.0</ele><time>2026-05-03T12:38:19.852Z</time></trkpt><trkpt lat="42.4824308" lon="14.134819"><ele>138.33333333333334</ele><time>2026-05-03T12:38:20.851Z</time></trkpt><trkpt lat="42.4824753" lon="14.1346037"><ele>137.66666666666666</ele><time>2026-05-03T12:38:21.851Z</time></trkpt><trkpt lat="42.4825174" lon="14.1344"><ele>137.0</ele><time>2026-05-03T12:38:22.851Z</time></trkpt><trkpt lat="42.4825592" lon="14.1342016"><ele>136.0</ele><time>2026-05-03T12:38:23.85Z</time></trkpt><trkpt lat="42.4825997" lon="14.1340134"><ele>135.0</ele><time>2026-05-03T12:38:24.851Z</time></trkpt><trkpt lat="42.4826417" lon="14.1338306"><ele>134.0</ele><time>2026-05-03T12:38:25.851Z</time></trkpt><trkpt lat="42.4826887" lon="14.1336485"><ele>133.0</ele><time>2026-05-03T12:38:26.852Z</time></trkpt><trkpt lat="42.4827504" lon="14.1334792"><ele>133.0</ele><time>2026-05-03T12:38:27.851Z</time></trkpt><trkpt lat="42.4828324" lon="14.1333399"><ele>133.0</ele><time>2026-05-03T12:38:28.851Z</time></trkpt><trkpt lat="42.4829398" lon="14.1332486"><ele>133.0</ele><time>2026-05-03T12:38:29.851Z</time></trkpt><trkpt lat="42.4830662" lon="14.1331748"><ele>133.0</ele><time>2026-05-03T12:38:30.852Z</time></trkpt><trkpt lat="42.4832074" lon="14.1331064"><ele>131.66666666666669</ele><time>2026-05-03T12:38:31.853Z</time></trkpt><trkpt lat="42.4833592" lon="14.1330285"><ele>130.33333333333334</ele><time>2026-05-03T12:38:32.851Z</time></trkpt><trkpt lat="42.4835135" lon="14.1329587"><ele>129.0</ele><time>2026-05-03T12:38:33.851Z</time></trkpt><trkpt lat="42.483658" lon="14.1328915"><ele>128.0</ele><time>2026-05-03T12:38:34.851Z</time></trkpt><trkpt lat="42.4837923" lon="14.1328253"><ele>127.0</ele><time>2026-05-03T12:38:35.851Z</time></trkpt><trkpt lat="42.4839064" lon="14.132769"><ele>126.0</ele><time>2026-05-03T12:38:36.852Z</time></trkpt><trkpt lat="42.4840112" lon="14.1327176"><ele>125.0</ele><time>2026-05-03T12:38:37.851Z</time></trkpt><trkpt lat="42.4840964" lon="14.1326777"><ele>125.0</ele><time>2026-05-03T12:38:38.851Z</time></trkpt><trkpt lat="42.4841726" lon="14.1326458"><ele>125.0</ele><time>2026-05-03T12:38:39.852Z</time></trkpt><trkpt lat="42.4842515" lon="14.132621"><ele>125.0</ele><time>2026-05-03T12:38:40.851Z</time></trkpt><trkpt lat="42.4843417" lon="14.1325885"><ele>125.0</ele><time>2026-05-03T12:38:41.852Z</time></trkpt><trkpt lat="42.4844518" lon="14.1325261"><ele>125.0</ele><time>2026-05-03T12:38:42.852Z</time></trkpt><trkpt lat="42.4845833" lon="14.1324509"><ele>123.75</ele><time>2026-05-03T12:38:43.851Z</time></trkpt><trkpt lat="42.4847077" lon="14.1323904"><ele>122.5</ele><time>2026-05-03T12:38:44.852Z</time></trkpt><trkpt lat="42.4848312" lon="14.1323381"><ele>121.25</ele><time>2026-05-03T12:38:45.85Z</time></trkpt><trkpt lat="42.484959" lon="14.1323056"><ele>120.0</ele><time>2026-05-03T12:38:46.851Z</time></trkpt><trkpt lat="42.4850895" lon="14.1323114"><ele>120.0</ele><time>2026-05-03T12:38:47.851Z</time></trkpt><trkpt lat="42.4852157" lon="14.132356"><ele>120.0</ele><time>2026-05-03T12:38:48.851Z</time></trkpt><trkpt lat="42.4853392" lon="14.1324337"><ele>120.0</ele><time>2026-05-03T12:38:49.851Z</time></trkpt><trkpt lat="42.4854527" lon="14.1325457"><ele>120.0</ele><time>2026-05-03T12:38:50.851Z</time></trkpt><trkpt lat="42.4855621" lon="14.1326739"><ele>119.33333333333334</ele><time>2026-05-03T12:38:51.851Z</time></trkpt><trkpt lat="42.4856755" lon="14.1328058"><ele>118.66666666666667</ele><time>2026-05-03T12:38:52.852Z</time></trkpt><trkpt lat="42.4857935" lon="14.1329444"><ele>118.0</ele><time>2026-05-03T12:38:53.851Z</time></trkpt><trkpt lat="42.4859133" lon="14.1330878"><ele>117.75</ele><time>2026-05-03T12:38:54.851Z</time></trkpt><trkpt lat="42.4860308" lon="14.1332282"><ele>117.5</ele><time>2026-05-03T12:38:55.851Z</time></trkpt><trkpt lat="42.4861402" lon="14.1333588"><ele>117.25</ele><time>2026-05-03T12:38:56.852Z</time></trkpt><trkpt lat="42.4862434" lon="14.1334826"><ele>117.0</ele><time>2026-05-03T12:38:57.851Z</time></trkpt><trkpt lat="42.4863429" lon="14.1335988"><ele>117.0</ele><time>2026-05-03T12:38:58.851Z</time></trkpt><trkpt lat="42.4864415" lon="14.1337171"><ele>117.0</ele><time>2026-05-03T12:38:59.852Z</time></trkpt><trkpt lat="42.4865259" lon="14.133828"><ele>117.0</ele><time>2026-05-03T12:39:00.852Z</time></trkpt><trkpt lat="42.4866016" lon="14.1339536"><ele>117.0</ele><time>2026-05-03T12:39:01.852Z</time></trkpt><trkpt lat="42.4866532" lon="14.134104"><ele>117.0</ele><time>2026-05-03T12:39:02.851Z</time></trkpt><trkpt lat="42.4866846" lon="14.1342753"><ele>117.0</ele><time>2026-05-03T12:39:03.852Z</time></trkpt><trkpt lat="42.4867206" lon="14.1344626"><ele>117.0</ele><time>2026-05-03T12:39:04.852Z</time></trkpt><trkpt lat="42.486756" lon="14.1346648"><ele>117.0</ele><time>2026-05-03T12:39:05.851Z</time></trkpt><trkpt lat="42.4867907" lon="14.1348769"><ele>117.0</ele><time>2026-05-03T12:39:06.852Z</time></trkpt><trkpt lat="42.4868296" lon="14.1350935"><ele>117.0</ele><time>2026-05-03T12:39:07.852Z</time></trkpt><trkpt lat="42.4868714" lon="14.1353118"><ele>117.0</ele><time>2026-05-03T12:39:08.851Z</time></trkpt><trkpt lat="42.4869147" lon="14.1355291"><ele>116.66666666666666</ele><time>2026-05-03T12:39:09.85Z</time></trkpt><trkpt lat="42.4869657" lon="14.1357428"><ele>116.33333333333333</ele><time>2026-05-03T12:39:10.851Z</time></trkpt><trkpt lat="42.4870291" lon="14.1359474"><ele>116.0</ele><time>2026-05-03T12:39:11.85Z</time></trkpt><trkpt lat="42.4870975" lon="14.1361447"><ele>117.0</ele><time>2026-05-03T12:39:12.851Z</time></trkpt><trkpt lat="42.4871692" lon="14.1363337"><ele>118.0</ele><time>2026-05-03T12:39:13.851Z</time></trkpt><trkpt lat="42.4872421" lon="14.1365207"><ele>119.0</ele><time>2026-05-03T12:39:14.85Z</time></trkpt><trkpt lat="42.487313" lon="14.1367135"><ele>120.66666666666666</ele><time>2026-05-03T12:39:15.85Z</time></trkpt><trkpt lat="42.4873822" lon="14.1369146"><ele>122.33333333333334</ele><time>2026-05-03T12:39:16.85Z</time></trkpt><trkpt lat="42.4874521" lon="14.1371166"><ele>124.0</ele><time>2026-05-03T12:39:17.851Z</time></trkpt><trkpt lat="42.4875172" lon="14.1373121"><ele>124.0</ele><time>2026-05-03T12:39:18.85Z</time></trkpt><trkpt lat="42.4875773" lon="14.1375138"><ele>124.0</ele><time>2026-05-03T12:39:19.851Z</time></trkpt><trkpt lat="42.4876264" lon="14.13773"><ele>124.0</ele><time>2026-05-03T12:39:20.85Z</time></trkpt><trkpt lat="42.487643" lon="14.1379553"><ele>124.0</ele><time>2026-05-03T12:39:21.85Z</time></trkpt><trkpt lat="42.487637" lon="14.1381702"><ele>124.0</ele><time>2026-05-03T12:39:22.851Z</time></trkpt><trkpt lat="42.4876351" lon="14.1383652"><ele>124.0</ele><time>2026-05-03T12:39:23.85Z</time></trkpt><trkpt lat="42.4876493" lon="14.1385553"><ele>124.0</ele><time>2026-05-03T12:39:24.85Z</time></trkpt><trkpt lat="42.4876961" lon="14.1387421"><ele>124.25</ele><time>2026-05-03T12:39:25.851Z</time></trkpt><trkpt lat="42.4877657" lon="14.1389183"><ele>124.5</ele><time>2026-05-03T12:39:26.85Z</time></trkpt><trkpt lat="42.4878571" lon="14.1390716"><ele>124.75</ele><time>2026-05-03T12:39:27.851Z</time></trkpt><trkpt lat="42.4879694" lon="14.1391952"><ele>125.0</ele><time>2026-05-03T12:39:28.851Z</time></trkpt><trkpt lat="42.4880997" lon="14.1392824"><ele>127.25</ele><time>2026-05-03T12:39:29.85Z</time></trkpt><trkpt lat="42.4882363" lon="14.1393307"><ele>129.5</ele><time>2026-05-03T12:39:30.85Z</time></trkpt><trkpt lat="42.4883712" lon="14.1393515"><ele>131.75</ele><time>2026-05-03T12:39:31.851Z</time></trkpt><trkpt lat="42.4884942" lon="14.1393633"><ele>134.0</ele><time>2026-05-03T12:39:32.85Z</time></trkpt><trkpt lat="42.4886023" lon="14.1393706"><ele>134.0</ele><time>2026-05-03T12:39:33.85Z</time></trkpt><trkpt lat="42.4887034" lon="14.1393754"><ele>134.0</ele><time>2026-05-03T12:39:34.85Z</time></trkpt><trkpt lat="42.4887931" lon="14.1393799"><ele>134.0</ele><time>2026-05-03T12:39:35.85Z</time></trkpt><trkpt lat="42.488871" lon="14.1393918"><ele>134.0</ele><time>2026-05-03T12:39:36.85Z</time></trkpt><trkpt lat="42.4889448" lon="14.1394093"><ele>134.0</ele><time>2026-05-03T12:39:37.85Z</time></trkpt><trkpt lat="42.4890136" lon="14.1394365"><ele>134.0</ele><time>2026-05-03T12:39:38.85Z</time></trkpt><trkpt lat="42.4890752" lon="14.1394727"><ele>134.5</ele><time>2026-05-03T12:39:39.85Z</time></trkpt><trkpt lat="42.489178" lon="14.1395695"><ele>135.0</ele><time>2026-05-03T12:39:41.85Z</time></trkpt><trkpt lat="42.4892401" lon="14.1396066"><ele>135.5</ele><time>2026-05-03T12:39:42.85Z</time></trkpt><trkpt lat="42.4893088" lon="14.139608"><ele>136.0</ele><time>2026-05-03T12:39:43.851Z</time></trkpt><trkpt lat="42.48938" lon="14.139568"><ele>136.5</ele><time>2026-05-03T12:39:44.85Z</time></trkpt><trkpt lat="42.489457" lon="14.1395023"><ele>137.0</ele><time>2026-05-03T12:39:45.85Z</time></trkpt><trkpt lat="42.4895476" lon="14.139469"><ele>137.79999999999998</ele><time>2026-05-03T12:39:46.85Z</time></trkpt><trkpt lat="42.4896451" lon="14.1394595"><ele>138.6</ele><time>2026-05-03T12:39:47.851Z</time></trkpt><trkpt lat="42.4897466" lon="14.1394558"><ele>139.39999999999998</ele><time>2026-05-03T12:39:48.851Z</time></trkpt><trkpt lat="42.4898498" lon="14.1394557"><ele>140.2</ele><time>2026-05-03T12:39:49.85Z</time></trkpt><trkpt lat="42.4899539" lon="14.1394612"><ele>141.0</ele><time>2026-05-03T12:39:50.851Z</time></trkpt><trkpt lat="42.4900493" lon="14.1394657"><ele>141.0</ele><time>2026-05-03T12:39:51.85Z</time></trkpt><trkpt lat="42.4901473" lon="14.1394738"><ele>141.0</ele><time>2026-05-03T12:39:52.85Z</time></trkpt><trkpt lat="42.4902418" lon="14.1394817"><ele>141.0</ele><time>2026-05-03T12:39:53.851Z</time></trkpt><trkpt lat="42.4903348" lon="14.1394905"><ele>141.0</ele><time>2026-05-03T12:39:54.851Z</time></trkpt><trkpt lat="42.4904258" lon="14.1394984"><ele>141.0</ele><time>2026-05-03T12:39:55.85Z</time></trkpt><trkpt lat="42.4905148" lon="14.1395045"><ele>143.0</ele><time>2026-05-03T12:39:56.851Z</time></trkpt><trkpt lat="42.4905989" lon="14.1395122"><ele>145.0</ele><time>2026-05-03T12:39:57.85Z</time></trkpt><trkpt lat="42.4906729" lon="14.1395215"><ele>147.0</ele><time>2026-05-03T12:39:58.851Z</time></trkpt><trkpt lat="42.4907383" lon="14.1395359"><ele>149.0</ele><time>2026-05-03T12:39:59.851Z</time></trkpt><trkpt lat="42.490838" lon="14.1396246"><ele>151.0</ele><time>2026-05-03T12:40:01.851Z</time></trkpt><trkpt lat="42.4908823" lon="14.1397974"><ele>151.8</ele><time>2026-05-03T12:40:03.851Z</time></trkpt><trkpt lat="42.4908951" lon="14.1399236"><ele>152.6</ele><time>2026-05-03T12:40:04.85Z</time></trkpt><trkpt lat="42.4909019" lon="14.140074"><ele>153.4</ele><time>2026-05-03T12:40:05.851Z</time></trkpt><trkpt lat="42.4909008" lon="14.1402351"><ele>154.2</ele><time>2026-05-03T12:40:06.85Z</time></trkpt><trkpt lat="42.4908951" lon="14.1404004"><ele>155.0</ele><time>2026-05-03T12:40:07.85Z</time></trkpt><trkpt lat="42.4908884" lon="14.1405576"><ele>155.0</ele><time>2026-05-03T12:40:08.85Z</time></trkpt><trkpt lat="42.4908935" lon="14.1406949"><ele>155.0</ele><time>2026-05-03T12:40:09.85Z</time></trkpt><trkpt lat="42.490924" lon="14.1407971"><ele>155.0</ele><time>2026-05-03T12:40:10.85Z</time></trkpt><trkpt lat="42.4909768" lon="14.1408616"><ele>155.0</ele><time>2026-05-03T12:40:11.851Z</time></trkpt><trkpt lat="42.4910549" lon="14.1408664"><ele>155.0</ele><time>2026-05-03T12:40:12.851Z</time></trkpt><trkpt lat="42.4911228" lon="14.1408143"><ele>155.0</ele><time>2026-05-03T12:40:13.85Z</time></trkpt><trkpt lat="42.4911866" lon="14.1407315"><ele>155.0</ele><time>2026-05-03T12:40:14.85Z</time></trkpt><trkpt lat="42.4912464" lon="14.1406347"><ele>155.0</ele><time>2026-05-03T12:40:15.85Z</time></trkpt><trkpt lat="42.4912943" lon="14.1405582"><ele>155.0</ele><time>2026-05-03T12:40:16.85Z</time></trkpt><trkpt lat="42.4913358" lon="14.1404879"><ele>155.0</ele><time>2026-05-03T12:40:17.851Z</time></trkpt><trkpt lat="42.4913738" lon="14.1404052"><ele>155.0</ele><time>2026-05-03T12:40:18.85Z</time></trkpt><trkpt lat="42.4914711" lon="14.1403362"><ele>155.0</ele><time>2026-05-03T12:40:20.85Z</time></trkpt><trkpt lat="42.4915351" lon="14.1403662"><ele>156.0</ele><time>2026-05-03T12:40:21.851Z</time></trkpt><trkpt lat="42.491584" lon="14.1404305"><ele>157.0</ele><time>2026-05-03T12:40:22.851Z</time></trkpt><trkpt lat="42.4916185" lon="14.140527"><ele>158.0</ele><time>2026-05-03T12:40:23.85Z</time></trkpt><trkpt lat="42.4916478" lon="14.1406445"><ele>159.0</ele><time>2026-05-03T12:40:24.85Z</time></trkpt><trkpt lat="42.4916819" lon="14.1407742"><ele>160.0</ele><time>2026-05-03T12:40:25.851Z</time></trkpt><trkpt lat="42.4917184" lon="14.1409112"><ele>161.0</ele><time>2026-05-03T12:40:26.85Z</time></trkpt><trkpt lat="42.4917529" lon="14.1410581"><ele>161.0</ele><time>2026-05-03T12:40:27.85Z</time></trkpt><trkpt lat="42.4917781" lon="14.1411981"><ele>161.0</ele><time>2026-05-03T12:40:28.851Z</time></trkpt><trkpt lat="42.4917879" lon="14.1413437"><ele>161.0</ele><time>2026-05-03T12:40:29.85Z</time></trkpt><trkpt lat="42.49178" lon="14.1414932"><ele>161.0</ele><time>2026-05-03T12:40:30.85Z</time></trkpt><trkpt lat="42.4917502" lon="14.1416409"><ele>161.0</ele><time>2026-05-03T12:40:31.85Z</time></trkpt><trkpt lat="42.49172" lon="14.1417982"><ele>161.0</ele><time>2026-05-03T12:40:32.85Z</time></trkpt><trkpt lat="42.4916537" lon="14.1419441"><ele>161.0</ele><time>2026-05-03T12:40:33.851Z</time></trkpt><trkpt lat="42.4916085" lon="14.142094"><ele>161.0</ele><time>2026-05-03T12:40:34.851Z</time></trkpt><trkpt lat="42.4916064" lon="14.1422439"><ele>161.0</ele><time>2026-05-03T12:40:35.851Z</time></trkpt><trkpt lat="42.4916388" lon="14.1423788"><ele>160.20000000000002</ele><time>2026-05-03T12:40:36.85Z</time></trkpt><trkpt lat="42.4916961" lon="14.1424973"><ele>159.4</ele><time>2026-05-03T12:40:37.851Z</time></trkpt><trkpt lat="42.4917492" lon="14.1426214"><ele>158.6</ele><time>2026-05-03T12:40:38.85Z</time></trkpt><trkpt lat="42.4917921" lon="14.1427461"><ele>157.8</ele><time>2026-05-03T12:40:39.85Z</time></trkpt><trkpt lat="42.4918029" lon="14.142876"><ele>157.0</ele><time>2026-05-03T12:40:40.851Z</time></trkpt><trkpt lat="42.4917687" lon="14.1429901"><ele>157.0</ele><time>2026-05-03T12:40:41.85Z</time></trkpt><trkpt lat="42.4916981" lon="14.143081"><ele>157.0</ele><time>2026-05-03T12:40:42.851Z</time></trkpt><trkpt lat="42.4916216" lon="14.1431764"><ele>157.0</ele><time>2026-05-03T12:40:43.851Z</time></trkpt><trkpt lat="42.4915702" lon="14.1432947"><ele>157.0</ele><time>2026-05-03T12:40:44.85Z</time></trkpt><trkpt lat="42.4915501" lon="14.1434225"><ele>157.0</ele><time>2026-05-03T12:40:45.85Z</time></trkpt><trkpt lat="42.4915618" lon="14.1435625"><ele>157.0</ele><time>2026-05-03T12:40:46.85Z</time></trkpt><trkpt lat="42.4916049" lon="14.1437062"><ele>157.0</ele><time>2026-05-03T12:40:47.851Z</time></trkpt><trkpt lat="42.4916666" lon="14.1438512"><ele>157.0</ele><time>2026-05-03T12:40:48.85Z</time></trkpt><trkpt lat="42.4917429" lon="14.1439863"><ele>157.0</ele><time>2026-05-03T12:40:49.85Z</time></trkpt><trkpt lat="42.4918367" lon="14.1441034"><ele>157.0</ele><time>2026-05-03T12:40:50.85Z</time></trkpt><trkpt lat="42.4919554" lon="14.1441846"><ele>157.0</ele><time>2026-05-03T12:40:51.85Z</time></trkpt><trkpt lat="42.4921039" lon="14.1442468"><ele>157.0</ele><time>2026-05-03T12:40:52.851Z</time></trkpt><trkpt lat="42.4922442" lon="14.1443129"><ele>157.0</ele><time>2026-05-03T12:40:53.85Z</time></trkpt><trkpt lat="42.4923913" lon="14.1443803"><ele>150.75</ele><time>2026-05-03T12:40:54.85Z</time></trkpt><trkpt lat="42.4925375" lon="14.1444532"><ele>144.5</ele><time>2026-05-03T12:40:55.851Z</time></trkpt><trkpt lat="42.492664" lon="14.1445278"><ele>138.25</ele><time>2026-05-03T12:40:56.85Z</time></trkpt><trkpt lat="42.4927825" lon="14.1446069"><ele>132.0</ele><time>2026-05-03T12:40:57.851Z</time></trkpt><trkpt lat="42.4929013" lon="14.144686"><ele>133.25</ele><time>2026-05-03T12:40:58.85Z</time></trkpt><trkpt lat="42.4930065" lon="14.1447811"><ele>134.5</ele><time>2026-05-03T12:40:59.85Z</time></trkpt><trkpt lat="42.4930969" lon="14.1449242"><ele>135.75</ele><time>2026-05-03T12:41:00.851Z</time></trkpt><trkpt lat="42.493181" lon="14.1450691"><ele>137.0</ele><time>2026-05-03T12:41:01.85Z</time></trkpt><trkpt lat="42.4932857" lon="14.1451806"><ele>137.0</ele><time>2026-05-03T12:41:02.851Z</time></trkpt><trkpt lat="42.4933823" lon="14.145259"><ele>137.0</ele><time>2026-05-03T12:41:03.85Z</time></trkpt><trkpt lat="42.4934652" lon="14.1452949"><ele>137.0</ele><time>2026-05-03T12:41:04.85Z</time></trkpt><trkpt lat="42.4935975" lon="14.1452791"><ele>137.0</ele><time>2026-05-03T12:41:05.85Z</time></trkpt><trkpt lat="42.4936982" lon="14.1452338"><ele>137.0</ele><time>2026-05-03T12:41:06.849Z</time></trkpt><trkpt lat="42.4937918" lon="14.1451706"><ele>135.5</ele><time>2026-05-03T12:41:07.85Z</time></trkpt><trkpt lat="42.4938517" lon="14.1450383"><ele>134.0</ele><time>2026-05-03T12:41:08.851Z</time></trkpt><trkpt lat="42.4938969" lon="14.1448945"><ele>132.5</ele><time>2026-05-03T12:41:09.851Z</time></trkpt><trkpt lat="42.4939461" lon="14.1447355"><ele>131.0</ele><time>2026-05-03T12:41:10.851Z</time></trkpt><trkpt lat="42.4939937" lon="14.1445662"><ele>127.75</ele><time>2026-05-03T12:41:11.851Z</time></trkpt><trkpt lat="42.494042" lon="14.1443966"><ele>124.5</ele><time>2026-05-03T12:41:12.85Z</time></trkpt><trkpt lat="42.494095" lon="14.1442374"><ele>121.25</ele><time>2026-05-03T12:41:13.85Z</time></trkpt><trkpt lat="42.4941672" lon="14.1441005"><ele>118.0</ele><time>2026-05-03T12:41:14.85Z</time></trkpt><trkpt lat="42.494267" lon="14.1439932"><ele>114.5</ele><time>2026-05-03T12:41:15.851Z</time></trkpt><trkpt lat="42.4943808" lon="14.1439137"><ele>111.0</ele><time>2026-05-03T12:41:16.85Z</time></trkpt><trkpt lat="42.494504" lon="14.1438601"><ele>107.5</ele><time>2026-05-03T12:41:17.851Z</time></trkpt><trkpt lat="42.4946293" lon="14.1438434"><ele>104.0</ele><time>2026-05-03T12:41:18.85Z</time></trkpt><trkpt lat="42.4947627" lon="14.143833"><ele>104.0</ele><time>2026-05-03T12:41:19.851Z</time></trkpt><trkpt lat="42.4948998" lon="14.1438298"><ele>104.0</ele><time>2026-05-03T12:41:20.851Z</time></trkpt><trkpt lat="42.4950327" lon="14.1438278"><ele>104.0</ele><time>2026-05-03T12:41:21.851Z</time></trkpt><trkpt lat="42.4951652" lon="14.1438016"><ele>104.0</ele><time>2026-05-03T12:41:22.85Z</time></trkpt><trkpt lat="42.495302" lon="14.1437584"><ele>105.75</ele><time>2026-05-03T12:41:23.85Z</time></trkpt><trkpt lat="42.4954375" lon="14.143712"><ele>107.5</ele><time>2026-05-03T12:41:24.85Z</time></trkpt><trkpt lat="42.495566" lon="14.1436523"><ele>109.25</ele><time>2026-05-03T12:41:25.85Z</time></trkpt><trkpt lat="42.4956855" lon="14.1435729"><ele>111.0</ele><time>2026-05-03T12:41:26.85Z</time></trkpt><trkpt lat="42.4957997" lon="14.1434739"><ele>111.0</ele><time>2026-05-03T12:41:27.85Z</time></trkpt><trkpt lat="42.4959172" lon="14.1433615"><ele>111.0</ele><time>2026-05-03T12:41:28.851Z</time></trkpt><trkpt lat="42.4960394" lon="14.1432538"><ele>111.0</ele><time>2026-05-03T12:41:29.85Z</time></trkpt><trkpt lat="42.4961702" lon="14.1431435"><ele>111.0</ele><time>2026-05-03T12:41:30.851Z</time></trkpt><trkpt lat="42.4963053" lon="14.1430347"><ele>107.33333333333334</ele><time>2026-05-03T12:41:31.851Z</time></trkpt><trkpt lat="42.4964419" lon="14.142922"><ele>103.66666666666667</ele><time>2026-05-03T12:41:32.85Z</time></trkpt><trkpt lat="42.496581" lon="14.1428111"><ele>100.0</ele><time>2026-05-03T12:41:33.851Z</time></trkpt><trkpt lat="42.4967148" lon="14.1426941"><ele>100.0</ele><time>2026-05-03T12:41:34.851Z</time></trkpt><trkpt lat="42.4968433" lon="14.1425724"><ele>100.0</ele><time>2026-05-03T12:41:35.85Z</time></trkpt><trkpt lat="42.4969634" lon="14.1424529"><ele>100.0</ele><time>2026-05-03T12:41:36.851Z</time></trkpt><trkpt lat="42.4970771" lon="14.1423336"><ele>100.0</ele><time>2026-05-03T12:41:37.85Z</time></trkpt><trkpt lat="42.4971811" lon="14.1422133"><ele>97.0</ele><time>2026-05-03T12:41:38.85Z</time></trkpt><trkpt lat="42.4972728" lon="14.1421015"><ele>94.0</ele><time>2026-05-03T12:41:39.85Z</time></trkpt><trkpt lat="42.4973571" lon="14.1420205"><ele>91.0</ele><time>2026-05-03T12:41:40.851Z</time></trkpt><trkpt lat="42.4974352" lon="14.1419702"><ele>88.0</ele><time>2026-05-03T12:41:41.851Z</time></trkpt><trkpt lat="42.4975092" lon="14.1419701"><ele>85.0</ele><time>2026-05-03T12:41:42.85Z</time></trkpt><trkpt lat="42.4975696" lon="14.1420153"><ele>85.0</ele><time>2026-05-03T12:41:43.849Z</time></trkpt><trkpt lat="42.4976033" lon="14.142104"><ele>85.0</ele><time>2026-05-03T12:41:44.85Z</time></trkpt><trkpt lat="42.4975972" lon="14.1422082"><ele>85.0</ele><time>2026-05-03T12:41:45.85Z</time></trkpt><trkpt lat="42.4975548" lon="14.1423189"><ele>85.0</ele><time>2026-05-03T12:41:46.851Z</time></trkpt><trkpt lat="42.4974921" lon="14.1424467"><ele>85.0</ele><time>2026-05-03T12:41:47.851Z</time></trkpt><trkpt lat="42.4974156" lon="14.142584"><ele>85.25</ele><time>2026-05-03T12:41:48.851Z</time></trkpt><trkpt lat="42.4973269" lon="14.1427288"><ele>85.5</ele><time>2026-05-03T12:41:49.85Z</time></trkpt><trkpt lat="42.4972344" lon="14.1428838"><ele>85.75</ele><time>2026-05-03T12:41:50.85Z</time></trkpt><trkpt lat="42.4971434" lon="14.1430376"><ele>86.0</ele><time>2026-05-03T12:41:51.851Z</time></trkpt><trkpt lat="42.4970522" lon="14.1431955"><ele>88.5</ele><time>2026-05-03T12:41:52.85Z</time></trkpt><trkpt lat="42.4969624" lon="14.1433534"><ele>91.0</ele><time>2026-05-03T12:41:53.85Z</time></trkpt><trkpt lat="42.4968731" lon="14.1435098"><ele>93.5</ele><time>2026-05-03T12:41:54.85Z</time></trkpt><trkpt lat="42.4967813" lon="14.1436535"><ele>96.0</ele><time>2026-05-03T12:41:55.85Z</time></trkpt><trkpt lat="42.4966893" lon="14.1437931"><ele>96.0</ele><time>2026-05-03T12:41:56.851Z</time></trkpt><trkpt lat="42.4965963" lon="14.1439222"><ele>96.0</ele><time>2026-05-03T12:41:57.85Z</time></trkpt><trkpt lat="42.4965143" lon="14.1440489"><ele>96.0</ele><time>2026-05-03T12:41:58.851Z</time></trkpt><trkpt lat="42.4964517" lon="14.1441843"><ele>96.0</ele><time>2026-05-03T12:41:59.851Z</time></trkpt><trkpt lat="42.4964166" lon="14.1443414"><ele>92.5</ele><time>2026-05-03T12:42:00.85Z</time></trkpt><trkpt lat="42.496401" lon="14.144522"><ele>89.0</ele><time>2026-05-03T12:42:01.851Z</time></trkpt><trkpt lat="42.4964191" lon="14.1446941"><ele>85.5</ele><time>2026-05-03T12:42:02.85Z</time></trkpt><trkpt lat="42.4964208" lon="14.1448649"><ele>82.0</ele><time>2026-05-03T12:42:03.851Z</time></trkpt><trkpt lat="42.4963872" lon="14.1450293"><ele>84.5</ele><time>2026-05-03T12:42:04.851Z</time></trkpt><trkpt lat="42.4963153" lon="14.1451792"><ele>87.0</ele><time>2026-05-03T12:42:05.85Z</time></trkpt><trkpt lat="42.4962463" lon="14.1453157"><ele>89.5</ele><time>2026-05-03T12:42:06.85Z</time></trkpt><trkpt lat="42.4961978" lon="14.1454542"><ele>92.0</ele><time>2026-05-03T12:42:07.85Z</time></trkpt><trkpt lat="42.4961706" lon="14.145593"><ele>90.0</ele><time>2026-05-03T12:42:08.85Z</time></trkpt><trkpt lat="42.4961762" lon="14.1457298"><ele>88.0</ele><time>2026-05-03T12:42:09.85Z</time></trkpt><trkpt lat="42.4962182" lon="14.1458464"><ele>86.0</ele><time>2026-05-03T12:42:10.851Z</time></trkpt><trkpt lat="42.4962926" lon="14.1459395"><ele>84.0</ele><time>2026-05-03T12:42:11.85Z</time></trkpt><trkpt lat="42.496386" lon="14.1459935"><ele>82.0</ele><time>2026-05-03T12:42:12.851Z</time></trkpt><trkpt lat="42.4964912" lon="14.1459975"><ele>80.0</ele><time>2026-05-03T12:42:13.85Z</time></trkpt><trkpt lat="42.496585" lon="14.145946"><ele>78.0</ele><time>2026-05-03T12:42:14.85Z</time></trkpt><trkpt lat="42.4966567" lon="14.1458473"><ele>76.0</ele><time>2026-05-03T12:42:15.85Z</time></trkpt><trkpt lat="42.4967054" lon="14.1457136"><ele>74.0</ele><time>2026-05-03T12:42:16.85Z</time></trkpt><trkpt lat="42.4967287" lon="14.145561"><ele>72.0</ele><time>2026-05-03T12:42:17.85Z</time></trkpt><trkpt lat="42.4967346" lon="14.1453968"><ele>71.5</ele><time>2026-05-03T12:42:18.851Z</time></trkpt><trkpt lat="42.4967611" lon="14.1452314"><ele>71.0</ele><time>2026-05-03T12:42:19.851Z</time></trkpt><trkpt lat="42.4968116" lon="14.1450648"><ele>70.5</ele><time>2026-05-03T12:42:20.85Z</time></trkpt><trkpt lat="42.4968776" lon="14.1449126"><ele>70.0</ele><time>2026-05-03T12:42:21.851Z</time></trkpt><trkpt lat="42.4969605" lon="14.1447787"><ele>67.5</ele><time>2026-05-03T12:42:22.85Z</time></trkpt><trkpt lat="42.4970585" lon="14.1446618"><ele>65.0</ele><time>2026-05-03T12:42:23.851Z</time></trkpt><trkpt lat="42.4971743" lon="14.1445621"><ele>62.5</ele><time>2026-05-03T12:42:24.851Z</time></trkpt><trkpt lat="42.4972941" lon="14.1444823"><ele>60.0</ele><time>2026-05-03T12:42:25.85Z</time></trkpt><trkpt lat="42.4974151" lon="14.1443937"><ele>60.0</ele><time>2026-05-03T12:42:26.85Z</time></trkpt><trkpt lat="42.4975327" lon="14.1442884"><ele>60.0</ele><time>2026-05-03T12:42:27.85Z</time></trkpt><trkpt lat="42.4976485" lon="14.1441616"><ele>60.0</ele><time>2026-05-03T12:42:28.851Z</time></trkpt><trkpt lat="42.4977658" lon="14.1440089"><ele>57.0</ele><time>2026-05-03T12:42:29.85Z</time></trkpt><trkpt lat="42.4978812" lon="14.143851"><ele>54.0</ele><time>2026-05-03T12:42:30.85Z</time></trkpt><trkpt lat="42.4979888" lon="14.1436951"><ele>51.0</ele><time>2026-05-03T12:42:31.851Z</time></trkpt><trkpt lat="42.4980908" lon="14.1435405"><ele>51.0</ele><time>2026-05-03T12:42:32.851Z</time></trkpt><trkpt lat="42.4981868" lon="14.1433912"><ele>51.0</ele><time>2026-05-03T12:42:33.851Z</time></trkpt><trkpt lat="42.4982744" lon="14.1432445"><ele>51.0</ele><time>2026-05-03T12:42:34.85Z</time></trkpt><trkpt lat="42.4983581" lon="14.1431029"><ele>51.0</ele><time>2026-05-03T12:42:35.851Z</time></trkpt><trkpt lat="42.4984389" lon="14.1429747"><ele>49.0</ele><time>2026-05-03T12:42:36.85Z</time></trkpt><trkpt lat="42.498518" lon="14.1428612"><ele>47.0</ele><time>2026-05-03T12:42:37.851Z</time></trkpt><trkpt lat="42.4985909" lon="14.1427682"><ele>45.0</ele><time>2026-05-03T12:42:38.85Z</time></trkpt><trkpt lat="42.4986512" lon="14.1427037"><ele>43.0</ele><time>2026-05-03T12:42:39.851Z</time></trkpt><trkpt lat="42.4986946" lon="14.1426333"><ele>41.0</ele><time>2026-05-03T12:42:46.851Z</time></trkpt><trkpt lat="42.4987286" lon="14.1425383"><ele>39.0</ele><time>2026-05-03T12:42:48.85Z</time></trkpt><trkpt lat="42.4987639" lon="14.1423927"><ele>40.0</ele><time>2026-05-03T12:42:50.851Z</time></trkpt><trkpt lat="42.4987919" lon="14.1422782"><ele>41.0</ele><time>2026-05-03T12:42:51.85Z</time></trkpt><trkpt lat="42.4988358" lon="14.1421418"><ele>42.0</ele><time>2026-05-03T12:42:52.851Z</time></trkpt><trkpt lat="42.4988994" lon="14.1419895"><ele>43.0</ele><time>2026-05-03T12:42:53.85Z</time></trkpt><trkpt lat="42.4989786" lon="14.1418315"><ele>43.0</ele><time>2026-05-03T12:42:54.851Z</time></trkpt><trkpt lat="42.4990671" lon="14.1416702"><ele>43.0</ele><time>2026-05-03T12:42:55.851Z</time></trkpt><trkpt lat="42.499162" lon="14.1415157"><ele>43.0</ele><time>2026-05-03T12:42:56.851Z</time></trkpt><trkpt lat="42.4992628" lon="14.1413735"><ele>43.0</ele><time>2026-05-03T12:42:57.85Z</time></trkpt><trkpt lat="42.4993701" lon="14.1412382"><ele>45.25</ele><time>2026-05-03T12:42:58.85Z</time></trkpt><trkpt lat="42.4994833" lon="14.1411073"><ele>47.5</ele><time>2026-05-03T12:42:59.849Z</time></trkpt><trkpt lat="42.4996037" lon="14.1409874"><ele>49.75</ele><time>2026-05-03T12:43:00.85Z</time></trkpt><trkpt lat="42.4997195" lon="14.1408717"><ele>52.0</ele><time>2026-05-03T12:43:01.851Z</time></trkpt><trkpt lat="42.499825" lon="14.1407539"><ele>48.75</ele><time>2026-05-03T12:43:02.851Z</time></trkpt><trkpt lat="42.4999271" lon="14.140622"><ele>45.5</ele><time>2026-05-03T12:43:03.849Z</time></trkpt><trkpt lat="42.5000213" lon="14.1404886"><ele>42.25</ele><time>2026-05-03T12:43:04.85Z</time></trkpt><trkpt lat="42.5001109" lon="14.1403553"><ele>39.0</ele><time>2026-05-03T12:43:05.851Z</time></trkpt><trkpt lat="42.5001995" lon="14.1402192"><ele>39.0</ele><time>2026-05-03T12:43:06.85Z</time></trkpt><trkpt lat="42.5002826" lon="14.1400894"><ele>39.0</ele><time>2026-05-03T12:43:07.85Z</time></trkpt><trkpt lat="42.5003628" lon="14.1399634"><ele>39.0</ele><time>2026-05-03T12:43:08.85Z</time></trkpt><trkpt lat="42.5004393" lon="14.1398395"><ele>39.0</ele><time>2026-05-03T12:43:09.85Z</time></trkpt><trkpt lat="42.5005189" lon="14.1397098"><ele>35.75</ele><time>2026-05-03T12:43:10.851Z</time></trkpt><trkpt lat="42.5005958" lon="14.1395744"><ele>32.5</ele><time>2026-05-03T12:43:11.85Z</time></trkpt><trkpt lat="42.5006686" lon="14.1394419"><ele>29.25</ele><time>2026-05-03T12:43:12.851Z</time></trkpt><trkpt lat="42.5007358" lon="14.1393123"><ele>26.0</ele><time>2026-05-03T12:43:13.85Z</time></trkpt><trkpt lat="42.500803" lon="14.1391903"><ele>26.0</ele><time>2026-05-03T12:43:14.85Z</time></trkpt><trkpt lat="42.5008642" lon="14.1390704"><ele>26.0</ele><time>2026-05-03T12:43:15.85Z</time></trkpt><trkpt lat="42.5009204" lon="14.1389522"><ele>26.0</ele><time>2026-05-03T12:43:16.85Z</time></trkpt><trkpt lat="42.500974" lon="14.1388388"><ele>26.0</ele><time>2026-05-03T12:43:17.85Z</time></trkpt><trkpt lat="42.5010236" lon="14.1387346"><ele>26.0</ele><time>2026-05-03T12:43:18.851Z</time></trkpt><trkpt lat="42.5010546" lon="14.1386591"><ele>25.166666666666664</ele><time>2026-05-03T12:43:19.85Z</time></trkpt><trkpt lat="42.501088" lon="14.1385816"><ele>24.333333333333332</ele><time>2026-05-03T12:43:21.85Z</time></trkpt><trkpt lat="42.5011376" lon="14.1384973"><ele>23.5</ele><time>2026-05-03T12:43:27.85Z</time></trkpt><trkpt lat="42.5011843" lon="14.1384096"><ele>22.666666666666664</ele><time>2026-05-03T12:43:29.851Z</time></trkpt><trkpt lat="42.5012258" lon="14.1382687"><ele>21.833333333333332</ele><time>2026-05-03T12:43:31.85Z</time></trkpt><trkpt lat="42.5012459" lon="14.1381682"><ele>21.0</ele><time>2026-05-03T12:43:32.851Z</time></trkpt><trkpt lat="42.5012683" lon="14.1380487"><ele>19.75</ele><time>2026-05-03T12:43:33.85Z</time></trkpt><trkpt lat="42.5012971" lon="14.137911"><ele>18.5</ele><time>2026-05-03T12:43:34.85Z</time></trkpt><trkpt lat="42.5013338" lon="14.1377535"><ele>17.25</ele><time>2026-05-03T12:43:35.851Z</time></trkpt><trkpt lat="42.5013817" lon="14.1375749"><ele>16.0</ele><time>2026-05-03T12:43:36.85Z</time></trkpt><trkpt lat="42.5014363" lon="14.137383"><ele>15.333333333333332</ele><time>2026-05-03T12:43:37.85Z</time></trkpt><trkpt lat="42.5014909" lon="14.1371855"><ele>14.666666666666668</ele><time>2026-05-03T12:43:38.851Z</time></trkpt><trkpt lat="42.5015445" lon="14.1369798"><ele>14.0</ele><time>2026-05-03T12:43:39.85Z</time></trkpt><trkpt lat="42.5015941" lon="14.1367695"><ele>14.0</ele><time>2026-05-03T12:43:40.851Z</time></trkpt><trkpt lat="42.5016454" lon="14.1365621"><ele>14.0</ele><time>2026-05-03T12:43:41.85Z</time></trkpt><trkpt lat="42.5016942" lon="14.1363696"><ele>14.0</ele><time>2026-05-03T12:43:42.85Z</time></trkpt><trkpt lat="42.5017422" lon="14.1361899"><ele>14.0</ele><time>2026-05-03T12:43:43.85Z</time></trkpt><trkpt lat="42.5017873" lon="14.1360206"><ele>14.0</ele><time>2026-05-03T12:43:44.851Z</time></trkpt><trkpt lat="42.5018285" lon="14.1358611"><ele>14.0</ele><time>2026-05-03T12:43:45.851Z</time></trkpt><trkpt lat="42.5018712" lon="14.1357065"><ele>14.0</ele><time>2026-05-03T12:43:46.85Z</time></trkpt><trkpt lat="42.5019101" lon="14.135554"><ele>14.0</ele><time>2026-05-03T12:43:47.85Z</time></trkpt><trkpt lat="42.5019478" lon="14.1354085"><ele>13.999999999999998</ele><time>2026-05-03T12:43:48.85Z</time></trkpt><trkpt lat="42.5019871" lon="14.1352749"><ele>13.999999999999998</ele><time>2026-05-03T12:43:49.85Z</time></trkpt><trkpt lat="42.502023" lon="14.1351586"><ele>14.0</ele><time>2026-05-03T12:43:50.85Z</time></trkpt><trkpt lat="42.5020584" lon="14.135054"><ele>14.0</ele><time>2026-05-03T12:43:51.85Z</time></trkpt><trkpt lat="42.5020932" lon="14.1349653"><ele>14.0</ele><time>2026-05-03T12:43:52.851Z</time></trkpt><trkpt lat="42.5021296" lon="14.13489"><ele>14.0</ele><time>2026-05-03T12:43:53.85Z</time></trkpt><trkpt lat="42.5021732" lon="14.1348248"><ele>14.0</ele><time>2026-05-03T12:43:54.851Z</time></trkpt><trkpt lat="42.5022332" lon="14.1347734"><ele>14.0</ele><time>2026-05-03T12:43:55.85Z</time></trkpt><trkpt lat="42.5023054" lon="14.1347408"><ele>14.0</ele><time>2026-05-03T12:43:56.851Z</time></trkpt><trkpt lat="42.5023804" lon="14.1347383"><ele>14.0</ele><time>2026-05-03T12:43:57.85Z</time></trkpt><trkpt lat="42.5024576" lon="14.1347526"><ele>14.0</ele><time>2026-05-03T12:43:58.85Z</time></trkpt><trkpt lat="42.5025291" lon="14.1347923"><ele>14.000000000000002</ele><time>2026-05-03T12:43:59.85Z</time></trkpt><trkpt lat="42.5025932" lon="14.1348564"><ele>14.0</ele><time>2026-05-03T12:44:00.851Z</time></trkpt><trkpt lat="42.5026574" lon="14.1349338"><ele>14.0</ele><time>2026-05-03T12:44:01.851Z</time></trkpt><trkpt lat="42.5027259" lon="14.1350106"><ele>14.0</ele><time>2026-05-03T12:44:02.85Z</time></trkpt><trkpt lat="42.5027909" lon="14.1350853"><ele>14.000000000000002</ele><time>2026-05-03T12:44:03.85Z</time></trkpt><trkpt lat="42.5028488" lon="14.1351494"><ele>14.0</ele><time>2026-05-03T12:44:04.851Z</time></trkpt><trkpt lat="42.5028991" lon="14.1352068"><ele>13.6</ele><time>2026-05-03T12:44:05.851Z</time></trkpt><trkpt lat="42.5029498" lon="14.1352597"><ele>13.2</ele><time>2026-05-03T12:44:06.85Z</time></trkpt><trkpt lat="42.503045" lon="14.1353151"><ele>12.799999999999999</ele><time>2026-05-03T12:44:08.851Z</time></trkpt><trkpt lat="42.5031199" lon="14.1352455"><ele>12.399999999999999</ele><time>2026-05-03T12:44:10.85Z</time></trkpt><trkpt lat="42.5031692" lon="14.1350792"><ele>12.0</ele><time>2026-05-03T12:44:12.85Z</time></trkpt><trkpt lat="42.5031964" lon="14.1349709"><ele>12.25</ele><time>2026-05-03T12:44:13.85Z</time></trkpt><trkpt lat="42.5032412" lon="14.1348411"><ele>12.5</ele><time>2026-05-03T12:44:14.851Z</time></trkpt><trkpt lat="42.503296" lon="14.1346706"><ele>12.75</ele><time>2026-05-03T12:44:15.851Z</time></trkpt><trkpt lat="42.5033472" lon="14.1344784"><ele>13.0</ele><time>2026-05-03T12:44:16.851Z</time></trkpt><trkpt lat="42.503391" lon="14.1342837"><ele>13.0</ele><time>2026-05-03T12:44:17.85Z</time></trkpt><trkpt lat="42.5034379" lon="14.1340974"><ele>13.0</ele><time>2026-05-03T12:44:18.85Z</time></trkpt><trkpt lat="42.5034833" lon="14.1339258"><ele>13.0</ele><time>2026-05-03T12:44:19.85Z</time></trkpt><trkpt lat="42.5035407" lon="14.1337812"><ele>13.0</ele><time>2026-05-03T12:44:20.85Z</time></trkpt><trkpt lat="42.5036113" lon="14.1336659"><ele>13.0</ele><time>2026-05-03T12:44:21.85Z</time></trkpt><trkpt lat="42.5036988" lon="14.133556"><ele>13.0</ele><time>2026-05-03T12:44:22.849Z</time></trkpt><trkpt lat="42.5038022" lon="14.1334436"><ele>13.0</ele><time>2026-05-03T12:44:23.85Z</time></trkpt><trkpt lat="42.5039195" lon="14.133334"><ele>13.0</ele><time>2026-05-03T12:44:24.85Z</time></trkpt><trkpt lat="42.5040462" lon="14.133225"><ele>13.0</ele><time>2026-05-03T12:44:25.85Z</time></trkpt><trkpt lat="42.5041796" lon="14.1331073"><ele>13.0</ele><time>2026-05-03T12:44:26.849Z</time></trkpt><trkpt lat="42.5043123" lon="14.1329878"><ele>13.0</ele><time>2026-05-03T12:44:27.849Z</time></trkpt><trkpt lat="42.5044447" lon="14.1328677"><ele>13.0</ele><time>2026-05-03T12:44:28.85Z</time></trkpt><trkpt lat="42.5045757" lon="14.1327463"><ele>13.0</ele><time>2026-05-03T12:44:29.85Z</time></trkpt><trkpt lat="42.5047044" lon="14.1326253"><ele>13.0</ele><time>2026-05-03T12:44:30.85Z</time></trkpt><trkpt lat="42.5048323" lon="14.1325038"><ele>12.0</ele><time>2026-05-03T12:44:31.849Z</time></trkpt><trkpt lat="42.5049514" lon="14.1323918"><ele>11.0</ele><time>2026-05-03T12:44:32.849Z</time></trkpt><trkpt lat="42.5050527" lon="14.1322979"><ele>10.0</ele><time>2026-05-03T12:44:33.849Z</time></trkpt><trkpt lat="42.5051467" lon="14.1322103"><ele>9.0</ele><time>2026-05-03T12:44:34.85Z</time></trkpt><trkpt lat="42.5052303" lon="14.1321304"><ele>9.0</ele><time>2026-05-03T12:44:35.849Z</time></trkpt><trkpt lat="42.5053135" lon="14.1320494"><ele>9.0</ele><time>2026-05-03T12:44:36.85Z</time></trkpt><trkpt lat="42.505396" lon="14.1319782"><ele>9.0</ele><time>2026-05-03T12:44:37.85Z</time></trkpt><trkpt lat="42.5054765" lon="14.1319062"><ele>9.0</ele><time>2026-05-03T12:44:38.85Z</time></trkpt><trkpt lat="42.5055564" lon="14.1318302"><ele>9.0</ele><time>2026-05-03T12:44:39.849Z</time></trkpt><trkpt lat="42.5056348" lon="14.1317588"><ele>9.0</ele><time>2026-05-03T12:44:40.849Z</time></trkpt><trkpt lat="42.5057148" lon="14.1316862"><ele>9.0</ele><time>2026-05-03T12:44:41.85Z</time></trkpt><trkpt lat="42.5057935" lon="14.1316184"><ele>9.0</ele><time>2026-05-03T12:44:42.849Z</time></trkpt><trkpt lat="42.5058684" lon="14.1315475"><ele>9.0</ele><time>2026-05-03T12:44:43.85Z</time></trkpt><trkpt lat="42.5059475" lon="14.1314737"><ele>9.0</ele><time>2026-05-03T12:44:44.849Z</time></trkpt><trkpt lat="42.5060197" lon="14.1314003"><ele>9.0</ele><time>2026-05-03T12:44:45.849Z</time></trkpt><trkpt lat="42.5061007" lon="14.1313188"><ele>9.0</ele><time>2026-05-03T12:44:46.849Z</time></trkpt><trkpt lat="42.5062054" lon="14.1312208"><ele>9.0</ele><time>2026-05-03T12:44:47.849Z</time></trkpt><trkpt lat="42.5063152" lon="14.1311265"><ele>9.0</ele><time>2026-05-03T12:44:48.849Z</time></trkpt><trkpt lat="42.5064411" lon="14.1310487"><ele>9.0</ele><time>2026-05-03T12:44:49.85Z</time></trkpt><trkpt lat="42.5065765" lon="14.1309842"><ele>9.0</ele><time>2026-05-03T12:44:50.849Z</time></trkpt><trkpt lat="42.5067231" lon="14.1309169"><ele>9.0</ele><time>2026-05-03T12:44:51.85Z</time></trkpt><trkpt lat="42.5068759" lon="14.1308488"><ele>9.0</ele><time>2026-05-03T12:44:52.85Z</time></trkpt><trkpt lat="42.5070315" lon="14.1307899"><ele>9.0</ele><time>2026-05-03T12:44:53.85Z</time></trkpt><trkpt lat="42.5071931" lon="14.1307344"><ele>9.0</ele><time>2026-05-03T12:44:54.849Z</time></trkpt><trkpt lat="42.5073548" lon="14.130683"><ele>10.0</ele><time>2026-05-03T12:44:55.849Z</time></trkpt><trkpt lat="42.5075144" lon="14.1306305"><ele>11.0</ele><time>2026-05-03T12:44:56.849Z</time></trkpt><trkpt lat="42.5076688" lon="14.1305636"><ele>12.0</ele><time>2026-05-03T12:44:57.85Z</time></trkpt><trkpt lat="42.5078205" lon="14.1304799"><ele>12.0</ele><time>2026-05-03T12:44:58.849Z</time></trkpt><trkpt lat="42.5079651" lon="14.1303796"><ele>12.0</ele><time>2026-05-03T12:44:59.849Z</time></trkpt><trkpt lat="42.5081078" lon="14.1302696"><ele>12.0</ele><time>2026-05-03T12:45:00.85Z</time></trkpt><trkpt lat="42.5082423" lon="14.1301677"><ele>12.0</ele><time>2026-05-03T12:45:01.849Z</time></trkpt><trkpt lat="42.50837" lon="14.1300697"><ele>12.0</ele><time>2026-05-03T12:45:02.849Z</time></trkpt><trkpt lat="42.5084877" lon="14.1299721"><ele>12.0</ele><time>2026-05-03T12:45:03.85Z</time></trkpt><trkpt lat="42.508592" lon="14.1298832"><ele>12.0</ele><time>2026-05-03T12:45:04.849Z</time></trkpt><trkpt lat="42.5086835" lon="14.1298099"><ele>11.0</ele><time>2026-05-03T12:45:05.849Z</time></trkpt><trkpt lat="42.5087679" lon="14.129759"><ele>10.0</ele><time>2026-05-03T12:45:06.849Z</time></trkpt><trkpt lat="42.5088557" lon="14.1297536"><ele>9.0</ele><time>2026-05-03T12:45:07.85Z</time></trkpt><trkpt lat="42.5089606" lon="14.1297862"><ele>8.0</ele><time>2026-05-03T12:45:08.85Z</time></trkpt><trkpt lat="42.5090677" lon="14.1298541"><ele>7.0</ele><time>2026-05-03T12:45:09.849Z</time></trkpt><trkpt lat="42.509172" lon="14.129967"><ele>7.0</ele><time>2026-05-03T12:45:10.849Z</time></trkpt><trkpt lat="42.5092772" lon="14.1301166"><ele>7.0</ele><time>2026-05-03T12:45:11.85Z</time></trkpt><trkpt lat="42.5093889" lon="14.1302842"><ele>7.0</ele><time>2026-05-03T12:45:12.849Z</time></trkpt><trkpt lat="42.5095095" lon="14.1304575"><ele>7.0</ele><time>2026-05-03T12:45:13.849Z</time></trkpt><trkpt lat="42.5096322" lon="14.130646"><ele>7.0</ele><time>2026-05-03T12:45:14.849Z</time></trkpt><trkpt lat="42.5097597" lon="14.1308389"><ele>7.0</ele><time>2026-05-03T12:45:15.849Z</time></trkpt><trkpt lat="42.5098898" lon="14.1310368"><ele>6.666666666666667</ele><time>2026-05-03T12:45:16.849Z</time></trkpt><trkpt lat="42.5100196" lon="14.1312423"><ele>6.333333333333334</ele><time>2026-05-03T12:45:17.849Z</time></trkpt><trkpt lat="42.5101478" lon="14.1314531"><ele>6.0</ele><time>2026-05-03T12:45:18.849Z</time></trkpt><trkpt lat="42.5102684" lon="14.1316679"><ele>6.0</ele><time>2026-05-03T12:45:19.85Z</time></trkpt><trkpt lat="42.5103841" lon="14.1318831"><ele>6.0</ele><time>2026-05-03T12:45:20.85Z</time></trkpt><trkpt lat="42.5104991" lon="14.132097"><ele>6.0</ele><time>2026-05-03T12:45:21.849Z</time></trkpt><trkpt lat="42.5106128" lon="14.1323106"><ele>6.0</ele><time>2026-05-03T12:45:22.85Z</time></trkpt><trkpt lat="42.5107278" lon="14.1325216"><ele>6.0</ele><time>2026-05-03T12:45:23.849Z</time></trkpt><trkpt lat="42.5108466" lon="14.1327334"><ele>6.0</ele><time>2026-05-03T12:45:24.85Z</time></trkpt><trkpt lat="42.5109668" lon="14.1329467"><ele>6.0</ele><time>2026-05-03T12:45:25.849Z</time></trkpt><trkpt lat="42.5110901" lon="14.1331612"><ele>6.0</ele><time>2026-05-03T12:45:26.849Z</time></trkpt><trkpt lat="42.5112114" lon="14.1333733"><ele>6.0</ele><time>2026-05-03T12:45:27.85Z</time></trkpt><trkpt lat="42.5113291" lon="14.1335882"><ele>5.666666666666667</ele><time>2026-05-03T12:45:28.849Z</time></trkpt><trkpt lat="42.5114394" lon="14.1338063"><ele>5.333333333333334</ele><time>2026-05-03T12:45:29.849Z</time></trkpt><trkpt lat="42.5115468" lon="14.1340201"><ele>5.0</ele><time>2026-05-03T12:45:30.85Z</time></trkpt><trkpt lat="42.511666" lon="14.1342147"><ele>5.0</ele><time>2026-05-03T12:45:31.849Z</time></trkpt><trkpt lat="42.5117944" lon="14.1343758"><ele>5.0</ele><time>2026-05-03T12:45:32.849Z</time></trkpt><trkpt lat="42.5119388" lon="14.1345157"><ele>5.0</ele><time>2026-05-03T12:45:33.849Z</time></trkpt><trkpt lat="42.5120961" lon="14.1346347"><ele>4.333333333333334</ele><time>2026-05-03T12:45:34.849Z</time></trkpt><trkpt lat="42.5122598" lon="14.1347467"><ele>3.666666666666667</ele><time>2026-05-03T12:45:35.849Z</time></trkpt><trkpt lat="42.5124252" lon="14.1348611"><ele>3.0</ele><time>2026-05-03T12:45:36.849Z</time></trkpt><trkpt lat="42.5125907" lon="14.1349804"><ele>3.0</ele><time>2026-05-03T12:45:37.849Z</time></trkpt><trkpt lat="42.5127503" lon="14.1351108"><ele>3.0</ele><time>2026-05-03T12:45:38.849Z</time></trkpt><trkpt lat="42.5128988" lon="14.1352585"><ele>3.0</ele><time>2026-05-03T12:45:39.849Z</time></trkpt><trkpt lat="42.5130258" lon="14.1354286"><ele>3.0</ele><time>2026-05-03T12:45:40.849Z</time></trkpt><trkpt lat="42.5131361" lon="14.1356196"><ele>3.0</ele><time>2026-05-03T12:45:41.849Z</time></trkpt><trkpt lat="42.5132277" lon="14.1358233"><ele>3.0</ele><time>2026-05-03T12:45:42.85Z</time></trkpt><trkpt lat="42.5132979" lon="14.1360427"><ele>3.0</ele><time>2026-05-03T12:45:43.849Z</time></trkpt><trkpt lat="42.5133537" lon="14.1362655"><ele>3.0</ele><time>2026-05-03T12:45:44.85Z</time></trkpt><trkpt lat="42.5134056" lon="14.1364843"><ele>3.0</ele><time>2026-05-03T12:45:45.849Z</time></trkpt><trkpt lat="42.5134606" lon="14.1366836"><ele>3.25</ele><time>2026-05-03T12:45:46.849Z</time></trkpt><trkpt lat="42.5135187" lon="14.1368781"><ele>3.5</ele><time>2026-05-03T12:45:47.85Z</time></trkpt><trkpt lat="42.5135807" lon="14.1370624"><ele>3.75</ele><time>2026-05-03T12:45:48.849Z</time></trkpt><trkpt lat="42.5136434" lon="14.1372249"><ele>4.0</ele><time>2026-05-03T12:45:49.85Z</time></trkpt><trkpt lat="42.5136998" lon="14.1373771"><ele>4.5</ele><time>2026-05-03T12:45:50.85Z</time></trkpt><trkpt lat="42.5137374" lon="14.1375233"><ele>5.0</ele><time>2026-05-03T12:45:51.849Z</time></trkpt><trkpt lat="42.513751" lon="14.1376824"><ele>5.5</ele><time>2026-05-03T12:45:52.849Z</time></trkpt><trkpt lat="42.5137342" lon="14.1378446"><ele>6.0</ele><time>2026-05-03T12:45:53.85Z</time></trkpt><trkpt lat="42.5136776" lon="14.138007"><ele>6.0</ele><time>2026-05-03T12:45:54.85Z</time></trkpt><trkpt lat="42.5136114" lon="14.1381758"><ele>6.0</ele><time>2026-05-03T12:45:55.85Z</time></trkpt><trkpt lat="42.513535" lon="14.1383602"><ele>6.0</ele><time>2026-05-03T12:45:56.849Z</time></trkpt><trkpt lat="42.5134598" lon="14.1385487"><ele>5.666666666666667</ele><time>2026-05-03T12:45:57.849Z</time></trkpt><trkpt lat="42.5133844" lon="14.1387401"><ele>5.333333333333334</ele><time>2026-05-03T12:45:58.85Z</time></trkpt><trkpt lat="42.5133111" lon="14.1389206"><ele>5.0</ele><time>2026-05-03T12:45:59.849Z</time></trkpt><trkpt lat="42.5132441" lon="14.1390942"><ele>5.5</ele><time>2026-05-03T12:46:00.849Z</time></trkpt><trkpt lat="42.5131771" lon="14.1392693"><ele>6.0</ele><time>2026-05-03T12:46:01.849Z</time></trkpt><trkpt lat="42.5131101" lon="14.139444"><ele>6.5</ele><time>2026-05-03T12:46:02.85Z</time></trkpt><trkpt lat="42.5130433" lon="14.139619"><ele>7.0</ele><time>2026-05-03T12:46:03.849Z</time></trkpt><trkpt lat="42.5129806" lon="14.1397966"><ele>6.75</ele><time>2026-05-03T12:46:04.85Z</time></trkpt><trkpt lat="42.5129198" lon="14.1399701"><ele>6.5</ele><time>2026-05-03T12:46:05.85Z</time></trkpt><trkpt lat="42.5128609" lon="14.1401391"><ele>6.25</ele><time>2026-05-03T12:46:06.849Z</time></trkpt><trkpt lat="42.5128042" lon="14.1403014"><ele>6.0</ele><time>2026-05-03T12:46:07.85Z</time></trkpt><trkpt lat="42.5127509" lon="14.1404487"><ele>6.0</ele><time>2026-05-03T12:46:08.849Z</time></trkpt><trkpt lat="42.5126969" lon="14.1405912"><ele>6.0</ele><time>2026-05-03T12:46:09.849Z</time></trkpt><trkpt lat="42.5126419" lon="14.1407318"><ele>6.0</ele><time>2026-05-03T12:46:10.85Z</time></trkpt><trkpt lat="42.5125894" lon="14.140866"><ele>6.0</ele><time>2026-05-03T12:46:11.85Z</time></trkpt><trkpt lat="42.5125394" lon="14.1409874"><ele>6.333333333333333</ele><time>2026-05-03T12:46:12.849Z</time></trkpt><trkpt lat="42.5124958" lon="14.1410989"><ele>6.666666666666666</ele><time>2026-05-03T12:46:13.849Z</time></trkpt><trkpt lat="42.512464" lon="14.1412081"><ele>7.0</ele><time>2026-05-03T12:46:14.849Z</time></trkpt><trkpt lat="42.5124469" lon="14.1413159"><ele>7.333333333333333</ele><time>2026-05-03T12:46:15.849Z</time></trkpt><trkpt lat="42.5124663" lon="14.1414104"><ele>7.666666666666666</ele><time>2026-05-03T12:46:16.848Z</time></trkpt><trkpt lat="42.51251" lon="14.1414842"><ele>8.0</ele><time>2026-05-03T12:46:17.849Z</time></trkpt><trkpt lat="42.5125841" lon="14.141521"><ele>8.0</ele><time>2026-05-03T12:46:18.85Z</time></trkpt><trkpt lat="42.5126772" lon="14.1415108"><ele>8.0</ele><time>2026-05-03T12:46:19.849Z</time></trkpt><trkpt lat="42.5127876" lon="14.1414811"><ele>8.0</ele><time>2026-05-03T12:46:20.85Z</time></trkpt><trkpt lat="42.5128995" lon="14.1414632"><ele>8.0</ele><time>2026-05-03T12:46:21.849Z</time></trkpt><trkpt lat="42.5130205" lon="14.1414576"><ele>8.0</ele><time>2026-05-03T12:46:22.849Z</time></trkpt><trkpt lat="42.5131487" lon="14.141462"><ele>7.5</ele><time>2026-05-03T12:46:23.85Z</time></trkpt><trkpt lat="42.5132827" lon="14.1414835"><ele>7.0</ele><time>2026-05-03T12:46:24.849Z</time></trkpt><trkpt lat="42.5134221" lon="14.1415232"><ele>6.5</ele><time>2026-05-03T12:46:25.849Z</time></trkpt><trkpt lat="42.513548" lon="14.141583"><ele>6.0</ele><time>2026-05-03T12:46:26.85Z</time></trkpt><trkpt lat="42.5136578" lon="14.1416526"><ele>5.3999999999999995</ele><time>2026-05-03T12:46:27.849Z</time></trkpt><trkpt lat="42.513757" lon="14.1417267"><ele>4.8</ele><time>2026-05-03T12:46:28.848Z</time></trkpt><trkpt lat="42.5138601" lon="14.1418031"><ele>4.199999999999999</ele><time>2026-05-03T12:46:29.85Z</time></trkpt><trkpt lat="42.5139581" lon="14.1418735"><ele>3.5999999999999996</ele><time>2026-05-03T12:46:30.849Z</time></trkpt><trkpt lat="42.5140517" lon="14.1419418"><ele>3.0</ele><time>2026-05-03T12:46:31.85Z</time></trkpt><trkpt lat="42.514135" lon="14.1420122"><ele>3.0</ele><time>2026-05-03T12:46:32.849Z</time></trkpt><trkpt lat="42.5142048" lon="14.142096"><ele>3.0</ele><time>2026-05-03T12:46:33.85Z</time></trkpt><trkpt lat="42.5142559" lon="14.1421975"><ele>3.0</ele><time>2026-05-03T12:46:34.85Z</time></trkpt><trkpt lat="42.5142842" lon="14.1423068"><ele>3.0</ele><time>2026-05-03T12:46:35.849Z</time></trkpt><trkpt lat="42.5143239" lon="14.1423915"><ele>3.0</ele><time>2026-05-03T12:46:36.85Z</time></trkpt><trkpt lat="42.514375" lon="14.1424518"><ele>3.0</ele><time>2026-05-03T12:46:37.85Z</time></trkpt><trkpt lat="42.5144379" lon="14.142477"><ele>2.8</ele><time>2026-05-03T12:46:38.849Z</time></trkpt><trkpt lat="42.5145462" lon="14.1424307"><ele>2.5999999999999996</ele><time>2026-05-03T12:46:40.849Z</time></trkpt><trkpt lat="42.5146415" lon="14.1424066"><ele>2.4000000000000004</ele><time>2026-05-03T12:46:42.849Z</time></trkpt><trkpt lat="42.514718" lon="14.1424448"><ele>2.2</ele><time>2026-05-03T12:46:45.849Z</time></trkpt><trkpt lat="42.5148186" lon="14.1425107"><ele>2.0</ele><time>2026-05-03T12:46:48.849Z</time></trkpt><trkpt lat="42.5148953" lon="14.1425617"><ele>2.0</ele><time>2026-05-03T12:46:50.849Z</time></trkpt><trkpt lat="42.5149718" lon="14.1426221"><ele>2.0</ele><time>2026-05-03T12:46:52.85Z</time></trkpt><trkpt lat="42.5150486" lon="14.1426853"><ele>2.0</ele><time>2026-05-03T12:46:53.85Z</time></trkpt><trkpt lat="42.515146" lon="14.1427533"><ele>2.0</ele><time>2026-05-03T12:46:54.849Z</time></trkpt><trkpt lat="42.515268" lon="14.1428325"><ele>2.0</ele><time>2026-05-03T12:46:55.849Z</time></trkpt><trkpt lat="42.5154057" lon="14.1429321"><ele>2.333333333333333</ele><time>2026-05-03T12:46:56.85Z</time></trkpt><trkpt lat="42.5155498" lon="14.1430376"><ele>2.6666666666666665</ele><time>2026-05-03T12:46:57.849Z</time></trkpt><trkpt lat="42.5156982" lon="14.1431444"><ele>3.0</ele><time>2026-05-03T12:46:58.85Z</time></trkpt><trkpt lat="42.5158476" lon="14.1432511"><ele>3.333333333333333</ele><time>2026-05-03T12:46:59.849Z</time></trkpt><trkpt lat="42.5159991" lon="14.1433593"><ele>3.6666666666666665</ele><time>2026-05-03T12:47:00.85Z</time></trkpt><trkpt lat="42.5161533" lon="14.143472"><ele>4.0</ele><time>2026-05-03T12:47:01.849Z</time></trkpt><trkpt lat="42.5163093" lon="14.1435844"><ele>4.666666666666666</ele><time>2026-05-03T12:47:02.85Z</time></trkpt><trkpt lat="42.516464" lon="14.143696"><ele>5.333333333333333</ele><time>2026-05-03T12:47:03.849Z</time></trkpt><trkpt lat="42.5166213" lon="14.1438121"><ele>6.0</ele><time>2026-05-03T12:47:04.849Z</time></trkpt><trkpt lat="42.5167786" lon="14.1439283"><ele>6.0</ele><time>2026-05-03T12:47:05.849Z</time></trkpt><trkpt lat="42.5169374" lon="14.1440407"><ele>6.0</ele><time>2026-05-03T12:47:06.85Z</time></trkpt><trkpt lat="42.5170956" lon="14.1441573"><ele>6.0</ele><time>2026-05-03T12:47:07.85Z</time></trkpt><trkpt lat="42.5172539" lon="14.1442737"><ele>5.0</ele><time>2026-05-03T12:47:08.85Z</time></trkpt><trkpt lat="42.5174135" lon="14.1443867"><ele>4.0</ele><time>2026-05-03T12:47:09.849Z</time></trkpt><trkpt lat="42.517576" lon="14.1445001"><ele>3.0</ele><time>2026-05-03T12:47:10.849Z</time></trkpt><trkpt lat="42.5177398" lon="14.144616"><ele>3.0</ele><time>2026-05-03T12:47:11.85Z</time></trkpt><trkpt lat="42.5179046" lon="14.1447334"><ele>3.0</ele><time>2026-05-03T12:47:12.85Z</time></trkpt><trkpt lat="42.5180697" lon="14.1448503"><ele>3.0</ele><time>2026-05-03T12:47:13.849Z</time></trkpt><trkpt lat="42.5182262" lon="14.1449621"><ele>3.0</ele><time>2026-05-03T12:47:14.849Z</time></trkpt><trkpt lat="42.5183747" lon="14.1450702"><ele>3.0</ele><time>2026-05-03T12:47:15.849Z</time></trkpt><trkpt lat="42.5185192" lon="14.1451736"><ele>3.0</ele><time>2026-05-03T12:47:16.849Z</time></trkpt><trkpt lat="42.5186595" lon="14.1452724"><ele>3.0</ele><time>2026-05-03T12:47:17.849Z</time></trkpt><trkpt lat="42.5187949" lon="14.1453686"><ele>3.0</ele><time>2026-05-03T12:47:18.849Z</time></trkpt><trkpt lat="42.5189288" lon="14.1454631"><ele>3.0</ele><time>2026-05-03T12:47:19.849Z</time></trkpt><trkpt lat="42.5190596" lon="14.1455558"><ele>3.0</ele><time>2026-05-03T12:47:20.85Z</time></trkpt><trkpt lat="42.5191824" lon="14.1456353"><ele>3.0</ele><time>2026-05-03T12:47:21.851Z</time></trkpt><trkpt lat="42.5192901" lon="14.1457078"><ele>3.0</ele><time>2026-05-03T12:47:22.849Z</time></trkpt><trkpt lat="42.5193799" lon="14.1457835"><ele>3.0</ele><time>2026-05-03T12:47:23.85Z</time></trkpt><trkpt lat="42.5194552" lon="14.1458568"><ele>3.3333333333333335</ele><time>2026-05-03T12:47:24.848Z</time></trkpt><trkpt lat="42.5195095" lon="14.1459364"><ele>3.666666666666667</ele><time>2026-05-03T12:47:25.85Z</time></trkpt><trkpt lat="42.5195478" lon="14.1460088"><ele>4.0</ele><time>2026-05-03T12:47:26.849Z</time></trkpt><trkpt lat="42.5195396" lon="14.1461712"><ele>4.333333333333334</ele><time>2026-05-03T12:47:28.849Z</time></trkpt><trkpt lat="42.5194886" lon="14.1462573"><ele>4.666666666666667</ele><time>2026-05-03T12:47:29.849Z</time></trkpt><trkpt lat="42.5194344" lon="14.1463477"><ele>5.0</ele><time>2026-05-03T12:47:30.849Z</time></trkpt><trkpt lat="42.5193743" lon="14.1464444"><ele>4.666666666666667</ele><time>2026-05-03T12:47:31.849Z</time></trkpt><trkpt lat="42.5193001" lon="14.1465453"><ele>4.333333333333334</ele><time>2026-05-03T12:47:32.849Z</time></trkpt><trkpt lat="42.5192295" lon="14.1466309"><ele>4.0</ele><time>2026-05-03T12:47:33.849Z</time></trkpt><trkpt lat="42.5191673" lon="14.1467091"><ele>3.666666666666667</ele><time>2026-05-03T12:47:34.85Z</time></trkpt><trkpt lat="42.5191157" lon="14.1467834"><ele>3.3333333333333335</ele><time>2026-05-03T12:47:35.85Z</time></trkpt><trkpt lat="42.5190864" lon="14.1468621"><ele>3.0</ele><time>2026-05-03T12:47:36.849Z</time></trkpt><trkpt lat="42.5190835" lon="14.1470329"><ele>3.0</ele><time>2026-05-03T12:47:38.849Z</time></trkpt><trkpt lat="42.5191166" lon="14.1471302"><ele>3.0</ele><time>2026-05-03T12:47:39.849Z</time></trkpt><trkpt lat="42.5191812" lon="14.1472137"><ele>3.0</ele><time>2026-05-03T12:47:40.85Z</time></trkpt><trkpt lat="42.5192509" lon="14.1472786"><ele>3.0</ele><time>2026-05-03T12:47:41.85Z</time></trkpt><trkpt lat="42.519323" lon="14.1473569"><ele>3.0</ele><time>2026-05-03T12:47:42.85Z</time></trkpt><trkpt lat="42.5194312" lon="14.1473936"><ele>3.0</ele><time>2026-05-03T12:47:43.849Z</time></trkpt><trkpt lat="42.5195193" lon="14.1474754"><ele>3.0</ele><time>2026-05-03T12:47:44.849Z</time></trkpt><trkpt lat="42.519605" lon="14.1475875"><ele>3.0</ele><time>2026-05-03T12:47:45.849Z</time></trkpt><trkpt lat="42.5196921" lon="14.1477137"><ele>3.0</ele><time>2026-05-03T12:47:46.848Z</time></trkpt><trkpt lat="42.5197769" lon="14.1478483"><ele>2.75</ele><time>2026-05-03T12:47:47.849Z</time></trkpt><trkpt lat="42.5198558" lon="14.1479923"><ele>2.5</ele><time>2026-05-03T12:47:48.85Z</time></trkpt><trkpt lat="42.5199329" lon="14.1481459"><ele>2.25</ele><time>2026-05-03T12:47:49.849Z</time></trkpt><trkpt lat="42.5200029" lon="14.1483161"><ele>2.0</ele><time>2026-05-03T12:47:50.85Z</time></trkpt><trkpt lat="42.5200709" lon="14.1484964"><ele>2.0</ele><time>2026-05-03T12:47:51.849Z</time></trkpt><trkpt lat="42.5201381" lon="14.1486789"><ele>2.0</ele><time>2026-05-03T12:47:52.849Z</time></trkpt><trkpt lat="42.5201964" lon="14.1488508"><ele>2.0</ele><time>2026-05-03T12:47:53.849Z</time></trkpt><trkpt lat="42.5202473" lon="14.1490105"><ele>2.0</ele><time>2026-05-03T12:47:54.85Z</time></trkpt><trkpt lat="42.5202999" lon="14.149168"><ele>2.0</ele><time>2026-05-03T12:47:55.85Z</time></trkpt><trkpt lat="42.5203538" lon="14.1493265"><ele>2.0</ele><time>2026-05-03T12:47:56.849Z</time></trkpt><trkpt lat="42.5204077" lon="14.1494785"><ele>2.0</ele><time>2026-05-03T12:47:57.849Z</time></trkpt><trkpt lat="42.5204611" lon="14.1496335"><ele>2.0</ele><time>2026-05-03T12:47:58.849Z</time></trkpt><trkpt lat="42.5205154" lon="14.1497833"><ele>2.2</ele><time>2026-05-03T12:47:59.849Z</time></trkpt><trkpt lat="42.5205686" lon="14.1499326"><ele>2.4000000000000004</ele><time>2026-05-03T12:48:00.849Z</time></trkpt><trkpt lat="42.5206168" lon="14.1500657"><ele>2.5999999999999996</ele><time>2026-05-03T12:48:01.849Z</time></trkpt><trkpt lat="42.5206633" lon="14.1501883"><ele>2.8</ele><time>2026-05-03T12:48:02.85Z</time></trkpt><trkpt lat="42.5207056" lon="14.1503107"><ele>3.0</ele><time>2026-05-03T12:48:03.848Z</time></trkpt><trkpt lat="42.5207551" lon="14.1504444"><ele>3.0</ele><time>2026-05-03T12:48:04.849Z</time></trkpt><trkpt lat="42.5208058" lon="14.1505888"><ele>3.0</ele><time>2026-05-03T12:48:05.849Z</time></trkpt><trkpt lat="42.5208588" lon="14.1507383"><ele>3.0</ele><time>2026-05-03T12:48:06.85Z</time></trkpt><trkpt lat="42.5209101" lon="14.1508837"><ele>3.0</ele><time>2026-05-03T12:48:07.849Z</time></trkpt><trkpt lat="42.520963" lon="14.1510238"><ele>2.8333333333333335</ele><time>2026-05-03T12:48:08.849Z</time></trkpt><trkpt lat="42.5210081" lon="14.1511459"><ele>2.6666666666666665</ele><time>2026-05-03T12:48:09.849Z</time></trkpt><trkpt lat="42.5210466" lon="14.1512564"><ele>2.5</ele><time>2026-05-03T12:48:10.85Z</time></trkpt><trkpt lat="42.5210826" lon="14.1513585"><ele>2.333333333333333</ele><time>2026-05-03T12:48:11.849Z</time></trkpt><trkpt lat="42.5211149" lon="14.1514536"><ele>2.1666666666666665</ele><time>2026-05-03T12:48:12.849Z</time></trkpt><trkpt lat="42.5211471" lon="14.1515437"><ele>2.0</ele><time>2026-05-03T12:48:13.849Z</time></trkpt><trkpt lat="42.5211753" lon="14.1516245"><ele>2.0</ele><time>2026-05-03T12:48:14.849Z</time></trkpt><trkpt lat="42.5212149" lon="14.1517168"><ele>2.0</ele><time>2026-05-03T12:48:16.85Z</time></trkpt><trkpt lat="42.521275" lon="14.1518927"><ele>2.0</ele><time>2026-05-03T12:48:19.85Z</time></trkpt><trkpt lat="42.5213099" lon="14.1519848"><ele>2.0</ele><time>2026-05-03T12:48:20.849Z</time></trkpt><trkpt lat="42.5213774" lon="14.15209"><ele>2.0</ele><time>2026-05-03T12:48:22.851Z</time></trkpt><trkpt lat="42.521446" lon="14.1520835"><ele>1.6666666666666665</ele><time>2026-05-03T12:48:23.849Z</time></trkpt><trkpt lat="42.5215235" lon="14.1520428"><ele>1.3333333333333333</ele><time>2026-05-03T12:48:24.85Z</time></trkpt><trkpt lat="42.5215981" lon="14.1519992"><ele>1.0</ele><time>2026-05-03T12:48:25.85Z</time></trkpt><trkpt lat="42.5216588" lon="14.1519753"><ele>0.6666666666666666</ele><time>2026-05-03T12:48:26.849Z</time></trkpt><trkpt lat="42.5217262" lon="14.1520045"><ele>0.3333333333333333</ele><time>2026-05-03T12:48:28.85Z</time></trkpt><trkpt lat="42.5217785" lon="14.1521224"><ele>0.0</ele><time>2026-05-03T12:48:30.849Z</time></trkpt><trkpt lat="42.5218119" lon="14.1522024"><ele>0.0</ele><time>2026-05-03T12:48:31.849Z</time></trkpt><trkpt lat="42.5218437" lon="14.15228"><ele>0.0</ele><time>2026-05-03T12:48:32.849Z</time></trkpt><trkpt lat="42.5219022" lon="14.1524017"><ele>0.0</ele><time>2026-05-03T12:48:34.849Z</time></trkpt><trkpt lat="42.5219424" lon="14.1524717"><ele>0.0</ele><time>2026-05-03T12:48:36.849Z</time></trkpt><trkpt lat="42.5219907" lon="14.1525598"><ele>0.0</ele><time>2026-05-03T12:48:40.85Z</time></trkpt><trkpt lat="42.5220211" lon="14.152661"><ele>0.0</ele><time>2026-05-03T12:48:43.849Z</time></trkpt><trkpt lat="42.5219882" lon="14.152572"><ele>-1.0</ele><time>2026-05-03T12:50:30.848Z</time></trkpt><trkpt lat="42.5219526" lon="14.1524811"><ele>-1.0</ele><time>2026-05-03T12:50:33.848Z</time></trkpt><trkpt lat="42.5219799" lon="14.152395"><ele>-1.0</ele><time>2026-05-03T12:50:36.849Z</time></trkpt><trkpt lat="42.5220415" lon="14.152355"><ele>0.0</ele><time>2026-05-03T12:50:39.849Z</time></trkpt><trkpt lat="42.5221056" lon="14.1523651"><ele>2.0</ele><time>2026-05-03T12:50:42.848Z</time></trkpt><trkpt lat="42.5221577" lon="14.1524256"><ele>2.0</ele><time>2026-05-03T12:50:52.849Z</time></trkpt><trkpt lat="42.5221577" lon="14.1524256"><ele>2.0</ele><time>2026-05-03T12:50:52.849Z</time></trkpt><trkpt lat="42.5221577" lon="14.1524256"><ele>2.0</ele><time>2026-05-03T12:50:52.849Z</time></trkpt></trkseg></trk></gpx>